<?xml version='1.0' encoding='UTF-8'?><gpx version="1.1" creator="JPX - https://github.com/jenetics/jpx" xmlns="http://www.topografix.com/GPX/1/1"><trk><trkseg><trkpt lat="45.65280369604138" lon="10.04904949102336"><ele>186.5</ele><time>2026-04-12T08:29:51.001Z</time></trkpt><trkpt lat="45.652861259853566" lon="10.049131257205607"><ele>187.0</ele><time>2026-04-12T08:29:54.001Z</time></trkpt><trkpt lat="45.65291056407524" lon="10.049222781795686"><ele>187.5</ele><time>2026-04-12T08:29:57.001Z</time></trkpt><trkpt lat="45.652960060526084" lon="10.04933785629762"><ele>188.0</ele><time>2026-04-12T08:29:59.001Z</time></trkpt><trkpt lat="45.65304725298494" lon="10.049451449089023"><ele>188.5</ele><time>2026-04-12T08:30:01.001Z</time></trkpt><trkpt lat="45.65310547482958" lon="10.04950999735115"><ele>189.0</ele><time>2026-04-12T08:30:02.001Z</time></trkpt><trkpt lat="45.65317684304007" lon="10.049556783995714"><ele>189.0</ele><time>2026-04-12T08:30:03.001Z</time></trkpt><trkpt lat="45.65325316361345" lon="10.049590377889459"><ele>189.0</ele><time>2026-04-12T08:30:04.001Z</time></trkpt><trkpt lat="45.653336080814604" lon="10.04961938968497"><ele>189.0</ele><time>2026-04-12T08:30:05.001Z</time></trkpt><trkpt lat="45.65342763703629" lon="10.049649043794698"><ele>189.0</ele><time>2026-04-12T08:30:06.001Z</time></trkpt><trkpt lat="45.65352755935965" lon="10.049685571738975"><ele>189.0</ele><time>2026-04-12T08:30:07.001Z</time></trkpt><trkpt lat="45.653633659809266" lon="10.049722281621715"><ele>188.75</ele><time>2026-04-12T08:30:08.001Z</time></trkpt><trkpt lat="45.65374318814082" lon="10.049761269656406"><ele>188.5</ele><time>2026-04-12T08:30:09.001Z</time></trkpt><trkpt lat="45.653855391434846" lon="10.049799594099964"><ele>188.25</ele><time>2026-04-12T08:30:10.001Z</time></trkpt><trkpt lat="45.65396844595019" lon="10.049838451086396"><ele>188.0</ele><time>2026-04-12T08:30:11.001Z</time></trkpt><trkpt lat="45.654085544121436" lon="10.049881630011932"><ele>188.0</ele><time>2026-04-12T08:30:12.001Z</time></trkpt><trkpt lat="45.65420342582233" lon="10.049926144057688"><ele>188.0</ele><time>2026-04-12T08:30:13.001Z</time></trkpt><trkpt lat="45.65431729960947" lon="10.049982107221476"><ele>188.0</ele><time>2026-04-12T08:30:14.001Z</time></trkpt><trkpt lat="45.6544366740847" lon="10.050034214114529"><ele>188.0</ele><time>2026-04-12T08:30:15.001Z</time></trkpt><trkpt lat="45.65456043551725" lon="10.050081863331583"><ele>188.25</ele><time>2026-04-12T08:30:16.001Z</time></trkpt><trkpt lat="45.65468481939846" lon="10.050114304494633"><ele>188.5</ele><time>2026-04-12T08:30:17.001Z</time></trkpt><trkpt lat="45.6548051220458" lon="10.050152241576061"><ele>188.75</ele><time>2026-04-12T08:30:18.001Z</time></trkpt><trkpt lat="45.6549156081653" lon="10.050196080918985"><ele>189.0</ele><time>2026-04-12T08:30:19.001Z</time></trkpt><trkpt lat="45.65503354405668" lon="10.050236871916455"><ele>189.0</ele><time>2026-04-12T08:30:20.001Z</time></trkpt><trkpt lat="45.655137307727564" lon="10.05027012538823"><ele>189.0</ele><time>2026-04-12T08:30:21.001Z</time></trkpt><trkpt lat="45.65523223631424" lon="10.050300222791657"><ele>189.0</ele><time>2026-04-12T08:30:22.001Z</time></trkpt><trkpt lat="45.65533255627436" lon="10.050325629600627"><ele>189.0</ele><time>2026-04-12T08:30:23.001Z</time></trkpt><trkpt lat="45.65542796505861" lon="10.050354618386898"><ele>189.0</ele><time>2026-04-12T08:30:24.001Z</time></trkpt><trkpt lat="45.65552405117807" lon="10.050378439603133"><ele>189.25</ele><time>2026-04-12T08:30:25.001Z</time></trkpt><trkpt lat="45.655637729873014" lon="10.050418917695822"><ele>189.5</ele><time>2026-04-12T08:30:26.001Z</time></trkpt><trkpt lat="45.65575570360181" lon="10.05048888206555"><ele>189.75</ele><time>2026-04-12T08:30:27.001Z</time></trkpt><trkpt lat="45.65587713970989" lon="10.050535159551165"><ele>190.0</ele><time>2026-04-12T08:30:28.001Z</time></trkpt><trkpt lat="45.655994137910014" lon="10.05057974585593"><ele>190.0</ele><time>2026-04-12T08:30:29.001Z</time></trkpt><trkpt lat="45.65610809528022" lon="10.050619816213311"><ele>190.0</ele><time>2026-04-12T08:30:30.001Z</time></trkpt><trkpt lat="45.656230976376925" lon="10.050660076460671"><ele>190.0</ele><time>2026-04-12T08:30:31.001Z</time></trkpt><trkpt lat="45.65634033129455" lon="10.050674892825963"><ele>190.0</ele><time>2026-04-12T08:30:32.001Z</time></trkpt><trkpt lat="45.65644878557962" lon="10.050730131016492"><ele>190.0</ele><time>2026-04-12T08:30:33.001Z</time></trkpt><trkpt lat="45.65654909632846" lon="10.05077447063593"><ele>190.0</ele><time>2026-04-12T08:30:34.001Z</time></trkpt><trkpt lat="45.65664069736905" lon="10.050817917408171"><ele>190.0</ele><time>2026-04-12T08:30:35.001Z</time></trkpt><trkpt lat="45.65672681859901" lon="10.050859784202954"><ele>190.0</ele><time>2026-04-12T08:30:36.001Z</time></trkpt><trkpt lat="45.656811198716085" lon="10.050902893955142"><ele>190.0</ele><time>2026-04-12T08:30:37.001Z</time></trkpt><trkpt lat="45.65689368275571" lon="10.050949219221415"><ele>190.0</ele><time>2026-04-12T08:30:38.001Z</time></trkpt><trkpt lat="45.65697839767026" lon="10.051003635409474"><ele>190.0</ele><time>2026-04-12T08:30:39.001Z</time></trkpt><trkpt lat="45.6570593432438" lon="10.051051551991533"><ele>190.0</ele><time>2026-04-12T08:30:40.001Z</time></trkpt><trkpt lat="45.65714128459478" lon="10.051101010883704"><ele>190.0</ele><time>2026-04-12T08:30:41.001Z</time></trkpt><trkpt lat="45.65721881189092" lon="10.05114661686328"><ele>190.0</ele><time>2026-04-12T08:30:42Z</time></trkpt><trkpt lat="45.65729505314421" lon="10.051198087210407"><ele>190.0</ele><time>2026-04-12T08:30:43Z</time></trkpt><trkpt lat="45.6573757437585" lon="10.051257219269921"><ele>190.0</ele><time>2026-04-12T08:30:44Z</time></trkpt><trkpt lat="45.65744347713807" lon="10.051310367410945"><ele>190.0</ele><time>2026-04-12T08:30:45Z</time></trkpt><trkpt lat="45.657504341441125" lon="10.051361401856475"><ele>190.0</ele><time>2026-04-12T08:30:46Z</time></trkpt><trkpt lat="45.65756598366098" lon="10.051429478331695"><ele>190.0</ele><time>2026-04-12T08:30:47Z</time></trkpt><trkpt lat="45.65762476400765" lon="10.05149619790753"><ele>190.0</ele><time>2026-04-12T08:30:48Z</time></trkpt><trkpt lat="45.657678923709405" lon="10.051570334342527"><ele>190.0</ele><time>2026-04-12T08:30:49Z</time></trkpt><trkpt lat="45.65775531447802" lon="10.051642122810707"><ele>190.8</ele><time>2026-04-12T08:30:50Z</time></trkpt><trkpt lat="45.65782876864085" lon="10.051715019781833"><ele>191.6</ele><time>2026-04-12T08:30:51Z</time></trkpt><trkpt lat="45.657899222810116" lon="10.051789902097767"><ele>192.39999999999998</ele><time>2026-04-12T08:30:52Z</time></trkpt><trkpt lat="45.65797611138394" lon="10.051864971133378"><ele>193.2</ele><time>2026-04-12T08:30:53Z</time></trkpt><trkpt lat="45.65805564732521" lon="10.051943057587044"><ele>194.0</ele><time>2026-04-12T08:30:54Z</time></trkpt><trkpt lat="45.658132328924566" lon="10.052023373425738"><ele>194.00000000000003</ele><time>2026-04-12T08:30:55Z</time></trkpt><trkpt lat="45.658196954102" lon="10.05209682146055"><ele>194.0</ele><time>2026-04-12T08:30:56Z</time></trkpt><trkpt lat="45.658254858113004" lon="10.052157749229515"><ele>194.0</ele><time>2026-04-12T08:30:57Z</time></trkpt><trkpt lat="45.658347408293686" lon="10.052243108639676"><ele>194.0</ele><time>2026-04-12T08:30:59Z</time></trkpt><trkpt lat="45.65841205109843" lon="10.05229918824558"><ele>194.00000000000003</ele><time>2026-04-12T08:31:01Z</time></trkpt><trkpt lat="45.658487383026845" lon="10.052375025285707"><ele>194.0</ele><time>2026-04-12T08:31:19Z</time></trkpt><trkpt lat="45.658547890090624" lon="10.052428576594856"><ele>194.2</ele><time>2026-04-12T08:31:20Z</time></trkpt><trkpt lat="45.65862006457201" lon="10.052499655530005"><ele>194.39999999999998</ele><time>2026-04-12T08:31:21Z</time></trkpt><trkpt lat="45.65869721690952" lon="10.052575046211397"><ele>194.6</ele><time>2026-04-12T08:31:22Z</time></trkpt><trkpt lat="45.65878081964848" lon="10.052658665151421"><ele>194.8</ele><time>2026-04-12T08:31:23Z</time></trkpt><trkpt lat="45.65886859328258" lon="10.052747247069995"><ele>195.0</ele><time>2026-04-12T08:31:24Z</time></trkpt><trkpt lat="45.65894939104764" lon="10.052836024286348"><ele>195.0</ele><time>2026-04-12T08:31:25Z</time></trkpt><trkpt lat="45.65901901459589" lon="10.052917859695807"><ele>195.0</ele><time>2026-04-12T08:31:26Z</time></trkpt><trkpt lat="45.65907293024303" lon="10.052991485352777"><ele>195.0</ele><time>2026-04-12T08:31:27Z</time></trkpt><trkpt lat="45.65911219063707" lon="10.05307939750425"><ele>195.0</ele><time>2026-04-12T08:31:28Z</time></trkpt><trkpt lat="45.659133465097824" lon="10.053171016949003"><ele>195.0</ele><time>2026-04-12T08:31:29Z</time></trkpt><trkpt lat="45.659241040313525" lon="10.053255006770755"><ele>195.0</ele><time>2026-04-12T08:31:31Z</time></trkpt><trkpt lat="45.65931917125508" lon="10.053268909033761"><ele>195.6</ele><time>2026-04-12T08:31:32Z</time></trkpt><trkpt lat="45.659411818637295" lon="10.053309655827244"><ele>196.2</ele><time>2026-04-12T08:31:33Z</time></trkpt><trkpt lat="45.65949455879707" lon="10.053401540720081"><ele>196.8</ele><time>2026-04-12T08:31:34Z</time></trkpt><trkpt lat="45.65957938223507" lon="10.053490804031792"><ele>197.4</ele><time>2026-04-12T08:31:35Z</time></trkpt><trkpt lat="45.659679755960155" lon="10.053582456024388"><ele>198.0</ele><time>2026-04-12T08:31:36Z</time></trkpt><trkpt lat="45.65978302324297" lon="10.053676964505025"><ele>198.0</ele><time>2026-04-12T08:31:37Z</time></trkpt><trkpt lat="45.65987621356282" lon="10.053768314496232"><ele>198.0</ele><time>2026-04-12T08:31:38Z</time></trkpt><trkpt lat="45.65996374651825" lon="10.053858184380317"><ele>198.0</ele><time>2026-04-12T08:31:39Z</time></trkpt><trkpt lat="45.66003400923762" lon="10.05393126450889"><ele>198.0</ele><time>2026-04-12T08:31:40Z</time></trkpt><trkpt lat="45.66009948537326" lon="10.054012067907495"><ele>198.0</ele><time>2026-04-12T08:31:41Z</time></trkpt><trkpt lat="45.66014674540802" lon="10.054104145165319"><ele>198.2</ele><time>2026-04-12T08:31:42Z</time></trkpt><trkpt lat="45.66017820084232" lon="10.054216771188528"><ele>198.4</ele><time>2026-04-12T08:31:43Z</time></trkpt><trkpt lat="45.660216296787866" lon="10.05433149221085"><ele>198.6</ele><time>2026-04-12T08:31:44Z</time></trkpt><trkpt lat="45.66017262457709" lon="10.05449638259265"><ele>198.79999999999998</ele><time>2026-04-12T08:31:45Z</time></trkpt><trkpt lat="45.66014965380005" lon="10.054652515963971"><ele>199.0</ele><time>2026-04-12T08:31:46Z</time></trkpt><trkpt lat="45.66011492491933" lon="10.054818984777535"><ele>199.39999999999998</ele><time>2026-04-12T08:31:47Z</time></trkpt><trkpt lat="45.66007910739713" lon="10.054960983022198"><ele>199.8</ele><time>2026-04-12T08:31:48Z</time></trkpt><trkpt lat="45.660051839637624" lon="10.055095619456758"><ele>200.2</ele><time>2026-04-12T08:31:49Z</time></trkpt><trkpt lat="45.66003314547409" lon="10.055211950555062"><ele>200.60000000000002</ele><time>2026-04-12T08:31:50Z</time></trkpt><trkpt lat="45.660014188691186" lon="10.055352041365811"><ele>201.0</ele><time>2026-04-12T08:31:51Z</time></trkpt><trkpt lat="45.65998162324687" lon="10.055506184791506"><ele>201.0</ele><time>2026-04-12T08:31:52Z</time></trkpt><trkpt lat="45.65994844747125" lon="10.055657938949127"><ele>201.0</ele><time>2026-04-12T08:31:53Z</time></trkpt><trkpt lat="45.65991671932912" lon="10.055815510962837"><ele>201.0</ele><time>2026-04-12T08:31:54Z</time></trkpt><trkpt lat="45.65986991840794" lon="10.055970239473023"><ele>201.0</ele><time>2026-04-12T08:31:55Z</time></trkpt><trkpt lat="45.659833115750615" lon="10.056127590768654"><ele>202.25</ele><time>2026-04-12T08:31:56Z</time></trkpt><trkpt lat="45.65979928907174" lon="10.05628626524367"><ele>203.5</ele><time>2026-04-12T08:31:57Z</time></trkpt><trkpt lat="45.65975604142012" lon="10.05645493773008"><ele>204.75</ele><time>2026-04-12T08:31:58Z</time></trkpt><trkpt lat="45.659720704767835" lon="10.056626162652515"><ele>206.0</ele><time>2026-04-12T08:31:59Z</time></trkpt><trkpt lat="45.659685433885905" lon="10.05680180787009"><ele>207.0</ele><time>2026-04-12T08:32:00Z</time></trkpt><trkpt lat="45.6596455225179" lon="10.056970535527805"><ele>208.0</ele><time>2026-04-12T08:32:01Z</time></trkpt><trkpt lat="45.659606951501814" lon="10.057147384166925"><ele>209.0</ele><time>2026-04-12T08:32:02Z</time></trkpt><trkpt lat="45.659563974000726" lon="10.057323177644257"><ele>210.0</ele><time>2026-04-12T08:32:03Z</time></trkpt><trkpt lat="45.65951319632387" lon="10.057515981903537"><ele>210.5</ele><time>2026-04-12T08:32:04Z</time></trkpt><trkpt lat="45.65948153424834" lon="10.057678671564055"><ele>211.0</ele><time>2026-04-12T08:32:05Z</time></trkpt><trkpt lat="45.659443102694276" lon="10.057858905422961"><ele>211.5</ele><time>2026-04-12T08:32:06Z</time></trkpt><trkpt lat="45.65938353712988" lon="10.058032237299615"><ele>212.0</ele><time>2026-04-12T08:32:07Z</time></trkpt><trkpt lat="45.6593389388809" lon="10.058211481479216"><ele>213.25</ele><time>2026-04-12T08:32:08Z</time></trkpt><trkpt lat="45.65930176863962" lon="10.05838768364747"><ele>214.5</ele><time>2026-04-12T08:32:09Z</time></trkpt><trkpt lat="45.659256721333456" lon="10.058575860029451"><ele>215.75</ele><time>2026-04-12T08:32:10Z</time></trkpt><trkpt lat="45.65921104042288" lon="10.058754980978627"><ele>217.0</ele><time>2026-04-12T08:32:11Z</time></trkpt><trkpt lat="45.65917248734195" lon="10.05891092064366"><ele>217.0</ele><time>2026-04-12T08:32:12Z</time></trkpt><trkpt lat="45.659136830115365" lon="10.05907381205064"><ele>217.0</ele><time>2026-04-12T08:32:13Z</time></trkpt><trkpt lat="45.65910495227678" lon="10.05923223528946"><ele>217.0</ele><time>2026-04-12T08:32:14Z</time></trkpt><trkpt lat="45.659070478997506" lon="10.059374067003558"><ele>217.0</ele><time>2026-04-12T08:32:15Z</time></trkpt><trkpt lat="45.659062371965604" lon="10.059522405102859"><ele>217.0</ele><time>2026-04-12T08:32:16Z</time></trkpt><trkpt lat="45.65908169778158" lon="10.059687678674083"><ele>217.75</ele><time>2026-04-12T08:32:17Z</time></trkpt><trkpt lat="45.65911714979473" lon="10.059834019204668"><ele>218.5</ele><time>2026-04-12T08:32:18Z</time></trkpt><trkpt lat="45.65923081701093" lon="10.05992976557771"><ele>219.25</ele><time>2026-04-12T08:32:19Z</time></trkpt><trkpt lat="45.65930236507645" lon="10.06004818350578"><ele>220.0</ele><time>2026-04-12T08:32:20Z</time></trkpt><trkpt lat="45.65938946310083" lon="10.060151238408425"><ele>218.75</ele><time>2026-04-12T08:32:21Z</time></trkpt><trkpt lat="45.659491187087596" lon="10.060257191009335"><ele>217.5</ele><time>2026-04-12T08:32:22Z</time></trkpt><trkpt lat="45.65958290765614" lon="10.060364010164774"><ele>216.25</ele><time>2026-04-12T08:32:23Z</time></trkpt><trkpt lat="45.65967627648474" lon="10.060487564392236"><ele>215.0</ele><time>2026-04-12T08:32:24Z</time></trkpt><trkpt lat="45.65976990824775" lon="10.06062152735628"><ele>215.0</ele><time>2026-04-12T08:32:25Z</time></trkpt><trkpt lat="45.65984237495952" lon="10.060772751010614"><ele>215.0</ele><time>2026-04-12T08:32:26Z</time></trkpt><trkpt lat="45.65991553104368" lon="10.060930779593354"><ele>215.0</ele><time>2026-04-12T08:32:27Z</time></trkpt><trkpt lat="45.659977054203395" lon="10.061099162921908"><ele>215.0</ele><time>2026-04-12T08:32:28Z</time></trkpt><trkpt lat="45.660014952948295" lon="10.061287158648437"><ele>216.5</ele><time>2026-04-12T08:32:29Z</time></trkpt><trkpt lat="45.660028409413734" lon="10.061487736091076"><ele>218.0</ele><time>2026-04-12T08:32:30Z</time></trkpt><trkpt lat="45.660047990978974" lon="10.061672976681304"><ele>219.5</ele><time>2026-04-12T08:32:31Z</time></trkpt><trkpt lat="45.660065913509825" lon="10.061867254950291"><ele>221.0</ele><time>2026-04-12T08:32:32Z</time></trkpt><trkpt lat="45.660079973652486" lon="10.062063324886877"><ele>222.25</ele><time>2026-04-12T08:32:33Z</time></trkpt><trkpt lat="45.660104319606546" lon="10.062258152203972"><ele>223.5</ele><time>2026-04-12T08:32:34Z</time></trkpt><trkpt lat="45.6601318319285" lon="10.062445325026925"><ele>224.75</ele><time>2026-04-12T08:32:35Z</time></trkpt><trkpt lat="45.66015519824673" lon="10.062641939243969"><ele>226.0</ele><time>2026-04-12T08:32:36Z</time></trkpt><trkpt lat="45.66017809518583" lon="10.062847208778873"><ele>227.25</ele><time>2026-04-12T08:32:37Z</time></trkpt><trkpt lat="45.66020399037017" lon="10.06302826549237"><ele>228.5</ele><time>2026-04-12T08:32:38Z</time></trkpt><trkpt lat="45.66021584715609" lon="10.063227764316444"><ele>229.75</ele><time>2026-04-12T08:32:39Z</time></trkpt><trkpt lat="45.660255194775225" lon="10.06344697821854"><ele>231.0</ele><time>2026-04-12T08:32:40Z</time></trkpt><trkpt lat="45.66029340433221" lon="10.063653793733113"><ele>231.75</ele><time>2026-04-12T08:32:41Z</time></trkpt><trkpt lat="45.660354651339496" lon="10.063838872548757"><ele>232.5</ele><time>2026-04-12T08:32:42Z</time></trkpt><trkpt lat="45.660441027539434" lon="10.063989446106008"><ele>233.25</ele><time>2026-04-12T08:32:43Z</time></trkpt><trkpt lat="45.66055597860476" lon="10.064098547494174"><ele>234.0</ele><time>2026-04-12T08:32:44Z</time></trkpt><trkpt lat="45.660684623933626" lon="10.064204360218012"><ele>235.25</ele><time>2026-04-12T08:32:45Z</time></trkpt><trkpt lat="45.660811898764905" lon="10.064250885891061"><ele>236.5</ele><time>2026-04-12T08:32:46Z</time></trkpt><trkpt lat="45.66095063520359" lon="10.064329378632992"><ele>237.75</ele><time>2026-04-12T08:32:47Z</time></trkpt><trkpt lat="45.66109112095486" lon="10.064397608028932"><ele>239.0</ele><time>2026-04-12T08:32:48Z</time></trkpt><trkpt lat="45.66121519941452" lon="10.064450857080066"><ele>239.0</ele><time>2026-04-12T08:32:49Z</time></trkpt><trkpt lat="45.661324532413985" lon="10.064483103289977"><ele>238.99999999999997</ele><time>2026-04-12T08:32:50Z</time></trkpt><trkpt lat="45.66141770796356" lon="10.064495337894792"><ele>238.99999999999997</ele><time>2026-04-12T08:32:51Z</time></trkpt><trkpt lat="45.66148735451968" lon="10.064506583012067"><ele>239.0</ele><time>2026-04-12T08:32:52Z</time></trkpt><trkpt lat="45.661554316634394" lon="10.06461144805421"><ele>239.0</ele><time>2026-04-12T08:32:54Z</time></trkpt><trkpt lat="45.66150242098217" lon="10.064755872989128"><ele>239.0</ele><time>2026-04-12T08:32:56Z</time></trkpt><trkpt lat="45.661434354827364" lon="10.064786615582744"><ele>238.99999999999997</ele><time>2026-04-12T08:32:57Z</time></trkpt><trkpt lat="45.66134852564211" lon="10.06477397438065"><ele>238.99999999999997</ele><time>2026-04-12T08:32:58Z</time></trkpt><trkpt lat="45.66123537334564" lon="10.064726463437928"><ele>239.0</ele><time>2026-04-12T08:32:59Z</time></trkpt><trkpt lat="45.66110897406624" lon="10.064681223126788"><ele>239.0</ele><time>2026-04-12T08:33:00Z</time></trkpt><trkpt lat="45.660972956139425" lon="10.064654635744024"><ele>240.0</ele><time>2026-04-12T08:33:01Z</time></trkpt><trkpt lat="45.660830660114705" lon="10.064635165053843"><ele>241.0</ele><time>2026-04-12T08:33:02Z</time></trkpt><trkpt lat="45.660691933182406" lon="10.064603892183982"><ele>242.0</ele><time>2026-04-12T08:33:03Z</time></trkpt><trkpt lat="45.66054960891081" lon="10.064542109699705"><ele>243.0</ele><time>2026-04-12T08:33:04Z</time></trkpt><trkpt lat="45.66040671766111" lon="10.0644650120888"><ele>247.66666666666669</ele><time>2026-04-12T08:33:05Z</time></trkpt><trkpt lat="45.66026588844663" lon="10.064384898623675"><ele>252.33333333333334</ele><time>2026-04-12T08:33:06Z</time></trkpt><trkpt lat="45.660120184210584" lon="10.064311414429103"><ele>257.0</ele><time>2026-04-12T08:33:07Z</time></trkpt><trkpt lat="45.65996798651412" lon="10.06424193599435"><ele>257.0</ele><time>2026-04-12T08:33:08Z</time></trkpt><trkpt lat="45.65981175087336" lon="10.064183764219004"><ele>257.0</ele><time>2026-04-12T08:33:09Z</time></trkpt><trkpt lat="45.659651959941364" lon="10.064132307612208"><ele>257.0</ele><time>2026-04-12T08:33:10Z</time></trkpt><trkpt lat="45.6595000152106" lon="10.064077217516026"><ele>255.0</ele><time>2026-04-12T08:33:11Z</time></trkpt><trkpt lat="45.65934228256952" lon="10.064018776362124"><ele>253.0</ele><time>2026-04-12T08:33:12Z</time></trkpt><trkpt lat="45.65919020152948" lon="10.063959171040525"><ele>251.0</ele><time>2026-04-12T08:33:13Z</time></trkpt><trkpt lat="45.659046099363024" lon="10.063908448611341"><ele>251.0</ele><time>2026-04-12T08:33:14Z</time></trkpt><trkpt lat="45.65890530964277" lon="10.063853677570915"><ele>251.0</ele><time>2026-04-12T08:33:15Z</time></trkpt><trkpt lat="45.658760890408324" lon="10.063810319171221"><ele>251.0</ele><time>2026-04-12T08:33:16Z</time></trkpt><trkpt lat="45.65861170949917" lon="10.063781550532145"><ele>251.0</ele><time>2026-04-12T08:33:17Z</time></trkpt><trkpt lat="45.658459582023056" lon="10.06377137732071"><ele>255.0</ele><time>2026-04-12T08:33:18Z</time></trkpt><trkpt lat="45.65830061617367" lon="10.063788294732431"><ele>259.0</ele><time>2026-04-12T08:33:19Z</time></trkpt><trkpt lat="45.65814749050501" lon="10.06384044516879"><ele>263.0</ele><time>2026-04-12T08:33:20Z</time></trkpt><trkpt lat="45.65800085885519" lon="10.063900906444358"><ele>263.0</ele><time>2026-04-12T08:33:21Z</time></trkpt><trkpt lat="45.65787958840213" lon="10.063944771224453"><ele>263.0</ele><time>2026-04-12T08:33:22Z</time></trkpt><trkpt lat="45.65777961375323" lon="10.063878901834478"><ele>263.0</ele><time>2026-04-12T08:33:23Z</time></trkpt><trkpt lat="45.657679415998686" lon="10.063785357464928"><ele>263.0</ele><time>2026-04-12T08:33:24Z</time></trkpt><trkpt lat="45.65760521697638" lon="10.063700383905978"><ele>264.5</ele><time>2026-04-12T08:33:25Z</time></trkpt><trkpt lat="45.657540954251814" lon="10.063646926064449"><ele>266.0</ele><time>2026-04-12T08:33:26Z</time></trkpt><trkpt lat="45.65746720964452" lon="10.063641015240021"><ele>267.5</ele><time>2026-04-12T08:33:27Z</time></trkpt><trkpt lat="45.657400953844494" lon="10.063668927260506"><ele>269.0</ele><time>2026-04-12T08:33:28Z</time></trkpt><trkpt lat="45.65733186733902" lon="10.063771556340646"><ele>270.5</ele><time>2026-04-12T08:33:29Z</time></trkpt><trkpt lat="45.65730120316775" lon="10.063878907313724"><ele>272.0</ele><time>2026-04-12T08:33:30Z</time></trkpt><trkpt lat="45.65730370677965" lon="10.063994666546243"><ele>272.0</ele><time>2026-04-12T08:33:31Z</time></trkpt><trkpt lat="45.657345107048904" lon="10.064099792925136"><ele>272.0</ele><time>2026-04-12T08:33:32Z</time></trkpt><trkpt lat="45.6574162333816" lon="10.064171695335657"><ele>272.0</ele><time>2026-04-12T08:33:33Z</time></trkpt><trkpt lat="45.65750595908748" lon="10.0642051177808"><ele>272.0</ele><time>2026-04-12T08:33:34Z</time></trkpt><trkpt lat="45.657606276909796" lon="10.064247660630656"><ele>272.0</ele><time>2026-04-12T08:33:35Z</time></trkpt><trkpt lat="45.657729111587216" lon="10.064273334577864"><ele>275.75</ele><time>2026-04-12T08:33:36Z</time></trkpt><trkpt lat="45.65786908085419" lon="10.064302589893225"><ele>279.5</ele><time>2026-04-12T08:33:37Z</time></trkpt><trkpt lat="45.65801561113175" lon="10.06433308084008"><ele>283.25</ele><time>2026-04-12T08:33:38Z</time></trkpt><trkpt lat="45.65817114095386" lon="10.064364077411513"><ele>287.0</ele><time>2026-04-12T08:33:39Z</time></trkpt><trkpt lat="45.65832824246367" lon="10.064396518861425"><ele>287.0</ele><time>2026-04-12T08:33:40Z</time></trkpt><trkpt lat="45.65848395179724" lon="10.064405789226049"><ele>287.0</ele><time>2026-04-12T08:33:41Z</time></trkpt><trkpt lat="45.65862021773203" lon="10.064456482559471"><ele>287.0</ele><time>2026-04-12T08:33:42Z</time></trkpt><trkpt lat="45.658752078767726" lon="10.064515169890946"><ele>287.0</ele><time>2026-04-12T08:33:43Z</time></trkpt><trkpt lat="45.65887806190615" lon="10.064604336092488"><ele>284.25</ele><time>2026-04-12T08:33:44Z</time></trkpt><trkpt lat="45.658996768148" lon="10.064718410823014"><ele>281.5</ele><time>2026-04-12T08:33:45Z</time></trkpt><trkpt lat="45.659108732874294" lon="10.064844489006687"><ele>278.75</ele><time>2026-04-12T08:33:46Z</time></trkpt><trkpt lat="45.65921664938195" lon="10.064991079037526"><ele>276.0</ele><time>2026-04-12T08:33:47Z</time></trkpt><trkpt lat="45.65933110924753" lon="10.065133681457588"><ele>277.5</ele><time>2026-04-12T08:33:48Z</time></trkpt><trkpt lat="45.65944210855226" lon="10.06528006246493"><ele>279.0</ele><time>2026-04-12T08:33:49Z</time></trkpt><trkpt lat="45.65955307518301" lon="10.06542504265825"><ele>280.5</ele><time>2026-04-12T08:33:50Z</time></trkpt><trkpt lat="45.65965318964414" lon="10.06555275666885"><ele>282.0</ele><time>2026-04-12T08:33:51Z</time></trkpt><trkpt lat="45.659737814541664" lon="10.065663148200965"><ele>282.0</ele><time>2026-04-12T08:33:52Z</time></trkpt><trkpt lat="45.65981506613294" lon="10.06576914615072"><ele>282.0</ele><time>2026-04-12T08:33:53Z</time></trkpt><trkpt lat="45.65988609052625" lon="10.065901501577079"><ele>282.0</ele><time>2026-04-12T08:33:54Z</time></trkpt><trkpt lat="45.65995276873223" lon="10.066046725113443"><ele>282.0</ele><time>2026-04-12T08:33:55Z</time></trkpt><trkpt lat="45.660029085419744" lon="10.06619312669423"><ele>286.0</ele><time>2026-04-12T08:33:56Z</time></trkpt><trkpt lat="45.66010385068117" lon="10.066363155559271"><ele>290.0</ele><time>2026-04-12T08:33:57Z</time></trkpt><trkpt lat="45.660168544437916" lon="10.066551940236007"><ele>294.0</ele><time>2026-04-12T08:33:58Z</time></trkpt><trkpt lat="45.66025373599505" lon="10.066739732140103"><ele>298.0</ele><time>2026-04-12T08:33:59Z</time></trkpt><trkpt lat="45.660340461351964" lon="10.066933132433311"><ele>298.0</ele><time>2026-04-12T08:34:00Z</time></trkpt><trkpt lat="45.66043206812839" lon="10.067132363394157"><ele>298.0</ele><time>2026-04-12T08:34:01Z</time></trkpt><trkpt lat="45.660511479539515" lon="10.06734207285974"><ele>298.0</ele><time>2026-04-12T08:34:02Z</time></trkpt><trkpt lat="45.66059814375229" lon="10.06753225221294"><ele>301.75</ele><time>2026-04-12T08:34:03Z</time></trkpt><trkpt lat="45.66067129112774" lon="10.067715467942827"><ele>305.5</ele><time>2026-04-12T08:34:04Z</time></trkpt><trkpt lat="45.66073783708202" lon="10.067882449316478"><ele>309.25</ele><time>2026-04-12T08:34:05Z</time></trkpt><trkpt lat="45.660797020024425" lon="10.068049701415665"><ele>313.0</ele><time>2026-04-12T08:34:06Z</time></trkpt><trkpt lat="45.66082822078712" lon="10.068224327569315"><ele>316.6</ele><time>2026-04-12T08:34:07Z</time></trkpt><trkpt lat="45.66087494306833" lon="10.068378839248833"><ele>320.20000000000005</ele><time>2026-04-12T08:34:08Z</time></trkpt><trkpt lat="45.66087305838568" lon="10.068538648334314"><ele>323.8</ele><time>2026-04-12T08:34:09Z</time></trkpt><trkpt lat="45.66087629008139" lon="10.068685523601411"><ele>327.40000000000003</ele><time>2026-04-12T08:34:10Z</time></trkpt><trkpt lat="45.66088029036966" lon="10.068819254316587"><ele>331.0</ele><time>2026-04-12T08:34:11Z</time></trkpt><trkpt lat="45.660904872021334" lon="10.068932125159254"><ele>331.0</ele><time>2026-04-12T08:34:12Z</time></trkpt><trkpt lat="45.66095591286172" lon="10.069032187947471"><ele>331.0</ele><time>2026-04-12T08:34:13Z</time></trkpt><trkpt lat="45.66104599558061" lon="10.069075863599222"><ele>331.0</ele><time>2026-04-12T08:34:14Z</time></trkpt><trkpt lat="45.66113228090176" lon="10.069036213193632"><ele>331.0</ele><time>2026-04-12T08:34:15Z</time></trkpt><trkpt lat="45.66121136538106" lon="10.068944412572929"><ele>331.0</ele><time>2026-04-12T08:34:16Z</time></trkpt><trkpt lat="45.66125186801304" lon="10.068813144435143"><ele>331.75</ele><time>2026-04-12T08:34:17Z</time></trkpt><trkpt lat="45.661285400951144" lon="10.068646105576109"><ele>332.5</ele><time>2026-04-12T08:34:18Z</time></trkpt><trkpt lat="45.661336472733616" lon="10.068477267353693"><ele>333.25</ele><time>2026-04-12T08:34:19Z</time></trkpt><trkpt lat="45.66137302837271" lon="10.068327185577468"><ele>334.0</ele><time>2026-04-12T08:34:20Z</time></trkpt><trkpt lat="45.661415217653676" lon="10.06821388838441"><ele>329.8</ele><time>2026-04-12T08:34:21Z</time></trkpt><trkpt lat="45.661468657294655" lon="10.068137761518809"><ele>325.59999999999997</ele><time>2026-04-12T08:34:22Z</time></trkpt><trkpt lat="45.661543339383506" lon="10.068097727224455"><ele>321.4</ele><time>2026-04-12T08:34:23Z</time></trkpt><trkpt lat="45.661646659615414" lon="10.068058021658283"><ele>317.2</ele><time>2026-04-12T08:34:24Z</time></trkpt><trkpt lat="45.6617513516695" lon="10.068047798781645"><ele>313.0</ele><time>2026-04-12T08:34:25Z</time></trkpt><trkpt lat="45.66185822092177" lon="10.068039332299715"><ele>314.6</ele><time>2026-04-12T08:34:26Z</time></trkpt><trkpt lat="45.66195819309074" lon="10.068057775667572"><ele>316.20000000000005</ele><time>2026-04-12T08:34:27Z</time></trkpt><trkpt lat="45.66203974043949" lon="10.068131322704355"><ele>317.8</ele><time>2026-04-12T08:34:28Z</time></trkpt><trkpt lat="45.6621204878883" lon="10.068227911239399"><ele>319.40000000000003</ele><time>2026-04-12T08:34:29Z</time></trkpt><trkpt lat="45.66222211876617" lon="10.06836600950469"><ele>321.0</ele><time>2026-04-12T08:34:30Z</time></trkpt><trkpt lat="45.662324234196355" lon="10.06850901525747"><ele>324.0</ele><time>2026-04-12T08:34:31Z</time></trkpt><trkpt lat="45.66242293301677" lon="10.06865468892148"><ele>327.0</ele><time>2026-04-12T08:34:32Z</time></trkpt><trkpt lat="45.66251983884298" lon="10.068797716506644"><ele>330.0</ele><time>2026-04-12T08:34:33Z</time></trkpt><trkpt lat="45.66261505341874" lon="10.06892997046936"><ele>333.0</ele><time>2026-04-12T08:34:34Z</time></trkpt><trkpt lat="45.66271766104781" lon="10.069029417784575"><ele>336.0</ele><time>2026-04-12T08:34:35Z</time></trkpt><trkpt lat="45.66282722741141" lon="10.069089002858414"><ele>339.0</ele><time>2026-04-12T08:34:36Z</time></trkpt><trkpt lat="45.662951049481734" lon="10.069085668450152"><ele>342.0</ele><time>2026-04-12T08:34:37Z</time></trkpt><trkpt lat="45.66306783877105" lon="10.069003570373075"><ele>345.0</ele><time>2026-04-12T08:34:38Z</time></trkpt><trkpt lat="45.6631606744628" lon="10.068905659607047"><ele>345.0</ele><time>2026-04-12T08:34:39Z</time></trkpt><trkpt lat="45.66323996745664" lon="10.068807230235498"><ele>345.0</ele><time>2026-04-12T08:34:40Z</time></trkpt><trkpt lat="45.663313571106066" lon="10.068729583458232"><ele>345.0</ele><time>2026-04-12T08:34:41Z</time></trkpt><trkpt lat="45.66339184781148" lon="10.068687982305548"><ele>345.0</ele><time>2026-04-12T08:34:42Z</time></trkpt><trkpt lat="45.663470766115914" lon="10.06870500115704"><ele>345.0</ele><time>2026-04-12T08:34:43Z</time></trkpt><trkpt lat="45.66354575043654" lon="10.068766927231893"><ele>345.0</ele><time>2026-04-12T08:34:44Z</time></trkpt><trkpt lat="45.66359535376451" lon="10.068872933970933"><ele>345.0</ele><time>2026-04-12T08:34:45Z</time></trkpt><trkpt lat="45.66360189687377" lon="10.06899283893602"><ele>345.0</ele><time>2026-04-12T08:34:46Z</time></trkpt><trkpt lat="45.66356990816795" lon="10.069120479955997"><ele>345.0</ele><time>2026-04-12T08:34:47Z</time></trkpt><trkpt lat="45.66350844399389" lon="10.069230033938453"><ele>345.0</ele><time>2026-04-12T08:34:48Z</time></trkpt><trkpt lat="45.66343469173523" lon="10.069347676783849"><ele>345.0</ele><time>2026-04-12T08:34:49Z</time></trkpt><trkpt lat="45.66337584489494" lon="10.069495886325228"><ele>345.4</ele><time>2026-04-12T08:34:50Z</time></trkpt><trkpt lat="45.66333948048081" lon="10.06965000061531"><ele>345.8</ele><time>2026-04-12T08:34:51Z</time></trkpt><trkpt lat="45.66331343848366" lon="10.069784884825172"><ele>346.20000000000005</ele><time>2026-04-12T08:34:52Z</time></trkpt><trkpt lat="45.66328117602767" lon="10.069907705158684"><ele>346.6</ele><time>2026-04-12T08:34:53Z</time></trkpt><trkpt lat="45.66323149727469" lon="10.069999350875584"><ele>347.0</ele><time>2026-04-12T08:34:54Z</time></trkpt><trkpt lat="45.66315400426117" lon="10.070039326508319"><ele>347.0</ele><time>2026-04-12T08:34:55Z</time></trkpt><trkpt lat="45.66307579085917" lon="10.070021426861047"><ele>347.0</ele><time>2026-04-12T08:34:56Z</time></trkpt><trkpt lat="45.66300221820368" lon="10.069937055213392"><ele>347.0</ele><time>2026-04-12T08:34:57Z</time></trkpt><trkpt lat="45.66293960864372" lon="10.069809800665654"><ele>347.0</ele><time>2026-04-12T08:34:58Z</time></trkpt><trkpt lat="45.66287272220166" lon="10.069678138867761"><ele>347.0</ele><time>2026-04-12T08:34:59Z</time></trkpt><trkpt lat="45.66279416392435" lon="10.069552427501218"><ele>347.25</ele><time>2026-04-12T08:35:00Z</time></trkpt><trkpt lat="45.66269343807253" lon="10.069475416566235"><ele>347.5</ele><time>2026-04-12T08:35:01Z</time></trkpt><trkpt lat="45.66257250434284" lon="10.069449382839098"><ele>347.75</ele><time>2026-04-12T08:35:02Z</time></trkpt><trkpt lat="45.66243977543286" lon="10.06945490872056"><ele>348.0</ele><time>2026-04-12T08:35:03Z</time></trkpt><trkpt lat="45.662309916890344" lon="10.069418511983114"><ele>348.0</ele><time>2026-04-12T08:35:04Z</time></trkpt><trkpt lat="45.66218398707451" lon="10.069340031073349"><ele>348.0</ele><time>2026-04-12T08:35:05Z</time></trkpt><trkpt lat="45.66207347075937" lon="10.069273447012897"><ele>348.0</ele><time>2026-04-12T08:35:06Z</time></trkpt><trkpt lat="45.661982111914355" lon="10.069192663548028"><ele>348.0</ele><time>2026-04-12T08:35:07Z</time></trkpt><trkpt lat="45.661922009137434" lon="10.069076874761421"><ele>345.6666666666667</ele><time>2026-04-12T08:35:08Z</time></trkpt><trkpt lat="45.661895428883575" lon="10.068955431491617"><ele>343.3333333333333</ele><time>2026-04-12T08:35:09Z</time></trkpt><trkpt lat="45.66188198755348" lon="10.0688652853904"><ele>341.0</ele><time>2026-04-12T08:35:10Z</time></trkpt><trkpt lat="45.661803969227556" lon="10.068765548791015"><ele>338.66666666666663</ele><time>2026-04-12T08:35:12Z</time></trkpt><trkpt lat="45.661737995605584" lon="10.068766472074758"><ele>336.3333333333333</ele><time>2026-04-12T08:35:13Z</time></trkpt><trkpt lat="45.66167066221921" lon="10.068823214382688"><ele>334.0</ele><time>2026-04-12T08:35:14Z</time></trkpt><trkpt lat="45.6616159712337" lon="10.06890499850512"><ele>334.0</ele><time>2026-04-12T08:35:15Z</time></trkpt><trkpt lat="45.66155994909243" lon="10.069023060087927"><ele>334.0</ele><time>2026-04-12T08:35:16Z</time></trkpt><trkpt lat="45.66149408451523" lon="10.069171088033476"><ele>334.0</ele><time>2026-04-12T08:35:17Z</time></trkpt><trkpt lat="45.66141836624289" lon="10.069345055793496"><ele>334.0</ele><time>2026-04-12T08:35:18Z</time></trkpt><trkpt lat="45.66133558521534" lon="10.069521725835116"><ele>338.5</ele><time>2026-04-12T08:35:19Z</time></trkpt><trkpt lat="45.66124882997205" lon="10.069695086054827"><ele>343.0</ele><time>2026-04-12T08:35:20Z</time></trkpt><trkpt lat="45.66117120047738" lon="10.06985672984802"><ele>347.5</ele><time>2026-04-12T08:35:21Z</time></trkpt><trkpt lat="45.66110053154559" lon="10.070005455848428"><ele>352.0</ele><time>2026-04-12T08:35:22Z</time></trkpt><trkpt lat="45.66103097276473" lon="10.07014761854377"><ele>354.8</ele><time>2026-04-12T08:35:23Z</time></trkpt><trkpt lat="45.660947845473174" lon="10.070259478514906"><ele>357.6</ele><time>2026-04-12T08:35:24Z</time></trkpt><trkpt lat="45.660885405605164" lon="10.070389999032614"><ele>360.40000000000003</ele><time>2026-04-12T08:35:25Z</time></trkpt><trkpt lat="45.66081694044358" lon="10.070461154632262"><ele>363.20000000000005</ele><time>2026-04-12T08:35:26Z</time></trkpt><trkpt lat="45.66074453592114" lon="10.070506402762994"><ele>366.0</ele><time>2026-04-12T08:35:27Z</time></trkpt><trkpt lat="45.660655865550765" lon="10.070506563329111"><ele>366.0</ele><time>2026-04-12T08:35:28Z</time></trkpt><trkpt lat="45.66057891221814" lon="10.070446963613907"><ele>366.0</ele><time>2026-04-12T08:35:29Z</time></trkpt><trkpt lat="45.66052040145656" lon="10.070327084217952"><ele>366.0</ele><time>2026-04-12T08:35:30Z</time></trkpt><trkpt lat="45.66050174047058" lon="10.070178706923762"><ele>366.0</ele><time>2026-04-12T08:35:31Z</time></trkpt><trkpt lat="45.66046230169339" lon="10.070058448524385"><ele>366.0</ele><time>2026-04-12T08:35:32Z</time></trkpt><trkpt lat="45.66037648533925" lon="10.069970802176936"><ele>368.0</ele><time>2026-04-12T08:35:33Z</time></trkpt><trkpt lat="45.66026735259349" lon="10.069892417456431"><ele>370.0</ele><time>2026-04-12T08:35:34Z</time></trkpt><trkpt lat="45.66013100027344" lon="10.069797026006235"><ele>372.0</ele><time>2026-04-12T08:35:35Z</time></trkpt><trkpt lat="45.659974282018325" lon="10.069677231247645"><ele>372.0</ele><time>2026-04-12T08:35:36Z</time></trkpt><trkpt lat="45.65983197115614" lon="10.069565719567311"><ele>372.0</ele><time>2026-04-12T08:35:37Z</time></trkpt><trkpt lat="45.65967626625319" lon="10.069446090911885"><ele>372.0</ele><time>2026-04-12T08:35:38Z</time></trkpt><trkpt lat="45.65954765901792" lon="10.069346178185144"><ele>372.6</ele><time>2026-04-12T08:35:39Z</time></trkpt><trkpt lat="45.65944097240193" lon="10.069252577191277"><ele>373.20000000000005</ele><time>2026-04-12T08:35:40Z</time></trkpt><trkpt lat="45.659366135683314" lon="10.069146780049191"><ele>373.8</ele><time>2026-04-12T08:35:41Z</time></trkpt><trkpt lat="45.65933379483082" lon="10.06903133700759"><ele>374.4</ele><time>2026-04-12T08:35:42Z</time></trkpt><trkpt lat="45.65932647570503" lon="10.068895690574333"><ele>375.0</ele><time>2026-04-12T08:35:43Z</time></trkpt><trkpt lat="45.6593250732763" lon="10.068786560534177"><ele>375.0</ele><time>2026-04-12T08:35:44Z</time></trkpt><trkpt lat="45.659318416993194" lon="10.068675425703255"><ele>375.0</ele><time>2026-04-12T08:35:45Z</time></trkpt><trkpt lat="45.65928061677223" lon="10.068602963196813"><ele>375.0</ele><time>2026-04-12T08:35:46Z</time></trkpt><trkpt lat="45.659209270510516" lon="10.068560836436644"><ele>375.0</ele><time>2026-04-12T08:35:47Z</time></trkpt><trkpt lat="45.65914158122071" lon="10.068578637864183"><ele>375.0</ele><time>2026-04-12T08:35:48Z</time></trkpt><trkpt lat="45.659078068814885" lon="10.068644063051181"><ele>375.0</ele><time>2026-04-12T08:35:49Z</time></trkpt><trkpt lat="45.65904834352565" lon="10.06873323751821"><ele>375.0</ele><time>2026-04-12T08:35:50Z</time></trkpt><trkpt lat="45.65905713545007" lon="10.068841457550297"><ele>375.0</ele><time>2026-04-12T08:35:51Z</time></trkpt><trkpt lat="45.6590845760727" lon="10.068972713079713"><ele>375.0</ele><time>2026-04-12T08:35:52Z</time></trkpt><trkpt lat="45.659146214606956" lon="10.069093481720499"><ele>375.0</ele><time>2026-04-12T08:35:53Z</time></trkpt><trkpt lat="45.65921513678308" lon="10.069216629047324"><ele>375.0</ele><time>2026-04-12T08:35:54Z</time></trkpt><trkpt lat="45.65929400093045" lon="10.069355565011335"><ele>375.0</ele><time>2026-04-12T08:35:55Z</time></trkpt><trkpt lat="45.65937704318878" lon="10.069499434984701"><ele>374.25</ele><time>2026-04-12T08:35:56Z</time></trkpt><trkpt lat="45.65947304747401" lon="10.069626244540006"><ele>373.5</ele><time>2026-04-12T08:35:57Z</time></trkpt><trkpt lat="45.65953346877486" lon="10.069797040671805"><ele>372.75</ele><time>2026-04-12T08:35:58Z</time></trkpt><trkpt lat="45.659590762283884" lon="10.06996797033566"><ele>372.0</ele><time>2026-04-12T08:35:59Z</time></trkpt><trkpt lat="45.659653386673284" lon="10.070141407747029"><ele>374.75</ele><time>2026-04-12T08:36:00Z</time></trkpt><trkpt lat="45.65971575872097" lon="10.070309530474972"><ele>377.5</ele><time>2026-04-12T08:36:01Z</time></trkpt><trkpt lat="45.65976407565623" lon="10.070487637827808"><ele>380.25</ele><time>2026-04-12T08:36:02Z</time></trkpt><trkpt lat="45.65978501924502" lon="10.070671833559718"><ele>383.0</ele><time>2026-04-12T08:36:03Z</time></trkpt><trkpt lat="45.65981031387294" lon="10.07085273117787"><ele>386.5</ele><time>2026-04-12T08:36:04Z</time></trkpt><trkpt lat="45.65986456898587" lon="10.071025862072654"><ele>390.0</ele><time>2026-04-12T08:36:05Z</time></trkpt><trkpt lat="45.65993474758334" lon="10.07119059346395"><ele>393.5</ele><time>2026-04-12T08:36:06Z</time></trkpt><trkpt lat="45.659987050843604" lon="10.071373539881003"><ele>397.0</ele><time>2026-04-12T08:36:07Z</time></trkpt><trkpt lat="45.6600533933663" lon="10.071538025257892"><ele>398.5</ele><time>2026-04-12T08:36:08Z</time></trkpt><trkpt lat="45.660131267799315" lon="10.071693180281484"><ele>400.0</ele><time>2026-04-12T08:36:09Z</time></trkpt><trkpt lat="45.66024050439531" lon="10.071826490511139"><ele>401.5</ele><time>2026-04-12T08:36:10Z</time></trkpt><trkpt lat="45.660364789904946" lon="10.07192747976285"><ele>403.0</ele><time>2026-04-12T08:36:11Z</time></trkpt><trkpt lat="45.660487274259395" lon="10.072054286180698"><ele>403.0</ele><time>2026-04-12T08:36:12Z</time></trkpt><trkpt lat="45.66062835465871" lon="10.072156510922627"><ele>403.0</ele><time>2026-04-12T08:36:13Z</time></trkpt><trkpt lat="45.66077821602199" lon="10.072220404311217"><ele>403.0</ele><time>2026-04-12T08:36:14Z</time></trkpt><trkpt lat="45.66092606293693" lon="10.072259686787866"><ele>403.0</ele><time>2026-04-12T08:36:15Z</time></trkpt><trkpt lat="45.66106395902529" lon="10.07230149009087"><ele>403.0</ele><time>2026-04-12T08:36:16Z</time></trkpt><trkpt lat="45.66118760589081" lon="10.072357110253256"><ele>403.0</ele><time>2026-04-12T08:36:17Z</time></trkpt><trkpt lat="45.661298877540354" lon="10.072443777958522"><ele>403.0</ele><time>2026-04-12T08:36:18Z</time></trkpt><trkpt lat="45.661417817356856" lon="10.072548002630095"><ele>406.25</ele><time>2026-04-12T08:36:19Z</time></trkpt><trkpt lat="45.66153841472028" lon="10.072669011876503"><ele>409.5</ele><time>2026-04-12T08:36:20Z</time></trkpt><trkpt lat="45.66163399193944" lon="10.072767768301382"><ele>412.75</ele><time>2026-04-12T08:36:21Z</time></trkpt><trkpt lat="45.66171746380153" lon="10.072870104239469"><ele>416.0</ele><time>2026-04-12T08:36:22Z</time></trkpt><trkpt lat="45.661780974118614" lon="10.07301193562802"><ele>416.0</ele><time>2026-04-12T08:36:23Z</time></trkpt><trkpt lat="45.66182390495538" lon="10.073173466001244"><ele>416.0</ele><time>2026-04-12T08:36:24Z</time></trkpt><trkpt lat="45.66187543201948" lon="10.073302605353685"><ele>416.0</ele><time>2026-04-12T08:36:25Z</time></trkpt><trkpt lat="45.661927831207635" lon="10.0734036709598"><ele>416.0</ele><time>2026-04-12T08:36:26Z</time></trkpt><trkpt lat="45.66196878751281" lon="10.073497053331346"><ele>416.0</ele><time>2026-04-12T08:36:27Z</time></trkpt><trkpt lat="45.661984502047574" lon="10.073665392906138"><ele>419.3333333333333</ele><time>2026-04-12T08:36:29Z</time></trkpt><trkpt lat="45.66188756262424" lon="10.073785257688135"><ele>422.66666666666663</ele><time>2026-04-12T08:36:31Z</time></trkpt><trkpt lat="45.661811966750925" lon="10.073780384101369"><ele>426.0</ele><time>2026-04-12T08:36:32Z</time></trkpt><trkpt lat="45.66175232246845" lon="10.073722768789674"><ele>429.33333333333337</ele><time>2026-04-12T08:36:33Z</time></trkpt><trkpt lat="45.661736640912295" lon="10.073611165379736"><ele>432.6666666666667</ele><time>2026-04-12T08:36:34Z</time></trkpt><trkpt lat="45.66172315386828" lon="10.073487208606679"><ele>436.0</ele><time>2026-04-12T08:36:35Z</time></trkpt><trkpt lat="45.66172350697481" lon="10.073352075799564"><ele>432.6666666666667</ele><time>2026-04-12T08:36:36Z</time></trkpt><trkpt lat="45.66170841033305" lon="10.073219673555851"><ele>429.33333333333337</ele><time>2026-04-12T08:36:37Z</time></trkpt><trkpt lat="45.661677342308764" lon="10.073113448749206"><ele>426.0</ele><time>2026-04-12T08:36:38Z</time></trkpt><trkpt lat="45.66161924262231" lon="10.073037442440585"><ele>422.66666666666663</ele><time>2026-04-12T08:36:39Z</time></trkpt><trkpt lat="45.661545019501716" lon="10.072975427431865"><ele>419.3333333333333</ele><time>2026-04-12T08:36:40Z</time></trkpt><trkpt lat="45.661452449106704" lon="10.072908929081114"><ele>416.0</ele><time>2026-04-12T08:36:41Z</time></trkpt><trkpt lat="45.661341214646136" lon="10.072848134587439"><ele>416.0</ele><time>2026-04-12T08:36:42Z</time></trkpt><trkpt lat="45.6612197018357" lon="10.072817876785116"><ele>416.0</ele><time>2026-04-12T08:36:43Z</time></trkpt><trkpt lat="45.66108448862066" lon="10.072804311616038"><ele>416.0</ele><time>2026-04-12T08:36:44Z</time></trkpt><trkpt lat="45.66093855527671" lon="10.072765994197232"><ele>416.0</ele><time>2026-04-12T08:36:45Z</time></trkpt><trkpt lat="45.66080394423994" lon="10.07273700111563"><ele>418.5</ele><time>2026-04-12T08:36:46Z</time></trkpt><trkpt lat="45.66068815961777" lon="10.072751549546918"><ele>421.0</ele><time>2026-04-12T08:36:47Z</time></trkpt><trkpt lat="45.66058360711408" lon="10.072821557842417"><ele>423.5</ele><time>2026-04-12T08:36:48Z</time></trkpt><trkpt lat="45.66048487047037" lon="10.072916551813714"><ele>426.0</ele><time>2026-04-12T08:36:49Z</time></trkpt><trkpt lat="45.660380816939586" lon="10.073022791907665"><ele>427.0</ele><time>2026-04-12T08:36:50Z</time></trkpt><trkpt lat="45.660270886755335" lon="10.073116790442388"><ele>428.0</ele><time>2026-04-12T08:36:51Z</time></trkpt><trkpt lat="45.6601571969791" lon="10.073206093991146"><ele>429.0</ele><time>2026-04-12T08:36:52Z</time></trkpt><trkpt lat="45.660045601362455" lon="10.073241980286484"><ele>430.0</ele><time>2026-04-12T08:36:53Z</time></trkpt><trkpt lat="45.65993398039833" lon="10.073221832028711"><ele>430.0</ele><time>2026-04-12T08:36:54Z</time></trkpt><trkpt lat="45.65981709785535" lon="10.073163993728098"><ele>430.0</ele><time>2026-04-12T08:36:55Z</time></trkpt><trkpt lat="45.659693884813564" lon="10.073090812152865"><ele>430.0</ele><time>2026-04-12T08:36:56Z</time></trkpt><trkpt lat="45.65956405926368" lon="10.073013021698017"><ele>430.0</ele><time>2026-04-12T08:36:57Z</time></trkpt><trkpt lat="45.65942415746847" lon="10.072952364164593"><ele>434.5</ele><time>2026-04-12T08:36:58Z</time></trkpt><trkpt lat="45.659279799751765" lon="10.07290521336208"><ele>439.0</ele><time>2026-04-12T08:36:59Z</time></trkpt><trkpt lat="45.6591393772347" lon="10.072849854408899"><ele>443.5</ele><time>2026-04-12T08:37:00Z</time></trkpt><trkpt lat="45.65901298310501" lon="10.072764198212337"><ele>448.0</ele><time>2026-04-12T08:37:01Z</time></trkpt><trkpt lat="45.65888754006583" lon="10.072701437378088"><ele>448.0</ele><time>2026-04-12T08:37:02Z</time></trkpt><trkpt lat="45.658764517200154" lon="10.07265882733574"><ele>448.0</ele><time>2026-04-12T08:37:03Z</time></trkpt><trkpt lat="45.65866404736517" lon="10.072561450017869"><ele>448.0</ele><time>2026-04-12T08:37:04Z</time></trkpt><trkpt lat="45.6585682947159" lon="10.0724379983144"><ele>448.0</ele><time>2026-04-12T08:37:05Z</time></trkpt><trkpt lat="45.65843994278989" lon="10.07238790285119"><ele>447.75</ele><time>2026-04-12T08:37:06Z</time></trkpt><trkpt lat="45.65833454173105" lon="10.072263846033556"><ele>447.5</ele><time>2026-04-12T08:37:07Z</time></trkpt><trkpt lat="45.6582407886486" lon="10.072144872687455"><ele>447.25</ele><time>2026-04-12T08:37:08Z</time></trkpt><trkpt lat="45.658141690432615" lon="10.072061828891089"><ele>447.0</ele><time>2026-04-12T08:37:09Z</time></trkpt><trkpt lat="45.65802636039271" lon="10.072008368581892"><ele>447.0</ele><time>2026-04-12T08:37:10Z</time></trkpt><trkpt lat="45.65791156390106" lon="10.071955425518983"><ele>447.0</ele><time>2026-04-12T08:37:11Z</time></trkpt><trkpt lat="45.657777804679775" lon="10.071929763428638"><ele>447.0</ele><time>2026-04-12T08:37:12Z</time></trkpt><trkpt lat="45.65764408554517" lon="10.071866014729883"><ele>447.0</ele><time>2026-04-12T08:37:13Z</time></trkpt><trkpt lat="45.657505868486346" lon="10.071845205351067"><ele>451.5</ele><time>2026-04-12T08:37:14Z</time></trkpt><trkpt lat="45.65735945888135" lon="10.071833637157164"><ele>456.0</ele><time>2026-04-12T08:37:15Z</time></trkpt><trkpt lat="45.657226987340366" lon="10.071787192172168"><ele>460.5</ele><time>2026-04-12T08:37:16Z</time></trkpt><trkpt lat="45.657083490768265" lon="10.071754116648592"><ele>465.0</ele><time>2026-04-12T08:37:17Z</time></trkpt><trkpt lat="45.656948385416264" lon="10.071707783369211"><ele>467.75</ele><time>2026-04-12T08:37:18Z</time></trkpt><trkpt lat="45.65682106141427" lon="10.071659541439953"><ele>470.5</ele><time>2026-04-12T08:37:19Z</time></trkpt><trkpt lat="45.65669847979691" lon="10.071595294175964"><ele>473.25</ele><time>2026-04-12T08:37:20Z</time></trkpt><trkpt lat="45.656591282901175" lon="10.071522743633109"><ele>476.0</ele><time>2026-04-12T08:37:21Z</time></trkpt><trkpt lat="45.65648514029216" lon="10.071446183057658"><ele>472.20000000000005</ele><time>2026-04-12T08:37:22Z</time></trkpt><trkpt lat="45.656369906479206" lon="10.071396444227894"><ele>468.40000000000003</ele><time>2026-04-12T08:37:23Z</time></trkpt><trkpt lat="45.65625774073175" lon="10.071357823501636"><ele>464.6</ele><time>2026-04-12T08:37:24Z</time></trkpt><trkpt lat="45.65615792048972" lon="10.071309087595631"><ele>460.8</ele><time>2026-04-12T08:37:25Z</time></trkpt><trkpt lat="45.65607470168281" lon="10.071242309307289"><ele>457.0</ele><time>2026-04-12T08:37:26Z</time></trkpt><trkpt lat="45.65600874996107" lon="10.07117104539423"><ele>457.0</ele><time>2026-04-12T08:37:27Z</time></trkpt><trkpt lat="45.65594722771524" lon="10.071104592154947"><ele>457.00000000000006</ele><time>2026-04-12T08:37:28Z</time></trkpt><trkpt lat="45.6558858886779" lon="10.071060782157303"><ele>457.00000000000006</ele><time>2026-04-12T08:37:29Z</time></trkpt><trkpt lat="45.65578705178804" lon="10.071037346128076"><ele>457.0</ele><time>2026-04-12T08:37:31Z</time></trkpt><trkpt lat="45.65570487554669" lon="10.071072940198956"><ele>457.0</ele><time>2026-04-12T08:37:34Z</time></trkpt><trkpt lat="45.655720973210755" lon="10.071301745578484"><ele>457.0</ele><time>2026-04-12T08:59:28Z</time></trkpt><trkpt lat="45.655732774300226" lon="10.071421891015966"><ele>457.00000000000006</ele><time>2026-04-12T08:59:29Z</time></trkpt><trkpt lat="45.655733603236854" lon="10.071560702760342"><ele>457.00000000000006</ele><time>2026-04-12T08:59:30Z</time></trkpt><trkpt lat="45.655701573124084" lon="10.071705994542741"><ele>457.0</ele><time>2026-04-12T08:59:31Z</time></trkpt><trkpt lat="45.655614259319876" lon="10.071837767622757"><ele>457.0</ele><time>2026-04-12T08:59:32Z</time></trkpt><trkpt lat="45.65558145690555" lon="10.072001204718694"><ele>457.40000000000003</ele><time>2026-04-12T08:59:33Z</time></trkpt><trkpt lat="45.65554424235324" lon="10.072144799631989"><ele>457.80000000000007</ele><time>2026-04-12T08:59:34Z</time></trkpt><trkpt lat="45.65548801726179" lon="10.072259511501201"><ele>458.2</ele><time>2026-04-12T08:59:35Z</time></trkpt><trkpt lat="45.655423674129025" lon="10.07235107151929"><ele>458.6</ele><time>2026-04-12T08:59:36Z</time></trkpt><trkpt lat="45.65531472979627" lon="10.072373355319334"><ele>459.0</ele><time>2026-04-12T08:59:37Z</time></trkpt><trkpt lat="45.65520715871813" lon="10.07232548871383"><ele>459.0</ele><time>2026-04-12T08:59:38Z</time></trkpt><trkpt lat="45.65507139328219" lon="10.072327114469894"><ele>459.0</ele><time>2026-04-12T08:59:39Z</time></trkpt><trkpt lat="45.6549339417126" lon="10.072314207185492"><ele>459.0</ele><time>2026-04-12T08:59:40Z</time></trkpt><trkpt lat="45.65480402645087" lon="10.07231665350664"><ele>459.0</ele><time>2026-04-12T08:59:41Z</time></trkpt><trkpt lat="45.65467873321966" lon="10.072313608174824"><ele>459.0</ele><time>2026-04-12T08:59:42Z</time></trkpt><trkpt lat="45.654573425787305" lon="10.072322519448456"><ele>459.0</ele><time>2026-04-12T08:59:43Z</time></trkpt><trkpt lat="45.65447416846552" lon="10.072332528641178"><ele>459.0</ele><time>2026-04-12T08:59:44Z</time></trkpt><trkpt lat="45.65439188756482" lon="10.072353078909307"><ele>459.0</ele><time>2026-04-12T08:59:45Z</time></trkpt><trkpt lat="45.65427814714798" lon="10.07246450645305"><ele>459.0</ele><time>2026-04-12T08:59:47Z</time></trkpt><trkpt lat="45.65425556011718" lon="10.072584469366541"><ele>461.79999999999995</ele><time>2026-04-12T08:59:48Z</time></trkpt><trkpt lat="45.65429087531877" lon="10.072732882883107"><ele>464.59999999999997</ele><time>2026-04-12T08:59:49Z</time></trkpt><trkpt lat="45.65436432691972" lon="10.072830373630214"><ele>467.4</ele><time>2026-04-12T08:59:50Z</time></trkpt><trkpt lat="45.65444199782336" lon="10.072937821153868"><ele>470.2</ele><time>2026-04-12T08:59:51Z</time></trkpt><trkpt lat="45.654523368238436" lon="10.07307092487104"><ele>473.0</ele><time>2026-04-12T08:59:52Z</time></trkpt><trkpt lat="45.654620944891" lon="10.073184451060987"><ele>475.5</ele><time>2026-04-12T08:59:53Z</time></trkpt><trkpt lat="45.6547490089993" lon="10.073261758574533"><ele>478.0</ele><time>2026-04-12T08:59:54Z</time></trkpt><trkpt lat="45.65488067730949" lon="10.073353490651051"><ele>480.5</ele><time>2026-04-12T08:59:55Z</time></trkpt><trkpt lat="45.65502631869648" lon="10.073438355514217"><ele>483.0</ele><time>2026-04-12T08:59:56Z</time></trkpt><trkpt lat="45.65517741997455" lon="10.073557252048545"><ele>489.33333333333337</ele><time>2026-04-12T08:59:57Z</time></trkpt><trkpt lat="45.65532599165636" lon="10.073669307062396"><ele>495.6666666666667</ele><time>2026-04-12T08:59:58Z</time></trkpt><trkpt lat="45.65544828958577" lon="10.073799324778442"><ele>502.0</ele><time>2026-04-12T08:59:59Z</time></trkpt><trkpt lat="45.655579547355195" lon="10.07389568683721"><ele>502.0</ele><time>2026-04-12T09:00:00Z</time></trkpt><trkpt lat="45.655680840593554" lon="10.074032289136719"><ele>502.0</ele><time>2026-04-12T09:00:01Z</time></trkpt><trkpt lat="45.655768500838526" lon="10.07416466862814"><ele>502.0</ele><time>2026-04-12T09:00:02Z</time></trkpt><trkpt lat="45.65586045856743" lon="10.074299774057707"><ele>502.0</ele><time>2026-04-12T09:00:03Z</time></trkpt><trkpt lat="45.655957648309155" lon="10.074438541093851"><ele>501.75</ele><time>2026-04-12T09:00:04Z</time></trkpt><trkpt lat="45.65605296657381" lon="10.074575427733388"><ele>501.5</ele><time>2026-04-12T09:00:05Z</time></trkpt><trkpt lat="45.65615858085692" lon="10.074694038346696"><ele>501.25</ele><time>2026-04-12T09:00:06Z</time></trkpt><trkpt lat="45.65624208190254" lon="10.074851178452123"><ele>501.0</ele><time>2026-04-12T09:00:07Z</time></trkpt><trkpt lat="45.656310311908264" lon="10.075027907890627"><ele>498.33333333333337</ele><time>2026-04-12T09:00:08Z</time></trkpt><trkpt lat="45.65637880388074" lon="10.075221001411013"><ele>495.6666666666667</ele><time>2026-04-12T09:00:09Z</time></trkpt><trkpt lat="45.65645231742767" lon="10.075427882014708"><ele>493.0</ele><time>2026-04-12T09:00:10Z</time></trkpt><trkpt lat="45.656535835062776" lon="10.075636402658038"><ele>494.0</ele><time>2026-04-12T09:00:11Z</time></trkpt><trkpt lat="45.65662477814664" lon="10.075851568858281"><ele>495.0</ele><time>2026-04-12T09:00:12Z</time></trkpt><trkpt lat="45.65671569374769" lon="10.076068520518508"><ele>496.0</ele><time>2026-04-12T09:00:13Z</time></trkpt><trkpt lat="45.656800584670414" lon="10.076277889553948"><ele>496.0</ele><time>2026-04-12T09:00:14Z</time></trkpt><trkpt lat="45.65687785030707" lon="10.076469906887677"><ele>496.0</ele><time>2026-04-12T09:00:15Z</time></trkpt><trkpt lat="45.65695942047324" lon="10.076654147138257"><ele>496.0</ele><time>2026-04-12T09:00:16Z</time></trkpt><trkpt lat="45.65704540225729" lon="10.076823751970556"><ele>497.5</ele><time>2026-04-12T09:00:17Z</time></trkpt><trkpt lat="45.65714371109383" lon="10.076966633244165"><ele>499.0</ele><time>2026-04-12T09:00:18Z</time></trkpt><trkpt lat="45.657254002850664" lon="10.077085066936661"><ele>500.5</ele><time>2026-04-12T09:00:19Z</time></trkpt><trkpt lat="45.657369694442615" lon="10.077188413267804"><ele>502.0</ele><time>2026-04-12T09:00:20Z</time></trkpt><trkpt lat="45.65746853360404" lon="10.077307074393309"><ele>503.75</ele><time>2026-04-12T09:00:21Z</time></trkpt><trkpt lat="45.6575540281605" lon="10.077461152486425"><ele>505.5</ele><time>2026-04-12T09:00:22Z</time></trkpt><trkpt lat="45.65760674817936" lon="10.077633378189994"><ele>507.25</ele><time>2026-04-12T09:00:23Z</time></trkpt><trkpt lat="45.65770848516623" lon="10.07777599994127"><ele>509.0</ele><time>2026-04-12T09:00:24Z</time></trkpt><trkpt lat="45.657841984459424" lon="10.077886219083648"><ele>511.0</ele><time>2026-04-12T09:00:25Z</time></trkpt><trkpt lat="45.65795772933214" lon="10.078000213596894"><ele>513.0</ele><time>2026-04-12T09:00:26Z</time></trkpt><trkpt lat="45.658081824604565" lon="10.078130562757687"><ele>515.0</ele><time>2026-04-12T09:00:27Z</time></trkpt><trkpt lat="45.65821535580482" lon="10.078270823786617"><ele>515.3333333333333</ele><time>2026-04-12T09:00:28Z</time></trkpt><trkpt lat="45.658350456972606" lon="10.078412733862633"><ele>515.6666666666666</ele><time>2026-04-12T09:00:29Z</time></trkpt><trkpt lat="45.658486576301904" lon="10.078555713523125"><ele>516.0</ele><time>2026-04-12T09:00:30Z</time></trkpt><trkpt lat="45.6586169535832" lon="10.078692661499804"><ele>518.5</ele><time>2026-04-12T09:00:31Z</time></trkpt><trkpt lat="45.658747059404206" lon="10.07880501601986"><ele>521.0</ele><time>2026-04-12T09:00:32Z</time></trkpt><trkpt lat="45.658855009885805" lon="10.078918551101921"><ele>523.5</ele><time>2026-04-12T09:00:33Z</time></trkpt><trkpt lat="45.6589598048965" lon="10.078994971603603"><ele>526.0</ele><time>2026-04-12T09:00:34Z</time></trkpt><trkpt lat="45.65907800587892" lon="10.079024444449484"><ele>526.0</ele><time>2026-04-12T09:00:35Z</time></trkpt><trkpt lat="45.65920590548085" lon="10.079009776249208"><ele>526.0</ele><time>2026-04-12T09:00:36Z</time></trkpt><trkpt lat="45.659340615183986" lon="10.078962577459839"><ele>526.0</ele><time>2026-04-12T09:00:37Z</time></trkpt><trkpt lat="45.65947972223005" lon="10.078908935126275"><ele>526.0</ele><time>2026-04-12T09:00:38Z</time></trkpt><trkpt lat="45.65962537990778" lon="10.078842685704675"><ele>528.6666666666667</ele><time>2026-04-12T09:00:39Z</time></trkpt><trkpt lat="45.659773127901126" lon="10.078787357254557"><ele>531.3333333333334</ele><time>2026-04-12T09:00:40Z</time></trkpt><trkpt lat="45.65992907772784" lon="10.078719858753747"><ele>534.0</ele><time>2026-04-12T09:00:41Z</time></trkpt><trkpt lat="45.660091213267044" lon="10.078673614458042"><ele>534.0</ele><time>2026-04-12T09:00:42Z</time></trkpt><trkpt lat="45.66026281056105" lon="10.078666830136793"><ele>534.0</ele><time>2026-04-12T09:00:43Z</time></trkpt><trkpt lat="45.660428820488505" lon="10.078690235438522"><ele>534.0</ele><time>2026-04-12T09:00:44Z</time></trkpt><trkpt lat="45.66059412563809" lon="10.078652451270525"><ele>534.5</ele><time>2026-04-12T09:00:45Z</time></trkpt><trkpt lat="45.66073951931599" lon="10.07856554878125"><ele>535.0</ele><time>2026-04-12T09:00:46Z</time></trkpt><trkpt lat="45.66088206274549" lon="10.078501127474716"><ele>535.5</ele><time>2026-04-12T09:00:47Z</time></trkpt><trkpt lat="45.66102287941648" lon="10.078485793812549"><ele>536.0</ele><time>2026-04-12T09:00:48Z</time></trkpt><trkpt lat="45.661172644311776" lon="10.078466911875534"><ele>536.3333333333333</ele><time>2026-04-12T09:00:49Z</time></trkpt><trkpt lat="45.66132113210557" lon="10.078452964160151"><ele>536.6666666666666</ele><time>2026-04-12T09:00:50Z</time></trkpt><trkpt lat="45.661471490252744" lon="10.07846077455672"><ele>537.0</ele><time>2026-04-12T09:00:51Z</time></trkpt><trkpt lat="45.66162903694835" lon="10.078491576943128"><ele>537.0</ele><time>2026-04-12T09:00:52Z</time></trkpt><trkpt lat="45.6618040609687" lon="10.078509391543731"><ele>537.0</ele><time>2026-04-12T09:00:53Z</time></trkpt><trkpt lat="45.661966047232816" lon="10.078575472361932"><ele>537.0</ele><time>2026-04-12T09:00:54Z</time></trkpt><trkpt lat="45.66212856208819" lon="10.078663343301551"><ele>538.3333333333334</ele><time>2026-04-12T09:00:55Z</time></trkpt><trkpt lat="45.66229315466313" lon="10.07873152111959"><ele>539.6666666666667</ele><time>2026-04-12T09:00:56Z</time></trkpt><trkpt lat="45.66244704805678" lon="10.078826335575036"><ele>541.0</ele><time>2026-04-12T09:00:57Z</time></trkpt><trkpt lat="45.6625968931692" lon="10.078882424824865"><ele>541.0</ele><time>2026-04-12T09:00:58Z</time></trkpt><trkpt lat="45.66273269957691" lon="10.078939885181379"><ele>541.0</ele><time>2026-04-12T09:00:59Z</time></trkpt><trkpt lat="45.66284320483499" lon="10.078991322735229"><ele>541.0</ele><time>2026-04-12T09:01:00Z</time></trkpt><trkpt lat="45.662935936777224" lon="10.079027090118606"><ele>541.0</ele><time>2026-04-12T09:01:01Z</time></trkpt><trkpt lat="45.66300579262773" lon="10.079123213914642"><ele>543.25</ele><time>2026-04-12T09:01:02Z</time></trkpt><trkpt lat="45.66305912011304" lon="10.079260361633088"><ele>545.5</ele><time>2026-04-12T09:01:03Z</time></trkpt><trkpt lat="45.663089070298504" lon="10.079424303834962"><ele>547.75</ele><time>2026-04-12T09:01:04Z</time></trkpt><trkpt lat="45.66312487712543" lon="10.079618057484984"><ele>550.0</ele><time>2026-04-12T09:01:05Z</time></trkpt><trkpt lat="45.663171768592775" lon="10.079822793501524"><ele>552.6666666666667</ele><time>2026-04-12T09:01:06Z</time></trkpt><trkpt lat="45.663209981163625" lon="10.080045844636965"><ele>555.3333333333334</ele><time>2026-04-12T09:01:07Z</time></trkpt><trkpt lat="45.663269936564554" lon="10.080251950376985"><ele>558.0</ele><time>2026-04-12T09:01:08Z</time></trkpt><trkpt lat="45.66333429347679" lon="10.080462399049614"><ele>558.0</ele><time>2026-04-12T09:01:09Z</time></trkpt><trkpt lat="45.663403177270844" lon="10.080684111957584"><ele>558.0</ele><time>2026-04-12T09:01:10Z</time></trkpt><trkpt lat="45.663464478510434" lon="10.080901594875487"><ele>558.0</ele><time>2026-04-12T09:01:11Z</time></trkpt><trkpt lat="45.66353299568776" lon="10.081118546156928"><ele>560.3333333333334</ele><time>2026-04-12T09:01:12Z</time></trkpt><trkpt lat="45.66359495732055" lon="10.081326816958745"><ele>562.6666666666667</ele><time>2026-04-12T09:01:13Z</time></trkpt><trkpt lat="45.66366036517069" lon="10.08152730240346"><ele>565.0</ele><time>2026-04-12T09:01:14Z</time></trkpt><trkpt lat="45.663725003855895" lon="10.081714300126638"><ele>568.5</ele><time>2026-04-12T09:01:15Z</time></trkpt><trkpt lat="45.66378253540898" lon="10.081899526364833"><ele>572.0</ele><time>2026-04-12T09:01:16Z</time></trkpt><trkpt lat="45.66384333275748" lon="10.082097156801238"><ele>575.5</ele><time>2026-04-12T09:01:17Z</time></trkpt><trkpt lat="45.663896519851235" lon="10.082303421956638"><ele>579.0</ele><time>2026-04-12T09:01:18Z</time></trkpt><trkpt lat="45.66393734084454" lon="10.082516625613831"><ele>580.3333333333334</ele><time>2026-04-12T09:01:19Z</time></trkpt><trkpt lat="45.66395716217806" lon="10.082735034266312"><ele>581.6666666666667</ele><time>2026-04-12T09:01:20Z</time></trkpt><trkpt lat="45.66395554141974" lon="10.082954342488794"><ele>583.0</ele><time>2026-04-12T09:01:21Z</time></trkpt><trkpt lat="45.66393668858329" lon="10.083185054439369"><ele>585.0</ele><time>2026-04-12T09:01:22Z</time></trkpt><trkpt lat="45.66389701734967" lon="10.083412106973977"><ele>587.0</ele><time>2026-04-12T09:01:23Z</time></trkpt><trkpt lat="45.66385463161777" lon="10.083655498506747"><ele>589.0</ele><time>2026-04-12T09:01:24Z</time></trkpt><trkpt lat="45.66381110741591" lon="10.08388213197278"><ele>593.0</ele><time>2026-04-12T09:01:25Z</time></trkpt><trkpt lat="45.663769474651815" lon="10.08410500678275"><ele>597.0</ele><time>2026-04-12T09:01:26Z</time></trkpt><trkpt lat="45.66371075800448" lon="10.084331283259203"><ele>601.0</ele><time>2026-04-12T09:01:27Z</time></trkpt><trkpt lat="45.66366653700322" lon="10.084561527110809"><ele>601.0</ele><time>2026-04-12T09:01:28Z</time></trkpt><trkpt lat="45.66362472761943" lon="10.084795145542305"><ele>601.0</ele><time>2026-04-12T09:01:29Z</time></trkpt><trkpt lat="45.66359420355373" lon="10.085045726921194"><ele>601.0</ele><time>2026-04-12T09:01:30Z</time></trkpt><trkpt lat="45.663593932492944" lon="10.085295749847694"><ele>593.6666666666667</ele><time>2026-04-12T09:01:31Z</time></trkpt><trkpt lat="45.66359305657344" lon="10.085547876068153"><ele>586.3333333333334</ele><time>2026-04-12T09:01:32Z</time></trkpt><trkpt lat="45.66358991147934" lon="10.085803962641203"><ele>579.0</ele><time>2026-04-12T09:01:33Z</time></trkpt><trkpt lat="45.66356776814368" lon="10.086048549182406"><ele>579.0</ele><time>2026-04-12T09:01:34Z</time></trkpt><trkpt lat="45.66352460505274" lon="10.086293744904204"><ele>579.0</ele><time>2026-04-12T09:01:35Z</time></trkpt><trkpt lat="45.663465609443655" lon="10.086542872670842"><ele>579.0</ele><time>2026-04-12T09:01:36Z</time></trkpt><trkpt lat="45.66341443607307" lon="10.086795399816562"><ele>581.5</ele><time>2026-04-12T09:01:37Z</time></trkpt><trkpt lat="45.66338116942154" lon="10.08701520485685"><ele>584.0</ele><time>2026-04-12T09:01:38Z</time></trkpt><trkpt lat="45.663340275089766" lon="10.087186856383688"><ele>586.5</ele><time>2026-04-12T09:01:39Z</time></trkpt><trkpt lat="45.66330509919496" lon="10.087352397494078"><ele>589.0</ele><time>2026-04-12T09:01:40Z</time></trkpt><trkpt lat="45.663273011979186" lon="10.087517270864277"><ele>591.75</ele><time>2026-04-12T09:01:41Z</time></trkpt><trkpt lat="45.66325192132288" lon="10.087676367469161"><ele>594.5</ele><time>2026-04-12T09:01:42Z</time></trkpt><trkpt lat="45.663222286229" lon="10.087838429344213"><ele>597.25</ele><time>2026-04-12T09:01:43Z</time></trkpt><trkpt lat="45.66317537549539" lon="10.088013066418265"><ele>600.0</ele><time>2026-04-12T09:01:44Z</time></trkpt><trkpt lat="45.66314078612297" lon="10.088195741915913"><ele>605.6666666666666</ele><time>2026-04-12T09:01:45Z</time></trkpt><trkpt lat="45.66309685428543" lon="10.08840118910909"><ele>611.3333333333333</ele><time>2026-04-12T09:01:45.999Z</time></trkpt><trkpt lat="45.66304725830866" lon="10.088606389137484"><ele>617.0</ele><time>2026-04-12T09:01:46.999Z</time></trkpt><trkpt lat="45.66297811948409" lon="10.088816213995994"><ele>617.0</ele><time>2026-04-12T09:01:47.999Z</time></trkpt><trkpt lat="45.662903099750004" lon="10.089036668228522"><ele>617.0</ele><time>2026-04-12T09:01:48.999Z</time></trkpt><trkpt lat="45.66282055043037" lon="10.089265151749846"><ele>617.0</ele><time>2026-04-12T09:01:49.999Z</time></trkpt><trkpt lat="45.66273932028238" lon="10.089493124076881"><ele>616.0</ele><time>2026-04-12T09:01:50.999Z</time></trkpt><trkpt lat="45.66265923601851" lon="10.089717880879087"><ele>615.0</ele><time>2026-04-12T09:01:51.999Z</time></trkpt><trkpt lat="45.66258066571773" lon="10.08993735627133"><ele>614.0</ele><time>2026-04-12T09:01:52.999Z</time></trkpt><trkpt lat="45.66250271740695" lon="10.090154435560313"><ele>614.0</ele><time>2026-04-12T09:01:53.999Z</time></trkpt><trkpt lat="45.662425758633965" lon="10.090368759060482"><ele>614.0</ele><time>2026-04-12T09:01:54.999Z</time></trkpt><trkpt lat="45.66234806172405" lon="10.090585138327206"><ele>614.0</ele><time>2026-04-12T09:01:55.999Z</time></trkpt><trkpt lat="45.66226747846545" lon="10.09080461110645"><ele>620.0</ele><time>2026-04-12T09:01:56.999Z</time></trkpt><trkpt lat="45.662186759706245" lon="10.091023426544485"><ele>626.0</ele><time>2026-04-12T09:01:57.999Z</time></trkpt><trkpt lat="45.66210136284871" lon="10.091255587928456"><ele>632.0</ele><time>2026-04-12T09:01:58.999Z</time></trkpt><trkpt lat="45.66202245989383" lon="10.091481247029849"><ele>627.3333333333333</ele><time>2026-04-12T09:01:59.999Z</time></trkpt><trkpt lat="45.66190858187239" lon="10.091681769978708"><ele>622.6666666666666</ele><time>2026-04-12T09:02:00.999Z</time></trkpt><trkpt lat="45.66178727366098" lon="10.09186755618312"><ele>618.0</ele><time>2026-04-12T09:02:01.999Z</time></trkpt><trkpt lat="45.66165771937849" lon="10.092033091060852"><ele>618.0</ele><time>2026-04-12T09:02:02.999Z</time></trkpt><trkpt lat="45.66154867186163" lon="10.092198858967029"><ele>618.0</ele><time>2026-04-12T09:02:03.999Z</time></trkpt><trkpt lat="45.661469619994946" lon="10.092372232817299"><ele>618.0</ele><time>2026-04-12T09:02:04.999Z</time></trkpt><trkpt lat="45.661424006425804" lon="10.092569825540073"><ele>618.0</ele><time>2026-04-12T09:02:05.999Z</time></trkpt><trkpt lat="45.66138613934168" lon="10.092764261965169"><ele>619.5</ele><time>2026-04-12T09:02:06.999Z</time></trkpt><trkpt lat="45.66135798655973" lon="10.092958438766694"><ele>621.0</ele><time>2026-04-12T09:02:07.999Z</time></trkpt><trkpt lat="45.6612992577352" lon="10.093143302170546"><ele>622.5</ele><time>2026-04-12T09:02:08.999Z</time></trkpt><trkpt lat="45.66120296258439" lon="10.093296255492165"><ele>624.0</ele><time>2026-04-12T09:02:09.999Z</time></trkpt><trkpt lat="45.66109478092588" lon="10.09344672421319"><ele>624.0</ele><time>2026-04-12T09:02:10.999Z</time></trkpt><trkpt lat="45.66099584406895" lon="10.09361000103542"><ele>624.0</ele><time>2026-04-12T09:02:11.999Z</time></trkpt><trkpt lat="45.660903309219044" lon="10.09381390290757"><ele>624.0</ele><time>2026-04-12T09:02:12.999Z</time></trkpt><trkpt lat="45.66084505140998" lon="10.09404253726053"><ele>629.3333333333334</ele><time>2026-04-12T09:02:13.999Z</time></trkpt><trkpt lat="45.66081370065481" lon="10.094288329994022"><ele>634.6666666666667</ele><time>2026-04-12T09:02:14.999Z</time></trkpt><trkpt lat="45.660801679150524" lon="10.094538594031896"><ele>640.0</ele><time>2026-04-12T09:02:15.999Z</time></trkpt><trkpt lat="45.6607644671142" lon="10.094788355547893"><ele>642.6666666666667</ele><time>2026-04-12T09:02:16.999Z</time></trkpt><trkpt lat="45.66069115550817" lon="10.095018556054452"><ele>645.3333333333334</ele><time>2026-04-12T09:02:17.999Z</time></trkpt><trkpt lat="45.660615763853954" lon="10.095215614675487"><ele>648.0</ele><time>2026-04-12T09:02:18.999Z</time></trkpt><trkpt lat="45.66056131501593" lon="10.09541098481197"><ele>648.0</ele><time>2026-04-12T09:02:19.999Z</time></trkpt><trkpt lat="45.66052852064489" lon="10.095620670648627"><ele>648.0</ele><time>2026-04-12T09:02:20.999Z</time></trkpt><trkpt lat="45.66052622702895" lon="10.095843313847386"><ele>648.0</ele><time>2026-04-12T09:02:21.999Z</time></trkpt><trkpt lat="45.66053760309193" lon="10.09607075753697"><ele>650.3333333333334</ele><time>2026-04-12T09:02:22.999Z</time></trkpt><trkpt lat="45.66055211457177" lon="10.096307607968157"><ele>652.6666666666667</ele><time>2026-04-12T09:02:23.999Z</time></trkpt><trkpt lat="45.66055749441458" lon="10.096545950934795"><ele>655.0</ele><time>2026-04-12T09:02:24.999Z</time></trkpt><trkpt lat="45.6605647780107" lon="10.096795222643344"><ele>656.6666666666667</ele><time>2026-04-12T09:02:25.999Z</time></trkpt><trkpt lat="45.660565642776945" lon="10.097044614133916"><ele>658.3333333333334</ele><time>2026-04-12T09:02:26.999Z</time></trkpt><trkpt lat="45.660575903667365" lon="10.097298491064524"><ele>660.0</ele><time>2026-04-12T09:02:27.999Z</time></trkpt><trkpt lat="45.6605864230528" lon="10.097549437815456"><ele>660.0</ele><time>2026-04-12T09:02:28.999Z</time></trkpt><trkpt lat="45.66060128734376" lon="10.097798685685452"><ele>660.0</ele><time>2026-04-12T09:02:29.999Z</time></trkpt><trkpt lat="45.66061836177893" lon="10.098048617602446"><ele>660.0</ele><time>2026-04-12T09:02:30.999Z</time></trkpt><trkpt lat="45.660612555600245" lon="10.098303045457591"><ele>661.6666666666666</ele><time>2026-04-12T09:02:31.999Z</time></trkpt><trkpt lat="45.66063846787465" lon="10.098555348037085"><ele>663.3333333333333</ele><time>2026-04-12T09:02:32.999Z</time></trkpt><trkpt lat="45.66063218087174" lon="10.098809616948108"><ele>665.0</ele><time>2026-04-12T09:02:33.999Z</time></trkpt><trkpt lat="45.66064209146291" lon="10.099065171333109"><ele>664.3333333333333</ele><time>2026-04-12T09:02:34.999Z</time></trkpt><trkpt lat="45.66065480080052" lon="10.09932129121878"><ele>663.6666666666666</ele><time>2026-04-12T09:02:35.999Z</time></trkpt><trkpt lat="45.660680431871384" lon="10.099576259809767"><ele>663.0</ele><time>2026-04-12T09:02:36.999Z</time></trkpt><trkpt lat="45.66072843847952" lon="10.099823522006902"><ele>662.0</ele><time>2026-04-12T09:02:37.999Z</time></trkpt><trkpt lat="45.66075664767688" lon="10.10007463289184"><ele>661.0</ele><time>2026-04-12T09:02:38.999Z</time></trkpt><trkpt lat="45.6607607593696" lon="10.100326499510262"><ele>660.0</ele><time>2026-04-12T09:02:39.999Z</time></trkpt><trkpt lat="45.66075622911766" lon="10.10058010477706"><ele>663.3333333333334</ele><time>2026-04-12T09:02:40.999Z</time></trkpt><trkpt lat="45.660747348398225" lon="10.100833681346979"><ele>666.6666666666667</ele><time>2026-04-12T09:02:41.999Z</time></trkpt><trkpt lat="45.66073873773534" lon="10.101083911283519"><ele>670.0</ele><time>2026-04-12T09:02:42.999Z</time></trkpt><trkpt lat="45.66074093964872" lon="10.10133484600465"><ele>671.3333333333334</ele><time>2026-04-12T09:02:43.999Z</time></trkpt><trkpt lat="45.66075068880186" lon="10.101588242652914"><ele>672.6666666666666</ele><time>2026-04-12T09:02:44.999Z</time></trkpt><trkpt lat="45.66076406551365" lon="10.101847699356421"><ele>674.0</ele><time>2026-04-12T09:02:45.999Z</time></trkpt><trkpt lat="45.66078000630473" lon="10.102107295600625"><ele>674.0</ele><time>2026-04-12T09:02:46.999Z</time></trkpt><trkpt lat="45.660795017612884" lon="10.102364593153576"><ele>674.0</ele><time>2026-04-12T09:02:47.999Z</time></trkpt><trkpt lat="45.660808149574116" lon="10.10262566334153"><ele>674.0</ele><time>2026-04-12T09:02:48.999Z</time></trkpt><trkpt lat="45.6608242689308" lon="10.102888578265162"><ele>674.0</ele><time>2026-04-12T09:02:49.999Z</time></trkpt><trkpt lat="45.66084130030745" lon="10.103147769513951"><ele>674.0</ele><time>2026-04-12T09:02:50.999Z</time></trkpt><trkpt lat="45.660860666106046" lon="10.103403255194026"><ele>674.0</ele><time>2026-04-12T09:02:51.999Z</time></trkpt><trkpt lat="45.66086879939851" lon="10.103662803635975"><ele>673.0</ele><time>2026-04-12T09:02:52.999Z</time></trkpt><trkpt lat="45.660911197066525" lon="10.103911012899646"><ele>672.0</ele><time>2026-04-12T09:02:53.999Z</time></trkpt><trkpt lat="45.660956020842036" lon="10.104145052264691"><ele>671.0</ele><time>2026-04-12T09:02:54.999Z</time></trkpt><trkpt lat="45.66100267237552" lon="10.104366507052182"><ele>670.3333333333333</ele><time>2026-04-12T09:02:55.999Z</time></trkpt><trkpt lat="45.66099937384132" lon="10.104586126642234"><ele>669.6666666666666</ele><time>2026-04-12T09:02:56.999Z</time></trkpt><trkpt lat="45.66095343568311" lon="10.104800637172996"><ele>669.0</ele><time>2026-04-12T09:02:57.999Z</time></trkpt><trkpt lat="45.660902264847536" lon="10.10499425188571"><ele>670.75</ele><time>2026-04-12T09:02:58.999Z</time></trkpt><trkpt lat="45.660832705407955" lon="10.105180505283272"><ele>672.5</ele><time>2026-04-12T09:02:59.999Z</time></trkpt><trkpt lat="45.660766905465046" lon="10.105349321653867"><ele>674.25</ele><time>2026-04-12T09:03:00.999Z</time></trkpt><trkpt lat="45.66071169011975" lon="10.10550531122215"><ele>676.0</ele><time>2026-04-12T09:03:01.999Z</time></trkpt><trkpt lat="45.66067026095926" lon="10.10563085380677"><ele>676.0</ele><time>2026-04-12T09:03:02.999Z</time></trkpt><trkpt lat="45.66062444493698" lon="10.105732798646944"><ele>676.0</ele><time>2026-04-12T09:03:03.999Z</time></trkpt><trkpt lat="45.660596944789305" lon="10.105831266461177"><ele>676.0</ele><time>2026-04-12T09:03:04.999Z</time></trkpt><trkpt lat="45.66056947700825" lon="10.105918058291063"><ele>676.0</ele><time>2026-04-12T09:03:05.999Z</time></trkpt><trkpt lat="45.66055196576406" lon="10.10600557051061"><ele>676.0</ele><time>2026-04-12T09:03:06.999Z</time></trkpt><trkpt lat="45.6605430004825" lon="10.106183615318091"><ele>676.0</ele><time>2026-04-12T09:03:08.999Z</time></trkpt><trkpt lat="45.660559735193324" lon="10.106288239187093"><ele>678.1999999999999</ele><time>2026-04-12T09:03:09.999Z</time></trkpt><trkpt lat="45.660600260517676" lon="10.10639869718694"><ele>680.4</ele><time>2026-04-12T09:03:10.999Z</time></trkpt><trkpt lat="45.66065565055397" lon="10.106523599693775"><ele>682.6</ele><time>2026-04-12T09:03:11.999Z</time></trkpt><trkpt lat="45.66071930296563" lon="10.10665374443531"><ele>684.8</ele><time>2026-04-12T09:03:12.999Z</time></trkpt><trkpt lat="45.66078449192255" lon="10.106798136221585"><ele>687.0</ele><time>2026-04-12T09:03:13.999Z</time></trkpt><trkpt lat="45.660855358232546" lon="10.106956382634854"><ele>687.0</ele><time>2026-04-12T09:03:14.999Z</time></trkpt><trkpt lat="45.66092744678883" lon="10.107119021201129"><ele>687.0</ele><time>2026-04-12T09:03:15.999Z</time></trkpt><trkpt lat="45.66099834418403" lon="10.107269107416275"><ele>687.0</ele><time>2026-04-12T09:03:16.999Z</time></trkpt><trkpt lat="45.661057773975976" lon="10.10741194333393"><ele>687.0</ele><time>2026-04-12T09:03:17.999Z</time></trkpt><trkpt lat="45.66110360058865" lon="10.107551539033565"><ele>684.0</ele><time>2026-04-12T09:03:18.999Z</time></trkpt><trkpt lat="45.66112823300685" lon="10.107705519060579"><ele>681.0</ele><time>2026-04-12T09:03:19.999Z</time></trkpt><trkpt lat="45.66113101697219" lon="10.107863421785305"><ele>678.0</ele><time>2026-04-12T09:03:20.999Z</time></trkpt><trkpt lat="45.661101972573405" lon="10.108023580740468"><ele>675.0</ele><time>2026-04-12T09:03:21.999Z</time></trkpt><trkpt lat="45.66104275640087" lon="10.1081717927922"><ele>676.75</ele><time>2026-04-12T09:03:22.999Z</time></trkpt><trkpt lat="45.66096621169721" lon="10.108308917734634"><ele>678.5</ele><time>2026-04-12T09:03:23.999Z</time></trkpt><trkpt lat="45.66088502502455" lon="10.108444673403476"><ele>680.25</ele><time>2026-04-12T09:03:24.999Z</time></trkpt><trkpt lat="45.66080639153026" lon="10.108587466289604"><ele>682.0</ele><time>2026-04-12T09:03:25.999Z</time></trkpt><trkpt lat="45.66075217636349" lon="10.108744085675134"><ele>682.0</ele><time>2026-04-12T09:03:26.999Z</time></trkpt><trkpt lat="45.660723043790945" lon="10.108906709889178"><ele>682.0</ele><time>2026-04-12T09:03:27.999Z</time></trkpt><trkpt lat="45.6606976008623" lon="10.1090891421636"><ele>682.0</ele><time>2026-04-12T09:03:28.999Z</time></trkpt><trkpt lat="45.66070926803606" lon="10.109279917369117"><ele>682.0</ele><time>2026-04-12T09:03:29.999Z</time></trkpt><trkpt lat="45.660748437545145" lon="10.109466807469364"><ele>682.25</ele><time>2026-04-12T09:03:30.999Z</time></trkpt><trkpt lat="45.66082245281304" lon="10.10964587646837"><ele>682.5</ele><time>2026-04-12T09:03:31.999Z</time></trkpt><trkpt lat="45.66090764662772" lon="10.109803203640922"><ele>682.75</ele><time>2026-04-12T09:03:32.999Z</time></trkpt><trkpt lat="45.66097291547061" lon="10.10996902415889"><ele>683.0</ele><time>2026-04-12T09:03:33.999Z</time></trkpt><trkpt lat="45.66102631756169" lon="10.110122392682714"><ele>681.2</ele><time>2026-04-12T09:03:34.999Z</time></trkpt><trkpt lat="45.66106181006875" lon="10.110261595178201"><ele>679.4</ele><time>2026-04-12T09:03:35.999Z</time></trkpt><trkpt lat="45.66106650403572" lon="10.110407182369938"><ele>677.6</ele><time>2026-04-12T09:03:36.999Z</time></trkpt><trkpt lat="45.66103836825917" lon="10.110550893618274"><ele>675.8000000000001</ele><time>2026-04-12T09:03:37.999Z</time></trkpt><trkpt lat="45.66094259300805" lon="10.11065970816859"><ele>674.0</ele><time>2026-04-12T09:03:38.999Z</time></trkpt><trkpt lat="45.66087090367693" lon="10.11081998426984"><ele>672.5</ele><time>2026-04-12T09:03:39.999Z</time></trkpt><trkpt lat="45.66076288141389" lon="10.110961729874319"><ele>671.0</ele><time>2026-04-12T09:03:40.999Z</time></trkpt><trkpt lat="45.66067047217607" lon="10.11112134283115"><ele>669.5</ele><time>2026-04-12T09:03:41.999Z</time></trkpt><trkpt lat="45.6605839238309" lon="10.111275275597729"><ele>668.0</ele><time>2026-04-12T09:03:42.999Z</time></trkpt><trkpt lat="45.66050941621478" lon="10.111422672821728"><ele>668.0</ele><time>2026-04-12T09:03:43.999Z</time></trkpt><trkpt lat="45.66044882276161" lon="10.111562841911281"><ele>668.0</ele><time>2026-04-12T09:03:44.999Z</time></trkpt><trkpt lat="45.66040577864802" lon="10.111718113486232"><ele>668.0</ele><time>2026-04-12T09:03:46Z</time></trkpt><trkpt lat="45.660385671175824" lon="10.111876475103925"><ele>668.0</ele><time>2026-04-12T09:03:47Z</time></trkpt><trkpt lat="45.660395472456045" lon="10.11203026540558"><ele>669.0</ele><time>2026-04-12T09:03:48Z</time></trkpt><trkpt lat="45.66043064742844" lon="10.112177049064025"><ele>670.0</ele><time>2026-04-12T09:03:49Z</time></trkpt><trkpt lat="45.66048185841604" lon="10.112311395387096"><ele>671.0</ele><time>2026-04-12T09:03:50Z</time></trkpt><trkpt lat="45.66054176778528" lon="10.112436019548124"><ele>672.0</ele><time>2026-04-12T09:03:51Z</time></trkpt><trkpt lat="45.66061626416325" lon="10.112570817494673"><ele>673.0</ele><time>2026-04-12T09:03:52Z</time></trkpt><trkpt lat="45.66069704498529" lon="10.112722810014603"><ele>670.5</ele><time>2026-04-12T09:03:53Z</time></trkpt><trkpt lat="45.66077539139146" lon="10.112885289255432"><ele>668.0</ele><time>2026-04-12T09:03:54Z</time></trkpt><trkpt lat="45.66085816955077" lon="10.113058998196886"><ele>665.5</ele><time>2026-04-12T09:03:55Z</time></trkpt><trkpt lat="45.66094544341943" lon="10.113237727011532"><ele>663.0</ele><time>2026-04-12T09:03:56Z</time></trkpt><trkpt lat="45.66103362972579" lon="10.113416783991223"><ele>666.6666666666666</ele><time>2026-04-12T09:03:57Z</time></trkpt><trkpt lat="45.66112167233109" lon="10.113598257903947"><ele>670.3333333333333</ele><time>2026-04-12T09:03:58Z</time></trkpt><trkpt lat="45.66121144549211" lon="10.11377536232323"><ele>674.0</ele><time>2026-04-12T09:03:59Z</time></trkpt><trkpt lat="45.661298230265984" lon="10.113945095134117"><ele>669.75</ele><time>2026-04-12T09:04:00Z</time></trkpt><trkpt lat="45.66138061861963" lon="10.11411448917534"><ele>665.5</ele><time>2026-04-12T09:04:01Z</time></trkpt><trkpt lat="45.66145673666412" lon="10.11427627263623"><ele>661.25</ele><time>2026-04-12T09:04:02Z</time></trkpt><trkpt lat="45.66152709487641" lon="10.114414533840941"><ele>657.0</ele><time>2026-04-12T09:04:03Z</time></trkpt><trkpt lat="45.66160744772379" lon="10.114524782727594"><ele>657.0</ele><time>2026-04-12T09:04:04Z</time></trkpt><trkpt lat="45.66170045340773" lon="10.114601834391566"><ele>657.0</ele><time>2026-04-12T09:04:05Z</time></trkpt><trkpt lat="45.66191571377943" lon="10.114614993853909"><ele>657.0</ele><time>2026-04-12T09:04:07Z</time></trkpt><trkpt lat="45.662016966134615" lon="10.114558630197008"><ele>657.0</ele><time>2026-04-12T09:04:08Z</time></trkpt><trkpt lat="45.66210214575424" lon="10.114513195882104"><ele>657.6</ele><time>2026-04-12T09:04:09Z</time></trkpt><trkpt lat="45.66217430697207" lon="10.114495445515345"><ele>658.2</ele><time>2026-04-12T09:04:10Z</time></trkpt><trkpt lat="45.66228804863239" lon="10.11457336995373"><ele>658.8</ele><time>2026-04-12T09:04:11.999Z</time></trkpt><trkpt lat="45.66231434171631" lon="10.11468714578428"><ele>659.4</ele><time>2026-04-12T09:04:12.999Z</time></trkpt><trkpt lat="45.662294686825376" lon="10.114829438763717"><ele>660.0</ele><time>2026-04-12T09:04:13.999Z</time></trkpt><trkpt lat="45.66227756189484" lon="10.114971665086294"><ele>656.8</ele><time>2026-04-12T09:04:14.999Z</time></trkpt><trkpt lat="45.662273182812" lon="10.115115495466876"><ele>653.6</ele><time>2026-04-12T09:04:15.999Z</time></trkpt><trkpt lat="45.662280320751364" lon="10.11526285630701"><ele>650.4000000000001</ele><time>2026-04-12T09:04:16.999Z</time></trkpt><trkpt lat="45.66228665072358" lon="10.115408136530146"><ele>647.2</ele><time>2026-04-12T09:04:17.999Z</time></trkpt><trkpt lat="45.66236432966063" lon="10.115538516728732"><ele>644.0</ele><time>2026-04-12T09:04:18.999Z</time></trkpt><trkpt lat="45.66254244828782" lon="10.115727154383462"><ele>642.0</ele><time>2026-04-12T09:04:20.999Z</time></trkpt><trkpt lat="45.662635112520945" lon="10.115783699923599"><ele>640.0</ele><time>2026-04-12T09:04:21.999Z</time></trkpt><trkpt lat="45.6627206678391" lon="10.11583613541697"><ele>638.0</ele><time>2026-04-12T09:04:22.999Z</time></trkpt><trkpt lat="45.66280433414288" lon="10.115891980166701"><ele>636.0</ele><time>2026-04-12T09:04:23.999Z</time></trkpt><trkpt lat="45.662879089302145" lon="10.115954620445038"><ele>634.0</ele><time>2026-04-12T09:04:24.999Z</time></trkpt><trkpt lat="45.66300081118832" lon="10.116141576571005"><ele>635.2857142857143</ele><time>2026-04-12T09:04:26.999Z</time></trkpt><trkpt lat="45.663046282780755" lon="10.11625197625019"><ele>636.5714285714286</ele><time>2026-04-12T09:04:27.999Z</time></trkpt><trkpt lat="45.663075082695215" lon="10.116361381097272"><ele>637.8571428571429</ele><time>2026-04-12T09:04:28.999Z</time></trkpt><trkpt lat="45.66309300520616" lon="10.116461576559084"><ele>639.1428571428571</ele><time>2026-04-12T09:04:29.999Z</time></trkpt><trkpt lat="45.66312029723998" lon="10.116552393751329"><ele>640.4285714285714</ele><time>2026-04-12T09:04:30.999Z</time></trkpt><trkpt lat="45.663143855176635" lon="10.116645092607023"><ele>641.7142857142857</ele><time>2026-04-12T09:04:31.999Z</time></trkpt><trkpt lat="45.66315515936286" lon="10.116739554769195"><ele>643.0</ele><time>2026-04-12T09:04:32.999Z</time></trkpt><trkpt lat="45.66313861934051" lon="10.116836506055064"><ele>643.0</ele><time>2026-04-12T09:04:33.999Z</time></trkpt><trkpt lat="45.66309203570892" lon="10.116905023000133"><ele>643.0</ele><time>2026-04-12T09:04:34.999Z</time></trkpt><trkpt lat="45.663023150617946" lon="10.116930577853015"><ele>643.0</ele><time>2026-04-12T09:04:35.999Z</time></trkpt><trkpt lat="45.662955214738346" lon="10.116919319172643"><ele>643.0</ele><time>2026-04-12T09:04:36.999Z</time></trkpt><trkpt lat="45.66290268309929" lon="10.116852712989557"><ele>643.0</ele><time>2026-04-12T09:04:37.999Z</time></trkpt><trkpt lat="45.66284966891724" lon="10.116766049565449"><ele>643.0</ele><time>2026-04-12T09:04:40Z</time></trkpt><trkpt lat="45.66281250598318" lon="10.11666872774324"><ele>643.0</ele><time>2026-04-12T09:04:43Z</time></trkpt><trkpt lat="45.66275714056465" lon="10.11674218231598"><ele>643.0</ele><time>2026-04-12T09:04:54Z</time></trkpt><trkpt lat="45.662821270118485" lon="10.116783043263494"><ele>643.0</ele><time>2026-04-12T09:04:56Z</time></trkpt><trkpt lat="45.66292451158407" lon="10.116890254634184"><ele>643.0</ele><time>2026-04-12T09:04:58Z</time></trkpt><trkpt lat="45.66297912167037" lon="10.116938490618903"><ele>643.0</ele><time>2026-04-12T09:04:59Z</time></trkpt><trkpt lat="45.66310461321538" lon="10.11694287745389"><ele>643.0</ele><time>2026-04-12T09:05:01Z</time></trkpt><trkpt lat="45.66319159793332" lon="10.11671716784467"><ele>643.0</ele><time>2026-04-12T09:05:03Z</time></trkpt><trkpt lat="45.66318016256591" lon="10.116605804660802"><ele>643.0</ele><time>2026-04-12T09:05:04Z</time></trkpt><trkpt lat="45.66314243597799" lon="10.116484742745312"><ele>643.0</ele><time>2026-04-12T09:05:05Z</time></trkpt><trkpt lat="45.663099114401135" lon="10.116354120913517"><ele>643.0</ele><time>2026-04-12T09:05:06Z</time></trkpt><trkpt lat="45.66305921683089" lon="10.116212651181264"><ele>643.0</ele><time>2026-04-12T09:05:07Z</time></trkpt><trkpt lat="45.66300256717036" lon="10.116082229576316"><ele>643.25</ele><time>2026-04-12T09:05:08Z</time></trkpt><trkpt lat="45.66292601446706" lon="10.115955877076853"><ele>643.5</ele><time>2026-04-12T09:05:09Z</time></trkpt><trkpt lat="45.66282091212823" lon="10.11586434656032"><ele>643.75</ele><time>2026-04-12T09:05:10Z</time></trkpt><trkpt lat="45.662702704916704" lon="10.11580137987099"><ele>644.0</ele><time>2026-04-12T09:05:11Z</time></trkpt><trkpt lat="45.66259339762814" lon="10.115723949113013"><ele>644.0</ele><time>2026-04-12T09:05:12Z</time></trkpt><trkpt lat="45.6624908057734" lon="10.115637634991366"><ele>644.0</ele><time>2026-04-12T09:05:13Z</time></trkpt><trkpt lat="45.6624131684534" lon="10.115556832917362"><ele>644.0</ele><time>2026-04-12T09:05:14Z</time></trkpt><trkpt lat="45.66235653787621" lon="10.115464399836261"><ele>644.0</ele><time>2026-04-12T09:05:15Z</time></trkpt><trkpt lat="45.662324517439515" lon="10.115361270673919"><ele>644.0</ele><time>2026-04-12T09:05:16Z</time></trkpt><trkpt lat="45.66230802566592" lon="10.11525730502728"><ele>644.0</ele><time>2026-04-12T09:05:17Z</time></trkpt><trkpt lat="45.66230418286729" lon="10.115148704092205"><ele>644.0</ele><time>2026-04-12T09:05:18Z</time></trkpt><trkpt lat="45.66231413901527" lon="10.115040301373178"><ele>644.0</ele><time>2026-04-12T09:05:19Z</time></trkpt><trkpt lat="45.662329192987634" lon="10.114920610966259"><ele>644.0</ele><time>2026-04-12T09:05:20Z</time></trkpt><trkpt lat="45.66233813767752" lon="10.114812706051273"><ele>644.0</ele><time>2026-04-12T09:05:21Z</time></trkpt><trkpt lat="45.66234005625893" lon="10.114705829877272"><ele>644.0</ele><time>2026-04-12T09:05:22Z</time></trkpt><trkpt lat="45.662327289381274" lon="10.114589590263128"><ele>646.6</ele><time>2026-04-12T09:05:23Z</time></trkpt><trkpt lat="45.66227584458818" lon="10.114505343623991"><ele>649.2</ele><time>2026-04-12T09:05:24Z</time></trkpt><trkpt lat="45.66219656387073" lon="10.114464167042888"><ele>651.8000000000001</ele><time>2026-04-12T09:05:25Z</time></trkpt><trkpt lat="45.662105299759084" lon="10.114483480413087"><ele>654.4000000000001</ele><time>2026-04-12T09:05:26Z</time></trkpt><trkpt lat="45.66201454306413" lon="10.114533263801414"><ele>657.0</ele><time>2026-04-12T09:05:27Z</time></trkpt><trkpt lat="45.661920871918085" lon="10.1145799474184"><ele>657.0</ele><time>2026-04-12T09:05:28Z</time></trkpt><trkpt lat="45.661822086555325" lon="10.11461125715899"><ele>657.0</ele><time>2026-04-12T09:05:29Z</time></trkpt><trkpt lat="45.66171857192566" lon="10.114574059999331"><ele>657.0</ele><time>2026-04-12T09:05:30Z</time></trkpt><trkpt lat="45.6616244887412" lon="10.114525073785282"><ele>657.0</ele><time>2026-04-12T09:05:31Z</time></trkpt><trkpt lat="45.661540395396976" lon="10.114410827528568"><ele>657.0</ele><time>2026-04-12T09:05:32Z</time></trkpt><trkpt lat="45.661471818232265" lon="10.114270901865899"><ele>657.0</ele><time>2026-04-12T09:05:33Z</time></trkpt><trkpt lat="45.66140538551655" lon="10.11412399611592"><ele>657.0</ele><time>2026-04-12T09:05:34Z</time></trkpt><trkpt lat="45.66134619809975" lon="10.113961308079325"><ele>657.0</ele><time>2026-04-12T09:05:35Z</time></trkpt><trkpt lat="45.66127008091355" lon="10.113806962416657"><ele>657.0</ele><time>2026-04-12T09:05:36Z</time></trkpt><trkpt lat="45.66119344842755" lon="10.113650928927227"><ele>658.2</ele><time>2026-04-12T09:05:37Z</time></trkpt><trkpt lat="45.661126171062804" lon="10.113513943422115"><ele>659.4000000000001</ele><time>2026-04-12T09:05:38Z</time></trkpt><trkpt lat="45.661068268509126" lon="10.11339604621957"><ele>660.5999999999999</ele><time>2026-04-12T09:05:39Z</time></trkpt><trkpt lat="45.66102207864797" lon="10.113301997624623"><ele>661.8</ele><time>2026-04-12T09:05:40Z</time></trkpt><trkpt lat="45.66095855170033" lon="10.113179325973222"><ele>663.0</ele><time>2026-04-12T09:05:42Z</time></trkpt><trkpt lat="45.66096954287765" lon="10.113087230603131"><ele>663.0</ele><time>2026-04-12T09:05:44Z</time></trkpt><trkpt lat="45.66105069322551" lon="10.113112739422137"><ele>663.0</ele><time>2026-04-12T09:05:46Z</time></trkpt><trkpt lat="45.66112358133102" lon="10.113209532554723"><ele>663.0</ele><time>2026-04-12T09:05:48Z</time></trkpt><trkpt lat="45.661163164982305" lon="10.113282516421618"><ele>663.0</ele><time>2026-04-12T09:05:49Z</time></trkpt><trkpt lat="45.66123217730856" lon="10.113411503320338"><ele>663.0</ele><time>2026-04-12T09:05:51Z</time></trkpt><trkpt lat="45.661277510437976" lon="10.113475019635118"><ele>663.0</ele><time>2026-04-12T09:05:52Z</time></trkpt><trkpt lat="45.66133868710377" lon="10.11353042122938"><ele>665.2</ele><time>2026-04-12T09:05:53Z</time></trkpt><trkpt lat="45.661448976603594" lon="10.113584451727865"><ele>667.4</ele><time>2026-04-12T09:05:55Z</time></trkpt><trkpt lat="45.661518533254025" lon="10.113625402160517"><ele>669.6</ele><time>2026-04-12T09:05:56Z</time></trkpt><trkpt lat="45.661590577488354" lon="10.11368378515717"><ele>671.8000000000001</ele><time>2026-04-12T09:05:57Z</time></trkpt><trkpt lat="45.661665061569586" lon="10.113756555415845"><ele>674.0</ele><time>2026-04-12T09:05:58Z</time></trkpt><trkpt lat="45.66172760039203" lon="10.113847531612032"><ele>674.0</ele><time>2026-04-12T09:05:59Z</time></trkpt><trkpt lat="45.6617836946556" lon="10.113933433170073"><ele>674.0</ele><time>2026-04-12T09:06:00Z</time></trkpt><trkpt lat="45.661840573918546" lon="10.11401022474931"><ele>674.0</ele><time>2026-04-12T09:06:01Z</time></trkpt><trkpt lat="45.66190219653242" lon="10.114059709970212"><ele>674.0</ele><time>2026-04-12T09:06:02Z</time></trkpt><trkpt lat="45.662017935983066" lon="10.114030642278571"><ele>674.0</ele><time>2026-04-12T09:06:04Z</time></trkpt><trkpt lat="45.66206640941045" lon="10.11396543988882"><ele>674.0</ele><time>2026-04-12T09:06:05Z</time></trkpt><trkpt lat="45.66212288582186" lon="10.113779160188821"><ele>674.3333333333333</ele><time>2026-04-12T09:06:07Z</time></trkpt><trkpt lat="45.66212973088615" lon="10.113665749106804"><ele>674.6666666666666</ele><time>2026-04-12T09:06:08Z</time></trkpt><trkpt lat="45.662130446446184" lon="10.113554078280503"><ele>675.0</ele><time>2026-04-12T09:06:09Z</time></trkpt><trkpt lat="45.662114089059855" lon="10.113446151274966"><ele>675.3333333333334</ele><time>2026-04-12T09:06:10Z</time></trkpt><trkpt lat="45.662076564679055" lon="10.113348316936628"><ele>675.6666666666667</ele><time>2026-04-12T09:06:11Z</time></trkpt><trkpt lat="45.662040149003765" lon="10.113260711648978"><ele>676.0</ele><time>2026-04-12T09:06:12Z</time></trkpt><trkpt lat="45.66199741501859" lon="10.113182365671575"><ele>677.5</ele><time>2026-04-12T09:06:13Z</time></trkpt><trkpt lat="45.66195180198837" lon="10.113108023214926"><ele>679.0</ele><time>2026-04-12T09:06:14Z</time></trkpt><trkpt lat="45.661898488688394" lon="10.113024939709055"><ele>680.5</ele><time>2026-04-12T09:06:15Z</time></trkpt><trkpt lat="45.66183869064433" lon="10.112928483682422"><ele>682.0</ele><time>2026-04-12T09:06:16Z</time></trkpt><trkpt lat="45.66177898131654" lon="10.112832429671311"><ele>683.5</ele><time>2026-04-12T09:06:16.999Z</time></trkpt><trkpt lat="45.66172231059865" lon="10.112729186172068"><ele>685.0</ele><time>2026-04-12T09:06:17.999Z</time></trkpt><trkpt lat="45.6616619342864" lon="10.112630701262114"><ele>685.0</ele><time>2026-04-12T09:06:18.999Z</time></trkpt><trkpt lat="45.661605962606615" lon="10.112538202130011"><ele>685.0</ele><time>2026-04-12T09:06:19.999Z</time></trkpt><trkpt lat="45.661551028928756" lon="10.112450387716555"><ele>685.0</ele><time>2026-04-12T09:06:20.999Z</time></trkpt><trkpt lat="45.66149983319387" lon="10.11235890973223"><ele>685.0</ele><time>2026-04-12T09:06:21.999Z</time></trkpt><trkpt lat="45.66145074917098" lon="10.112272318649289"><ele>685.0</ele><time>2026-04-12T09:06:22.999Z</time></trkpt><trkpt lat="45.661404290225235" lon="10.112189393860975"><ele>685.0</ele><time>2026-04-12T09:06:23.999Z</time></trkpt><trkpt lat="45.66136628450226" lon="10.112056719659334"><ele>687.3333333333334</ele><time>2026-04-12T09:06:26Z</time></trkpt><trkpt lat="45.661431367132565" lon="10.112002164007519"><ele>689.6666666666667</ele><time>2026-04-12T09:06:28Z</time></trkpt><trkpt lat="45.66145862991358" lon="10.112091780124153"><ele>692.0</ele><time>2026-04-12T09:06:30Z</time></trkpt><trkpt lat="45.661500318371246" lon="10.112163131585747"><ele>694.3333333333334</ele><time>2026-04-12T09:06:31Z</time></trkpt><trkpt lat="45.66158862207624" lon="10.112264243730111"><ele>696.6666666666666</ele><time>2026-04-12T09:06:33Z</time></trkpt><trkpt lat="45.66168765041489" lon="10.112262739423965"><ele>699.0</ele><time>2026-04-12T09:06:35Z</time></trkpt><trkpt lat="45.66173757594092" lon="10.112109815577682"><ele>699.0</ele><time>2026-04-12T09:06:37Z</time></trkpt><trkpt lat="45.66175893711413" lon="10.112011649623295"><ele>699.0</ele><time>2026-04-12T09:06:38Z</time></trkpt><trkpt lat="45.661841215082994" lon="10.111887592325308"><ele>699.0</ele><time>2026-04-12T09:06:40Z</time></trkpt><trkpt lat="45.661917601926035" lon="10.11185383737622"><ele>699.0</ele><time>2026-04-12T09:06:41Z</time></trkpt><trkpt lat="45.661995856654826" lon="10.111818949745292"><ele>699.0</ele><time>2026-04-12T09:06:42Z</time></trkpt><trkpt lat="45.662073372459616" lon="10.111803820250053"><ele>699.0</ele><time>2026-04-12T09:06:43Z</time></trkpt><trkpt lat="45.66214796264977" lon="10.111820383431064"><ele>702.1666666666666</ele><time>2026-04-12T09:06:44Z</time></trkpt><trkpt lat="45.662218757092596" lon="10.111860296420977"><ele>705.3333333333334</ele><time>2026-04-12T09:06:45Z</time></trkpt><trkpt lat="45.6622976993148" lon="10.11190179327433"><ele>708.5</ele><time>2026-04-12T09:06:46Z</time></trkpt><trkpt lat="45.662385352101374" lon="10.111929786091716"><ele>711.6666666666667</ele><time>2026-04-12T09:06:47Z</time></trkpt><trkpt lat="45.662482481700934" lon="10.111921442380522"><ele>714.8333333333334</ele><time>2026-04-12T09:06:48Z</time></trkpt><trkpt lat="45.662564200927804" lon="10.111911586044771"><ele>718.0</ele><time>2026-04-12T09:06:49Z</time></trkpt><trkpt lat="45.66264543833051" lon="10.11190208309536"><ele>718.0</ele><time>2026-04-12T09:06:50Z</time></trkpt><trkpt lat="45.66274678553183" lon="10.111883363861192"><ele>718.0</ele><time>2026-04-12T09:06:51Z</time></trkpt><trkpt lat="45.66283340058985" lon="10.111941024472374"><ele>718.0</ele><time>2026-04-12T09:06:52Z</time></trkpt><trkpt lat="45.66292191605688" lon="10.111992411696493"><ele>718.0</ele><time>2026-04-12T09:06:53Z</time></trkpt><trkpt lat="45.663012906944154" lon="10.112031595387093"><ele>718.0</ele><time>2026-04-12T09:06:54Z</time></trkpt><trkpt lat="45.66311777216721" lon="10.112023595019705"><ele>722.5999999999999</ele><time>2026-04-12T09:06:55Z</time></trkpt><trkpt lat="45.66321566212971" lon="10.112009099960586"><ele>727.1999999999999</ele><time>2026-04-12T09:06:56Z</time></trkpt><trkpt lat="45.66331016991896" lon="10.112005936409348"><ele>731.8</ele><time>2026-04-12T09:06:57Z</time></trkpt><trkpt lat="45.66338457503692" lon="10.112002199279974"><ele>736.4</ele><time>2026-04-12T09:06:58Z</time></trkpt><trkpt lat="45.66348692902912" lon="10.112078043460249"><ele>741.0</ele><time>2026-04-12T09:06:59Z</time></trkpt><trkpt lat="45.66359049486507" lon="10.112136174837124"><ele>751.0</ele><time>2026-04-12T09:07:00Z</time></trkpt><trkpt lat="45.6636979540645" lon="10.11219235270828"><ele>761.0</ele><time>2026-04-12T09:07:01Z</time></trkpt><trkpt lat="45.66380617735215" lon="10.112247487001943"><ele>771.0</ele><time>2026-04-12T09:07:02Z</time></trkpt><trkpt lat="45.66391554349393" lon="10.112302332002535"><ele>781.0</ele><time>2026-04-12T09:07:03Z</time></trkpt><trkpt lat="45.66400602175103" lon="10.112398341425827"><ele>772.0</ele><time>2026-04-12T09:07:04Z</time></trkpt><trkpt lat="45.664073333670665" lon="10.112533146194746"><ele>763.0</ele><time>2026-04-12T09:07:05Z</time></trkpt><trkpt lat="45.66414463837175" lon="10.11265842793889"><ele>754.0</ele><time>2026-04-12T09:07:06Z</time></trkpt><trkpt lat="45.66420388386527" lon="10.112795333888362"><ele>745.0</ele><time>2026-04-12T09:07:07Z</time></trkpt><trkpt lat="45.664254183481226" lon="10.112957441416809"><ele>745.0</ele><time>2026-04-12T09:07:08Z</time></trkpt><trkpt lat="45.66429921836164" lon="10.113130188879564"><ele>745.0</ele><time>2026-04-12T09:07:09Z</time></trkpt><trkpt lat="45.66432359286097" lon="10.113298278183523"><ele>745.0</ele><time>2026-04-12T09:07:10Z</time></trkpt><trkpt lat="45.66434085841572" lon="10.113465969337595"><ele>745.0</ele><time>2026-04-12T09:07:11Z</time></trkpt><trkpt lat="45.66438717565584" lon="10.113627709223074"><ele>753.0</ele><time>2026-04-12T09:07:12Z</time></trkpt><trkpt lat="45.66445849383623" lon="10.113778933198045"><ele>761.0</ele><time>2026-04-12T09:07:13Z</time></trkpt><trkpt lat="45.6645061306017" lon="10.1139409533764"><ele>769.0</ele><time>2026-04-12T09:07:14Z</time></trkpt><trkpt lat="45.66455835639096" lon="10.1140999339573"><ele>777.0</ele><time>2026-04-12T09:07:15Z</time></trkpt><trkpt lat="45.664614038367596" lon="10.114257203633375"><ele>777.0</ele><time>2026-04-12T09:07:16Z</time></trkpt><trkpt lat="45.66467449489583" lon="10.114406740173033"><ele>777.0</ele><time>2026-04-12T09:07:17Z</time></trkpt><trkpt lat="45.66474292342085" lon="10.114552572070117"><ele>777.0</ele><time>2026-04-12T09:07:18Z</time></trkpt><trkpt lat="45.66480229895041" lon="10.114705773651131"><ele>777.0</ele><time>2026-04-12T09:07:19Z</time></trkpt><trkpt lat="45.66486761630977" lon="10.11485187758365"><ele>774.0</ele><time>2026-04-12T09:07:20Z</time></trkpt><trkpt lat="45.664929748722344" lon="10.11500487855881"><ele>771.0</ele><time>2026-04-12T09:07:21Z</time></trkpt><trkpt lat="45.66497832918117" lon="10.11516900173781"><ele>768.0</ele><time>2026-04-12T09:07:22Z</time></trkpt><trkpt lat="45.66501570987468" lon="10.115342235486247"><ele>765.0</ele><time>2026-04-12T09:07:23Z</time></trkpt><trkpt lat="45.66504944318416" lon="10.115514508086202"><ele>765.0</ele><time>2026-04-12T09:07:24Z</time></trkpt><trkpt lat="45.66508191242298" lon="10.115695641541333"><ele>765.0</ele><time>2026-04-12T09:07:25Z</time></trkpt><trkpt lat="45.66511780274529" lon="10.115885437011011"><ele>765.0</ele><time>2026-04-12T09:07:26Z</time></trkpt><trkpt lat="45.66515627126591" lon="10.116079929061694"><ele>765.0</ele><time>2026-04-12T09:07:27Z</time></trkpt><trkpt lat="45.66517969461948" lon="10.116283299777546"><ele>761.5</ele><time>2026-04-12T09:07:28Z</time></trkpt><trkpt lat="45.6652074393074" lon="10.116477968952807"><ele>758.0</ele><time>2026-04-12T09:07:29Z</time></trkpt><trkpt lat="45.665220938804616" lon="10.11667774507303"><ele>754.5</ele><time>2026-04-12T09:07:30Z</time></trkpt><trkpt lat="45.665228453739545" lon="10.116863570957939"><ele>751.0</ele><time>2026-04-12T09:07:31Z</time></trkpt><trkpt lat="45.66523957630432" lon="10.117036775106502"><ele>749.25</ele><time>2026-04-12T09:07:32Z</time></trkpt><trkpt lat="45.665245017678444" lon="10.117187983824966"><ele>747.5</ele><time>2026-04-12T09:07:33Z</time></trkpt><trkpt lat="45.66525199760452" lon="10.117355399553512"><ele>745.75</ele><time>2026-04-12T09:07:34Z</time></trkpt><trkpt lat="45.66525712934887" lon="10.11751944644338"><ele>744.0</ele><time>2026-04-12T09:07:35Z</time></trkpt><trkpt lat="45.66524451501521" lon="10.117687616237479"><ele>744.0</ele><time>2026-04-12T09:07:36Z</time></trkpt><trkpt lat="45.66522073657597" lon="10.117846118218251"><ele>744.0</ele><time>2026-04-12T09:07:37Z</time></trkpt><trkpt lat="45.66518442607756" lon="10.118016232529047"><ele>744.0</ele><time>2026-04-12T09:07:38Z</time></trkpt><trkpt lat="45.66514733204129" lon="10.118173141316925"><ele>744.0</ele><time>2026-04-12T09:07:39Z</time></trkpt><trkpt lat="45.66511144046619" lon="10.118341340611492"><ele>744.0</ele><time>2026-04-12T09:07:40Z</time></trkpt><trkpt lat="45.66508042458795" lon="10.118507818232139"><ele>744.0</ele><time>2026-04-12T09:07:41Z</time></trkpt><trkpt lat="45.6650613736741" lon="10.11867718189837"><ele>744.0</ele><time>2026-04-12T09:07:42Z</time></trkpt><trkpt lat="45.66504839103817" lon="10.118843653198898"><ele>744.0</ele><time>2026-04-12T09:07:43Z</time></trkpt><trkpt lat="45.665045758159906" lon="10.118993615059026"><ele>745.4000000000001</ele><time>2026-04-12T09:07:44Z</time></trkpt><trkpt lat="45.66504880686207" lon="10.119145524959425"><ele>746.8</ele><time>2026-04-12T09:07:45Z</time></trkpt><trkpt lat="45.665052377131914" lon="10.119292611424571"><ele>748.2</ele><time>2026-04-12T09:07:46Z</time></trkpt><trkpt lat="45.66505280917791" lon="10.119436510484823"><ele>749.5999999999999</ele><time>2026-04-12T09:07:47Z</time></trkpt><trkpt lat="45.66505570905003" lon="10.11957032803259"><ele>751.0</ele><time>2026-04-12T09:07:48Z</time></trkpt><trkpt lat="45.665070617499076" lon="10.119672503868623"><ele>751.0</ele><time>2026-04-12T09:07:49Z</time></trkpt><trkpt lat="45.665069317523894" lon="10.119804180285803"><ele>751.0</ele><time>2026-04-12T09:07:50Z</time></trkpt><trkpt lat="45.66509593807364" lon="10.119931691959744"><ele>751.0</ele><time>2026-04-12T09:07:51Z</time></trkpt><trkpt lat="45.665135437672234" lon="10.120060372972674"><ele>751.0</ele><time>2026-04-12T09:07:52Z</time></trkpt><trkpt lat="45.665172542081116" lon="10.120185771043463"><ele>751.0</ele><time>2026-04-12T09:07:53Z</time></trkpt><trkpt lat="45.665196979912864" lon="10.120312932150114"><ele>753.5999999999999</ele><time>2026-04-12T09:07:54Z</time></trkpt><trkpt lat="45.665211915333956" lon="10.120441758561244"><ele>756.2</ele><time>2026-04-12T09:07:55Z</time></trkpt><trkpt lat="45.66522425953235" lon="10.120572181431312"><ele>758.8</ele><time>2026-04-12T09:07:56Z</time></trkpt><trkpt lat="45.665238326009245" lon="10.120698839620761"><ele>761.4000000000001</ele><time>2026-04-12T09:07:57Z</time></trkpt><trkpt lat="45.665268574635235" lon="10.120833698116437"><ele>764.0</ele><time>2026-04-12T09:07:58Z</time></trkpt><trkpt lat="45.66527273875431" lon="10.120974295765526"><ele>764.2</ele><time>2026-04-12T09:07:59Z</time></trkpt><trkpt lat="45.66526918153124" lon="10.121117421817628"><ele>764.4000000000001</ele><time>2026-04-12T09:08:00Z</time></trkpt><trkpt lat="45.66526916924633" lon="10.121262852694006"><ele>764.6</ele><time>2026-04-12T09:08:01Z</time></trkpt><trkpt lat="45.665283382078165" lon="10.121400237945199"><ele>764.8</ele><time>2026-04-12T09:08:02Z</time></trkpt><trkpt lat="45.665312888927744" lon="10.121537509441703"><ele>765.0</ele><time>2026-04-12T09:08:03Z</time></trkpt><trkpt lat="45.66533623828866" lon="10.121679308720475"><ele>773.1666666666666</ele><time>2026-04-12T09:08:04Z</time></trkpt><trkpt lat="45.66537826819839" lon="10.121808513028297"><ele>781.3333333333333</ele><time>2026-04-12T09:08:05Z</time></trkpt><trkpt lat="45.66542842637125" lon="10.121933395855262"><ele>789.5</ele><time>2026-04-12T09:08:06Z</time></trkpt><trkpt lat="45.66548487011779" lon="10.122037149005365"><ele>797.6666666666666</ele><time>2026-04-12T09:08:07Z</time></trkpt><trkpt lat="45.66551162768469" lon="10.122121030757627"><ele>805.8333333333333</ele><time>2026-04-12T09:08:08Z</time></trkpt><trkpt lat="45.66555387629646" lon="10.122219772627933"><ele>814.0</ele><time>2026-04-12T09:08:11Z</time></trkpt><trkpt lat="45.66557341246006" lon="10.122325622309855"><ele>812.6666666666666</ele><time>2026-04-12T09:08:13Z</time></trkpt><trkpt lat="45.665600615805516" lon="10.12241185791147"><ele>811.3333333333333</ele><time>2026-04-12T09:08:14Z</time></trkpt><trkpt lat="45.66564154299575" lon="10.122513663748107"><ele>810.0</ele><time>2026-04-12T09:08:15Z</time></trkpt><trkpt lat="45.6656916863107" lon="10.122609379895946"><ele>808.6666666666667</ele><time>2026-04-12T09:08:16Z</time></trkpt><trkpt lat="45.66574339799946" lon="10.122693740337992"><ele>807.3333333333334</ele><time>2026-04-12T09:08:17Z</time></trkpt><trkpt lat="45.665797177014284" lon="10.122774126432146"><ele>806.0</ele><time>2026-04-12T09:08:18Z</time></trkpt><trkpt lat="45.6658565430795" lon="10.122859974951659"><ele>806.0</ele><time>2026-04-12T09:08:20Z</time></trkpt><trkpt lat="45.6659308889416" lon="10.122934878896814"><ele>806.0</ele><time>2026-04-12T09:08:22Z</time></trkpt><trkpt lat="45.6660231010361" lon="10.122876198441848"><ele>806.0</ele><time>2026-04-12T09:08:24Z</time></trkpt><trkpt lat="45.666015345914246" lon="10.122754931414455"><ele>806.0</ele><time>2026-04-12T09:08:25Z</time></trkpt><trkpt lat="45.665963137091836" lon="10.122637230339643"><ele>806.0</ele><time>2026-04-12T09:08:27Z</time></trkpt><trkpt lat="45.66593582703392" lon="10.12247335503184"><ele>807.5999999999999</ele><time>2026-04-12T09:08:29Z</time></trkpt><trkpt lat="45.66593396421304" lon="10.122261632508154"><ele>809.2</ele><time>2026-04-12T09:08:31Z</time></trkpt><trkpt lat="45.66593250348137" lon="10.122127059751524"><ele>810.8</ele><time>2026-04-12T09:08:32Z</time></trkpt><trkpt lat="45.6659205501738" lon="10.122005673134748"><ele>812.4000000000001</ele><time>2026-04-12T09:08:33Z</time></trkpt><trkpt lat="45.66591148488771" lon="10.121883938035785"><ele>814.0</ele><time>2026-04-12T09:08:34Z</time></trkpt><trkpt lat="45.66591331961277" lon="10.121756899687668"><ele>814.0</ele><time>2026-04-12T09:08:35Z</time></trkpt><trkpt lat="45.66592994415693" lon="10.121621012893018"><ele>814.0</ele><time>2026-04-12T09:08:36Z</time></trkpt><trkpt lat="45.66595013913335" lon="10.121475896834323"><ele>814.0</ele><time>2026-04-12T09:08:37Z</time></trkpt><trkpt lat="45.6659700716573" lon="10.12132635599836"><ele>814.0</ele><time>2026-04-12T09:08:38Z</time></trkpt><trkpt lat="45.6659911534191" lon="10.121170783317849"><ele>814.0</ele><time>2026-04-12T09:08:39Z</time></trkpt><trkpt lat="45.66600661921585" lon="10.121011813067772"><ele>814.0</ele><time>2026-04-12T09:08:40Z</time></trkpt><trkpt lat="45.66601843732095" lon="10.120851512191498"><ele>814.0</ele><time>2026-04-12T09:08:41Z</time></trkpt><trkpt lat="45.66602849695169" lon="10.120682570212272"><ele>814.0</ele><time>2026-04-12T09:08:42Z</time></trkpt><trkpt lat="45.66603589087747" lon="10.120513015054097"><ele>814.0</ele><time>2026-04-12T09:08:43Z</time></trkpt><trkpt lat="45.66602626140287" lon="10.12033503093942"><ele>814.0</ele><time>2026-04-12T09:08:44Z</time></trkpt><trkpt lat="45.6660415269139" lon="10.120155796157425"><ele>814.0</ele><time>2026-04-12T09:08:45Z</time></trkpt><trkpt lat="45.66604970606222" lon="10.119977696737458"><ele>814.0</ele><time>2026-04-12T09:08:46Z</time></trkpt><trkpt lat="45.66605945288089" lon="10.119802109405912"><ele>814.0</ele><time>2026-04-12T09:08:47Z</time></trkpt><trkpt lat="45.666078912224364" lon="10.119627973686242"><ele>813.75</ele><time>2026-04-12T09:08:48Z</time></trkpt><trkpt lat="45.66609673896093" lon="10.119465516626358"><ele>813.5</ele><time>2026-04-12T09:08:49Z</time></trkpt><trkpt lat="45.66611875019586" lon="10.119304682128135"><ele>813.25</ele><time>2026-04-12T09:08:50Z</time></trkpt><trkpt lat="45.66616091578275" lon="10.119150369231646"><ele>813.0</ele><time>2026-04-12T09:08:51Z</time></trkpt><trkpt lat="45.6662120882823" lon="10.119000746428297"><ele>826.25</ele><time>2026-04-12T09:08:52Z</time></trkpt><trkpt lat="45.66625355375443" lon="10.118851401254005"><ele>839.5</ele><time>2026-04-12T09:08:53Z</time></trkpt><trkpt lat="45.66629239544252" lon="10.118692955111834"><ele>852.75</ele><time>2026-04-12T09:08:54Z</time></trkpt><trkpt lat="45.66632487020116" lon="10.118537684913024"><ele>866.0</ele><time>2026-04-12T09:08:55Z</time></trkpt><trkpt lat="45.6663435086654" lon="10.118360826111052"><ele>865.0</ele><time>2026-04-12T09:08:56Z</time></trkpt><trkpt lat="45.66637602917067" lon="10.11819409827837"><ele>864.0</ele><time>2026-04-12T09:08:57Z</time></trkpt><trkpt lat="45.6664171387277" lon="10.118019585248051"><ele>863.0</ele><time>2026-04-12T09:08:58Z</time></trkpt><trkpt lat="45.66645200545284" lon="10.117835785185534"><ele>862.0</ele><time>2026-04-12T09:08:59Z</time></trkpt><trkpt lat="45.666471972612406" lon="10.11764428621011"><ele>862.0</ele><time>2026-04-12T09:09:00Z</time></trkpt><trkpt lat="45.666489524850576" lon="10.117450345122847"><ele>862.0</ele><time>2026-04-12T09:09:01Z</time></trkpt><trkpt lat="45.66650889708504" lon="10.117240592583167"><ele>862.0</ele><time>2026-04-12T09:09:02Z</time></trkpt><trkpt lat="45.66652752527993" lon="10.117024290328766"><ele>862.0</ele><time>2026-04-12T09:09:03Z</time></trkpt><trkpt lat="45.666537794686356" lon="10.11680334840941"><ele>862.5</ele><time>2026-04-12T09:09:04Z</time></trkpt><trkpt lat="45.666542452431955" lon="10.116587865722142"><ele>863.0</ele><time>2026-04-12T09:09:05Z</time></trkpt><trkpt lat="45.66655044373257" lon="10.116372365247514"><ele>863.5</ele><time>2026-04-12T09:09:06Z</time></trkpt><trkpt lat="45.666565379600804" lon="10.116162490627287"><ele>864.0</ele><time>2026-04-12T09:09:07Z</time></trkpt><trkpt lat="45.66657813633761" lon="10.115961465452108"><ele>864.0</ele><time>2026-04-12T09:09:08Z</time></trkpt><trkpt lat="45.66659003658683" lon="10.115768787046502"><ele>864.0</ele><time>2026-04-12T09:09:09Z</time></trkpt><trkpt lat="45.66659528789241" lon="10.115586923847593"><ele>864.0</ele><time>2026-04-12T09:09:10Z</time></trkpt><trkpt lat="45.666597285288226" lon="10.11540851618253"><ele>864.0</ele><time>2026-04-12T09:09:11Z</time></trkpt><trkpt lat="45.66659145952493" lon="10.11522968787448"><ele>866.25</ele><time>2026-04-12T09:09:12Z</time></trkpt><trkpt lat="45.66657802053609" lon="10.11505383710773"><ele>868.5</ele><time>2026-04-12T09:09:13Z</time></trkpt><trkpt lat="45.66655588041652" lon="10.114879443078593"><ele>870.75</ele><time>2026-04-12T09:09:14Z</time></trkpt><trkpt lat="45.666534434290625" lon="10.114706706776568"><ele>873.0</ele><time>2026-04-12T09:09:15Z</time></trkpt><trkpt lat="45.66651015771607" lon="10.114533888680683"><ele>874.25</ele><time>2026-04-12T09:09:16Z</time></trkpt><trkpt lat="45.666486598757636" lon="10.114362876782055"><ele>875.5</ele><time>2026-04-12T09:09:17Z</time></trkpt><trkpt lat="45.66645801423034" lon="10.114190153056422"><ele>876.75</ele><time>2026-04-12T09:09:18Z</time></trkpt><trkpt lat="45.66642321600605" lon="10.114023112484448"><ele>878.0</ele><time>2026-04-12T09:09:19Z</time></trkpt><trkpt lat="45.666384193437985" lon="10.113863905865928"><ele>878.5999999999999</ele><time>2026-04-12T09:09:20Z</time></trkpt><trkpt lat="45.66634975316584" lon="10.113728505855745"><ele>879.1999999999999</ele><time>2026-04-12T09:09:21Z</time></trkpt><trkpt lat="45.66631477773277" lon="10.113611389424083"><ele>879.8</ele><time>2026-04-12T09:09:22Z</time></trkpt><trkpt lat="45.66628045859057" lon="10.113507756263193"><ele>880.4</ele><time>2026-04-12T09:09:23Z</time></trkpt><trkpt lat="45.6662490585323" lon="10.113419740540795"><ele>881.0</ele><time>2026-04-12T09:09:24Z</time></trkpt><trkpt lat="45.66620998157294" lon="10.113260714769508"><ele>880.5999999999999</ele><time>2026-04-12T09:09:26Z</time></trkpt><trkpt lat="45.66618688904093" lon="10.113091200916214"><ele>880.1999999999999</ele><time>2026-04-12T09:09:28Z</time></trkpt><trkpt lat="45.66616639525311" lon="10.112984173661182"><ele>879.8000000000001</ele><time>2026-04-12T09:09:29Z</time></trkpt><trkpt lat="45.66614484333975" lon="10.112867642832644"><ele>879.4000000000001</ele><time>2026-04-12T09:09:30Z</time></trkpt><trkpt lat="45.66612967691264" lon="10.11275111268845"><ele>879.0</ele><time>2026-04-12T09:09:31Z</time></trkpt><trkpt lat="45.66612856784861" lon="10.112616439283261"><ele>879.0</ele><time>2026-04-12T09:09:32Z</time></trkpt><trkpt lat="45.66613164323591" lon="10.112481925746499"><ele>879.0000000000001</ele><time>2026-04-12T09:09:33Z</time></trkpt><trkpt lat="45.666141258730626" lon="10.112343435147382"><ele>879.0000000000001</ele><time>2026-04-12T09:09:34Z</time></trkpt><trkpt lat="45.666163066748176" lon="10.11220830745213"><ele>879.0</ele><time>2026-04-12T09:09:35Z</time></trkpt><trkpt lat="45.66620596533739" lon="10.112088083539684"><ele>879.0</ele><time>2026-04-12T09:09:36Z</time></trkpt><trkpt lat="45.66627231359369" lon="10.112012109050248"><ele>880.1666666666666</ele><time>2026-04-12T09:09:37Z</time></trkpt><trkpt lat="45.66635614573676" lon="10.11200936836034"><ele>881.3333333333333</ele><time>2026-04-12T09:09:38Z</time></trkpt><trkpt lat="45.666447240725496" lon="10.111990933167455"><ele>882.5</ele><time>2026-04-12T09:09:39Z</time></trkpt><trkpt lat="45.666534752781814" lon="10.111960989481368"><ele>883.6666666666666</ele><time>2026-04-12T09:09:40Z</time></trkpt><trkpt lat="45.666620287119194" lon="10.11195075215166"><ele>884.8333333333333</ele><time>2026-04-12T09:09:41Z</time></trkpt><trkpt lat="45.66669870896773" lon="10.111928590080367"><ele>886.0</ele><time>2026-04-12T09:09:42Z</time></trkpt><trkpt lat="45.66676232826475" lon="10.111904589965384"><ele>885.9999999999999</ele><time>2026-04-12T09:09:43Z</time></trkpt><trkpt lat="45.66681625694554" lon="10.11185700327489"><ele>886.0</ele><time>2026-04-12T09:09:44Z</time></trkpt><trkpt lat="45.66685120024444" lon="10.111770602734707"><ele>886.0</ele><time>2026-04-12T09:09:45Z</time></trkpt><trkpt lat="45.66687563108047" lon="10.111646562704607"><ele>886.0</ele><time>2026-04-12T09:09:46Z</time></trkpt><trkpt lat="45.66691697236581" lon="10.11151666203879"><ele>885.9999999999999</ele><time>2026-04-12T09:09:47Z</time></trkpt><trkpt lat="45.66697267438238" lon="10.111404858702787"><ele>886.0</ele><time>2026-04-12T09:09:48Z</time></trkpt><trkpt lat="45.66700815372085" lon="10.111287265556523"><ele>886.4999999999999</ele><time>2026-04-12T09:09:49Z</time></trkpt><trkpt lat="45.667024791792244" lon="10.11115800736687"><ele>887.0</ele><time>2026-04-12T09:09:50Z</time></trkpt><trkpt lat="45.66702544356489" lon="10.111045067864366"><ele>887.5</ele><time>2026-04-12T09:09:51Z</time></trkpt><trkpt lat="45.66700681585433" lon="10.110947529295343"><ele>888.0</ele><time>2026-04-12T09:09:52Z</time></trkpt><trkpt lat="45.6669690122686" lon="10.110872309546469"><ele>888.4999999999999</ele><time>2026-04-12T09:09:53Z</time></trkpt><trkpt lat="45.6669100919858" lon="10.110813194116263"><ele>889.0</ele><time>2026-04-12T09:09:54Z</time></trkpt><trkpt lat="45.66682106443821" lon="10.110742143368489"><ele>888.9999999999999</ele><time>2026-04-12T09:09:55Z</time></trkpt><trkpt lat="45.66673130807098" lon="10.110697129895986"><ele>889.0</ele><time>2026-04-12T09:09:56Z</time></trkpt><trkpt lat="45.66663736632771" lon="10.110666774391687"><ele>889.0</ele><time>2026-04-12T09:09:57Z</time></trkpt><trkpt lat="45.66655195939818" lon="10.110631104407885"><ele>889.0</ele><time>2026-04-12T09:09:58Z</time></trkpt><trkpt lat="45.66646917825329" lon="10.110600805777981"><ele>888.9999999999999</ele><time>2026-04-12T09:09:59Z</time></trkpt><trkpt lat="45.666404715280585" lon="10.110561536919073"><ele>889.0</ele><time>2026-04-12T09:10:00Z</time></trkpt><trkpt lat="45.666342031912855" lon="10.11049435252207"><ele>888.9999999999999</ele><time>2026-04-12T09:10:01Z</time></trkpt><trkpt lat="45.66626958142125" lon="10.110394196427016"><ele>889.0</ele><time>2026-04-12T09:10:03Z</time></trkpt><trkpt lat="45.666288463718494" lon="10.11030440679172"><ele>889.0</ele><time>2026-04-12T09:10:04Z</time></trkpt><trkpt lat="45.66633934750705" lon="10.110243997084822"><ele>889.0</ele><time>2026-04-12T09:10:05Z</time></trkpt><trkpt lat="45.66641423835797" lon="10.11018884851709"><ele>888.9999999999999</ele><time>2026-04-12T09:10:06Z</time></trkpt><trkpt lat="45.66649942603964" lon="10.110134043600217"><ele>889.0</ele><time>2026-04-12T09:10:07Z</time></trkpt><trkpt lat="45.666595400632" lon="10.110064155906132"><ele>889.0</ele><time>2026-04-12T09:10:08Z</time></trkpt><trkpt lat="45.66668402241965" lon="10.110022526433358"><ele>889.0000000000001</ele><time>2026-04-12T09:10:09Z</time></trkpt><trkpt lat="45.666762333422355" lon="10.109996745822437"><ele>889.0000000000001</ele><time>2026-04-12T09:10:10Z</time></trkpt><trkpt lat="45.666831056785746" lon="10.109969749999681"><ele>889.0</ele><time>2026-04-12T09:10:11Z</time></trkpt><trkpt lat="45.66691747219612" lon="10.109867603397634"><ele>889.0</ele><time>2026-04-12T09:10:13Z</time></trkpt><trkpt lat="45.666947706401345" lon="10.10968241617545"><ele>890.0</ele><time>2026-04-12T09:10:15.001Z</time></trkpt><trkpt lat="45.66694372378674" lon="10.109562931872237"><ele>891.0000000000001</ele><time>2026-04-12T09:10:16.001Z</time></trkpt><trkpt lat="45.666958101162315" lon="10.109435248608312"><ele>892.0000000000001</ele><time>2026-04-12T09:10:17.001Z</time></trkpt><trkpt lat="45.6669767297539" lon="10.109298839248542"><ele>893.0</ele><time>2026-04-12T09:10:18.001Z</time></trkpt><trkpt lat="45.666981101343325" lon="10.109140715172215"><ele>894.0</ele><time>2026-04-12T09:10:19.001Z</time></trkpt><trkpt lat="45.667006638393445" lon="10.109001163149625"><ele>891.0</ele><time>2026-04-12T09:10:20.001Z</time></trkpt><trkpt lat="45.667021812483895" lon="10.108847765062949"><ele>888.0000000000001</ele><time>2026-04-12T09:10:21.001Z</time></trkpt><trkpt lat="45.667053451495306" lon="10.108698477848359"><ele>885.0000000000001</ele><time>2026-04-12T09:10:22.001Z</time></trkpt><trkpt lat="45.66709857841919" lon="10.108564458115792"><ele>882.0</ele><time>2026-04-12T09:10:23.001Z</time></trkpt><trkpt lat="45.667143866627114" lon="10.108421921350825"><ele>879.0</ele><time>2026-04-12T09:10:24.001Z</time></trkpt><trkpt lat="45.6672183861584" lon="10.108304116658477"><ele>879.6</ele><time>2026-04-12T09:10:25.001Z</time></trkpt><trkpt lat="45.66729047052138" lon="10.108176291110743"><ele>880.2</ele><time>2026-04-12T09:10:26.001Z</time></trkpt><trkpt lat="45.667359513017146" lon="10.10806534796845"><ele>880.8000000000001</ele><time>2026-04-12T09:10:27.001Z</time></trkpt><trkpt lat="45.66742351308911" lon="10.107960137574247"><ele>881.4000000000001</ele><time>2026-04-12T09:10:28.001Z</time></trkpt><trkpt lat="45.66747032549476" lon="10.10785353488486"><ele>882.0</ele><time>2026-04-12T09:10:29Z</time></trkpt><trkpt lat="45.66748740491024" lon="10.10775286655251"><ele>882.0</ele><time>2026-04-12T09:10:30Z</time></trkpt><trkpt lat="45.66748331590886" lon="10.107654120948643"><ele>882.0</ele><time>2026-04-12T09:10:31Z</time></trkpt><trkpt lat="45.66746895200516" lon="10.10751566422134"><ele>882.0</ele><time>2026-04-12T09:10:33Z</time></trkpt><trkpt lat="45.66753194064743" lon="10.107428235007365"><ele>882.0</ele><time>2026-04-12T09:10:35Z</time></trkpt><trkpt lat="45.667599262424794" lon="10.10742335312519"><ele>882.0</ele><time>2026-04-12T09:10:36Z</time></trkpt><trkpt lat="45.66767307377135" lon="10.10738291185115"><ele>882.0</ele><time>2026-04-12T09:10:37Z</time></trkpt><trkpt lat="45.66775246928344" lon="10.107306974953056"><ele>881.0</ele><time>2026-04-12T09:10:38Z</time></trkpt><trkpt lat="45.66781815170926" lon="10.107222991640787"><ele>880.0</ele><time>2026-04-12T09:10:39Z</time></trkpt><trkpt lat="45.66790729893958" lon="10.107199284969644"><ele>879.0</ele><time>2026-04-12T09:10:40Z</time></trkpt><trkpt lat="45.66799902583169" lon="10.107220954961821"><ele>878.0</ele><time>2026-04-12T09:10:41Z</time></trkpt><trkpt lat="45.66808981877236" lon="10.107252577302688"><ele>877.0</ele><time>2026-04-12T09:10:42Z</time></trkpt><trkpt lat="45.668179716878655" lon="10.107258232015203"><ele>877.0</ele><time>2026-04-12T09:10:43Z</time></trkpt><trkpt lat="45.66826788190735" lon="10.107249025953218"><ele>877.0</ele><time>2026-04-12T09:10:44Z</time></trkpt><trkpt lat="45.66835717647913" lon="10.107236844972512"><ele>877.0</ele><time>2026-04-12T09:10:45Z</time></trkpt><trkpt lat="45.66844301265807" lon="10.10718352952882"><ele>877.0</ele><time>2026-04-12T09:10:46Z</time></trkpt><trkpt lat="45.6685280218853" lon="10.107145611731427"><ele>877.0</ele><time>2026-04-12T09:10:47Z</time></trkpt><trkpt lat="45.668612633190406" lon="10.107089633008348"><ele>874.6666666666666</ele><time>2026-04-12T09:10:48Z</time></trkpt><trkpt lat="45.66868492966367" lon="10.107034130029758"><ele>872.3333333333333</ele><time>2026-04-12T09:10:49Z</time></trkpt><trkpt lat="45.66875461276772" lon="10.106974678272984"><ele>870.0</ele><time>2026-04-12T09:10:50Z</time></trkpt><trkpt lat="45.66882325088323" lon="10.106917845650115"><ele>867.6666666666667</ele><time>2026-04-12T09:10:51Z</time></trkpt><trkpt lat="45.668892758431376" lon="10.106860184006056"><ele>865.3333333333334</ele><time>2026-04-12T09:10:52Z</time></trkpt><trkpt lat="45.66896272395415" lon="10.10682910346253"><ele>863.0</ele><time>2026-04-12T09:10:53Z</time></trkpt><trkpt lat="45.669037752222074" lon="10.106856353370215"><ele>863.0000000000001</ele><time>2026-04-12T09:10:54Z</time></trkpt><trkpt lat="45.669098702457674" lon="10.106919598132206"><ele>863.0</ele><time>2026-04-12T09:10:55Z</time></trkpt><trkpt lat="45.6691784268609" lon="10.10703126877524"><ele>863.0</ele><time>2026-04-12T09:10:57Z</time></trkpt><trkpt lat="45.669252267713944" lon="10.107049865873599"><ele>863.0</ele><time>2026-04-12T09:10:58Z</time></trkpt><trkpt lat="45.66933052658482" lon="10.10701408903738"><ele>863.0000000000001</ele><time>2026-04-12T09:10:59Z</time></trkpt><trkpt lat="45.669424131677886" lon="10.106982337525821"><ele>863.0</ele><time>2026-04-12T09:11:00Z</time></trkpt><trkpt lat="45.66950644256178" lon="10.106997864637554"><ele>861.3333333333334</ele><time>2026-04-12T09:11:01Z</time></trkpt><trkpt lat="45.66958121542984" lon="10.107042588950156"><ele>859.6666666666667</ele><time>2026-04-12T09:11:02Z</time></trkpt><trkpt lat="45.66963792016453" lon="10.107125644110834"><ele>858.0</ele><time>2026-04-12T09:11:03Z</time></trkpt><trkpt lat="45.669690508635455" lon="10.1072023603447"><ele>856.3333333333333</ele><time>2026-04-12T09:11:04Z</time></trkpt><trkpt lat="45.669737862710654" lon="10.107285693763286"><ele>854.6666666666666</ele><time>2026-04-12T09:11:05Z</time></trkpt><trkpt lat="45.669813562265176" lon="10.107346789441886"><ele>853.0</ele><time>2026-04-12T09:11:06Z</time></trkpt><trkpt lat="45.66989877625367" lon="10.10736064903224"><ele>853.0</ele><time>2026-04-12T09:11:07Z</time></trkpt><trkpt lat="45.669985465754046" lon="10.1073850072054"><ele>853.0</ele><time>2026-04-12T09:11:08Z</time></trkpt><trkpt lat="45.67007447285178" lon="10.107391840102109"><ele>853.0</ele><time>2026-04-12T09:11:09Z</time></trkpt><trkpt lat="45.67016872172816" lon="10.107407450914508"><ele>853.0</ele><time>2026-04-12T09:11:10Z</time></trkpt><trkpt lat="45.67026883594576" lon="10.107410340079515"><ele>853.0</ele><time>2026-04-12T09:11:11Z</time></trkpt><trkpt lat="45.67036019029963" lon="10.107412207512423"><ele>850.4999999999999</ele><time>2026-04-12T09:11:12Z</time></trkpt><trkpt lat="45.67044481522346" lon="10.107409595684508"><ele>848.0</ele><time>2026-04-12T09:11:13Z</time></trkpt><trkpt lat="45.67051871240956" lon="10.107407933975784"><ele>845.5</ele><time>2026-04-12T09:11:14Z</time></trkpt><trkpt lat="45.67059362356147" lon="10.10738302618698"><ele>843.0</ele><time>2026-04-12T09:11:15Z</time></trkpt><trkpt lat="45.67066639522583" lon="10.10732221268366"><ele>840.4999999999999</ele><time>2026-04-12T09:11:16Z</time></trkpt><trkpt lat="45.670737898383294" lon="10.107234233977227"><ele>838.0</ele><time>2026-04-12T09:11:17Z</time></trkpt><trkpt lat="45.670813403209024" lon="10.10713847603695"><ele>838.0</ele><time>2026-04-12T09:11:18Z</time></trkpt><trkpt lat="45.67089678525539" lon="10.107058581644612"><ele>838.0</ele><time>2026-04-12T09:11:19Z</time></trkpt><trkpt lat="45.67098931585538" lon="10.10699719636343"><ele>838.0</ele><time>2026-04-12T09:11:20Z</time></trkpt><trkpt lat="45.67107762956893" lon="10.106947535693124"><ele>838.0</ele><time>2026-04-12T09:11:21Z</time></trkpt><trkpt lat="45.671154749272915" lon="10.106915110055485"><ele>838.0</ele><time>2026-04-12T09:11:22Z</time></trkpt><trkpt lat="45.67123262975743" lon="10.106869611972604"><ele>834.4</ele><time>2026-04-12T09:11:23Z</time></trkpt><trkpt lat="45.671315755671095" lon="10.106809421287243"><ele>830.8</ele><time>2026-04-12T09:11:24Z</time></trkpt><trkpt lat="45.67139741615788" lon="10.106731854184487"><ele>827.2</ele><time>2026-04-12T09:11:25Z</time></trkpt><trkpt lat="45.671473598697624" lon="10.10663822791901"><ele>823.6</ele><time>2026-04-12T09:11:26Z</time></trkpt><trkpt lat="45.67153562064065" lon="10.10654426913865"><ele>820.0</ele><time>2026-04-12T09:11:27Z</time></trkpt><trkpt lat="45.671584544991035" lon="10.10645626110861"><ele>819.9999999999999</ele><time>2026-04-12T09:11:28Z</time></trkpt><trkpt lat="45.671617753654" lon="10.106358176579542"><ele>820.0</ele><time>2026-04-12T09:11:29Z</time></trkpt><trkpt lat="45.671622390195374" lon="10.106227213862846"><ele>820.0</ele><time>2026-04-12T09:11:30Z</time></trkpt><trkpt lat="45.671633775135334" lon="10.106106996354884"><ele>820.0</ele><time>2026-04-12T09:11:31Z</time></trkpt><trkpt lat="45.67165245912298" lon="10.105984369924347"><ele>819.9999999999999</ele><time>2026-04-12T09:11:32Z</time></trkpt><trkpt lat="45.6716881925205" lon="10.105845530861842"><ele>820.0</ele><time>2026-04-12T09:11:33Z</time></trkpt><trkpt lat="45.6717582157563" lon="10.105723444055794"><ele>820.8</ele><time>2026-04-12T09:11:34Z</time></trkpt><trkpt lat="45.6718177087869" lon="10.105596591132636"><ele>821.6</ele><time>2026-04-12T09:11:35Z</time></trkpt><trkpt lat="45.67187374220562" lon="10.105481504145418"><ele>822.4000000000001</ele><time>2026-04-12T09:11:36Z</time></trkpt><trkpt lat="45.67194019806132" lon="10.105360903753834"><ele>823.2</ele><time>2026-04-12T09:11:37Z</time></trkpt><trkpt lat="45.67200187750416" lon="10.105229568521766"><ele>824.0</ele><time>2026-04-12T09:11:38Z</time></trkpt><trkpt lat="45.67206339783243" lon="10.105097182003815"><ele>818.0</ele><time>2026-04-12T09:11:39Z</time></trkpt><trkpt lat="45.672145676124224" lon="10.104969421983755"><ele>812.0</ele><time>2026-04-12T09:11:40Z</time></trkpt><trkpt lat="45.67220313185447" lon="10.104828783165395"><ele>806.0</ele><time>2026-04-12T09:11:41Z</time></trkpt><trkpt lat="45.67225316215831" lon="10.104679698729864"><ele>800.0</ele><time>2026-04-12T09:11:42Z</time></trkpt><trkpt lat="45.67229018241482" lon="10.104536237635399"><ele>800.0</ele><time>2026-04-12T09:11:43Z</time></trkpt><trkpt lat="45.67234269666622" lon="10.104413897515506"><ele>800.0</ele><time>2026-04-12T09:11:44Z</time></trkpt><trkpt lat="45.67237302247469" lon="10.104305713766438"><ele>800.0</ele><time>2026-04-12T09:11:45Z</time></trkpt><trkpt lat="45.67240406970416" lon="10.104186416286986"><ele>800.0</ele><time>2026-04-12T09:11:46Z</time></trkpt><trkpt lat="45.67242049184911" lon="10.104062164064308"><ele>800.0</ele><time>2026-04-12T09:11:47Z</time></trkpt><trkpt lat="45.67241633555924" lon="10.103922196807165"><ele>799.8</ele><time>2026-04-12T09:11:48Z</time></trkpt><trkpt lat="45.67239891820559" lon="10.103798295249703"><ele>799.6</ele><time>2026-04-12T09:11:49Z</time></trkpt><trkpt lat="45.6724184211743" lon="10.103628632384428"><ele>799.4000000000001</ele><time>2026-04-12T09:11:51Z</time></trkpt><trkpt lat="45.67245697051662" lon="10.103504825693706"><ele>799.2</ele><time>2026-04-12T09:11:52Z</time></trkpt><trkpt lat="45.672502141498974" lon="10.103356722520966"><ele>799.0</ele><time>2026-04-12T09:11:53Z</time></trkpt><trkpt lat="45.67254732035139" lon="10.103215412128527"><ele>799.0</ele><time>2026-04-12T09:11:54Z</time></trkpt><trkpt lat="45.67258952435046" lon="10.103069759162679"><ele>799.0</ele><time>2026-04-12T09:11:55Z</time></trkpt><trkpt lat="45.67263993785644" lon="10.102930519128979"><ele>799.0</ele><time>2026-04-12T09:11:56Z</time></trkpt><trkpt lat="45.67268933112809" lon="10.102785349614846"><ele>799.0</ele><time>2026-04-12T09:11:57Z</time></trkpt><trkpt lat="45.67273272258364" lon="10.102638843852079"><ele>799.0</ele><time>2026-04-12T09:11:58Z</time></trkpt><trkpt lat="45.67275918691191" lon="10.102489994180807"><ele>793.6</ele><time>2026-04-12T09:11:59Z</time></trkpt><trkpt lat="45.67278864164873" lon="10.102331476230878"><ele>788.2</ele><time>2026-04-12T09:12:00Z</time></trkpt><trkpt lat="45.67282172585883" lon="10.102172282074177"><ele>782.8000000000001</ele><time>2026-04-12T09:12:01Z</time></trkpt><trkpt lat="45.67284326153252" lon="10.10201806765632"><ele>777.4000000000001</ele><time>2026-04-12T09:12:02Z</time></trkpt><trkpt lat="45.672868760795716" lon="10.101869288852008"><ele>772.0</ele><time>2026-04-12T09:12:03Z</time></trkpt><trkpt lat="45.67289090834875" lon="10.101734632560811"><ele>771.9999999999999</ele><time>2026-04-12T09:12:04Z</time></trkpt><trkpt lat="45.67291971101953" lon="10.101600988746199"><ele>772.0</ele><time>2026-04-12T09:12:05Z</time></trkpt><trkpt lat="45.67296954633556" lon="10.101481366365764"><ele>772.0</ele><time>2026-04-12T09:12:06Z</time></trkpt><trkpt lat="45.67301971991527" lon="10.101375722586935"><ele>772.0</ele><time>2026-04-12T09:12:07Z</time></trkpt><trkpt lat="45.67308623797078" lon="10.101300360667707"><ele>771.9999999999999</ele><time>2026-04-12T09:12:08.001Z</time></trkpt><trkpt lat="45.673140467985924" lon="10.101221880345545"><ele>772.0</ele><time>2026-04-12T09:12:09.001Z</time></trkpt><trkpt lat="45.67324739436553" lon="10.101158539122316"><ele>772.8333333333333</ele><time>2026-04-12T09:12:11.001Z</time></trkpt><trkpt lat="45.673310117858406" lon="10.10119620838873"><ele>773.6666666666666</ele><time>2026-04-12T09:12:12.001Z</time></trkpt><trkpt lat="45.67341286234085" lon="10.101176971452333"><ele>774.5</ele><time>2026-04-12T09:12:14.001Z</time></trkpt><trkpt lat="45.67344913578244" lon="10.101098733527762"><ele>775.3333333333333</ele><time>2026-04-12T09:12:15.001Z</time></trkpt><trkpt lat="45.673469486125015" lon="10.100984349563285"><ele>776.1666666666666</ele><time>2026-04-12T09:12:16.001Z</time></trkpt><trkpt lat="45.67348524269264" lon="10.100849575446503"><ele>777.0</ele><time>2026-04-12T09:12:17.001Z</time></trkpt><trkpt lat="45.67351058797196" lon="10.100717427705233"><ele>777.0</ele><time>2026-04-12T09:12:18.001Z</time></trkpt><trkpt lat="45.67354881115995" lon="10.100581632642728"><ele>777.0</ele><time>2026-04-12T09:12:19.001Z</time></trkpt><trkpt lat="45.67356920359866" lon="10.100454003449165"><ele>777.0</ele><time>2026-04-12T09:12:20.001Z</time></trkpt><trkpt lat="45.6735752630208" lon="10.100326999841636"><ele>777.0</ele><time>2026-04-12T09:12:21.001Z</time></trkpt><trkpt lat="45.67356146988855" lon="10.100189484249404"><ele>777.0</ele><time>2026-04-12T09:12:22.001Z</time></trkpt><trkpt lat="45.67356073659254" lon="10.100030174775394"><ele>776.1666666666666</ele><time>2026-04-12T09:12:23.001Z</time></trkpt><trkpt lat="45.67354908132107" lon="10.099884110246526"><ele>775.3333333333333</ele><time>2026-04-12T09:12:24.001Z</time></trkpt><trkpt lat="45.673538012204496" lon="10.099749614895648"><ele>774.5</ele><time>2026-04-12T09:12:25.001Z</time></trkpt><trkpt lat="45.67352758744698" lon="10.099622949748436"><ele>773.6666666666666</ele><time>2026-04-12T09:12:26.001Z</time></trkpt><trkpt lat="45.67352257698789" lon="10.099526726107635"><ele>772.8333333333333</ele><time>2026-04-12T09:12:27.001Z</time></trkpt><trkpt lat="45.67349703890809" lon="10.09940820701529"><ele>772.0</ele><time>2026-04-12T09:12:28.001Z</time></trkpt><trkpt lat="45.67348497343801" lon="10.09929770803217"><ele>771.9999999999999</ele><time>2026-04-12T09:12:29.001Z</time></trkpt><trkpt lat="45.67342572658445" lon="10.099218569100975"><ele>772.0</ele><time>2026-04-12T09:12:30.001Z</time></trkpt><trkpt lat="45.67339939674698" lon="10.099132875202377"><ele>772.0</ele><time>2026-04-12T09:12:31.001Z</time></trkpt><trkpt lat="45.67336159330715" lon="10.099041236652951"><ele>772.0</ele><time>2026-04-12T09:12:33.001Z</time></trkpt><trkpt lat="45.67346011818564" lon="10.099003359431284"><ele>771.9999999999999</ele><time>2026-04-12T09:12:35Z</time></trkpt><trkpt lat="45.67346392772238" lon="10.099111942083491"><ele>772.0</ele><time>2026-04-12T09:12:36Z</time></trkpt><trkpt lat="45.67350280084015" lon="10.099228467602414"><ele>772.0</ele><time>2026-04-12T09:12:37Z</time></trkpt><trkpt lat="45.67359017483235" lon="10.099355280815713"><ele>772.0</ele><time>2026-04-12T09:12:39Z</time></trkpt><trkpt lat="45.67361585034518" lon="10.099463484536363"><ele>772.0</ele><time>2026-04-12T09:12:40Z</time></trkpt><trkpt lat="45.673654731225845" lon="10.099573072722544"><ele>772.0</ele><time>2026-04-12T09:12:41Z</time></trkpt><trkpt lat="45.67369100436864" lon="10.099699731585336"><ele>772.0</ele><time>2026-04-12T09:12:42Z</time></trkpt><trkpt lat="45.67374012491589" lon="10.099823617728186"><ele>765.6</ele><time>2026-04-12T09:12:43Z</time></trkpt><trkpt lat="45.6738013933733" lon="10.099938699623646"><ele>759.2</ele><time>2026-04-12T09:12:44Z</time></trkpt><trkpt lat="45.673867619060644" lon="10.10006298747663"><ele>752.8</ele><time>2026-04-12T09:12:45Z</time></trkpt><trkpt lat="45.67391799136067" lon="10.100195516109796"><ele>746.4</ele><time>2026-04-12T09:12:46Z</time></trkpt><trkpt lat="45.673968467921725" lon="10.100325628509687"><ele>740.0</ele><time>2026-04-12T09:12:47Z</time></trkpt><trkpt lat="45.673988480091815" lon="10.100479518299526"><ele>740.0</ele><time>2026-04-12T09:12:48Z</time></trkpt><trkpt lat="45.674028645198625" lon="10.100627802083949"><ele>740.0</ele><time>2026-04-12T09:12:49Z</time></trkpt><trkpt lat="45.67407258089696" lon="10.100771956584927"><ele>740.0</ele><time>2026-04-12T09:12:50Z</time></trkpt><trkpt lat="45.67412055726801" lon="10.100917718437788"><ele>740.0</ele><time>2026-04-12T09:12:51Z</time></trkpt><trkpt lat="45.674163575275095" lon="10.101062317202548"><ele>740.0</ele><time>2026-04-12T09:12:52Z</time></trkpt><trkpt lat="45.674202190391284" lon="10.101216798535704"><ele>741.2</ele><time>2026-04-12T09:12:53Z</time></trkpt><trkpt lat="45.67423094961929" lon="10.101362916173269"><ele>742.4</ele><time>2026-04-12T09:12:54Z</time></trkpt><trkpt lat="45.67428389161829" lon="10.101501945550249"><ele>743.5999999999999</ele><time>2026-04-12T09:12:55Z</time></trkpt><trkpt lat="45.67432412635702" lon="10.101645793938584"><ele>744.8</ele><time>2026-04-12T09:12:56Z</time></trkpt><trkpt lat="45.67436952147617" lon="10.101784619266406"><ele>746.0</ele><time>2026-04-12T09:12:57Z</time></trkpt><trkpt lat="45.67442524925371" lon="10.101927435227905"><ele>739.4</ele><time>2026-04-12T09:12:58Z</time></trkpt><trkpt lat="45.674463280956545" lon="10.102079678340493"><ele>732.8</ele><time>2026-04-12T09:12:59Z</time></trkpt><trkpt lat="45.67449839953633" lon="10.102223294677131"><ele>726.1999999999999</ele><time>2026-04-12T09:13:00Z</time></trkpt><trkpt lat="45.674531460268895" lon="10.102374620491437"><ele>719.5999999999999</ele><time>2026-04-12T09:13:01Z</time></trkpt><trkpt lat="45.674561038500244" lon="10.102523460464104"><ele>713.0</ele><time>2026-04-12T09:13:02Z</time></trkpt><trkpt lat="45.67458796359502" lon="10.102666566071193"><ele>712.5</ele><time>2026-04-12T09:13:03Z</time></trkpt><trkpt lat="45.67461044494261" lon="10.102815608776885"><ele>712.0</ele><time>2026-04-12T09:13:04Z</time></trkpt><trkpt lat="45.67463337380819" lon="10.102969299773122"><ele>711.5</ele><time>2026-04-12T09:13:05Z</time></trkpt><trkpt lat="45.67465429685725" lon="10.103139940704432"><ele>711.0</ele><time>2026-04-12T09:13:06Z</time></trkpt><trkpt lat="45.67465932378063" lon="10.10331269445814"><ele>711.0</ele><time>2026-04-12T09:13:07Z</time></trkpt><trkpt lat="45.67467106631342" lon="10.103496622530065"><ele>711.0</ele><time>2026-04-12T09:13:08Z</time></trkpt><trkpt lat="45.674692926956894" lon="10.103677705884108"><ele>711.0</ele><time>2026-04-12T09:13:09Z</time></trkpt><trkpt lat="45.67471468923516" lon="10.103845348814762"><ele>711.0</ele><time>2026-04-12T09:13:10Z</time></trkpt><trkpt lat="45.67472222725322" lon="10.104028070476339"><ele>710.5999999999999</ele><time>2026-04-12T09:13:11Z</time></trkpt><trkpt lat="45.67476458593309" lon="10.104188928683183"><ele>710.2</ele><time>2026-04-12T09:13:12Z</time></trkpt><trkpt lat="45.67477833907671" lon="10.104331654234166"><ele>709.8</ele><time>2026-04-12T09:13:13Z</time></trkpt><trkpt lat="45.67479734191179" lon="10.104449809739735"><ele>709.4000000000001</ele><time>2026-04-12T09:13:14Z</time></trkpt><trkpt lat="45.67481374642644" lon="10.10456076403067"><ele>709.0</ele><time>2026-04-12T09:13:15Z</time></trkpt><trkpt lat="45.67481244529212" lon="10.104672204533074"><ele>709.0</ele><time>2026-04-12T09:13:16Z</time></trkpt><trkpt lat="45.67482116778964" lon="10.104785850865596"><ele>709.0</ele><time>2026-04-12T09:13:17Z</time></trkpt><trkpt lat="45.67482235853637" lon="10.1049070677144"><ele>709.0</ele><time>2026-04-12T09:13:18Z</time></trkpt><trkpt lat="45.67482390935043" lon="10.105040056049752"><ele>709.0</ele><time>2026-04-12T09:13:19Z</time></trkpt><trkpt lat="45.67482883102313" lon="10.105203408755381"><ele>709.0</ele><time>2026-04-12T09:13:20Z</time></trkpt><trkpt lat="45.674828509166026" lon="10.105374995259405"><ele>708.6</ele><time>2026-04-12T09:13:21Z</time></trkpt><trkpt lat="45.67482091763892" lon="10.10554895479471"><ele>708.2</ele><time>2026-04-12T09:13:22Z</time></trkpt><trkpt lat="45.67481921513353" lon="10.10571422053607"><ele>707.8000000000001</ele><time>2026-04-12T09:13:23Z</time></trkpt><trkpt lat="45.67480124742893" lon="10.105865289129817"><ele>707.4000000000001</ele><time>2026-04-12T09:13:24Z</time></trkpt><trkpt lat="45.67479264673714" lon="10.106007222308575"><ele>707.0</ele><time>2026-04-12T09:13:25Z</time></trkpt><trkpt lat="45.67478666386116" lon="10.106136812611254"><ele>706.2</ele><time>2026-04-12T09:13:26Z</time></trkpt><trkpt lat="45.674799019127576" lon="10.106266131366812"><ele>705.4000000000001</ele><time>2026-04-12T09:13:27Z</time></trkpt><trkpt lat="45.67476785983707" lon="10.106393918422409"><ele>704.5999999999999</ele><time>2026-04-12T09:13:28Z</time></trkpt><trkpt lat="45.67472558408082" lon="10.106515115677862"><ele>703.8</ele><time>2026-04-12T09:13:29Z</time></trkpt><trkpt lat="45.67468153598619" lon="10.10662702749618"><ele>703.0</ele><time>2026-04-12T09:13:30Z</time></trkpt><trkpt lat="45.67466048640903" lon="10.106773372602674"><ele>701.0</ele><time>2026-04-12T09:13:31Z</time></trkpt><trkpt lat="45.67464006221441" lon="10.106921033574432"><ele>699.0</ele><time>2026-04-12T09:13:32Z</time></trkpt><trkpt lat="45.674654075042916" lon="10.107066565384832"><ele>697.0</ele><time>2026-04-12T09:13:33Z</time></trkpt><trkpt lat="45.6746659941995" lon="10.10716808144756"><ele>695.0</ele><time>2026-04-12T09:13:34Z</time></trkpt><trkpt lat="45.67464637464096" lon="10.107341140748686"><ele>693.0</ele><time>2026-04-12T09:13:35Z</time></trkpt><trkpt lat="45.6746138050509" lon="10.107473666139967"><ele>690.4</ele><time>2026-04-12T09:13:36Z</time></trkpt><trkpt lat="45.67458152363145" lon="10.107599655652233"><ele>687.8</ele><time>2026-04-12T09:13:37Z</time></trkpt><trkpt lat="45.67454495048441" lon="10.107737712755021"><ele>685.2</ele><time>2026-04-12T09:13:38Z</time></trkpt><trkpt lat="45.674509730901185" lon="10.107871926264067"><ele>682.6</ele><time>2026-04-12T09:13:39Z</time></trkpt><trkpt lat="45.674483650668975" lon="10.108032420231565"><ele>680.0</ele><time>2026-04-12T09:13:40Z</time></trkpt><trkpt lat="45.67447402835628" lon="10.108181764818962"><ele>677.0</ele><time>2026-04-12T09:13:41Z</time></trkpt><trkpt lat="45.67446578135275" lon="10.108346942357155"><ele>674.0</ele><time>2026-04-12T09:13:42Z</time></trkpt><trkpt lat="45.67445329040976" lon="10.108514078352535"><ele>671.0</ele><time>2026-04-12T09:13:43Z</time></trkpt><trkpt lat="45.67443019943743" lon="10.108686103833218"><ele>668.0</ele><time>2026-04-12T09:13:44Z</time></trkpt><trkpt lat="45.674405309374315" lon="10.10886172766614"><ele>675.75</ele><time>2026-04-12T09:13:45Z</time></trkpt><trkpt lat="45.67438635415318" lon="10.109038129646267"><ele>683.5</ele><time>2026-04-12T09:13:46Z</time></trkpt><trkpt lat="45.6743869850824" lon="10.109213251716795"><ele>691.25</ele><time>2026-04-12T09:13:47Z</time></trkpt><trkpt lat="45.67436150167936" lon="10.109378404350764"><ele>699.0</ele><time>2026-04-12T09:13:48Z</time></trkpt><trkpt lat="45.67433890247217" lon="10.109527899242693"><ele>699.0</ele><time>2026-04-12T09:13:49Z</time></trkpt><trkpt lat="45.67432545110373" lon="10.109660842117828"><ele>699.0</ele><time>2026-04-12T09:13:50Z</time></trkpt><trkpt lat="45.674327242325184" lon="10.109808289295326"><ele>699.0</ele><time>2026-04-12T09:13:51Z</time></trkpt><trkpt lat="45.674323318846625" lon="10.109940547870067"><ele>699.0</ele><time>2026-04-12T09:13:52Z</time></trkpt><trkpt lat="45.674343594238486" lon="10.11007477220951"><ele>699.0</ele><time>2026-04-12T09:13:53.001Z</time></trkpt><trkpt lat="45.67437198531557" lon="10.110193709154874"><ele>697.8333333333334</ele><time>2026-04-12T09:13:54.001Z</time></trkpt><trkpt lat="45.6743937683568" lon="10.110294904121636"><ele>696.6666666666666</ele><time>2026-04-12T09:13:55.001Z</time></trkpt><trkpt lat="45.674433711018104" lon="10.110397240355184"><ele>695.5</ele><time>2026-04-12T09:13:56.001Z</time></trkpt><trkpt lat="45.67448797134693" lon="10.110472381780763"><ele>694.3333333333333</ele><time>2026-04-12T09:13:57.001Z</time></trkpt><trkpt lat="45.67457687181011" lon="10.110526613300866"><ele>693.1666666666666</ele><time>2026-04-12T09:13:58.001Z</time></trkpt><trkpt lat="45.67466869539181" lon="10.110610823694108"><ele>692.0</ele><time>2026-04-12T09:13:59.001Z</time></trkpt><trkpt lat="45.674765722271445" lon="10.110652687134417"><ele>686.4000000000001</ele><time>2026-04-12T09:14:00.001Z</time></trkpt><trkpt lat="45.67484447168849" lon="10.110695097279127"><ele>680.8000000000001</ele><time>2026-04-12T09:14:01.001Z</time></trkpt><trkpt lat="45.67490892578794" lon="10.11079321354086"><ele>675.2</ele><time>2026-04-12T09:14:02.001Z</time></trkpt><trkpt lat="45.674949177658014" lon="10.1109036614747"><ele>669.6</ele><time>2026-04-12T09:14:03.001Z</time></trkpt><trkpt lat="45.67495856030449" lon="10.111038281178407"><ele>664.0</ele><time>2026-04-12T09:14:04.001Z</time></trkpt><trkpt lat="45.674946657224105" lon="10.111181834477955"><ele>664.0</ele><time>2026-04-12T09:14:05.001Z</time></trkpt><trkpt lat="45.674936780310446" lon="10.111331842681118"><ele>664.0</ele><time>2026-04-12T09:14:06.001Z</time></trkpt><trkpt lat="45.674941976948936" lon="10.11149112305585"><ele>664.0</ele><time>2026-04-12T09:14:07.001Z</time></trkpt><trkpt lat="45.67497477493329" lon="10.111642189452716"><ele>664.0</ele><time>2026-04-12T09:14:08.001Z</time></trkpt><trkpt lat="45.67501437095403" lon="10.11178684739553"><ele>664.0</ele><time>2026-04-12T09:14:09.001Z</time></trkpt><trkpt lat="45.67505829809177" lon="10.11193118117016"><ele>665.0</ele><time>2026-04-12T09:14:10.001Z</time></trkpt><trkpt lat="45.67509737982969" lon="10.112072637341766"><ele>666.0</ele><time>2026-04-12T09:14:11.001Z</time></trkpt><trkpt lat="45.6751569538419" lon="10.112198203885104"><ele>667.0</ele><time>2026-04-12T09:14:12.001Z</time></trkpt><trkpt lat="45.67522966578671" lon="10.112312011672751"><ele>668.0</ele><time>2026-04-12T09:14:13.001Z</time></trkpt><trkpt lat="45.67530636970674" lon="10.112416130327462"><ele>669.0</ele><time>2026-04-12T09:14:14.001Z</time></trkpt><trkpt lat="45.67538734061058" lon="10.112520784179763"><ele>664.8000000000001</ele><time>2026-04-12T09:14:15.001Z</time></trkpt><trkpt lat="45.67545566746105" lon="10.112628383092437"><ele>660.6</ele><time>2026-04-12T09:14:16.001Z</time></trkpt><trkpt lat="45.67551869451193" lon="10.112744967970073"><ele>656.4</ele><time>2026-04-12T09:14:17.001Z</time></trkpt><trkpt lat="45.67557533192985" lon="10.11286792029985"><ele>652.2</ele><time>2026-04-12T09:14:18.001Z</time></trkpt><trkpt lat="45.6756349100141" lon="10.112992434929245"><ele>648.0</ele><time>2026-04-12T09:14:19.001Z</time></trkpt><trkpt lat="45.67569097189297" lon="10.113119068042515"><ele>649.0</ele><time>2026-04-12T09:14:20.001Z</time></trkpt><trkpt lat="45.67574904498329" lon="10.11324370503659"><ele>650.0</ele><time>2026-04-12T09:14:21.001Z</time></trkpt><trkpt lat="45.675804298231284" lon="10.113366950389839"><ele>651.0</ele><time>2026-04-12T09:14:22.001Z</time></trkpt><trkpt lat="45.67583322270469" lon="10.113496606051472"><ele>652.0</ele><time>2026-04-12T09:14:23.001Z</time></trkpt><trkpt lat="45.675849998272014" lon="10.113622630348768"><ele>653.0</ele><time>2026-04-12T09:14:24.001Z</time></trkpt><trkpt lat="45.67585328557065" lon="10.113757901336735"><ele>653.0</ele><time>2026-04-12T09:14:25.001Z</time></trkpt><trkpt lat="45.675835972388704" lon="10.113912814113728"><ele>653.0</ele><time>2026-04-12T09:14:26.001Z</time></trkpt><trkpt lat="45.67582359792381" lon="10.11409853563129"><ele>653.0</ele><time>2026-04-12T09:14:27.001Z</time></trkpt><trkpt lat="45.675812007150554" lon="10.114297092339559"><ele>653.0</ele><time>2026-04-12T09:14:28.001Z</time></trkpt><trkpt lat="45.67580965124193" lon="10.114521375960015"><ele>652.0</ele><time>2026-04-12T09:14:29.001Z</time></trkpt><trkpt lat="45.67581670498495" lon="10.114742813968098"><ele>651.0</ele><time>2026-04-12T09:14:30.001Z</time></trkpt><trkpt lat="45.67582772422089" lon="10.114951742362532"><ele>650.0</ele><time>2026-04-12T09:14:31.001Z</time></trkpt><trkpt lat="45.6758471178408" lon="10.115158372581547"><ele>649.0</ele><time>2026-04-12T09:14:32.001Z</time></trkpt><trkpt lat="45.675872960259646" lon="10.115356475283843"><ele>646.75</ele><time>2026-04-12T09:14:33.001Z</time></trkpt><trkpt lat="45.67590073351737" lon="10.115527492380012"><ele>644.5</ele><time>2026-04-12T09:14:34.001Z</time></trkpt><trkpt lat="45.67591182930411" lon="10.11570074104595"><ele>642.25</ele><time>2026-04-12T09:14:35.001Z</time></trkpt><trkpt lat="45.67594702071827" lon="10.115853637983074"><ele>640.0</ele><time>2026-04-12T09:14:36.001Z</time></trkpt><trkpt lat="45.67599396917371" lon="10.115987333794381"><ele>637.8</ele><time>2026-04-12T09:14:37.001Z</time></trkpt><trkpt lat="45.67602318039058" lon="10.1161368974834"><ele>635.6</ele><time>2026-04-12T09:14:38.001Z</time></trkpt><trkpt lat="45.676071226635415" lon="10.116263862651627"><ele>633.4</ele><time>2026-04-12T09:14:39.001Z</time></trkpt><trkpt lat="45.6760965316952" lon="10.116417439405154"><ele>631.2</ele><time>2026-04-12T09:14:40.001Z</time></trkpt><trkpt lat="45.676139066174244" lon="10.116565767054214"><ele>629.0</ele><time>2026-04-12T09:14:41Z</time></trkpt><trkpt lat="45.6761711767786" lon="10.116706393321442"><ele>628.2</ele><time>2026-04-12T09:14:42Z</time></trkpt><trkpt lat="45.67620333836572" lon="10.116837587879603"><ele>627.4</ele><time>2026-04-12T09:14:43Z</time></trkpt><trkpt lat="45.676231826977215" lon="10.116974775716825"><ele>626.6</ele><time>2026-04-12T09:14:44Z</time></trkpt><trkpt lat="45.67624762546762" lon="10.117111197705297"><ele>625.8</ele><time>2026-04-12T09:14:45Z</time></trkpt><trkpt lat="45.67624165254687" lon="10.117246327966807"><ele>625.0</ele><time>2026-04-12T09:14:46Z</time></trkpt><trkpt lat="45.67621404416015" lon="10.117379686487324"><ele>623.3333333333334</ele><time>2026-04-12T09:14:47Z</time></trkpt><trkpt lat="45.676195051852446" lon="10.117505773141694"><ele>621.6666666666667</ele><time>2026-04-12T09:14:48Z</time></trkpt><trkpt lat="45.67619681399997" lon="10.11763495462594"><ele>620.0</ele><time>2026-04-12T09:14:49Z</time></trkpt><trkpt lat="45.676203813805564" lon="10.117766002475625"><ele>618.3333333333334</ele><time>2026-04-12T09:14:50Z</time></trkpt><trkpt lat="45.67621546528635" lon="10.117889196682178"><ele>616.6666666666666</ele><time>2026-04-12T09:14:51Z</time></trkpt><trkpt lat="45.67621755174288" lon="10.117992130978573"><ele>615.0</ele><time>2026-04-12T09:14:52Z</time></trkpt><trkpt lat="45.67620570526251" lon="10.11809520983057"><ele>615.0</ele><time>2026-04-12T09:14:53Z</time></trkpt><trkpt lat="45.67622351223195" lon="10.118216279138323"><ele>615.0</ele><time>2026-04-12T09:14:54Z</time></trkpt><trkpt lat="45.676244418278316" lon="10.118351275665065"><ele>615.0</ele><time>2026-04-12T09:14:55Z</time></trkpt><trkpt lat="45.67625097387704" lon="10.118486347961598"><ele>615.0</ele><time>2026-04-12T09:14:56Z</time></trkpt><trkpt lat="45.676280907650636" lon="10.118642134556941"><ele>615.0</ele><time>2026-04-12T09:14:57Z</time></trkpt><trkpt lat="45.676321499190486" lon="10.118807798821441"><ele>614.25</ele><time>2026-04-12T09:14:58Z</time></trkpt><trkpt lat="45.67636280846632" lon="10.118965038728719"><ele>613.5</ele><time>2026-04-12T09:14:59Z</time></trkpt><trkpt lat="45.676411913678244" lon="10.119122505658819"><ele>612.75</ele><time>2026-04-12T09:15:00Z</time></trkpt><trkpt lat="45.67647894103741" lon="10.119271107406947"><ele>612.0</ele><time>2026-04-12T09:15:01Z</time></trkpt><trkpt lat="45.67655830408785" lon="10.119399506099406"><ele>611.8000000000001</ele><time>2026-04-12T09:15:02Z</time></trkpt><trkpt lat="45.67663732758798" lon="10.119513212866526"><ele>611.6</ele><time>2026-04-12T09:15:03Z</time></trkpt><trkpt lat="45.676715502098574" lon="10.119621214429682"><ele>611.4000000000001</ele><time>2026-04-12T09:15:04Z</time></trkpt><trkpt lat="45.676780851762096" lon="10.119726564180345"><ele>611.2</ele><time>2026-04-12T09:15:05Z</time></trkpt><trkpt lat="45.676836259461936" lon="10.119839388992794"><ele>611.0</ele><time>2026-04-12T09:15:06Z</time></trkpt><trkpt lat="45.676892788312266" lon="10.119954370765477"><ele>610.4</ele><time>2026-04-12T09:15:07Z</time></trkpt><trkpt lat="45.676952764218576" lon="10.120068045882192"><ele>609.8</ele><time>2026-04-12T09:15:08Z</time></trkpt><trkpt lat="45.67702016654412" lon="10.1201728641386"><ele>609.1999999999999</ele><time>2026-04-12T09:15:09Z</time></trkpt><trkpt lat="45.677104137533625" lon="10.120270484178494"><ele>608.6</ele><time>2026-04-12T09:15:10Z</time></trkpt><trkpt lat="45.677190477949715" lon="10.120361661480148"><ele>608.0</ele><time>2026-04-12T09:15:11Z</time></trkpt><trkpt lat="45.67727239032353" lon="10.120455200736712"><ele>608.0</ele><time>2026-04-12T09:15:12Z</time></trkpt><trkpt lat="45.67734601790581" lon="10.120555255374663"><ele>608.0</ele><time>2026-04-12T09:15:13Z</time></trkpt><trkpt lat="45.67741327017496" lon="10.120664077217558"><ele>608.0</ele><time>2026-04-12T09:15:14Z</time></trkpt><trkpt lat="45.6774725885534" lon="10.120786534059224"><ele>608.0</ele><time>2026-04-12T09:15:15Z</time></trkpt><trkpt lat="45.67753444878546" lon="10.12089806201191"><ele>608.0</ele><time>2026-04-12T09:15:16Z</time></trkpt><trkpt lat="45.67759018463715" lon="10.121009844060355"><ele>608.4</ele><time>2026-04-12T09:15:17Z</time></trkpt><trkpt lat="45.677641499698304" lon="10.121118838758468"><ele>608.8</ele><time>2026-04-12T09:15:18Z</time></trkpt><trkpt lat="45.67769388813978" lon="10.12122527292739"><ele>609.2</ele><time>2026-04-12T09:15:19Z</time></trkpt><trkpt lat="45.6777622828514" lon="10.121332378787926"><ele>609.6</ele><time>2026-04-12T09:15:20Z</time></trkpt><trkpt lat="45.677853582708906" lon="10.121434563508531"><ele>610.0</ele><time>2026-04-12T09:15:21Z</time></trkpt><trkpt lat="45.677958976787416" lon="10.121516432490026"><ele>611.5</ele><time>2026-04-12T09:15:22Z</time></trkpt><trkpt lat="45.678087309815986" lon="10.12161009027372"><ele>613.0</ele><time>2026-04-12T09:15:23Z</time></trkpt><trkpt lat="45.67822403298854" lon="10.121711156663434"><ele>614.5</ele><time>2026-04-12T09:15:24Z</time></trkpt><trkpt lat="45.67834948735412" lon="10.121808181225692"><ele>616.0</ele><time>2026-04-12T09:15:25Z</time></trkpt><trkpt lat="45.67846334727242" lon="10.121888357423881"><ele>616.0</ele><time>2026-04-12T09:15:26Z</time></trkpt><trkpt lat="45.67856866434132" lon="10.121967731888095"><ele>616.0</ele><time>2026-04-12T09:15:27Z</time></trkpt><trkpt lat="45.67867617805946" lon="10.122061295491877"><ele>616.0</ele><time>2026-04-12T09:15:28Z</time></trkpt><trkpt lat="45.67878375194183" lon="10.122153040970739"><ele>616.0</ele><time>2026-04-12T09:15:29Z</time></trkpt><trkpt lat="45.6788752002838" lon="10.122254884474195"><ele>616.2</ele><time>2026-04-12T09:15:30Z</time></trkpt><trkpt lat="45.6789577679209" lon="10.122347536657525"><ele>616.4000000000001</ele><time>2026-04-12T09:15:31Z</time></trkpt><trkpt lat="45.67904472506043" lon="10.122439802150186"><ele>616.6</ele><time>2026-04-12T09:15:32Z</time></trkpt><trkpt lat="45.679120795819756" lon="10.122546519058659"><ele>616.8000000000001</ele><time>2026-04-12T09:15:33Z</time></trkpt><trkpt lat="45.679158791405" lon="10.1226668931659"><ele>617.0</ele><time>2026-04-12T09:15:34Z</time></trkpt><trkpt lat="45.679176429462835" lon="10.122836163759974"><ele>614.75</ele><time>2026-04-12T09:15:35Z</time></trkpt><trkpt lat="45.67919044615194" lon="10.123005327631416"><ele>612.5</ele><time>2026-04-12T09:15:36Z</time></trkpt><trkpt lat="45.67924770260894" lon="10.12316357462325"><ele>610.25</ele><time>2026-04-12T09:15:37Z</time></trkpt><trkpt lat="45.67933596856419" lon="10.123289974937393"><ele>608.0</ele><time>2026-04-12T09:15:38Z</time></trkpt><trkpt lat="45.67940595196349" lon="10.12342174447835"><ele>607.0</ele><time>2026-04-12T09:15:39Z</time></trkpt><trkpt lat="45.679476150195825" lon="10.123543792521783"><ele>606.0</ele><time>2026-04-12T09:15:40Z</time></trkpt><trkpt lat="45.67953711986926" lon="10.123652645786569"><ele>605.0</ele><time>2026-04-12T09:15:41Z</time></trkpt><trkpt lat="45.679590041920356" lon="10.123757043764737"><ele>604.0</ele><time>2026-04-12T09:15:42Z</time></trkpt><trkpt lat="45.679648563362306" lon="10.123850702039292"><ele>603.0</ele><time>2026-04-12T09:15:43Z</time></trkpt><trkpt lat="45.67971855588985" lon="10.123925271761221"><ele>603.0</ele><time>2026-04-12T09:15:44Z</time></trkpt><trkpt lat="45.679800890686764" lon="10.123966386447261"><ele>603.0</ele><time>2026-04-12T09:15:45Z</time></trkpt><trkpt lat="45.67989139686511" lon="10.123959163925127"><ele>603.0</ele><time>2026-04-12T09:15:46Z</time></trkpt><trkpt lat="45.680003397489784" lon="10.123931021214498"><ele>603.0</ele><time>2026-04-12T09:15:47Z</time></trkpt><trkpt lat="45.68013101343353" lon="10.123890270485383"><ele>603.0</ele><time>2026-04-12T09:15:48Z</time></trkpt><trkpt lat="45.680265965658194" lon="10.123861836116161"><ele>602.5</ele><time>2026-04-12T09:15:49Z</time></trkpt><trkpt lat="45.680388737303986" lon="10.123849700402513"><ele>602.0</ele><time>2026-04-12T09:15:50Z</time></trkpt><trkpt lat="45.68050745327462" lon="10.123856037371976"><ele>601.5</ele><time>2026-04-12T09:15:51Z</time></trkpt><trkpt lat="45.68062199398801" lon="10.123873166796514"><ele>601.0</ele><time>2026-04-12T09:15:52Z</time></trkpt><trkpt lat="45.680734785461546" lon="10.123902668618564"><ele>601.0</ele><time>2026-04-12T09:15:53Z</time></trkpt><trkpt lat="45.68083875334142" lon="10.123929795323836"><ele>601.0</ele><time>2026-04-12T09:15:54Z</time></trkpt><trkpt lat="45.68092643785192" lon="10.123963888509294"><ele>601.0</ele><time>2026-04-12T09:15:55Z</time></trkpt><trkpt lat="45.68100404829397" lon="10.12400454480525"><ele>601.0</ele><time>2026-04-12T09:15:56Z</time></trkpt><trkpt lat="45.68107891332205" lon="10.124067315132404"><ele>601.0</ele><time>2026-04-12T09:15:57Z</time></trkpt><trkpt lat="45.68115456292808" lon="10.124128476917488"><ele>602.8</ele><time>2026-04-12T09:15:58Z</time></trkpt><trkpt lat="45.68124545796762" lon="10.124132816092095"><ele>604.6</ele><time>2026-04-12T09:15:59Z</time></trkpt><trkpt lat="45.681333924339974" lon="10.124090782917413"><ele>606.4</ele><time>2026-04-12T09:16:00Z</time></trkpt><trkpt lat="45.68141875145725" lon="10.12404262201373"><ele>608.2</ele><time>2026-04-12T09:16:01Z</time></trkpt><trkpt lat="45.68151893449429" lon="10.124024501031332"><ele>610.0</ele><time>2026-04-12T09:16:02Z</time></trkpt><trkpt lat="45.681628270151485" lon="10.123997657150205"><ele>607.5</ele><time>2026-04-12T09:16:03Z</time></trkpt><trkpt lat="45.681746854770466" lon="10.123955974057587"><ele>605.0</ele><time>2026-04-12T09:16:04Z</time></trkpt><trkpt lat="45.68187396343279" lon="10.12397996242876"><ele>602.5</ele><time>2026-04-12T09:16:05Z</time></trkpt><trkpt lat="45.68200108047169" lon="10.123996042723642"><ele>600.0</ele><time>2026-04-12T09:16:06Z</time></trkpt><trkpt lat="45.68212333743397" lon="10.12398728752696"><ele>600.0</ele><time>2026-04-12T09:16:07Z</time></trkpt><trkpt lat="45.68223627119096" lon="10.123996295194495"><ele>600.0</ele><time>2026-04-12T09:16:08Z</time></trkpt><trkpt lat="45.68234867568986" lon="10.124028343163285"><ele>600.0</ele><time>2026-04-12T09:16:09Z</time></trkpt><trkpt lat="45.682451811268784" lon="10.124039373853558"><ele>600.0</ele><time>2026-04-12T09:16:10Z</time></trkpt><trkpt lat="45.68252874703922" lon="10.124076280455984"><ele>600.0</ele><time>2026-04-12T09:16:11Z</time></trkpt><trkpt lat="45.68258995023565" lon="10.124103477798135"><ele>600.0</ele><time>2026-04-12T09:16:12Z</time></trkpt><trkpt lat="45.682706092233566" lon="10.124091626095435"><ele>600.0</ele><time>2026-04-12T09:16:14Z</time></trkpt><trkpt lat="45.68273994334786" lon="10.123981377816346"><ele>600.0</ele><time>2026-04-12T09:16:15Z</time></trkpt><trkpt lat="45.682726635442336" lon="10.123860511415758"><ele>600.0</ele><time>2026-04-12T09:16:16Z</time></trkpt><trkpt lat="45.68273163926907" lon="10.1237479037077"><ele>600.0</ele><time>2026-04-12T09:16:17Z</time></trkpt><trkpt lat="45.68274853504288" lon="10.123626167537074"><ele>601.8</ele><time>2026-04-12T09:16:18Z</time></trkpt><trkpt lat="45.68279871604187" lon="10.123522757383661"><ele>603.6</ele><time>2026-04-12T09:16:19Z</time></trkpt><trkpt lat="45.682821591745665" lon="10.123403090868907"><ele>605.4</ele><time>2026-04-12T09:16:21Z</time></trkpt><trkpt lat="45.68287758517363" lon="10.123309987866097"><ele>607.2</ele><time>2026-04-12T09:16:23Z</time></trkpt><trkpt lat="45.68295551178366" lon="10.123244532465383"><ele>609.0</ele><time>2026-04-12T09:16:25Z</time></trkpt><trkpt lat="45.68307531326886" lon="10.123218829411506"><ele>609.0</ele><time>2026-04-12T09:16:27Z</time></trkpt><trkpt lat="45.683165097388766" lon="10.12320226772565"><ele>609.0</ele><time>2026-04-12T09:16:28Z</time></trkpt><trkpt lat="45.68325845164743" lon="10.123193413821129"><ele>609.0</ele><time>2026-04-12T09:16:29Z</time></trkpt><trkpt lat="45.68334484924912" lon="10.12319540112453"><ele>609.0</ele><time>2026-04-12T09:16:30Z</time></trkpt><trkpt lat="45.68342264294227" lon="10.12321467023062"><ele>609.0</ele><time>2026-04-12T09:16:31Z</time></trkpt><trkpt lat="45.68349776835851" lon="10.12323515899572"><ele>609.0</ele><time>2026-04-12T09:16:32Z</time></trkpt><trkpt lat="45.68358147825695" lon="10.123246942026384"><ele>607.2</ele><time>2026-04-12T09:16:33Z</time></trkpt><trkpt lat="45.683682679781235" lon="10.123265321230157"><ele>605.4</ele><time>2026-04-12T09:16:34Z</time></trkpt><trkpt lat="45.68379599863689" lon="10.123248557595483"><ele>603.6</ele><time>2026-04-12T09:16:35Z</time></trkpt><trkpt lat="45.68390897493151" lon="10.12323450984684"><ele>601.8</ele><time>2026-04-12T09:16:36Z</time></trkpt><trkpt lat="45.68402749962386" lon="10.123233164534046"><ele>600.0</ele><time>2026-04-12T09:16:37Z</time></trkpt><trkpt lat="45.68413975356684" lon="10.123214138411257"><ele>596.3333333333334</ele><time>2026-04-12T09:16:38Z</time></trkpt><trkpt lat="45.68424599805517" lon="10.123202539330727"><ele>592.6666666666666</ele><time>2026-04-12T09:16:39Z</time></trkpt><trkpt lat="45.68433787998793" lon="10.123187766864017"><ele>589.0</ele><time>2026-04-12T09:16:40Z</time></trkpt><trkpt lat="45.68440527798418" lon="10.12314283011945"><ele>585.3333333333333</ele><time>2026-04-12T09:16:41Z</time></trkpt><trkpt lat="45.684475330683945" lon="10.123094629693966"><ele>581.6666666666666</ele><time>2026-04-12T09:16:42Z</time></trkpt><trkpt lat="45.68452974948909" lon="10.123002817002444"><ele>578.0</ele><time>2026-04-12T09:16:43Z</time></trkpt><trkpt lat="45.68456290567568" lon="10.122892640392614"><ele>577.1999999999999</ele><time>2026-04-12T09:16:44Z</time></trkpt><trkpt lat="45.684604425664155" lon="10.122789764307301"><ele>576.4</ele><time>2026-04-12T09:16:45Z</time></trkpt><trkpt lat="45.68467131947908" lon="10.122722885720345"><ele>575.5999999999999</ele><time>2026-04-12T09:16:46Z</time></trkpt><trkpt lat="45.684767693155315" lon="10.12269047310384"><ele>574.8</ele><time>2026-04-12T09:16:47Z</time></trkpt><trkpt lat="45.684879540397766" lon="10.122666085690339"><ele>574.0</ele><time>2026-04-12T09:16:48Z</time></trkpt><trkpt lat="45.68500060807923" lon="10.122651061684493"><ele>574.0</ele><time>2026-04-12T09:16:49Z</time></trkpt><trkpt lat="45.68512633242774" lon="10.122653895641609"><ele>574.0</ele><time>2026-04-12T09:16:50Z</time></trkpt><trkpt lat="45.685246966145996" lon="10.12265662159232"><ele>574.0</ele><time>2026-04-12T09:16:51Z</time></trkpt><trkpt lat="45.68536084372274" lon="10.122646509814775"><ele>574.0</ele><time>2026-04-12T09:16:52Z</time></trkpt><trkpt lat="45.68546943749442" lon="10.122636520027468"><ele>573.75</ele><time>2026-04-12T09:16:53Z</time></trkpt><trkpt lat="45.685576132856745" lon="10.12261070894887"><ele>573.5</ele><time>2026-04-12T09:16:54Z</time></trkpt><trkpt lat="45.68568516024587" lon="10.122565608084924"><ele>573.25</ele><time>2026-04-12T09:16:55Z</time></trkpt><trkpt lat="45.68580202828007" lon="10.122506797445396"><ele>573.0</ele><time>2026-04-12T09:16:56Z</time></trkpt><trkpt lat="45.68592151273082" lon="10.122437045313566"><ele>568.5</ele><time>2026-04-12T09:16:57Z</time></trkpt><trkpt lat="45.68604866675447" lon="10.122356452015355"><ele>564.0</ele><time>2026-04-12T09:16:58Z</time></trkpt><trkpt lat="45.6861611857595" lon="10.12226719547207"><ele>559.5</ele><time>2026-04-12T09:16:59Z</time></trkpt><trkpt lat="45.68626126688896" lon="10.12217526070275"><ele>555.0</ele><time>2026-04-12T09:17:00Z</time></trkpt><trkpt lat="45.68635168960836" lon="10.122115946379354"><ele>555.0</ele><time>2026-04-12T09:17:01Z</time></trkpt><trkpt lat="45.68643917148652" lon="10.122046920720534"><ele>555.0</ele><time>2026-04-12T09:17:02Z</time></trkpt><trkpt lat="45.68651893207466" lon="10.121973499393482"><ele>555.0</ele><time>2026-04-12T09:17:03Z</time></trkpt><trkpt lat="45.68658388350924" lon="10.121885238798733"><ele>555.0</ele><time>2026-04-12T09:17:04Z</time></trkpt><trkpt lat="45.686637632647354" lon="10.121778750480122"><ele>555.0</ele><time>2026-04-12T09:17:05Z</time></trkpt><trkpt lat="45.68667507211942" lon="10.121650021353032"><ele>552.5</ele><time>2026-04-12T09:17:06Z</time></trkpt><trkpt lat="45.68671835599574" lon="10.121526575530025"><ele>550.0</ele><time>2026-04-12T09:17:07Z</time></trkpt><trkpt lat="45.68676860479545" lon="10.12143113994933"><ele>547.5</ele><time>2026-04-12T09:17:08Z</time></trkpt><trkpt lat="45.68682174084281" lon="10.121361370294208"><ele>545.0</ele><time>2026-04-12T09:17:09Z</time></trkpt><trkpt lat="45.686879859420216" lon="10.121299870742998"><ele>542.5</ele><time>2026-04-12T09:17:10Z</time></trkpt><trkpt lat="45.68695539844943" lon="10.121257514038652"><ele>540.0</ele><time>2026-04-12T09:17:11Z</time></trkpt><trkpt lat="45.6870460187153" lon="10.121281214438307"><ele>539.0</ele><time>2026-04-12T09:17:12Z</time></trkpt><trkpt lat="45.68712041572078" lon="10.12132693692432"><ele>538.0</ele><time>2026-04-12T09:17:13Z</time></trkpt><trkpt lat="45.68719908727085" lon="10.121353405635851"><ele>537.0</ele><time>2026-04-12T09:17:14Z</time></trkpt><trkpt lat="45.687285355285525" lon="10.121364011979392"><ele>536.0</ele><time>2026-04-12T09:17:15Z</time></trkpt><trkpt lat="45.68738018042125" lon="10.121328402508142"><ele>535.0</ele><time>2026-04-12T09:17:16Z</time></trkpt><trkpt lat="45.68747584042644" lon="10.12128939017622"><ele>534.0</ele><time>2026-04-12T09:17:17Z</time></trkpt><trkpt lat="45.68757166233181" lon="10.12121910465083"><ele>534.0</ele><time>2026-04-12T09:17:18Z</time></trkpt><trkpt lat="45.6876757274197" lon="10.121158204255286"><ele>534.0</ele><time>2026-04-12T09:17:19Z</time></trkpt><trkpt lat="45.68777712502878" lon="10.121121198680608"><ele>534.0</ele><time>2026-04-12T09:17:20Z</time></trkpt><trkpt lat="45.68786003628072" lon="10.121120684225964"><ele>534.0</ele><time>2026-04-12T09:17:21Z</time></trkpt><trkpt lat="45.68793680922609" lon="10.121087697657035"><ele>534.0</ele><time>2026-04-12T09:17:22Z</time></trkpt><trkpt lat="45.68801803214241" lon="10.121095940666418"><ele>534.0</ele><time>2026-04-12T09:17:23Z</time></trkpt><trkpt lat="45.68809478736132" lon="10.12112989091706"><ele>534.0</ele><time>2026-04-12T09:17:24Z</time></trkpt><trkpt lat="45.68815640298123" lon="10.121167821177607"><ele>534.0</ele><time>2026-04-12T09:17:25Z</time></trkpt><trkpt lat="45.688225734393434" lon="10.121187755819632"><ele>534.0</ele><time>2026-04-12T09:17:26Z</time></trkpt><trkpt lat="45.688304151964765" lon="10.121186778222327"><ele>534.0</ele><time>2026-04-12T09:17:27Z</time></trkpt><trkpt lat="45.68836241862556" lon="10.121069690370067"><ele>534.0</ele><time>2026-04-12T09:17:28Z</time></trkpt><trkpt lat="45.68842365649997" lon="10.120931602363363"><ele>534.0</ele><time>2026-04-12T09:17:29Z</time></trkpt><trkpt lat="45.688495801566646" lon="10.120825032982252"><ele>534.0</ele><time>2026-04-12T09:17:30Z</time></trkpt><trkpt lat="45.68855936439107" lon="10.120749018232138"><ele>534.0</ele><time>2026-04-12T09:17:31Z</time></trkpt><trkpt lat="45.68863820249955" lon="10.120698741872188"><ele>534.0</ele><time>2026-04-12T09:17:32Z</time></trkpt><trkpt lat="45.68873410896461" lon="10.1206270383193"><ele>534.0</ele><time>2026-04-12T09:17:33Z</time></trkpt><trkpt lat="45.688828508656655" lon="10.120552034229373"><ele>531.2</ele><time>2026-04-12T09:17:34Z</time></trkpt><trkpt lat="45.68891493808075" lon="10.120485826099962"><ele>528.4</ele><time>2026-04-12T09:17:35Z</time></trkpt><trkpt lat="45.68898411076348" lon="10.120441329267502"><ele>525.6</ele><time>2026-04-12T09:17:36Z</time></trkpt><trkpt lat="45.689065823148184" lon="10.120422612669412"><ele>522.8</ele><time>2026-04-12T09:17:37Z</time></trkpt><trkpt lat="45.6891741321371" lon="10.120422716630511"><ele>520.0</ele><time>2026-04-12T09:17:38Z</time></trkpt><trkpt lat="45.68928058450433" lon="10.120435904349021"><ele>520.0</ele><time>2026-04-12T09:17:39Z</time></trkpt><trkpt lat="45.68939654681342" lon="10.120426407941425"><ele>520.0</ele><time>2026-04-12T09:17:40Z</time></trkpt><trkpt lat="45.689514947693375" lon="10.120426571039532"><ele>520.0</ele><time>2026-04-12T09:17:41Z</time></trkpt><trkpt lat="45.689624405583785" lon="10.120417176897872"><ele>520.0</ele><time>2026-04-12T09:17:42Z</time></trkpt><trkpt lat="45.68972746328192" lon="10.120398482311025"><ele>520.0</ele><time>2026-04-12T09:17:43Z</time></trkpt><trkpt lat="45.68981616023163" lon="10.120338511589164"><ele>519.4</ele><time>2026-04-12T09:17:44Z</time></trkpt><trkpt lat="45.68989084885177" lon="10.120262058246489"><ele>518.8</ele><time>2026-04-12T09:17:45Z</time></trkpt><trkpt lat="45.689944007963575" lon="10.120184557704881"><ele>518.2</ele><time>2026-04-12T09:17:46Z</time></trkpt><trkpt lat="45.69003184562301" lon="10.120069423256902"><ele>517.6</ele><time>2026-04-12T09:17:48Z</time></trkpt><trkpt lat="45.69014388803032" lon="10.120006405192312"><ele>517.0</ele><time>2026-04-12T09:17:50Z</time></trkpt><trkpt lat="45.690256014652846" lon="10.120029294142453"><ele>516.6</ele><time>2026-04-12T09:17:52Z</time></trkpt><trkpt lat="45.69033009610559" lon="10.119996031397406"><ele>516.2</ele><time>2026-04-12T09:17:55Z</time></trkpt><trkpt lat="45.690323285805924" lon="10.119892759247124"><ele>515.8</ele><time>2026-04-12T09:17:59Z</time></trkpt><trkpt lat="45.69030033476785" lon="10.11980343572643"><ele>515.4</ele><time>2026-04-12T09:18:09Z</time></trkpt><trkpt lat="45.69018518859037" lon="10.11975379370949"><ele>515.0</ele><time>2026-04-12T09:18:18Z</time></trkpt><trkpt lat="45.69007437450464" lon="10.119695564756015"><ele>511.49999999999994</ele><time>2026-04-12T09:18:20Z</time></trkpt><trkpt lat="45.6899892526118" lon="10.119649484978073"><ele>508.0</ele><time>2026-04-12T09:18:22Z</time></trkpt><trkpt lat="45.6899167135518" lon="10.119608555993972"><ele>504.5</ele><time>2026-04-12T09:18:25Z</time></trkpt><trkpt lat="45.689873966639496" lon="10.119542020545229"><ele>501.0</ele><time>2026-04-12T09:18:29Z</time></trkpt><trkpt lat="45.68993338658785" lon="10.119593124933939"><ele>497.49999999999994</ele><time>2026-04-12T09:19:45Z</time></trkpt><trkpt lat="45.69003016579946" lon="10.119516667901246"><ele>494.0</ele><time>2026-04-12T09:19:46Z</time></trkpt><trkpt lat="45.69009311888421" lon="10.119477584157492"><ele>494.0</ele><time>2026-04-12T09:19:47Z</time></trkpt><trkpt lat="45.69016395303811" lon="10.119460437970641"><ele>494.0</ele><time>2026-04-12T09:19:48Z</time></trkpt><trkpt lat="45.69024262944944" lon="10.119451688516506"><ele>494.0</ele><time>2026-04-12T09:19:49Z</time></trkpt><trkpt lat="45.69031807345821" lon="10.11942677170561"><ele>494.0</ele><time>2026-04-12T09:19:50Z</time></trkpt><trkpt lat="45.69038880535637" lon="10.119403545362761"><ele>494.0</ele><time>2026-04-12T09:19:51Z</time></trkpt><trkpt lat="45.690460538617884" lon="10.119403976627082"><ele>494.0</ele><time>2026-04-12T09:19:52Z</time></trkpt><trkpt lat="45.69053094695702" lon="10.11937157656369"><ele>494.0</ele><time>2026-04-12T09:19:53Z</time></trkpt><trkpt lat="45.690604073369" lon="10.11933617902572"><ele>493.3333333333333</ele><time>2026-04-12T09:19:54Z</time></trkpt><trkpt lat="45.690677373937234" lon="10.119298669060122"><ele>492.66666666666663</ele><time>2026-04-12T09:19:55Z</time></trkpt><trkpt lat="45.690743925059174" lon="10.119243243175141"><ele>492.0</ele><time>2026-04-12T09:19:56Z</time></trkpt><trkpt lat="45.690807274668025" lon="10.119198367486737"><ele>491.33333333333337</ele><time>2026-04-12T09:19:57Z</time></trkpt><trkpt lat="45.690866475145306" lon="10.119156949752433"><ele>490.6666666666667</ele><time>2026-04-12T09:19:58Z</time></trkpt><trkpt lat="45.690976530500265" lon="10.119112022487613"><ele>490.0</ele><time>2026-04-12T09:20:00Z</time></trkpt><trkpt lat="45.69104315348434" lon="10.119097936016342"><ele>489.57142857142856</ele><time>2026-04-12T09:20:01Z</time></trkpt><trkpt lat="45.69111168349918" lon="10.11908134491688"><ele>489.1428571428571</ele><time>2026-04-12T09:20:02Z</time></trkpt><trkpt lat="45.6911811289356" lon="10.119051119417643"><ele>488.7142857142857</ele><time>2026-04-12T09:20:03Z</time></trkpt><trkpt lat="45.691257970336814" lon="10.11904102148624"><ele>488.2857142857143</ele><time>2026-04-12T09:20:04Z</time></trkpt><trkpt lat="45.69132676935617" lon="10.119005674815892"><ele>487.85714285714283</ele><time>2026-04-12T09:20:05Z</time></trkpt><trkpt lat="45.691395803855656" lon="10.118954856645438"><ele>487.42857142857144</ele><time>2026-04-12T09:20:06Z</time></trkpt><trkpt lat="45.691465520476335" lon="10.118937439712017"><ele>487.0</ele><time>2026-04-12T09:20:07Z</time></trkpt><trkpt lat="45.69154226741666" lon="10.11891939678935"><ele>483.6666666666667</ele><time>2026-04-12T09:20:08Z</time></trkpt><trkpt lat="45.69161846228877" lon="10.118910227157107"><ele>480.33333333333337</ele><time>2026-04-12T09:20:09Z</time></trkpt><trkpt lat="45.691700320114116" lon="10.118923798712986"><ele>477.0</ele><time>2026-04-12T09:20:10Z</time></trkpt><trkpt lat="45.691774717696994" lon="10.118909795290476"><ele>473.66666666666663</ele><time>2026-04-12T09:20:11Z</time></trkpt><trkpt lat="45.69184605711444" lon="10.118869851482119"><ele>470.3333333333333</ele><time>2026-04-12T09:20:12Z</time></trkpt><trkpt lat="45.691912295806276" lon="10.1187988404472"><ele>467.0</ele><time>2026-04-12T09:20:13Z</time></trkpt><trkpt lat="45.69197422703192" lon="10.118722797774947"><ele>466.8</ele><time>2026-04-12T09:20:14Z</time></trkpt><trkpt lat="45.692022627589886" lon="10.118620647602675"><ele>466.6</ele><time>2026-04-12T09:20:15Z</time></trkpt><trkpt lat="45.6920729587786" lon="10.11854615719656"><ele>466.40000000000003</ele><time>2026-04-12T09:20:16Z</time></trkpt><trkpt lat="45.69214404787438" lon="10.11843168418504"><ele>466.20000000000005</ele><time>2026-04-12T09:20:18Z</time></trkpt><trkpt lat="45.692192847860966" lon="10.11831556226679"><ele>466.0</ele><time>2026-04-12T09:20:20Z</time></trkpt><trkpt lat="45.6922568674607" lon="10.118204776408891"><ele>462.4</ele><time>2026-04-12T09:20:22Z</time></trkpt><trkpt lat="45.69236633625955" lon="10.118150448931399"><ele>458.8</ele><time>2026-04-12T09:20:24Z</time></trkpt><trkpt lat="45.692461639243724" lon="10.118089994979048"><ele>455.19999999999993</ele><time>2026-04-12T09:20:26Z</time></trkpt><trkpt lat="45.69255025084066" lon="10.118063947447288"><ele>451.59999999999997</ele><time>2026-04-12T09:20:28Z</time></trkpt><trkpt lat="45.69263891982615" lon="10.117997808393442"><ele>448.0</ele><time>2026-04-12T09:20:30Z</time></trkpt><trkpt lat="45.69272518603999" lon="10.11792886991042"><ele>447.33333333333337</ele><time>2026-04-12T09:20:32Z</time></trkpt><trkpt lat="45.692821505813214" lon="10.117890118318194"><ele>446.6666666666667</ele><time>2026-04-12T09:20:34Z</time></trkpt><trkpt lat="45.6929257458202" lon="10.117876789312"><ele>446.0</ele><time>2026-04-12T09:20:36Z</time></trkpt><trkpt lat="45.69299153171409" lon="10.117834714987731"><ele>445.33333333333337</ele><time>2026-04-12T09:20:37Z</time></trkpt><trkpt lat="45.69305073439801" lon="10.117776672119113"><ele>444.6666666666667</ele><time>2026-04-12T09:20:38Z</time></trkpt><trkpt lat="45.69309333039195" lon="10.117689606235409"><ele>444.0</ele><time>2026-04-12T09:20:39Z</time></trkpt><trkpt lat="45.69317723260705" lon="10.117583523821496"><ele>444.0</ele><time>2026-04-12T09:20:41Z</time></trkpt><trkpt lat="45.693289795823816" lon="10.117530884363491"><ele>444.0</ele><time>2026-04-12T09:20:43Z</time></trkpt><trkpt lat="45.693375910755115" lon="10.11756056495872"><ele>444.0</ele><time>2026-04-12T09:20:44Z</time></trkpt><trkpt lat="45.69347257571661" lon="10.117540816837193"><ele>444.0</ele><time>2026-04-12T09:20:45Z</time></trkpt><trkpt lat="45.69356573826841" lon="10.117551256488472"><ele>444.0</ele><time>2026-04-12T09:20:46Z</time></trkpt><trkpt lat="45.69366503679801" lon="10.117563203097973"><ele>441.4</ele><time>2026-04-12T09:20:47Z</time></trkpt><trkpt lat="45.69376428597107" lon="10.1175729095422"><ele>438.79999999999995</ele><time>2026-04-12T09:20:48Z</time></trkpt><trkpt lat="45.69386570845361" lon="10.117585364847503"><ele>436.20000000000005</ele><time>2026-04-12T09:20:49Z</time></trkpt><trkpt lat="45.693959076188875" lon="10.117567581383424"><ele>433.6</ele><time>2026-04-12T09:20:50Z</time></trkpt><trkpt lat="45.69404679498365" lon="10.117556424111514"><ele>431.0</ele><time>2026-04-12T09:20:51Z</time></trkpt><trkpt lat="45.6941349373192" lon="10.117527131586321"><ele>431.0</ele><time>2026-04-12T09:20:52Z</time></trkpt><trkpt lat="45.69420351269555" lon="10.117499752918315"><ele>431.0</ele><time>2026-04-12T09:20:53Z</time></trkpt><trkpt lat="45.69427012040744" lon="10.117478907289382"><ele>431.0</ele><time>2026-04-12T09:20:54Z</time></trkpt><trkpt lat="45.69434085285893" lon="10.117469436322697"><ele>431.0</ele><time>2026-04-12T09:20:55Z</time></trkpt><trkpt lat="45.69441008618738" lon="10.117449819890574"><ele>431.0</ele><time>2026-04-12T09:20:56Z</time></trkpt><trkpt lat="45.694484476990326" lon="10.117424584405637"><ele>431.0</ele><time>2026-04-12T09:20:57Z</time></trkpt><trkpt lat="45.694558138551734" lon="10.117393578324261"><ele>431.0</ele><time>2026-04-12T09:20:58Z</time></trkpt><trkpt lat="45.694631611658366" lon="10.117364584433014"><ele>425.4</ele><time>2026-04-12T09:20:59Z</time></trkpt><trkpt lat="45.69470631310247" lon="10.117339762175606"><ele>419.8</ele><time>2026-04-12T09:21:00Z</time></trkpt><trkpt lat="45.69477097197683" lon="10.117338373073533"><ele>414.2</ele><time>2026-04-12T09:21:01Z</time></trkpt><trkpt lat="45.694880437095485" lon="10.11731864136923"><ele>408.59999999999997</ele><time>2026-04-12T09:21:03Z</time></trkpt><trkpt lat="45.69491293473561" lon="10.117194449590816"><ele>403.0</ele><time>2026-04-12T09:21:05Z</time></trkpt><trkpt lat="45.69485584042248" lon="10.1170398190371"><ele>403.00000000000006</ele><time>2026-04-12T09:21:07Z</time></trkpt><trkpt lat="45.69479485442908" lon="10.116989640045375"><ele>403.0</ele><time>2026-04-12T09:21:08Z</time></trkpt><trkpt lat="45.69473465981482" lon="10.116933485942988"><ele>403.0</ele><time>2026-04-12T09:21:09Z</time></trkpt><trkpt lat="45.6946572154124" lon="10.116873872989679"><ele>403.0</ele><time>2026-04-12T09:21:10Z</time></trkpt><trkpt lat="45.69458083735684" lon="10.116832441340001"><ele>403.00000000000006</ele><time>2026-04-12T09:21:11Z</time></trkpt><trkpt lat="45.69451266434876" lon="10.116791069159984"><ele>403.0</ele><time>2026-04-12T09:21:12Z</time></trkpt><trkpt lat="45.69444526835882" lon="10.116721065389529"><ele>403.79999999999995</ele><time>2026-04-12T09:21:13Z</time></trkpt><trkpt lat="45.69438259805771" lon="10.116629824269221"><ele>404.6</ele><time>2026-04-12T09:21:14Z</time></trkpt><trkpt lat="45.69431491999697" lon="10.116531086592405"><ele>405.4</ele><time>2026-04-12T09:21:15Z</time></trkpt><trkpt lat="45.694232345210246" lon="10.116453240318274"><ele>406.20000000000005</ele><time>2026-04-12T09:21:16Z</time></trkpt><trkpt lat="45.69416178416315" lon="10.116346588054306"><ele>407.0</ele><time>2026-04-12T09:21:17Z</time></trkpt><trkpt lat="45.69409673015507" lon="10.11628231433034"><ele>403.3333333333333</ele><time>2026-04-12T09:21:18Z</time></trkpt><trkpt lat="45.69402414534959" lon="10.116191563500271"><ele>399.66666666666663</ele><time>2026-04-12T09:21:19Z</time></trkpt><trkpt lat="45.69396744387932" lon="10.116105133864265"><ele>396.0</ele><time>2026-04-12T09:21:20Z</time></trkpt><trkpt lat="45.693917579127834" lon="10.115999110014691"><ele>392.33333333333337</ele><time>2026-04-12T09:21:21Z</time></trkpt><trkpt lat="45.693885829750975" lon="10.115894683654426"><ele>388.6666666666667</ele><time>2026-04-12T09:21:22Z</time></trkpt><trkpt lat="45.693852182856126" lon="10.115793184342344"><ele>385.0</ele><time>2026-04-12T09:21:23Z</time></trkpt><trkpt lat="45.69383244662771" lon="10.11567988822445"><ele>382.83333333333337</ele><time>2026-04-12T09:21:24Z</time></trkpt><trkpt lat="45.69380799413573" lon="10.115572372460347"><ele>380.6666666666667</ele><time>2026-04-12T09:21:25Z</time></trkpt><trkpt lat="45.69377673921211" lon="10.115457167463498"><ele>378.5</ele><time>2026-04-12T09:21:26Z</time></trkpt><trkpt lat="45.69374745113803" lon="10.115338477959186"><ele>376.33333333333337</ele><time>2026-04-12T09:21:27Z</time></trkpt><trkpt lat="45.693709849533235" lon="10.115216383822212"><ele>374.1666666666667</ele><time>2026-04-12T09:21:28Z</time></trkpt><trkpt lat="45.69365170721025" lon="10.115122107301303"><ele>372.0</ele><time>2026-04-12T09:21:29Z</time></trkpt><trkpt lat="45.69359196704186" lon="10.115037455121227"><ele>371.40000000000003</ele><time>2026-04-12T09:21:30Z</time></trkpt><trkpt lat="45.693519625170886" lon="10.114940879431812"><ele>370.8</ele><time>2026-04-12T09:21:31Z</time></trkpt><trkpt lat="45.69346006525313" lon="10.114815295483018"><ele>370.2</ele><time>2026-04-12T09:21:32Z</time></trkpt><trkpt lat="45.693395506881416" lon="10.114701977172132"><ele>369.6</ele><time>2026-04-12T09:21:33Z</time></trkpt><trkpt lat="45.69332535651823" lon="10.114612229848195"><ele>369.0</ele><time>2026-04-12T09:21:34Z</time></trkpt><trkpt lat="45.69324991673753" lon="10.114550868345688"><ele>369.0</ele><time>2026-04-12T09:21:35Z</time></trkpt><trkpt lat="45.69317887607898" lon="10.11448518387698"><ele>369.0</ele><time>2026-04-12T09:21:36Z</time></trkpt><trkpt lat="45.69310070561928" lon="10.114427086903834"><ele>369.0</ele><time>2026-04-12T09:21:37Z</time></trkpt><trkpt lat="45.693022391668286" lon="10.114364800014274"><ele>369.0</ele><time>2026-04-12T09:21:38Z</time></trkpt><trkpt lat="45.69294901702438" lon="10.114294267156934"><ele>369.0</ele><time>2026-04-12T09:21:39Z</time></trkpt><trkpt lat="45.69288937065275" lon="10.11422723706748"><ele>369.0</ele><time>2026-04-12T09:21:40Z</time></trkpt><trkpt lat="45.69280545998439" lon="10.11409648387943"><ele>366.0</ele><time>2026-04-12T09:21:42Z</time></trkpt><trkpt lat="45.69277952867217" lon="10.113951519877991"><ele>363.0</ele><time>2026-04-12T09:21:44Z</time></trkpt><trkpt lat="45.6928303719598" lon="10.113843315800105"><ele>360.0</ele><time>2026-04-12T09:21:46Z</time></trkpt><trkpt lat="45.69295193489786" lon="10.113833233036923"><ele>357.0</ele><time>2026-04-12T09:21:48Z</time></trkpt><trkpt lat="45.6930735102381" lon="10.113841333056103"><ele>354.0</ele><time>2026-04-12T09:21:50Z</time></trkpt><trkpt lat="45.693135662105654" lon="10.113823606349959"><ele>354.0</ele><time>2026-04-12T09:21:51Z</time></trkpt><trkpt lat="45.69319419734365" lon="10.113779206557163"><ele>354.0</ele><time>2026-04-12T09:21:52Z</time></trkpt><trkpt lat="45.693295736395775" lon="10.113690517564388"><ele>354.0</ele><time>2026-04-12T09:21:54Z</time></trkpt><trkpt lat="45.69340063572916" lon="10.113592300813615"><ele>354.0</ele><time>2026-04-12T09:21:56Z</time></trkpt><trkpt lat="45.69346267079523" lon="10.113559692381864"><ele>354.0</ele><time>2026-04-12T09:21:57Z</time></trkpt><trkpt lat="45.6935183829806" lon="10.113474397656004"><ele>354.0</ele><time>2026-04-12T09:21:58Z</time></trkpt><trkpt lat="45.693587480160545" lon="10.113417233550779"><ele>354.0</ele><time>2026-04-12T09:21:59Z</time></trkpt><trkpt lat="45.69371770088861" lon="10.113350118243224"><ele>354.0</ele><time>2026-04-12T09:22:01Z</time></trkpt><trkpt lat="45.69378118276501" lon="10.113309857949186"><ele>354.0</ele><time>2026-04-12T09:22:02Z</time></trkpt><trkpt lat="45.693855445922324" lon="10.113266689673702"><ele>354.0</ele><time>2026-04-12T09:22:03Z</time></trkpt><trkpt lat="45.69392536377015" lon="10.113234417937203"><ele>354.0</ele><time>2026-04-12T09:22:04Z</time></trkpt><trkpt lat="45.69399517890984" lon="10.113201587397535"><ele>349.8333333333333</ele><time>2026-04-12T09:22:05Z</time></trkpt><trkpt lat="45.69406122050975" lon="10.113162487940075"><ele>345.6666666666667</ele><time>2026-04-12T09:22:06Z</time></trkpt><trkpt lat="45.69414681275536" lon="10.113119264445567"><ele>341.5</ele><time>2026-04-12T09:22:07Z</time></trkpt><trkpt lat="45.694236653519084" lon="10.113072549656357"><ele>337.33333333333337</ele><time>2026-04-12T09:22:08Z</time></trkpt><trkpt lat="45.69432508724632" lon="10.113072320575208"><ele>333.1666666666667</ele><time>2026-04-12T09:22:09Z</time></trkpt><trkpt lat="45.69440265851137" lon="10.113050768513217"><ele>329.0</ele><time>2026-04-12T09:22:10Z</time></trkpt><trkpt lat="45.694468616476904" lon="10.113087944401252"><ele>329.42857142857144</ele><time>2026-04-12T09:22:11Z</time></trkpt><trkpt lat="45.694538309136625" lon="10.113116236689233"><ele>329.8571428571429</ele><time>2026-04-12T09:22:12Z</time></trkpt><trkpt lat="45.69461130303534" lon="10.113148123174293"><ele>330.2857142857143</ele><time>2026-04-12T09:22:13Z</time></trkpt><trkpt lat="45.6946855698363" lon="10.113182612802783"><ele>330.7142857142857</ele><time>2026-04-12T09:22:14Z</time></trkpt><trkpt lat="45.69475814574367" lon="10.11321628242539"><ele>331.14285714285717</ele><time>2026-04-12T09:22:15Z</time></trkpt><trkpt lat="45.69482421937411" lon="10.113245896267092"><ele>331.57142857142856</ele><time>2026-04-12T09:22:16Z</time></trkpt><trkpt lat="45.69489528681797" lon="10.11325445345769"><ele>332.0</ele><time>2026-04-12T09:22:17Z</time></trkpt><trkpt lat="45.69495585078562" lon="10.11328481398293"><ele>332.0</ele><time>2026-04-12T09:22:18Z</time></trkpt><trkpt lat="45.69501188244505" lon="10.113243326717418"><ele>332.0</ele><time>2026-04-12T09:22:19Z</time></trkpt><trkpt lat="45.6951077776093" lon="10.113128861150123"><ele>332.0</ele><time>2026-04-12T09:22:21Z</time></trkpt><trkpt lat="45.69511630481793" lon="10.112964859838115"><ele>332.0</ele><time>2026-04-12T09:22:23Z</time></trkpt><trkpt lat="45.69504620514773" lon="10.112828668743013"><ele>332.0</ele><time>2026-04-12T09:22:25Z</time></trkpt><trkpt lat="45.6950041525979" lon="10.1127590620258"><ele>330.40000000000003</ele><time>2026-04-12T09:22:27Z</time></trkpt><trkpt lat="45.69499550351591" lon="10.112654757339879"><ele>328.8</ele><time>2026-04-12T09:22:29Z</time></trkpt><trkpt lat="45.695006959668966" lon="10.112561397341539"><ele>327.2</ele><time>2026-04-12T09:22:32Z</time></trkpt><trkpt lat="45.695144714165274" lon="10.112509037811591"><ele>325.6</ele><time>2026-04-12T09:24:01Z</time></trkpt><trkpt lat="45.695269622549716" lon="10.112482857484313"><ele>324.0</ele><time>2026-04-12T09:24:03Z</time></trkpt><trkpt lat="45.695390820521936" lon="10.11246645045615"><ele>323.3333333333333</ele><time>2026-04-12T09:24:05Z</time></trkpt><trkpt lat="45.695512562609125" lon="10.112463033001031"><ele>322.6666666666667</ele><time>2026-04-12T09:24:07Z</time></trkpt><trkpt lat="45.695579302255965" lon="10.112476472180578"><ele>322.0</ele><time>2026-04-12T09:24:08Z</time></trkpt><trkpt lat="45.695647762478806" lon="10.112492518659646"><ele>321.33333333333337</ele><time>2026-04-12T09:24:09Z</time></trkpt><trkpt lat="45.695716411360685" lon="10.112516609876987"><ele>320.6666666666667</ele><time>2026-04-12T09:24:10Z</time></trkpt><trkpt lat="45.69578035984631" lon="10.112546304609804"><ele>320.0</ele><time>2026-04-12T09:24:11Z</time></trkpt><trkpt lat="45.69584481721933" lon="10.112574509747667"><ele>320.0</ele><time>2026-04-12T09:24:12Z</time></trkpt><trkpt lat="45.695963370094034" lon="10.112598949516002"><ele>320.0</ele><time>2026-04-12T09:24:14Z</time></trkpt><trkpt lat="45.69608245669239" lon="10.11265143740132"><ele>320.0</ele><time>2026-04-12T09:24:16Z</time></trkpt><trkpt lat="45.69613858802527" lon="10.112705429327011"><ele>320.0</ele><time>2026-04-12T09:24:17Z</time></trkpt><trkpt lat="45.696204651312776" lon="10.112732350655843"><ele>320.0</ele><time>2026-04-12T09:24:18Z</time></trkpt><trkpt lat="45.69627177042453" lon="10.112759074380948"><ele>317.6666666666667</ele><time>2026-04-12T09:24:19Z</time></trkpt><trkpt lat="45.696336836703296" lon="10.112784323709851"><ele>315.33333333333337</ele><time>2026-04-12T09:24:20Z</time></trkpt><trkpt lat="45.69641132737637" lon="10.112788757948197"><ele>313.0</ele><time>2026-04-12T09:24:21Z</time></trkpt><trkpt lat="45.696480864414525" lon="10.112819266265983"><ele>310.6666666666667</ele><time>2026-04-12T09:24:22Z</time></trkpt><trkpt lat="45.69654830469209" lon="10.112851067225076"><ele>308.3333333333333</ele><time>2026-04-12T09:24:23Z</time></trkpt><trkpt lat="45.69662578798445" lon="10.112891020846277"><ele>306.0</ele><time>2026-04-12T09:24:24Z</time></trkpt><trkpt lat="45.696720140391605" lon="10.112889867828565"><ele>306.0</ele><time>2026-04-12T09:24:25Z</time></trkpt><trkpt lat="45.6968125929532" lon="10.112849233121107"><ele>306.0</ele><time>2026-04-12T09:24:26Z</time></trkpt><trkpt lat="45.69690144504801" lon="10.112836300556669"><ele>306.0</ele><time>2026-04-12T09:24:27Z</time></trkpt><trkpt lat="45.69700121230934" lon="10.112857862585047"><ele>306.0</ele><time>2026-04-12T09:24:28Z</time></trkpt><trkpt lat="45.6970979005459" lon="10.112853116335444"><ele>306.0</ele><time>2026-04-12T09:24:29Z</time></trkpt><trkpt lat="45.69720183009723" lon="10.11287234010368"><ele>303.6</ele><time>2026-04-12T09:24:30Z</time></trkpt><trkpt lat="45.6973062750403" lon="10.112910630917714"><ele>301.20000000000005</ele><time>2026-04-12T09:24:31Z</time></trkpt><trkpt lat="45.69741341083112" lon="10.112932637488038"><ele>298.79999999999995</ele><time>2026-04-12T09:24:32Z</time></trkpt><trkpt lat="45.69752690782609" lon="10.112931437290484"><ele>296.4</ele><time>2026-04-12T09:24:33Z</time></trkpt><trkpt lat="45.69763450985624" lon="10.11292640262383"><ele>294.0</ele><time>2026-04-12T09:24:34Z</time></trkpt><trkpt lat="45.69774087720532" lon="10.11290047353336"><ele>291.4</ele><time>2026-04-12T09:24:35Z</time></trkpt><trkpt lat="45.69784380185376" lon="10.112920154786035"><ele>288.79999999999995</ele><time>2026-04-12T09:24:36Z</time></trkpt><trkpt lat="45.697946583914764" lon="10.112894825473191"><ele>286.20000000000005</ele><time>2026-04-12T09:24:37Z</time></trkpt><trkpt lat="45.69804758704188" lon="10.112901138434223"><ele>283.6</ele><time>2026-04-12T09:24:38Z</time></trkpt><trkpt lat="45.698144518938314" lon="10.112923750681324"><ele>281.0</ele><time>2026-04-12T09:24:39Z</time></trkpt><trkpt lat="45.69824483946761" lon="10.11295775644226"><ele>281.0</ele><time>2026-04-12T09:24:40Z</time></trkpt><trkpt lat="45.698335198350826" lon="10.113015238768288"><ele>281.0</ele><time>2026-04-12T09:24:41Z</time></trkpt><trkpt lat="45.69844046063127" lon="10.113044870483431"><ele>281.0</ele><time>2026-04-12T09:24:42Z</time></trkpt><trkpt lat="45.698539888243566" lon="10.113086212026179"><ele>281.0</ele><time>2026-04-12T09:24:43Z</time></trkpt><trkpt lat="45.69863422300546" lon="10.113154556578177"><ele>281.0</ele><time>2026-04-12T09:24:44Z</time></trkpt><trkpt lat="45.698738169050436" lon="10.113200425789353"><ele>280.8</ele><time>2026-04-12T09:24:45Z</time></trkpt><trkpt lat="45.69884050030362" lon="10.113244692488616"><ele>280.6</ele><time>2026-04-12T09:24:46Z</time></trkpt><trkpt lat="45.69894111069055" lon="10.113288214769703"><ele>280.4</ele><time>2026-04-12T09:24:47Z</time></trkpt><trkpt lat="45.699040719274265" lon="10.113332032461647"><ele>280.2</ele><time>2026-04-12T09:24:48Z</time></trkpt><trkpt lat="45.69913868451164" lon="10.1133670447205"><ele>280.0</ele><time>2026-04-12T09:24:49Z</time></trkpt><trkpt lat="45.69923711219214" lon="10.11340322386398"><ele>280.0</ele><time>2026-04-12T09:24:50Z</time></trkpt><trkpt lat="45.69933130046211" lon="10.113447693114267"><ele>280.0</ele><time>2026-04-12T09:24:51Z</time></trkpt><trkpt lat="45.69942720854731" lon="10.113489716369218"><ele>280.0</ele><time>2026-04-12T09:24:52Z</time></trkpt><trkpt lat="45.69952230439847" lon="10.113529278947865"><ele>280.0</ele><time>2026-04-12T09:24:53Z</time></trkpt><trkpt lat="45.69961034876401" lon="10.113568432784575"><ele>280.0</ele><time>2026-04-12T09:24:54Z</time></trkpt><trkpt lat="45.69969215323795" lon="10.113631956386106"><ele>277.2</ele><time>2026-04-12T09:24:55Z</time></trkpt><trkpt lat="45.69977567988868" lon="10.113671988711417"><ele>274.4</ele><time>2026-04-12T09:24:56Z</time></trkpt><trkpt lat="45.69986855377538" lon="10.113714253022005"><ele>271.6</ele><time>2026-04-12T09:24:57Z</time></trkpt><trkpt lat="45.69996566860843" lon="10.113755968442307"><ele>268.8</ele><time>2026-04-12T09:24:58Z</time></trkpt><trkpt lat="45.70005950196984" lon="10.113796274300906"><ele>266.0</ele><time>2026-04-12T09:24:59Z</time></trkpt><trkpt lat="45.700146812496584" lon="10.113838630005985"><ele>266.0</ele><time>2026-04-12T09:25:00Z</time></trkpt><trkpt lat="45.70024382072048" lon="10.113870023667447"><ele>266.0</ele><time>2026-04-12T09:25:01Z</time></trkpt><trkpt lat="45.700337598196846" lon="10.113921246421004"><ele>266.0</ele><time>2026-04-12T09:25:02Z</time></trkpt><trkpt lat="45.70042583326087" lon="10.113999389707631"><ele>266.0</ele><time>2026-04-12T09:25:03Z</time></trkpt><trkpt lat="45.70051915522586" lon="10.114050255628403"><ele>266.0</ele><time>2026-04-12T09:25:04Z</time></trkpt><trkpt lat="45.700615548834925" lon="10.114094545750202"><ele>266.0</ele><time>2026-04-12T09:25:05Z</time></trkpt><trkpt lat="45.70070441648508" lon="10.114109833340459"><ele>266.0</ele><time>2026-04-12T09:25:06Z</time></trkpt><trkpt lat="45.70079777220221" lon="10.114108862941935"><ele>266.0</ele><time>2026-04-12T09:25:07Z</time></trkpt><trkpt lat="45.70089143408044" lon="10.114126930811445"><ele>266.0</ele><time>2026-04-12T09:25:08Z</time></trkpt><trkpt lat="45.700977275648555" lon="10.114163175333537"><ele>266.0</ele><time>2026-04-12T09:25:09Z</time></trkpt><trkpt lat="45.701061697588415" lon="10.11419676796495"><ele>263.6</ele><time>2026-04-12T09:25:10Z</time></trkpt><trkpt lat="45.70114883639618" lon="10.114239750110919"><ele>261.20000000000005</ele><time>2026-04-12T09:25:11Z</time></trkpt><trkpt lat="45.70123668365937" lon="10.11429233102655"><ele>258.79999999999995</ele><time>2026-04-12T09:25:12Z</time></trkpt><trkpt lat="45.70133095816389" lon="10.114330455134622"><ele>256.4</ele><time>2026-04-12T09:25:13Z</time></trkpt><trkpt lat="45.70141058520714" lon="10.114371418070537"><ele>254.0</ele><time>2026-04-12T09:25:14Z</time></trkpt><trkpt lat="45.70147646586463" lon="10.11444455063743"><ele>254.00000000000003</ele><time>2026-04-12T09:25:15Z</time></trkpt><trkpt lat="45.70155105802871" lon="10.114480471715813"><ele>254.0</ele><time>2026-04-12T09:25:16Z</time></trkpt><trkpt lat="45.70162078705603" lon="10.114540011660363"><ele>254.0</ele><time>2026-04-12T09:25:17Z</time></trkpt><trkpt lat="45.70169111513162" lon="10.114568390691915"><ele>254.0</ele><time>2026-04-12T09:25:18Z</time></trkpt><trkpt lat="45.70175471349915" lon="10.114579852477107"><ele>254.00000000000003</ele><time>2026-04-12T09:25:19Z</time></trkpt><trkpt lat="45.701792766630724" lon="10.114493640556752"><ele>254.0</ele><time>2026-04-12T09:25:20Z</time></trkpt><trkpt lat="45.70185571049927" lon="10.114403010928482"><ele>254.00000000000003</ele><time>2026-04-12T09:25:21Z</time></trkpt><trkpt lat="45.701910965641645" lon="10.114308632617494"><ele>254.0</ele><time>2026-04-12T09:25:22Z</time></trkpt><trkpt lat="45.70197064920709" lon="10.114212465179376"><ele>254.0</ele><time>2026-04-12T09:25:23Z</time></trkpt><trkpt lat="45.70202297484769" lon="10.114107348252901"><ele>254.0</ele><time>2026-04-12T09:25:24Z</time></trkpt><trkpt lat="45.702067719951394" lon="10.114011746955612"><ele>254.00000000000003</ele><time>2026-04-12T09:25:25Z</time></trkpt><trkpt lat="45.702104881122374" lon="10.113920419916383"><ele>254.0</ele><time>2026-04-12T09:25:26Z</time></trkpt><trkpt lat="45.70215150007565" lon="10.113837757679008"><ele>252.00000000000003</ele><time>2026-04-12T09:25:27Z</time></trkpt><trkpt lat="45.70221305471127" lon="10.113766140178704"><ele>250.0</ele><time>2026-04-12T09:25:28Z</time></trkpt><trkpt lat="45.70228525429024" lon="10.11371005069443"><ele>248.0</ele><time>2026-04-12T09:25:29Z</time></trkpt><trkpt lat="45.70236116757504" lon="10.113641580321179"><ele>246.0</ele><time>2026-04-12T09:25:30Z</time></trkpt><trkpt lat="45.70244275452917" lon="10.113585685598661"><ele>244.00000000000003</ele><time>2026-04-12T09:25:31Z</time></trkpt><trkpt lat="45.70252313789868" lon="10.11352640859438"><ele>242.0</ele><time>2026-04-12T09:25:32Z</time></trkpt><trkpt lat="45.70260767823992" lon="10.113475258082161"><ele>242.00000000000003</ele><time>2026-04-12T09:25:33Z</time></trkpt><trkpt lat="45.70268818057121" lon="10.11345478224403"><ele>242.0</ele><time>2026-04-12T09:25:34Z</time></trkpt><trkpt lat="45.70277608548045" lon="10.113442982415545"><ele>242.0</ele><time>2026-04-12T09:25:35Z</time></trkpt><trkpt lat="45.70286709717598" lon="10.113484497281856"><ele>242.0</ele><time>2026-04-12T09:25:36Z</time></trkpt><trkpt lat="45.702955863347825" lon="10.11352175349568"><ele>242.00000000000003</ele><time>2026-04-12T09:25:37Z</time></trkpt><trkpt lat="45.703039782744405" lon="10.11356593981052"><ele>242.0</ele><time>2026-04-12T09:25:38Z</time></trkpt><trkpt lat="45.703129844901675" lon="10.113615954109223"><ele>240.8</ele><time>2026-04-12T09:25:39Z</time></trkpt><trkpt lat="45.70322411745785" lon="10.113682596750134"><ele>239.6</ele><time>2026-04-12T09:25:40Z</time></trkpt><trkpt lat="45.70331943536684" lon="10.113748767058473"><ele>238.40000000000003</ele><time>2026-04-12T09:25:41Z</time></trkpt><trkpt lat="45.7034100579215" lon="10.11381211116936"><ele>237.20000000000002</ele><time>2026-04-12T09:25:42Z</time></trkpt><trkpt lat="45.703498385183664" lon="10.113878170982474"><ele>236.0</ele><time>2026-04-12T09:25:43Z</time></trkpt><trkpt lat="45.70359079201058" lon="10.113925596775406"><ele>235.60000000000002</ele><time>2026-04-12T09:25:44Z</time></trkpt><trkpt lat="45.703687773744626" lon="10.11392872078536"><ele>235.20000000000002</ele><time>2026-04-12T09:25:45Z</time></trkpt><trkpt lat="45.70378394061294" lon="10.113894196984662"><ele>234.79999999999998</ele><time>2026-04-12T09:25:46Z</time></trkpt><trkpt lat="45.70388385399592" lon="10.113854321555035"><ele>234.39999999999998</ele><time>2026-04-12T09:25:47Z</time></trkpt><trkpt lat="45.703978747318665" lon="10.113819624093127"><ele>234.0</ele><time>2026-04-12T09:25:48Z</time></trkpt><trkpt lat="45.70408616175292" lon="10.113789125973113"><ele>234.0</ele><time>2026-04-12T09:25:49Z</time></trkpt><trkpt lat="45.7041912784067" lon="10.113755623131057"><ele>233.99999999999997</ele><time>2026-04-12T09:25:50Z</time></trkpt><trkpt lat="45.70430427182005" lon="10.113737957815912"><ele>233.99999999999997</ele><time>2026-04-12T09:25:51Z</time></trkpt><trkpt lat="45.70441376866312" lon="10.11374566942255"><ele>234.0</ele><time>2026-04-12T09:25:52Z</time></trkpt><trkpt lat="45.704505626029274" lon="10.113743307312427"><ele>234.0</ele><time>2026-04-12T09:25:53Z</time></trkpt><trkpt lat="45.70459847781965" lon="10.1137491805519"><ele>233.0</ele><time>2026-04-12T09:25:54Z</time></trkpt><trkpt lat="45.704702011570745" lon="10.113733090625884"><ele>232.0</ele><time>2026-04-12T09:25:55Z</time></trkpt><trkpt lat="45.70481279414474" lon="10.113735501898997"><ele>231.0</ele><time>2026-04-12T09:25:56Z</time></trkpt><trkpt lat="45.70492190245806" lon="10.113688637259363"><ele>230.0</ele><time>2026-04-12T09:25:57Z</time></trkpt><trkpt lat="45.70504293655402" lon="10.113675460186736"><ele>230.0</ele><time>2026-04-12T09:25:58Z</time></trkpt><trkpt lat="45.70515722280939" lon="10.113627428828933"><ele>230.0</ele><time>2026-04-12T09:25:59Z</time></trkpt><trkpt lat="45.705262346746146" lon="10.113592671345701"><ele>230.0</ele><time>2026-04-12T09:26:00Z</time></trkpt><trkpt lat="45.70535959942356" lon="10.11355589628695"><ele>230.0</ele><time>2026-04-12T09:26:01Z</time></trkpt><trkpt lat="45.705453987332994" lon="10.113526171498656"><ele>230.0</ele><time>2026-04-12T09:26:02Z</time></trkpt><trkpt lat="45.70555433605088" lon="10.113518001780832"><ele>229.8</ele><time>2026-04-12T09:26:03Z</time></trkpt><trkpt lat="45.70565923720883" lon="10.113525922226184"><ele>229.6</ele><time>2026-04-12T09:26:04Z</time></trkpt><trkpt lat="45.70576785990351" lon="10.113537130350219"><ele>229.39999999999998</ele><time>2026-04-12T09:26:05Z</time></trkpt><trkpt lat="45.70587867632403" lon="10.11354713355651"><ele>229.2</ele><time>2026-04-12T09:26:06Z</time></trkpt><trkpt lat="45.70598930166109" lon="10.113555962910688"><ele>229.0</ele><time>2026-04-12T09:26:07Z</time></trkpt><trkpt lat="45.706100759973694" lon="10.113544719378991"><ele>227.79999999999998</ele><time>2026-04-12T09:26:08Z</time></trkpt><trkpt lat="45.70621331570171" lon="10.113516139413615"><ele>226.59999999999997</ele><time>2026-04-12T09:26:09Z</time></trkpt><trkpt lat="45.70632504998493" lon="10.113481132584829"><ele>225.4</ele><time>2026-04-12T09:26:10Z</time></trkpt><trkpt lat="45.706431177506495" lon="10.113453502432444"><ele>224.2</ele><time>2026-04-12T09:26:11Z</time></trkpt><trkpt lat="45.7065355040941" lon="10.11342760161588"><ele>223.0</ele><time>2026-04-12T09:26:12Z</time></trkpt><trkpt lat="45.70663207267452" lon="10.11342343393329"><ele>223.0</ele><time>2026-04-12T09:26:13Z</time></trkpt><trkpt lat="45.706710590861164" lon="10.113405487254619"><ele>223.0</ele><time>2026-04-12T09:26:14Z</time></trkpt><trkpt lat="45.706776040895626" lon="10.113390645566419"><ele>223.0</ele><time>2026-04-12T09:26:15Z</time></trkpt><trkpt lat="45.706844069296324" lon="10.113312711050359"><ele>223.0</ele><time>2026-04-12T09:26:17Z</time></trkpt><trkpt lat="45.706796871152356" lon="10.113415814797298"><ele>223.0</ele><time>2026-04-12T09:26:23Z</time></trkpt><trkpt lat="45.70669093599834" lon="10.113655964832901"><ele>223.0</ele><time>2026-04-12T09:26:26Z</time></trkpt><trkpt lat="45.70666392277116" lon="10.11378501702771"><ele>223.0</ele><time>2026-04-12T09:26:27Z</time></trkpt><trkpt lat="45.70662322199704" lon="10.113896899487731"><ele>223.0</ele><time>2026-04-12T09:26:28Z</time></trkpt><trkpt lat="45.70658947074942" lon="10.114034919290155"><ele>223.0</ele><time>2026-04-12T09:26:29Z</time></trkpt><trkpt lat="45.70655433052469" lon="10.114156688147492"><ele>223.0</ele><time>2026-04-12T09:26:30Z</time></trkpt><trkpt lat="45.70650415090721" lon="10.114263400324223"><ele>224.60000000000002</ele><time>2026-04-12T09:26:31Z</time></trkpt><trkpt lat="45.70643859649015" lon="10.11436080272475"><ele>226.20000000000002</ele><time>2026-04-12T09:26:32Z</time></trkpt><trkpt lat="45.70636748043352" lon="10.11443064268696"><ele>227.8</ele><time>2026-04-12T09:26:33Z</time></trkpt><trkpt lat="45.70629410708019" lon="10.114509583724839"><ele>229.4</ele><time>2026-04-12T09:26:34Z</time></trkpt><trkpt lat="45.706224579637784" lon="10.114593662617441"><ele>231.0</ele><time>2026-04-12T09:26:35Z</time></trkpt><trkpt lat="45.70618436689463" lon="10.114713343810058"><ele>231.0</ele><time>2026-04-12T09:26:36Z</time></trkpt><trkpt lat="45.706143102589486" lon="10.11482297037751"><ele>231.0</ele><time>2026-04-12T09:26:37Z</time></trkpt><trkpt lat="45.706122058705226" lon="10.11494460242343"><ele>231.0</ele><time>2026-04-12T09:26:38Z</time></trkpt><trkpt lat="45.70610459049071" lon="10.115059765197675"><ele>231.0</ele><time>2026-04-12T09:26:39Z</time></trkpt><trkpt lat="45.70608626966034" lon="10.115177833786467"><ele>231.0</ele><time>2026-04-12T09:26:40Z</time></trkpt><trkpt lat="45.70606296333939" lon="10.115297570282713"><ele>231.0</ele><time>2026-04-12T09:26:41Z</time></trkpt><trkpt lat="45.70603246652506" lon="10.115412226755566"><ele>233.33333333333334</ele><time>2026-04-12T09:26:42Z</time></trkpt><trkpt lat="45.705996542728116" lon="10.115527517454863"><ele>235.66666666666669</ele><time>2026-04-12T09:26:43Z</time></trkpt><trkpt lat="45.70595928757073" lon="10.115646607858967"><ele>238.0</ele><time>2026-04-12T09:26:44Z</time></trkpt><trkpt lat="45.70592023691573" lon="10.11575613597055"><ele>240.33333333333334</ele><time>2026-04-12T09:26:45Z</time></trkpt><trkpt lat="45.705883896334065" lon="10.115864749087294"><ele>242.66666666666669</ele><time>2026-04-12T09:26:46Z</time></trkpt><trkpt lat="45.705853233403154" lon="10.115965665847735"><ele>245.0</ele><time>2026-04-12T09:26:47Z</time></trkpt><trkpt lat="45.7058218958383" lon="10.116058835900581"><ele>246.6</ele><time>2026-04-12T09:26:48Z</time></trkpt><trkpt lat="45.705790098618344" lon="10.116139500915194"><ele>248.2</ele><time>2026-04-12T09:26:49Z</time></trkpt><trkpt lat="45.70572940140822" lon="10.116276806900148"><ele>249.8</ele><time>2026-04-12T09:26:51Z</time></trkpt><trkpt lat="45.705711033071104" lon="10.116364957488369"><ele>251.4</ele><time>2026-04-12T09:26:53Z</time></trkpt><trkpt lat="45.70577801606745" lon="10.116479767233221"><ele>253.0</ele><time>2026-04-12T09:26:55Z</time></trkpt><trkpt lat="45.70587329569127" lon="10.116581284923834"><ele>254.83333333333331</ele><time>2026-04-12T09:26:57Z</time></trkpt><trkpt lat="45.70591717671705" lon="10.116648979052881"><ele>256.66666666666663</ele><time>2026-04-12T09:26:58Z</time></trkpt><trkpt lat="45.705907977708776" lon="10.116812864614495"><ele>258.5</ele><time>2026-04-12T09:27:00Z</time></trkpt><trkpt lat="45.705939834876325" lon="10.116898527553362"><ele>260.3333333333333</ele><time>2026-04-12T09:27:01Z</time></trkpt><trkpt lat="45.705957645459634" lon="10.116990770144158"><ele>262.1666666666667</ele><time>2026-04-12T09:27:02Z</time></trkpt><trkpt lat="45.70600829978014" lon="10.117084919583988"><ele>264.0</ele><time>2026-04-12T09:27:04Z</time></trkpt><trkpt lat="45.70595659877788" lon="10.117025731482888"><ele>264.0</ele><time>2026-04-12T09:27:44Z</time></trkpt><trkpt lat="45.70592178982995" lon="10.1169002416229"><ele>264.0</ele><time>2026-04-12T09:27:46Z</time></trkpt><trkpt lat="45.705901137223755" lon="10.11677378722258"><ele>264.0</ele><time>2026-04-12T09:27:48Z</time></trkpt><trkpt lat="45.7059044299495" lon="10.116678928556803"><ele>264.0</ele><time>2026-04-12T09:27:50Z</time></trkpt><trkpt lat="45.705873061817385" lon="10.116557175956428"><ele>264.0</ele><time>2026-04-12T09:27:58Z</time></trkpt><trkpt lat="45.70580172224202" lon="10.116481192079313"><ele>264.0</ele><time>2026-04-12T09:28:00Z</time></trkpt><trkpt lat="45.705731263159116" lon="10.116416470021575"><ele>261.25</ele><time>2026-04-12T09:28:02Z</time></trkpt><trkpt lat="45.70569375491487" lon="10.116331013443752"><ele>258.5</ele><time>2026-04-12T09:28:09Z</time></trkpt><trkpt lat="45.70578708452042" lon="10.116174143482084"><ele>255.75</ele><time>2026-04-12T09:28:11Z</time></trkpt><trkpt lat="45.70578191584406" lon="10.116479530303678"><ele>253.0</ele><time>2026-04-12T09:28:14Z</time></trkpt><trkpt lat="45.70585759719399" lon="10.116563830072945"><ele>249.0</ele><time>2026-04-12T09:28:17Z</time></trkpt><trkpt lat="45.70631284235815" lon="10.116109323626183"><ele>249.0</ele><time>2026-04-12T09:28:23Z</time></trkpt><trkpt lat="45.70646411644067" lon="10.116062446121987"><ele>249.0</ele><time>2026-04-12T09:28:26Z</time></trkpt><trkpt lat="45.706583214672904" lon="10.116080827368291"><ele>249.0</ele><time>2026-04-12T09:28:28Z</time></trkpt><trkpt lat="45.70670452753977" lon="10.116123216876076"><ele>249.0</ele><time>2026-04-12T09:28:30Z</time></trkpt><trkpt lat="45.70681553742227" lon="10.116141704240347"><ele>249.0</ele><time>2026-04-12T09:28:32Z</time></trkpt><trkpt lat="45.70687891651338" lon="10.116141335370346"><ele>249.0</ele><time>2026-04-12T09:28:33Z</time></trkpt><trkpt lat="45.70694747862557" lon="10.116150138497666"><ele>249.0</ele><time>2026-04-12T09:28:34Z</time></trkpt><trkpt lat="45.707017305991286" lon="10.116148730713123"><ele>249.0</ele><time>2026-04-12T09:28:35Z</time></trkpt><trkpt lat="45.70707964304064" lon="10.116161396446"><ele>249.0</ele><time>2026-04-12T09:28:36Z</time></trkpt><trkpt lat="45.70717823580578" lon="10.116185341536276"><ele>249.0</ele><time>2026-04-12T09:28:38Z</time></trkpt><trkpt lat="45.70729132050008" lon="10.116245308155333"><ele>249.0</ele><time>2026-04-12T09:28:40Z</time></trkpt><trkpt lat="45.70735400267804" lon="10.11628532190301"><ele>248.99999999999997</ele><time>2026-04-12T09:28:41Z</time></trkpt><trkpt lat="45.70742231640325" lon="10.116324397473125"><ele>249.0</ele><time>2026-04-12T09:28:42Z</time></trkpt><trkpt lat="45.70749457070433" lon="10.116360027273476"><ele>249.0</ele><time>2026-04-12T09:28:43Z</time></trkpt><trkpt lat="45.70757839822064" lon="10.116387983531697"><ele>248.99999999999997</ele><time>2026-04-12T09:28:44Z</time></trkpt><trkpt lat="45.7076425394358" lon="10.116417280013009"><ele>249.0</ele><time>2026-04-12T09:28:45Z</time></trkpt><trkpt lat="45.70770448199657" lon="10.116435392137257"><ele>249.0</ele><time>2026-04-12T09:28:46Z</time></trkpt><trkpt lat="45.70776936565463" lon="10.116468778565316"><ele>249.16666666666666</ele><time>2026-04-12T09:28:47Z</time></trkpt><trkpt lat="45.70784291984139" lon="10.11648955094271"><ele>249.33333333333331</ele><time>2026-04-12T09:28:48Z</time></trkpt><trkpt lat="45.70791933349887" lon="10.116496674900192"><ele>249.5</ele><time>2026-04-12T09:28:49Z</time></trkpt><trkpt lat="45.708000172426395" lon="10.116495999858653"><ele>249.66666666666666</ele><time>2026-04-12T09:28:50Z</time></trkpt><trkpt lat="45.70808141075502" lon="10.116499869440652"><ele>249.83333333333331</ele><time>2026-04-12T09:28:51Z</time></trkpt><trkpt lat="45.708160451948096" lon="10.116523159577893"><ele>250.0</ele><time>2026-04-12T09:28:52Z</time></trkpt><trkpt lat="45.70823906110738" lon="10.11654713176014"><ele>251.99999999999997</ele><time>2026-04-12T09:28:53Z</time></trkpt><trkpt lat="45.70831032983194" lon="10.116587975636849"><ele>254.0</ele><time>2026-04-12T09:28:54Z</time></trkpt><trkpt lat="45.70837315329839" lon="10.116647506768086"><ele>256.0</ele><time>2026-04-12T09:28:55Z</time></trkpt><trkpt lat="45.7084957536588" lon="10.116675806078462"><ele>258.0</ele><time>2026-04-12T09:28:57Z</time></trkpt><trkpt lat="45.708564185753644" lon="10.116678877849633"><ele>260.0</ele><time>2026-04-12T09:28:58Z</time></trkpt><trkpt lat="45.70862281484032" lon="10.116712939218768"><ele>262.0</ele><time>2026-04-12T09:28:59Z</time></trkpt><trkpt lat="45.7086821262357" lon="10.116748222603324"><ele>262.0</ele><time>2026-04-12T09:29:00Z</time></trkpt><trkpt lat="45.70880428847132" lon="10.116795256077673"><ele>262.0</ele><time>2026-04-12T09:29:02Z</time></trkpt><trkpt lat="45.70887083415442" lon="10.116833260370406"><ele>262.0</ele><time>2026-04-12T09:29:03Z</time></trkpt><trkpt lat="45.70894918858825" lon="10.116832795838386"><ele>262.0</ele><time>2026-04-12T09:29:04Z</time></trkpt><trkpt lat="45.70901606828799" lon="10.11683150240439"><ele>262.0</ele><time>2026-04-12T09:29:05Z</time></trkpt><trkpt lat="45.709119126564566" lon="10.116860507427909"><ele>262.0</ele><time>2026-04-12T09:29:07Z</time></trkpt><trkpt lat="45.70918673326272" lon="10.116863902155236"><ele>262.0</ele><time>2026-04-12T09:29:10Z</time></trkpt><trkpt lat="45.70909280070363" lon="10.116875406212621"><ele>262.0</ele><time>2026-04-12T09:29:23Z</time></trkpt><trkpt lat="45.70898694945168" lon="10.116871777778824"><ele>262.0</ele><time>2026-04-12T09:29:25Z</time></trkpt><trkpt lat="45.70887471242489" lon="10.116845183263866"><ele>262.0</ele><time>2026-04-12T09:29:26Z</time></trkpt><trkpt lat="45.70879551562604" lon="10.116812057104037"><ele>262.0</ele><time>2026-04-12T09:29:27Z</time></trkpt><trkpt lat="45.70873061967294" lon="10.116788713983736"><ele>262.0</ele><time>2026-04-12T09:29:28Z</time></trkpt><trkpt lat="45.708636434124806" lon="10.116693124965574"><ele>262.0</ele><time>2026-04-12T09:29:30Z</time></trkpt><trkpt lat="45.70856456522435" lon="10.11665895997604"><ele>262.0</ele><time>2026-04-12T09:29:32Z</time></trkpt><trkpt lat="45.708615782723875" lon="10.116542158218262"><ele>262.0</ele><time>2026-04-12T09:29:37Z</time></trkpt><trkpt lat="45.70870114357954" lon="10.116483176306003"><ele>262.0</ele><time>2026-04-12T09:29:39Z</time></trkpt><trkpt lat="45.708805172306775" lon="10.116421824880543"><ele>260.0</ele><time>2026-04-12T09:29:41Z</time></trkpt><trkpt lat="45.708880703434566" lon="10.116445102281867"><ele>258.0</ele><time>2026-04-12T09:29:42Z</time></trkpt><trkpt lat="45.70895293327722" lon="10.116450342847273"><ele>256.0</ele><time>2026-04-12T09:29:43Z</time></trkpt><trkpt lat="45.70903379902067" lon="10.116436819269243"><ele>254.0</ele><time>2026-04-12T09:29:44Z</time></trkpt><trkpt lat="45.709120386097474" lon="10.11644629178642"><ele>251.99999999999997</ele><time>2026-04-12T09:29:45Z</time></trkpt><trkpt lat="45.70921332759794" lon="10.116453282143448"><ele>250.0</ele><time>2026-04-12T09:29:46Z</time></trkpt><trkpt lat="45.709313369277254" lon="10.116473119537368"><ele>250.5</ele><time>2026-04-12T09:29:47Z</time></trkpt><trkpt lat="45.709429294795356" lon="10.11648257063766"><ele>251.0</ele><time>2026-04-12T09:29:48Z</time></trkpt><trkpt lat="45.70954023846379" lon="10.116491607383482"><ele>251.5</ele><time>2026-04-12T09:29:49Z</time></trkpt><trkpt lat="45.7096553586113" lon="10.116512194713447"><ele>252.0</ele><time>2026-04-12T09:29:50Z</time></trkpt><trkpt lat="45.70976661484637" lon="10.116519379262769"><ele>252.0</ele><time>2026-04-12T09:29:51Z</time></trkpt><trkpt lat="45.709869369934566" lon="10.116532640403703"><ele>252.0</ele><time>2026-04-12T09:29:52Z</time></trkpt><trkpt lat="45.70997602073031" lon="10.116539078916777"><ele>252.0</ele><time>2026-04-12T09:29:53Z</time></trkpt><trkpt lat="45.71008855644653" lon="10.116549579880939"><ele>252.0</ele><time>2026-04-12T09:29:54Z</time></trkpt><trkpt lat="45.7101922752647" lon="10.11655946883486"><ele>252.0</ele><time>2026-04-12T09:29:55Z</time></trkpt><trkpt lat="45.71030524924939" lon="10.116557544323586"><ele>253.5</ele><time>2026-04-12T09:29:56Z</time></trkpt><trkpt lat="45.7103999351937" lon="10.116569750634218"><ele>255.0</ele><time>2026-04-12T09:29:57Z</time></trkpt><trkpt lat="45.71047994209548" lon="10.11658532993526"><ele>256.5</ele><time>2026-04-12T09:29:58Z</time></trkpt><trkpt lat="45.71056034390627" lon="10.116607263777956"><ele>258.0</ele><time>2026-04-12T09:29:59Z</time></trkpt><trkpt lat="45.71063206800358" lon="10.11667191767388"><ele>259.5</ele><time>2026-04-12T09:30:00Z</time></trkpt><trkpt lat="45.71070464200001" lon="10.11674964927491"><ele>261.0</ele><time>2026-04-12T09:30:01Z</time></trkpt><trkpt lat="45.710774537775315" lon="10.11679902958206"><ele>261.0</ele><time>2026-04-12T09:30:02Z</time></trkpt><trkpt lat="45.71085049279929" lon="10.116845755800282"><ele>261.0</ele><time>2026-04-12T09:30:03Z</time></trkpt><trkpt lat="45.71093713980675" lon="10.116887259468935"><ele>261.0</ele><time>2026-04-12T09:30:04Z</time></trkpt><trkpt lat="45.711032066699104" lon="10.116919638150156"><ele>261.0</ele><time>2026-04-12T09:30:05Z</time></trkpt><trkpt lat="45.711114832519634" lon="10.116964015918041"><ele>261.0</ele><time>2026-04-12T09:30:06Z</time></trkpt><trkpt lat="45.711190665113136" lon="10.11698840766299"><ele>261.0</ele><time>2026-04-12T09:30:07Z</time></trkpt><trkpt lat="45.71128966210952" lon="10.117007245266116"><ele>262.0</ele><time>2026-04-12T09:30:09Z</time></trkpt><trkpt lat="45.71137507264007" lon="10.11693588086272"><ele>263.0</ele><time>2026-04-12T09:30:11Z</time></trkpt><trkpt lat="45.711464711507354" lon="10.116848978815906"><ele>264.0</ele><time>2026-04-12T09:30:13Z</time></trkpt><trkpt lat="45.71153209520936" lon="10.11686870922565"><ele>265.0</ele><time>2026-04-12T09:30:14Z</time></trkpt><trkpt lat="45.71160025525574" lon="10.116874686165438"><ele>266.0</ele><time>2026-04-12T09:30:15Z</time></trkpt><trkpt lat="45.71167789164711" lon="10.116853456972501"><ele>267.0</ele><time>2026-04-12T09:30:16Z</time></trkpt><trkpt lat="45.711747739510024" lon="10.116848998634637"><ele>267.0</ele><time>2026-04-12T09:30:17Z</time></trkpt><trkpt lat="45.7118317848527" lon="10.116824677563237"><ele>267.0</ele><time>2026-04-12T09:30:18Z</time></trkpt><trkpt lat="45.711924969537826" lon="10.116842161438527"><ele>267.0</ele><time>2026-04-12T09:30:19Z</time></trkpt><trkpt lat="45.71201517051177" lon="10.116841668530508"><ele>267.0</ele><time>2026-04-12T09:30:20Z</time></trkpt><trkpt lat="45.712100951808495" lon="10.116841199772109"><ele>267.0</ele><time>2026-04-12T09:30:21Z</time></trkpt><trkpt lat="45.712196429617336" lon="10.116799172599256"><ele>265.25</ele><time>2026-04-12T09:30:22Z</time></trkpt><trkpt lat="45.712294894784996" lon="10.116760446396617"><ele>263.5</ele><time>2026-04-12T09:30:23Z</time></trkpt><trkpt lat="45.71239253158984" lon="10.11668992933412"><ele>261.75</ele><time>2026-04-12T09:30:24Z</time></trkpt><trkpt lat="45.71249846187031" lon="10.116605915966645"><ele>260.0</ele><time>2026-04-12T09:30:25Z</time></trkpt><trkpt lat="45.71260039214313" lon="10.11652229360468"><ele>260.0</ele><time>2026-04-12T09:30:26Z</time></trkpt><trkpt lat="45.71270396348637" lon="10.116438793402493"><ele>260.0</ele><time>2026-04-12T09:30:27Z</time></trkpt><trkpt lat="45.71280686434691" lon="10.116355657357566"><ele>260.0</ele><time>2026-04-12T09:30:28Z</time></trkpt><trkpt lat="45.71291317808088" lon="10.116288516589268"><ele>260.0</ele><time>2026-04-12T09:30:29Z</time></trkpt><trkpt lat="45.71301704631501" lon="10.11628170450912"><ele>260.6</ele><time>2026-04-12T09:30:30Z</time></trkpt><trkpt lat="45.71310681463947" lon="10.11628390046284"><ele>261.2</ele><time>2026-04-12T09:30:31Z</time></trkpt><trkpt lat="45.71319502586276" lon="10.116283941124427"><ele>261.8</ele><time>2026-04-12T09:30:32Z</time></trkpt><trkpt lat="45.71328078389347" lon="10.116329547728027"><ele>262.4</ele><time>2026-04-12T09:30:33Z</time></trkpt><trkpt lat="45.71335853055535" lon="10.116393323951092"><ele>263.0</ele><time>2026-04-12T09:30:34Z</time></trkpt><trkpt lat="45.713438187841" lon="10.116467552393736"><ele>263.0</ele><time>2026-04-12T09:30:35Z</time></trkpt><trkpt lat="45.71352376320795" lon="10.116543384159739"><ele>263.0</ele><time>2026-04-12T09:30:36Z</time></trkpt><trkpt lat="45.71361900916546" lon="10.116606486265228"><ele>263.0</ele><time>2026-04-12T09:30:37Z</time></trkpt><trkpt lat="45.71371635183273" lon="10.116649608481621"><ele>263.0</ele><time>2026-04-12T09:30:38Z</time></trkpt><trkpt lat="45.71380381549611" lon="10.116684807156227"><ele>263.0</ele><time>2026-04-12T09:30:39Z</time></trkpt><trkpt lat="45.71387519764586" lon="10.116689934659842"><ele>268.6</ele><time>2026-04-12T09:30:40Z</time></trkpt><trkpt lat="45.713983831728484" lon="10.116707031644431"><ele>274.20000000000005</ele><time>2026-04-12T09:30:42Z</time></trkpt><trkpt lat="45.714013139381315" lon="10.116833225474364"><ele>279.8</ele><time>2026-04-12T09:30:44Z</time></trkpt><trkpt lat="45.713918930013065" lon="10.116920519863472"><ele>285.40000000000003</ele><time>2026-04-12T09:30:46Z</time></trkpt><trkpt lat="45.713843402218565" lon="10.116875541723914"><ele>291.0</ele><time>2026-04-12T09:30:47Z</time></trkpt><trkpt lat="45.71375636378164" lon="10.11688655975385"><ele>291.0</ele><time>2026-04-12T09:30:48Z</time></trkpt><trkpt lat="45.71366684924019" lon="10.116871714128267"><ele>291.0</ele><time>2026-04-12T09:30:49Z</time></trkpt><trkpt lat="45.713581425706465" lon="10.11689278259297"><ele>291.0</ele><time>2026-04-12T09:30:50Z</time></trkpt><trkpt lat="45.71350541939182" lon="10.116947584598602"><ele>291.0</ele><time>2026-04-12T09:30:51Z</time></trkpt><trkpt lat="45.71344266006514" lon="10.11704314318287"><ele>291.0</ele><time>2026-04-12T09:30:52Z</time></trkpt><trkpt lat="45.71337709664065" lon="10.11714863675434"><ele>290.6</ele><time>2026-04-12T09:30:53Z</time></trkpt><trkpt lat="45.71331249483196" lon="10.117266430387714"><ele>290.20000000000005</ele><time>2026-04-12T09:30:54Z</time></trkpt><trkpt lat="45.713244646202654" lon="10.117373315544501"><ele>289.79999999999995</ele><time>2026-04-12T09:30:55Z</time></trkpt><trkpt lat="45.7131631521576" lon="10.11746020963541"><ele>289.4</ele><time>2026-04-12T09:30:56Z</time></trkpt><trkpt lat="45.71307933066397" lon="10.117529263828077"><ele>289.0</ele><time>2026-04-12T09:30:57Z</time></trkpt><trkpt lat="45.7129932470864" lon="10.117590185463678"><ele>290.8</ele><time>2026-04-12T09:30:58Z</time></trkpt><trkpt lat="45.7129034260126" lon="10.117648636246939"><ele>292.59999999999997</ele><time>2026-04-12T09:30:59Z</time></trkpt><trkpt lat="45.71281259063602" lon="10.117727751069344"><ele>294.4</ele><time>2026-04-12T09:31:00Z</time></trkpt><trkpt lat="45.712705881344924" lon="10.117768478234538"><ele>296.2</ele><time>2026-04-12T09:31:01Z</time></trkpt><trkpt lat="45.71260996353612" lon="10.117843353361204"><ele>298.0</ele><time>2026-04-12T09:31:02Z</time></trkpt><trkpt lat="45.71251377282265" lon="10.117884201670988"><ele>298.0</ele><time>2026-04-12T09:31:03Z</time></trkpt><trkpt lat="45.71241436944279" lon="10.117935989682321"><ele>298.0</ele><time>2026-04-12T09:31:04Z</time></trkpt><trkpt lat="45.71232341933003" lon="10.117990501532455"><ele>298.0</ele><time>2026-04-12T09:31:05Z</time></trkpt><trkpt lat="45.71224542492955" lon="10.118043514247365"><ele>298.0</ele><time>2026-04-12T09:31:06Z</time></trkpt><trkpt lat="45.7121835906149" lon="10.118118913593781"><ele>298.0</ele><time>2026-04-12T09:31:07Z</time></trkpt><trkpt lat="45.71214805882653" lon="10.118216793622313"><ele>298.0</ele><time>2026-04-12T09:31:08Z</time></trkpt><trkpt lat="45.71214733386484" lon="10.11832569914774"><ele>301.0</ele><time>2026-04-12T09:31:09Z</time></trkpt><trkpt lat="45.71217711350464" lon="10.118429531588397"><ele>304.0</ele><time>2026-04-12T09:31:10Z</time></trkpt><trkpt lat="45.7122254921008" lon="10.118525064640089"><ele>307.0</ele><time>2026-04-12T09:31:11Z</time></trkpt><trkpt lat="45.71227179717879" lon="10.11862872154467"><ele>310.0</ele><time>2026-04-12T09:31:12Z</time></trkpt><trkpt lat="45.71233008537772" lon="10.118715591428773"><ele>313.0</ele><time>2026-04-12T09:31:13Z</time></trkpt><trkpt lat="45.71239123431278" lon="10.118801140525218"><ele>316.0</ele><time>2026-04-12T09:31:14Z</time></trkpt><trkpt lat="45.71246430535646" lon="10.11885159150922"><ele>316.0</ele><time>2026-04-12T09:31:15Z</time></trkpt><trkpt lat="45.712538497210524" lon="10.118873808763889"><ele>316.0</ele><time>2026-04-12T09:31:16Z</time></trkpt><trkpt lat="45.71261054698266" lon="10.118852690257045"><ele>316.0</ele><time>2026-04-12T09:31:17Z</time></trkpt><trkpt lat="45.712682951261634" lon="10.11882095277309"><ele>316.0</ele><time>2026-04-12T09:31:18Z</time></trkpt><trkpt lat="45.712765607177424" lon="10.118805852133754"><ele>316.0</ele><time>2026-04-12T09:31:19Z</time></trkpt><trkpt lat="45.712854429453515" lon="10.118796915050812"><ele>316.0</ele><time>2026-04-12T09:31:20Z</time></trkpt><trkpt lat="45.71295355068437" lon="10.118776031384318"><ele>318.6</ele><time>2026-04-12T09:31:21Z</time></trkpt><trkpt lat="45.71304557548993" lon="10.11875263125334"><ele>321.20000000000005</ele><time>2026-04-12T09:31:22Z</time></trkpt><trkpt lat="45.71315230239789" lon="10.118714862691144"><ele>323.79999999999995</ele><time>2026-04-12T09:31:23Z</time></trkpt><trkpt lat="45.71326729229358" lon="10.11866394484665"><ele>326.4</ele><time>2026-04-12T09:31:24Z</time></trkpt><trkpt lat="45.713386090232845" lon="10.118626848926123"><ele>329.0</ele><time>2026-04-12T09:31:25Z</time></trkpt><trkpt lat="45.71351205698819" lon="10.11858512242189"><ele>330.75</ele><time>2026-04-12T09:31:26Z</time></trkpt><trkpt lat="45.713638697094176" lon="10.11854077456169"><ele>332.5</ele><time>2026-04-12T09:31:27Z</time></trkpt><trkpt lat="45.71376057789288" lon="10.11849399449514"><ele>334.25</ele><time>2026-04-12T09:31:28Z</time></trkpt><trkpt lat="45.71388356767994" lon="10.11844825073625"><ele>336.0</ele><time>2026-04-12T09:31:29Z</time></trkpt><trkpt lat="45.7140043346009" lon="10.118410292327672"><ele>336.0</ele><time>2026-04-12T09:31:30Z</time></trkpt><trkpt lat="45.71412542174982" lon="10.118377858877041"><ele>336.0</ele><time>2026-04-12T09:31:31Z</time></trkpt><trkpt lat="45.7142485063552" lon="10.118351368886131"><ele>336.0</ele><time>2026-04-12T09:31:32Z</time></trkpt><trkpt lat="45.71437216076007" lon="10.118326339304081"><ele>336.0</ele><time>2026-04-12T09:31:33Z</time></trkpt><trkpt lat="45.714496951693334" lon="10.118308490400072"><ele>338.5</ele><time>2026-04-12T09:31:34Z</time></trkpt><trkpt lat="45.714625890913965" lon="10.11829295545067"><ele>341.0</ele><time>2026-04-12T09:31:35Z</time></trkpt><trkpt lat="45.71475023362402" lon="10.118279423213217"><ele>343.5</ele><time>2026-04-12T09:31:36Z</time></trkpt><trkpt lat="45.714867661149896" lon="10.11825940840003"><ele>346.0</ele><time>2026-04-12T09:31:37Z</time></trkpt><trkpt lat="45.714982505058764" lon="10.118239617661926"><ele>343.0</ele><time>2026-04-12T09:31:38Z</time></trkpt><trkpt lat="45.7150775509848" lon="10.118169583504265"><ele>340.0</ele><time>2026-04-12T09:31:39Z</time></trkpt><trkpt lat="45.71517362999643" lon="10.118073126705008"><ele>337.0</ele><time>2026-04-12T09:31:40Z</time></trkpt><trkpt lat="45.71527842571951" lon="10.117983569738394"><ele>334.0</ele><time>2026-04-12T09:31:41Z</time></trkpt><trkpt lat="45.715393159281966" lon="10.117897533416487"><ele>334.0</ele><time>2026-04-12T09:31:42Z</time></trkpt><trkpt lat="45.71550727720329" lon="10.117811521783018"><ele>334.0</ele><time>2026-04-12T09:31:43Z</time></trkpt><trkpt lat="45.71561793300171" lon="10.117719801897742"><ele>334.0</ele><time>2026-04-12T09:31:44Z</time></trkpt><trkpt lat="45.715719086518" lon="10.117633922665718"><ele>334.0</ele><time>2026-04-12T09:31:45Z</time></trkpt><trkpt lat="45.71581967990996" lon="10.117554400464293"><ele>334.0</ele><time>2026-04-12T09:31:46Z</time></trkpt><trkpt lat="45.71591238831832" lon="10.117475165331731"><ele>334.0</ele><time>2026-04-12T09:31:47Z</time></trkpt><trkpt lat="45.716001544368986" lon="10.117414084469276"><ele>334.0</ele><time>2026-04-12T09:31:48Z</time></trkpt><trkpt lat="45.71609254220345" lon="10.117378396148476"><ele>334.0</ele><time>2026-04-12T09:31:49Z</time></trkpt><trkpt lat="45.716194621746176" lon="10.117366088216976"><ele>334.0</ele><time>2026-04-12T09:31:50Z</time></trkpt><trkpt lat="45.71630708109726" lon="10.11736645634225"><ele>335.0</ele><time>2026-04-12T09:31:51Z</time></trkpt><trkpt lat="45.71641285454833" lon="10.11737861724794"><ele>336.0</ele><time>2026-04-12T09:31:52Z</time></trkpt><trkpt lat="45.71650668482423" lon="10.117410163159706"><ele>337.0</ele><time>2026-04-12T09:31:53Z</time></trkpt><trkpt lat="45.71658652033772" lon="10.117468130806364"><ele>338.0</ele><time>2026-04-12T09:31:54Z</time></trkpt><trkpt lat="45.7166504714259" lon="10.117560107010036"><ele>339.0</ele><time>2026-04-12T09:31:55Z</time></trkpt><trkpt lat="45.716714353558466" lon="10.117657043340234"><ele>339.0</ele><time>2026-04-12T09:31:56Z</time></trkpt><trkpt lat="45.716797618167874" lon="10.117727225050668"><ele>339.0</ele><time>2026-04-12T09:31:57Z</time></trkpt><trkpt lat="45.7168868810681" lon="10.117761190487464"><ele>339.0</ele><time>2026-04-12T09:31:58Z</time></trkpt><trkpt lat="45.71696951271253" lon="10.117793916109251"><ele>339.0</ele><time>2026-04-12T09:31:59Z</time></trkpt><trkpt lat="45.71703445260856" lon="10.11782447680451"><ele>339.0</ele><time>2026-04-12T09:32:00Z</time></trkpt><trkpt lat="45.71714683699602" lon="10.117808616553088"><ele>337.79999999999995</ele><time>2026-04-12T09:32:02Z</time></trkpt><trkpt lat="45.717193667178535" lon="10.117686386308531"><ele>336.59999999999997</ele><time>2026-04-12T09:32:04Z</time></trkpt><trkpt lat="45.71716071621569" lon="10.117498367728642"><ele>335.4</ele><time>2026-04-12T09:32:06Z</time></trkpt><trkpt lat="45.71714738225119" lon="10.117395321600526"><ele>334.2</ele><time>2026-04-12T09:32:07Z</time></trkpt><trkpt lat="45.717140929077814" lon="10.117295816545878"><ele>333.0</ele><time>2026-04-12T09:32:08Z</time></trkpt><trkpt lat="45.717161822088876" lon="10.117184117628224"><ele>333.0</ele><time>2026-04-12T09:32:09Z</time></trkpt><trkpt lat="45.71719514594166" lon="10.11707612418841"><ele>333.0</ele><time>2026-04-12T09:32:10Z</time></trkpt><trkpt lat="45.71720627066184" lon="10.116953690171474"><ele>333.0</ele><time>2026-04-12T09:32:11Z</time></trkpt><trkpt lat="45.71723987511912" lon="10.116848956068507"><ele>333.0</ele><time>2026-04-12T09:32:12Z</time></trkpt><trkpt lat="45.71726310255275" lon="10.116758838826"><ele>333.0</ele><time>2026-04-12T09:32:13Z</time></trkpt><trkpt lat="45.717332567880135" lon="10.116634455588944"><ele>333.0</ele><time>2026-04-12T09:32:15Z</time></trkpt><trkpt lat="45.71742372128636" lon="10.116679743781933"><ele>333.0</ele><time>2026-04-12T09:32:17Z</time></trkpt><trkpt lat="45.71748305105359" lon="10.116733619699463"><ele>333.0</ele><time>2026-04-12T09:32:18Z</time></trkpt><trkpt lat="45.71754835808313" lon="10.116799730586406"><ele>333.0</ele><time>2026-04-12T09:32:19Z</time></trkpt><trkpt lat="45.71764092620266" lon="10.116800201145361"><ele>333.0</ele><time>2026-04-12T09:32:20Z</time></trkpt><trkpt lat="45.71772410956873" lon="10.116808415058221"><ele>333.0</ele><time>2026-04-12T09:32:21Z</time></trkpt><trkpt lat="45.71780141557763" lon="10.11676911891673"><ele>333.0</ele><time>2026-04-12T09:32:22Z</time></trkpt><trkpt lat="45.717856450609816" lon="10.116693879113921"><ele>332.2</ele><time>2026-04-12T09:32:23Z</time></trkpt><trkpt lat="45.71790740391409" lon="10.11658711272136"><ele>331.4</ele><time>2026-04-12T09:32:24Z</time></trkpt><trkpt lat="45.71795465974658" lon="10.116478346871125"><ele>330.59999999999997</ele><time>2026-04-12T09:32:25Z</time></trkpt><trkpt lat="45.71802854156748" lon="10.116378827891092"><ele>329.79999999999995</ele><time>2026-04-12T09:32:26Z</time></trkpt><trkpt lat="45.71808914688684" lon="10.11627860841337"><ele>329.0</ele><time>2026-04-12T09:32:27Z</time></trkpt><trkpt lat="45.7181448277469" lon="10.116173253836411"><ele>329.0</ele><time>2026-04-12T09:32:28Z</time></trkpt><trkpt lat="45.71821973392241" lon="10.116119925170345"><ele>329.0</ele><time>2026-04-12T09:32:29Z</time></trkpt><trkpt lat="45.718302311611424" lon="10.116127783339474"><ele>329.0</ele><time>2026-04-12T09:32:30Z</time></trkpt><trkpt lat="45.718396266011844" lon="10.116133451810843"><ele>329.0</ele><time>2026-04-12T09:32:31Z</time></trkpt><trkpt lat="45.71850527011038" lon="10.116130922146139"><ele>329.0</ele><time>2026-04-12T09:32:32Z</time></trkpt><trkpt lat="45.71861784598081" lon="10.11619290466212"><ele>331.75</ele><time>2026-04-12T09:32:33Z</time></trkpt><trkpt lat="45.71873813769881" lon="10.11624526121498"><ele>334.5</ele><time>2026-04-12T09:32:34Z</time></trkpt><trkpt lat="45.71886447411314" lon="10.116307716962897"><ele>337.25</ele><time>2026-04-12T09:32:35Z</time></trkpt><trkpt lat="45.718973536398714" lon="10.116355285984051"><ele>340.0</ele><time>2026-04-12T09:32:36Z</time></trkpt><trkpt lat="45.71907822825939" lon="10.116386698719204"><ele>340.0</ele><time>2026-04-12T09:32:37Z</time></trkpt><trkpt lat="45.71918125311477" lon="10.116385084110515"><ele>340.0</ele><time>2026-04-12T09:32:38Z</time></trkpt><trkpt lat="45.71927205527704" lon="10.11638113830341"><ele>340.0</ele><time>2026-04-12T09:32:39Z</time></trkpt><trkpt lat="45.71934379422721" lon="10.116339071233654"><ele>340.0</ele><time>2026-04-12T09:32:40Z</time></trkpt><trkpt lat="45.719393964927484" lon="10.11625759748796"><ele>340.0</ele><time>2026-04-12T09:32:41Z</time></trkpt><trkpt lat="45.719444090912795" lon="10.116166173395964"><ele>340.0</ele><time>2026-04-12T09:32:42Z</time></trkpt><trkpt lat="45.71950533542662" lon="10.116078879637726"><ele>342.2</ele><time>2026-04-12T09:32:43Z</time></trkpt><trkpt lat="45.71958463280091" lon="10.116030787809622"><ele>344.4</ele><time>2026-04-12T09:32:44Z</time></trkpt><trkpt lat="45.71968562099623" lon="10.116006087831506"><ele>346.6</ele><time>2026-04-12T09:32:45Z</time></trkpt><trkpt lat="45.71979376695743" lon="10.11599937043808"><ele>348.8</ele><time>2026-04-12T09:32:46Z</time></trkpt><trkpt lat="45.71990917428084" lon="10.11598115309277"><ele>351.0</ele><time>2026-04-12T09:32:47Z</time></trkpt><trkpt lat="45.720033450394254" lon="10.11597082584634"><ele>351.0</ele><time>2026-04-12T09:32:48Z</time></trkpt><trkpt lat="45.7201585453361" lon="10.115965486880988"><ele>351.0</ele><time>2026-04-12T09:32:49Z</time></trkpt><trkpt lat="45.7202701372514" lon="10.115933016573166"><ele>351.0</ele><time>2026-04-12T09:32:50Z</time></trkpt><trkpt lat="45.720377593325" lon="10.115898363141394"><ele>351.0</ele><time>2026-04-12T09:32:51Z</time></trkpt><trkpt lat="45.72047603577125" lon="10.115870106911384"><ele>349.5</ele><time>2026-04-12T09:32:52Z</time></trkpt><trkpt lat="45.7205642098461" lon="10.115843777593682"><ele>348.0</ele><time>2026-04-12T09:32:53Z</time></trkpt><trkpt lat="45.72063871860558" lon="10.115789181332138"><ele>346.5</ele><time>2026-04-12T09:32:54Z</time></trkpt><trkpt lat="45.72069845996818" lon="10.115703238203846"><ele>345.0</ele><time>2026-04-12T09:32:55Z</time></trkpt><trkpt lat="45.720750691056764" lon="10.115601270165074"><ele>343.5</ele><time>2026-04-12T09:32:56Z</time></trkpt><trkpt lat="45.72078209193644" lon="10.115480563484333"><ele>342.0</ele><time>2026-04-12T09:32:57Z</time></trkpt><trkpt lat="45.72081452126779" lon="10.11535616177114"><ele>342.0</ele><time>2026-04-12T09:32:58Z</time></trkpt><trkpt lat="45.7208451514434" lon="10.115238662005742"><ele>342.0</ele><time>2026-04-12T09:32:59Z</time></trkpt><trkpt lat="45.72085843698369" lon="10.11513456541808"><ele>342.0</ele><time>2026-04-12T09:33:00Z</time></trkpt><trkpt lat="45.72089039746264" lon="10.115043843652899"><ele>342.0</ele><time>2026-04-12T09:33:01Z</time></trkpt><trkpt lat="45.72094140266676" lon="10.114969708195908"><ele>342.0</ele><time>2026-04-12T09:33:02Z</time></trkpt><trkpt lat="45.721018053148285" lon="10.114920603439796"><ele>342.0</ele><time>2026-04-12T09:33:03Z</time></trkpt><trkpt lat="45.7211030370494" lon="10.114896539837517"><ele>341.6666666666667</ele><time>2026-04-12T09:33:04Z</time></trkpt><trkpt lat="45.721195911640024" lon="10.114874517312145"><ele>341.3333333333333</ele><time>2026-04-12T09:33:05Z</time></trkpt><trkpt lat="45.72128130395208" lon="10.114827037412752"><ele>341.0</ele><time>2026-04-12T09:33:06Z</time></trkpt><trkpt lat="45.721357703855396" lon="10.11479018988178"><ele>340.66666666666663</ele><time>2026-04-12T09:33:07Z</time></trkpt><trkpt lat="45.721414137989846" lon="10.114700957553007"><ele>340.3333333333333</ele><time>2026-04-12T09:33:08Z</time></trkpt><trkpt lat="45.72145406983972" lon="10.114576199301888"><ele>340.0</ele><time>2026-04-12T09:33:09Z</time></trkpt><trkpt lat="45.72147671129489" lon="10.114448616206063"><ele>340.0</ele><time>2026-04-12T09:33:10Z</time></trkpt><trkpt lat="45.72150308780724" lon="10.114324821001425"><ele>340.0</ele><time>2026-04-12T09:33:11Z</time></trkpt><trkpt lat="45.72153673562826" lon="10.114211623196214"><ele>340.0</ele><time>2026-04-12T09:33:12Z</time></trkpt><trkpt lat="45.72159165830107" lon="10.114120073556434"><ele>340.0</ele><time>2026-04-12T09:33:13Z</time></trkpt><trkpt lat="45.721669210826285" lon="10.11406828562583"><ele>340.0</ele><time>2026-04-12T09:33:14Z</time></trkpt><trkpt lat="45.72175563780062" lon="10.11401160906246"><ele>340.0</ele><time>2026-04-12T09:33:15Z</time></trkpt><trkpt lat="45.72184982584479" lon="10.113942413194097"><ele>340.6</ele><time>2026-04-12T09:33:16Z</time></trkpt><trkpt lat="45.72193362743377" lon="10.113869566345532"><ele>341.2</ele><time>2026-04-12T09:33:17Z</time></trkpt><trkpt lat="45.72201007076308" lon="10.113776829510817"><ele>341.79999999999995</ele><time>2026-04-12T09:33:18Z</time></trkpt><trkpt lat="45.72205642281338" lon="10.11364525509164"><ele>342.4</ele><time>2026-04-12T09:33:19Z</time></trkpt><trkpt lat="45.722102106896" lon="10.113544053214998"><ele>343.0</ele><time>2026-04-12T09:33:20Z</time></trkpt><trkpt lat="45.72215920514619" lon="10.113437906835143"><ele>343.0</ele><time>2026-04-12T09:33:21Z</time></trkpt><trkpt lat="45.72223441039451" lon="10.113373139400984"><ele>343.0</ele><time>2026-04-12T09:33:22Z</time></trkpt><trkpt lat="45.72232935545555" lon="10.113306893614375"><ele>343.0</ele><time>2026-04-12T09:33:23Z</time></trkpt><trkpt lat="45.722415365520774" lon="10.11322296019688"><ele>343.0</ele><time>2026-04-12T09:33:24Z</time></trkpt><trkpt lat="45.72250631230527" lon="10.113127080220526"><ele>343.0</ele><time>2026-04-12T09:33:25Z</time></trkpt><trkpt lat="45.72258549821774" lon="10.113004349714029"><ele>342.79999999999995</ele><time>2026-04-12T09:33:26Z</time></trkpt><trkpt lat="45.72264402244577" lon="10.112859107255344"><ele>342.6</ele><time>2026-04-12T09:33:27Z</time></trkpt><trkpt lat="45.72269469702419" lon="10.112713222149027"><ele>342.4</ele><time>2026-04-12T09:33:28Z</time></trkpt><trkpt lat="45.72274906600124" lon="10.112579615175656"><ele>342.20000000000005</ele><time>2026-04-12T09:33:29Z</time></trkpt><trkpt lat="45.72282178513639" lon="10.112479800755471"><ele>342.0</ele><time>2026-04-12T09:33:30Z</time></trkpt><trkpt lat="45.722895606961025" lon="10.112384517798983"><ele>338.0</ele><time>2026-04-12T09:33:31Z</time></trkpt><trkpt lat="45.72296497001421" lon="10.112305831448571"><ele>334.0</ele><time>2026-04-12T09:33:32Z</time></trkpt><trkpt lat="45.72304606680833" lon="10.112270956234944"><ele>330.0</ele><time>2026-04-12T09:33:33Z</time></trkpt><trkpt lat="45.72313217262444" lon="10.112269726603376"><ele>326.0</ele><time>2026-04-12T09:33:34Z</time></trkpt><trkpt lat="45.72320853390995" lon="10.112260214163928"><ele>322.0</ele><time>2026-04-12T09:33:35Z</time></trkpt><trkpt lat="45.72326904062557" lon="10.112196391902955"><ele>318.0</ele><time>2026-04-12T09:33:36Z</time></trkpt><trkpt lat="45.723308052902745" lon="10.112105656485218"><ele>318.0</ele><time>2026-04-12T09:33:37Z</time></trkpt><trkpt lat="45.72332207711617" lon="10.1119883599166"><ele>318.0</ele><time>2026-04-12T09:33:38Z</time></trkpt><trkpt lat="45.72331742346442" lon="10.111861439321782"><ele>318.0</ele><time>2026-04-12T09:33:39Z</time></trkpt><trkpt lat="45.72332061658903" lon="10.111747465083878"><ele>318.0</ele><time>2026-04-12T09:33:40Z</time></trkpt><trkpt lat="45.723351029664386" lon="10.111647642973042"><ele>318.0</ele><time>2026-04-12T09:33:41Z</time></trkpt><trkpt lat="45.72344265937026" lon="10.111585826738391"><ele>318.0</ele><time>2026-04-12T09:33:43Z</time></trkpt><trkpt lat="45.72350659013735" lon="10.11161784344904"><ele>319.0</ele><time>2026-04-12T09:33:44Z</time></trkpt><trkpt lat="45.72358862306981" lon="10.111684871820842"><ele>320.0</ele><time>2026-04-12T09:33:45Z</time></trkpt><trkpt lat="45.723668526179985" lon="10.111741088601732"><ele>321.0</ele><time>2026-04-12T09:33:46Z</time></trkpt><trkpt lat="45.72374848923054" lon="10.111805681207992"><ele>322.0</ele><time>2026-04-12T09:33:47Z</time></trkpt><trkpt lat="45.72382695391413" lon="10.111860376152404"><ele>323.0</ele><time>2026-04-12T09:33:48Z</time></trkpt><trkpt lat="45.72390228218929" lon="10.111886007132583"><ele>324.0</ele><time>2026-04-12T09:33:49Z</time></trkpt><trkpt lat="45.72397541758942" lon="10.111893457064195"><ele>324.0</ele><time>2026-04-12T09:33:50Z</time></trkpt><trkpt lat="45.72404707054371" lon="10.111899298590448"><ele>324.0</ele><time>2026-04-12T09:33:51Z</time></trkpt><trkpt lat="45.72412050665368" lon="10.1118462109737"><ele>324.0</ele><time>2026-04-12T09:33:52Z</time></trkpt><trkpt lat="45.72415894172606" lon="10.11173867059586"><ele>324.0</ele><time>2026-04-12T09:33:53Z</time></trkpt><trkpt lat="45.72420752998706" lon="10.111646327485252"><ele>324.0</ele><time>2026-04-12T09:33:54Z</time></trkpt><trkpt lat="45.72424751094576" lon="10.11155918354408"><ele>324.0</ele><time>2026-04-12T09:33:55Z</time></trkpt><trkpt lat="45.724285187331645" lon="10.111474019798454"><ele>325.5</ele><time>2026-04-12T09:33:56Z</time></trkpt><trkpt lat="45.7243642466921" lon="10.111428630894926"><ele>327.0</ele><time>2026-04-12T09:33:57Z</time></trkpt><trkpt lat="45.724443834482216" lon="10.111386778663558"><ele>328.5</ele><time>2026-04-12T09:33:58Z</time></trkpt><trkpt lat="45.72450572629004" lon="10.111313632617193"><ele>330.0</ele><time>2026-04-12T09:33:59Z</time></trkpt><trkpt lat="45.7245533008644" lon="10.111227572170252"><ele>331.5</ele><time>2026-04-12T09:34:00Z</time></trkpt><trkpt lat="45.724587383043016" lon="10.11112848789886"><ele>333.0</ele><time>2026-04-12T09:34:01Z</time></trkpt><trkpt lat="45.72461885065565" lon="10.111011178188118"><ele>333.0</ele><time>2026-04-12T09:34:02Z</time></trkpt><trkpt lat="45.72465067535166" lon="10.110874050899124"><ele>333.0</ele><time>2026-04-12T09:34:03Z</time></trkpt><trkpt lat="45.724677215386365" lon="10.11072787894524"><ele>333.0</ele><time>2026-04-12T09:34:04Z</time></trkpt><trkpt lat="45.724686751268344" lon="10.11056898779494"><ele>333.0</ele><time>2026-04-12T09:34:05Z</time></trkpt><trkpt lat="45.724693803259235" lon="10.110430651472623"><ele>333.0</ele><time>2026-04-12T09:34:06Z</time></trkpt><trkpt lat="45.72469778745765" lon="10.110310012486707"><ele>329.2857142857143</ele><time>2026-04-12T09:34:07Z</time></trkpt><trkpt lat="45.72471497466808" lon="10.11019082175478"><ele>325.57142857142856</ele><time>2026-04-12T09:34:08Z</time></trkpt><trkpt lat="45.72471438803741" lon="10.110084119501566"><ele>321.85714285714283</ele><time>2026-04-12T09:34:09Z</time></trkpt><trkpt lat="45.72471827397176" lon="10.109991138381366"><ele>318.1428571428571</ele><time>2026-04-12T09:34:10Z</time></trkpt><trkpt lat="45.72476906677499" lon="10.10988572326844"><ele>314.42857142857144</ele><time>2026-04-12T09:34:12Z</time></trkpt><trkpt lat="45.724833848455546" lon="10.10985891126552"><ele>310.71428571428567</ele><time>2026-04-12T09:34:13Z</time></trkpt><trkpt lat="45.72489750012409" lon="10.10983782016268"><ele>307.0</ele><time>2026-04-12T09:34:14Z</time></trkpt><trkpt lat="45.724969860426555" lon="10.109841533564127"><ele>308.3333333333333</ele><time>2026-04-12T09:34:15Z</time></trkpt><trkpt lat="45.725046327007114" lon="10.109839236470432"><ele>309.66666666666663</ele><time>2026-04-12T09:34:16Z</time></trkpt><trkpt lat="45.72512732433799" lon="10.109829161450232"><ele>311.0</ele><time>2026-04-12T09:34:17Z</time></trkpt><trkpt lat="45.725190932030515" lon="10.109809860892241"><ele>312.3333333333333</ele><time>2026-04-12T09:34:18Z</time></trkpt><trkpt lat="45.72530364698654" lon="10.109752211711914"><ele>313.6666666666667</ele><time>2026-04-12T09:34:20Z</time></trkpt><trkpt lat="45.7253439587272" lon="10.109669778749552"><ele>315.0</ele><time>2026-04-12T09:34:21Z</time></trkpt><trkpt lat="45.72535701512992" lon="10.1095656954154"><ele>315.0</ele><time>2026-04-12T09:34:22Z</time></trkpt><trkpt lat="45.72532133721107" lon="10.109462158631269"><ele>315.0</ele><time>2026-04-12T09:34:23Z</time></trkpt><trkpt lat="45.72532049650366" lon="10.109348714671402"><ele>315.0</ele><time>2026-04-12T09:34:24Z</time></trkpt><trkpt lat="45.7253002574518" lon="10.10923807110893"><ele>315.0</ele><time>2026-04-12T09:34:25Z</time></trkpt><trkpt lat="45.72531344386016" lon="10.109129344549604"><ele>315.0</ele><time>2026-04-12T09:34:26Z</time></trkpt><trkpt lat="45.72532842304131" lon="10.109036850833691"><ele>315.0</ele><time>2026-04-12T09:34:27Z</time></trkpt><trkpt lat="45.72536111939926" lon="10.108949287710029"><ele>311.1666666666667</ele><time>2026-04-12T09:34:28Z</time></trkpt><trkpt lat="45.7254045396807" lon="10.108869585728323"><ele>307.3333333333333</ele><time>2026-04-12T09:34:29Z</time></trkpt><trkpt lat="45.72546379427783" lon="10.108815200161956"><ele>303.5</ele><time>2026-04-12T09:34:30Z</time></trkpt><trkpt lat="45.725527183371625" lon="10.108787672229168"><ele>299.66666666666663</ele><time>2026-04-12T09:34:31Z</time></trkpt><trkpt lat="45.72563895248013" lon="10.108690187951415"><ele>295.8333333333333</ele><time>2026-04-12T09:34:33Z</time></trkpt><trkpt lat="45.72568436161388" lon="10.108614825114056"><ele>292.0</ele><time>2026-04-12T09:34:34Z</time></trkpt><trkpt lat="45.72572239950174" lon="10.108523759884184"><ele>292.0</ele><time>2026-04-12T09:34:35Z</time></trkpt><trkpt lat="45.7257495771453" lon="10.108419140084901"><ele>292.0</ele><time>2026-04-12T09:34:36Z</time></trkpt><trkpt lat="45.72577041173287" lon="10.10831492016721"><ele>292.0</ele><time>2026-04-12T09:34:37Z</time></trkpt><trkpt lat="45.725790114426005" lon="10.108219438860829"><ele>292.0</ele><time>2026-04-12T09:34:38Z</time></trkpt><trkpt lat="45.725839319605356" lon="10.108067953566243"><ele>292.0</ele><time>2026-04-12T09:34:40Z</time></trkpt><trkpt lat="45.72589999677159" lon="10.107940541520621"><ele>292.0</ele><time>2026-04-12T09:34:42Z</time></trkpt><trkpt lat="45.72586268112376" lon="10.107816562864029"><ele>292.0</ele><time>2026-04-12T09:34:44Z</time></trkpt><trkpt lat="45.72574242757022" lon="10.107829601453098"><ele>292.0</ele><time>2026-04-12T09:34:46Z</time></trkpt><trkpt lat="45.725724569529916" lon="10.107959549884967"><ele>292.0</ele><time>2026-04-12T09:34:47Z</time></trkpt><trkpt lat="45.725709865467906" lon="10.1080581784575"><ele>292.0</ele><time>2026-04-12T09:34:48Z</time></trkpt><trkpt lat="45.72568688252084" lon="10.108168067265328"><ele>292.0</ele><time>2026-04-12T09:34:49Z</time></trkpt><trkpt lat="45.72564514507128" lon="10.108274194630678"><ele>292.0</ele><time>2026-04-12T09:34:50Z</time></trkpt><trkpt lat="45.72557998303716" lon="10.108338733780071"><ele>292.0</ele><time>2026-04-12T09:34:51Z</time></trkpt><trkpt lat="45.72551795134403" lon="10.108406433882775"><ele>292.0</ele><time>2026-04-12T09:34:52Z</time></trkpt><trkpt lat="45.72545212482218" lon="10.108474941621632"><ele>292.0</ele><time>2026-04-12T09:34:53Z</time></trkpt><trkpt lat="45.72537406190373" lon="10.108501329007495"><ele>292.0</ele><time>2026-04-12T09:34:54Z</time></trkpt><trkpt lat="45.72529962066507" lon="10.108502441689573"><ele>292.0</ele><time>2026-04-12T09:34:55Z</time></trkpt><trkpt lat="45.72523242739807" lon="10.108510910347022"><ele>292.0</ele><time>2026-04-12T09:34:56Z</time></trkpt><trkpt lat="45.725167130639" lon="10.108526234233272"><ele>292.0</ele><time>2026-04-12T09:34:57Z</time></trkpt><trkpt lat="45.725103198631054" lon="10.108566735817691"><ele>285.8333333333333</ele><time>2026-04-12T09:34:58Z</time></trkpt><trkpt lat="45.72505059500235" lon="10.108634853634419"><ele>279.66666666666663</ele><time>2026-04-12T09:34:59Z</time></trkpt><trkpt lat="45.72500447613996" lon="10.108717951162218"><ele>273.5</ele><time>2026-04-12T09:35:00Z</time></trkpt><trkpt lat="45.724937385482555" lon="10.108775653181821"><ele>267.3333333333333</ele><time>2026-04-12T09:35:01Z</time></trkpt><trkpt lat="45.724882182687246" lon="10.108841998977145"><ele>261.1666666666667</ele><time>2026-04-12T09:35:02Z</time></trkpt><trkpt lat="45.72480056728619" lon="10.108847565070034"><ele>255.0</ele><time>2026-04-12T09:35:03Z</time></trkpt><trkpt lat="45.72472054176693" lon="10.108844948405375"><ele>255.0</ele><time>2026-04-12T09:35:04Z</time></trkpt><trkpt lat="45.7246397202609" lon="10.108834358104042"><ele>255.0</ele><time>2026-04-12T09:35:05Z</time></trkpt><trkpt lat="45.72455446522768" lon="10.108824215037812"><ele>255.0</ele><time>2026-04-12T09:35:06Z</time></trkpt><trkpt lat="45.724469601286714" lon="10.108831447919794"><ele>255.0</ele><time>2026-04-12T09:35:07Z</time></trkpt><trkpt lat="45.72439761152055" lon="10.108856287057332"><ele>255.0</ele><time>2026-04-12T09:35:08Z</time></trkpt><trkpt lat="45.72433919231593" lon="10.108891282411394"><ele>255.0</ele><time>2026-04-12T09:35:09Z</time></trkpt><trkpt lat="45.724267907779605" lon="10.108956265885594"><ele>255.0</ele><time>2026-04-12T09:35:11Z</time></trkpt><trkpt lat="45.72423263919101" lon="10.108860463194535"><ele>255.0</ele><time>2026-04-12T09:35:14Z</time></trkpt><trkpt lat="45.724345031875096" lon="10.108798883356249"><ele>255.0</ele><time>2026-04-12T09:35:16Z</time></trkpt><trkpt lat="45.72438540713645" lon="10.108727239829006"><ele>255.0</ele><time>2026-04-12T09:35:17Z</time></trkpt><trkpt lat="45.72445751513022" lon="10.108638463181805"><ele>255.0</ele><time>2026-04-12T09:35:19Z</time></trkpt><trkpt lat="45.72450140700812" lon="10.108538091461295"><ele>255.0</ele><time>2026-04-12T09:35:21Z</time></trkpt><trkpt lat="45.72450406273843" lon="10.108440772731285"><ele>255.0</ele><time>2026-04-12T09:35:23Z</time></trkpt><trkpt lat="45.72444621560845" lon="10.10834663075436"><ele>255.0</ele><time>2026-04-12T09:35:25.001Z</time></trkpt><trkpt lat="45.724408544091" lon="10.108259726893062"><ele>255.0</ele><time>2026-04-12T09:35:27.001Z</time></trkpt><trkpt lat="45.72443478540728" lon="10.108110771359465"><ele>255.0</ele><time>2026-04-12T09:35:29.001Z</time></trkpt><trkpt lat="45.72448685379567" lon="10.108039412996861"><ele>255.0</ele><time>2026-04-12T09:35:30.001Z</time></trkpt><trkpt lat="45.72452322784409" lon="10.107959166660558"><ele>255.0</ele><time>2026-04-12T09:35:31.001Z</time></trkpt><trkpt lat="45.72455612234092" lon="10.10783462493314"><ele>252.0</ele><time>2026-04-12T09:35:33.001Z</time></trkpt><trkpt lat="45.72461569959437" lon="10.10775981689185"><ele>249.0</ele><time>2026-04-12T09:35:35.001Z</time></trkpt><trkpt lat="45.72469171350795" lon="10.107653295932813"><ele>246.0</ele><time>2026-04-12T09:35:37.001Z</time></trkpt><trkpt lat="45.72474269439316" lon="10.107542561593993"><ele>243.0</ele><time>2026-04-12T09:35:39.001Z</time></trkpt><trkpt lat="45.7247758224587" lon="10.10743761045126"><ele>240.0</ele><time>2026-04-12T09:35:41Z</time></trkpt><trkpt lat="45.72476539979268" lon="10.10733122364928"><ele>237.0</ele><time>2026-04-12T09:35:43Z</time></trkpt><trkpt lat="45.7246747892921" lon="10.107284709931282"><ele>233.39999999999998</ele><time>2026-04-12T09:35:46Z</time></trkpt><trkpt lat="45.7246180122165" lon="10.107325973812928"><ele>229.79999999999998</ele><time>2026-04-12T09:35:47Z</time></trkpt><trkpt lat="45.724502610382224" lon="10.107362564693382"><ele>226.2</ele><time>2026-04-12T09:35:49Z</time></trkpt><trkpt lat="45.724422065962294" lon="10.107381578214355"><ele>222.6</ele><time>2026-04-12T09:35:51Z</time></trkpt><trkpt lat="45.72434246244422" lon="10.107376640243578"><ele>219.0</ele><time>2026-04-12T09:35:53Z</time></trkpt><trkpt lat="45.724227490153666" lon="10.10735930814323"><ele>218.83333333333334</ele><time>2026-04-12T09:35:55Z</time></trkpt><trkpt lat="45.72416145794546" lon="10.107399859410236"><ele>218.66666666666669</ele><time>2026-04-12T09:35:56Z</time></trkpt><trkpt lat="45.72409840940545" lon="10.1074520999024"><ele>218.5</ele><time>2026-04-12T09:35:57Z</time></trkpt><trkpt lat="45.7240370038665" lon="10.107516910308222"><ele>218.33333333333334</ele><time>2026-04-12T09:35:58Z</time></trkpt><trkpt lat="45.72397874612624" lon="10.107601384184454"><ele>218.16666666666669</ele><time>2026-04-12T09:35:59Z</time></trkpt><trkpt lat="45.72391105010584" lon="10.107678326341588"><ele>218.0</ele><time>2026-04-12T09:36:00Z</time></trkpt><trkpt lat="45.723886684270056" lon="10.107787467497632"><ele>218.00000000000003</ele><time>2026-04-12T09:36:01Z</time></trkpt><trkpt lat="45.72380882577829" lon="10.107945598741905"><ele>218.0</ele><time>2026-04-12T09:36:03Z</time></trkpt><trkpt lat="45.723757728959214" lon="10.108036228406835"><ele>218.0</ele><time>2026-04-12T09:36:04Z</time></trkpt><trkpt lat="45.72369807855294" lon="10.108101818499556"><ele>218.0</ele><time>2026-04-12T09:36:05Z</time></trkpt><trkpt lat="45.72364526965062" lon="10.108156701698856"><ele>218.00000000000003</ele><time>2026-04-12T09:36:06Z</time></trkpt><trkpt lat="45.723581082104275" lon="10.108211255966152"><ele>218.0</ele><time>2026-04-12T09:36:07Z</time></trkpt><trkpt lat="45.72352306187736" lon="10.108276725920273"><ele>217.50000000000003</ele><time>2026-04-12T09:36:08Z</time></trkpt><trkpt lat="45.72346119424239" lon="10.108313745605075"><ele>217.0</ele><time>2026-04-12T09:36:09Z</time></trkpt><trkpt lat="45.723397200239766" lon="10.108323421912516"><ele>216.5</ele><time>2026-04-12T09:36:10Z</time></trkpt><trkpt lat="45.723321636657" lon="10.108315991885352"><ele>216.0</ele><time>2026-04-12T09:36:11Z</time></trkpt><trkpt lat="45.72319702556621" lon="10.10832219600008"><ele>215.50000000000003</ele><time>2026-04-12T09:36:13Z</time></trkpt><trkpt lat="45.723098583488586" lon="10.108363337116526"><ele>215.0</ele><time>2026-04-12T09:36:15Z</time></trkpt><trkpt lat="45.72303439107363" lon="10.108396769249278"><ele>215.00000000000003</ele><time>2026-04-12T09:36:16Z</time></trkpt><trkpt lat="45.72296462368034" lon="10.108434260657505"><ele>215.0</ele><time>2026-04-12T09:36:17Z</time></trkpt><trkpt lat="45.72288995965435" lon="10.108472450193425"><ele>215.0</ele><time>2026-04-12T09:36:18Z</time></trkpt><trkpt lat="45.722847629468035" lon="10.10857230527455"><ele>215.0</ele><time>2026-04-12T09:36:19Z</time></trkpt><trkpt lat="45.722786319417345" lon="10.108656856032505"><ele>215.00000000000003</ele><time>2026-04-12T09:36:20Z</time></trkpt><trkpt lat="45.72271550749855" lon="10.108752722353062"><ele>215.0</ele><time>2026-04-12T09:36:21Z</time></trkpt><trkpt lat="45.72263662961117" lon="10.10883806219515"><ele>214.8</ele><time>2026-04-12T09:36:22Z</time></trkpt><trkpt lat="45.722575227960206" lon="10.108926937012104"><ele>214.6</ele><time>2026-04-12T09:36:23Z</time></trkpt><trkpt lat="45.722509037337396" lon="10.109023257094899"><ele>214.39999999999998</ele><time>2026-04-12T09:36:24Z</time></trkpt><trkpt lat="45.7224199802877" lon="10.109114560689228"><ele>214.2</ele><time>2026-04-12T09:36:25Z</time></trkpt><trkpt lat="45.722323957040174" lon="10.109220906721404"><ele>214.0</ele><time>2026-04-12T09:36:26Z</time></trkpt><trkpt lat="45.72221274406898" lon="10.109319179860707"><ele>214.0</ele><time>2026-04-12T09:36:27Z</time></trkpt><trkpt lat="45.72209926765288" lon="10.109404999006141"><ele>214.0</ele><time>2026-04-12T09:36:28Z</time></trkpt><trkpt lat="45.721984583682314" lon="10.109484289192785"><ele>214.0</ele><time>2026-04-12T09:36:29Z</time></trkpt><trkpt lat="45.721872035833684" lon="10.109519729209053"><ele>214.0</ele><time>2026-04-12T09:36:30Z</time></trkpt><trkpt lat="45.72175592796979" lon="10.109554086442605"><ele>210.99999999999997</ele><time>2026-04-12T09:36:31Z</time></trkpt><trkpt lat="45.72165745629226" lon="10.1096031778009"><ele>208.0</ele><time>2026-04-12T09:36:32Z</time></trkpt><trkpt lat="45.72157603155579" lon="10.109680353659915"><ele>205.0</ele><time>2026-04-12T09:36:33Z</time></trkpt><trkpt lat="45.721513552600285" lon="10.109764658365192"><ele>202.0</ele><time>2026-04-12T09:36:34Z</time></trkpt><trkpt lat="45.72146366561965" lon="10.109823156462873"><ele>198.99999999999997</ele><time>2026-04-12T09:36:35Z</time></trkpt><trkpt lat="45.72140080186147" lon="10.109836374828609"><ele>196.0</ele><time>2026-04-12T09:36:36Z</time></trkpt><trkpt lat="45.72132096926725" lon="10.10976380299538"><ele>195.99999999999997</ele><time>2026-04-12T09:36:38Z</time></trkpt><trkpt lat="45.721288874464996" lon="10.109680356105587"><ele>196.0</ele><time>2026-04-12T09:36:39Z</time></trkpt><trkpt lat="45.721309774615705" lon="10.109518850391884"><ele>196.0</ele><time>2026-04-12T09:36:41Z</time></trkpt><trkpt lat="45.721363960195845" lon="10.109472147559009"><ele>196.0</ele><time>2026-04-12T09:36:42Z</time></trkpt><trkpt lat="45.72143040592429" lon="10.109448225142042"><ele>195.99999999999997</ele><time>2026-04-12T09:36:43Z</time></trkpt><trkpt lat="45.72150201053242" lon="10.109440158823755"><ele>196.0</ele><time>2026-04-12T09:36:44Z</time></trkpt><trkpt lat="45.72157213928311" lon="10.10939631790347"><ele>196.0</ele><time>2026-04-12T09:36:45Z</time></trkpt><trkpt lat="45.72163519040939" lon="10.109325450964208"><ele>196.0</ele><time>2026-04-12T09:36:46Z</time></trkpt><trkpt lat="45.72175093992411" lon="10.1091518702777"><ele>196.0</ele><time>2026-04-12T09:36:48Z</time></trkpt><trkpt lat="45.72179178742739" lon="10.109068488353715"><ele>196.0</ele><time>2026-04-12T09:36:49Z</time></trkpt><trkpt lat="45.72181712661923" lon="10.108976168349992"><ele>196.0</ele><time>2026-04-12T09:36:50Z</time></trkpt><trkpt lat="45.72183548103223" lon="10.108888587716244"><ele>194.49999999999997</ele><time>2026-04-12T09:36:51Z</time></trkpt><trkpt lat="45.72178220815028" lon="10.10878881689"><ele>193.0</ele><time>2026-04-12T09:36:52Z</time></trkpt><trkpt lat="45.72173889530977" lon="10.10871370878973"><ele>191.5</ele><time>2026-04-12T09:36:53Z</time></trkpt><trkpt lat="45.72168145917435" lon="10.108602862445391"><ele>190.0</ele><time>2026-04-12T09:36:55Z</time></trkpt><trkpt lat="45.72163457156969" lon="10.108530447207748"><ele>188.5</ele><time>2026-04-12T09:36:58Z</time></trkpt><trkpt lat="45.721705026591756" lon="10.108391696146272"><ele>187.0</ele><time>2026-04-12T09:37:25Z</time></trkpt><trkpt lat="45.721758969430084" lon="10.108314174370815"><ele>187.8</ele><time>2026-04-12T09:37:26Z</time></trkpt><trkpt lat="45.72181432362156" lon="10.108233754804035"><ele>188.6</ele><time>2026-04-12T09:37:27Z</time></trkpt><trkpt lat="45.72188016186123" lon="10.108136501892778"><ele>189.4</ele><time>2026-04-12T09:37:28.001Z</time></trkpt><trkpt lat="45.72195596097844" lon="10.108033396383075"><ele>190.20000000000002</ele><time>2026-04-12T09:37:29.001Z</time></trkpt><trkpt lat="45.722030626498125" lon="10.107919938530241"><ele>191.0</ele><time>2026-04-12T09:37:30.001Z</time></trkpt><trkpt lat="45.72210673044028" lon="10.107799285914455"><ele>191.0</ele><time>2026-04-12T09:37:31.001Z</time></trkpt><trkpt lat="45.72218577699876" lon="10.107670948644706"><ele>191.0</ele><time>2026-04-12T09:37:32.001Z</time></trkpt><trkpt lat="45.722273984529714" lon="10.107551432023188"><ele>191.0</ele><time>2026-04-12T09:37:33.001Z</time></trkpt><trkpt lat="45.722368419517096" lon="10.107434855695447"><ele>191.0</ele><time>2026-04-12T09:37:34.001Z</time></trkpt><trkpt lat="45.72246431262577" lon="10.107323975829196"><ele>191.0</ele><time>2026-04-12T09:37:35.001Z</time></trkpt><trkpt lat="45.72256476498522" lon="10.107213042453154"><ele>191.0</ele><time>2026-04-12T09:37:36.001Z</time></trkpt><trkpt lat="45.72266866417616" lon="10.107109206281766"><ele>191.0</ele><time>2026-04-12T09:37:37.001Z</time></trkpt><trkpt lat="45.72277580477049" lon="10.106998699659023"><ele>191.0</ele><time>2026-04-12T09:37:38.001Z</time></trkpt><trkpt lat="45.72288072836838" lon="10.106891809197684"><ele>191.0</ele><time>2026-04-12T09:37:39.001Z</time></trkpt><trkpt lat="45.72298596493214" lon="10.106786146013588"><ele>191.0</ele><time>2026-04-12T09:37:40.001Z</time></trkpt><trkpt lat="45.723094012785104" lon="10.106681912617647"><ele>191.0</ele><time>2026-04-12T09:37:41.001Z</time></trkpt><trkpt lat="45.72320396876509" lon="10.106573910654747"><ele>191.0</ele><time>2026-04-12T09:37:42.001Z</time></trkpt><trkpt lat="45.72331643289162" lon="10.106468262814849"><ele>191.0</ele><time>2026-04-12T09:37:43.001Z</time></trkpt><trkpt lat="45.72342752092274" lon="10.106356528557155"><ele>191.0</ele><time>2026-04-12T09:37:44.001Z</time></trkpt><trkpt lat="45.72353755647588" lon="10.106254357782733"><ele>191.0</ele><time>2026-04-12T09:37:45.001Z</time></trkpt><trkpt lat="45.72365024264352" lon="10.106139924817308"><ele>191.0</ele><time>2026-04-12T09:37:46.001Z</time></trkpt><trkpt lat="45.72376522548127" lon="10.106029315263184"><ele>191.0</ele><time>2026-04-12T09:37:47Z</time></trkpt><trkpt lat="45.72388030650668" lon="10.105915778354545"><ele>191.0</ele><time>2026-04-12T09:37:48Z</time></trkpt><trkpt lat="45.72399822042321" lon="10.10579472449386"><ele>191.0</ele><time>2026-04-12T09:37:49Z</time></trkpt><trkpt lat="45.724115128732464" lon="10.105676028690924"><ele>191.0</ele><time>2026-04-12T09:37:50Z</time></trkpt><trkpt lat="45.72423421141568" lon="10.105562541509295"><ele>191.75</ele><time>2026-04-12T09:37:51Z</time></trkpt><trkpt lat="45.724351611839914" lon="10.10544895750936"><ele>192.5</ele><time>2026-04-12T09:37:52Z</time></trkpt><trkpt lat="45.724470563332275" lon="10.105333902900448"><ele>193.25</ele><time>2026-04-12T09:37:53Z</time></trkpt><trkpt lat="45.72459274830216" lon="10.105221770673937"><ele>194.0</ele><time>2026-04-12T09:37:54Z</time></trkpt><trkpt lat="45.72471203923321" lon="10.10510571977586"><ele>194.0</ele><time>2026-04-12T09:37:55Z</time></trkpt><trkpt lat="45.72483260986717" lon="10.104982346624206"><ele>194.0</ele><time>2026-04-12T09:37:56Z</time></trkpt><trkpt lat="45.724951273241096" lon="10.104868282302021"><ele>194.0</ele><time>2026-04-12T09:37:57Z</time></trkpt><trkpt lat="45.72506353979602" lon="10.104765298099469"><ele>194.0</ele><time>2026-04-12T09:37:58Z</time></trkpt><trkpt lat="45.72516428047993" lon="10.104670520226213"><ele>193.6</ele><time>2026-04-12T09:37:59Z</time></trkpt><trkpt lat="45.725252654298274" lon="10.104580597750438"><ele>193.2</ele><time>2026-04-12T09:38:00Z</time></trkpt><trkpt lat="45.72533170442416" lon="10.104491690582327"><ele>192.79999999999998</ele><time>2026-04-12T09:38:01Z</time></trkpt><trkpt lat="45.72540670832712" lon="10.10441133885973"><ele>192.39999999999998</ele><time>2026-04-12T09:38:02Z</time></trkpt><trkpt lat="45.72548090320843" lon="10.104341536205817"><ele>192.0</ele><time>2026-04-12T09:38:03Z</time></trkpt><trkpt lat="45.72555692564324" lon="10.10427985683739"><ele>192.0</ele><time>2026-04-12T09:38:04Z</time></trkpt><trkpt lat="45.725646502024354" lon="10.104243675404003"><ele>192.0</ele><time>2026-04-12T09:38:05Z</time></trkpt><trkpt lat="45.725753763307864" lon="10.104234218888534"><ele>192.0</ele><time>2026-04-12T09:38:06Z</time></trkpt><trkpt lat="45.72582266329164" lon="10.104192439014385"><ele>192.0</ele><time>2026-04-12T09:38:07Z</time></trkpt><trkpt lat="45.725905202912564" lon="10.104137716575678"><ele>192.0</ele><time>2026-04-12T09:38:08Z</time></trkpt><trkpt lat="45.7259840692985" lon="10.10407648457062"><ele>191.83333333333334</ele><time>2026-04-12T09:38:09Z</time></trkpt><trkpt lat="45.72604937560305" lon="10.103987127609296"><ele>191.66666666666666</ele><time>2026-04-12T09:38:10Z</time></trkpt><trkpt lat="45.72609251716207" lon="10.103872930378719"><ele>191.5</ele><time>2026-04-12T09:38:11Z</time></trkpt><trkpt lat="45.726153213369756" lon="10.103781772899685"><ele>191.33333333333331</ele><time>2026-04-12T09:38:12Z</time></trkpt><trkpt lat="45.726191052264426" lon="10.103694229371348"><ele>191.16666666666666</ele><time>2026-04-12T09:38:13Z</time></trkpt><trkpt lat="45.72623889839751" lon="10.103560814406151"><ele>191.0</ele><time>2026-04-12T09:38:15Z</time></trkpt><trkpt lat="45.726276673539274" lon="10.103470468221833"><ele>192.33333333333331</ele><time>2026-04-12T09:38:17Z</time></trkpt><trkpt lat="45.72630474264497" lon="10.103380336454729"><ele>193.66666666666666</ele><time>2026-04-12T09:38:21Z</time></trkpt><trkpt lat="45.72634020932226" lon="10.103262819085078"><ele>195.0</ele><time>2026-04-12T09:39:03.001Z</time></trkpt><trkpt lat="45.72637214344824" lon="10.103120815016322"><ele>196.33333333333331</ele><time>2026-04-12T09:39:05.001Z</time></trkpt><trkpt lat="45.72639782333258" lon="10.103023681694097"><ele>197.66666666666666</ele><time>2026-04-12T09:39:06.001Z</time></trkpt><trkpt lat="45.726420301476765" lon="10.102918412926917"><ele>199.0</ele><time>2026-04-12T09:39:07.001Z</time></trkpt><trkpt lat="45.72643791094077" lon="10.102797380550179"><ele>199.0</ele><time>2026-04-12T09:39:08.001Z</time></trkpt><trkpt lat="45.72645014388699" lon="10.102666692188102"><ele>199.0</ele><time>2026-04-12T09:39:09.001Z</time></trkpt><trkpt lat="45.72645572453394" lon="10.102532672460537"><ele>199.0</ele><time>2026-04-12T09:39:10.001Z</time></trkpt><trkpt lat="45.726463752662355" lon="10.102400648762552"><ele>199.0</ele><time>2026-04-12T09:39:11.001Z</time></trkpt><trkpt lat="45.72646930880588" lon="10.10227558904962"><ele>199.0</ele><time>2026-04-12T09:39:12.001Z</time></trkpt><trkpt lat="45.726461256831094" lon="10.102154821569242"><ele>198.99999999999997</ele><time>2026-04-12T09:39:13.001Z</time></trkpt><trkpt lat="45.7264627007309" lon="10.102025699525564"><ele>199.0</ele><time>2026-04-12T09:39:14.001Z</time></trkpt><trkpt lat="45.72646184603644" lon="10.10190835356205"><ele>199.0</ele><time>2026-04-12T09:39:15.001Z</time></trkpt><trkpt lat="45.72646665560002" lon="10.101795406305925"><ele>199.0</ele><time>2026-04-12T09:39:16.001Z</time></trkpt><trkpt lat="45.72649035688086" lon="10.101696184340009"><ele>198.99999999999997</ele><time>2026-04-12T09:39:17.001Z</time></trkpt><trkpt lat="45.726526395403475" lon="10.101608036351537"><ele>199.0</ele><time>2026-04-12T09:39:18.001Z</time></trkpt><trkpt lat="45.72657110559968" lon="10.101533823679572"><ele>199.0</ele><time>2026-04-12T09:39:19.001Z</time></trkpt><trkpt lat="45.726627941326846" lon="10.101446611945349"><ele>199.0</ele><time>2026-04-12T09:39:20.001Z</time></trkpt><trkpt lat="45.72668773336794" lon="10.101351225825306"><ele>199.0</ele><time>2026-04-12T09:39:21.001Z</time></trkpt><trkpt lat="45.72675705462973" lon="10.101254025553942"><ele>199.0</ele><time>2026-04-12T09:39:22.001Z</time></trkpt><trkpt lat="45.72682258392461" lon="10.101147963957246"><ele>199.0</ele><time>2026-04-12T09:39:23.001Z</time></trkpt><trkpt lat="45.72689474888735" lon="10.101038762896168"><ele>200.6</ele><time>2026-04-12T09:39:24.001Z</time></trkpt><trkpt lat="45.72697827951104" lon="10.100956584050959"><ele>202.2</ele><time>2026-04-12T09:39:25.001Z</time></trkpt><trkpt lat="45.7270720020091" lon="10.100905295462855"><ele>203.79999999999998</ele><time>2026-04-12T09:39:26.001Z</time></trkpt><trkpt lat="45.72715678374232" lon="10.100837826815376"><ele>205.39999999999998</ele><time>2026-04-12T09:39:27.001Z</time></trkpt><trkpt lat="45.72724591319499" lon="10.100756646397127"><ele>207.0</ele><time>2026-04-12T09:39:28.001Z</time></trkpt><trkpt lat="45.72732798677437" lon="10.100651242928286"><ele>207.0</ele><time>2026-04-12T09:39:29.001Z</time></trkpt><trkpt lat="45.72741097677751" lon="10.100542958894627"><ele>207.0</ele><time>2026-04-12T09:39:30.001Z</time></trkpt><trkpt lat="45.727487193254575" lon="10.100441650911543"><ele>207.0</ele><time>2026-04-12T09:39:31.001Z</time></trkpt><trkpt lat="45.72757226745343" lon="10.100349364886792"><ele>207.0</ele><time>2026-04-12T09:39:32.001Z</time></trkpt><trkpt lat="45.72765820861008" lon="10.100272805062097"><ele>207.0</ele><time>2026-04-12T09:39:33.001Z</time></trkpt><trkpt lat="45.727757127311286" lon="10.100246763457994"><ele>210.2</ele><time>2026-04-12T09:39:34.001Z</time></trkpt><trkpt lat="45.72783931348884" lon="10.100214979195453"><ele>213.39999999999998</ele><time>2026-04-12T09:39:35.001Z</time></trkpt><trkpt lat="45.72791385222418" lon="10.10016476531176"><ele>216.60000000000002</ele><time>2026-04-12T09:39:36.001Z</time></trkpt><trkpt lat="45.72799226139192" lon="10.100162301670448"><ele>219.8</ele><time>2026-04-12T09:39:37.001Z</time></trkpt><trkpt lat="45.72806082450685" lon="10.10013927819757"><ele>223.0</ele><time>2026-04-12T09:39:38.001Z</time></trkpt><trkpt lat="45.72808981817607" lon="10.099944595973392"><ele>222.25</ele><time>2026-04-12T09:39:39.001Z</time></trkpt><trkpt lat="45.728148097187876" lon="10.099825388045488"><ele>221.5</ele><time>2026-04-12T09:39:40.001Z</time></trkpt><trkpt lat="45.72818695260737" lon="10.099673796550347"><ele>220.75</ele><time>2026-04-12T09:39:41.001Z</time></trkpt><trkpt lat="45.72825055632232" lon="10.099533608095243"><ele>220.0</ele><time>2026-04-12T09:39:42.001Z</time></trkpt><trkpt lat="45.72831972679879" lon="10.099389398027688"><ele>220.0</ele><time>2026-04-12T09:39:43.001Z</time></trkpt><trkpt lat="45.72839196424168" lon="10.099254418985968"><ele>220.0</ele><time>2026-04-12T09:39:44.001Z</time></trkpt><trkpt lat="45.72846707433649" lon="10.099132700026987"><ele>220.0</ele><time>2026-04-12T09:39:45.001Z</time></trkpt><trkpt lat="45.72854023087102" lon="10.09901594656986"><ele>220.0</ele><time>2026-04-12T09:39:46.001Z</time></trkpt><trkpt lat="45.72861004656214" lon="10.098917434802303"><ele>220.0</ele><time>2026-04-12T09:39:47.001Z</time></trkpt><trkpt lat="45.728684499048214" lon="10.09883608157157"><ele>224.0</ele><time>2026-04-12T09:39:48.001Z</time></trkpt><trkpt lat="45.72875129326095" lon="10.09874390351998"><ele>228.0</ele><time>2026-04-12T09:39:49.001Z</time></trkpt><trkpt lat="45.72880550457187" lon="10.098633822319476"><ele>232.0</ele><time>2026-04-12T09:39:50.001Z</time></trkpt><trkpt lat="45.72885166175747" lon="10.098522981103079"><ele>236.0</ele><time>2026-04-12T09:39:51.001Z</time></trkpt><trkpt lat="45.72889390769616" lon="10.098401509785731"><ele>240.0</ele><time>2026-04-12T09:39:52.001Z</time></trkpt><trkpt lat="45.72893383710783" lon="10.098280027055855"><ele>238.33333333333334</ele><time>2026-04-12T09:39:53Z</time></trkpt><trkpt lat="45.72896599181778" lon="10.098150414790258"><ele>236.66666666666669</ele><time>2026-04-12T09:39:54Z</time></trkpt><trkpt lat="45.72899350015018" lon="10.098023404393551"><ele>235.0</ele><time>2026-04-12T09:39:55Z</time></trkpt><trkpt lat="45.729025634580026" lon="10.097910688377691"><ele>233.33333333333334</ele><time>2026-04-12T09:39:56Z</time></trkpt><trkpt lat="45.72908239431331" lon="10.097856025351883"><ele>231.66666666666669</ele><time>2026-04-12T09:39:57Z</time></trkpt><trkpt lat="45.72912975089785" lon="10.097785093644216"><ele>230.0</ele><time>2026-04-12T09:39:58Z</time></trkpt><trkpt lat="45.72919173187984" lon="10.097747376251913"><ele>230.0</ele><time>2026-04-12T09:39:59Z</time></trkpt><trkpt lat="45.72929472394971" lon="10.097733143260477"><ele>230.0</ele><time>2026-04-12T09:40:01Z</time></trkpt><trkpt lat="45.72939511704882" lon="10.097699318160771"><ele>230.0</ele><time>2026-04-12T09:40:03Z</time></trkpt><trkpt lat="45.7295120621778" lon="10.097828698687742"><ele>230.0</ele><time>2026-04-12T09:40:05Z</time></trkpt><trkpt lat="45.72956991292896" lon="10.09787414444841"><ele>230.0</ele><time>2026-04-12T09:40:06Z</time></trkpt><trkpt lat="45.7296477404168" lon="10.09789524955162"><ele>233.50000000000003</ele><time>2026-04-12T09:40:07Z</time></trkpt><trkpt lat="45.72971290847978" lon="10.097907072300787"><ele>237.0</ele><time>2026-04-12T09:40:08Z</time></trkpt><trkpt lat="45.72979801989822" lon="10.097881043173741"><ele>240.5</ele><time>2026-04-12T09:40:09Z</time></trkpt><trkpt lat="45.72987850183173" lon="10.097861856305062"><ele>244.0</ele><time>2026-04-12T09:40:10Z</time></trkpt><trkpt lat="45.729962167872294" lon="10.097803114474804"><ele>247.50000000000003</ele><time>2026-04-12T09:40:11Z</time></trkpt><trkpt lat="45.73003716171651" lon="10.09774037576481"><ele>251.0</ele><time>2026-04-12T09:40:12Z</time></trkpt><trkpt lat="45.730103466415564" lon="10.097692289475596"><ele>251.00000000000003</ele><time>2026-04-12T09:40:13Z</time></trkpt><trkpt lat="45.73017177606963" lon="10.097679083461477"><ele>251.0</ele><time>2026-04-12T09:40:14Z</time></trkpt><trkpt lat="45.73023566005803" lon="10.097701717220078"><ele>251.0</ele><time>2026-04-12T09:40:15Z</time></trkpt><trkpt lat="45.730288762123706" lon="10.09775257684335"><ele>251.0</ele><time>2026-04-12T09:40:16Z</time></trkpt><trkpt lat="45.7303287123056" lon="10.097909925429288"><ele>251.00000000000003</ele><time>2026-04-12T09:40:18Z</time></trkpt><trkpt lat="45.73031108949003" lon="10.09800989794865"><ele>251.0</ele><time>2026-04-12T09:40:19Z</time></trkpt><trkpt lat="45.73028967610497" lon="10.09810472106144"><ele>257.33333333333337</ele><time>2026-04-12T09:40:20Z</time></trkpt><trkpt lat="45.73027473422838" lon="10.098194054054435"><ele>263.6666666666667</ele><time>2026-04-12T09:40:21Z</time></trkpt><trkpt lat="45.73026426564134" lon="10.09828478868985"><ele>270.0</ele><time>2026-04-12T09:40:22Z</time></trkpt><trkpt lat="45.730245977362316" lon="10.098458102311122"><ele>276.3333333333333</ele><time>2026-04-12T09:40:24Z</time></trkpt><trkpt lat="45.73026700257485" lon="10.098553592371502"><ele>282.66666666666663</ele><time>2026-04-12T09:40:25Z</time></trkpt><trkpt lat="45.730256901618866" lon="10.098654399925401"><ele>289.0</ele><time>2026-04-12T09:40:26Z</time></trkpt><trkpt lat="45.730235178083674" lon="10.098839480560265"><ele>289.2857142857143</ele><time>2026-04-12T09:40:28Z</time></trkpt><trkpt lat="45.73022278235755" lon="10.098942810131977"><ele>289.57142857142856</ele><time>2026-04-12T09:40:29Z</time></trkpt><trkpt lat="45.73024261269402" lon="10.099039075294352"><ele>289.85714285714283</ele><time>2026-04-12T09:40:30Z</time></trkpt><trkpt lat="45.73024071075221" lon="10.099142971166907"><ele>290.1428571428571</ele><time>2026-04-12T09:40:31Z</time></trkpt><trkpt lat="45.730186781363386" lon="10.099244494244726"><ele>290.4285714285714</ele><time>2026-04-12T09:40:32Z</time></trkpt><trkpt lat="45.730184497455504" lon="10.09934606756262"><ele>290.7142857142857</ele><time>2026-04-12T09:40:33Z</time></trkpt><trkpt lat="45.73018219580215" lon="10.099448430701061"><ele>291.0</ele><time>2026-04-12T09:40:34Z</time></trkpt><trkpt lat="45.730180855961414" lon="10.099550743116266"><ele>291.0</ele><time>2026-04-12T09:40:35Z</time></trkpt><trkpt lat="45.7301895270291" lon="10.099645734210888"><ele>291.0</ele><time>2026-04-12T09:40:36Z</time></trkpt><trkpt lat="45.7302329827413" lon="10.099730534067017"><ele>291.0</ele><time>2026-04-12T09:40:37Z</time></trkpt><trkpt lat="45.73028868154499" lon="10.099776882560455"><ele>291.0</ele><time>2026-04-12T09:40:38Z</time></trkpt><trkpt lat="45.73036816092203" lon="10.099750609468336"><ele>291.0</ele><time>2026-04-12T09:40:39Z</time></trkpt><trkpt lat="45.730482212472864" lon="10.099687846231872"><ele>291.0</ele><time>2026-04-12T09:40:41Z</time></trkpt><trkpt lat="45.73054358482025" lon="10.099631132014833"><ele>291.0</ele><time>2026-04-12T09:40:42Z</time></trkpt><trkpt lat="45.730608536123974" lon="10.099573245542528"><ele>291.0</ele><time>2026-04-12T09:40:43Z</time></trkpt><trkpt lat="45.730668735864285" lon="10.09950036082845"><ele>291.0</ele><time>2026-04-12T09:40:44Z</time></trkpt><trkpt lat="45.730731470375915" lon="10.099438878438987"><ele>291.0</ele><time>2026-04-12T09:40:45Z</time></trkpt><trkpt lat="45.730797946884536" lon="10.099386344535862"><ele>291.0</ele><time>2026-04-12T09:40:46Z</time></trkpt><trkpt lat="45.73085655556807" lon="10.099303374846256"><ele>291.0</ele><time>2026-04-12T09:40:47Z</time></trkpt><trkpt lat="45.73092920084034" lon="10.099264050440404"><ele>291.0</ele><time>2026-04-12T09:40:48Z</time></trkpt><trkpt lat="45.730991579791905" lon="10.099194891214713"><ele>291.0</ele><time>2026-04-12T09:40:49Z</time></trkpt><trkpt lat="45.73106082254869" lon="10.099133540530843"><ele>291.0</ele><time>2026-04-12T09:40:50Z</time></trkpt><trkpt lat="45.731123737979686" lon="10.099072354355537"><ele>291.0</ele><time>2026-04-12T09:40:51Z</time></trkpt><trkpt lat="45.73118226991109" lon="10.099015040821813"><ele>291.0</ele><time>2026-04-12T09:40:52Z</time></trkpt><trkpt lat="45.73126071352143" lon="10.09893622303112"><ele>291.0</ele><time>2026-04-12T09:40:54Z</time></trkpt><trkpt lat="45.731331909876005" lon="10.098854748296892"><ele>292.5</ele><time>2026-04-12T09:40:56Z</time></trkpt><trkpt lat="45.73142844599337" lon="10.09878787549927"><ele>294.0</ele><time>2026-04-12T09:40:58Z</time></trkpt><trkpt lat="45.73149878561369" lon="10.098713794832534"><ele>295.5</ele><time>2026-04-12T09:41:00Z</time></trkpt><trkpt lat="45.731549919698466" lon="10.098660441389468"><ele>297.0</ele><time>2026-04-12T09:41:02Z</time></trkpt><trkpt lat="45.73160598271953" lon="10.098587363112882"><ele>298.5</ele><time>2026-04-12T09:41:10Z</time></trkpt><trkpt lat="45.73166843180097" lon="10.098499427854044"><ele>300.0</ele><time>2026-04-12T09:41:12Z</time></trkpt><trkpt lat="45.731761778238074" lon="10.098384957835748"><ele>300.0</ele><time>2026-04-12T09:41:14Z</time></trkpt><trkpt lat="45.73187296428286" lon="10.098329832701125"><ele>300.0</ele><time>2026-04-12T09:41:16Z</time></trkpt><trkpt lat="45.73199547796382" lon="10.098296917176569"><ele>300.0</ele><time>2026-04-12T09:41:18Z</time></trkpt><trkpt lat="45.73209178402151" lon="10.098261444054907"><ele>300.0</ele><time>2026-04-12T09:41:20.001Z</time></trkpt><trkpt lat="45.732179064943665" lon="10.0982599852292"><ele>300.0</ele><time>2026-04-12T09:41:22.001Z</time></trkpt><trkpt lat="45.73224149789783" lon="10.098276724034742"><ele>299.1666666666667</ele><time>2026-04-12T09:41:26.001Z</time></trkpt><trkpt lat="45.73233781177078" lon="10.098340420836571"><ele>298.3333333333333</ele><time>2026-04-12T09:41:29.001Z</time></trkpt><trkpt lat="45.73238636774395" lon="10.098402487293246"><ele>297.5</ele><time>2026-04-12T09:41:31.001Z</time></trkpt><trkpt lat="45.73244414160289" lon="10.09846106031404"><ele>296.66666666666663</ele><time>2026-04-12T09:41:33.001Z</time></trkpt><trkpt lat="45.732494855616565" lon="10.098528896321342"><ele>295.8333333333333</ele><time>2026-04-12T09:41:35.001Z</time></trkpt><trkpt lat="45.732544336472756" lon="10.098663867996855"><ele>295.0</ele><time>2026-04-12T09:41:37.001Z</time></trkpt><trkpt lat="45.73260567434829" lon="10.098773607833115"><ele>295.0</ele><time>2026-04-12T09:41:39.001Z</time></trkpt><trkpt lat="45.73267219500125" lon="10.098870999324532"><ele>295.0</ele><time>2026-04-12T09:41:41.001Z</time></trkpt><trkpt lat="45.73273945023611" lon="10.098883263577395"><ele>295.0</ele><time>2026-04-12T09:41:42.001Z</time></trkpt><trkpt lat="45.732843341212664" lon="10.098933093121737"><ele>295.0</ele><time>2026-04-12T09:41:44.001Z</time></trkpt><trkpt lat="45.73291034432331" lon="10.098974125587173"><ele>295.0</ele><time>2026-04-12T09:41:46.001Z</time></trkpt><trkpt lat="45.73299754216514" lon="10.099005446242753"><ele>295.0</ele><time>2026-04-12T09:41:49.001Z</time></trkpt><trkpt lat="45.73310938004825" lon="10.099069214501363"><ele>295.0</ele><time>2026-04-12T09:41:51.001Z</time></trkpt><trkpt lat="45.7331782102088" lon="10.09910205682618"><ele>295.0</ele><time>2026-04-12T09:41:52.001Z</time></trkpt><trkpt lat="45.733239430379676" lon="10.099129689412786"><ele>295.0</ele><time>2026-04-12T09:41:53.001Z</time></trkpt><trkpt lat="45.73335232600592" lon="10.099170713588007"><ele>295.0</ele><time>2026-04-12T09:41:55.001Z</time></trkpt><trkpt lat="45.73345021317052" lon="10.099202883910523"><ele>295.0</ele><time>2026-04-12T09:41:57.001Z</time></trkpt><trkpt lat="45.733592903709706" lon="10.099220540765922"><ele>295.16666666666663</ele><time>2026-04-12T09:41:59Z</time></trkpt><trkpt lat="45.73367093118059" lon="10.099246144851282"><ele>295.3333333333333</ele><time>2026-04-12T09:42:00Z</time></trkpt><trkpt lat="45.73374914886368" lon="10.099269934124008"><ele>295.5</ele><time>2026-04-12T09:42:01Z</time></trkpt><trkpt lat="45.73382910704277" lon="10.099300480156733"><ele>295.6666666666667</ele><time>2026-04-12T09:42:02Z</time></trkpt><trkpt lat="45.733906035557524" lon="10.09933568177317"><ele>295.83333333333337</ele><time>2026-04-12T09:42:03Z</time></trkpt><trkpt lat="45.733980402898034" lon="10.099380421896468"><ele>296.0</ele><time>2026-04-12T09:42:04Z</time></trkpt><trkpt lat="45.734038437765534" lon="10.099418832221223"><ele>296.0</ele><time>2026-04-12T09:42:05Z</time></trkpt><trkpt lat="45.734121281886125" lon="10.099482768409185"><ele>296.0</ele><time>2026-04-12T09:42:07Z</time></trkpt><trkpt lat="45.73418661219135" lon="10.099569408269174"><ele>296.0</ele><time>2026-04-12T09:42:31Z</time></trkpt><trkpt lat="45.73426725637208" lon="10.099721801899971"><ele>296.0</ele><time>2026-04-12T09:42:33Z</time></trkpt><trkpt lat="45.734304863002365" lon="10.099812571297898"><ele>296.0</ele><time>2026-04-12T09:42:34Z</time></trkpt><trkpt lat="45.73434495844972" lon="10.099901861032775"><ele>296.8571428571429</ele><time>2026-04-12T09:42:35Z</time></trkpt><trkpt lat="45.73439266753312" lon="10.099993849829245"><ele>297.7142857142857</ele><time>2026-04-12T09:42:36Z</time></trkpt><trkpt lat="45.73443396207656" lon="10.10008539301236"><ele>298.57142857142856</ele><time>2026-04-12T09:42:37Z</time></trkpt><trkpt lat="45.734470969394685" lon="10.100178238586198"><ele>299.42857142857144</ele><time>2026-04-12T09:42:38Z</time></trkpt><trkpt lat="45.73449176470317" lon="10.10027390968346"><ele>300.2857142857143</ele><time>2026-04-12T09:42:39Z</time></trkpt><trkpt lat="45.734508157579825" lon="10.100364994422625"><ele>301.14285714285717</ele><time>2026-04-12T09:42:40Z</time></trkpt><trkpt lat="45.73452733395551" lon="10.100453953726426"><ele>302.0</ele><time>2026-04-12T09:42:41Z</time></trkpt><trkpt lat="45.73455751817142" lon="10.100537202707976"><ele>302.00000000000006</ele><time>2026-04-12T09:42:42Z</time></trkpt><trkpt lat="45.73458763350409" lon="10.100621850120167"><ele>302.0</ele><time>2026-04-12T09:42:43Z</time></trkpt><trkpt lat="45.73462125507974" lon="10.100700390511602"><ele>302.0</ele><time>2026-04-12T09:42:44Z</time></trkpt><trkpt lat="45.73467304141098" lon="10.100766973654867"><ele>302.0</ele><time>2026-04-12T09:42:45Z</time></trkpt><trkpt lat="45.73473601399223" lon="10.100816087934078"><ele>302.0</ele><time>2026-04-12T09:42:46Z</time></trkpt><trkpt lat="45.73479896600004" lon="10.100867418953895"><ele>302.00000000000006</ele><time>2026-04-12T09:42:47Z</time></trkpt><trkpt lat="45.734870568894166" lon="10.100920661075538"><ele>302.0</ele><time>2026-04-12T09:42:48Z</time></trkpt><trkpt lat="45.73493699255886" lon="10.100972141722945"><ele>302.83333333333337</ele><time>2026-04-12T09:42:49Z</time></trkpt><trkpt lat="45.73499696422845" lon="10.101032388622219"><ele>303.6666666666667</ele><time>2026-04-12T09:42:50Z</time></trkpt><trkpt lat="45.735047417543576" lon="10.101117646719036"><ele>304.5</ele><time>2026-04-12T09:42:51Z</time></trkpt><trkpt lat="45.73509270373809" lon="10.101202367637997"><ele>305.3333333333333</ele><time>2026-04-12T09:42:52Z</time></trkpt><trkpt lat="45.73513732867808" lon="10.101297126336956"><ele>306.16666666666663</ele><time>2026-04-12T09:42:53Z</time></trkpt><trkpt lat="45.73518454968151" lon="10.101392057825842"><ele>307.0</ele><time>2026-04-12T09:42:54Z</time></trkpt><trkpt lat="45.735227088644514" lon="10.101484229410904"><ele>303.66666666666663</ele><time>2026-04-12T09:42:55Z</time></trkpt><trkpt lat="45.735269525097536" lon="10.101580068234188"><ele>300.3333333333333</ele><time>2026-04-12T09:42:56Z</time></trkpt><trkpt lat="45.73530054256562" lon="10.101681797637053"><ele>297.0</ele><time>2026-04-12T09:42:57Z</time></trkpt><trkpt lat="45.73531930236127" lon="10.10178431812695"><ele>293.6666666666667</ele><time>2026-04-12T09:42:58Z</time></trkpt><trkpt lat="45.73532911685235" lon="10.101889518305368"><ele>290.33333333333337</ele><time>2026-04-12T09:42:59Z</time></trkpt><trkpt lat="45.73531510818061" lon="10.102030443150726"><ele>287.0</ele><time>2026-04-12T09:43:01Z</time></trkpt><trkpt lat="45.73530588381907" lon="10.102127459079838"><ele>287.0</ele><time>2026-04-12T09:43:04Z</time></trkpt><trkpt lat="45.73531923537342" lon="10.102035710697713"><ele>287.0</ele><time>2026-04-12T09:43:30Z</time></trkpt><trkpt lat="45.73532165606548" lon="10.101941176427529"><ele>287.0</ele><time>2026-04-12T09:43:33.001Z</time></trkpt><trkpt lat="45.73531671292561" lon="10.101827839687997"><ele>287.0</ele><time>2026-04-12T09:43:36.001Z</time></trkpt><trkpt lat="45.735309263802655" lon="10.10170799841555"><ele>287.0</ele><time>2026-04-12T09:43:38.001Z</time></trkpt><trkpt lat="45.73525233347297" lon="10.101563248471466"><ele>287.0</ele><time>2026-04-12T09:43:40.001Z</time></trkpt><trkpt lat="45.735201876453964" lon="10.101406573487042"><ele>290.33333333333337</ele><time>2026-04-12T09:43:41.001Z</time></trkpt><trkpt lat="45.73515803093514" lon="10.10130841587609"><ele>293.6666666666667</ele><time>2026-04-12T09:43:42.001Z</time></trkpt><trkpt lat="45.73510946091244" lon="10.10121116731713"><ele>297.0</ele><time>2026-04-12T09:43:43.001Z</time></trkpt><trkpt lat="45.73506121198897" lon="10.10112356606724"><ele>300.3333333333333</ele><time>2026-04-12T09:43:44.001Z</time></trkpt><trkpt lat="45.7350185976747" lon="10.101048645720285"><ele>303.66666666666663</ele><time>2026-04-12T09:43:45.001Z</time></trkpt><trkpt lat="45.73496088767867" lon="10.100988024461527"><ele>307.0</ele><time>2026-04-12T09:43:46.001Z</time></trkpt><trkpt lat="45.734903499764755" lon="10.100933718175376"><ele>307.0</ele><time>2026-04-12T09:43:47.001Z</time></trkpt><trkpt lat="45.73483284211142" lon="10.100873638062025"><ele>307.0</ele><time>2026-04-12T09:43:48.001Z</time></trkpt><trkpt lat="45.7347618268162" lon="10.10082236096217"><ele>307.0</ele><time>2026-04-12T09:43:49.001Z</time></trkpt><trkpt lat="45.73469209664594" lon="10.100762307421908"><ele>307.0</ele><time>2026-04-12T09:43:50.001Z</time></trkpt><trkpt lat="45.7346349271755" lon="10.100681411577412"><ele>307.0</ele><time>2026-04-12T09:43:51.001Z</time></trkpt><trkpt lat="45.73459169783206" lon="10.10058825990146"><ele>307.0</ele><time>2026-04-12T09:43:52.001Z</time></trkpt><trkpt lat="45.73454887814813" lon="10.100501127898498"><ele>306.4285714285714</ele><time>2026-04-12T09:43:53.001Z</time></trkpt><trkpt lat="45.73452569235031" lon="10.100407699059563"><ele>305.85714285714283</ele><time>2026-04-12T09:43:54.001Z</time></trkpt><trkpt lat="45.734503682090754" lon="10.100312738431963"><ele>305.2857142857143</ele><time>2026-04-12T09:43:55.001Z</time></trkpt><trkpt lat="45.73448625497873" lon="10.100211991077748"><ele>304.71428571428567</ele><time>2026-04-12T09:43:56.001Z</time></trkpt><trkpt lat="45.73444855670257" lon="10.100119505436062"><ele>304.1428571428571</ele><time>2026-04-12T09:43:57.001Z</time></trkpt><trkpt lat="45.73440518635185" lon="10.100026549117215"><ele>303.57142857142856</ele><time>2026-04-12T09:43:58.001Z</time></trkpt><trkpt lat="45.73436955535378" lon="10.099939157915665"><ele>303.0</ele><time>2026-04-12T09:43:59.001Z</time></trkpt><trkpt lat="45.734329820506886" lon="10.09984638099756"><ele>302.0</ele><time>2026-04-12T09:44:00.001Z</time></trkpt><trkpt lat="45.7342915668071" lon="10.099756130972763"><ele>301.0</ele><time>2026-04-12T09:44:01.001Z</time></trkpt><trkpt lat="45.734256879334936" lon="10.099672835643512"><ele>300.0</ele><time>2026-04-12T09:44:02.001Z</time></trkpt><trkpt lat="45.73421821521869" lon="10.09959235008025"><ele>299.0</ele><time>2026-04-12T09:44:03.001Z</time></trkpt><trkpt lat="45.734175345480985" lon="10.099518243272898"><ele>298.0</ele><time>2026-04-12T09:44:04.001Z</time></trkpt><trkpt lat="45.7341232069842" lon="10.099459883697657"><ele>297.0</ele><time>2026-04-12T09:44:05Z</time></trkpt><trkpt lat="45.73406929124201" lon="10.099411462533354"><ele>296.0</ele><time>2026-04-12T09:44:06Z</time></trkpt><trkpt lat="45.73400710322428" lon="10.099369646976811"><ele>296.0</ele><time>2026-04-12T09:44:07Z</time></trkpt><trkpt lat="45.733928908803286" lon="10.099337811057119"><ele>296.0</ele><time>2026-04-12T09:44:08Z</time></trkpt><trkpt lat="45.73385198020572" lon="10.099310287697357"><ele>296.0</ele><time>2026-04-12T09:44:09Z</time></trkpt><trkpt lat="45.73377212161181" lon="10.09927437733254"><ele>296.0</ele><time>2026-04-12T09:44:10Z</time></trkpt><trkpt lat="45.73369265657419" lon="10.099247057830997"><ele>296.0</ele><time>2026-04-12T09:44:11Z</time></trkpt><trkpt lat="45.73362439764055" lon="10.099218228104764"><ele>296.0</ele><time>2026-04-12T09:44:12Z</time></trkpt><trkpt lat="45.73356031776908" lon="10.099196350904135"><ele>295.8</ele><time>2026-04-12T09:44:13Z</time></trkpt><trkpt lat="45.73350319244475" lon="10.099152954104516"><ele>295.6</ele><time>2026-04-12T09:44:14Z</time></trkpt><trkpt lat="45.7334121029877" lon="10.099159592451054"><ele>295.4</ele><time>2026-04-12T09:44:16Z</time></trkpt><trkpt lat="45.73333249800369" lon="10.09909848566099"><ele>295.2</ele><time>2026-04-12T09:44:19Z</time></trkpt><trkpt lat="45.73322826685123" lon="10.099100809970292"><ele>295.0</ele><time>2026-04-12T09:44:22Z</time></trkpt><trkpt lat="45.73311973994533" lon="10.09904309863116"><ele>295.0</ele><time>2026-04-12T09:44:24Z</time></trkpt><trkpt lat="45.7330528797465" lon="10.09900618456507"><ele>295.0</ele><time>2026-04-12T09:44:25Z</time></trkpt><trkpt lat="45.73298783351978" lon="10.098967959663677"><ele>295.0</ele><time>2026-04-12T09:44:26Z</time></trkpt><trkpt lat="45.732913096847625" lon="10.098922393403624"><ele>295.0</ele><time>2026-04-12T09:44:28Z</time></trkpt><trkpt lat="45.732809509949725" lon="10.098871431384984"><ele>295.0</ele><time>2026-04-12T09:44:31Z</time></trkpt><trkpt lat="45.73272086556414" lon="10.098853024316545"><ele>295.0</ele><time>2026-04-12T09:44:33Z</time></trkpt><trkpt lat="45.73264053490691" lon="10.098802259883175"><ele>295.0</ele><time>2026-04-12T09:44:35Z</time></trkpt><trkpt lat="45.73259631846701" lon="10.098693588175573"><ele>295.0</ele><time>2026-04-12T09:44:37Z</time></trkpt><trkpt lat="45.73254059405225" lon="10.098566866605104"><ele>295.0</ele><time>2026-04-12T09:44:39Z</time></trkpt><trkpt lat="45.732466214658984" lon="10.098420691663419"><ele>295.0</ele><time>2026-04-12T09:44:41Z</time></trkpt><trkpt lat="45.73240274873855" lon="10.098365574381484"><ele>295.0</ele><time>2026-04-12T09:44:42Z</time></trkpt><trkpt lat="45.73231842611365" lon="10.098275667374466"><ele>296.25</ele><time>2026-04-12T09:44:44Z</time></trkpt><trkpt lat="45.73223256434977" lon="10.098216355769178"><ele>297.5</ele><time>2026-04-12T09:44:46Z</time></trkpt><trkpt lat="45.73212546262453" lon="10.098200177407401"><ele>298.75</ele><time>2026-04-12T09:44:48Z</time></trkpt><trkpt lat="45.732001199269895" lon="10.098229863210253"><ele>300.0</ele><time>2026-04-12T09:44:50Z</time></trkpt><trkpt lat="45.731875286508235" lon="10.098275672054248"><ele>300.0</ele><time>2026-04-12T09:44:52Z</time></trkpt><trkpt lat="45.731756710402735" lon="10.09833363000485"><ele>300.0</ele><time>2026-04-12T09:44:54Z</time></trkpt><trkpt lat="45.731706960260745" lon="10.098393222832863"><ele>300.0</ele><time>2026-04-12T09:44:55Z</time></trkpt><trkpt lat="45.73165598080295" lon="10.098451566552544"><ele>300.0</ele><time>2026-04-12T09:44:56Z</time></trkpt><trkpt lat="45.731580027219856" lon="10.098555838956274"><ele>300.0</ele><time>2026-04-12T09:44:58Z</time></trkpt><trkpt lat="45.73152516711029" lon="10.098616354503314"><ele>300.0</ele><time>2026-04-12T09:45:00Z</time></trkpt><trkpt lat="45.731444857756" lon="10.098714295403859"><ele>300.0</ele><time>2026-04-12T09:45:02Z</time></trkpt><trkpt lat="45.731392325585155" lon="10.098768403495757"><ele>300.0</ele><time>2026-04-12T09:45:03Z</time></trkpt><trkpt lat="45.731334549339564" lon="10.098823524793593"><ele>300.0</ele><time>2026-04-12T09:45:04Z</time></trkpt><trkpt lat="45.731281630594445" lon="10.098879249403762"><ele>300.0</ele><time>2026-04-12T09:45:05Z</time></trkpt><trkpt lat="45.73120561718711" lon="10.098954860178514"><ele>300.0</ele><time>2026-04-12T09:45:07Z</time></trkpt><trkpt lat="45.731146838299715" lon="10.099005192025539"><ele>300.0</ele><time>2026-04-12T09:45:09Z</time></trkpt><trkpt lat="45.73105747485033" lon="10.099096946261316"><ele>298.71428571428567</ele><time>2026-04-12T09:45:11Z</time></trkpt><trkpt lat="45.73100300171848" lon="10.099149373286295"><ele>297.42857142857144</ele><time>2026-04-12T09:45:12Z</time></trkpt><trkpt lat="45.73094345737281" lon="10.099200568586058"><ele>296.1428571428571</ele><time>2026-04-12T09:45:13Z</time></trkpt><trkpt lat="45.73088564073498" lon="10.099250120779557"><ele>294.85714285714283</ele><time>2026-04-12T09:45:14Z</time></trkpt><trkpt lat="45.7308327507774" lon="10.09930235389584"><ele>293.57142857142856</ele><time>2026-04-12T09:45:15Z</time></trkpt><trkpt lat="45.73077625088481" lon="10.099366178632598"><ele>292.2857142857143</ele><time>2026-04-12T09:45:16Z</time></trkpt><trkpt lat="45.73071836948253" lon="10.099427760224808"><ele>291.0</ele><time>2026-04-12T09:45:17Z</time></trkpt><trkpt lat="45.730659426747565" lon="10.099482974395823"><ele>291.0</ele><time>2026-04-12T09:45:18Z</time></trkpt><trkpt lat="45.73060166765104" lon="10.09953912245345"><ele>291.0</ele><time>2026-04-12T09:45:19Z</time></trkpt><trkpt lat="45.73054251781992" lon="10.099594438904251"><ele>291.0</ele><time>2026-04-12T09:45:20Z</time></trkpt><trkpt lat="45.730483525101604" lon="10.099644450635276"><ele>291.0</ele><time>2026-04-12T09:45:21Z</time></trkpt><trkpt lat="45.73042633130044" lon="10.099693265597018"><ele>291.0</ele><time>2026-04-12T09:45:22Z</time></trkpt><trkpt lat="45.73036660275801" lon="10.099726203894434"><ele>291.0</ele><time>2026-04-12T09:45:23Z</time></trkpt><trkpt lat="45.73026064366519" lon="10.099691146993804"><ele>291.0</ele><time>2026-04-12T09:45:25Z</time></trkpt><trkpt lat="45.730189454671574" lon="10.099566586989503"><ele>292.5</ele><time>2026-04-12T09:45:27Z</time></trkpt><trkpt lat="45.730214986330424" lon="10.099471321233002"><ele>294.0</ele><time>2026-04-12T09:45:28Z</time></trkpt><trkpt lat="45.730217367641444" lon="10.099365415811326"><ele>295.5</ele><time>2026-04-12T09:45:29Z</time></trkpt><trkpt lat="45.73021972531052" lon="10.0992605617002"><ele>297.0</ele><time>2026-04-12T09:45:30Z</time></trkpt><trkpt lat="45.730223622691" lon="10.09915412095179"><ele>298.5</ele><time>2026-04-12T09:45:31Z</time></trkpt><trkpt lat="45.730231863262496" lon="10.099039946045462"><ele>300.0</ele><time>2026-04-12T09:45:32Z</time></trkpt><trkpt lat="45.73024280368664" lon="10.09891553607932"><ele>300.0</ele><time>2026-04-12T09:45:33Z</time></trkpt><trkpt lat="45.73024327501788" lon="10.098793126730781"><ele>300.0</ele><time>2026-04-12T09:45:34Z</time></trkpt><trkpt lat="45.73026076218632" lon="10.09866709348917"><ele>300.0</ele><time>2026-04-12T09:45:35Z</time></trkpt><trkpt lat="45.73029267039012" lon="10.098536557342177"><ele>300.0</ele><time>2026-04-12T09:45:36Z</time></trkpt><trkpt lat="45.73030073850793" lon="10.09840890412061"><ele>300.0</ele><time>2026-04-12T09:45:37Z</time></trkpt><trkpt lat="45.73029165182877" lon="10.098290491120515"><ele>300.0</ele><time>2026-04-12T09:45:38Z</time></trkpt><trkpt lat="45.730310271085074" lon="10.098170997189568"><ele>297.8</ele><time>2026-04-12T09:45:39Z</time></trkpt><trkpt lat="45.73032957496553" lon="10.098055124066724"><ele>295.6</ele><time>2026-04-12T09:45:40Z</time></trkpt><trkpt lat="45.73033970074984" lon="10.097943175783366"><ele>293.4</ele><time>2026-04-12T09:45:41Z</time></trkpt><trkpt lat="45.730343232296455" lon="10.097792783570352"><ele>291.2</ele><time>2026-04-12T09:45:43.001Z</time></trkpt><trkpt lat="45.730282412982476" lon="10.097702205011096"><ele>289.0</ele><time>2026-04-12T09:45:45.001Z</time></trkpt><trkpt lat="45.73015954177612" lon="10.097630742109864"><ele>282.66666666666663</ele><time>2026-04-12T09:45:47.001Z</time></trkpt><trkpt lat="45.730074140297795" lon="10.097669458192659"><ele>276.3333333333333</ele><time>2026-04-12T09:45:48.001Z</time></trkpt><trkpt lat="45.72999731916516" lon="10.097720354257746"><ele>270.0</ele><time>2026-04-12T09:45:49.001Z</time></trkpt><trkpt lat="45.72992844807565" lon="10.097774340821717"><ele>263.6666666666667</ele><time>2026-04-12T09:45:50.001Z</time></trkpt><trkpt lat="45.72985533104556" lon="10.097824926634022"><ele>257.33333333333337</ele><time>2026-04-12T09:45:51.001Z</time></trkpt><trkpt lat="45.7297887422009" lon="10.097850898648758"><ele>251.0</ele><time>2026-04-12T09:45:52.001Z</time></trkpt><trkpt lat="45.72972202899186" lon="10.097858037185937"><ele>251.0</ele><time>2026-04-12T09:45:53.001Z</time></trkpt><trkpt lat="45.729598739252204" lon="10.09783356945663"><ele>251.0</ele><time>2026-04-12T09:45:55.001Z</time></trkpt><trkpt lat="45.729489772334915" lon="10.09779265465353"><ele>251.0</ele><time>2026-04-12T09:45:57.001Z</time></trkpt><trkpt lat="45.72939874734189" lon="10.097706259596075"><ele>251.0</ele><time>2026-04-12T09:45:59.001Z</time></trkpt><trkpt lat="45.729311832525944" lon="10.097606755189908"><ele>247.66666666666669</ele><time>2026-04-12T09:46:01.001Z</time></trkpt><trkpt lat="45.7292811559186" lon="10.097455892664781"><ele>244.33333333333334</ele><time>2026-04-12T09:46:03.001Z</time></trkpt><trkpt lat="45.729315216832774" lon="10.097348154631563"><ele>241.0</ele><time>2026-04-12T09:46:04.001Z</time></trkpt><trkpt lat="45.729340581953316" lon="10.097251533932512"><ele>237.66666666666669</ele><time>2026-04-12T09:46:05.001Z</time></trkpt><trkpt lat="45.729370257711466" lon="10.097148672797141"><ele>234.33333333333334</ele><time>2026-04-12T09:46:06.001Z</time></trkpt><trkpt lat="45.7294116374932" lon="10.097048592910518"><ele>231.0</ele><time>2026-04-12T09:46:07.001Z</time></trkpt><trkpt lat="45.7294644630932" lon="10.096943401600612"><ele>231.0</ele><time>2026-04-12T09:46:08.001Z</time></trkpt><trkpt lat="45.72952458170922" lon="10.096834023767258"><ele>231.00000000000003</ele><time>2026-04-12T09:46:09.001Z</time></trkpt><trkpt lat="45.72959842913687" lon="10.096739423122674"><ele>231.00000000000003</ele><time>2026-04-12T09:46:10.001Z</time></trkpt><trkpt lat="45.72968035503631" lon="10.096648442374406"><ele>231.0</ele><time>2026-04-12T09:46:11Z</time></trkpt><trkpt lat="45.729756909606174" lon="10.096559679421665"><ele>231.0</ele><time>2026-04-12T09:46:12Z</time></trkpt><trkpt lat="45.729828268320446" lon="10.096477151681901"><ele>228.20000000000002</ele><time>2026-04-12T09:46:13Z</time></trkpt><trkpt lat="45.72990096561478" lon="10.096399651458261"><ele>225.40000000000003</ele><time>2026-04-12T09:46:14Z</time></trkpt><trkpt lat="45.72997814537111" lon="10.096339868267767"><ele>222.6</ele><time>2026-04-12T09:46:15Z</time></trkpt><trkpt lat="45.7300617121309" lon="10.096289969775677"><ele>219.8</ele><time>2026-04-12T09:46:16Z</time></trkpt><trkpt lat="45.730213324423445" lon="10.096206350943318"><ele>217.0</ele><time>2026-04-12T09:46:18Z</time></trkpt><trkpt lat="45.730284939142145" lon="10.096172876518569"><ele>216.99999999999997</ele><time>2026-04-12T09:46:19Z</time></trkpt><trkpt lat="45.7303464595833" lon="10.096145974552037"><ele>217.0</ele><time>2026-04-12T09:46:20Z</time></trkpt><trkpt lat="45.730447713106365" lon="10.096096596841207"><ele>217.0</ele><time>2026-04-12T09:46:22Z</time></trkpt><trkpt lat="45.730574856433684" lon="10.096027388923714"><ele>217.0</ele><time>2026-04-12T09:46:24Z</time></trkpt><trkpt lat="45.73064420425416" lon="10.095998538318128"><ele>216.99999999999997</ele><time>2026-04-12T09:46:25Z</time></trkpt><trkpt lat="45.73070980567206" lon="10.095979715325916"><ele>217.0</ele><time>2026-04-12T09:46:26Z</time></trkpt><trkpt lat="45.73083364690737" lon="10.095944749219099"><ele>216.99999999999997</ele><time>2026-04-12T09:46:28Z</time></trkpt><trkpt lat="45.73090548058878" lon="10.095924276118863"><ele>217.0</ele><time>2026-04-12T09:46:29Z</time></trkpt><trkpt lat="45.73098253371416" lon="10.095892615422388"><ele>217.0</ele><time>2026-04-12T09:46:30Z</time></trkpt><trkpt lat="45.73106525670305" lon="10.095870102782113"><ele>217.0</ele><time>2026-04-12T09:46:31Z</time></trkpt><trkpt lat="45.73115288928611" lon="10.095855040678037"><ele>216.99999999999997</ele><time>2026-04-12T09:46:32Z</time></trkpt><trkpt lat="45.73124193321119" lon="10.095844577373315"><ele>217.0</ele><time>2026-04-12T09:46:33Z</time></trkpt><trkpt lat="45.73132958779769" lon="10.095838887473409"><ele>216.6</ele><time>2026-04-12T09:46:34Z</time></trkpt><trkpt lat="45.73141897662941" lon="10.095832027577647"><ele>216.2</ele><time>2026-04-12T09:46:35Z</time></trkpt><trkpt lat="45.73151393623598" lon="10.095830839599659"><ele>215.8</ele><time>2026-04-12T09:46:36Z</time></trkpt><trkpt lat="45.73161650736105" lon="10.09582703816077"><ele>215.4</ele><time>2026-04-12T09:46:37Z</time></trkpt><trkpt lat="45.731725787226154" lon="10.0958159401604"><ele>215.0</ele><time>2026-04-12T09:46:38Z</time></trkpt><trkpt lat="45.73184249958342" lon="10.095808961462518"><ele>213.75</ele><time>2026-04-12T09:46:39Z</time></trkpt><trkpt lat="45.73196345647692" lon="10.095803627787575"><ele>212.5</ele><time>2026-04-12T09:46:40Z</time></trkpt><trkpt lat="45.73208929833042" lon="10.095827696237262"><ele>211.25</ele><time>2026-04-12T09:46:41Z</time></trkpt><trkpt lat="45.73221935178039" lon="10.09583192196344"><ele>210.0</ele><time>2026-04-12T09:46:42Z</time></trkpt><trkpt lat="45.73235522899177" lon="10.09583431304862"><ele>210.0</ele><time>2026-04-12T09:46:43Z</time></trkpt><trkpt lat="45.73249307508744" lon="10.095836585014194"><ele>210.0</ele><time>2026-04-12T09:46:44Z</time></trkpt><trkpt lat="45.73263345833445" lon="10.095840405805431"><ele>210.0</ele><time>2026-04-12T09:46:45Z</time></trkpt><trkpt lat="45.73276200472046" lon="10.095843904438244"><ele>210.0</ele><time>2026-04-12T09:46:46Z</time></trkpt><trkpt lat="45.73288976627514" lon="10.095843879524908"><ele>210.4</ele><time>2026-04-12T09:46:47Z</time></trkpt><trkpt lat="45.73301507796133" lon="10.095836148237417"><ele>210.8</ele><time>2026-04-12T09:46:48Z</time></trkpt><trkpt lat="45.73313482308966" lon="10.095821501319437"><ele>211.2</ele><time>2026-04-12T09:46:49Z</time></trkpt><trkpt lat="45.73323531596817" lon="10.095802688364337"><ele>211.6</ele><time>2026-04-12T09:46:50Z</time></trkpt><trkpt lat="45.733328794623525" lon="10.095746588161767"><ele>212.0</ele><time>2026-04-12T09:46:51Z</time></trkpt><trkpt lat="45.733421067577524" lon="10.09570388559637"><ele>211.00000000000003</ele><time>2026-04-12T09:46:52Z</time></trkpt><trkpt lat="45.73351081053034" lon="10.095669718441178"><ele>210.0</ele><time>2026-04-12T09:46:53Z</time></trkpt><trkpt lat="45.733583390789306" lon="10.095620131548669"><ele>209.0</ele><time>2026-04-12T09:46:54Z</time></trkpt><trkpt lat="45.73365444619531" lon="10.095569745568543"><ele>208.0</ele><time>2026-04-12T09:46:55Z</time></trkpt><trkpt lat="45.73372966726875" lon="10.09551546082594"><ele>207.00000000000003</ele><time>2026-04-12T09:46:56Z</time></trkpt><trkpt lat="45.73380384079485" lon="10.095459934553704"><ele>206.0</ele><time>2026-04-12T09:46:57Z</time></trkpt><trkpt lat="45.733876299975016" lon="10.09538572203666"><ele>206.00000000000003</ele><time>2026-04-12T09:46:58Z</time></trkpt><trkpt lat="45.73394877973057" lon="10.09532173307214"><ele>206.0</ele><time>2026-04-12T09:46:59Z</time></trkpt><trkpt lat="45.73402506449468" lon="10.095265973595929"><ele>206.0</ele><time>2026-04-12T09:47:00Z</time></trkpt><trkpt lat="45.73407568761812" lon="10.095157836455593"><ele>206.0</ele><time>2026-04-12T09:47:01Z</time></trkpt><trkpt lat="45.73410419800102" lon="10.095035323722254"><ele>206.00000000000003</ele><time>2026-04-12T09:47:02Z</time></trkpt><trkpt lat="45.73413238413771" lon="10.094906332112064"><ele>206.0</ele><time>2026-04-12T09:47:04Z</time></trkpt><trkpt lat="45.73411018474896" lon="10.094796744059996"><ele>205.28571428571428</ele><time>2026-04-12T09:47:05Z</time></trkpt><trkpt lat="45.734081185446485" lon="10.094701471264267"><ele>204.57142857142856</ele><time>2026-04-12T09:47:06Z</time></trkpt><trkpt lat="45.734049068126446" lon="10.094604120403341"><ele>203.85714285714283</ele><time>2026-04-12T09:47:07Z</time></trkpt><trkpt lat="45.73402009241544" lon="10.094504087354535"><ele>203.14285714285714</ele><time>2026-04-12T09:47:08Z</time></trkpt><trkpt lat="45.73399602400934" lon="10.09439488699899"><ele>202.42857142857144</ele><time>2026-04-12T09:47:09Z</time></trkpt><trkpt lat="45.73398794303576" lon="10.094292831698223"><ele>201.7142857142857</ele><time>2026-04-12T09:47:10Z</time></trkpt><trkpt lat="45.733980010816765" lon="10.094194517126466"><ele>201.0</ele><time>2026-04-12T09:47:11Z</time></trkpt><trkpt lat="45.73397506931294" lon="10.094048352318316"><ele>200.8</ele><time>2026-04-12T09:47:13Z</time></trkpt><trkpt lat="45.733995981563346" lon="10.093916066657"><ele>200.60000000000002</ele><time>2026-04-12T09:47:16Z</time></trkpt><trkpt lat="45.734115079952204" lon="10.093892472984493"><ele>200.4</ele><time>2026-04-12T09:47:18Z</time></trkpt><trkpt lat="45.73422673274709" lon="10.093806569453399"><ele>200.2</ele><time>2026-04-12T09:47:20Z</time></trkpt><trkpt lat="45.73428776805173" lon="10.093743087429054"><ele>200.0</ele><time>2026-04-12T09:47:22Z</time></trkpt><trkpt lat="45.73439203260827" lon="10.09368684634445"><ele>200.00000000000003</ele><time>2026-04-12T09:47:24Z</time></trkpt><trkpt lat="45.7344453299566" lon="10.0936275147449"><ele>200.0</ele><time>2026-04-12T09:47:25Z</time></trkpt><trkpt lat="45.7345184824042" lon="10.093561769638143"><ele>200.0</ele><time>2026-04-12T09:47:26Z</time></trkpt><trkpt lat="45.73458367267351" lon="10.093522993456219"><ele>200.0</ele><time>2026-04-12T09:47:27Z</time></trkpt><trkpt lat="45.73466303731065" lon="10.093442312057062"><ele>200.00000000000003</ele><time>2026-04-12T09:47:29Z</time></trkpt><trkpt lat="45.73475091705353" lon="10.093330662347425"><ele>200.0</ele><time>2026-04-12T09:47:31Z</time></trkpt><trkpt lat="45.73478993495445" lon="10.093256626402157"><ele>199.33333333333334</ele><time>2026-04-12T09:47:32Z</time></trkpt><trkpt lat="45.73482549117709" lon="10.093175150951991"><ele>198.66666666666669</ele><time>2026-04-12T09:47:33Z</time></trkpt><trkpt lat="45.73486642800815" lon="10.093067464757889"><ele>198.0</ele><time>2026-04-12T09:47:34Z</time></trkpt><trkpt lat="45.734917117753064" lon="10.092977960995931"><ele>197.33333333333331</ele><time>2026-04-12T09:47:35Z</time></trkpt><trkpt lat="45.73498650973013" lon="10.09291385542306"><ele>196.66666666666666</ele><time>2026-04-12T09:47:36Z</time></trkpt><trkpt lat="45.735058629488535" lon="10.092872289317466"><ele>196.0</ele><time>2026-04-12T09:47:37Z</time></trkpt><trkpt lat="45.735145964466774" lon="10.092811208598487"><ele>196.33333333333331</ele><time>2026-04-12T09:47:38Z</time></trkpt><trkpt lat="45.735225388914245" lon="10.092754286394033"><ele>196.66666666666666</ele><time>2026-04-12T09:47:39Z</time></trkpt><trkpt lat="45.735286460770055" lon="10.092669937046823"><ele>197.0</ele><time>2026-04-12T09:47:40Z</time></trkpt><trkpt lat="45.735341853720385" lon="10.092578098620871"><ele>197.33333333333331</ele><time>2026-04-12T09:47:41Z</time></trkpt><trkpt lat="45.73539542374828" lon="10.092477961427317"><ele>197.66666666666666</ele><time>2026-04-12T09:47:42Z</time></trkpt><trkpt lat="45.7354544187951" lon="10.092385943777266"><ele>198.0</ele><time>2026-04-12T09:47:43Z</time></trkpt><trkpt lat="45.735510150412" lon="10.092308959831687"><ele>197.16666666666666</ele><time>2026-04-12T09:47:44Z</time></trkpt><trkpt lat="45.73556140842128" lon="10.092240067968408"><ele>196.33333333333331</ele><time>2026-04-12T09:47:45Z</time></trkpt><trkpt lat="45.73561746838042" lon="10.092157923667543"><ele>195.5</ele><time>2026-04-12T09:47:47Z</time></trkpt><trkpt lat="45.73566924886061" lon="10.092091353988092"><ele>194.66666666666666</ele><time>2026-04-12T09:47:50Z</time></trkpt><trkpt lat="45.73572349827958" lon="10.092021483154493"><ele>193.83333333333331</ele><time>2026-04-12T09:47:53Z</time></trkpt><trkpt lat="45.73581422445966" lon="10.092042368009347"><ele>193.0</ele><time>2026-04-12T09:47:55Z</time></trkpt><trkpt lat="45.7359315359518" lon="10.092046883723196"><ele>192.99999999999997</ele><time>2026-04-12T09:47:57Z</time></trkpt><trkpt lat="45.736019347221095" lon="10.092087736274161"><ele>193.0</ele><time>2026-04-12T09:47:59Z</time></trkpt><trkpt lat="45.73609888552103" lon="10.092068728478429"><ele>193.0</ele><time>2026-04-12T09:48:02Z</time></trkpt><trkpt lat="45.736134553313086" lon="10.091994118284994"><ele>193.0</ele><time>2026-04-12T09:48:04Z</time></trkpt><trkpt lat="45.736247959638874" lon="10.092020100744646"><ele>192.99999999999997</ele><time>2026-04-12T09:48:06Z</time></trkpt><trkpt lat="45.73631103817053" lon="10.092042161330005"><ele>193.0</ele><time>2026-04-12T09:48:07Z</time></trkpt><trkpt lat="45.73637646813428" lon="10.09204937126682"><ele>192.99999999999997</ele><time>2026-04-12T09:48:08Z</time></trkpt><trkpt lat="45.7364450892506" lon="10.0920583877105"><ele>193.0</ele><time>2026-04-12T09:48:09Z</time></trkpt><trkpt lat="45.73652300385369" lon="10.092075988941565"><ele>193.0</ele><time>2026-04-12T09:48:10Z</time></trkpt><trkpt lat="45.7366009269706" lon="10.092093635771107"><ele>193.0</ele><time>2026-04-12T09:48:11Z</time></trkpt><trkpt lat="45.73667912220421" lon="10.092104284159184"><ele>192.99999999999997</ele><time>2026-04-12T09:48:12Z</time></trkpt><trkpt lat="45.7367618576844" lon="10.09211154248625"><ele>193.0</ele><time>2026-04-12T09:48:13.001Z</time></trkpt><trkpt lat="45.73685332031958" lon="10.092124204452306"><ele>192.8</ele><time>2026-04-12T09:48:14.001Z</time></trkpt><trkpt lat="45.73694298228162" lon="10.092141074924701"><ele>192.60000000000002</ele><time>2026-04-12T09:48:15.001Z</time></trkpt><trkpt lat="45.73704695965218" lon="10.092156882501142"><ele>192.39999999999998</ele><time>2026-04-12T09:48:16.001Z</time></trkpt><trkpt lat="45.73714383497128" lon="10.092173981634202"><ele>192.2</ele><time>2026-04-12T09:48:17Z</time></trkpt><trkpt lat="45.73724409654078" lon="10.092180432757248"><ele>192.0</ele><time>2026-04-12T09:48:18Z</time></trkpt><trkpt lat="45.73733786022302" lon="10.092184649250544"><ele>192.0</ele><time>2026-04-12T09:48:19Z</time></trkpt><trkpt lat="45.737426404478335" lon="10.09219405177722"><ele>192.0</ele><time>2026-04-12T09:48:20Z</time></trkpt><trkpt lat="45.73751157929916" lon="10.092207091294206"><ele>192.0</ele><time>2026-04-12T09:48:21Z</time></trkpt><trkpt lat="45.73759963566523" lon="10.092211088506398"><ele>192.0</ele><time>2026-04-12T09:48:22Z</time></trkpt><trkpt lat="45.737680183905326" lon="10.092241052237066"><ele>192.0</ele><time>2026-04-12T09:48:23Z</time></trkpt><trkpt lat="45.737764231639694" lon="10.092241626063892"><ele>192.0</ele><time>2026-04-12T09:48:24Z</time></trkpt><trkpt lat="45.737832252118324" lon="10.09225287136357"><ele>191.8</ele><time>2026-04-12T09:48:25Z</time></trkpt><trkpt lat="45.737948633649154" lon="10.092272229254949"><ele>191.6</ele><time>2026-04-12T09:48:27Z</time></trkpt><trkpt lat="45.73806002758628" lon="10.092287117606872"><ele>191.4</ele><time>2026-04-12T09:48:29Z</time></trkpt><trkpt lat="45.73816126308236" lon="10.092312258103336"><ele>191.20000000000002</ele><time>2026-04-12T09:48:31Z</time></trkpt><trkpt lat="45.738245515253446" lon="10.092315162337831"><ele>191.0</ele><time>2026-04-12T09:48:33Z</time></trkpt><trkpt lat="45.73833150944084" lon="10.092326410819634"><ele>191.0</ele><time>2026-04-12T09:48:35Z</time></trkpt><trkpt lat="45.73840515333362" lon="10.092354393112382"><ele>191.0</ele><time>2026-04-12T09:48:37Z</time></trkpt><trkpt lat="45.738490957462965" lon="10.09236317926641"><ele>191.0</ele><time>2026-04-12T09:48:39Z</time></trkpt><trkpt lat="45.73859950491187" lon="10.092355349424652"><ele>191.0</ele><time>2026-04-12T09:48:41Z</time></trkpt><trkpt lat="45.73872147003011" lon="10.092358580054661"><ele>191.0</ele><time>2026-04-12T09:48:43Z</time></trkpt><trkpt lat="45.738843400144944" lon="10.092357894218969"><ele>193.0</ele><time>2026-04-12T09:48:45Z</time></trkpt><trkpt lat="45.738951941080224" lon="10.092367699509426"><ele>193.0</ele><time>2026-04-12T09:48:47Z</time></trkpt><trkpt lat="45.73904996389689" lon="10.09236351487201"><ele>193.0</ele><time>2026-04-12T09:48:49Z</time></trkpt><trkpt lat="45.73914597542732" lon="10.092336323479563"><ele>193.0</ele><time>2026-04-12T09:48:51Z</time></trkpt><trkpt lat="45.73923057312249" lon="10.092318069927938"><ele>193.0</ele><time>2026-04-12T09:48:54Z</time></trkpt></trkseg><trkseg><trkpt lat="45.73931139256764" lon="10.092275298520315"><ele>193.0</ele><time>2026-04-12T10:08:55.001Z</time></trkpt><trkpt lat="45.739376142624295" lon="10.092224587321285"><ele>193.0</ele><time>2026-04-12T10:09:30.001Z</time></trkpt><trkpt lat="45.73948447353285" lon="10.092137527255698"><ele>193.0</ele><time>2026-04-12T10:09:32.001Z</time></trkpt><trkpt lat="45.73956585494399" lon="10.09207224989427"><ele>193.0</ele><time>2026-04-12T10:09:33.001Z</time></trkpt><trkpt lat="45.739643729602975" lon="10.09201092341176"><ele>193.0</ele><time>2026-04-12T10:09:34.001Z</time></trkpt><trkpt lat="45.739731703436505" lon="10.091950433973006"><ele>193.0</ele><time>2026-04-12T10:09:35.001Z</time></trkpt><trkpt lat="45.73983065400193" lon="10.091889237280501"><ele>193.0</ele><time>2026-04-12T10:09:36.001Z</time></trkpt><trkpt lat="45.73994150023384" lon="10.091837614997601"><ele>193.0</ele><time>2026-04-12T10:09:37.001Z</time></trkpt><trkpt lat="45.740057677585064" lon="10.091819869524976"><ele>193.0</ele><time>2026-04-12T10:09:38.001Z</time></trkpt><trkpt lat="45.74017489026647" lon="10.091836892382638"><ele>192.5</ele><time>2026-04-12T10:09:39.001Z</time></trkpt><trkpt lat="45.7402982272586" lon="10.091856377483232"><ele>192.0</ele><time>2026-04-12T10:09:40.001Z</time></trkpt><trkpt lat="45.74042171821496" lon="10.091870319858144"><ele>191.5</ele><time>2026-04-12T10:09:41.001Z</time></trkpt><trkpt lat="45.740545180477014" lon="10.091884544738507"><ele>191.0</ele><time>2026-04-12T10:09:42.001Z</time></trkpt><trkpt lat="45.74066207204391" lon="10.091898617715442"><ele>191.0</ele><time>2026-04-12T10:09:43.001Z</time></trkpt><trkpt lat="45.74077634469715" lon="10.09191572058483"><ele>191.0</ele><time>2026-04-12T10:09:44.001Z</time></trkpt><trkpt lat="45.74088862019727" lon="10.091933521243021"><ele>191.0</ele><time>2026-04-12T10:09:45.001Z</time></trkpt><trkpt lat="45.74098140763206" lon="10.091945350497985"><ele>191.0</ele><time>2026-04-12T10:09:46.001Z</time></trkpt><trkpt lat="45.74106886142708" lon="10.091952868342428"><ele>191.0</ele><time>2026-04-12T10:09:47.001Z</time></trkpt><trkpt lat="45.74114141948527" lon="10.091957255260523"><ele>193.4</ele><time>2026-04-12T10:09:48.001Z</time></trkpt><trkpt lat="45.74124572981763" lon="10.091956854037342"><ele>195.8</ele><time>2026-04-12T10:09:50.001Z</time></trkpt><trkpt lat="45.74132486645508" lon="10.09195308888372"><ele>198.20000000000002</ele><time>2026-04-12T10:09:51.001Z</time></trkpt><trkpt lat="45.741411891287896" lon="10.091942438179672"><ele>200.60000000000002</ele><time>2026-04-12T10:09:52.001Z</time></trkpt><trkpt lat="45.741514241671666" lon="10.091889105911228"><ele>203.0</ele><time>2026-04-12T10:09:53.001Z</time></trkpt><trkpt lat="45.74162363404124" lon="10.091791778146694"><ele>203.0</ele><time>2026-04-12T10:09:54.001Z</time></trkpt><trkpt lat="45.741741310779815" lon="10.091681298890638"><ele>203.0</ele><time>2026-04-12T10:09:55.001Z</time></trkpt><trkpt lat="45.74186495454042" lon="10.091555393667234"><ele>203.0</ele><time>2026-04-12T10:09:56.001Z</time></trkpt><trkpt lat="45.741989954001795" lon="10.091430749999276"><ele>203.0</ele><time>2026-04-12T10:09:57.001Z</time></trkpt><trkpt lat="45.742118789632016" lon="10.09130322830999"><ele>207.66666666666669</ele><time>2026-04-12T10:09:58.017Z</time></trkpt><trkpt lat="45.74224859617055" lon="10.091177992132575"><ele>212.33333333333331</ele><time>2026-04-12T10:09:59.02Z</time></trkpt><trkpt lat="45.74237937792335" lon="10.091048676204565"><ele>217.0</ele><time>2026-04-12T10:10:00.019Z</time></trkpt><trkpt lat="45.74251255699328" lon="10.090906186482913"><ele>217.0</ele><time>2026-04-12T10:10:01.017Z</time></trkpt><trkpt lat="45.742640494016676" lon="10.090779682814892"><ele>217.0</ele><time>2026-04-12T10:10:02.017Z</time></trkpt><trkpt lat="45.74293351831907" lon="10.090748911434437"><ele>217.0</ele><time>2026-04-12T10:10:04.001Z</time></trkpt><trkpt lat="45.74307319879616" lon="10.090699567182508"><ele>214.33333333333331</ele><time>2026-04-12T10:10:05.001Z</time></trkpt><trkpt lat="45.743240082473754" lon="10.090654093494429"><ele>211.66666666666669</ele><time>2026-04-12T10:10:06.001Z</time></trkpt><trkpt lat="45.7433893701838" lon="10.090602841970638"><ele>209.0</ele><time>2026-04-12T10:10:07.001Z</time></trkpt><trkpt lat="45.74352887413418" lon="10.09053800535018"><ele>208.66666666666669</ele><time>2026-04-12T10:10:08.001Z</time></trkpt><trkpt lat="45.74367159370089" lon="10.090464687029208"><ele>208.33333333333331</ele><time>2026-04-12T10:10:09.001Z</time></trkpt><trkpt lat="45.74385628587487" lon="10.090382054803978"><ele>208.0</ele><time>2026-04-12T10:10:10.001Z</time></trkpt><trkpt lat="45.74401527446967" lon="10.090325397716507"><ele>208.0</ele><time>2026-04-12T10:10:11.001Z</time></trkpt><trkpt lat="45.74423345588399" lon="10.090138579678232"><ele>208.0</ele><time>2026-04-12T10:10:12.001Z</time></trkpt><trkpt lat="45.744412431050115" lon="10.090035232140622"><ele>208.0</ele><time>2026-04-12T10:10:13.002Z</time></trkpt><trkpt lat="45.744585969145426" lon="10.089958804505047"><ele>200.0</ele><time>2026-04-12T10:10:14.002Z</time></trkpt><trkpt lat="45.744747182938255" lon="10.089897661191895"><ele>192.0</ele><time>2026-04-12T10:10:15.002Z</time></trkpt><trkpt lat="45.74491626164686" lon="10.089819695343095"><ele>184.0</ele><time>2026-04-12T10:10:16.002Z</time></trkpt><trkpt lat="45.7450783655301" lon="10.089738912865538"><ele>185.33333333333334</ele><time>2026-04-12T10:10:17.002Z</time></trkpt><trkpt lat="45.74524661777661" lon="10.089658727022307"><ele>186.66666666666666</ele><time>2026-04-12T10:10:18.002Z</time></trkpt><trkpt lat="45.74541166984975" lon="10.089585304884075"><ele>188.0</ele><time>2026-04-12T10:10:19.002Z</time></trkpt><trkpt lat="45.745570102280254" lon="10.089479354632285"><ele>188.0</ele><time>2026-04-12T10:10:20.002Z</time></trkpt><trkpt lat="45.74573821041347" lon="10.089388455636824"><ele>188.0</ele><time>2026-04-12T10:10:21.002Z</time></trkpt><trkpt lat="45.74590283851439" lon="10.089307235373871"><ele>188.0</ele><time>2026-04-12T10:10:22.002Z</time></trkpt><trkpt lat="45.74606997861156" lon="10.089219557053227"><ele>186.33333333333331</ele><time>2026-04-12T10:10:23.002Z</time></trkpt><trkpt lat="45.74623979474318" lon="10.089132363447746"><ele>184.66666666666666</ele><time>2026-04-12T10:10:24.002Z</time></trkpt><trkpt lat="45.74640738892365" lon="10.089025506993638"><ele>183.0</ele><time>2026-04-12T10:10:25.002Z</time></trkpt><trkpt lat="45.74658022737692" lon="10.088939316165053"><ele>183.0</ele><time>2026-04-12T10:10:26.002Z</time></trkpt><trkpt lat="45.74675189807261" lon="10.08886652222316"><ele>183.0</ele><time>2026-04-12T10:10:27.002Z</time></trkpt><trkpt lat="45.746925625134494" lon="10.088789512783293"><ele>183.0</ele><time>2026-04-12T10:10:28.002Z</time></trkpt><trkpt lat="45.7471002815699" lon="10.088731441139004"><ele>185.33333333333334</ele><time>2026-04-12T10:10:29.002Z</time></trkpt><trkpt lat="45.74727684439864" lon="10.088656351206785"><ele>187.66666666666669</ele><time>2026-04-12T10:10:30.002Z</time></trkpt><trkpt lat="45.74744709165973" lon="10.088583435507962"><ele>190.0</ele><time>2026-04-12T10:10:31.002Z</time></trkpt><trkpt lat="45.74761103414549" lon="10.088512919681303"><ele>192.0</ele><time>2026-04-12T10:10:32.002Z</time></trkpt><trkpt lat="45.74776932571928" lon="10.08844413767038"><ele>194.0</ele><time>2026-04-12T10:10:33.002Z</time></trkpt><trkpt lat="45.74791393069127" lon="10.088372507992958"><ele>196.0</ele><time>2026-04-12T10:10:34.002Z</time></trkpt><trkpt lat="45.7480457723925" lon="10.088295897902285"><ele>193.0</ele><time>2026-04-12T10:10:35.002Z</time></trkpt><trkpt lat="45.74817004438711" lon="10.088209115132656"><ele>190.0</ele><time>2026-04-12T10:10:36.002Z</time></trkpt><trkpt lat="45.748283438370606" lon="10.088093724784404"><ele>187.0</ele><time>2026-04-12T10:10:37.002Z</time></trkpt><trkpt lat="45.74839885612604" lon="10.08799839382889"><ele>184.0</ele><time>2026-04-12T10:10:38.002Z</time></trkpt><trkpt lat="45.7485116825053" lon="10.087892931694585"><ele>185.75</ele><time>2026-04-12T10:10:39.002Z</time></trkpt><trkpt lat="45.748614559512845" lon="10.08779684210572"><ele>187.5</ele><time>2026-04-12T10:10:40.002Z</time></trkpt><trkpt lat="45.74871850523398" lon="10.087704048784502"><ele>189.25</ele><time>2026-04-12T10:10:41.002Z</time></trkpt><trkpt lat="45.74882167170889" lon="10.087608676741112"><ele>191.0</ele><time>2026-04-12T10:10:42.002Z</time></trkpt><trkpt lat="45.74892692530917" lon="10.087517530450896"><ele>189.0</ele><time>2026-04-12T10:10:43.002Z</time></trkpt><trkpt lat="45.749032596082046" lon="10.087426069513247"><ele>187.0</ele><time>2026-04-12T10:10:44.002Z</time></trkpt><trkpt lat="45.74912676496479" lon="10.087341145676628"><ele>185.0</ele><time>2026-04-12T10:10:45.002Z</time></trkpt><trkpt lat="45.749222269185246" lon="10.08725002525299"><ele>183.0</ele><time>2026-04-12T10:10:46.002Z</time></trkpt><trkpt lat="45.74932458081556" lon="10.087156085013685"><ele>185.60000000000002</ele><time>2026-04-12T10:10:47.002Z</time></trkpt><trkpt lat="45.749419927903105" lon="10.087065996110386"><ele>188.20000000000002</ele><time>2026-04-12T10:10:48.002Z</time></trkpt><trkpt lat="45.749513471822674" lon="10.086986680587083"><ele>190.8</ele><time>2026-04-12T10:10:49.002Z</time></trkpt><trkpt lat="45.74960269567792" lon="10.086906944127902"><ele>193.4</ele><time>2026-04-12T10:10:50.001Z</time></trkpt><trkpt lat="45.749684510739144" lon="10.086816377158431"><ele>196.0</ele><time>2026-04-12T10:10:51.001Z</time></trkpt><trkpt lat="45.74976326181554" lon="10.086734914216038"><ele>196.0</ele><time>2026-04-12T10:10:52.001Z</time></trkpt><trkpt lat="45.74983958868459" lon="10.086658524264523"><ele>196.0</ele><time>2026-04-12T10:10:53.001Z</time></trkpt><trkpt lat="45.749916873984375" lon="10.086586637263798"><ele>196.0</ele><time>2026-04-12T10:10:54.001Z</time></trkpt><trkpt lat="45.749992163932355" lon="10.086501918767803"><ele>196.0</ele><time>2026-04-12T10:10:55.001Z</time></trkpt><trkpt lat="45.75006069160855" lon="10.086424505626255"><ele>196.0</ele><time>2026-04-12T10:10:56.001Z</time></trkpt><trkpt lat="45.75013583245635" lon="10.086352516938101"><ele>196.83333333333331</ele><time>2026-04-12T10:10:57.001Z</time></trkpt><trkpt lat="45.75021128716635" lon="10.086281971960375"><ele>197.66666666666666</ele><time>2026-04-12T10:10:58.001Z</time></trkpt><trkpt lat="45.75028269114789" lon="10.086193504348945"><ele>198.5</ele><time>2026-04-12T10:10:59.001Z</time></trkpt><trkpt lat="45.75035863387675" lon="10.086117745612153"><ele>199.33333333333331</ele><time>2026-04-12T10:11:00.001Z</time></trkpt><trkpt lat="45.750422967435206" lon="10.086052282200145"><ele>200.16666666666666</ele><time>2026-04-12T10:11:01.001Z</time></trkpt><trkpt lat="45.75048838369515" lon="10.085983656553351"><ele>201.0</ele><time>2026-04-12T10:11:02Z</time></trkpt><trkpt lat="45.75055148825973" lon="10.085921019608353"><ele>201.0</ele><time>2026-04-12T10:11:03Z</time></trkpt><trkpt lat="45.75060216954573" lon="10.085866060153677"><ele>201.0</ele><time>2026-04-12T10:11:04Z</time></trkpt><trkpt lat="45.75065529364464" lon="10.08581370691871"><ele>201.0</ele><time>2026-04-12T10:11:05Z</time></trkpt><trkpt lat="45.75073782036685" lon="10.085735103828993"><ele>201.0</ele><time>2026-04-12T10:11:07Z</time></trkpt><trkpt lat="45.75080005871709" lon="10.085602586945743"><ele>201.0</ele><time>2026-04-12T10:11:09Z</time></trkpt><trkpt lat="45.750866241832085" lon="10.085581081368288"><ele>201.0</ele><time>2026-04-12T10:11:12Z</time></trkpt><trkpt lat="45.75093853866826" lon="10.085506803921788"><ele>200.0</ele><time>2026-04-12T10:14:36.001Z</time></trkpt><trkpt lat="45.75100065066331" lon="10.085455925362119"><ele>199.0</ele><time>2026-04-12T10:14:37.001Z</time></trkpt><trkpt lat="45.75106928496963" lon="10.085394141311136"><ele>198.0</ele><time>2026-04-12T10:14:38.001Z</time></trkpt><trkpt lat="45.7511432779739" lon="10.085330368221186"><ele>197.0</ele><time>2026-04-12T10:14:39.001Z</time></trkpt><trkpt lat="45.75121909846826" lon="10.085264419025293"><ele>196.0</ele><time>2026-04-12T10:14:40.001Z</time></trkpt><trkpt lat="45.751288591283476" lon="10.085203418513707"><ele>195.0</ele><time>2026-04-12T10:14:41.001Z</time></trkpt><trkpt lat="45.751350783188684" lon="10.085149527228292"><ele>195.0</ele><time>2026-04-12T10:14:42.001Z</time></trkpt><trkpt lat="45.751430925566176" lon="10.085081833544514"><ele>195.0</ele><time>2026-04-12T10:14:43.002Z</time></trkpt><trkpt lat="45.75152273980559" lon="10.085000037849248"><ele>195.0</ele><time>2026-04-12T10:14:44.002Z</time></trkpt><trkpt lat="45.75162716207148" lon="10.084916544312211"><ele>195.0</ele><time>2026-04-12T10:14:45.002Z</time></trkpt><trkpt lat="45.751732879611126" lon="10.084841242740936"><ele>195.0</ele><time>2026-04-12T10:14:46.002Z</time></trkpt><trkpt lat="45.75184062220738" lon="10.084769789589311"><ele>196.75</ele><time>2026-04-12T10:14:47.002Z</time></trkpt><trkpt lat="45.75194892512179" lon="10.084696193899813"><ele>198.5</ele><time>2026-04-12T10:14:48.002Z</time></trkpt><trkpt lat="45.75205625431365" lon="10.084620014151511"><ele>200.25</ele><time>2026-04-12T10:14:49.002Z</time></trkpt><trkpt lat="45.752163015634494" lon="10.084541901415603"><ele>202.0</ele><time>2026-04-12T10:14:50.002Z</time></trkpt><trkpt lat="45.75227360288944" lon="10.084459726512986"><ele>202.0</ele><time>2026-04-12T10:14:51.002Z</time></trkpt><trkpt lat="45.752383913203666" lon="10.084371316658789"><ele>202.0</ele><time>2026-04-12T10:14:52.002Z</time></trkpt><trkpt lat="45.75249718475721" lon="10.084280872627168"><ele>202.0</ele><time>2026-04-12T10:14:53.002Z</time></trkpt><trkpt lat="45.75261258834926" lon="10.084194020314277"><ele>202.0</ele><time>2026-04-12T10:14:54.002Z</time></trkpt><trkpt lat="45.75272611179458" lon="10.084103382373037"><ele>204.33333333333331</ele><time>2026-04-12T10:14:55.002Z</time></trkpt><trkpt lat="45.75283460455059" lon="10.083992949679914"><ele>206.66666666666669</ele><time>2026-04-12T10:14:56.002Z</time></trkpt><trkpt lat="45.752949303807796" lon="10.083895821223514"><ele>209.0</ele><time>2026-04-12T10:14:57.002Z</time></trkpt><trkpt lat="45.75317787894096" lon="10.083701700294018"><ele>209.0</ele><time>2026-04-12T10:14:59.002Z</time></trkpt><trkpt lat="45.75329369857494" lon="10.083600662264779"><ele>209.0</ele><time>2026-04-12T10:15:00.002Z</time></trkpt><trkpt lat="45.753411765721545" lon="10.083497946826329"><ele>209.0</ele><time>2026-04-12T10:15:01.015Z</time></trkpt><trkpt lat="45.75352898931124" lon="10.08339271576742"><ele>209.0</ele><time>2026-04-12T10:15:02.015Z</time></trkpt><trkpt lat="45.75364619277826" lon="10.083286165628138"><ele>208.33333333333334</ele><time>2026-04-12T10:15:03.017Z</time></trkpt><trkpt lat="45.75376300412763" lon="10.08317526961241"><ele>207.66666666666669</ele><time>2026-04-12T10:15:04.017Z</time></trkpt><trkpt lat="45.75387969622882" lon="10.083063013379894"><ele>207.0</ele><time>2026-04-12T10:15:05.016Z</time></trkpt><trkpt lat="45.7540454782911" lon="10.08288324109318"><ele>207.0</ele><time>2026-04-12T10:15:07.002Z</time></trkpt><trkpt lat="45.75414994895652" lon="10.082756889511092"><ele>207.0</ele><time>2026-04-12T10:15:08.001Z</time></trkpt><trkpt lat="45.75427165369417" lon="10.08256683181558"><ele>207.0</ele><time>2026-04-12T10:15:09.001Z</time></trkpt><trkpt lat="45.75439130798872" lon="10.082445458351126"><ele>209.6</ele><time>2026-04-12T10:15:10.001Z</time></trkpt><trkpt lat="45.75452195312607" lon="10.082333420650265"><ele>212.2</ele><time>2026-04-12T10:15:11.001Z</time></trkpt><trkpt lat="45.75456593254143" lon="10.082190214952409"><ele>214.8</ele><time>2026-04-12T10:15:12.001Z</time></trkpt><trkpt lat="45.754613079732266" lon="10.082104461998464"><ele>217.4</ele><time>2026-04-12T10:15:16Z</time></trkpt><trkpt lat="45.75468197547918" lon="10.082034728232822"><ele>220.0</ele><time>2026-04-12T10:15:44Z</time></trkpt><trkpt lat="45.75482460005985" lon="10.082082683399218"><ele>220.0</ele><time>2026-04-12T10:15:46Z</time></trkpt><trkpt lat="45.754907463896195" lon="10.082120293084909"><ele>220.0</ele><time>2026-04-12T10:15:47Z</time></trkpt><trkpt lat="45.75499910641703" lon="10.082166550051351"><ele>220.0</ele><time>2026-04-12T10:15:48Z</time></trkpt><trkpt lat="45.75510226320618" lon="10.082225707089746"><ele>220.0</ele><time>2026-04-12T10:15:49.015Z</time></trkpt><trkpt lat="45.7552135240451" lon="10.08228586583021"><ele>220.0</ele><time>2026-04-12T10:15:50.015Z</time></trkpt><trkpt lat="45.75532660116047" lon="10.082342682357105"><ele>233.66666666666666</ele><time>2026-04-12T10:15:51.016Z</time></trkpt><trkpt lat="45.75545064073825" lon="10.082393360126224"><ele>247.33333333333331</ele><time>2026-04-12T10:15:52.016Z</time></trkpt><trkpt lat="45.75557764908916" lon="10.08243474183996"><ele>261.0</ele><time>2026-04-12T10:15:53.018Z</time></trkpt><trkpt lat="45.75688844891684" lon="10.081414754187584"><ele>281.0</ele><time>2026-04-12T10:15:57.309Z</time></trkpt><trkpt lat="45.757174006108656" lon="10.081103233743935"><ele>301.0</ele><time>2026-04-12T10:15:58.308Z</time></trkpt><trkpt lat="45.75746001719822" lon="10.080791218133534"><ele>299.0</ele><time>2026-04-12T10:15:59.308Z</time></trkpt><trkpt lat="45.75774591752561" lon="10.08047891098182"><ele>297.0</ele><time>2026-04-12T10:16:00.308Z</time></trkpt><trkpt lat="45.758025041691106" lon="10.080149566499069"><ele>275.0</ele><time>2026-04-12T10:16:01.308Z</time></trkpt><trkpt lat="45.75814937243947" lon="10.079658237586385"><ele>253.0</ele><time>2026-04-12T10:16:02.307Z</time></trkpt><trkpt lat="45.7581032" lon="10.0793317"><ele>226.0</ele><time>2026-04-12T10:16:03.31Z</time></trkpt><trkpt lat="45.75796448164224" lon="10.078541273260562"><ele>226.0</ele><time>2026-04-12T10:16:23.001Z</time></trkpt><trkpt lat="45.75798325468934" lon="10.078397225674857"><ele>226.0</ele><time>2026-04-12T10:16:24.001Z</time></trkpt><trkpt lat="45.75809219665108" lon="10.078274053023735"><ele>226.0</ele><time>2026-04-12T10:16:25.001Z</time></trkpt><trkpt lat="45.75819838009273" lon="10.078184833055209"><ele>226.0</ele><time>2026-04-12T10:16:26.001Z</time></trkpt><trkpt lat="45.75830237387941" lon="10.078062844855408"><ele>222.0</ele><time>2026-04-12T10:16:27.001Z</time></trkpt><trkpt lat="45.75840225120883" lon="10.077920668113135"><ele>218.0</ele><time>2026-04-12T10:16:28.001Z</time></trkpt><trkpt lat="45.75850383466875" lon="10.07778267714744"><ele>214.0</ele><time>2026-04-12T10:16:29.001Z</time></trkpt><trkpt lat="45.7586073839495" lon="10.077624276526937"><ele>210.0</ele><time>2026-04-12T10:16:30.001Z</time></trkpt><trkpt lat="45.7586996294886" lon="10.077449012809542"><ele>220.33333333333331</ele><time>2026-04-12T10:16:31.001Z</time></trkpt><trkpt lat="45.758782329636304" lon="10.077263273133306"><ele>230.66666666666666</ele><time>2026-04-12T10:16:32.001Z</time></trkpt><trkpt lat="45.75886577132509" lon="10.077081144553192"><ele>241.0</ele><time>2026-04-12T10:16:33.001Z</time></trkpt><trkpt lat="45.75895098400391" lon="10.076890272439433"><ele>241.0</ele><time>2026-04-12T10:16:34.001Z</time></trkpt><trkpt lat="45.75904340733417" lon="10.076701417389529"><ele>241.0</ele><time>2026-04-12T10:16:35.016Z</time></trkpt><trkpt lat="45.75914536624823" lon="10.076520129315627"><ele>241.0</ele><time>2026-04-12T10:16:36.015Z</time></trkpt><trkpt lat="45.75925756467531" lon="10.076349539698391"><ele>246.0</ele><time>2026-04-12T10:16:37.016Z</time></trkpt><trkpt lat="45.75937293775933" lon="10.076181414703953"><ele>251.0</ele><time>2026-04-12T10:16:38.018Z</time></trkpt><trkpt lat="45.761787547248936" lon="10.074792106154801"><ele>246.0</ele><time>2026-04-12T10:16:42.308Z</time></trkpt><trkpt lat="45.7635883776837" lon="10.073963461724647"><ele>246.0</ele><time>2026-04-12T10:16:45.312Z</time></trkpt><trkpt lat="45.76417420291196" lon="10.073634481316024"><ele>226.0</ele><time>2026-04-12T10:16:46.311Z</time></trkpt><trkpt lat="45.76474442344546" lon="10.07325202208126"><ele>211.0</ele><time>2026-04-12T10:16:47.312Z</time></trkpt><trkpt lat="45.76205221009046" lon="10.074751228103484"><ele>211.0</ele><time>2026-04-12T10:16:54.001Z</time></trkpt><trkpt lat="45.762242720611184" lon="10.07466683390058"><ele>211.0</ele><time>2026-04-12T10:16:55.001Z</time></trkpt><trkpt lat="45.76247107794553" lon="10.07453169496175"><ele>211.0</ele><time>2026-04-12T10:16:56.001Z</time></trkpt><trkpt lat="45.7626666454813" lon="10.074441687189802"><ele>220.66666666666666</ele><time>2026-04-12T10:16:57.001Z</time></trkpt><trkpt lat="45.76284512301561" lon="10.074363325993662"><ele>230.33333333333331</ele><time>2026-04-12T10:16:58.001Z</time></trkpt><trkpt lat="45.76302643429641" lon="10.074280426992598"><ele>240.0</ele><time>2026-04-12T10:16:59.001Z</time></trkpt><trkpt lat="45.763203096564865" lon="10.07419707480231"><ele>240.0</ele><time>2026-04-12T10:17:00.001Z</time></trkpt><trkpt lat="45.76337690209796" lon="10.074112540571246"><ele>240.0</ele><time>2026-04-12T10:17:01.001Z</time></trkpt><trkpt lat="45.76355438518687" lon="10.074026887716268"><ele>240.0</ele><time>2026-04-12T10:17:02.001Z</time></trkpt><trkpt lat="45.76373208550707" lon="10.073936963315827"><ele>242.0</ele><time>2026-04-12T10:17:03.016Z</time></trkpt><trkpt lat="45.76390614797899" lon="10.07384309207309"><ele>244.0</ele><time>2026-04-12T10:17:04.014Z</time></trkpt><trkpt lat="45.76407956214581" lon="10.073750871810002"><ele>246.0</ele><time>2026-04-12T10:17:05.017Z</time></trkpt><trkpt lat="45.764250792424235" lon="10.07365475128499"><ele>263.0</ele><time>2026-04-12T10:17:06.014Z</time></trkpt><trkpt lat="45.764419844381216" lon="10.073551436137045"><ele>280.0</ele><time>2026-04-12T10:17:07.013Z</time></trkpt><trkpt lat="45.764586937262735" lon="10.073443137054634"><ele>297.0</ele><time>2026-04-12T10:17:08.017Z</time></trkpt><trkpt lat="45.764751930761996" lon="10.073333924030115"><ele>257.0</ele><time>2026-04-12T10:17:09.016Z</time></trkpt><trkpt lat="45.76704960034855" lon="10.071443375531828"><ele>257.0</ele><time>2026-04-12T10:17:13.312Z</time></trkpt><trkpt lat="45.767599599706756" lon="10.07100511387798"><ele>246.0</ele><time>2026-04-12T10:17:14.312Z</time></trkpt><trkpt lat="45.768098075635784" lon="10.07045844793089"><ele>246.0</ele><time>2026-04-12T10:17:15.312Z</time></trkpt><trkpt lat="45.7684202" lon="10.0699763"><ele>248.0</ele><time>2026-04-12T10:17:16.308Z</time></trkpt><trkpt lat="45.76855954252721" lon="10.070016291001876"><ele>250.0</ele><time>2026-04-12T10:17:35.002Z</time></trkpt><trkpt lat="45.76871682894022" lon="10.069716302687366"><ele>252.0</ele><time>2026-04-12T10:17:36.002Z</time></trkpt><trkpt lat="45.76884388511645" lon="10.069551755444635"><ele>252.0</ele><time>2026-04-12T10:17:37.002Z</time></trkpt><trkpt lat="45.768967874561575" lon="10.069373504353074"><ele>252.0</ele><time>2026-04-12T10:17:38.002Z</time></trkpt><trkpt lat="45.76911269107825" lon="10.06924445716274"><ele>252.0</ele><time>2026-04-12T10:17:39.002Z</time></trkpt><trkpt lat="45.76927152078175" lon="10.069140125450962"><ele>246.66666666666669</ele><time>2026-04-12T10:17:40.002Z</time></trkpt><trkpt lat="45.7694333771145" lon="10.069048565782733"><ele>241.33333333333334</ele><time>2026-04-12T10:17:41.002Z</time></trkpt><trkpt lat="45.76960863926669" lon="10.068975178998617"><ele>236.0</ele><time>2026-04-12T10:17:42.002Z</time></trkpt><trkpt lat="45.769786252130075" lon="10.06890860907636"><ele>236.0</ele><time>2026-04-12T10:17:43.002Z</time></trkpt><trkpt lat="45.76995808290986" lon="10.068845812341635"><ele>236.0</ele><time>2026-04-12T10:17:43.999Z</time></trkpt><trkpt lat="45.77013615982101" lon="10.068799599460169"><ele>236.0</ele><time>2026-04-12T10:17:44.999Z</time></trkpt><trkpt lat="45.77031826298926" lon="10.068749261761456"><ele>236.66666666666669</ele><time>2026-04-12T10:17:45.999Z</time></trkpt><trkpt lat="45.77049956405699" lon="10.068709563231138"><ele>237.33333333333331</ele><time>2026-04-12T10:17:46.999Z</time></trkpt><trkpt lat="45.77068626778625" lon="10.06868101355113"><ele>238.0</ele><time>2026-04-12T10:17:47.999Z</time></trkpt><trkpt lat="45.770875863377846" lon="10.06866892634597"><ele>240.33333333333331</ele><time>2026-04-12T10:17:48.999Z</time></trkpt><trkpt lat="45.77105955248386" lon="10.068671698235475"><ele>242.66666666666669</ele><time>2026-04-12T10:17:49.999Z</time></trkpt><trkpt lat="45.77123077436712" lon="10.068679041606723"><ele>245.0</ele><time>2026-04-12T10:17:50.999Z</time></trkpt><trkpt lat="45.771396131860214" lon="10.068702947973039"><ele>245.0</ele><time>2026-04-12T10:17:51.999Z</time></trkpt><trkpt lat="45.77155594373275" lon="10.06873488083708"><ele>245.0</ele><time>2026-04-12T10:17:52.999Z</time></trkpt><trkpt lat="45.77171562665459" lon="10.068781724391176"><ele>245.0</ele><time>2026-04-12T10:17:53.999Z</time></trkpt><trkpt lat="45.771878446559974" lon="10.068840216049413"><ele>251.33333333333334</ele><time>2026-04-12T10:17:54.999Z</time></trkpt><trkpt lat="45.77204296114442" lon="10.068902407504526"><ele>257.6666666666667</ele><time>2026-04-12T10:17:56Z</time></trkpt><trkpt lat="45.772210592404505" lon="10.06897078462217"><ele>264.0</ele><time>2026-04-12T10:17:57.018Z</time></trkpt><trkpt lat="45.77237447077806" lon="10.069033971454127"><ele>264.0</ele><time>2026-04-12T10:17:58.017Z</time></trkpt><trkpt lat="45.77253454497251" lon="10.069094114247514"><ele>264.0</ele><time>2026-04-12T10:17:59.019Z</time></trkpt><trkpt lat="45.7726935639677" lon="10.069149579301065"><ele>264.0</ele><time>2026-04-12T10:18:00.015Z</time></trkpt><trkpt lat="45.77285315897774" lon="10.069203688402071"><ele>257.0</ele><time>2026-04-12T10:18:01.019Z</time></trkpt><trkpt lat="45.7730109082944" lon="10.069258762028934"><ele>250.0</ele><time>2026-04-12T10:18:02.016Z</time></trkpt><trkpt lat="45.77534114202548" lon="10.070943782043317"><ele>250.0</ele><time>2026-04-12T10:18:06.309Z</time></trkpt><trkpt lat="45.77583375093075" lon="10.07150583377748"><ele>232.0</ele><time>2026-04-12T10:18:07.31Z</time></trkpt><trkpt lat="45.77632341273452" lon="10.07207121471594"><ele>283.0</ele><time>2026-04-12T10:18:08.309Z</time></trkpt><trkpt lat="45.7768485042321" lon="10.0725640933108"><ele>271.0</ele><time>2026-04-12T10:18:09.308Z</time></trkpt><trkpt lat="45.7774430141576" lon="10.072865009154965"><ele>266.0</ele><time>2026-04-12T10:18:10.313Z</time></trkpt><trkpt lat="45.778065778552346" lon="10.072991316190073"><ele>216.0</ele><time>2026-04-12T10:18:11.313Z</time></trkpt><trkpt lat="45.778691333577704" lon="10.073077728877909"><ele>216.0</ele><time>2026-04-12T10:18:12.311Z</time></trkpt><trkpt lat="45.779317013221785" lon="10.073169068467486"><ele>210.5</ele><time>2026-04-12T10:18:13.309Z</time></trkpt><trkpt lat="45.7794697" lon="10.0731914"><ele>205.0</ele><time>2026-04-12T10:18:14.309Z</time></trkpt><trkpt lat="45.783763099504434" lon="10.07990383544013"><ele>198.66666666666666</ele><time>2026-04-12T10:19:22.001Z</time></trkpt><trkpt lat="45.78380599233613" lon="10.080176844815405"><ele>192.33333333333331</ele><time>2026-04-12T10:19:23.001Z</time></trkpt><trkpt lat="45.783842966160094" lon="10.080458264353886"><ele>186.0</ele><time>2026-04-12T10:19:24.001Z</time></trkpt><trkpt lat="45.78394172278852" lon="10.080705354955306"><ele>188.66666666666669</ele><time>2026-04-12T10:19:25.001Z</time></trkpt><trkpt lat="45.78404998689155" lon="10.080926352706737"><ele>191.33333333333334</ele><time>2026-04-12T10:19:26.001Z</time></trkpt><trkpt lat="45.7841666851437" lon="10.08112402727375"><ele>194.0</ele><time>2026-04-12T10:19:27.001Z</time></trkpt><trkpt lat="45.784289832073846" lon="10.081318312754082"><ele>191.0</ele><time>2026-04-12T10:19:28.001Z</time></trkpt><trkpt lat="45.78441744758465" lon="10.081508398861587"><ele>188.0</ele><time>2026-04-12T10:19:29.001Z</time></trkpt><trkpt lat="45.78452809827109" lon="10.081704804715901"><ele>185.0</ele><time>2026-04-12T10:19:30.001Z</time></trkpt><trkpt lat="45.784633037062676" lon="10.081908134645747"><ele>185.0</ele><time>2026-04-12T10:19:31.001Z</time></trkpt><trkpt lat="45.78472974264417" lon="10.082111540533846"><ele>185.0</ele><time>2026-04-12T10:19:32.001Z</time></trkpt><trkpt lat="45.7848169933567" lon="10.082333026657102"><ele>185.0</ele><time>2026-04-12T10:19:33.001Z</time></trkpt><trkpt lat="45.7848973973455" lon="10.082552885635371"><ele>186.66666666666666</ele><time>2026-04-12T10:19:34.001Z</time></trkpt><trkpt lat="45.78496419752647" lon="10.082788138504585"><ele>188.33333333333334</ele><time>2026-04-12T10:19:35.001Z</time></trkpt><trkpt lat="45.78502459990912" lon="10.083014390485602"><ele>190.0</ele><time>2026-04-12T10:19:36.001Z</time></trkpt><trkpt lat="45.785071444467825" lon="10.083212908392637"><ele>191.0</ele><time>2026-04-12T10:19:37.001Z</time></trkpt><trkpt lat="45.78511896206304" lon="10.083408077166222"><ele>192.0</ele><time>2026-04-12T10:19:38.001Z</time></trkpt><trkpt lat="45.78515662082219" lon="10.083596495372285"><ele>193.0</ele><time>2026-04-12T10:19:39.001Z</time></trkpt><trkpt lat="45.78520254253903" lon="10.083759873535946"><ele>194.0</ele><time>2026-04-12T10:19:40.001Z</time></trkpt><trkpt lat="45.78523485590778" lon="10.083900739639382"><ele>191.79999999999998</ele><time>2026-04-12T10:19:41.001Z</time></trkpt><trkpt lat="45.78526121239532" lon="10.084017821520973"><ele>189.6</ele><time>2026-04-12T10:19:42.001Z</time></trkpt><trkpt lat="45.78529732508079" lon="10.084136871780833"><ele>187.4</ele><time>2026-04-12T10:19:43.001Z</time></trkpt><trkpt lat="45.785348575612495" lon="10.084271226749769"><ele>185.2</ele><time>2026-04-12T10:19:44.001Z</time></trkpt><trkpt lat="45.78540961244211" lon="10.084416108657285"><ele>183.0</ele><time>2026-04-12T10:19:45.001Z</time></trkpt><trkpt lat="45.78547814541085" lon="10.08455887971658"><ele>183.0</ele><time>2026-04-12T10:19:46.001Z</time></trkpt><trkpt lat="45.78555134092701" lon="10.084709446175927"><ele>183.0</ele><time>2026-04-12T10:19:47.001Z</time></trkpt><trkpt lat="45.7856125788854" lon="10.084868703302018"><ele>183.0</ele><time>2026-04-12T10:19:48.001Z</time></trkpt><trkpt lat="45.78567530863925" lon="10.085016202997995"><ele>183.0</ele><time>2026-04-12T10:19:49.001Z</time></trkpt><trkpt lat="45.78572277066766" lon="10.085165231713708"><ele>184.2</ele><time>2026-04-12T10:19:50Z</time></trkpt><trkpt lat="45.78576382026268" lon="10.085308181297199"><ele>185.4</ele><time>2026-04-12T10:19:51Z</time></trkpt><trkpt lat="45.78579600489824" lon="10.085445259673449"><ele>186.6</ele><time>2026-04-12T10:19:52Z</time></trkpt><trkpt lat="45.785839829509435" lon="10.085566692864564"><ele>187.79999999999998</ele><time>2026-04-12T10:19:53Z</time></trkpt><trkpt lat="45.785898130570125" lon="10.085678946338223"><ele>189.0</ele><time>2026-04-12T10:19:54Z</time></trkpt><trkpt lat="45.78597726281792" lon="10.085781287544727"><ele>187.5</ele><time>2026-04-12T10:19:55Z</time></trkpt><trkpt lat="45.78606759147467" lon="10.085862903467673"><ele>186.0</ele><time>2026-04-12T10:19:56Z</time></trkpt><trkpt lat="45.78617163370643" lon="10.085939819251744"><ele>184.5</ele><time>2026-04-12T10:19:57Z</time></trkpt><trkpt lat="45.78627312670512" lon="10.086013675156508"><ele>183.0</ele><time>2026-04-12T10:19:58Z</time></trkpt><trkpt lat="45.78637436544653" lon="10.086086640289752"><ele>183.0</ele><time>2026-04-12T10:19:59Z</time></trkpt><trkpt lat="45.78646926221018" lon="10.0861711657829"><ele>183.0</ele><time>2026-04-12T10:20:00Z</time></trkpt><trkpt lat="45.78654968719958" lon="10.086280974524543"><ele>183.0</ele><time>2026-04-12T10:20:01Z</time></trkpt><trkpt lat="45.78662538209695" lon="10.086403279840768"><ele>183.0</ele><time>2026-04-12T10:20:02Z</time></trkpt><trkpt lat="45.78670726527633" lon="10.08652117314342"><ele>183.0</ele><time>2026-04-12T10:20:03Z</time></trkpt><trkpt lat="45.78679670782371" lon="10.086622226183993"><ele>183.0</ele><time>2026-04-12T10:20:04Z</time></trkpt><trkpt lat="45.78690464129546" lon="10.086720093241185"><ele>183.0</ele><time>2026-04-12T10:20:05Z</time></trkpt><trkpt lat="45.78701973748657" lon="10.086806182146958"><ele>183.0</ele><time>2026-04-12T10:20:06Z</time></trkpt><trkpt lat="45.78715808628324" lon="10.086916277866052"><ele>183.0</ele><time>2026-04-12T10:20:07Z</time></trkpt><trkpt lat="45.787234077540894" lon="10.087074588519837"><ele>183.0</ele><time>2026-04-12T10:20:08Z</time></trkpt><trkpt lat="45.78732243861334" lon="10.087204045751685"><ele>183.0</ele><time>2026-04-12T10:20:09Z</time></trkpt><trkpt lat="45.787408884660685" lon="10.087303557317021"><ele>183.0</ele><time>2026-04-12T10:20:10Z</time></trkpt><trkpt lat="45.78747221909785" lon="10.087440991157562"><ele>182.75</ele><time>2026-04-12T10:20:11Z</time></trkpt><trkpt lat="45.78754703853859" lon="10.08755903260761"><ele>182.5</ele><time>2026-04-12T10:20:12Z</time></trkpt><trkpt lat="45.78761572105008" lon="10.08770674141558"><ele>182.25</ele><time>2026-04-12T10:20:13Z</time></trkpt><trkpt lat="45.787690027843986" lon="10.087863165126176"><ele>182.0</ele><time>2026-04-12T10:20:14Z</time></trkpt><trkpt lat="45.78776281062428" lon="10.088020759380873"><ele>182.0</ele><time>2026-04-12T10:20:15Z</time></trkpt><trkpt lat="45.787829549485856" lon="10.088183166887"><ele>182.0</ele><time>2026-04-12T10:20:16Z</time></trkpt><trkpt lat="45.787893504502215" lon="10.08834420833031"><ele>182.0</ele><time>2026-04-12T10:20:17Z</time></trkpt><trkpt lat="45.78795056702674" lon="10.088500228316038"><ele>182.0</ele><time>2026-04-12T10:20:18Z</time></trkpt><trkpt lat="45.78799602922581" lon="10.088645972362404"><ele>182.39999999999998</ele><time>2026-04-12T10:20:19Z</time></trkpt><trkpt lat="45.78802229240794" lon="10.088803217991403"><ele>182.79999999999998</ele><time>2026-04-12T10:20:20Z</time></trkpt><trkpt lat="45.78804842577365" lon="10.088955878736824"><ele>183.2</ele><time>2026-04-12T10:20:21Z</time></trkpt><trkpt lat="45.78807360985544" lon="10.089082697740078"><ele>183.6</ele><time>2026-04-12T10:20:22Z</time></trkpt><trkpt lat="45.78809026598348" lon="10.089248803852604"><ele>184.0</ele><time>2026-04-12T10:20:23Z</time></trkpt><trkpt lat="45.78810872748178" lon="10.089423708149077"><ele>184.75</ele><time>2026-04-12T10:20:24Z</time></trkpt><trkpt lat="45.788130123208134" lon="10.0896021536498"><ele>185.5</ele><time>2026-04-12T10:20:25.001Z</time></trkpt><trkpt lat="45.788161630130055" lon="10.089785620553045"><ele>186.25</ele><time>2026-04-12T10:20:26.001Z</time></trkpt><trkpt lat="45.7882365866128" lon="10.089966265221896"><ele>187.0</ele><time>2026-04-12T10:20:27.001Z</time></trkpt><trkpt lat="45.78833658082178" lon="10.090108433435336"><ele>188.66666666666669</ele><time>2026-04-12T10:20:28.001Z</time></trkpt><trkpt lat="45.788467380132914" lon="10.0902168197737"><ele>190.33333333333334</ele><time>2026-04-12T10:20:29.001Z</time></trkpt><trkpt lat="45.78859818757221" lon="10.09032014288425"><ele>192.0</ele><time>2026-04-12T10:20:30.001Z</time></trkpt><trkpt lat="45.788730015340136" lon="10.090436427491518"><ele>192.33333333333331</ele><time>2026-04-12T10:20:31.001Z</time></trkpt><trkpt lat="45.78886978967753" lon="10.090559426067095"><ele>192.66666666666666</ele><time>2026-04-12T10:20:32.001Z</time></trkpt><trkpt lat="45.789015026354626" lon="10.090676083607619"><ele>193.0</ele><time>2026-04-12T10:20:33.001Z</time></trkpt><trkpt lat="45.789155013261286" lon="10.090808969885098"><ele>193.0</ele><time>2026-04-12T10:20:34.001Z</time></trkpt><trkpt lat="45.78930042286811" lon="10.090951763108132"><ele>193.0</ele><time>2026-04-12T10:20:35.001Z</time></trkpt><trkpt lat="45.78943643690906" lon="10.091083505845054"><ele>193.0</ele><time>2026-04-12T10:20:36.001Z</time></trkpt><trkpt lat="45.7895575491337" lon="10.091218252293311"><ele>192.25</ele><time>2026-04-12T10:20:37.001Z</time></trkpt><trkpt lat="45.78966354902742" lon="10.091348160307934"><ele>191.5</ele><time>2026-04-12T10:20:38.001Z</time></trkpt><trkpt lat="45.78976650033559" lon="10.091466398906785"><ele>190.75</ele><time>2026-04-12T10:20:39.001Z</time></trkpt><trkpt lat="45.78984759293657" lon="10.091622879158292"><ele>190.0</ele><time>2026-04-12T10:20:40.001Z</time></trkpt><trkpt lat="45.78994457349897" lon="10.091777204512981"><ele>190.0</ele><time>2026-04-12T10:20:41.001Z</time></trkpt><trkpt lat="45.79004594031065" lon="10.091939438996313"><ele>190.0</ele><time>2026-04-12T10:20:42.001Z</time></trkpt><trkpt lat="45.79014882912869" lon="10.092110419689376"><ele>190.0</ele><time>2026-04-12T10:20:43.001Z</time></trkpt><trkpt lat="45.79026170063819" lon="10.092286375272757"><ele>188.0</ele><time>2026-04-12T10:20:44.001Z</time></trkpt><trkpt lat="45.790367384521275" lon="10.092487454716283"><ele>186.0</ele><time>2026-04-12T10:20:45.001Z</time></trkpt><trkpt lat="45.790458511682886" lon="10.09271060853493"><ele>184.0</ele><time>2026-04-12T10:20:46.001Z</time></trkpt><trkpt lat="45.7905365850221" lon="10.09294904743427"><ele>184.0</ele><time>2026-04-12T10:20:47.001Z</time></trkpt><trkpt lat="45.79060747406977" lon="10.093200715196291"><ele>184.0</ele><time>2026-04-12T10:20:48.001Z</time></trkpt><trkpt lat="45.790691134856445" lon="10.09345517284422"><ele>184.0</ele><time>2026-04-12T10:20:49.001Z</time></trkpt><trkpt lat="45.7907878454963" lon="10.093705519422643"><ele>183.66666666666669</ele><time>2026-04-12T10:20:50.001Z</time></trkpt><trkpt lat="45.79088518604208" lon="10.093946753237898"><ele>183.33333333333334</ele><time>2026-04-12T10:20:51.001Z</time></trkpt><trkpt lat="45.79095566084182" lon="10.09420009448833"><ele>183.0</ele><time>2026-04-12T10:20:52.001Z</time></trkpt><trkpt lat="45.79101347706631" lon="10.094438268174468"><ele>183.0</ele><time>2026-04-12T10:20:53.001Z</time></trkpt><trkpt lat="45.791071136703955" lon="10.094677849152951"><ele>183.0</ele><time>2026-04-12T10:20:54.001Z</time></trkpt><trkpt lat="45.79115946747645" lon="10.094902675898194"><ele>183.0</ele><time>2026-04-12T10:20:55.001Z</time></trkpt><trkpt lat="45.79127251345956" lon="10.095115245077396"><ele>184.33333333333334</ele><time>2026-04-12T10:20:56.001Z</time></trkpt><trkpt lat="45.7913981007791" lon="10.09531873861186"><ele>185.66666666666669</ele><time>2026-04-12T10:20:57.001Z</time></trkpt><trkpt lat="45.791528125835185" lon="10.095531410385059"><ele>187.0</ele><time>2026-04-12T10:20:58.001Z</time></trkpt><trkpt lat="45.79165436154806" lon="10.095762771663297"><ele>185.33333333333334</ele><time>2026-04-12T10:20:59.001Z</time></trkpt><trkpt lat="45.79177349047446" lon="10.096013432986506"><ele>183.66666666666666</ele><time>2026-04-12T10:21:00.001Z</time></trkpt><trkpt lat="45.79189985442247" lon="10.096283873070481"><ele>182.0</ele><time>2026-04-12T10:21:01.001Z</time></trkpt><trkpt lat="45.79202759574368" lon="10.096572210368937"><ele>182.0</ele><time>2026-04-12T10:21:02.001Z</time></trkpt><trkpt lat="45.79215504661173" lon="10.096854878664203"><ele>182.0</ele><time>2026-04-12T10:21:03.001Z</time></trkpt><trkpt lat="45.79227162439426" lon="10.097118857295152"><ele>182.0</ele><time>2026-04-12T10:21:04.001Z</time></trkpt><trkpt lat="45.79237964986232" lon="10.097376859627165"><ele>182.0</ele><time>2026-04-12T10:21:05.001Z</time></trkpt><trkpt lat="45.79249356499287" lon="10.09761393421434"><ele>182.0</ele><time>2026-04-12T10:21:06.001Z</time></trkpt><trkpt lat="45.79261719538678" lon="10.097830776234318"><ele>182.0</ele><time>2026-04-12T10:21:07.001Z</time></trkpt><trkpt lat="45.792731625580444" lon="10.098016722309932"><ele>182.0</ele><time>2026-04-12T10:21:08.001Z</time></trkpt><trkpt lat="45.792855893237935" lon="10.098189476767242"><ele>182.0</ele><time>2026-04-12T10:21:09.001Z</time></trkpt><trkpt lat="45.79296123314978" lon="10.098346762083606"><ele>182.0</ele><time>2026-04-12T10:21:10.001Z</time></trkpt><trkpt lat="45.79306305780926" lon="10.09850196342814"><ele>182.0</ele><time>2026-04-12T10:21:11.001Z</time></trkpt><trkpt lat="45.793147587757545" lon="10.09866442590909"><ele>182.0</ele><time>2026-04-12T10:21:12.001Z</time></trkpt><trkpt lat="45.7931923453175" lon="10.098847672967619"><ele>182.0</ele><time>2026-04-12T10:21:13.001Z</time></trkpt><trkpt lat="45.79322113596525" lon="10.099045749000675"><ele>185.25</ele><time>2026-04-12T10:21:14.001Z</time></trkpt><trkpt lat="45.7932210689845" lon="10.099241674793246"><ele>188.5</ele><time>2026-04-12T10:21:15.001Z</time></trkpt><trkpt lat="45.79322568335149" lon="10.099435481353568"><ele>191.75</ele><time>2026-04-12T10:21:16.001Z</time></trkpt><trkpt lat="45.79325298729841" lon="10.099617759917944"><ele>195.0</ele><time>2026-04-12T10:21:17.001Z</time></trkpt><trkpt lat="45.7933194707051" lon="10.099805245716853"><ele>190.66666666666666</ele><time>2026-04-12T10:21:18.001Z</time></trkpt><trkpt lat="45.7934147736453" lon="10.099979773403335"><ele>186.33333333333331</ele><time>2026-04-12T10:21:19.001Z</time></trkpt><trkpt lat="45.793520205314415" lon="10.100156068464573"><ele>182.0</ele><time>2026-04-12T10:21:20.001Z</time></trkpt><trkpt lat="45.793621402276386" lon="10.100338179749137"><ele>182.0</ele><time>2026-04-12T10:21:21.001Z</time></trkpt><trkpt lat="45.79372195640005" lon="10.100520743761892"><ele>182.0</ele><time>2026-04-12T10:21:22.001Z</time></trkpt><trkpt lat="45.793829886718775" lon="10.100710824932225"><ele>182.0</ele><time>2026-04-12T10:21:23.001Z</time></trkpt><trkpt lat="45.79394224219957" lon="10.10090310807012"><ele>183.66666666666666</ele><time>2026-04-12T10:21:24.001Z</time></trkpt><trkpt lat="45.79406600750735" lon="10.101087102022786"><ele>185.33333333333334</ele><time>2026-04-12T10:21:25.001Z</time></trkpt><trkpt lat="45.794197860420226" lon="10.101268049942925"><ele>187.0</ele><time>2026-04-12T10:21:26.001Z</time></trkpt><trkpt lat="45.7943328802184" lon="10.10144762025756"><ele>185.66666666666669</ele><time>2026-04-12T10:21:27.001Z</time></trkpt><trkpt lat="45.79446484436064" lon="10.101621964424561"><ele>184.33333333333334</ele><time>2026-04-12T10:21:28.001Z</time></trkpt><trkpt lat="45.794579992060505" lon="10.101782319214712"><ele>183.0</ele><time>2026-04-12T10:21:29.001Z</time></trkpt><trkpt lat="45.794698791683025" lon="10.101932523608067"><ele>183.0</ele><time>2026-04-12T10:21:30.001Z</time></trkpt><trkpt lat="45.79480509582502" lon="10.102057505966163"><ele>183.0</ele><time>2026-04-12T10:21:31.001Z</time></trkpt><trkpt lat="45.79492063142777" lon="10.10215075724445"><ele>183.0</ele><time>2026-04-12T10:21:32.001Z</time></trkpt><trkpt lat="45.795017125713244" lon="10.102237960099036"><ele>183.0</ele><time>2026-04-12T10:21:33.001Z</time></trkpt><trkpt lat="45.79510704836697" lon="10.102334502935127"><ele>183.60000000000002</ele><time>2026-04-12T10:21:34.001Z</time></trkpt><trkpt lat="45.79518341735957" lon="10.102446623208724"><ele>184.20000000000002</ele><time>2026-04-12T10:21:35.001Z</time></trkpt><trkpt lat="45.79525110273658" lon="10.102578552384351"><ele>184.8</ele><time>2026-04-12T10:21:36.001Z</time></trkpt><trkpt lat="45.795317399446915" lon="10.102703600044768"><ele>185.4</ele><time>2026-04-12T10:21:37.001Z</time></trkpt><trkpt lat="45.795392069443686" lon="10.102821385550646"><ele>186.0</ele><time>2026-04-12T10:21:38.001Z</time></trkpt><trkpt lat="45.795484956056804" lon="10.10293434382261"><ele>186.0</ele><time>2026-04-12T10:21:39.001Z</time></trkpt><trkpt lat="45.79559849917203" lon="10.103028936783113"><ele>186.0</ele><time>2026-04-12T10:21:40.001Z</time></trkpt><trkpt lat="45.795730104721265" lon="10.103114477510102"><ele>186.0</ele><time>2026-04-12T10:21:41.001Z</time></trkpt><trkpt lat="45.795873561789975" lon="10.103198104339182"><ele>186.0</ele><time>2026-04-12T10:21:42.001Z</time></trkpt><trkpt lat="45.796017154903936" lon="10.103279680879957"><ele>187.0</ele><time>2026-04-12T10:21:43.001Z</time></trkpt><trkpt lat="45.7961576482593" lon="10.103371085523769"><ele>188.0</ele><time>2026-04-12T10:21:44.001Z</time></trkpt><trkpt lat="45.79629566468944" lon="10.103458136292655"><ele>189.0</ele><time>2026-04-12T10:21:45.001Z</time></trkpt><trkpt lat="45.79643608364678" lon="10.103544104272592"><ele>189.0</ele><time>2026-04-12T10:21:46.001Z</time></trkpt><trkpt lat="45.79656843422755" lon="10.103638779280995"><ele>189.0</ele><time>2026-04-12T10:21:47.002Z</time></trkpt><trkpt lat="45.79669500474666" lon="10.103749246108968"><ele>189.0</ele><time>2026-04-12T10:21:48.002Z</time></trkpt><trkpt lat="45.79681549041129" lon="10.103869680823303"><ele>189.0</ele><time>2026-04-12T10:21:49.002Z</time></trkpt><trkpt lat="45.796928890932094" lon="10.103996228078586"><ele>188.75</ele><time>2026-04-12T10:21:50.002Z</time></trkpt><trkpt lat="45.797037424984836" lon="10.10413030045315"><ele>188.5</ele><time>2026-04-12T10:21:51.002Z</time></trkpt><trkpt lat="45.79714287118189" lon="10.1042671081922"><ele>188.25</ele><time>2026-04-12T10:21:52.002Z</time></trkpt><trkpt lat="45.797240845161646" lon="10.104416502763398"><ele>188.0</ele><time>2026-04-12T10:21:53.002Z</time></trkpt><trkpt lat="45.797335413659376" lon="10.104556714911089"><ele>188.0</ele><time>2026-04-12T10:21:54.002Z</time></trkpt><trkpt lat="45.79743237922096" lon="10.10468389778627"><ele>188.0</ele><time>2026-04-12T10:21:55.002Z</time></trkpt><trkpt lat="45.79752924521109" lon="10.104809982288259"><ele>188.0</ele><time>2026-04-12T10:21:56.001Z</time></trkpt><trkpt lat="45.79762524968497" lon="10.104932719484761"><ele>188.0</ele><time>2026-04-12T10:21:57.001Z</time></trkpt><trkpt lat="45.797720551548075" lon="10.10505555189479"><ele>187.25</ele><time>2026-04-12T10:21:58.001Z</time></trkpt><trkpt lat="45.79782593815021" lon="10.105172158527811"><ele>186.5</ele><time>2026-04-12T10:21:59.001Z</time></trkpt><trkpt lat="45.79792698255647" lon="10.105275936354099"><ele>185.75</ele><time>2026-04-12T10:22:00.001Z</time></trkpt><trkpt lat="45.798036317067364" lon="10.105377107501692"><ele>185.0</ele><time>2026-04-12T10:22:01.001Z</time></trkpt><trkpt lat="45.798147619498" lon="10.105461468351146"><ele>185.0</ele><time>2026-04-12T10:22:02.001Z</time></trkpt><trkpt lat="45.79826165186461" lon="10.105536564939644"><ele>185.0</ele><time>2026-04-12T10:22:03.001Z</time></trkpt><trkpt lat="45.7983719911686" lon="10.105609543591706"><ele>185.0</ele><time>2026-04-12T10:22:04.001Z</time></trkpt><trkpt lat="45.798478704784195" lon="10.105664109214436"><ele>185.0</ele><time>2026-04-12T10:22:05.001Z</time></trkpt><trkpt lat="45.79858363049269" lon="10.10571163602296"><ele>185.8</ele><time>2026-04-12T10:22:06.001Z</time></trkpt><trkpt lat="45.79867823570758" lon="10.10575985898657"><ele>186.6</ele><time>2026-04-12T10:22:07.001Z</time></trkpt><trkpt lat="45.798776844941486" lon="10.105807570786917"><ele>187.39999999999998</ele><time>2026-04-12T10:22:08.001Z</time></trkpt><trkpt lat="45.79886677682676" lon="10.105853827437912"><ele>188.2</ele><time>2026-04-12T10:22:09.001Z</time></trkpt><trkpt lat="45.798943086936376" lon="10.10591119991929"><ele>189.0</ele><time>2026-04-12T10:22:10.001Z</time></trkpt><trkpt lat="45.799009437319164" lon="10.105980978668669"><ele>189.0</ele><time>2026-04-12T10:22:11.001Z</time></trkpt><trkpt lat="45.79905964219105" lon="10.106052966017847"><ele>189.0</ele><time>2026-04-12T10:22:12.001Z</time></trkpt><trkpt lat="45.799094462366185" lon="10.106136919744408"><ele>189.0</ele><time>2026-04-12T10:22:13.001Z</time></trkpt><trkpt lat="45.79913630825016" lon="10.1062119358154"><ele>189.0</ele><time>2026-04-12T10:22:14.001Z</time></trkpt><trkpt lat="45.799201161671554" lon="10.106249567197484"><ele>189.0</ele><time>2026-04-12T10:22:15.001Z</time></trkpt><trkpt lat="45.79927109176629" lon="10.106246946357905"><ele>189.0</ele><time>2026-04-12T10:22:16.001Z</time></trkpt><trkpt lat="45.79933305866581" lon="10.106181030821105"><ele>189.0</ele><time>2026-04-12T10:22:17.001Z</time></trkpt><trkpt lat="45.79937973505425" lon="10.106078361107729"><ele>189.0</ele><time>2026-04-12T10:22:18.001Z</time></trkpt><trkpt lat="45.799426198739134" lon="10.106007880195266"><ele>189.0</ele><time>2026-04-12T10:22:19.001Z</time></trkpt><trkpt lat="45.79948822960104" lon="10.105951898899482"><ele>189.0</ele><time>2026-04-12T10:22:20.001Z</time></trkpt><trkpt lat="45.79957007588806" lon="10.105924624507361"><ele>189.0</ele><time>2026-04-12T10:22:21.001Z</time></trkpt><trkpt lat="45.79966459193879" lon="10.105921721440454"><ele>189.0</ele><time>2026-04-12T10:22:22.001Z</time></trkpt><trkpt lat="45.799763744273356" lon="10.105936323368823"><ele>189.0</ele><time>2026-04-12T10:22:23.001Z</time></trkpt><trkpt lat="45.799869268479604" lon="10.105940858214975"><ele>189.0</ele><time>2026-04-12T10:22:24.001Z</time></trkpt><trkpt lat="45.79997730711363" lon="10.105951085571109"><ele>189.0</ele><time>2026-04-12T10:22:25.001Z</time></trkpt><trkpt lat="45.80008989296177" lon="10.105960792673072"><ele>189.0</ele><time>2026-04-12T10:22:26.001Z</time></trkpt><trkpt lat="45.8002094995919" lon="10.105975718998407"><ele>189.0</ele><time>2026-04-12T10:22:27.001Z</time></trkpt><trkpt lat="45.800329005683736" lon="10.105991907794827"><ele>189.5</ele><time>2026-04-12T10:22:28.001Z</time></trkpt><trkpt lat="45.80045422920429" lon="10.106003696595602"><ele>190.0</ele><time>2026-04-12T10:22:29.001Z</time></trkpt><trkpt lat="45.80057536803766" lon="10.10601796980823"><ele>190.5</ele><time>2026-04-12T10:22:30.001Z</time></trkpt><trkpt lat="45.80070220674649" lon="10.10603534034151"><ele>191.0</ele><time>2026-04-12T10:22:31.001Z</time></trkpt><trkpt lat="45.80083195275768" lon="10.10605371625059"><ele>191.0</ele><time>2026-04-12T10:22:32.001Z</time></trkpt><trkpt lat="45.80096362029995" lon="10.106069035653142"><ele>191.0</ele><time>2026-04-12T10:22:33.001Z</time></trkpt><trkpt lat="45.80110257552571" lon="10.10608230948764"><ele>191.0</ele><time>2026-04-12T10:22:34.001Z</time></trkpt><trkpt lat="45.80124009570265" lon="10.106094456022568"><ele>191.0</ele><time>2026-04-12T10:22:35.001Z</time></trkpt><trkpt lat="45.80136314139194" lon="10.106102857324116"><ele>191.0</ele><time>2026-04-12T10:22:36.001Z</time></trkpt><trkpt lat="45.80148229210313" lon="10.106110984531899"><ele>191.0</ele><time>2026-04-12T10:22:37.001Z</time></trkpt><trkpt lat="45.80159182010941" lon="10.10612412001565"><ele>191.0</ele><time>2026-04-12T10:22:38.001Z</time></trkpt><trkpt lat="45.80169610111776" lon="10.106134294047479"><ele>191.0</ele><time>2026-04-12T10:22:39.001Z</time></trkpt><trkpt lat="45.80180375912965" lon="10.106142296974888"><ele>191.0</ele><time>2026-04-12T10:22:40.001Z</time></trkpt><trkpt lat="45.801912167100355" lon="10.10615400495479"><ele>189.8</ele><time>2026-04-12T10:22:41.001Z</time></trkpt><trkpt lat="45.802022781484425" lon="10.10616118694635"><ele>188.60000000000002</ele><time>2026-04-12T10:22:42.001Z</time></trkpt><trkpt lat="45.80212982689368" lon="10.10616352449927"><ele>187.4</ele><time>2026-04-12T10:22:43.001Z</time></trkpt><trkpt lat="45.802241339682155" lon="10.106167739049958"><ele>186.2</ele><time>2026-04-12T10:22:44.001Z</time></trkpt><trkpt lat="45.80235573026655" lon="10.106179711967892"><ele>185.0</ele><time>2026-04-12T10:22:45.001Z</time></trkpt><trkpt lat="45.802470553243616" lon="10.106198242748398"><ele>185.0</ele><time>2026-04-12T10:22:46.001Z</time></trkpt><trkpt lat="45.80258590607011" lon="10.10622228316511"><ele>185.0</ele><time>2026-04-12T10:22:47.001Z</time></trkpt><trkpt lat="45.802701297498274" lon="10.1062506574648"><ele>185.0</ele><time>2026-04-12T10:22:48.001Z</time></trkpt><trkpt lat="45.802814402927105" lon="10.10627946516994"><ele>185.0</ele><time>2026-04-12T10:22:49.001Z</time></trkpt><trkpt lat="45.80292235738019" lon="10.10631213871332"><ele>185.16666666666666</ele><time>2026-04-12T10:22:50.001Z</time></trkpt><trkpt lat="45.80302192605316" lon="10.106337630625573"><ele>185.33333333333331</ele><time>2026-04-12T10:22:51.001Z</time></trkpt><trkpt lat="45.80311416882555" lon="10.106364858806776"><ele>185.5</ele><time>2026-04-12T10:22:52.001Z</time></trkpt><trkpt lat="45.803201216845444" lon="10.106387224015757"><ele>185.66666666666666</ele><time>2026-04-12T10:22:53.001Z</time></trkpt><trkpt lat="45.80326605429681" lon="10.106431632997484"><ele>185.83333333333334</ele><time>2026-04-12T10:22:54.001Z</time></trkpt><trkpt lat="45.80334300568133" lon="10.106453256129294"><ele>186.0</ele><time>2026-04-12T10:22:55.001Z</time></trkpt><trkpt lat="45.80341304860506" lon="10.106469993391872"><ele>186.0</ele><time>2026-04-12T10:22:56.001Z</time></trkpt><trkpt lat="45.80348428345464" lon="10.106483798180768"><ele>186.0</ele><time>2026-04-12T10:22:57.001Z</time></trkpt><trkpt lat="45.803564421601074" lon="10.106497822716348"><ele>186.0</ele><time>2026-04-12T10:22:58.001Z</time></trkpt><trkpt lat="45.80364745200686" lon="10.106508507594198"><ele>186.0</ele><time>2026-04-12T10:22:59.001Z</time></trkpt><trkpt lat="45.80374803217642" lon="10.10650008682004"><ele>186.0</ele><time>2026-04-12T10:23:00.001Z</time></trkpt><trkpt lat="45.803856848816636" lon="10.10649135972434"><ele>186.0</ele><time>2026-04-12T10:23:01.001Z</time></trkpt><trkpt lat="45.80395701837528" lon="10.10646025525923"><ele>186.0</ele><time>2026-04-12T10:23:02.001Z</time></trkpt><trkpt lat="45.804046799243814" lon="10.106429427085006"><ele>186.0</ele><time>2026-04-12T10:23:03.001Z</time></trkpt><trkpt lat="45.8041354358079" lon="10.106404759193012"><ele>186.0</ele><time>2026-04-12T10:23:04.001Z</time></trkpt><trkpt lat="45.80420513652878" lon="10.106381728962523"><ele>186.0</ele><time>2026-04-12T10:23:05.001Z</time></trkpt><trkpt lat="45.804301144150905" lon="10.106363133516071"><ele>186.0</ele><time>2026-04-12T10:23:07.001Z</time></trkpt><trkpt lat="45.80437257392724" lon="10.106337181189065"><ele>186.0</ele><time>2026-04-12T10:23:09.001Z</time></trkpt><trkpt lat="45.804426116706495" lon="10.106443208676742"><ele>186.0</ele><time>2026-04-12T10:23:12.001Z</time></trkpt><trkpt lat="45.804444167699856" lon="10.106338506581311"><ele>186.0</ele><time>2026-04-12T10:23:13.001Z</time></trkpt><trkpt lat="45.80448589648989" lon="10.106457262067144"><ele>186.0</ele><time>2026-04-12T10:23:59.001Z</time></trkpt><trkpt lat="45.80450946131341" lon="10.106298666424914"><ele>186.0</ele><time>2026-04-12T10:24:32Z</time></trkpt><trkpt lat="45.80465512288677" lon="10.10621945712477"><ele>186.0</ele><time>2026-04-12T10:27:53.001Z</time></trkpt><trkpt lat="45.80473427264222" lon="10.106189538236846"><ele>186.0</ele><time>2026-04-12T10:27:54.001Z</time></trkpt><trkpt lat="45.804822906354545" lon="10.106158644929469"><ele>186.0</ele><time>2026-04-12T10:27:55.001Z</time></trkpt><trkpt lat="45.80491704854603" lon="10.106121442051293"><ele>186.0</ele><time>2026-04-12T10:27:56.001Z</time></trkpt><trkpt lat="45.8050145141218" lon="10.106089494582806"><ele>186.0</ele><time>2026-04-12T10:27:57.001Z</time></trkpt><trkpt lat="45.805109737668225" lon="10.106058474139822"><ele>186.0</ele><time>2026-04-12T10:27:58.001Z</time></trkpt><trkpt lat="45.80520651038178" lon="10.10602377346798"><ele>186.20000000000002</ele><time>2026-04-12T10:27:59.001Z</time></trkpt><trkpt lat="45.805298256968804" lon="10.1059962699004"><ele>186.4</ele><time>2026-04-12T10:28:00.001Z</time></trkpt><trkpt lat="45.805385274425255" lon="10.105969819875744"><ele>186.6</ele><time>2026-04-12T10:28:01.001Z</time></trkpt><trkpt lat="45.80547380311499" lon="10.105943228091668"><ele>186.8</ele><time>2026-04-12T10:28:02.001Z</time></trkpt><trkpt lat="45.805563122772966" lon="10.105927063719436"><ele>187.0</ele><time>2026-04-12T10:28:03.001Z</time></trkpt><trkpt lat="45.80565883811078" lon="10.10592429629203"><ele>187.0</ele><time>2026-04-12T10:28:04.001Z</time></trkpt><trkpt lat="45.8057542755886" lon="10.105930171377391"><ele>187.0</ele><time>2026-04-12T10:28:05.001Z</time></trkpt><trkpt lat="45.805857006001034" lon="10.105925975314221"><ele>187.0</ele><time>2026-04-12T10:28:06.001Z</time></trkpt><trkpt lat="45.805957142768115" lon="10.105922413138213"><ele>187.0</ele><time>2026-04-12T10:28:07.001Z</time></trkpt><trkpt lat="45.80605517033419" lon="10.105923439783556"><ele>187.0</ele><time>2026-04-12T10:28:08.001Z</time></trkpt><trkpt lat="45.80615270581688" lon="10.105933743043982"><ele>186.8</ele><time>2026-04-12T10:28:09.001Z</time></trkpt><trkpt lat="45.806259194392105" lon="10.105929277600794"><ele>186.6</ele><time>2026-04-12T10:28:10.001Z</time></trkpt><trkpt lat="45.80636037682432" lon="10.105923419353642"><ele>186.4</ele><time>2026-04-12T10:28:11.001Z</time></trkpt><trkpt lat="45.80646665792886" lon="10.105934280053269"><ele>186.20000000000002</ele><time>2026-04-12T10:28:12.001Z</time></trkpt><trkpt lat="45.80657223606492" lon="10.105956227886079"><ele>186.0</ele><time>2026-04-12T10:28:13.001Z</time></trkpt><trkpt lat="45.80668094804106" lon="10.105986268990328"><ele>186.0</ele><time>2026-04-12T10:28:14Z</time></trkpt><trkpt lat="45.80679137929231" lon="10.106019424616287"><ele>186.0</ele><time>2026-04-12T10:28:15Z</time></trkpt><trkpt lat="45.806900773481146" lon="10.106070553633636"><ele>186.0</ele><time>2026-04-12T10:28:16Z</time></trkpt><trkpt lat="45.80701325534112" lon="10.106124602776918"><ele>186.0</ele><time>2026-04-12T10:28:17Z</time></trkpt><trkpt lat="45.807126641483954" lon="10.106184427031845"><ele>186.25</ele><time>2026-04-12T10:28:18Z</time></trkpt><trkpt lat="45.80723770677534" lon="10.106262796160312"><ele>186.5</ele><time>2026-04-12T10:28:19Z</time></trkpt><trkpt lat="45.80735063828895" lon="10.106351136505085"><ele>186.75</ele><time>2026-04-12T10:28:20Z</time></trkpt><trkpt lat="45.80745314760499" lon="10.106454809462928"><ele>187.0</ele><time>2026-04-12T10:28:21Z</time></trkpt><trkpt lat="45.807557502096586" lon="10.106571343971863"><ele>187.0</ele><time>2026-04-12T10:28:22Z</time></trkpt><trkpt lat="45.80766154746112" lon="10.106693835675292"><ele>187.0</ele><time>2026-04-12T10:28:23Z</time></trkpt><trkpt lat="45.807766534543404" lon="10.106819119734078"><ele>187.0</ele><time>2026-04-12T10:28:24Z</time></trkpt><trkpt lat="45.807864509432136" lon="10.106948249467036"><ele>187.0</ele><time>2026-04-12T10:28:25Z</time></trkpt><trkpt lat="45.80796837873804" lon="10.107077188235603"><ele>187.0</ele><time>2026-04-12T10:28:26Z</time></trkpt><trkpt lat="45.80806791852164" lon="10.107208372770232"><ele>187.0</ele><time>2026-04-12T10:28:27Z</time></trkpt><trkpt lat="45.808166690992785" lon="10.10733525126687"><ele>187.0</ele><time>2026-04-12T10:28:28Z</time></trkpt><trkpt lat="45.808256631168504" lon="10.107472298353795"><ele>187.0</ele><time>2026-04-12T10:28:29Z</time></trkpt><trkpt lat="45.80835037656157" lon="10.107591822390086"><ele>187.0</ele><time>2026-04-12T10:28:30Z</time></trkpt><trkpt lat="45.808425237262014" lon="10.107693302454802"><ele>187.0</ele><time>2026-04-12T10:28:31Z</time></trkpt><trkpt lat="45.80847900026583" lon="10.107777542995724"><ele>187.0</ele><time>2026-04-12T10:28:32Z</time></trkpt><trkpt lat="45.80853019026335" lon="10.107857503281839"><ele>187.0</ele><time>2026-04-12T10:28:33Z</time></trkpt><trkpt lat="45.808584620956886" lon="10.107933677165244"><ele>187.0</ele><time>2026-04-12T10:28:34Z</time></trkpt><trkpt lat="45.80864742161684" lon="10.108009602001804"><ele>187.0</ele><time>2026-04-12T10:28:35Z</time></trkpt><trkpt lat="45.80870554383542" lon="10.10807884988686"><ele>187.0</ele><time>2026-04-12T10:28:36Z</time></trkpt><trkpt lat="45.80876458177701" lon="10.108151481527331"><ele>187.0</ele><time>2026-04-12T10:28:37Z</time></trkpt><trkpt lat="45.80882549156823" lon="10.108250247241877"><ele>187.0</ele><time>2026-04-12T10:28:38Z</time></trkpt><trkpt lat="45.80886210235461" lon="10.108389505880247"><ele>187.0</ele><time>2026-04-12T10:28:39Z</time></trkpt><trkpt lat="45.80895621744921" lon="10.108503851377318"><ele>187.0</ele><time>2026-04-12T10:28:40Z</time></trkpt><trkpt lat="45.809020690205735" lon="10.108649427051375"><ele>187.25</ele><time>2026-04-12T10:28:41Z</time></trkpt><trkpt lat="45.809083189820484" lon="10.108820594020386"><ele>187.5</ele><time>2026-04-12T10:28:42Z</time></trkpt><trkpt lat="45.80915200112312" lon="10.108987714805064"><ele>187.75</ele><time>2026-04-12T10:28:43Z</time></trkpt><trkpt lat="45.80922426636054" lon="10.109145490949413"><ele>188.0</ele><time>2026-04-12T10:28:44Z</time></trkpt><trkpt lat="45.80921362140877" lon="10.109370864630815"><ele>188.0</ele><time>2026-04-12T10:28:45Z</time></trkpt><trkpt lat="45.80937149712758" lon="10.109425573577296"><ele>188.0</ele><time>2026-04-12T10:28:46Z</time></trkpt><trkpt lat="45.80944638384137" lon="10.10957365736254"><ele>188.0</ele><time>2026-04-12T10:28:47Z</time></trkpt><trkpt lat="45.8095214527331" lon="10.109724192501195"><ele>188.0</ele><time>2026-04-12T10:28:48Z</time></trkpt><trkpt lat="45.80959607145259" lon="10.109876183815745"><ele>187.75</ele><time>2026-04-12T10:28:49Z</time></trkpt><trkpt lat="45.80967087637771" lon="10.110029275567534"><ele>187.5</ele><time>2026-04-12T10:28:50Z</time></trkpt><trkpt lat="45.80974613358409" lon="10.11017832615168"><ele>187.25</ele><time>2026-04-12T10:28:51Z</time></trkpt><trkpt lat="45.80981773263174" lon="10.110319897184441"><ele>187.0</ele><time>2026-04-12T10:28:52Z</time></trkpt><trkpt lat="45.80988959812847" lon="10.110473987092998"><ele>187.0</ele><time>2026-04-12T10:28:53Z</time></trkpt><trkpt lat="45.80995878717759" lon="10.110626394638834"><ele>187.0</ele><time>2026-04-12T10:28:54Z</time></trkpt><trkpt lat="45.8100401542871" lon="10.110777712569101"><ele>187.0</ele><time>2026-04-12T10:28:55Z</time></trkpt><trkpt lat="45.81011982262883" lon="10.110926262481385"><ele>187.0</ele><time>2026-04-12T10:28:56Z</time></trkpt><trkpt lat="45.81020022945945" lon="10.111088012334493"><ele>187.5</ele><time>2026-04-12T10:28:57Z</time></trkpt><trkpt lat="45.81027691453807" lon="10.111244849370165"><ele>188.0</ele><time>2026-04-12T10:28:58Z</time></trkpt><trkpt lat="45.81035685471418" lon="10.111410392593967"><ele>188.5</ele><time>2026-04-12T10:28:59Z</time></trkpt><trkpt lat="45.81043430779914" lon="10.111575851207492"><ele>189.0</ele><time>2026-04-12T10:29:00Z</time></trkpt><trkpt lat="45.810511945898604" lon="10.11174174642784"><ele>189.25</ele><time>2026-04-12T10:29:01Z</time></trkpt><trkpt lat="45.810596621523764" lon="10.11190676068244"><ele>189.5</ele><time>2026-04-12T10:29:02Z</time></trkpt><trkpt lat="45.810685273703754" lon="10.112075659697666"><ele>189.75</ele><time>2026-04-12T10:29:03Z</time></trkpt><trkpt lat="45.810775589697855" lon="10.112243151239094"><ele>190.0</ele><time>2026-04-12T10:29:04Z</time></trkpt><trkpt lat="45.81086407726558" lon="10.112396481503286"><ele>190.0</ele><time>2026-04-12T10:29:05Z</time></trkpt><trkpt lat="45.8109537201934" lon="10.11253407947999"><ele>190.0</ele><time>2026-04-12T10:29:06Z</time></trkpt><trkpt lat="45.81103843782921" lon="10.112656589762656"><ele>190.0</ele><time>2026-04-12T10:29:07Z</time></trkpt><trkpt lat="45.81111320717233" lon="10.112747976608519"><ele>190.0</ele><time>2026-04-12T10:29:08Z</time></trkpt><trkpt lat="45.81118844444197" lon="10.112831955801012"><ele>190.0</ele><time>2026-04-12T10:29:09Z</time></trkpt><trkpt lat="45.81126324879115" lon="10.112903996886207"><ele>189.66666666666669</ele><time>2026-04-12T10:29:10Z</time></trkpt><trkpt lat="45.81133413055342" lon="10.112970342619839"><ele>189.33333333333334</ele><time>2026-04-12T10:29:11Z</time></trkpt><trkpt lat="45.81139326746885" lon="10.113056701763906"><ele>189.0</ele><time>2026-04-12T10:29:12Z</time></trkpt><trkpt lat="45.81141841585735" lon="10.113144842122614"><ele>188.66666666666666</ele><time>2026-04-12T10:29:13Z</time></trkpt><trkpt lat="45.81142972282569" lon="10.113256489027528"><ele>188.33333333333331</ele><time>2026-04-12T10:29:14Z</time></trkpt><trkpt lat="45.81146410199104" lon="10.113357934885512"><ele>188.0</ele><time>2026-04-12T10:29:15Z</time></trkpt><trkpt lat="45.81153498054182" lon="10.113423884027029"><ele>188.0</ele><time>2026-04-12T10:29:16Z</time></trkpt><trkpt lat="45.81162566642216" lon="10.11343850541009"><ele>188.0</ele><time>2026-04-12T10:29:17Z</time></trkpt><trkpt lat="45.81172167652381" lon="10.113442469793338"><ele>188.0</ele><time>2026-04-12T10:29:18Z</time></trkpt><trkpt lat="45.811806689184074" lon="10.11349222364789"><ele>188.0</ele><time>2026-04-12T10:29:19Z</time></trkpt><trkpt lat="45.81188944843104" lon="10.113566635227029"><ele>188.0</ele><time>2026-04-12T10:29:20Z</time></trkpt><trkpt lat="45.811965523411445" lon="10.113662132508315"><ele>187.75</ele><time>2026-04-12T10:29:21.001Z</time></trkpt><trkpt lat="45.81205890400584" lon="10.113753033098991"><ele>187.5</ele><time>2026-04-12T10:29:22.001Z</time></trkpt><trkpt lat="45.81216560774652" lon="10.113847571831032"><ele>187.25</ele><time>2026-04-12T10:29:23.001Z</time></trkpt><trkpt lat="45.81227850498058" lon="10.113955099815179"><ele>187.0</ele><time>2026-04-12T10:29:24.001Z</time></trkpt><trkpt lat="45.8124112055722" lon="10.114071070683721"><ele>187.0</ele><time>2026-04-12T10:29:25.001Z</time></trkpt><trkpt lat="45.81253779423698" lon="10.114174778967417"><ele>187.0</ele><time>2026-04-12T10:29:26.001Z</time></trkpt><trkpt lat="45.812659059504746" lon="10.114293670967722"><ele>187.0</ele><time>2026-04-12T10:29:27.001Z</time></trkpt><trkpt lat="45.81278806270844" lon="10.114387819342602"><ele>187.0</ele><time>2026-04-12T10:29:28.001Z</time></trkpt><trkpt lat="45.81291530915936" lon="10.114478074639704"><ele>187.0</ele><time>2026-04-12T10:29:29.001Z</time></trkpt><trkpt lat="45.81303746493406" lon="10.114566038271219"><ele>187.0</ele><time>2026-04-12T10:29:30.001Z</time></trkpt><trkpt lat="45.8131610708055" lon="10.114656772252681"><ele>187.0</ele><time>2026-04-12T10:29:31.001Z</time></trkpt><trkpt lat="45.81328859954196" lon="10.114744305448621"><ele>187.0</ele><time>2026-04-12T10:29:32.001Z</time></trkpt><trkpt lat="45.813415676310704" lon="10.114824604250204"><ele>187.25</ele><time>2026-04-12T10:29:33.001Z</time></trkpt><trkpt lat="45.81354333732473" lon="10.114912437673452"><ele>187.5</ele><time>2026-04-12T10:29:34.001Z</time></trkpt><trkpt lat="45.81366744554917" lon="10.11500417448314"><ele>187.75</ele><time>2026-04-12T10:29:35.001Z</time></trkpt><trkpt lat="45.81379743397904" lon="10.11510012357916"><ele>188.0</ele><time>2026-04-12T10:29:36.001Z</time></trkpt><trkpt lat="45.81392782402952" lon="10.11519684903815"><ele>188.0</ele><time>2026-04-12T10:29:37.001Z</time></trkpt><trkpt lat="45.8140595165884" lon="10.115295796719131"><ele>188.0</ele><time>2026-04-12T10:29:38.001Z</time></trkpt><trkpt lat="45.814194249349576" lon="10.115390957693606"><ele>188.0</ele><time>2026-04-12T10:29:39.001Z</time></trkpt><trkpt lat="45.814329592098716" lon="10.115485815814242"><ele>188.0</ele><time>2026-04-12T10:29:40.001Z</time></trkpt><trkpt lat="45.814462582808055" lon="10.115577479698286"><ele>188.25</ele><time>2026-04-12T10:29:41.001Z</time></trkpt><trkpt lat="45.814590162544164" lon="10.115666553363136"><ele>188.5</ele><time>2026-04-12T10:29:42.001Z</time></trkpt><trkpt lat="45.81471345940387" lon="10.115753329805646"><ele>188.75</ele><time>2026-04-12T10:29:43.001Z</time></trkpt><trkpt lat="45.814827497447496" lon="10.11583402267426"><ele>189.0</ele><time>2026-04-12T10:29:44.001Z</time></trkpt><trkpt lat="45.81495055761539" lon="10.115920567332976"><ele>189.5</ele><time>2026-04-12T10:29:45.001Z</time></trkpt><trkpt lat="45.81507319365705" lon="10.115999540504308"><ele>190.0</ele><time>2026-04-12T10:29:46.001Z</time></trkpt><trkpt lat="45.81518936646624" lon="10.116079898616436"><ele>190.5</ele><time>2026-04-12T10:29:47.001Z</time></trkpt><trkpt lat="45.81529502566293" lon="10.116159196024277"><ele>191.0</ele><time>2026-04-12T10:29:48.001Z</time></trkpt><trkpt lat="45.81539297465239" lon="10.116235295210732"><ele>191.25</ele><time>2026-04-12T10:29:49.001Z</time></trkpt><trkpt lat="45.8154863509806" lon="10.116324703860501"><ele>191.5</ele><time>2026-04-12T10:29:50.001Z</time></trkpt><trkpt lat="45.81557944782856" lon="10.116423432268407"><ele>191.75</ele><time>2026-04-12T10:29:51.001Z</time></trkpt><trkpt lat="45.81567755127558" lon="10.116523925563719"><ele>192.0</ele><time>2026-04-12T10:29:52.001Z</time></trkpt><trkpt lat="45.81577115278598" lon="10.116628555761075"><ele>193.0</ele><time>2026-04-12T10:29:53.001Z</time></trkpt><trkpt lat="45.815859150409025" lon="10.11674310604248"><ele>194.0</ele><time>2026-04-12T10:29:54.001Z</time></trkpt><trkpt lat="45.815949598059284" lon="10.116865420320014"><ele>195.0</ele><time>2026-04-12T10:29:55.001Z</time></trkpt><trkpt lat="45.81604045277184" lon="10.11699276395608"><ele>196.0</ele><time>2026-04-12T10:29:56.001Z</time></trkpt><trkpt lat="45.81612952828632" lon="10.117125934504614"><ele>196.0</ele><time>2026-04-12T10:29:57.001Z</time></trkpt><trkpt lat="45.8162132285606" lon="10.117271566185089"><ele>196.0</ele><time>2026-04-12T10:29:58.001Z</time></trkpt><trkpt lat="45.81630710027206" lon="10.11741221404409"><ele>196.0</ele><time>2026-04-12T10:29:59.001Z</time></trkpt><trkpt lat="45.81639997155858" lon="10.11755535490661"><ele>196.0</ele><time>2026-04-12T10:30:00.001Z</time></trkpt><trkpt lat="45.81649233054081" lon="10.117698873118911"><ele>196.5</ele><time>2026-04-12T10:30:01.001Z</time></trkpt><trkpt lat="45.81658383802507" lon="10.11783695991502"><ele>197.0</ele><time>2026-04-12T10:30:02.001Z</time></trkpt><trkpt lat="45.81666754071898" lon="10.117976967844692"><ele>197.5</ele><time>2026-04-12T10:30:03.001Z</time></trkpt><trkpt lat="45.816745125467435" lon="10.118120791775203"><ele>198.0</ele><time>2026-04-12T10:30:04.001Z</time></trkpt><trkpt lat="45.816805776708854" lon="10.118274244347466"><ele>197.2</ele><time>2026-04-12T10:30:05.001Z</time></trkpt><trkpt lat="45.816849115190834" lon="10.118426141518327"><ele>196.4</ele><time>2026-04-12T10:30:06.001Z</time></trkpt><trkpt lat="45.816871873332744" lon="10.118581052831786"><ele>195.6</ele><time>2026-04-12T10:30:07.001Z</time></trkpt><trkpt lat="45.81688808803451" lon="10.118727377752485"><ele>194.79999999999998</ele><time>2026-04-12T10:30:08.001Z</time></trkpt><trkpt lat="45.81690298145382" lon="10.118869025088214"><ele>194.0</ele><time>2026-04-12T10:30:09.001Z</time></trkpt><trkpt lat="45.81693866163597" lon="10.119004933117845"><ele>194.39999999999998</ele><time>2026-04-12T10:30:10.001Z</time></trkpt><trkpt lat="45.81695570727619" lon="10.119151258953185"><ele>194.8</ele><time>2026-04-12T10:30:11.001Z</time></trkpt><trkpt lat="45.81700538154003" lon="10.119281610855113"><ele>195.2</ele><time>2026-04-12T10:30:12.001Z</time></trkpt><trkpt lat="45.81706840587825" lon="10.119402636951294"><ele>195.60000000000002</ele><time>2026-04-12T10:30:13.001Z</time></trkpt><trkpt lat="45.81713343249481" lon="10.119510022140265"><ele>196.0</ele><time>2026-04-12T10:30:14.001Z</time></trkpt><trkpt lat="45.81719372022522" lon="10.119618199222701"><ele>196.0</ele><time>2026-04-12T10:30:15.001Z</time></trkpt><trkpt lat="45.817253269179936" lon="10.119732580603602"><ele>196.0</ele><time>2026-04-12T10:30:16.001Z</time></trkpt><trkpt lat="45.81730818484995" lon="10.1198677681279"><ele>196.0</ele><time>2026-04-12T10:30:17.001Z</time></trkpt><trkpt lat="45.81742368861529" lon="10.120135256034166"><ele>196.0</ele><time>2026-04-12T10:30:19.001Z</time></trkpt><trkpt lat="45.817481012438336" lon="10.120286315802895"><ele>195.5</ele><time>2026-04-12T10:30:19.999Z</time></trkpt><trkpt lat="45.81753850797588" lon="10.120449390805557"><ele>195.0</ele><time>2026-04-12T10:30:20.999Z</time></trkpt><trkpt lat="45.81760120927742" lon="10.120617663328616"><ele>194.5</ele><time>2026-04-12T10:30:21.999Z</time></trkpt><trkpt lat="45.81767205177857" lon="10.12078456330889"><ele>194.0</ele><time>2026-04-12T10:30:22.999Z</time></trkpt><trkpt lat="45.817742529355414" lon="10.120947602644664"><ele>194.0</ele><time>2026-04-12T10:30:23.999Z</time></trkpt><trkpt lat="45.81782330815937" lon="10.12109774826043"><ele>194.0</ele><time>2026-04-12T10:30:24.999Z</time></trkpt><trkpt lat="45.817904592785744" lon="10.12123593086963"><ele>194.0</ele><time>2026-04-12T10:30:25.999Z</time></trkpt><trkpt lat="45.81798431620955" lon="10.121365302301898"><ele>194.0</ele><time>2026-04-12T10:30:26.999Z</time></trkpt><trkpt lat="45.81806616404454" lon="10.121485412306358"><ele>194.00000000000003</ele><time>2026-04-12T10:30:27.999Z</time></trkpt><trkpt lat="45.81814277698529" lon="10.121589712719484"><ele>194.0</ele><time>2026-04-12T10:30:28.999Z</time></trkpt><trkpt lat="45.81821577055028" lon="10.121679274625283"><ele>194.0</ele><time>2026-04-12T10:30:29.999Z</time></trkpt><trkpt lat="45.81827776913576" lon="10.121768224797336"><ele>194.0</ele><time>2026-04-12T10:30:30.999Z</time></trkpt><trkpt lat="45.81833792095569" lon="10.121847092430203"><ele>194.00000000000003</ele><time>2026-04-12T10:30:31.999Z</time></trkpt><trkpt lat="45.81839613627897" lon="10.121920151408107"><ele>194.0</ele><time>2026-04-12T10:30:32.999Z</time></trkpt><trkpt lat="45.81843966501111" lon="10.121993601833115"><ele>194.00000000000003</ele><time>2026-04-12T10:30:33.999Z</time></trkpt><trkpt lat="45.81846641314755" lon="10.122078862209804"><ele>194.0</ele><time>2026-04-12T10:30:34.999Z</time></trkpt><trkpt lat="45.81848054654376" lon="10.122176418252218"><ele>194.0</ele><time>2026-04-12T10:30:35.999Z</time></trkpt><trkpt lat="45.81850075275178" lon="10.122264463762232"><ele>194.0</ele><time>2026-04-12T10:30:36.999Z</time></trkpt><trkpt lat="45.818539722698404" lon="10.12234075895494"><ele>194.00000000000003</ele><time>2026-04-12T10:30:38Z</time></trkpt><trkpt lat="45.81864255107771" lon="10.122425676099832"><ele>194.0</ele><time>2026-04-12T10:30:40Z</time></trkpt><trkpt lat="45.81877669544022" lon="10.12240256330419"><ele>193.79999999999998</ele><time>2026-04-12T10:30:42Z</time></trkpt><trkpt lat="45.818859371176536" lon="10.122381392643236"><ele>193.6</ele><time>2026-04-12T10:30:43Z</time></trkpt><trkpt lat="45.81895503965478" lon="10.122388174960312"><ele>193.4</ele><time>2026-04-12T10:30:44Z</time></trkpt><trkpt lat="45.819055298297314" lon="10.122443678742819"><ele>193.2</ele><time>2026-04-12T10:30:45Z</time></trkpt><trkpt lat="45.81915846711104" lon="10.12253939995969"><ele>193.0</ele><time>2026-04-12T10:30:46Z</time></trkpt><trkpt lat="45.81927765950192" lon="10.122631971945381"><ele>192.33333333333331</ele><time>2026-04-12T10:30:47Z</time></trkpt><trkpt lat="45.81940562396088" lon="10.122735165104485"><ele>191.66666666666666</ele><time>2026-04-12T10:30:48Z</time></trkpt><trkpt lat="45.81954914901411" lon="10.122839485636549"><ele>191.0</ele><time>2026-04-12T10:30:49Z</time></trkpt><trkpt lat="45.819701564746744" lon="10.122942835896279"><ele>191.0</ele><time>2026-04-12T10:30:50Z</time></trkpt><trkpt lat="45.81986209514187" lon="10.123056132647573"><ele>191.0</ele><time>2026-04-12T10:30:51Z</time></trkpt><trkpt lat="45.8200313492395" lon="10.123178114987535"><ele>191.0</ele><time>2026-04-12T10:30:52Z</time></trkpt><trkpt lat="45.8202096047816" lon="10.123303333143001"><ele>191.33333333333331</ele><time>2026-04-12T10:30:53Z</time></trkpt><trkpt lat="45.820387857295096" lon="10.123433311036505"><ele>191.66666666666666</ele><time>2026-04-12T10:30:54Z</time></trkpt><trkpt lat="45.82057087877813" lon="10.123561209097712"><ele>192.0</ele><time>2026-04-12T10:30:55Z</time></trkpt><trkpt lat="45.82075513233397" lon="10.12369283478265"><ele>192.0</ele><time>2026-04-12T10:30:56Z</time></trkpt><trkpt lat="45.82093840664037" lon="10.123826920014247"><ele>192.0</ele><time>2026-04-12T10:30:57Z</time></trkpt><trkpt lat="45.82112406304666" lon="10.123964880145113"><ele>192.0</ele><time>2026-04-12T10:30:58Z</time></trkpt><trkpt lat="45.82130888965855" lon="10.124098916517351"><ele>191.33333333333334</ele><time>2026-04-12T10:30:59Z</time></trkpt><trkpt lat="45.82148662211742" lon="10.124229177978558"><ele>190.66666666666669</ele><time>2026-04-12T10:31:00Z</time></trkpt><trkpt lat="45.82166288793618" lon="10.124351478897028"><ele>190.0</ele><time>2026-04-12T10:31:01Z</time></trkpt><trkpt lat="45.82183555697069" lon="10.124470221316825"><ele>190.0</ele><time>2026-04-12T10:31:02Z</time></trkpt><trkpt lat="45.822012304061936" lon="10.12458268148822"><ele>190.0</ele><time>2026-04-12T10:31:03Z</time></trkpt><trkpt lat="45.82216600828323" lon="10.124700569974879"><ele>190.0</ele><time>2026-04-12T10:31:04Z</time></trkpt><trkpt lat="45.82231403080943" lon="10.124812683090962"><ele>191.0</ele><time>2026-04-12T10:31:05Z</time></trkpt><trkpt lat="45.82245903215624" lon="10.1249203419978"><ele>192.0</ele><time>2026-04-12T10:31:06Z</time></trkpt><trkpt lat="45.82260986264368" lon="10.125031794569653"><ele>193.0</ele><time>2026-04-12T10:31:07Z</time></trkpt><trkpt lat="45.822756478453826" lon="10.125141333800219"><ele>193.0</ele><time>2026-04-12T10:31:08Z</time></trkpt><trkpt lat="45.82290663525631" lon="10.125251002039372"><ele>193.0</ele><time>2026-04-12T10:31:09Z</time></trkpt><trkpt lat="45.823057043648994" lon="10.125359509887693"><ele>193.0</ele><time>2026-04-12T10:31:10Z</time></trkpt><trkpt lat="45.823206328844535" lon="10.125465760156164"><ele>193.0</ele><time>2026-04-12T10:31:11Z</time></trkpt><trkpt lat="45.823358115197266" lon="10.125577628481429"><ele>193.0</ele><time>2026-04-12T10:31:12Z</time></trkpt><trkpt lat="45.82351643600255" lon="10.12568693480501"><ele>193.0</ele><time>2026-04-12T10:31:13Z</time></trkpt><trkpt lat="45.823670741380255" lon="10.12579912143314"><ele>193.33333333333331</ele><time>2026-04-12T10:31:14Z</time></trkpt><trkpt lat="45.82382645185185" lon="10.12591219312623"><ele>193.66666666666669</ele><time>2026-04-12T10:31:15Z</time></trkpt><trkpt lat="45.82398652523397" lon="10.126022685691645"><ele>194.0</ele><time>2026-04-12T10:31:16Z</time></trkpt><trkpt lat="45.82415827110367" lon="10.126120312662595"><ele>193.0</ele><time>2026-04-12T10:31:17Z</time></trkpt><trkpt lat="45.82431649651269" lon="10.126236487550637"><ele>192.0</ele><time>2026-04-12T10:31:18Z</time></trkpt><trkpt lat="45.8244715463084" lon="10.12635725858009"><ele>191.0</ele><time>2026-04-12T10:31:19Z</time></trkpt><trkpt lat="45.824632935366566" lon="10.126470094514536"><ele>193.33333333333331</ele><time>2026-04-12T10:31:20Z</time></trkpt><trkpt lat="45.824805036271336" lon="10.126585303202566"><ele>195.66666666666666</ele><time>2026-04-12T10:31:21Z</time></trkpt><trkpt lat="45.82496118793003" lon="10.126709269921802"><ele>198.0</ele><time>2026-04-12T10:31:22Z</time></trkpt><trkpt lat="45.825125190300994" lon="10.126827572414598"><ele>195.66666666666666</ele><time>2026-04-12T10:31:23Z</time></trkpt><trkpt lat="45.82528700651605" lon="10.126946170075417"><ele>193.33333333333331</ele><time>2026-04-12T10:31:24Z</time></trkpt><trkpt lat="45.82545283791515" lon="10.127058730113122"><ele>191.0</ele><time>2026-04-12T10:31:25Z</time></trkpt><trkpt lat="45.825621755604466" lon="10.12715991450805"><ele>191.0</ele><time>2026-04-12T10:31:26Z</time></trkpt><trkpt lat="45.82597703450151" lon="10.127302972970417"><ele>191.0</ele><time>2026-04-12T10:31:28Z</time></trkpt><trkpt lat="45.82615107366698" lon="10.12735256027659"><ele>191.0</ele><time>2026-04-12T10:31:29Z</time></trkpt><trkpt lat="45.82631712514191" lon="10.127392097163563"><ele>191.0</ele><time>2026-04-12T10:31:30Z</time></trkpt><trkpt lat="45.82647852060661" lon="10.127428763823003"><ele>191.0</ele><time>2026-04-12T10:31:31Z</time></trkpt><trkpt lat="45.82663298009948" lon="10.127459491312282"><ele>190.75</ele><time>2026-04-12T10:31:32Z</time></trkpt><trkpt lat="45.826787352736766" lon="10.127473391629534"><ele>190.5</ele><time>2026-04-12T10:31:33Z</time></trkpt><trkpt lat="45.82692018587344" lon="10.127495263863315"><ele>190.25</ele><time>2026-04-12T10:31:34Z</time></trkpt><trkpt lat="45.82704045964393" lon="10.127505411647853"><ele>190.0</ele><time>2026-04-12T10:31:35Z</time></trkpt><trkpt lat="45.82715625732671" lon="10.127509087102478"><ele>190.5</ele><time>2026-04-12T10:31:36Z</time></trkpt><trkpt lat="45.82725155966937" lon="10.127511139634265"><ele>191.0</ele><time>2026-04-12T10:31:37Z</time></trkpt><trkpt lat="45.827335812575946" lon="10.127529997351736"><ele>191.5</ele><time>2026-04-12T10:31:38Z</time></trkpt><trkpt lat="45.82741500576645" lon="10.127551188083723"><ele>192.0</ele><time>2026-04-12T10:31:39Z</time></trkpt><trkpt lat="45.82748634353" lon="10.127586200279143"><ele>192.49999999999997</ele><time>2026-04-12T10:31:40Z</time></trkpt><trkpt lat="45.82755335534954" lon="10.12762916535927"><ele>193.0</ele><time>2026-04-12T10:31:41.001Z</time></trkpt><trkpt lat="45.82764224461851" lon="10.127644387749312"><ele>193.0</ele><time>2026-04-12T10:31:42.001Z</time></trkpt><trkpt lat="45.82774553560359" lon="10.127632171870163"><ele>193.0</ele><time>2026-04-12T10:31:43.001Z</time></trkpt><trkpt lat="45.8278580861358" lon="10.127659021549318"><ele>193.0</ele><time>2026-04-12T10:31:44.001Z</time></trkpt><trkpt lat="45.827975961880995" lon="10.127723125788405"><ele>193.0</ele><time>2026-04-12T10:31:45.001Z</time></trkpt><trkpt lat="45.82809756985948" lon="10.12781516571561"><ele>193.0</ele><time>2026-04-12T10:31:46.001Z</time></trkpt><trkpt lat="45.82822281304884" lon="10.12791504183185"><ele>193.0</ele><time>2026-04-12T10:31:47.001Z</time></trkpt><trkpt lat="45.82834480872738" lon="10.128004041380924"><ele>193.0</ele><time>2026-04-12T10:31:48.001Z</time></trkpt><trkpt lat="45.82847342751128" lon="10.128096602553285"><ele>193.0</ele><time>2026-04-12T10:31:49.001Z</time></trkpt><trkpt lat="45.82860456803197" lon="10.128196203398556"><ele>194.25</ele><time>2026-04-12T10:31:50.001Z</time></trkpt><trkpt lat="45.82872778529543" lon="10.128295458859899"><ele>195.5</ele><time>2026-04-12T10:31:51.001Z</time></trkpt><trkpt lat="45.82885349290592" lon="10.128392561848813"><ele>196.75</ele><time>2026-04-12T10:31:52.001Z</time></trkpt><trkpt lat="45.82897807977546" lon="10.128487079097848"><ele>198.0</ele><time>2026-04-12T10:31:53.001Z</time></trkpt><trkpt lat="45.829098861484944" lon="10.12857216110347"><ele>198.0</ele><time>2026-04-12T10:31:54.001Z</time></trkpt><trkpt lat="45.82922299180798" lon="10.128669876491001"><ele>198.0</ele><time>2026-04-12T10:31:55.001Z</time></trkpt><trkpt lat="45.829344557436144" lon="10.128766831109912"><ele>198.0</ele><time>2026-04-12T10:31:56.001Z</time></trkpt><trkpt lat="45.82946396607496" lon="10.128864652352101"><ele>198.0</ele><time>2026-04-12T10:31:57.001Z</time></trkpt><trkpt lat="45.82959395499374" lon="10.128972913746132"><ele>199.0</ele><time>2026-04-12T10:31:58.001Z</time></trkpt><trkpt lat="45.82971765380566" lon="10.129080473427827"><ele>200.0</ele><time>2026-04-12T10:31:59.001Z</time></trkpt><trkpt lat="45.82984299910374" lon="10.129185829756018"><ele>201.0</ele><time>2026-04-12T10:32:00.001Z</time></trkpt><trkpt lat="45.82995759072859" lon="10.129285667111228"><ele>202.0</ele><time>2026-04-12T10:32:01.001Z</time></trkpt><trkpt lat="45.830066006968174" lon="10.129380583447034"><ele>202.0</ele><time>2026-04-12T10:32:02.001Z</time></trkpt><trkpt lat="45.830180005090256" lon="10.129473100003432"><ele>202.0</ele><time>2026-04-12T10:32:03.001Z</time></trkpt><trkpt lat="45.83029524480706" lon="10.129559108803539"><ele>202.0</ele><time>2026-04-12T10:32:04.001Z</time></trkpt><trkpt lat="45.83041848081462" lon="10.129658857883149"><ele>202.0</ele><time>2026-04-12T10:32:05.001Z</time></trkpt><trkpt lat="45.830553364530815" lon="10.129758493927637"><ele>202.0</ele><time>2026-04-12T10:32:06.001Z</time></trkpt><trkpt lat="45.83068794943219" lon="10.129858844902774"><ele>202.0</ele><time>2026-04-12T10:32:07.001Z</time></trkpt><trkpt lat="45.83080355976186" lon="10.129947890723958"><ele>202.0</ele><time>2026-04-12T10:32:08.001Z</time></trkpt><trkpt lat="45.830905004331925" lon="10.130021920813197"><ele>202.0</ele><time>2026-04-12T10:32:09.001Z</time></trkpt><trkpt lat="45.83098188026858" lon="10.130100563352485"><ele>202.39999999999998</ele><time>2026-04-12T10:32:10.001Z</time></trkpt><trkpt lat="45.83106494708319" lon="10.13015663097069"><ele>202.79999999999998</ele><time>2026-04-12T10:32:11.001Z</time></trkpt><trkpt lat="45.831138927355745" lon="10.130221810044462"><ele>203.2</ele><time>2026-04-12T10:32:12.001Z</time></trkpt><trkpt lat="45.831220196638164" lon="10.130292076683697"><ele>203.6</ele><time>2026-04-12T10:32:13.001Z</time></trkpt><trkpt lat="45.83130824185726" lon="10.130392893780392"><ele>204.0</ele><time>2026-04-12T10:32:14.001Z</time></trkpt><trkpt lat="45.831413422029314" lon="10.130505472749443"><ele>204.0</ele><time>2026-04-12T10:32:15.001Z</time></trkpt><trkpt lat="45.831532734564625" lon="10.130593242108162"><ele>204.0</ele><time>2026-04-12T10:32:16.001Z</time></trkpt><trkpt lat="45.8316529832254" lon="10.13068491256719"><ele>204.0</ele><time>2026-04-12T10:32:17.001Z</time></trkpt><trkpt lat="45.83177483974755" lon="10.130770768922464"><ele>204.0</ele><time>2026-04-12T10:32:18.001Z</time></trkpt><trkpt lat="45.83189384133941" lon="10.130857364994014"><ele>204.25</ele><time>2026-04-12T10:32:19.001Z</time></trkpt><trkpt lat="45.83201656366797" lon="10.130946861232166"><ele>204.5</ele><time>2026-04-12T10:32:20.001Z</time></trkpt><trkpt lat="45.83214018252363" lon="10.131043826852267"><ele>204.75</ele><time>2026-04-12T10:32:21.001Z</time></trkpt><trkpt lat="45.83226353535655" lon="10.131142280851106"><ele>205.0</ele><time>2026-04-12T10:32:22.001Z</time></trkpt><trkpt lat="45.83238908244835" lon="10.131248138178877"><ele>205.0</ele><time>2026-04-12T10:32:23.001Z</time></trkpt><trkpt lat="45.83252423515955" lon="10.13134724284985"><ele>205.0</ele><time>2026-04-12T10:32:24.001Z</time></trkpt><trkpt lat="45.832660273562425" lon="10.131444195411017"><ele>205.0</ele><time>2026-04-12T10:32:25.001Z</time></trkpt><trkpt lat="45.83279640089522" lon="10.131545317830987"><ele>205.66666666666666</ele><time>2026-04-12T10:32:25.999Z</time></trkpt><trkpt lat="45.83293690293351" lon="10.131657171037787"><ele>206.33333333333331</ele><time>2026-04-12T10:32:26.999Z</time></trkpt><trkpt lat="45.83307649664808" lon="10.13176881502553"><ele>207.0</ele><time>2026-04-12T10:32:27.999Z</time></trkpt><trkpt lat="45.83321561087372" lon="10.131887790436206"><ele>207.0</ele><time>2026-04-12T10:32:28.999Z</time></trkpt><trkpt lat="45.83335611060369" lon="10.132008331298513"><ele>207.0</ele><time>2026-04-12T10:32:29.999Z</time></trkpt><trkpt lat="45.833495544710345" lon="10.13213182918645"><ele>207.0</ele><time>2026-04-12T10:32:30.999Z</time></trkpt><trkpt lat="45.83363235542795" lon="10.132256023946187"><ele>206.33333333333331</ele><time>2026-04-12T10:32:31.999Z</time></trkpt><trkpt lat="45.833765815527805" lon="10.132373572309715"><ele>205.66666666666666</ele><time>2026-04-12T10:32:32.999Z</time></trkpt><trkpt lat="45.83389371127708" lon="10.132492574986397"><ele>205.0</ele><time>2026-04-12T10:32:33.999Z</time></trkpt><trkpt lat="45.834015310243835" lon="10.132598404813809"><ele>205.25</ele><time>2026-04-12T10:32:34.999Z</time></trkpt><trkpt lat="45.834117983200244" lon="10.132705302182108"><ele>205.5</ele><time>2026-04-12T10:32:35.999Z</time></trkpt><trkpt lat="45.834221577952455" lon="10.132814376459228"><ele>205.75</ele><time>2026-04-12T10:32:36.999Z</time></trkpt><trkpt lat="45.83432444632829" lon="10.13292374359127"><ele>206.0</ele><time>2026-04-12T10:32:37.999Z</time></trkpt><trkpt lat="45.834428828875446" lon="10.133031683629193"><ele>206.0</ele><time>2026-04-12T10:32:38.999Z</time></trkpt><trkpt lat="45.83453022440879" lon="10.133137495386249"><ele>206.0</ele><time>2026-04-12T10:32:39.999Z</time></trkpt><trkpt lat="45.83462941163188" lon="10.133243664401403"><ele>206.0</ele><time>2026-04-12T10:32:40.999Z</time></trkpt><trkpt lat="45.83472810287972" lon="10.133347640796384"><ele>206.0</ele><time>2026-04-12T10:32:41.999Z</time></trkpt><trkpt lat="45.8348249621178" lon="10.133450859414939"><ele>206.5</ele><time>2026-04-12T10:32:42.999Z</time></trkpt><trkpt lat="45.834920405002286" lon="10.13355593297521"><ele>207.0</ele><time>2026-04-12T10:32:43.999Z</time></trkpt><trkpt lat="45.83501502222267" lon="10.13365726076852"><ele>207.5</ele><time>2026-04-12T10:32:44.999Z</time></trkpt><trkpt lat="45.83511331261246" lon="10.133762319997011"><ele>208.0</ele><time>2026-04-12T10:32:46Z</time></trkpt><trkpt lat="45.83520903258988" lon="10.133867343056064"><ele>208.0</ele><time>2026-04-12T10:32:47Z</time></trkpt><trkpt lat="45.83530692831411" lon="10.13397787020251"><ele>208.0</ele><time>2026-04-12T10:32:48Z</time></trkpt><trkpt lat="45.835410176354515" lon="10.134088150173493"><ele>208.0</ele><time>2026-04-12T10:32:49Z</time></trkpt><trkpt lat="45.83550804708403" lon="10.134190790578693"><ele>208.0</ele><time>2026-04-12T10:32:50Z</time></trkpt><trkpt lat="45.83560362562805" lon="10.134291060483621"><ele>208.0</ele><time>2026-04-12T10:32:51Z</time></trkpt><trkpt lat="45.835702590346365" lon="10.134396988773442"><ele>208.0</ele><time>2026-04-12T10:32:52Z</time></trkpt><trkpt lat="45.83580525264017" lon="10.134506085272566"><ele>208.0</ele><time>2026-04-12T10:32:53Z</time></trkpt><trkpt lat="45.83590909547895" lon="10.134619152448447"><ele>208.0</ele><time>2026-04-12T10:32:54Z</time></trkpt><trkpt lat="45.83601925739134" lon="10.134736398710688"><ele>206.75</ele><time>2026-04-12T10:32:55Z</time></trkpt><trkpt lat="45.83613092643983" lon="10.134854321952696"><ele>205.5</ele><time>2026-04-12T10:32:56Z</time></trkpt><trkpt lat="45.83624296286287" lon="10.134981598329075"><ele>204.25</ele><time>2026-04-12T10:32:57Z</time></trkpt><trkpt lat="45.836358770234455" lon="10.135104307446941"><ele>203.0</ele><time>2026-04-12T10:32:58Z</time></trkpt><trkpt lat="45.83647506863669" lon="10.135228744209721"><ele>203.0</ele><time>2026-04-12T10:32:59Z</time></trkpt><trkpt lat="45.83659415947106" lon="10.135354240710443"><ele>203.0</ele><time>2026-04-12T10:33:00Z</time></trkpt><trkpt lat="45.83671085466465" lon="10.13548001238032"><ele>203.0</ele><time>2026-04-12T10:33:01Z</time></trkpt><trkpt lat="45.83682409003435" lon="10.135598862097678"><ele>203.0</ele><time>2026-04-12T10:33:02Z</time></trkpt><trkpt lat="45.836929628448495" lon="10.135713862577402"><ele>202.75</ele><time>2026-04-12T10:33:03Z</time></trkpt><trkpt lat="45.837033128224384" lon="10.135826002034612"><ele>202.5</ele><time>2026-04-12T10:33:04Z</time></trkpt><trkpt lat="45.83713496777752" lon="10.135944910062095"><ele>202.25</ele><time>2026-04-12T10:33:05Z</time></trkpt><trkpt lat="45.837225313708444" lon="10.136032460225495"><ele>202.0</ele><time>2026-04-12T10:33:06Z</time></trkpt><trkpt lat="45.83732920839453" lon="10.136148434965568"><ele>202.0</ele><time>2026-04-12T10:33:07Z</time></trkpt><trkpt lat="45.8374334476619" lon="10.136255825489018"><ele>202.0</ele><time>2026-04-12T10:33:08Z</time></trkpt><trkpt lat="45.83754443021794" lon="10.136364605016277"><ele>202.0</ele><time>2026-04-12T10:33:09Z</time></trkpt><trkpt lat="45.83764623449366" lon="10.136473800480442"><ele>202.0</ele><time>2026-04-12T10:33:10Z</time></trkpt><trkpt lat="45.837738976372265" lon="10.136579956937766"><ele>201.6</ele><time>2026-04-12T10:33:11Z</time></trkpt><trkpt lat="45.837822692731585" lon="10.13666904157223"><ele>201.2</ele><time>2026-04-12T10:33:12Z</time></trkpt><trkpt lat="45.83789883780856" lon="10.136750870329912"><ele>200.8</ele><time>2026-04-12T10:33:13Z</time></trkpt><trkpt lat="45.83795601420652" lon="10.136835703435967"><ele>200.4</ele><time>2026-04-12T10:33:14Z</time></trkpt><trkpt lat="45.83799076601631" lon="10.137044145494919"><ele>200.0</ele><time>2026-04-12T10:33:16Z</time></trkpt><trkpt lat="45.83798191295162" lon="10.137154046547717"><ele>200.00000000000003</ele><time>2026-04-12T10:33:17Z</time></trkpt><trkpt lat="45.838000423962484" lon="10.137256352826164"><ele>200.0</ele><time>2026-04-12T10:33:18Z</time></trkpt><trkpt lat="45.838043842812546" lon="10.13734481809045"><ele>200.0</ele><time>2026-04-12T10:33:19Z</time></trkpt><trkpt lat="45.8381080619269" lon="10.13739232115479"><ele>200.0</ele><time>2026-04-12T10:33:20Z</time></trkpt><trkpt lat="45.83818575832762" lon="10.137400503149728"><ele>200.00000000000003</ele><time>2026-04-12T10:33:21Z</time></trkpt><trkpt lat="45.83827046885461" lon="10.137366860216387"><ele>200.0</ele><time>2026-04-12T10:33:22Z</time></trkpt><trkpt lat="45.83836208563173" lon="10.137350229880978"><ele>200.0</ele><time>2026-04-12T10:33:23Z</time></trkpt><trkpt lat="45.83846212548631" lon="10.137374715730196"><ele>200.0</ele><time>2026-04-12T10:33:24Z</time></trkpt><trkpt lat="45.83856290240739" lon="10.137445814158047"><ele>200.0</ele><time>2026-04-12T10:33:25Z</time></trkpt><trkpt lat="45.83865814206654" lon="10.13754308237894"><ele>200.0</ele><time>2026-04-12T10:33:26Z</time></trkpt><trkpt lat="45.838753254859554" lon="10.137649587716025"><ele>199.5</ele><time>2026-04-12T10:33:27Z</time></trkpt><trkpt lat="45.83885092774483" lon="10.137759404636547"><ele>199.0</ele><time>2026-04-12T10:33:28Z</time></trkpt><trkpt lat="45.83895521997872" lon="10.137872940807403"><ele>198.5</ele><time>2026-04-12T10:33:29Z</time></trkpt><trkpt lat="45.839062480873075" lon="10.137987549300657"><ele>198.0</ele><time>2026-04-12T10:33:30Z</time></trkpt><trkpt lat="45.83917535208732" lon="10.138103553194801"><ele>198.0</ele><time>2026-04-12T10:33:31Z</time></trkpt><trkpt lat="45.83928867857465" lon="10.138229841977797"><ele>198.0</ele><time>2026-04-12T10:33:32Z</time></trkpt><trkpt lat="45.83940034301131" lon="10.138357743631593"><ele>198.0</ele><time>2026-04-12T10:33:33Z</time></trkpt><trkpt lat="45.83951850198298" lon="10.138487850014155"><ele>198.0</ele><time>2026-04-12T10:33:34Z</time></trkpt><trkpt lat="45.83964272347668" lon="10.138626294262874"><ele>198.0</ele><time>2026-04-12T10:33:35Z</time></trkpt><trkpt lat="45.839767516770806" lon="10.138752543963594"><ele>198.0</ele><time>2026-04-12T10:33:36Z</time></trkpt><trkpt lat="45.839892685456505" lon="10.1388881902593"><ele>198.0</ele><time>2026-04-12T10:33:37Z</time></trkpt><trkpt lat="45.84001700692257" lon="10.13902657458434"><ele>198.0</ele><time>2026-04-12T10:33:38Z</time></trkpt><trkpt lat="45.840141743200874" lon="10.139156829726648"><ele>198.0</ele><time>2026-04-12T10:33:39.001Z</time></trkpt><trkpt lat="45.840268083588946" lon="10.139292247938572"><ele>198.0</ele><time>2026-04-12T10:33:40.001Z</time></trkpt><trkpt lat="45.84039713853668" lon="10.139429286623857"><ele>198.0</ele><time>2026-04-12T10:33:41.001Z</time></trkpt><trkpt lat="45.84052447637584" lon="10.139567323843552"><ele>198.0</ele><time>2026-04-12T10:33:42.001Z</time></trkpt><trkpt lat="45.84065302686012" lon="10.139705308133703"><ele>198.0</ele><time>2026-04-12T10:33:43.001Z</time></trkpt><trkpt lat="45.84078698034398" lon="10.139846312636084"><ele>198.33333333333331</ele><time>2026-04-12T10:33:44.001Z</time></trkpt><trkpt lat="45.840929617172144" lon="10.139994856915079"><ele>198.66666666666666</ele><time>2026-04-12T10:33:45.001Z</time></trkpt><trkpt lat="45.84107602061948" lon="10.140154330821186"><ele>199.0</ele><time>2026-04-12T10:33:46.001Z</time></trkpt><trkpt lat="45.84121231827471" lon="10.140352167584432"><ele>199.0</ele><time>2026-04-12T10:33:47.001Z</time></trkpt><trkpt lat="45.84137132524791" lon="10.140527801793342"><ele>199.0</ele><time>2026-04-12T10:33:48.001Z</time></trkpt><trkpt lat="45.841531819635655" lon="10.140706364179788"><ele>199.0</ele><time>2026-04-12T10:33:49.001Z</time></trkpt><trkpt lat="45.84170062164674" lon="10.140894171019383"><ele>200.0</ele><time>2026-04-12T10:33:50.001Z</time></trkpt><trkpt lat="45.84186828493378" lon="10.141079149150748"><ele>201.0</ele><time>2026-04-12T10:33:51.001Z</time></trkpt><trkpt lat="45.842032297994585" lon="10.141258748180146"><ele>202.0</ele><time>2026-04-12T10:33:52.001Z</time></trkpt><trkpt lat="45.84219383777799" lon="10.141430874091391"><ele>202.0</ele><time>2026-04-12T10:33:53.001Z</time></trkpt><trkpt lat="45.842355086922694" lon="10.141602174971514"><ele>202.0</ele><time>2026-04-12T10:33:54.001Z</time></trkpt><trkpt lat="45.84251614376417" lon="10.141769944964052"><ele>202.0</ele><time>2026-04-12T10:33:55.001Z</time></trkpt><trkpt lat="45.84267699263272" lon="10.1419340629188"><ele>202.66666666666666</ele><time>2026-04-12T10:33:56.001Z</time></trkpt><trkpt lat="45.842835701211335" lon="10.14209269231425"><ele>203.33333333333331</ele><time>2026-04-12T10:33:57.001Z</time></trkpt><trkpt lat="45.842985257811605" lon="10.142247872849577"><ele>204.0</ele><time>2026-04-12T10:33:58.001Z</time></trkpt><trkpt lat="45.8431260687111" lon="10.14239685511113"><ele>204.0</ele><time>2026-04-12T10:33:59.001Z</time></trkpt><trkpt lat="45.84320191374415" lon="10.142627701297764"><ele>204.0</ele><time>2026-04-12T10:34:00.001Z</time></trkpt><trkpt lat="45.8433170451107" lon="10.142761138924051"><ele>204.0</ele><time>2026-04-12T10:34:01.001Z</time></trkpt><trkpt lat="45.843484704026906" lon="10.14276975443101"><ele>205.25</ele><time>2026-04-12T10:34:02.001Z</time></trkpt><trkpt lat="45.84359306806247" lon="10.14287726477889"><ele>206.5</ele><time>2026-04-12T10:34:03.001Z</time></trkpt><trkpt lat="45.8436821049685" lon="10.142984049614354"><ele>207.75</ele><time>2026-04-12T10:34:04.001Z</time></trkpt><trkpt lat="45.84376977832611" lon="10.143094166181303"><ele>209.0</ele><time>2026-04-12T10:34:05.001Z</time></trkpt><trkpt lat="45.84384940545847" lon="10.143210591088396"><ele>208.2</ele><time>2026-04-12T10:34:06.001Z</time></trkpt><trkpt lat="45.84391187573901" lon="10.143332179831841"><ele>207.39999999999998</ele><time>2026-04-12T10:34:07.001Z</time></trkpt><trkpt lat="45.84395610838081" lon="10.143460630045713"><ele>206.6</ele><time>2026-04-12T10:34:08.001Z</time></trkpt><trkpt lat="45.84398272000195" lon="10.143596510558929"><ele>205.8</ele><time>2026-04-12T10:34:09.001Z</time></trkpt><trkpt lat="45.84398815901558" lon="10.143734604841834"><ele>205.0</ele><time>2026-04-12T10:34:10.001Z</time></trkpt><trkpt lat="45.84398378371797" lon="10.143874652120497"><ele>205.0</ele><time>2026-04-12T10:34:11.001Z</time></trkpt><trkpt lat="45.84400688611785" lon="10.1439918659567"><ele>205.0</ele><time>2026-04-12T10:34:12.001Z</time></trkpt><trkpt lat="45.84405565835796" lon="10.14408536530063"><ele>205.0</ele><time>2026-04-12T10:34:13.001Z</time></trkpt><trkpt lat="45.84408829712106" lon="10.144167778015433"><ele>205.0</ele><time>2026-04-12T10:34:14.001Z</time></trkpt><trkpt lat="45.84422509811323" lon="10.144153993824135"><ele>205.0</ele><time>2026-04-12T10:34:15.001Z</time></trkpt><trkpt lat="45.844324073519665" lon="10.144145680565304"><ele>204.75</ele><time>2026-04-12T10:34:16.001Z</time></trkpt><trkpt lat="45.84442890172785" lon="10.144149941729674"><ele>204.5</ele><time>2026-04-12T10:34:17.001Z</time></trkpt><trkpt lat="45.84454655038087" lon="10.1441711131718"><ele>204.25</ele><time>2026-04-12T10:34:18.001Z</time></trkpt><trkpt lat="45.84466629487238" lon="10.144198951779199"><ele>204.0</ele><time>2026-04-12T10:34:19.001Z</time></trkpt><trkpt lat="45.844791861055086" lon="10.144240980053421"><ele>204.0</ele><time>2026-04-12T10:34:20.001Z</time></trkpt><trkpt lat="45.84491530135847" lon="10.144307894145108"><ele>204.0</ele><time>2026-04-12T10:34:21.001Z</time></trkpt><trkpt lat="45.84502793860494" lon="10.144406675722523"><ele>204.0</ele><time>2026-04-12T10:34:22.001Z</time></trkpt><trkpt lat="45.845142878572865" lon="10.144530126707606"><ele>204.0</ele><time>2026-04-12T10:34:23.001Z</time></trkpt><trkpt lat="45.84526387585529" lon="10.14465938681114"><ele>203.66666666666669</ele><time>2026-04-12T10:34:24.001Z</time></trkpt><trkpt lat="45.84539090252766" lon="10.144788536060503"><ele>203.33333333333334</ele><time>2026-04-12T10:34:25.001Z</time></trkpt><trkpt lat="45.845521736124056" lon="10.144924689746803"><ele>203.0</ele><time>2026-04-12T10:34:26.001Z</time></trkpt><trkpt lat="45.8456601884624" lon="10.145076310802482"><ele>203.0</ele><time>2026-04-12T10:34:27.001Z</time></trkpt><trkpt lat="45.845796358497" lon="10.145214966172837"><ele>203.0</ele><time>2026-04-12T10:34:28.001Z</time></trkpt><trkpt lat="45.84592962511588" lon="10.145358871207726"><ele>203.0</ele><time>2026-04-12T10:34:29.001Z</time></trkpt><trkpt lat="45.84606630871226" lon="10.145502945959551"><ele>203.33333333333334</ele><time>2026-04-12T10:34:30.001Z</time></trkpt><trkpt lat="45.846203664368446" lon="10.145645565123411"><ele>203.66666666666669</ele><time>2026-04-12T10:34:31.001Z</time></trkpt><trkpt lat="45.846340967370345" lon="10.145791359792788"><ele>204.0</ele><time>2026-04-12T10:34:31.999Z</time></trkpt><trkpt lat="45.846485035685006" lon="10.14594284426849"><ele>204.0</ele><time>2026-04-12T10:34:32.999Z</time></trkpt><trkpt lat="45.84662892994519" lon="10.146086261784404"><ele>204.0</ele><time>2026-04-12T10:34:33.999Z</time></trkpt><trkpt lat="45.846766917062645" lon="10.146224714631392"><ele>204.0</ele><time>2026-04-12T10:34:34.999Z</time></trkpt><trkpt lat="45.8469139703635" lon="10.146381061340552"><ele>204.33333333333331</ele><time>2026-04-12T10:34:35.999Z</time></trkpt><trkpt lat="45.84705494374359" lon="10.146521800923587"><ele>204.66666666666666</ele><time>2026-04-12T10:34:36.999Z</time></trkpt><trkpt lat="45.84718464957662" lon="10.146654595125039"><ele>205.0</ele><time>2026-04-12T10:34:37.999Z</time></trkpt><trkpt lat="45.847305710279365" lon="10.146783559562273"><ele>205.25</ele><time>2026-04-12T10:34:38.999Z</time></trkpt><trkpt lat="45.84741924114094" lon="10.146910623193923"><ele>205.5</ele><time>2026-04-12T10:34:39.999Z</time></trkpt><trkpt lat="45.84753121446468" lon="10.147036536971438"><ele>205.75</ele><time>2026-04-12T10:34:40.999Z</time></trkpt><trkpt lat="45.8476478241677" lon="10.147160262509308"><ele>206.0</ele><time>2026-04-12T10:34:41.999Z</time></trkpt><trkpt lat="45.847769923921646" lon="10.147287268809057"><ele>206.5</ele><time>2026-04-12T10:34:42.999Z</time></trkpt><trkpt lat="45.84788994158295" lon="10.147416869574633"><ele>207.0</ele><time>2026-04-12T10:34:43.999Z</time></trkpt><trkpt lat="45.84800834494557" lon="10.14754554903356"><ele>207.5</ele><time>2026-04-12T10:34:44.999Z</time></trkpt><trkpt lat="45.848123751634674" lon="10.147672498302843"><ele>208.0</ele><time>2026-04-12T10:34:45.999Z</time></trkpt><trkpt lat="45.84823789616859" lon="10.147797991885799"><ele>208.0</ele><time>2026-04-12T10:34:46.999Z</time></trkpt><trkpt lat="45.84835085942016" lon="10.147921671531218"><ele>208.0</ele><time>2026-04-12T10:34:47.999Z</time></trkpt><trkpt lat="45.8484621464325" lon="10.148046586981817"><ele>208.0</ele><time>2026-04-12T10:34:48.999Z</time></trkpt><trkpt lat="45.84857416664779" lon="10.148171439725761"><ele>208.0</ele><time>2026-04-12T10:34:49.999Z</time></trkpt><trkpt lat="45.84868678875491" lon="10.148300079172833"><ele>209.66666666666666</ele><time>2026-04-12T10:34:51Z</time></trkpt><trkpt lat="45.84880427265287" lon="10.14842498317143"><ele>211.33333333333331</ele><time>2026-04-12T10:34:52Z</time></trkpt><trkpt lat="45.84892755437181" lon="10.148553903093879"><ele>213.0</ele><time>2026-04-12T10:34:53Z</time></trkpt><trkpt lat="45.84905223406381" lon="10.148686890645104"><ele>213.0</ele><time>2026-04-12T10:34:54Z</time></trkpt><trkpt lat="45.84917807795519" lon="10.148818020825056"><ele>213.0</ele><time>2026-04-12T10:34:55Z</time></trkpt><trkpt lat="45.84930469411892" lon="10.148953969400049"><ele>213.0</ele><time>2026-04-12T10:34:56Z</time></trkpt><trkpt lat="45.84943346970657" lon="10.149094791801529"><ele>213.33333333333331</ele><time>2026-04-12T10:34:57Z</time></trkpt><trkpt lat="45.849563969224555" lon="10.149238316011454"><ele>213.66666666666666</ele><time>2026-04-12T10:34:58Z</time></trkpt><trkpt lat="45.84969816290722" lon="10.14938450939173"><ele>214.0</ele><time>2026-04-12T10:34:59Z</time></trkpt><trkpt lat="45.8498319513532" lon="10.149527162933861"><ele>214.0</ele><time>2026-04-12T10:35:00Z</time></trkpt><trkpt lat="45.849967302712415" lon="10.149669322672787"><ele>214.0</ele><time>2026-04-12T10:35:01Z</time></trkpt><trkpt lat="45.85010362118915" lon="10.149812134700252"><ele>214.0</ele><time>2026-04-12T10:35:02Z</time></trkpt><trkpt lat="45.85024115018662" lon="10.14996260502359"><ele>212.66666666666666</ele><time>2026-04-12T10:35:03Z</time></trkpt><trkpt lat="45.85037081491034" lon="10.150115345106206"><ele>211.33333333333331</ele><time>2026-04-12T10:35:04Z</time></trkpt><trkpt lat="45.850507691958825" lon="10.150253037245237"><ele>210.0</ele><time>2026-04-12T10:35:05Z</time></trkpt><trkpt lat="45.85063048686394" lon="10.150392892510121"><ele>210.0</ele><time>2026-04-12T10:35:06Z</time></trkpt><trkpt lat="45.850753309723075" lon="10.150526446272384"><ele>210.0</ele><time>2026-04-12T10:35:07Z</time></trkpt><trkpt lat="45.8508704807506" lon="10.150653374546808"><ele>210.0</ele><time>2026-04-12T10:35:08Z</time></trkpt><trkpt lat="45.850978066583615" lon="10.15076190032633"><ele>210.0</ele><time>2026-04-12T10:35:09Z</time></trkpt><trkpt lat="45.85106260928343" lon="10.150851885899742"><ele>210.33333333333334</ele><time>2026-04-12T10:35:10Z</time></trkpt><trkpt lat="45.85113297253112" lon="10.150925899701406"><ele>210.66666666666669</ele><time>2026-04-12T10:35:11Z</time></trkpt><trkpt lat="45.85118590745086" lon="10.15098133004655"><ele>211.0</ele><time>2026-04-12T10:35:12Z</time></trkpt><trkpt lat="45.851261333188305" lon="10.15104348269547"><ele>211.33333333333334</ele><time>2026-04-12T10:35:14Z</time></trkpt><trkpt lat="45.85133016805279" lon="10.15100062524439"><ele>211.66666666666669</ele><time>2026-04-12T10:35:16Z</time></trkpt><trkpt lat="45.8513464156887" lon="10.150896964314311"><ele>212.0</ele><time>2026-04-12T10:35:18Z</time></trkpt><trkpt lat="45.85140636389338" lon="10.150832578892976"><ele>212.0</ele><time>2026-04-12T10:35:21Z</time></trkpt><trkpt lat="45.851433634025874" lon="10.150748202744795"><ele>212.0</ele><time>2026-04-12T10:35:44.001Z</time></trkpt><trkpt lat="45.85150279161959" lon="10.150866998124151"><ele>212.0</ele><time>2026-04-12T10:35:54.001Z</time></trkpt></trkseg><trkseg><trkpt lat="45.84776962125534" lon="10.147229099839931"><ele>207.0</ele><time>2026-04-12T12:42:14.999Z</time></trkpt><trkpt lat="45.847658981617585" lon="10.147112180725316"><ele>207.0</ele><time>2026-04-12T12:42:15.999Z</time></trkpt><trkpt lat="45.84754847079846" lon="10.14701164365219"><ele>207.0</ele><time>2026-04-12T12:42:16.999Z</time></trkpt><trkpt lat="45.847425077150035" lon="10.146877804844516"><ele>207.0</ele><time>2026-04-12T12:42:17.999Z</time></trkpt><trkpt lat="45.847304635397464" lon="10.146743680830491"><ele>206.66666666666669</ele><time>2026-04-12T12:42:18.999Z</time></trkpt><trkpt lat="45.84717961925527" lon="10.146608564784973"><ele>206.33333333333334</ele><time>2026-04-12T12:42:19.999Z</time></trkpt><trkpt lat="45.84705066496826" lon="10.146469518387423"><ele>206.0</ele><time>2026-04-12T12:42:21Z</time></trkpt><trkpt lat="45.846933232471" lon="10.14633243748355"><ele>205.33333333333334</ele><time>2026-04-12T12:42:22Z</time></trkpt><trkpt lat="45.84678882106761" lon="10.146201635867744"><ele>204.66666666666669</ele><time>2026-04-12T12:42:23Z</time></trkpt><trkpt lat="45.84666569680611" lon="10.146052245544375"><ele>204.0</ele><time>2026-04-12T12:42:24Z</time></trkpt><trkpt lat="45.84652798417628" lon="10.145918780025177"><ele>204.0</ele><time>2026-04-12T12:42:25Z</time></trkpt><trkpt lat="45.846393560257724" lon="10.145772974292788"><ele>204.0</ele><time>2026-04-12T12:42:26Z</time></trkpt><trkpt lat="45.84626080543781" lon="10.145635786268596"><ele>204.0</ele><time>2026-04-12T12:42:27Z</time></trkpt><trkpt lat="45.84613280503564" lon="10.14549922783632"><ele>204.0</ele><time>2026-04-12T12:42:28Z</time></trkpt><trkpt lat="45.84599706002909" lon="10.14537073951332"><ele>204.0</ele><time>2026-04-12T12:42:29Z</time></trkpt><trkpt lat="45.84586642383026" lon="10.145227210942679"><ele>204.0</ele><time>2026-04-12T12:42:30Z</time></trkpt><trkpt lat="45.845730480558075" lon="10.145080586319745"><ele>203.66666666666669</ele><time>2026-04-12T12:42:31Z</time></trkpt><trkpt lat="45.84559435951241" lon="10.144941871411135"><ele>203.33333333333334</ele><time>2026-04-12T12:42:32Z</time></trkpt><trkpt lat="45.845458200320834" lon="10.144802498759388"><ele>203.0</ele><time>2026-04-12T12:42:33Z</time></trkpt><trkpt lat="45.845328760022255" lon="10.144656466021944"><ele>203.2</ele><time>2026-04-12T12:42:34Z</time></trkpt><trkpt lat="45.845216164317904" lon="10.144525785806492"><ele>203.4</ele><time>2026-04-12T12:42:35Z</time></trkpt><trkpt lat="45.845119976014345" lon="10.144420523520607"><ele>203.6</ele><time>2026-04-12T12:42:36Z</time></trkpt><trkpt lat="45.84504513202875" lon="10.144337252323647"><ele>203.79999999999998</ele><time>2026-04-12T12:42:37Z</time></trkpt><trkpt lat="45.84499232924109" lon="10.144274602934649"><ele>204.0</ele><time>2026-04-12T12:42:38Z</time></trkpt><trkpt lat="45.84494364041373" lon="10.14417963907083"><ele>204.0</ele><time>2026-04-12T12:42:40Z</time></trkpt><trkpt lat="45.84493543144603" lon="10.144076280363683"><ele>204.0</ele><time>2026-04-12T12:42:43Z</time></trkpt><trkpt lat="45.845006191215006" lon="10.143930104378251"><ele>204.0</ele><time>2026-04-12T12:42:45Z</time></trkpt><trkpt lat="45.84505755351369" lon="10.143827164957202"><ele>204.0</ele><time>2026-04-12T12:42:46Z</time></trkpt><trkpt lat="45.845091428470674" lon="10.143721057407838"><ele>204.0</ele><time>2026-04-12T12:42:47Z</time></trkpt><trkpt lat="45.84513076559252" lon="10.143594545006597"><ele>203.6</ele><time>2026-04-12T12:42:48Z</time></trkpt><trkpt lat="45.845169942371946" lon="10.143458581055524"><ele>203.2</ele><time>2026-04-12T12:42:49Z</time></trkpt><trkpt lat="45.845225281879024" lon="10.143324098041655"><ele>202.79999999999998</ele><time>2026-04-12T12:42:50Z</time></trkpt><trkpt lat="45.84526309180601" lon="10.14319289347952"><ele>202.39999999999998</ele><time>2026-04-12T12:42:51Z</time></trkpt><trkpt lat="45.84533515257791" lon="10.143056771582952"><ele>202.0</ele><time>2026-04-12T12:42:52Z</time></trkpt><trkpt lat="45.8453967977621" lon="10.14293757759948"><ele>201.8</ele><time>2026-04-12T12:42:53Z</time></trkpt><trkpt lat="45.84547198845836" lon="10.142809470718385"><ele>201.6</ele><time>2026-04-12T12:42:54Z</time></trkpt><trkpt lat="45.84554677463126" lon="10.142691485161142"><ele>201.4</ele><time>2026-04-12T12:42:55Z</time></trkpt><trkpt lat="45.845621614105006" lon="10.142582173316786"><ele>201.20000000000002</ele><time>2026-04-12T12:42:56Z</time></trkpt><trkpt lat="45.84570364015538" lon="10.142478112879317"><ele>201.0</ele><time>2026-04-12T12:42:57Z</time></trkpt><trkpt lat="45.84579029319876" lon="10.14236974505234"><ele>200.75</ele><time>2026-04-12T12:42:58Z</time></trkpt><trkpt lat="45.8458880887625" lon="10.142262685499091"><ele>200.5</ele><time>2026-04-12T12:42:59Z</time></trkpt><trkpt lat="45.845982802976174" lon="10.142164951679442"><ele>200.25</ele><time>2026-04-12T12:43:00Z</time></trkpt><trkpt lat="45.84608041005245" lon="10.142075146931678"><ele>200.0</ele><time>2026-04-12T12:43:01Z</time></trkpt><trkpt lat="45.846173749744885" lon="10.141994727853525"><ele>200.00000000000003</ele><time>2026-04-12T12:43:02Z</time></trkpt><trkpt lat="45.84625626529091" lon="10.141919218820528"><ele>200.0</ele><time>2026-04-12T12:43:03Z</time></trkpt><trkpt lat="45.84633527809915" lon="10.141850743784987"><ele>200.0</ele><time>2026-04-12T12:43:04Z</time></trkpt><trkpt lat="45.84640043726108" lon="10.141792920573554"><ele>200.0</ele><time>2026-04-12T12:43:05Z</time></trkpt><trkpt lat="45.84645199649613" lon="10.141738640229958"><ele>200.00000000000003</ele><time>2026-04-12T12:43:06Z</time></trkpt><trkpt lat="45.84650876356031" lon="10.14167682336105"><ele>200.0</ele><time>2026-04-12T12:43:07Z</time></trkpt><trkpt lat="45.84656092508503" lon="10.14159387366631"><ele>199.83333333333334</ele><time>2026-04-12T12:43:08Z</time></trkpt><trkpt lat="45.84660899449032" lon="10.141514864253471"><ele>199.66666666666669</ele><time>2026-04-12T12:43:09Z</time></trkpt><trkpt lat="45.84667616607254" lon="10.14145927984151"><ele>199.5</ele><time>2026-04-12T12:43:10Z</time></trkpt><trkpt lat="45.8467475721672" lon="10.141375669406184"><ele>199.33333333333331</ele><time>2026-04-12T12:43:11Z</time></trkpt><trkpt lat="45.84680786109655" lon="10.141296100249784"><ele>199.16666666666666</ele><time>2026-04-12T12:43:12Z</time></trkpt><trkpt lat="45.846868032672276" lon="10.141217798671043"><ele>199.0</ele><time>2026-04-12T12:43:13Z</time></trkpt><trkpt lat="45.84691618998694" lon="10.141147575496813"><ele>199.39999999999998</ele><time>2026-04-12T12:43:14Z</time></trkpt><trkpt lat="45.846965530561995" lon="10.141075479108837"><ele>199.8</ele><time>2026-04-12T12:43:15Z</time></trkpt><trkpt lat="45.84701607343573" lon="10.140999410015597"><ele>200.2</ele><time>2026-04-12T12:43:16Z</time></trkpt><trkpt lat="45.847067949778555" lon="10.140916186011697"><ele>200.60000000000002</ele><time>2026-04-12T12:43:17Z</time></trkpt><trkpt lat="45.847127549231615" lon="10.14081900046542"><ele>201.0</ele><time>2026-04-12T12:43:18Z</time></trkpt><trkpt lat="45.847236068197915" lon="10.140629983810701"><ele>201.16666666666666</ele><time>2026-04-12T12:43:20Z</time></trkpt><trkpt lat="45.847272687488854" lon="10.140528371223331"><ele>201.33333333333331</ele><time>2026-04-12T12:43:21Z</time></trkpt><trkpt lat="45.84731599596331" lon="10.14038853545242"><ele>201.5</ele><time>2026-04-12T12:43:23Z</time></trkpt><trkpt lat="45.84727142897962" lon="10.140301186363455"><ele>201.66666666666666</ele><time>2026-04-12T12:43:25Z</time></trkpt><trkpt lat="45.84724410063455" lon="10.1403930485938"><ele>201.83333333333331</ele><time>2026-04-12T12:43:28Z</time></trkpt><trkpt lat="45.847162490499215" lon="10.14043859076119"><ele>202.0</ele><time>2026-04-12T12:43:29Z</time></trkpt><trkpt lat="45.84707323325877" lon="10.140425068563294"><ele>201.99999999999997</ele><time>2026-04-12T12:43:30Z</time></trkpt><trkpt lat="45.84702474915673" lon="10.140494674664819"><ele>202.0</ele><time>2026-04-12T12:43:31Z</time></trkpt><trkpt lat="45.84696529529461" lon="10.140580025883063"><ele>202.0</ele><time>2026-04-12T12:43:32Z</time></trkpt><trkpt lat="45.84690941456534" lon="10.140654588671534"><ele>202.0</ele><time>2026-04-12T12:43:33Z</time></trkpt><trkpt lat="45.846845896312665" lon="10.140734537907818"><ele>201.99999999999997</ele><time>2026-04-12T12:43:34Z</time></trkpt><trkpt lat="45.84677653587314" lon="10.140749349524851"><ele>202.0</ele><time>2026-04-12T12:43:36Z</time></trkpt><trkpt lat="45.846754842987565" lon="10.140639139468279"><ele>201.6</ele><time>2026-04-12T12:43:39Z</time></trkpt><trkpt lat="45.846686131796524" lon="10.140493230421123"><ele>201.2</ele><time>2026-04-12T12:43:41Z</time></trkpt><trkpt lat="45.84666679401733" lon="10.140371211494708"><ele>200.8</ele><time>2026-04-12T12:43:42Z</time></trkpt><trkpt lat="45.846617246597006" lon="10.140286800161116"><ele>200.4</ele><time>2026-04-12T12:43:43Z</time></trkpt><trkpt lat="45.846539318079465" lon="10.140169042020894"><ele>200.0</ele><time>2026-04-12T12:43:45Z</time></trkpt><trkpt lat="45.84648651493116" lon="10.140089249145545"><ele>200.0</ele><time>2026-04-12T12:43:47Z</time></trkpt><trkpt lat="45.846239908412436" lon="10.14010039424355"><ele>200.0</ele><time>2026-04-12T12:44:01Z</time></trkpt><trkpt lat="45.84623142811922" lon="10.14022366079327"><ele>200.0</ele><time>2026-04-12T12:44:06Z</time></trkpt><trkpt lat="45.84631813989637" lon="10.14027947968162"><ele>200.0</ele><time>2026-04-12T12:44:07.997Z</time></trkpt><trkpt lat="45.84637100518477" lon="10.14034467338853"><ele>200.00000000000003</ele><time>2026-04-12T12:44:09.998Z</time></trkpt><trkpt lat="45.84640946088883" lon="10.140420411431727"><ele>200.0</ele><time>2026-04-12T12:44:11.998Z</time></trkpt><trkpt lat="45.84646690463275" lon="10.140530640273628"><ele>200.0</ele><time>2026-04-12T12:44:14.998Z</time></trkpt><trkpt lat="45.846555022499274" lon="10.14066839101719"><ele>200.0</ele><time>2026-04-12T12:44:16.998Z</time></trkpt><trkpt lat="45.84660062462482" lon="10.140758375362203"><ele>200.00000000000003</ele><time>2026-04-12T12:44:17.998Z</time></trkpt><trkpt lat="45.84663859935739" lon="10.140847749637913"><ele>200.0</ele><time>2026-04-12T12:44:18.998Z</time></trkpt><trkpt lat="45.8466713030495" lon="10.140928792143068"><ele>199.83333333333334</ele><time>2026-04-12T12:44:19.998Z</time></trkpt><trkpt lat="45.84670069288584" lon="10.141010430124087"><ele>199.66666666666669</ele><time>2026-04-12T12:44:20.998Z</time></trkpt><trkpt lat="45.846756052857124" lon="10.14116009512042"><ele>199.5</ele><time>2026-04-12T12:44:22.998Z</time></trkpt><trkpt lat="45.84678197376169" lon="10.141254988180881"><ele>199.33333333333331</ele><time>2026-04-12T12:44:42.999Z</time></trkpt><trkpt lat="45.846881705636946" lon="10.141235826153636"><ele>199.16666666666666</ele><time>2026-04-12T12:44:44.999Z</time></trkpt><trkpt lat="45.84694730182069" lon="10.141160703121535"><ele>199.0</ele><time>2026-04-12T12:45:19.999Z</time></trkpt><trkpt lat="45.84703058317236" lon="10.141016862197475"><ele>199.39999999999998</ele><time>2026-04-12T12:45:22Z</time></trkpt><trkpt lat="45.847085204260274" lon="10.140934581878351"><ele>199.8</ele><time>2026-04-12T12:45:23Z</time></trkpt><trkpt lat="45.847145032688346" lon="10.140836059190066"><ele>200.2</ele><time>2026-04-12T12:45:24Z</time></trkpt><trkpt lat="45.8472006383908" lon="10.140726122612733"><ele>200.60000000000002</ele><time>2026-04-12T12:45:25Z</time></trkpt><trkpt lat="45.84726143284369" lon="10.14061120904662"><ele>201.0</ele><time>2026-04-12T12:45:26Z</time></trkpt><trkpt lat="45.847323205042315" lon="10.140488516063892"><ele>201.25</ele><time>2026-04-12T12:45:27Z</time></trkpt><trkpt lat="45.847390358001796" lon="10.140359048999828"><ele>201.5</ele><time>2026-04-12T12:45:28Z</time></trkpt><trkpt lat="45.847458192197564" lon="10.140221299772286"><ele>201.75</ele><time>2026-04-12T12:45:29Z</time></trkpt><trkpt lat="45.84752416701213" lon="10.140082311457181"><ele>202.0</ele><time>2026-04-12T12:45:30Z</time></trkpt><trkpt lat="45.847591244824855" lon="10.139938570787654"><ele>201.5</ele><time>2026-04-12T12:45:31Z</time></trkpt><trkpt lat="45.84765886516567" lon="10.139791570108699"><ele>201.0</ele><time>2026-04-12T12:45:32Z</time></trkpt><trkpt lat="45.847729886287624" lon="10.139639986366664"><ele>200.5</ele><time>2026-04-12T12:45:33Z</time></trkpt><trkpt lat="45.847802918306" lon="10.139486003814394"><ele>200.0</ele><time>2026-04-12T12:45:34Z</time></trkpt><trkpt lat="45.847877658652976" lon="10.13933575759614"><ele>200.0</ele><time>2026-04-12T12:45:35Z</time></trkpt><trkpt lat="45.84795916441376" lon="10.139179291480703"><ele>200.0</ele><time>2026-04-12T12:45:36Z</time></trkpt><trkpt lat="45.84803666748507" lon="10.139023082918815"><ele>200.0</ele><time>2026-04-12T12:45:37Z</time></trkpt><trkpt lat="45.84811280579399" lon="10.13886642779899"><ele>200.0</ele><time>2026-04-12T12:45:38Z</time></trkpt><trkpt lat="45.84818625665713" lon="10.138709567143065"><ele>199.5</ele><time>2026-04-12T12:45:39Z</time></trkpt><trkpt lat="45.84826147877175" lon="10.138549863679813"><ele>199.0</ele><time>2026-04-12T12:45:40Z</time></trkpt><trkpt lat="45.84834009594595" lon="10.138394806030785"><ele>198.5</ele><time>2026-04-12T12:45:41Z</time></trkpt><trkpt lat="45.848417471883955" lon="10.138248912728741"><ele>198.0</ele><time>2026-04-12T12:45:42Z</time></trkpt><trkpt lat="45.848490344825414" lon="10.138098889826614"><ele>197.75</ele><time>2026-04-12T12:45:43Z</time></trkpt><trkpt lat="45.84854317987143" lon="10.137939526892485"><ele>197.5</ele><time>2026-04-12T12:45:44Z</time></trkpt><trkpt lat="45.84858498752443" lon="10.137779590930819"><ele>197.25</ele><time>2026-04-12T12:45:45Z</time></trkpt><trkpt lat="45.8486191010242" lon="10.137619157000207"><ele>197.0</ele><time>2026-04-12T12:45:46Z</time></trkpt><trkpt lat="45.84861420938193" lon="10.137456238055151"><ele>197.0</ele><time>2026-04-12T12:45:47Z</time></trkpt><trkpt lat="45.84858298637597" lon="10.13729542039711"><ele>197.0</ele><time>2026-04-12T12:45:48Z</time></trkpt><trkpt lat="45.84852190079625" lon="10.137150893677058"><ele>197.0</ele><time>2026-04-12T12:45:49Z</time></trkpt><trkpt lat="45.84844791458791" lon="10.137031160547892"><ele>197.0</ele><time>2026-04-12T12:45:50Z</time></trkpt><trkpt lat="45.84835045329664" lon="10.136936555248937"><ele>197.0</ele><time>2026-04-12T12:45:51Z</time></trkpt><trkpt lat="45.8482423132033" lon="10.13687442737101"><ele>197.0</ele><time>2026-04-12T12:45:52Z</time></trkpt><trkpt lat="45.848126844630585" lon="10.136850848341538"><ele>197.0</ele><time>2026-04-12T12:45:53Z</time></trkpt><trkpt lat="45.8480119991487" lon="10.136880093737346"><ele>197.0</ele><time>2026-04-12T12:45:54Z</time></trkpt><trkpt lat="45.84790005742084" lon="10.136918007306535"><ele>197.0</ele><time>2026-04-12T12:45:55Z</time></trkpt><trkpt lat="45.84780034920886" lon="10.136978670615013"><ele>197.0</ele><time>2026-04-12T12:45:56Z</time></trkpt><trkpt lat="45.84769762015855" lon="10.137048968521706"><ele>197.0</ele><time>2026-04-12T12:45:57Z</time></trkpt><trkpt lat="45.84759230595189" lon="10.137121149576544"><ele>197.0</ele><time>2026-04-12T12:45:58Z</time></trkpt><trkpt lat="45.84748258668193" lon="10.137183554362302"><ele>197.0</ele><time>2026-04-12T12:45:59Z</time></trkpt><trkpt lat="45.84736981066835" lon="10.137230001313034"><ele>197.0</ele><time>2026-04-12T12:46:00Z</time></trkpt><trkpt lat="45.84725008821" lon="10.137255569620162"><ele>197.0</ele><time>2026-04-12T12:46:01Z</time></trkpt><trkpt lat="45.84713463531378" lon="10.137258933935755"><ele>197.0</ele><time>2026-04-12T12:46:02Z</time></trkpt><trkpt lat="45.84702144950206" lon="10.137240195369687"><ele>197.0</ele><time>2026-04-12T12:46:03Z</time></trkpt><trkpt lat="45.84691037137337" lon="10.137209837962942"><ele>197.0</ele><time>2026-04-12T12:46:04Z</time></trkpt><trkpt lat="45.84680829979966" lon="10.137151942847133"><ele>197.0</ele><time>2026-04-12T12:46:05Z</time></trkpt><trkpt lat="45.84670899252729" lon="10.137073018991282"><ele>197.0</ele><time>2026-04-12T12:46:06Z</time></trkpt><trkpt lat="45.84659501659521" lon="10.137030241162677"><ele>198.0</ele><time>2026-04-12T12:46:07Z</time></trkpt><trkpt lat="45.84650111868846" lon="10.136903219469795"><ele>199.0</ele><time>2026-04-12T12:46:08Z</time></trkpt><trkpt lat="45.84639331666532" lon="10.136809961288359"><ele>200.0</ele><time>2026-04-12T12:46:09Z</time></trkpt><trkpt lat="45.846281697082034" lon="10.136717117589694"><ele>201.0</ele><time>2026-04-12T12:46:10Z</time></trkpt><trkpt lat="45.84617323707092" lon="10.136620656098987"><ele>200.75</ele><time>2026-04-12T12:46:11Z</time></trkpt><trkpt lat="45.84606172740781" lon="10.13651994476594"><ele>200.5</ele><time>2026-04-12T12:46:12Z</time></trkpt><trkpt lat="45.845945990326456" lon="10.136424515393662"><ele>200.25</ele><time>2026-04-12T12:46:12.999Z</time></trkpt><trkpt lat="45.84582757122053" lon="10.13633762396102"><ele>200.0</ele><time>2026-04-12T12:46:13.999Z</time></trkpt><trkpt lat="45.845707726682825" lon="10.136240030905373"><ele>200.0</ele><time>2026-04-12T12:46:14.999Z</time></trkpt><trkpt lat="45.84558646324344" lon="10.136139402460422"><ele>200.0</ele><time>2026-04-12T12:46:15.999Z</time></trkpt><trkpt lat="45.84546248228687" lon="10.136031532634535"><ele>200.0</ele><time>2026-04-12T12:46:16.999Z</time></trkpt><trkpt lat="45.84533630931759" lon="10.13592442475604"><ele>200.0</ele><time>2026-04-12T12:46:17.999Z</time></trkpt><trkpt lat="45.84521384251158" lon="10.135806185795621"><ele>199.25</ele><time>2026-04-12T12:46:18.999Z</time></trkpt><trkpt lat="45.84508313488345" lon="10.135693868095048"><ele>198.5</ele><time>2026-04-12T12:46:19.999Z</time></trkpt><trkpt lat="45.84495120222132" lon="10.135581075212407"><ele>197.75</ele><time>2026-04-12T12:46:20.999Z</time></trkpt><trkpt lat="45.84482721588012" lon="10.135480056962807"><ele>197.0</ele><time>2026-04-12T12:46:21.999Z</time></trkpt><trkpt lat="45.844715597601365" lon="10.135379228091509"><ele>197.0</ele><time>2026-04-12T12:46:22.999Z</time></trkpt><trkpt lat="45.84460993632699" lon="10.135286318530438"><ele>197.0</ele><time>2026-04-12T12:46:23.999Z</time></trkpt><trkpt lat="45.844507081424176" lon="10.135182697361106"><ele>197.0</ele><time>2026-04-12T12:46:24.999Z</time></trkpt><trkpt lat="45.84439951942993" lon="10.13509416073567"><ele>197.0</ele><time>2026-04-12T12:46:25.999Z</time></trkpt><trkpt lat="45.8442934163432" lon="10.135002785921447"><ele>196.75</ele><time>2026-04-12T12:46:26.999Z</time></trkpt><trkpt lat="45.84419805773604" lon="10.134916446395101"><ele>196.5</ele><time>2026-04-12T12:46:27.999Z</time></trkpt><trkpt lat="45.84410165211664" lon="10.134833322349124"><ele>196.25</ele><time>2026-04-12T12:46:28.999Z</time></trkpt><trkpt lat="45.84400580542063" lon="10.134742942073082"><ele>196.0</ele><time>2026-04-12T12:46:29.999Z</time></trkpt><trkpt lat="45.84390218960901" lon="10.13465100887255"><ele>196.0</ele><time>2026-04-12T12:46:30.999Z</time></trkpt><trkpt lat="45.843795215028564" lon="10.134553971942873"><ele>196.0</ele><time>2026-04-12T12:46:31.999Z</time></trkpt><trkpt lat="45.84368097730927" lon="10.13444885411078"><ele>196.0</ele><time>2026-04-12T12:46:32.999Z</time></trkpt><trkpt lat="45.84356387130667" lon="10.134337368283058"><ele>196.0</ele><time>2026-04-12T12:46:33.999Z</time></trkpt><trkpt lat="45.84344017968671" lon="10.13422346754713"><ele>196.0</ele><time>2026-04-12T12:46:34.999Z</time></trkpt><trkpt lat="45.843310386804255" lon="10.134106127886303"><ele>196.0</ele><time>2026-04-12T12:46:35.999Z</time></trkpt><trkpt lat="45.84317191730588" lon="10.133985271646926"><ele>196.0</ele><time>2026-04-12T12:46:36.999Z</time></trkpt><trkpt lat="45.84301331470992" lon="10.133850570790113"><ele>195.66666666666666</ele><time>2026-04-12T12:46:37.999Z</time></trkpt><trkpt lat="45.84284918301285" lon="10.133714675013987"><ele>195.33333333333331</ele><time>2026-04-12T12:46:38.999Z</time></trkpt><trkpt lat="45.84267163567198" lon="10.133561976882469"><ele>195.0</ele><time>2026-04-12T12:46:39.999Z</time></trkpt><trkpt lat="45.84247804394478" lon="10.133396640839214"><ele>196.5</ele><time>2026-04-12T12:46:41Z</time></trkpt><trkpt lat="45.84226699350285" lon="10.133212180742033"><ele>198.0</ele><time>2026-04-12T12:46:42Z</time></trkpt><trkpt lat="45.842043101169786" lon="10.13302554875368"><ele>198.0</ele><time>2026-04-12T12:46:43Z</time></trkpt><trkpt lat="45.841833256787176" lon="10.132817449216752"><ele>198.0</ele><time>2026-04-12T12:46:44Z</time></trkpt><trkpt lat="45.84161186597644" lon="10.132619953384252"><ele>198.0</ele><time>2026-04-12T12:46:45Z</time></trkpt><trkpt lat="45.84138643897988" lon="10.132429260121112"><ele>198.0</ele><time>2026-04-12T12:46:46Z</time></trkpt><trkpt lat="45.84117685816938" lon="10.132204882748047"><ele>197.5</ele><time>2026-04-12T12:46:47Z</time></trkpt><trkpt lat="45.84097434659469" lon="10.131966016239762"><ele>197.0</ele><time>2026-04-12T12:46:48Z</time></trkpt><trkpt lat="45.84078424273891" lon="10.131712891413478"><ele>197.0</ele><time>2026-04-12T12:46:49Z</time></trkpt><trkpt lat="45.84060763534809" lon="10.131446108003164"><ele>197.0</ele><time>2026-04-12T12:46:50Z</time></trkpt><trkpt lat="45.84044292672691" lon="10.131168622676334"><ele>197.0</ele><time>2026-04-12T12:46:51Z</time></trkpt><trkpt lat="45.840284471695455" lon="10.130884755211826"><ele>197.0</ele><time>2026-04-12T12:46:52Z</time></trkpt><trkpt lat="45.840137689906484" lon="10.130594999665878"><ele>197.0</ele><time>2026-04-12T12:46:53Z</time></trkpt><trkpt lat="45.83999552707446" lon="10.130302349635098"><ele>197.0</ele><time>2026-04-12T12:46:54Z</time></trkpt><trkpt lat="45.83985663066177" lon="10.130008321812694"><ele>197.0</ele><time>2026-04-12T12:46:55Z</time></trkpt><trkpt lat="45.83971461770778" lon="10.129717638991572"><ele>197.0</ele><time>2026-04-12T12:46:56Z</time></trkpt><trkpt lat="45.839571071428715" lon="10.12942974812884"><ele>197.0</ele><time>2026-04-12T12:46:57Z</time></trkpt><trkpt lat="45.83942982004638" lon="10.129142160783816"><ele>197.0</ele><time>2026-04-12T12:46:58Z</time></trkpt><trkpt lat="45.839281878304426" lon="10.12884753643931"><ele>196.5</ele><time>2026-04-12T12:46:59Z</time></trkpt><trkpt lat="45.839138767966624" lon="10.128564698561298"><ele>196.0</ele><time>2026-04-12T12:47:00Z</time></trkpt><trkpt lat="45.83900374739311" lon="10.128284185892689"><ele>195.5</ele><time>2026-04-12T12:47:01Z</time></trkpt><trkpt lat="45.838863988161165" lon="10.127997137993338"><ele>195.0</ele><time>2026-04-12T12:47:02Z</time></trkpt><trkpt lat="45.83872447187679" lon="10.127710494306676"><ele>195.0</ele><time>2026-04-12T12:47:03Z</time></trkpt><trkpt lat="45.83858359607893" lon="10.127420193397924"><ele>195.0</ele><time>2026-04-12T12:47:04Z</time></trkpt><trkpt lat="45.83844686718311" lon="10.127130832023617"><ele>195.0</ele><time>2026-04-12T12:47:05Z</time></trkpt><trkpt lat="45.83831165424428" lon="10.126841191048118"><ele>195.0</ele><time>2026-04-12T12:47:06Z</time></trkpt><trkpt lat="45.83818628493991" lon="10.126544480445935"><ele>194.0</ele><time>2026-04-12T12:47:07Z</time></trkpt><trkpt lat="45.83806690773473" lon="10.126240654500892"><ele>193.0</ele><time>2026-04-12T12:47:08Z</time></trkpt><trkpt lat="45.837950559629085" lon="10.125931637394364"><ele>193.0</ele><time>2026-04-12T12:47:09Z</time></trkpt><trkpt lat="45.83783745497825" lon="10.125613367656234"><ele>193.0</ele><time>2026-04-12T12:47:10Z</time></trkpt><trkpt lat="45.83773260997135" lon="10.125280258922622"><ele>193.0</ele><time>2026-04-12T12:47:11Z</time></trkpt><trkpt lat="45.837635781779206" lon="10.124943154715558"><ele>193.0</ele><time>2026-04-12T12:47:12Z</time></trkpt><trkpt lat="45.837540735766446" lon="10.124600311311132"><ele>193.5</ele><time>2026-04-12T12:47:13Z</time></trkpt><trkpt lat="45.83745074670903" lon="10.124253185779594"><ele>194.0</ele><time>2026-04-12T12:47:14Z</time></trkpt><trkpt lat="45.83736462990155" lon="10.123897678767724"><ele>194.0</ele><time>2026-04-12T12:47:15Z</time></trkpt><trkpt lat="45.83728036221824" lon="10.123540648455227"><ele>194.0</ele><time>2026-04-12T12:47:16Z</time></trkpt><trkpt lat="45.837202295649426" lon="10.123177523708678"><ele>193.0</ele><time>2026-04-12T12:47:17Z</time></trkpt><trkpt lat="45.83712091914979" lon="10.12280227106968"><ele>192.0</ele><time>2026-04-12T12:47:18Z</time></trkpt><trkpt lat="45.83704072817213" lon="10.122412888502605"><ele>193.5</ele><time>2026-04-12T12:47:19Z</time></trkpt><trkpt lat="45.83695903158374" lon="10.122023866328941"><ele>195.0</ele><time>2026-04-12T12:47:20Z</time></trkpt><trkpt lat="45.8368748617302" lon="10.121637679403769"><ele>193.5</ele><time>2026-04-12T12:47:21Z</time></trkpt><trkpt lat="45.83679167255823" lon="10.121259650766751"><ele>192.0</ele><time>2026-04-12T12:47:22Z</time></trkpt><trkpt lat="45.83671412437685" lon="10.120889678583378"><ele>192.5</ele><time>2026-04-12T12:47:23Z</time></trkpt><trkpt lat="45.836637914564264" lon="10.120530623842601"><ele>193.0</ele><time>2026-04-12T12:47:24Z</time></trkpt><trkpt lat="45.836560378228334" lon="10.120176257989955"><ele>193.0</ele><time>2026-04-12T12:47:25Z</time></trkpt><trkpt lat="45.836487155383026" lon="10.119832705186532"><ele>193.0</ele><time>2026-04-12T12:47:26Z</time></trkpt><trkpt lat="45.836417211732766" lon="10.119495237575657"><ele>193.0</ele><time>2026-04-12T12:47:27Z</time></trkpt><trkpt lat="45.83634517569438" lon="10.119165830212927"><ele>193.0</ele><time>2026-04-12T12:47:28Z</time></trkpt><trkpt lat="45.83627464143194" lon="10.1188459093192"><ele>193.0</ele><time>2026-04-12T12:47:29Z</time></trkpt><trkpt lat="45.83620621020103" lon="10.118527167010368"><ele>193.0</ele><time>2026-04-12T12:47:30Z</time></trkpt><trkpt lat="45.83614330691855" lon="10.118215096369179"><ele>192.66666666666666</ele><time>2026-04-12T12:47:31Z</time></trkpt><trkpt lat="45.836084477998156" lon="10.1179165339834"><ele>192.33333333333331</ele><time>2026-04-12T12:47:32Z</time></trkpt><trkpt lat="45.836038653784506" lon="10.117626811663838"><ele>192.0</ele><time>2026-04-12T12:47:33Z</time></trkpt><trkpt lat="45.83600163198386" lon="10.11734795821517"><ele>192.0</ele><time>2026-04-12T12:47:34Z</time></trkpt><trkpt lat="45.83597185065685" lon="10.11707292403935"><ele>192.0</ele><time>2026-04-12T12:47:35Z</time></trkpt><trkpt lat="45.83595772755817" lon="10.116793768067707"><ele>192.0</ele><time>2026-04-12T12:47:36Z</time></trkpt><trkpt lat="45.83595190568071" lon="10.116514239088222"><ele>192.0</ele><time>2026-04-12T12:47:37Z</time></trkpt><trkpt lat="45.83595112910794" lon="10.116243895316865"><ele>192.0</ele><time>2026-04-12T12:47:38Z</time></trkpt><trkpt lat="45.835958662782886" lon="10.115975465146274"><ele>192.0</ele><time>2026-04-12T12:47:39Z</time></trkpt><trkpt lat="45.83597219275518" lon="10.115709596650587"><ele>192.0</ele><time>2026-04-12T12:47:40Z</time></trkpt><trkpt lat="45.83599423376905" lon="10.115451314136035"><ele>192.0</ele><time>2026-04-12T12:47:41Z</time></trkpt><trkpt lat="45.836021119455246" lon="10.115206352261506"><ele>192.0</ele><time>2026-04-12T12:47:42Z</time></trkpt><trkpt lat="45.836051301134084" lon="10.114979756665903"><ele>192.0</ele><time>2026-04-12T12:47:43Z</time></trkpt><trkpt lat="45.83608835659989" lon="10.114763305547317"><ele>192.0</ele><time>2026-04-12T12:47:44Z</time></trkpt><trkpt lat="45.83612757468355" lon="10.11455754325334"><ele>192.0</ele><time>2026-04-12T12:47:45Z</time></trkpt><trkpt lat="45.836167591818594" lon="10.114357227100937"><ele>192.0</ele><time>2026-04-12T12:47:46Z</time></trkpt><trkpt lat="45.83621228727847" lon="10.11416184312648"><ele>191.75</ele><time>2026-04-12T12:47:47Z</time></trkpt><trkpt lat="45.83626134654816" lon="10.11397166509483"><ele>191.5</ele><time>2026-04-12T12:47:48Z</time></trkpt><trkpt lat="45.83631464283013" lon="10.113787001611842"><ele>191.25</ele><time>2026-04-12T12:47:49Z</time></trkpt><trkpt lat="45.83637408399577" lon="10.113607888818931"><ele>191.0</ele><time>2026-04-12T12:47:50Z</time></trkpt><trkpt lat="45.83643467574114" lon="10.113430778494033"><ele>191.0</ele><time>2026-04-12T12:47:51Z</time></trkpt><trkpt lat="45.83649810684947" lon="10.113256771511212"><ele>191.0</ele><time>2026-04-12T12:47:52Z</time></trkpt><trkpt lat="45.83656058743209" lon="10.113090552624408"><ele>191.0</ele><time>2026-04-12T12:47:53Z</time></trkpt><trkpt lat="45.836625715493476" lon="10.112935744515182"><ele>191.0</ele><time>2026-04-12T12:47:54Z</time></trkpt><trkpt lat="45.83668830725224" lon="10.112778577177977"><ele>191.0</ele><time>2026-04-12T12:47:55Z</time></trkpt><trkpt lat="45.83675006243786" lon="10.112610167387079"><ele>191.0</ele><time>2026-04-12T12:47:56Z</time></trkpt><trkpt lat="45.83681420368134" lon="10.112435903892873"><ele>191.0</ele><time>2026-04-12T12:47:57Z</time></trkpt><trkpt lat="45.836885191962295" lon="10.11224680789454"><ele>191.0</ele><time>2026-04-12T12:47:58Z</time></trkpt><trkpt lat="45.83695562865902" lon="10.112057131018641"><ele>190.66666666666666</ele><time>2026-04-12T12:47:59Z</time></trkpt><trkpt lat="45.83702874752865" lon="10.11186681966015"><ele>190.33333333333334</ele><time>2026-04-12T12:48:00Z</time></trkpt><trkpt lat="45.83710081124322" lon="10.111674602816844"><ele>190.0</ele><time>2026-04-12T12:48:01Z</time></trkpt><trkpt lat="45.837171957720926" lon="10.111481529204106"><ele>191.0</ele><time>2026-04-12T12:48:02Z</time></trkpt><trkpt lat="45.837245549337204" lon="10.111289556223054"><ele>192.0</ele><time>2026-04-12T12:48:03Z</time></trkpt><trkpt lat="45.837321342321054" lon="10.11109397228558"><ele>193.0</ele><time>2026-04-12T12:48:04Z</time></trkpt><trkpt lat="45.83739393371264" lon="10.11089441139432"><ele>193.0</ele><time>2026-04-12T12:48:05Z</time></trkpt><trkpt lat="45.837467212652896" lon="10.11070499130749"><ele>193.0</ele><time>2026-04-12T12:48:06Z</time></trkpt><trkpt lat="45.83754047859045" lon="10.11052592676915"><ele>193.0</ele><time>2026-04-12T12:48:07Z</time></trkpt><trkpt lat="45.837610752962256" lon="10.110358854060195"><ele>193.0</ele><time>2026-04-12T12:48:08Z</time></trkpt><trkpt lat="45.83768131136474" lon="10.110208420608004"><ele>192.0</ele><time>2026-04-12T12:48:09Z</time></trkpt><trkpt lat="45.8377557137978" lon="10.110074584258662"><ele>191.0</ele><time>2026-04-12T12:48:10Z</time></trkpt><trkpt lat="45.83784440978454" lon="10.109959542533941"><ele>190.0</ele><time>2026-04-12T12:48:11Z</time></trkpt><trkpt lat="45.83794621814951" lon="10.109865014161953"><ele>189.0</ele><time>2026-04-12T12:48:12Z</time></trkpt><trkpt lat="45.83805926330048" lon="10.109796297971888"><ele>189.0</ele><time>2026-04-12T12:48:13Z</time></trkpt><trkpt lat="45.83817366253125" lon="10.109747292448825"><ele>189.0</ele><time>2026-04-12T12:48:14Z</time></trkpt><trkpt lat="45.83829855363839" lon="10.109719316017616"><ele>189.0</ele><time>2026-04-12T12:48:15Z</time></trkpt><trkpt lat="45.83842764661219" lon="10.109718000473688"><ele>189.0</ele><time>2026-04-12T12:48:16Z</time></trkpt><trkpt lat="45.83855548371661" lon="10.109705633879832"><ele>190.0</ele><time>2026-04-12T12:48:17Z</time></trkpt><trkpt lat="45.838686647013944" lon="10.109689494097774"><ele>191.0</ele><time>2026-04-12T12:48:18Z</time></trkpt><trkpt lat="45.838814589333225" lon="10.109653059639365"><ele>192.0</ele><time>2026-04-12T12:48:18.999Z</time></trkpt><trkpt lat="45.838927100988926" lon="10.109585990995045"><ele>193.0</ele><time>2026-04-12T12:48:19.999Z</time></trkpt><trkpt lat="45.8390260212363" lon="10.109494381044085"><ele>193.0</ele><time>2026-04-12T12:48:20.999Z</time></trkpt><trkpt lat="45.83910441159991" lon="10.109375252032363"><ele>193.0</ele><time>2026-04-12T12:48:21.999Z</time></trkpt><trkpt lat="45.83916380302292" lon="10.109231179878764"><ele>193.0</ele><time>2026-04-12T12:48:22.999Z</time></trkpt><trkpt lat="45.83920100711566" lon="10.109073337842917"><ele>193.0</ele><time>2026-04-12T12:48:23.999Z</time></trkpt><trkpt lat="45.839219652211" lon="10.108910753471958"><ele>193.25</ele><time>2026-04-12T12:48:24.999Z</time></trkpt><trkpt lat="45.83922769725455" lon="10.108741722716003"><ele>193.5</ele><time>2026-04-12T12:48:25.999Z</time></trkpt><trkpt lat="45.839239149521575" lon="10.108573415240691"><ele>193.75</ele><time>2026-04-12T12:48:26.999Z</time></trkpt><trkpt lat="45.83925164597358" lon="10.108402478124257"><ele>194.0</ele><time>2026-04-12T12:48:27.999Z</time></trkpt><trkpt lat="45.8392710032399" lon="10.108245688896885"><ele>194.00000000000003</ele><time>2026-04-12T12:48:28.999Z</time></trkpt><trkpt lat="45.83929255341903" lon="10.108092992306046"><ele>194.0</ele><time>2026-04-12T12:48:29.999Z</time></trkpt><trkpt lat="45.839318407392874" lon="10.107953595909681"><ele>194.0</ele><time>2026-04-12T12:48:30.999Z</time></trkpt><trkpt lat="45.839341352757955" lon="10.107831428054196"><ele>194.0</ele><time>2026-04-12T12:48:31.999Z</time></trkpt><trkpt lat="45.839367671553276" lon="10.107727606319907"><ele>194.00000000000003</ele><time>2026-04-12T12:48:32.999Z</time></trkpt><trkpt lat="45.839409980498985" lon="10.107640488086227"><ele>194.0</ele><time>2026-04-12T12:48:33.999Z</time></trkpt><trkpt lat="45.839459853174986" lon="10.10757309942836"><ele>195.0</ele><time>2026-04-12T12:48:34.999Z</time></trkpt><trkpt lat="45.83951041838461" lon="10.107516412340445"><ele>196.0</ele><time>2026-04-12T12:48:35.999Z</time></trkpt><trkpt lat="45.83956271115392" lon="10.107464453116993"><ele>197.0</ele><time>2026-04-12T12:48:36.999Z</time></trkpt><trkpt lat="45.83961650266082" lon="10.107408004114859"><ele>198.0</ele><time>2026-04-12T12:48:37.999Z</time></trkpt><trkpt lat="45.83964197950246" lon="10.107321738312873"><ele>199.0</ele><time>2026-04-12T12:48:38.999Z</time></trkpt><trkpt lat="45.83963605973308" lon="10.107226158967173"><ele>200.0</ele><time>2026-04-12T12:48:39.999Z</time></trkpt><trkpt lat="45.83960358739926" lon="10.107125073580823"><ele>201.0</ele><time>2026-04-12T12:48:40.999Z</time></trkpt><trkpt lat="45.83953949877339" lon="10.107026717630415"><ele>201.4</ele><time>2026-04-12T12:48:41.999Z</time></trkpt><trkpt lat="45.83945287868396" lon="10.106941414882966"><ele>201.8</ele><time>2026-04-12T12:48:42.999Z</time></trkpt><trkpt lat="45.83935384792206" lon="10.106862790940216"><ele>202.20000000000002</ele><time>2026-04-12T12:48:43.999Z</time></trkpt><trkpt lat="45.83925093342268" lon="10.106799369698841"><ele>202.60000000000002</ele><time>2026-04-12T12:48:44.999Z</time></trkpt><trkpt lat="45.83915410363455" lon="10.106726151471427"><ele>203.0</ele><time>2026-04-12T12:48:46Z</time></trkpt><trkpt lat="45.83905652661735" lon="10.106668238875603"><ele>203.0</ele><time>2026-04-12T12:48:47Z</time></trkpt><trkpt lat="45.83895978537227" lon="10.106612284511888"><ele>203.0</ele><time>2026-04-12T12:48:48Z</time></trkpt><trkpt lat="45.83886469683156" lon="10.106561719917337"><ele>203.0</ele><time>2026-04-12T12:48:49Z</time></trkpt><trkpt lat="45.838773682830336" lon="10.106510499389026"><ele>203.0</ele><time>2026-04-12T12:48:50Z</time></trkpt><trkpt lat="45.8386953431299" lon="10.106476078347328"><ele>203.0</ele><time>2026-04-12T12:48:51Z</time></trkpt><trkpt lat="45.838621311558015" lon="10.106444715617862"><ele>203.50000000000003</ele><time>2026-04-12T12:48:52Z</time></trkpt><trkpt lat="45.83854532018629" lon="10.106416156189582"><ele>204.0</ele><time>2026-04-12T12:48:53Z</time></trkpt><trkpt lat="45.838468001099635" lon="10.106387932784138"><ele>204.5</ele><time>2026-04-12T12:48:54Z</time></trkpt><trkpt lat="45.838386181507964" lon="10.106352265472824"><ele>205.0</ele><time>2026-04-12T12:48:55Z</time></trkpt><trkpt lat="45.83830471457471" lon="10.106314151768663"><ele>205.50000000000003</ele><time>2026-04-12T12:48:56Z</time></trkpt><trkpt lat="45.83821999260544" lon="10.106267470870915"><ele>206.0</ele><time>2026-04-12T12:48:57Z</time></trkpt><trkpt lat="45.83813279010637" lon="10.106224479160044"><ele>206.0</ele><time>2026-04-12T12:48:58Z</time></trkpt><trkpt lat="45.83804334468247" lon="10.10616829371509"><ele>206.0</ele><time>2026-04-12T12:48:59Z</time></trkpt><trkpt lat="45.83795042112147" lon="10.106110358387523"><ele>206.0</ele><time>2026-04-12T12:49:00Z</time></trkpt><trkpt lat="45.837859658539905" lon="10.106035967716355"><ele>206.0</ele><time>2026-04-12T12:49:01Z</time></trkpt><trkpt lat="45.83776045935388" lon="10.105953963072135"><ele>206.0</ele><time>2026-04-12T12:49:02Z</time></trkpt><trkpt lat="45.837653592229074" lon="10.105862229614917"><ele>203.75</ele><time>2026-04-12T12:49:03Z</time></trkpt><trkpt lat="45.83753362449116" lon="10.105759652458977"><ele>201.5</ele><time>2026-04-12T12:49:04Z</time></trkpt><trkpt lat="45.837412114240344" lon="10.105652549216115"><ele>199.25</ele><time>2026-04-12T12:49:05Z</time></trkpt><trkpt lat="45.83728862286594" lon="10.10554319431813"><ele>197.0</ele><time>2026-04-12T12:49:06Z</time></trkpt><trkpt lat="45.837161962918856" lon="10.105427435317523"><ele>197.0</ele><time>2026-04-12T12:49:07Z</time></trkpt><trkpt lat="45.83704868351801" lon="10.105298746786767"><ele>197.0</ele><time>2026-04-12T12:49:08Z</time></trkpt><trkpt lat="45.8369286183111" lon="10.105176948123985"><ele>197.0</ele><time>2026-04-12T12:49:09Z</time></trkpt><trkpt lat="45.836805329351265" lon="10.10505911423979"><ele>197.0</ele><time>2026-04-12T12:49:10Z</time></trkpt><trkpt lat="45.83668801290156" lon="10.104942394045421"><ele>197.75</ele><time>2026-04-12T12:49:11Z</time></trkpt><trkpt lat="45.83657201567425" lon="10.104822125567482"><ele>198.5</ele><time>2026-04-12T12:49:12Z</time></trkpt><trkpt lat="45.83646121315354" lon="10.10469498398945"><ele>199.25</ele><time>2026-04-12T12:49:13Z</time></trkpt><trkpt lat="45.83635262410318" lon="10.104561117802835"><ele>200.0</ele><time>2026-04-12T12:49:14Z</time></trkpt><trkpt lat="45.836249002478546" lon="10.104425258743916"><ele>200.0</ele><time>2026-04-12T12:49:15Z</time></trkpt><trkpt lat="45.836144716424165" lon="10.104287371868221"><ele>200.0</ele><time>2026-04-12T12:49:16Z</time></trkpt><trkpt lat="45.83604520981848" lon="10.104146737743319"><ele>200.0</ele><time>2026-04-12T12:49:17Z</time></trkpt><trkpt lat="45.83594844290084" lon="10.104002568012769"><ele>200.0</ele><time>2026-04-12T12:49:18Z</time></trkpt><trkpt lat="45.83584919726342" lon="10.103858505618973"><ele>198.5</ele><time>2026-04-12T12:49:19Z</time></trkpt><trkpt lat="45.83574742000295" lon="10.103717954046617"><ele>197.0</ele><time>2026-04-12T12:49:20Z</time></trkpt><trkpt lat="45.83564882365061" lon="10.10357560279786"><ele>195.5</ele><time>2026-04-12T12:49:21Z</time></trkpt><trkpt lat="45.83554802752172" lon="10.103437766695071"><ele>194.0</ele><time>2026-04-12T12:49:22Z</time></trkpt><trkpt lat="45.83545447100647" lon="10.103305035190562"><ele>193.79999999999998</ele><time>2026-04-12T12:49:23Z</time></trkpt><trkpt lat="45.83537276625573" lon="10.103188805355032"><ele>193.6</ele><time>2026-04-12T12:49:24Z</time></trkpt><trkpt lat="45.835298963058776" lon="10.103081558518419"><ele>193.4</ele><time>2026-04-12T12:49:25Z</time></trkpt><trkpt lat="45.835215366441304" lon="10.102996001867618"><ele>193.2</ele><time>2026-04-12T12:49:26Z</time></trkpt><trkpt lat="45.83514580271218" lon="10.102912988793978"><ele>193.0</ele><time>2026-04-12T12:49:27Z</time></trkpt><trkpt lat="45.83508205243199" lon="10.102826831899304"><ele>193.00000000000003</ele><time>2026-04-12T12:49:28Z</time></trkpt><trkpt lat="45.83502865303943" lon="10.102734904790115"><ele>193.0</ele><time>2026-04-12T12:49:29Z</time></trkpt><trkpt lat="45.83497920350437" lon="10.102648508132377"><ele>193.0</ele><time>2026-04-12T12:49:30Z</time></trkpt><trkpt lat="45.83491351591756" lon="10.102603162399005"><ele>193.0</ele><time>2026-04-12T12:49:31Z</time></trkpt><trkpt lat="45.8348481248781" lon="10.102587929735478"><ele>193.0</ele><time>2026-04-12T12:49:32Z</time></trkpt><trkpt lat="45.83477743039776" lon="10.102593909628833"><ele>193.00000000000003</ele><time>2026-04-12T12:49:33Z</time></trkpt><trkpt lat="45.83470160176353" lon="10.10258234844456"><ele>193.0</ele><time>2026-04-12T12:49:34Z</time></trkpt><trkpt lat="45.83462429167158" lon="10.102544119912457"><ele>193.0</ele><time>2026-04-12T12:49:35Z</time></trkpt><trkpt lat="45.83455177227494" lon="10.10248661504686"><ele>193.0</ele><time>2026-04-12T12:49:36Z</time></trkpt><trkpt lat="45.83447081985864" lon="10.102424705490664"><ele>193.0</ele><time>2026-04-12T12:49:37Z</time></trkpt><trkpt lat="45.83438494306589" lon="10.102358107884552"><ele>193.0</ele><time>2026-04-12T12:49:38Z</time></trkpt><trkpt lat="45.834287939003325" lon="10.102291244114578"><ele>193.0</ele><time>2026-04-12T12:49:39Z</time></trkpt><trkpt lat="45.834181312062064" lon="10.102207609217048"><ele>193.75</ele><time>2026-04-12T12:49:40Z</time></trkpt><trkpt lat="45.83405820478115" lon="10.102121101769427"><ele>194.5</ele><time>2026-04-12T12:49:41Z</time></trkpt><trkpt lat="45.83393527497852" lon="10.10202927273806"><ele>195.25</ele><time>2026-04-12T12:49:42Z</time></trkpt><trkpt lat="45.8338061988972" lon="10.101940069818099"><ele>196.0</ele><time>2026-04-12T12:49:43Z</time></trkpt><trkpt lat="45.83367722833348" lon="10.101844807396255"><ele>196.0</ele><time>2026-04-12T12:49:44Z</time></trkpt><trkpt lat="45.83354547089562" lon="10.101750565662693"><ele>196.0</ele><time>2026-04-12T12:49:45Z</time></trkpt><trkpt lat="45.83340957158165" lon="10.101653367394409"><ele>196.0</ele><time>2026-04-12T12:49:46Z</time></trkpt><trkpt lat="45.83326910772294" lon="10.101553053078687"><ele>195.33333333333331</ele><time>2026-04-12T12:49:47Z</time></trkpt><trkpt lat="45.8331293457927" lon="10.101450317922144"><ele>194.66666666666669</ele><time>2026-04-12T12:49:48Z</time></trkpt><trkpt lat="45.83298531286938" lon="10.101344482245075"><ele>194.0</ele><time>2026-04-12T12:49:49Z</time></trkpt><trkpt lat="45.83284169135079" lon="10.101256077660898"><ele>194.0</ele><time>2026-04-12T12:49:50Z</time></trkpt><trkpt lat="45.83269112659567" lon="10.101199193222088"><ele>194.0</ele><time>2026-04-12T12:49:51Z</time></trkpt><trkpt lat="45.83253446641335" lon="10.101169016841771"><ele>194.0</ele><time>2026-04-12T12:49:52Z</time></trkpt><trkpt lat="45.83236841857269" lon="10.10117262871424"><ele>194.33333333333334</ele><time>2026-04-12T12:49:53Z</time></trkpt><trkpt lat="45.83221382724902" lon="10.101212975723513"><ele>194.66666666666669</ele><time>2026-04-12T12:49:54Z</time></trkpt><trkpt lat="45.83206169160352" lon="10.101285663108785"><ele>195.0</ele><time>2026-04-12T12:49:55Z</time></trkpt><trkpt lat="45.831921498662595" lon="10.10137776588999"><ele>195.25</ele><time>2026-04-12T12:49:56Z</time></trkpt><trkpt lat="45.831785622542824" lon="10.101480515334918"><ele>195.5</ele><time>2026-04-12T12:49:57Z</time></trkpt><trkpt lat="45.83165722622755" lon="10.101582840355077"><ele>195.75</ele><time>2026-04-12T12:49:58Z</time></trkpt><trkpt lat="45.83153255148796" lon="10.101678255301799"><ele>196.0</ele><time>2026-04-12T12:49:59Z</time></trkpt><trkpt lat="45.83141785345005" lon="10.101766464358946"><ele>196.0</ele><time>2026-04-12T12:50:00Z</time></trkpt><trkpt lat="45.83130974222405" lon="10.101846957880177"><ele>196.0</ele><time>2026-04-12T12:50:01Z</time></trkpt><trkpt lat="45.83120379054123" lon="10.101927369470841"><ele>196.0</ele><time>2026-04-12T12:50:02.001Z</time></trkpt><trkpt lat="45.83109497862242" lon="10.10200749787837"><ele>196.0</ele><time>2026-04-12T12:50:03.001Z</time></trkpt><trkpt lat="45.83098951154069" lon="10.102087956508656"><ele>195.8</ele><time>2026-04-12T12:50:04.001Z</time></trkpt><trkpt lat="45.830895031765365" lon="10.102163173879948"><ele>195.60000000000002</ele><time>2026-04-12T12:50:05.001Z</time></trkpt><trkpt lat="45.83079177891128" lon="10.102245023176264"><ele>195.4</ele><time>2026-04-12T12:50:06.001Z</time></trkpt><trkpt lat="45.83069084249215" lon="10.10231518022917"><ele>195.2</ele><time>2026-04-12T12:50:07.001Z</time></trkpt><trkpt lat="45.83059783017759" lon="10.102387543505412"><ele>195.0</ele><time>2026-04-12T12:50:08.001Z</time></trkpt><trkpt lat="45.83050951175372" lon="10.102456344363155"><ele>195.0</ele><time>2026-04-12T12:50:09.001Z</time></trkpt><trkpt lat="45.83042092314686" lon="10.1025198704603"><ele>195.0</ele><time>2026-04-12T12:50:10.001Z</time></trkpt><trkpt lat="45.83033938015775" lon="10.102586452259658"><ele>195.0</ele><time>2026-04-12T12:50:11.001Z</time></trkpt><trkpt lat="45.83027352294249" lon="10.102639684788134"><ele>195.0</ele><time>2026-04-12T12:50:12.001Z</time></trkpt><trkpt lat="45.83020261688558" lon="10.102689937336216"><ele>195.0</ele><time>2026-04-12T12:50:13.001Z</time></trkpt><trkpt lat="45.83012645245771" lon="10.102729667416414"><ele>195.0</ele><time>2026-04-12T12:50:14.001Z</time></trkpt><trkpt lat="45.83006095281498" lon="10.10276659766088"><ele>195.0</ele><time>2026-04-12T12:50:15.001Z</time></trkpt><trkpt lat="45.830001280660284" lon="10.102798315736258"><ele>195.0</ele><time>2026-04-12T12:50:16.001Z</time></trkpt><trkpt lat="45.82993460325997" lon="10.10280765488109"><ele>195.0</ele><time>2026-04-12T12:50:17.001Z</time></trkpt><trkpt lat="45.82984812019052" lon="10.102838563589088"><ele>195.0</ele><time>2026-04-12T12:50:19.001Z</time></trkpt><trkpt lat="45.82978586749813" lon="10.102863529750746"><ele>195.0</ele><time>2026-04-12T12:50:21.001Z</time></trkpt><trkpt lat="45.82969818131093" lon="10.102897682431857"><ele>195.0</ele><time>2026-04-12T12:50:24.999Z</time></trkpt><trkpt lat="45.829628190482815" lon="10.102920444624347"><ele>195.0</ele><time>2026-04-12T12:50:30.999Z</time></trkpt><trkpt lat="45.82955802111843" lon="10.102914646744738"><ele>195.0</ele><time>2026-04-12T12:50:33.999Z</time></trkpt><trkpt lat="45.8294614218708" lon="10.102877645577676"><ele>195.0</ele><time>2026-04-12T12:50:35.999Z</time></trkpt><trkpt lat="45.829393736639496" lon="10.102857100917005"><ele>195.0</ele><time>2026-04-12T12:50:36.999Z</time></trkpt><trkpt lat="45.829325477237745" lon="10.102850022238025"><ele>195.0</ele><time>2026-04-12T12:50:37.999Z</time></trkpt><trkpt lat="45.82924836857209" lon="10.102840111617422"><ele>195.0</ele><time>2026-04-12T12:50:38.999Z</time></trkpt><trkpt lat="45.829171009688785" lon="10.102790327715503"><ele>195.0</ele><time>2026-04-12T12:50:40Z</time></trkpt><trkpt lat="45.82908389302424" lon="10.102729207784886"><ele>195.2</ele><time>2026-04-12T12:50:41Z</time></trkpt><trkpt lat="45.82899142964322" lon="10.102661651204835"><ele>195.4</ele><time>2026-04-12T12:50:42Z</time></trkpt><trkpt lat="45.82889572166115" lon="10.102605483532997"><ele>195.60000000000002</ele><time>2026-04-12T12:50:43Z</time></trkpt><trkpt lat="45.828795027153205" lon="10.102556922041632"><ele>195.8</ele><time>2026-04-12T12:50:44Z</time></trkpt><trkpt lat="45.82869074856347" lon="10.102503013283988"><ele>196.0</ele><time>2026-04-12T12:50:45Z</time></trkpt><trkpt lat="45.82858648873474" lon="10.102446015428779"><ele>196.20000000000002</ele><time>2026-04-12T12:50:46Z</time></trkpt><trkpt lat="45.82848665894678" lon="10.1023800198201"><ele>196.4</ele><time>2026-04-12T12:50:47Z</time></trkpt><trkpt lat="45.82838975165673" lon="10.102301862435368"><ele>196.6</ele><time>2026-04-12T12:50:48Z</time></trkpt><trkpt lat="45.82829772665344" lon="10.102205916258402"><ele>196.8</ele><time>2026-04-12T12:50:49Z</time></trkpt><trkpt lat="45.828206499719315" lon="10.102106297036169"><ele>197.0</ele><time>2026-04-12T12:50:50Z</time></trkpt><trkpt lat="45.82812054168287" lon="10.101998348964651"><ele>197.0</ele><time>2026-04-12T12:50:51Z</time></trkpt><trkpt lat="45.82804537662334" lon="10.101881062061755"><ele>197.0</ele><time>2026-04-12T12:50:52Z</time></trkpt><trkpt lat="45.827976931677796" lon="10.101754772269382"><ele>197.0</ele><time>2026-04-12T12:50:53Z</time></trkpt><trkpt lat="45.82791860747303" lon="10.101615531767477"><ele>197.0</ele><time>2026-04-12T12:50:54Z</time></trkpt><trkpt lat="45.82786789221319" lon="10.101480708053264"><ele>197.0</ele><time>2026-04-12T12:50:55Z</time></trkpt><trkpt lat="45.82782148936149" lon="10.101354162072585"><ele>197.00000000000003</ele><time>2026-04-12T12:50:56Z</time></trkpt><trkpt lat="45.827759023860345" lon="10.101230746075451"><ele>197.0</ele><time>2026-04-12T12:50:57Z</time></trkpt><trkpt lat="45.82771023864784" lon="10.101103053963604"><ele>197.0</ele><time>2026-04-12T12:50:58Z</time></trkpt><trkpt lat="45.827664015594245" lon="10.100981470540285"><ele>197.0</ele><time>2026-04-12T12:50:59Z</time></trkpt><trkpt lat="45.827622557313866" lon="10.100885022603027"><ele>197.00000000000003</ele><time>2026-04-12T12:51:00Z</time></trkpt><trkpt lat="45.827588013840426" lon="10.100807304632808"><ele>197.0</ele><time>2026-04-12T12:51:01Z</time></trkpt><trkpt lat="45.82755822869814" lon="10.100720681530007"><ele>196.85714285714286</ele><time>2026-04-12T12:51:02Z</time></trkpt><trkpt lat="45.82752778211945" lon="10.100638393214009"><ele>196.71428571428572</ele><time>2026-04-12T12:51:03Z</time></trkpt><trkpt lat="45.827499640415446" lon="10.100557437664095"><ele>196.57142857142856</ele><time>2026-04-12T12:51:04Z</time></trkpt><trkpt lat="45.8274762291542" lon="10.100473513862829"><ele>196.42857142857144</ele><time>2026-04-12T12:51:05Z</time></trkpt><trkpt lat="45.8274504464424" lon="10.100382217625553"><ele>196.28571428571428</ele><time>2026-04-12T12:51:06Z</time></trkpt><trkpt lat="45.827422349566376" lon="10.100287427858719"><ele>196.14285714285714</ele><time>2026-04-12T12:51:07Z</time></trkpt><trkpt lat="45.82738830377305" lon="10.100193630104298"><ele>196.0</ele><time>2026-04-12T12:51:08Z</time></trkpt><trkpt lat="45.827349038727945" lon="10.100112419509507"><ele>196.0</ele><time>2026-04-12T12:51:09Z</time></trkpt><trkpt lat="45.82728160911811" lon="10.099969773833987"><ele>196.0</ele><time>2026-04-12T12:51:11Z</time></trkpt><trkpt lat="45.82725017181166" lon="10.099884433306318"><ele>196.0</ele><time>2026-04-12T12:51:12Z</time></trkpt><trkpt lat="45.827190975142216" lon="10.099727893928298"><ele>196.0</ele><time>2026-04-12T12:51:14Z</time></trkpt><trkpt lat="45.82719587431853" lon="10.099555636607649"><ele>196.0</ele><time>2026-04-12T12:51:16Z</time></trkpt><trkpt lat="45.8272914176595" lon="10.099450544765343"><ele>196.33333333333331</ele><time>2026-04-12T12:51:18Z</time></trkpt><trkpt lat="45.82735433177886" lon="10.099409109230773"><ele>196.66666666666666</ele><time>2026-04-12T12:51:19Z</time></trkpt><trkpt lat="45.82741950909442" lon="10.09935259442775"><ele>197.0</ele><time>2026-04-12T12:51:20Z</time></trkpt><trkpt lat="45.827502494711894" lon="10.099292442740381"><ele>197.33333333333331</ele><time>2026-04-12T12:51:21Z</time></trkpt><trkpt lat="45.827590791832655" lon="10.099216824972578"><ele>197.66666666666666</ele><time>2026-04-12T12:51:22Z</time></trkpt><trkpt lat="45.82767989871386" lon="10.09913266146913"><ele>198.0</ele><time>2026-04-12T12:51:23Z</time></trkpt><trkpt lat="45.82776982027225" lon="10.0990611756988"><ele>199.2</ele><time>2026-04-12T12:51:24Z</time></trkpt><trkpt lat="45.82786059346445" lon="10.09898553243101"><ele>200.4</ele><time>2026-04-12T12:51:25Z</time></trkpt><trkpt lat="45.82795647682381" lon="10.09890820068468"><ele>201.6</ele><time>2026-04-12T12:51:26Z</time></trkpt><trkpt lat="45.828047604591234" lon="10.098824790189006"><ele>202.79999999999998</ele><time>2026-04-12T12:51:27Z</time></trkpt><trkpt lat="45.828142012245216" lon="10.098739666345478"><ele>204.0</ele><time>2026-04-12T12:51:28Z</time></trkpt><trkpt lat="45.82825010816778" lon="10.09865457617522"><ele>204.0</ele><time>2026-04-12T12:51:29Z</time></trkpt><trkpt lat="45.828351898158715" lon="10.098567727335304"><ele>204.0</ele><time>2026-04-12T12:51:30Z</time></trkpt><trkpt lat="45.828455139648426" lon="10.098479428859148"><ele>204.0</ele><time>2026-04-12T12:51:31Z</time></trkpt><trkpt lat="45.828567190562914" lon="10.098388270958019"><ele>204.0</ele><time>2026-04-12T12:51:32Z</time></trkpt><trkpt lat="45.828677897737116" lon="10.098292297396123"><ele>206.25</ele><time>2026-04-12T12:51:33Z</time></trkpt><trkpt lat="45.82879580498759" lon="10.098207308378917"><ele>208.5</ele><time>2026-04-12T12:51:34.001Z</time></trkpt><trkpt lat="45.82890705233008" lon="10.098118165473222"><ele>210.75</ele><time>2026-04-12T12:51:35.001Z</time></trkpt><trkpt lat="45.82901851686237" lon="10.098025025390056"><ele>213.0</ele><time>2026-04-12T12:51:36.001Z</time></trkpt><trkpt lat="45.829132235606316" lon="10.097930115828792"><ele>213.0</ele><time>2026-04-12T12:51:37.001Z</time></trkpt><trkpt lat="45.82924651745125" lon="10.09783432105226"><ele>213.0</ele><time>2026-04-12T12:51:38.001Z</time></trkpt><trkpt lat="45.82935142108373" lon="10.09775196158285"><ele>213.0</ele><time>2026-04-12T12:51:39.001Z</time></trkpt><trkpt lat="45.82945267376872" lon="10.097668011556113"><ele>213.0</ele><time>2026-04-12T12:51:40.001Z</time></trkpt><trkpt lat="45.82954176925555" lon="10.097585454587477"><ele>213.5</ele><time>2026-04-12T12:51:41.001Z</time></trkpt><trkpt lat="45.82961522917575" lon="10.097503557596994"><ele>214.0</ele><time>2026-04-12T12:51:42.001Z</time></trkpt><trkpt lat="45.8296774859952" lon="10.097417451092285"><ele>214.5</ele><time>2026-04-12T12:51:43.001Z</time></trkpt><trkpt lat="45.82972687341271" lon="10.097338678427969"><ele>215.0</ele><time>2026-04-12T12:51:44.001Z</time></trkpt><trkpt lat="45.82976916348578" lon="10.097253263927144"><ele>215.5</ele><time>2026-04-12T12:51:45.001Z</time></trkpt><trkpt lat="45.82981450327244" lon="10.097156998435185"><ele>216.0</ele><time>2026-04-12T12:51:46.001Z</time></trkpt><trkpt lat="45.82985950736322" lon="10.097029950296838"><ele>217.0</ele><time>2026-04-12T12:51:47.001Z</time></trkpt><trkpt lat="45.82990380927899" lon="10.096854039889177"><ele>218.0</ele><time>2026-04-12T12:51:48.001Z</time></trkpt><trkpt lat="45.829951059350364" lon="10.096679644441139"><ele>219.0</ele><time>2026-04-12T12:51:49.001Z</time></trkpt><trkpt lat="45.83000077752504" lon="10.096521779373042"><ele>220.0</ele><time>2026-04-12T12:51:50.001Z</time></trkpt><trkpt lat="45.83004215806463" lon="10.09636920796297"><ele>220.99999999999997</ele><time>2026-04-12T12:51:51.001Z</time></trkpt><trkpt lat="45.830088157898615" lon="10.096230749331117"><ele>222.0</ele><time>2026-04-12T12:51:52.001Z</time></trkpt><trkpt lat="45.830129751931736" lon="10.096123815654993"><ele>223.0</ele><time>2026-04-12T12:51:53.001Z</time></trkpt><trkpt lat="45.83016327426933" lon="10.096034660495828"><ele>224.0</ele><time>2026-04-12T12:51:54.001Z</time></trkpt><trkpt lat="45.83019617016164" lon="10.095913480147026"><ele>224.99999999999997</ele><time>2026-04-12T12:51:56.001Z</time></trkpt><trkpt lat="45.830217888500286" lon="10.095790951249583"><ele>226.0</ele><time>2026-04-12T12:51:58.001Z</time></trkpt><trkpt lat="45.83022786038231" lon="10.09568784709297"><ele>227.99999999999997</ele><time>2026-04-12T12:52:00.001Z</time></trkpt><trkpt lat="45.830234285431914" lon="10.095555808467825"><ele>230.0</ele><time>2026-04-12T12:52:02.001Z</time></trkpt><trkpt lat="45.83023930236624" lon="10.095432395149123"><ele>232.0</ele><time>2026-04-12T12:52:04.001Z</time></trkpt><trkpt lat="45.830252631392746" lon="10.095319924823722"><ele>234.0</ele><time>2026-04-12T12:52:06.001Z</time></trkpt><trkpt lat="45.83022750425935" lon="10.095219773769424"><ele>235.99999999999997</ele><time>2026-04-12T12:52:08.001Z</time></trkpt><trkpt lat="45.830219680567" lon="10.095113792000856"><ele>238.0</ele><time>2026-04-12T12:52:10.001Z</time></trkpt><trkpt lat="45.83021031065502" lon="10.095013522313609"><ele>238.99999999999997</ele><time>2026-04-12T12:52:12.001Z</time></trkpt><trkpt lat="45.83020440319572" lon="10.09491335515272"><ele>240.0</ele><time>2026-04-12T12:52:14.001Z</time></trkpt><trkpt lat="45.83022769079023" lon="10.09481162199326"><ele>241.0</ele><time>2026-04-12T12:52:16.001Z</time></trkpt><trkpt lat="45.83016470787404" lon="10.094673946287912"><ele>242.0</ele><time>2026-04-12T12:52:19.001Z</time></trkpt><trkpt lat="45.83010954291591" lon="10.09461539806642"><ele>242.99999999999997</ele><time>2026-04-12T12:52:20.001Z</time></trkpt><trkpt lat="45.83004947553714" lon="10.094567082421337"><ele>244.0</ele><time>2026-04-12T12:52:21.001Z</time></trkpt><trkpt lat="45.83002487105555" lon="10.094465618224149"><ele>244.49999999999997</ele><time>2026-04-12T12:52:22.001Z</time></trkpt><trkpt lat="45.82994981691149" lon="10.094411777961714"><ele>245.0</ele><time>2026-04-12T12:52:23.001Z</time></trkpt><trkpt lat="45.82989709586175" lon="10.094360112468635"><ele>245.5</ele><time>2026-04-12T12:52:24.001Z</time></trkpt><trkpt lat="45.82983160845181" lon="10.094293635462348"><ele>246.0</ele><time>2026-04-12T12:52:25.001Z</time></trkpt><trkpt lat="45.829764893529656" lon="10.094230942157429"><ele>246.49999999999997</ele><time>2026-04-12T12:52:26.001Z</time></trkpt><trkpt lat="45.829692745540314" lon="10.094155748377345"><ele>247.0</ele><time>2026-04-12T12:52:27.001Z</time></trkpt><trkpt lat="45.82961956664746" lon="10.094114472039834"><ele>247.33333333333331</ele><time>2026-04-12T12:52:28.001Z</time></trkpt><trkpt lat="45.8295489711095" lon="10.094059235407624"><ele>247.66666666666666</ele><time>2026-04-12T12:52:29.001Z</time></trkpt><trkpt lat="45.829482771597" lon="10.093998477146693"><ele>248.0</ele><time>2026-04-12T12:52:30.001Z</time></trkpt><trkpt lat="45.82941793948028" lon="10.093934610831614"><ele>248.33333333333331</ele><time>2026-04-12T12:52:31Z</time></trkpt><trkpt lat="45.82934278365823" lon="10.093860312709653"><ele>248.66666666666666</ele><time>2026-04-12T12:52:32Z</time></trkpt><trkpt lat="45.82926499517707" lon="10.093781301120227"><ele>249.0</ele><time>2026-04-12T12:52:33Z</time></trkpt><trkpt lat="45.829182776050615" lon="10.093705347769076"><ele>249.0</ele><time>2026-04-12T12:52:34Z</time></trkpt><trkpt lat="45.82910628371102" lon="10.093605928301335"><ele>248.99999999999997</ele><time>2026-04-12T12:52:35Z</time></trkpt><trkpt lat="45.82901611819" lon="10.09353585120316"><ele>248.99999999999997</ele><time>2026-04-12T12:52:36Z</time></trkpt><trkpt lat="45.82893138869832" lon="10.09345664631269"><ele>249.0</ele><time>2026-04-12T12:52:37Z</time></trkpt><trkpt lat="45.82884537012062" lon="10.093379126960366"><ele>249.0</ele><time>2026-04-12T12:52:38Z</time></trkpt><trkpt lat="45.828758809349075" lon="10.093349754734891"><ele>249.0</ele><time>2026-04-12T12:52:39Z</time></trkpt><trkpt lat="45.82868872177167" lon="10.093321992135015"><ele>249.0</ele><time>2026-04-12T12:52:40Z</time></trkpt><trkpt lat="45.82861073138221" lon="10.093278103143328"><ele>249.0</ele><time>2026-04-12T12:52:42Z</time></trkpt><trkpt lat="45.828552093678645" lon="10.093229103122741"><ele>249.0</ele><time>2026-04-12T12:52:44Z</time></trkpt><trkpt lat="45.8284679151932" lon="10.093174484576327"><ele>249.0</ele><time>2026-04-12T12:52:46Z</time></trkpt><trkpt lat="45.82838624522269" lon="10.093120897659382"><ele>249.0</ele><time>2026-04-12T12:52:48Z</time></trkpt><trkpt lat="45.82831573912659" lon="10.093049228369235"><ele>249.0</ele><time>2026-04-12T12:52:50Z</time></trkpt><trkpt lat="45.8282642343076" lon="10.092987266695042"><ele>249.0</ele><time>2026-04-12T12:52:52Z</time></trkpt><trkpt lat="45.8282003589168" lon="10.092870330336927"><ele>249.0</ele><time>2026-04-12T12:52:54Z</time></trkpt><trkpt lat="45.82815321371711" lon="10.092804027137811"><ele>249.0</ele><time>2026-04-12T12:52:55Z</time></trkpt><trkpt lat="45.82809943443787" lon="10.092728376086653"><ele>249.0</ele><time>2026-04-12T12:52:56Z</time></trkpt><trkpt lat="45.82802776826629" lon="10.09265613087359"><ele>249.0</ele><time>2026-04-12T12:52:57Z</time></trkpt><trkpt lat="45.82797256666487" lon="10.092562585622957"><ele>249.0</ele><time>2026-04-12T12:52:58Z</time></trkpt><trkpt lat="45.82792895081497" lon="10.092442051773086"><ele>248.99999999999997</ele><time>2026-04-12T12:52:59Z</time></trkpt><trkpt lat="45.82787338332517" lon="10.092337361616757"><ele>248.99999999999997</ele><time>2026-04-12T12:53:00Z</time></trkpt><trkpt lat="45.827809535492314" lon="10.092257692013717"><ele>249.0</ele><time>2026-04-12T12:53:01Z</time></trkpt><trkpt lat="45.827762649530364" lon="10.092175027254054"><ele>249.0</ele><time>2026-04-12T12:53:02Z</time></trkpt><trkpt lat="45.82769114534518" lon="10.092040809963796"><ele>249.0</ele><time>2026-04-12T12:53:04Z</time></trkpt><trkpt lat="45.827609444746365" lon="10.091900673590564"><ele>248.99999999999997</ele><time>2026-04-12T12:53:07Z</time></trkpt><trkpt lat="45.82756304450196" lon="10.091824101986989"><ele>248.99999999999997</ele><time>2026-04-12T12:53:10Z</time></trkpt><trkpt lat="45.82752786726917" lon="10.0917405588136"><ele>249.0</ele><time>2026-04-12T12:53:13Z</time></trkpt><trkpt lat="45.827492267825" lon="10.091580035260018"><ele>249.0</ele><time>2026-04-12T12:53:16Z</time></trkpt><trkpt lat="45.82749161653303" lon="10.09146427336107"><ele>249.0</ele><time>2026-04-12T12:53:17Z</time></trkpt><trkpt lat="45.82748280818345" lon="10.091349341077425"><ele>248.99999999999997</ele><time>2026-04-12T12:53:18Z</time></trkpt><trkpt lat="45.827468875781" lon="10.09121826490867"><ele>248.99999999999997</ele><time>2026-04-12T12:53:19Z</time></trkpt><trkpt lat="45.82746622560301" lon="10.091085209770169"><ele>249.0</ele><time>2026-04-12T12:53:20Z</time></trkpt><trkpt lat="45.827461215655255" lon="10.09093635890712"><ele>249.0</ele><time>2026-04-12T12:53:21Z</time></trkpt><trkpt lat="45.827451109480684" lon="10.090779122036702"><ele>251.2</ele><time>2026-04-12T12:53:22Z</time></trkpt><trkpt lat="45.82743215604827" lon="10.09062607131672"><ele>253.39999999999998</ele><time>2026-04-12T12:53:23Z</time></trkpt><trkpt lat="45.82740432913644" lon="10.090483291582117"><ele>255.6</ele><time>2026-04-12T12:53:24Z</time></trkpt><trkpt lat="45.82738228016364" lon="10.090315508281268"><ele>257.8</ele><time>2026-04-12T12:53:25Z</time></trkpt><trkpt lat="45.82732615670438" lon="10.09018067111528"><ele>260.0</ele><time>2026-04-12T12:53:26.001Z</time></trkpt><trkpt lat="45.82728755158323" lon="10.090044498094107"><ele>264.5</ele><time>2026-04-12T12:53:27.001Z</time></trkpt><trkpt lat="45.827240669906644" lon="10.089904200303721"><ele>269.0</ele><time>2026-04-12T12:53:28.001Z</time></trkpt><trkpt lat="45.82719193794231" lon="10.089762892786881"><ele>273.5</ele><time>2026-04-12T12:53:29.001Z</time></trkpt><trkpt lat="45.82713435329283" lon="10.089606921321742"><ele>278.0</ele><time>2026-04-12T12:53:30.001Z</time></trkpt><trkpt lat="45.8270737609806" lon="10.089447509261964"><ele>278.0</ele><time>2026-04-12T12:53:31.001Z</time></trkpt><trkpt lat="45.82700754607605" lon="10.089280430013243"><ele>278.0</ele><time>2026-04-12T12:53:32.001Z</time></trkpt><trkpt lat="45.826947291065956" lon="10.089114496362205"><ele>278.0</ele><time>2026-04-12T12:53:33.001Z</time></trkpt><trkpt lat="45.82688615868509" lon="10.088954169676978"><ele>278.0</ele><time>2026-04-12T12:53:34.001Z</time></trkpt><trkpt lat="45.82682886379074" lon="10.08879735005955"><ele>278.0</ele><time>2026-04-12T12:53:35.001Z</time></trkpt><trkpt lat="45.826772293751894" lon="10.08864291024613"><ele>278.0</ele><time>2026-04-12T12:53:36.001Z</time></trkpt><trkpt lat="45.82671459318871" lon="10.088488813492676"><ele>278.0</ele><time>2026-04-12T12:53:37.001Z</time></trkpt><trkpt lat="45.82666166329761" lon="10.088338168129988"><ele>278.0</ele><time>2026-04-12T12:53:38.001Z</time></trkpt><trkpt lat="45.826612998226345" lon="10.088191728650589"><ele>278.0</ele><time>2026-04-12T12:53:39.001Z</time></trkpt><trkpt lat="45.826563100672125" lon="10.088055258478292"><ele>278.0</ele><time>2026-04-12T12:53:40.001Z</time></trkpt><trkpt lat="45.82651585169859" lon="10.087922117459001"><ele>278.0</ele><time>2026-04-12T12:53:41.001Z</time></trkpt><trkpt lat="45.826471862090465" lon="10.087799407617435"><ele>278.0</ele><time>2026-04-12T12:53:42.001Z</time></trkpt><trkpt lat="45.82642722833687" lon="10.087678243051391"><ele>278.0</ele><time>2026-04-12T12:53:43.001Z</time></trkpt><trkpt lat="45.82639651363813" lon="10.087568344761419"><ele>278.0</ele><time>2026-04-12T12:53:44.001Z</time></trkpt><trkpt lat="45.82637682630882" lon="10.087460195808884"><ele>278.0</ele><time>2026-04-12T12:53:45.001Z</time></trkpt><trkpt lat="45.82637966945204" lon="10.087344414125818"><ele>278.0</ele><time>2026-04-12T12:53:46.001Z</time></trkpt><trkpt lat="45.82638864901572" lon="10.087235429761176"><ele>278.0</ele><time>2026-04-12T12:53:47.001Z</time></trkpt><trkpt lat="45.82641911634687" lon="10.087130699325137"><ele>278.0</ele><time>2026-04-12T12:53:48.001Z</time></trkpt><trkpt lat="45.82646392713907" lon="10.08703274689723"><ele>278.0</ele><time>2026-04-12T12:53:49.001Z</time></trkpt><trkpt lat="45.82651198396432" lon="10.086940505929432"><ele>278.5</ele><time>2026-04-12T12:53:50.001Z</time></trkpt><trkpt lat="45.8265573072339" lon="10.086848726112555"><ele>279.0</ele><time>2026-04-12T12:53:51.001Z</time></trkpt><trkpt lat="45.82659671745275" lon="10.086755194387466"><ele>279.5</ele><time>2026-04-12T12:53:52.001Z</time></trkpt><trkpt lat="45.8266245611486" lon="10.086645244542531"><ele>280.0</ele><time>2026-04-12T12:53:53.001Z</time></trkpt><trkpt lat="45.82663268706569" lon="10.086526688572668"><ele>280.5</ele><time>2026-04-12T12:53:54.001Z</time></trkpt><trkpt lat="45.82663794839043" lon="10.086402868669804"><ele>281.0</ele><time>2026-04-12T12:53:55.001Z</time></trkpt><trkpt lat="45.82663412056076" lon="10.08629774237771"><ele>281.0</ele><time>2026-04-12T12:53:56.001Z</time></trkpt><trkpt lat="45.82663301102142" lon="10.086192871199065"><ele>281.0</ele><time>2026-04-12T12:53:58.001Z</time></trkpt><trkpt lat="45.826625862626514" lon="10.086296037780361"><ele>281.0</ele><time>2026-04-12T12:54:27.001Z</time></trkpt><trkpt lat="45.82663615123216" lon="10.086429411462419"><ele>281.0</ele><time>2026-04-12T12:54:29.001Z</time></trkpt><trkpt lat="45.826634573268436" lon="10.08652133053038"><ele>281.0</ele><time>2026-04-12T12:54:30.001Z</time></trkpt><trkpt lat="45.82659214117868" lon="10.086696972695629"><ele>281.0</ele><time>2026-04-12T12:54:31.001Z</time></trkpt><trkpt lat="45.82655572239641" lon="10.086796605187228"><ele>281.0</ele><time>2026-04-12T12:54:32.001Z</time></trkpt><trkpt lat="45.82650466068824" lon="10.086905329232453"><ele>281.0</ele><time>2026-04-12T12:54:33.001Z</time></trkpt><trkpt lat="45.826435546494245" lon="10.086992802358996"><ele>281.0</ele><time>2026-04-12T12:54:34.001Z</time></trkpt><trkpt lat="45.82638870153558" lon="10.087091709716246"><ele>281.0</ele><time>2026-04-12T12:54:35.001Z</time></trkpt><trkpt lat="45.826348959924054" lon="10.087206359571821"><ele>281.0</ele><time>2026-04-12T12:54:36.001Z</time></trkpt><trkpt lat="45.82633734943164" lon="10.087344636596889"><ele>280.40000000000003</ele><time>2026-04-12T12:54:37Z</time></trkpt><trkpt lat="45.82634807816131" lon="10.08749012221568"><ele>279.8</ele><time>2026-04-12T12:54:38Z</time></trkpt><trkpt lat="45.826375692683456" lon="10.087635548234386"><ele>279.20000000000005</ele><time>2026-04-12T12:54:39Z</time></trkpt><trkpt lat="45.82642799543082" lon="10.087774887861736"><ele>278.6</ele><time>2026-04-12T12:54:40Z</time></trkpt><trkpt lat="45.826479678656085" lon="10.087916054381205"><ele>278.0</ele><time>2026-04-12T12:54:41Z</time></trkpt><trkpt lat="45.826532510178716" lon="10.088060357298103"><ele>278.0</ele><time>2026-04-12T12:54:42Z</time></trkpt><trkpt lat="45.826586958593815" lon="10.08821127330917"><ele>278.0</ele><time>2026-04-12T12:54:43Z</time></trkpt><trkpt lat="45.826643153247716" lon="10.088364406401464"><ele>278.0</ele><time>2026-04-12T12:54:44Z</time></trkpt><trkpt lat="45.8267014334456" lon="10.088519750365837"><ele>278.0</ele><time>2026-04-12T12:54:45Z</time></trkpt><trkpt lat="45.826758662198216" lon="10.088676774867675"><ele>278.0</ele><time>2026-04-12T12:54:46Z</time></trkpt><trkpt lat="45.82683159204248" lon="10.088828960489305"><ele>278.0</ele><time>2026-04-12T12:54:47Z</time></trkpt><trkpt lat="45.826888594041996" lon="10.088995437440195"><ele>278.0</ele><time>2026-04-12T12:54:48Z</time></trkpt><trkpt lat="45.826947954079365" lon="10.089160664928288"><ele>278.0</ele><time>2026-04-12T12:54:49Z</time></trkpt><trkpt lat="45.82700884231685" lon="10.089311346861034"><ele>278.0</ele><time>2026-04-12T12:54:50Z</time></trkpt><trkpt lat="45.827064667550395" lon="10.089484804143185"><ele>278.0</ele><time>2026-04-12T12:54:51Z</time></trkpt><trkpt lat="45.827126049237634" lon="10.089654297260191"><ele>278.0</ele><time>2026-04-12T12:54:52Z</time></trkpt><trkpt lat="45.827191463329946" lon="10.089825131324003"><ele>278.0</ele><time>2026-04-12T12:54:53Z</time></trkpt><trkpt lat="45.827246142523514" lon="10.089988132238524"><ele>273.5</ele><time>2026-04-12T12:54:54Z</time></trkpt><trkpt lat="45.82729711673813" lon="10.090147986260204"><ele>269.0</ele><time>2026-04-12T12:54:55Z</time></trkpt><trkpt lat="45.827349429717195" lon="10.090305699190715"><ele>264.5</ele><time>2026-04-12T12:54:56Z</time></trkpt><trkpt lat="45.827391974694784" lon="10.090462466689482"><ele>260.0</ele><time>2026-04-12T12:54:57Z</time></trkpt><trkpt lat="45.82742096283769" lon="10.090618321445739"><ele>257.8</ele><time>2026-04-12T12:54:58Z</time></trkpt><trkpt lat="45.82741884276338" lon="10.090777642184397"><ele>255.6</ele><time>2026-04-12T12:54:59Z</time></trkpt><trkpt lat="45.827427978680575" lon="10.090925490424906"><ele>253.39999999999998</ele><time>2026-04-12T12:55:00Z</time></trkpt><trkpt lat="45.827434826397734" lon="10.091061588658233"><ele>251.2</ele><time>2026-04-12T12:55:01Z</time></trkpt><trkpt lat="45.82744067296035" lon="10.091177786042994"><ele>249.0</ele><time>2026-04-12T12:55:02Z</time></trkpt><trkpt lat="45.827443185154685" lon="10.091275483454732"><ele>249.0</ele><time>2026-04-12T12:55:03Z</time></trkpt><trkpt lat="45.82743923714822" lon="10.091426004831815"><ele>248.99999999999997</ele><time>2026-04-12T12:55:05Z</time></trkpt><trkpt lat="45.82734176461513" lon="10.091506211478322"><ele>248.99999999999997</ele><time>2026-04-12T12:55:07Z</time></trkpt><trkpt lat="45.82722600243039" lon="10.091421414380065"><ele>249.0</ele><time>2026-04-12T12:55:09Z</time></trkpt><trkpt lat="45.82716934471273" lon="10.091350114446053"><ele>249.0</ele><time>2026-04-12T12:55:10.001Z</time></trkpt><trkpt lat="45.82710373439224" lon="10.091257132968673"><ele>249.0</ele><time>2026-04-12T12:55:11.001Z</time></trkpt><trkpt lat="45.82703699494462" lon="10.091150853219695"><ele>249.0</ele><time>2026-04-12T12:55:12.001Z</time></trkpt><trkpt lat="45.82698011070152" lon="10.091009917028178"><ele>249.0</ele><time>2026-04-12T12:55:13.001Z</time></trkpt><trkpt lat="45.8269362588526" lon="10.090843730576076"><ele>249.0</ele><time>2026-04-12T12:55:14.001Z</time></trkpt><trkpt lat="45.82688568463797" lon="10.090683566685714"><ele>249.0</ele><time>2026-04-12T12:55:15.001Z</time></trkpt><trkpt lat="45.826833355407224" lon="10.090531875045277"><ele>249.0</ele><time>2026-04-12T12:55:16.001Z</time></trkpt><trkpt lat="45.82677650369046" lon="10.090364641209318"><ele>249.0</ele><time>2026-04-12T12:55:17.001Z</time></trkpt><trkpt lat="45.82671521805107" lon="10.090195523615101"><ele>249.0</ele><time>2026-04-12T12:55:18.001Z</time></trkpt><trkpt lat="45.82665146904423" lon="10.090023232239945"><ele>250.75</ele><time>2026-04-12T12:55:19.001Z</time></trkpt><trkpt lat="45.826580538831585" lon="10.089847806359545"><ele>252.5</ele><time>2026-04-12T12:55:20.001Z</time></trkpt><trkpt lat="45.826525894231565" lon="10.089657719633736"><ele>254.25</ele><time>2026-04-12T12:55:21.001Z</time></trkpt><trkpt lat="45.82645691193296" lon="10.089476235365408"><ele>256.0</ele><time>2026-04-12T12:55:22.001Z</time></trkpt><trkpt lat="45.82638592905106" lon="10.08929793651198"><ele>256.0</ele><time>2026-04-12T12:55:23.001Z</time></trkpt><trkpt lat="45.82631963857906" lon="10.08911765514968"><ele>256.0</ele><time>2026-04-12T12:55:24.001Z</time></trkpt><trkpt lat="45.82625396592726" lon="10.08894123415427"><ele>256.0</ele><time>2026-04-12T12:55:25.001Z</time></trkpt><trkpt lat="45.82619441358229" lon="10.088765460555509"><ele>256.0</ele><time>2026-04-12T12:55:26.001Z</time></trkpt><trkpt lat="45.82614441976548" lon="10.088592745455886"><ele>259.0</ele><time>2026-04-12T12:55:27.001Z</time></trkpt><trkpt lat="45.82610150389335" lon="10.08841909523201"><ele>262.0</ele><time>2026-04-12T12:55:28.001Z</time></trkpt><trkpt lat="45.82606909768562" lon="10.088243728314255"><ele>265.0</ele><time>2026-04-12T12:55:29.001Z</time></trkpt><trkpt lat="45.82603674291906" lon="10.08806778475092"><ele>268.0</ele><time>2026-04-12T12:55:30.001Z</time></trkpt><trkpt lat="45.82600328509095" lon="10.087892226543847"><ele>264.75</ele><time>2026-04-12T12:55:31.001Z</time></trkpt><trkpt lat="45.82595356527792" lon="10.0877287501149"><ele>261.5</ele><time>2026-04-12T12:55:32.001Z</time></trkpt><trkpt lat="45.82587861056993" lon="10.087590556313195"><ele>258.25</ele><time>2026-04-12T12:55:33.001Z</time></trkpt><trkpt lat="45.8257961071713" lon="10.087470321398696"><ele>255.0</ele><time>2026-04-12T12:55:34.001Z</time></trkpt><trkpt lat="45.82570091001788" lon="10.087335504812884"><ele>255.0</ele><time>2026-04-12T12:55:35.001Z</time></trkpt><trkpt lat="45.82562926991917" lon="10.087196218968764"><ele>255.0</ele><time>2026-04-12T12:55:36.001Z</time></trkpt><trkpt lat="45.82556882350742" lon="10.087040939478365"><ele>255.0</ele><time>2026-04-12T12:55:37.001Z</time></trkpt><trkpt lat="45.82549607147251" lon="10.086899195995105"><ele>255.0</ele><time>2026-04-12T12:55:38.001Z</time></trkpt><trkpt lat="45.82540711071285" lon="10.0867819789104"><ele>255.0</ele><time>2026-04-12T12:55:39.001Z</time></trkpt><trkpt lat="45.82531140802411" lon="10.086680686293793"><ele>255.0</ele><time>2026-04-12T12:55:40.001Z</time></trkpt><trkpt lat="45.82521486656202" lon="10.086579561698723"><ele>255.0</ele><time>2026-04-12T12:55:41.001Z</time></trkpt><trkpt lat="45.82512433636085" lon="10.086447348748045"><ele>255.0</ele><time>2026-04-12T12:55:42.001Z</time></trkpt><trkpt lat="45.82504489220201" lon="10.086302204901875"><ele>250.25</ele><time>2026-04-12T12:55:43.001Z</time></trkpt><trkpt lat="45.824960088858866" lon="10.086161253881771"><ele>245.5</ele><time>2026-04-12T12:55:44.001Z</time></trkpt><trkpt lat="45.82486283311573" lon="10.086042523482071"><ele>240.75</ele><time>2026-04-12T12:55:45.001Z</time></trkpt><trkpt lat="45.824756844650274" lon="10.085932232853926"><ele>236.0</ele><time>2026-04-12T12:55:46.001Z</time></trkpt><trkpt lat="45.82465203924569" lon="10.085822756699008"><ele>234.0</ele><time>2026-04-12T12:55:47.001Z</time></trkpt><trkpt lat="45.824555593903774" lon="10.085708386550023"><ele>232.00000000000003</ele><time>2026-04-12T12:55:48.001Z</time></trkpt><trkpt lat="45.824477951383514" lon="10.085594895225636"><ele>230.00000000000003</ele><time>2026-04-12T12:55:49.001Z</time></trkpt><trkpt lat="45.824427826611895" lon="10.085455783118862"><ele>228.0</ele><time>2026-04-12T12:55:50.001Z</time></trkpt><trkpt lat="45.82437112387248" lon="10.085330595240448"><ele>226.0</ele><time>2026-04-12T12:55:51.001Z</time></trkpt><trkpt lat="45.824309195002925" lon="10.085200761575372"><ele>226.0</ele><time>2026-04-12T12:55:52.001Z</time></trkpt><trkpt lat="45.824240270722875" lon="10.085073164434506"><ele>226.0</ele><time>2026-04-12T12:55:53.001Z</time></trkpt><trkpt lat="45.82416224133181" lon="10.084946078766933"><ele>226.0</ele><time>2026-04-12T12:55:54.001Z</time></trkpt><trkpt lat="45.82407265146829" lon="10.084833812448732"><ele>226.0</ele><time>2026-04-12T12:55:55.001Z</time></trkpt><trkpt lat="45.82396295888127" lon="10.08473596497928"><ele>229.75</ele><time>2026-04-12T12:55:56.001Z</time></trkpt><trkpt lat="45.82385403077399" lon="10.084647776325207"><ele>233.5</ele><time>2026-04-12T12:55:57.001Z</time></trkpt><trkpt lat="45.823744455344595" lon="10.084563688717243"><ele>237.25</ele><time>2026-04-12T12:55:58.001Z</time></trkpt><trkpt lat="45.823640831870165" lon="10.084490183930928"><ele>241.0</ele><time>2026-04-12T12:55:59.001Z</time></trkpt><trkpt lat="45.82354585967789" lon="10.084410355292142"><ele>237.0</ele><time>2026-04-12T12:56:00.001Z</time></trkpt><trkpt lat="45.82345380117914" lon="10.084319432221426"><ele>233.00000000000003</ele><time>2026-04-12T12:56:01.001Z</time></trkpt><trkpt lat="45.82337596464151" lon="10.084206971155668"><ele>229.00000000000003</ele><time>2026-04-12T12:56:02.001Z</time></trkpt><trkpt lat="45.82330908973728" lon="10.084087006982196"><ele>225.0</ele><time>2026-04-12T12:56:03.001Z</time></trkpt><trkpt lat="45.82325303706717" lon="10.083978342784452"><ele>221.0</ele><time>2026-04-12T12:56:04.001Z</time></trkpt><trkpt lat="45.823196541090695" lon="10.08388459950756"><ele>221.0</ele><time>2026-04-12T12:56:05.001Z</time></trkpt><trkpt lat="45.82313315344924" lon="10.08381244589784"><ele>221.00000000000003</ele><time>2026-04-12T12:56:06.001Z</time></trkpt><trkpt lat="45.82305783949199" lon="10.083764086240134"><ele>221.00000000000003</ele><time>2026-04-12T12:56:07.001Z</time></trkpt><trkpt lat="45.8229727428548" lon="10.0837078328818"><ele>221.0</ele><time>2026-04-12T12:56:08.001Z</time></trkpt><trkpt lat="45.82290026389607" lon="10.08362102163209"><ele>221.0</ele><time>2026-04-12T12:56:09.001Z</time></trkpt><trkpt lat="45.82283702439226" lon="10.0835067100812"><ele>221.0</ele><time>2026-04-12T12:56:10.001Z</time></trkpt><trkpt lat="45.82278092529085" lon="10.08337880991982"><ele>221.00000000000003</ele><time>2026-04-12T12:56:11.001Z</time></trkpt><trkpt lat="45.82273339799215" lon="10.083252070227006"><ele>221.00000000000003</ele><time>2026-04-12T12:56:12.001Z</time></trkpt><trkpt lat="45.822694466692134" lon="10.08313330337287"><ele>221.0</ele><time>2026-04-12T12:56:13.001Z</time></trkpt><trkpt lat="45.822656845411046" lon="10.083013736644402"><ele>221.0</ele><time>2026-04-12T12:56:14.001Z</time></trkpt><trkpt lat="45.822633634043925" lon="10.082884347095334"><ele>221.60000000000002</ele><time>2026-04-12T12:56:15.001Z</time></trkpt><trkpt lat="45.82263607614066" lon="10.082748158928483"><ele>222.20000000000002</ele><time>2026-04-12T12:56:16.001Z</time></trkpt><trkpt lat="45.822655386989155" lon="10.082615950598672"><ele>222.79999999999998</ele><time>2026-04-12T12:56:17.001Z</time></trkpt><trkpt lat="45.822696680606384" lon="10.08249486954916"><ele>223.39999999999998</ele><time>2026-04-12T12:56:18.001Z</time></trkpt><trkpt lat="45.822730226693196" lon="10.082382049978625"><ele>224.0</ele><time>2026-04-12T12:56:19.001Z</time></trkpt><trkpt lat="45.822729545249786" lon="10.082255483818294"><ele>224.6</ele><time>2026-04-12T12:56:20.001Z</time></trkpt><trkpt lat="45.82270524002705" lon="10.08212170030667"><ele>225.2</ele><time>2026-04-12T12:56:21.001Z</time></trkpt><trkpt lat="45.82267522816434" lon="10.081995695990397"><ele>225.79999999999998</ele><time>2026-04-12T12:56:22.001Z</time></trkpt><trkpt lat="45.82262208555167" lon="10.081867206198217"><ele>226.39999999999998</ele><time>2026-04-12T12:56:23.001Z</time></trkpt><trkpt lat="45.82256190350601" lon="10.081733611396047"><ele>227.0</ele><time>2026-04-12T12:56:24.001Z</time></trkpt><trkpt lat="45.82250104596845" lon="10.081599547931136"><ele>225.6</ele><time>2026-04-12T12:56:25.001Z</time></trkpt><trkpt lat="45.822450069117" lon="10.081467468067636"><ele>224.2</ele><time>2026-04-12T12:56:26.001Z</time></trkpt><trkpt lat="45.82241360014136" lon="10.081317149423759"><ele>222.8</ele><time>2026-04-12T12:56:27.001Z</time></trkpt><trkpt lat="45.82236755834953" lon="10.08117048611596"><ele>221.4</ele><time>2026-04-12T12:56:28.001Z</time></trkpt><trkpt lat="45.822322192118456" lon="10.08103379817152"><ele>220.0</ele><time>2026-04-12T12:56:29.001Z</time></trkpt><trkpt lat="45.822276308992144" lon="10.08090478543658"><ele>219.99999999999997</ele><time>2026-04-12T12:56:30.001Z</time></trkpt><trkpt lat="45.822236723459746" lon="10.080783266579811"><ele>220.0</ele><time>2026-04-12T12:56:31.001Z</time></trkpt><trkpt lat="45.82219940916388" lon="10.08068298311797"><ele>220.0</ele><time>2026-04-12T12:56:32.001Z</time></trkpt><trkpt lat="45.82216526241948" lon="10.080602347586302"><ele>220.0</ele><time>2026-04-12T12:56:33.001Z</time></trkpt><trkpt lat="45.822131791343025" lon="10.0805195721849"><ele>219.99999999999997</ele><time>2026-04-12T12:56:34.001Z</time></trkpt><trkpt lat="45.82209058918375" lon="10.080431933692802"><ele>220.0</ele><time>2026-04-12T12:56:35.002Z</time></trkpt><trkpt lat="45.822038621806364" lon="10.080334845524515"><ele>218.4</ele><time>2026-04-12T12:56:36.002Z</time></trkpt><trkpt lat="45.821980554459735" lon="10.08023384142351"><ele>216.8</ele><time>2026-04-12T12:56:37.002Z</time></trkpt><trkpt lat="45.82193132921963" lon="10.080121842059807"><ele>215.2</ele><time>2026-04-12T12:56:38.002Z</time></trkpt><trkpt lat="45.82188624255779" lon="10.080000355825762"><ele>213.6</ele><time>2026-04-12T12:56:39.002Z</time></trkpt><trkpt lat="45.82184110885067" lon="10.079881158360239"><ele>212.0</ele><time>2026-04-12T12:56:40.002Z</time></trkpt><trkpt lat="45.82179110525115" lon="10.07976456419805"><ele>212.0</ele><time>2026-04-12T12:56:41.002Z</time></trkpt><trkpt lat="45.82174185783956" lon="10.07964820246757"><ele>212.0</ele><time>2026-04-12T12:56:42.002Z</time></trkpt><trkpt lat="45.821698225350296" lon="10.079543467764381"><ele>212.0</ele><time>2026-04-12T12:56:43.001Z</time></trkpt><trkpt lat="45.821660294017526" lon="10.07946297717665"><ele>212.0</ele><time>2026-04-12T12:56:44.001Z</time></trkpt><trkpt lat="45.821597865421396" lon="10.07935199592379"><ele>212.0</ele><time>2026-04-12T12:56:46.001Z</time></trkpt><trkpt lat="45.82153695309923" lon="10.079212159813933"><ele>212.00000000000003</ele><time>2026-04-12T12:56:48Z</time></trkpt><trkpt lat="45.821502195114235" lon="10.07913184892972"><ele>212.0</ele><time>2026-04-12T12:56:49Z</time></trkpt><trkpt lat="45.8214657318937" lon="10.079043465557602"><ele>212.0</ele><time>2026-04-12T12:56:50Z</time></trkpt><trkpt lat="45.82142140450944" lon="10.078943564829935"><ele>212.0</ele><time>2026-04-12T12:56:51Z</time></trkpt><trkpt lat="45.82137614119067" lon="10.078841319571012"><ele>212.00000000000003</ele><time>2026-04-12T12:56:52Z</time></trkpt><trkpt lat="45.82132745649666" lon="10.078730578715813"><ele>212.0</ele><time>2026-04-12T12:56:53Z</time></trkpt><trkpt lat="45.82127845875147" lon="10.078613072037692"><ele>213.2</ele><time>2026-04-12T12:56:54Z</time></trkpt><trkpt lat="45.82123340183644" lon="10.078484424066222"><ele>214.39999999999998</ele><time>2026-04-12T12:56:55Z</time></trkpt><trkpt lat="45.82118787626544" lon="10.078360517157684"><ele>215.60000000000002</ele><time>2026-04-12T12:56:56Z</time></trkpt><trkpt lat="45.82112341806132" lon="10.07824313021658"><ele>216.8</ele><time>2026-04-12T12:56:57Z</time></trkpt><trkpt lat="45.82104733287828" lon="10.078140287295833"><ele>218.0</ele><time>2026-04-12T12:56:58Z</time></trkpt><trkpt lat="45.8209621193146" lon="10.07804301135794"><ele>218.0</ele><time>2026-04-12T12:56:59Z</time></trkpt><trkpt lat="45.820890212845356" lon="10.077925609617811"><ele>218.0</ele><time>2026-04-12T12:57:00Z</time></trkpt><trkpt lat="45.82080496480449" lon="10.077823017536234"><ele>218.0</ele><time>2026-04-12T12:57:01Z</time></trkpt><trkpt lat="45.8207115887341" lon="10.077740863769273"><ele>218.0</ele><time>2026-04-12T12:57:02Z</time></trkpt><trkpt lat="45.82063765490089" lon="10.077633279029843"><ele>218.0</ele><time>2026-04-12T12:57:03Z</time></trkpt><trkpt lat="45.820555419394644" lon="10.077531244022891"><ele>217.60000000000002</ele><time>2026-04-12T12:57:04Z</time></trkpt><trkpt lat="45.82047097427186" lon="10.07742510966719"><ele>217.20000000000002</ele><time>2026-04-12T12:57:05Z</time></trkpt><trkpt lat="45.8203820321272" lon="10.077330473636257"><ele>216.8</ele><time>2026-04-12T12:57:06Z</time></trkpt><trkpt lat="45.82029503544029" lon="10.077229714824178"><ele>216.4</ele><time>2026-04-12T12:57:07Z</time></trkpt><trkpt lat="45.82020932672523" lon="10.07713218137495"><ele>216.0</ele><time>2026-04-12T12:57:08Z</time></trkpt><trkpt lat="45.82013896821059" lon="10.077027338180734"><ele>216.0</ele><time>2026-04-12T12:57:09Z</time></trkpt><trkpt lat="45.820069500033654" lon="10.076943211684814"><ele>216.0</ele><time>2026-04-12T12:57:10Z</time></trkpt><trkpt lat="45.82000215802709" lon="10.07687846638529"><ele>216.0</ele><time>2026-04-12T12:57:11Z</time></trkpt><trkpt lat="45.81994171888745" lon="10.076811374830957"><ele>216.0</ele><time>2026-04-12T12:57:12Z</time></trkpt><trkpt lat="45.819891075763884" lon="10.076740204098765"><ele>216.0</ele><time>2026-04-12T12:57:13Z</time></trkpt><trkpt lat="45.81981461459542" lon="10.076638507679847"><ele>216.0</ele><time>2026-04-12T12:57:15Z</time></trkpt><trkpt lat="45.81971021769343" lon="10.07668582706822"><ele>216.0</ele><time>2026-04-12T12:57:17Z</time></trkpt><trkpt lat="45.81962087603088" lon="10.076725291266134"><ele>216.0</ele><time>2026-04-12T12:57:22.001Z</time></trkpt><trkpt lat="45.819534544373425" lon="10.076794782333751"><ele>216.0</ele><time>2026-04-12T12:57:24.001Z</time></trkpt><trkpt lat="45.81948051879894" lon="10.07686145144395"><ele>216.0</ele><time>2026-04-12T12:57:25.001Z</time></trkpt><trkpt lat="45.81943024567817" lon="10.076922673293012"><ele>216.0</ele><time>2026-04-12T12:57:26.001Z</time></trkpt><trkpt lat="45.81937692163054" lon="10.076988928600121"><ele>216.0</ele><time>2026-04-12T12:57:27.001Z</time></trkpt><trkpt lat="45.81927987865371" lon="10.07710689099656"><ele>214.33333333333334</ele><time>2026-04-12T12:57:29.001Z</time></trkpt><trkpt lat="45.819193249090844" lon="10.077231329969507"><ele>212.66666666666669</ele><time>2026-04-12T12:57:31.001Z</time></trkpt><trkpt lat="45.819140904690535" lon="10.07728323439469"><ele>211.0</ele><time>2026-04-12T12:57:32.001Z</time></trkpt><trkpt lat="45.819091717228964" lon="10.077343229976714"><ele>209.33333333333334</ele><time>2026-04-12T12:57:33.001Z</time></trkpt><trkpt lat="45.81904413080176" lon="10.077413844114583"><ele>207.66666666666669</ele><time>2026-04-12T12:57:34.001Z</time></trkpt><trkpt lat="45.81899323919684" lon="10.077492177208866"><ele>206.0</ele><time>2026-04-12T12:57:35.001Z</time></trkpt><trkpt lat="45.81889726390125" lon="10.077616163804835"><ele>205.00000000000003</ele><time>2026-04-12T12:57:37.001Z</time></trkpt><trkpt lat="45.818844544532645" lon="10.0776821114555"><ele>204.0</ele><time>2026-04-12T12:57:38.001Z</time></trkpt><trkpt lat="45.818790207466016" lon="10.077745557466898"><ele>203.0</ele><time>2026-04-12T12:57:39.001Z</time></trkpt><trkpt lat="45.81872782086188" lon="10.077815639614924"><ele>202.0</ele><time>2026-04-12T12:57:40.001Z</time></trkpt><trkpt lat="45.81867252857238" lon="10.077881964126053"><ele>201.00000000000003</ele><time>2026-04-12T12:57:41.001Z</time></trkpt><trkpt lat="45.81857923111916" lon="10.077947942998541"><ele>200.0</ele><time>2026-04-12T12:57:43.001Z</time></trkpt><trkpt lat="45.81850531996499" lon="10.078056784491611"><ele>199.14285714285717</ele><time>2026-04-12T12:57:45.001Z</time></trkpt><trkpt lat="45.81845328143442" lon="10.078129477266717"><ele>198.28571428571428</ele><time>2026-04-12T12:57:57.001Z</time></trkpt><trkpt lat="45.818387878235065" lon="10.078139513502322"><ele>197.42857142857144</ele><time>2026-04-12T12:58:05.001Z</time></trkpt><trkpt lat="45.81834463049987" lon="10.078039715298678"><ele>196.57142857142858</ele><time>2026-04-12T12:58:07.001Z</time></trkpt><trkpt lat="45.81832290251011" lon="10.077953149650957"><ele>195.71428571428572</ele><time>2026-04-12T12:58:08.001Z</time></trkpt><trkpt lat="45.81829356717442" lon="10.077868940961334"><ele>194.85714285714286</ele><time>2026-04-12T12:58:09.001Z</time></trkpt><trkpt lat="45.81825836879729" lon="10.077785985686404"><ele>194.0</ele><time>2026-04-12T12:58:10.001Z</time></trkpt><trkpt lat="45.81821873231629" lon="10.077713152450302"><ele>194.00000000000003</ele><time>2026-04-12T12:58:11.001Z</time></trkpt><trkpt lat="45.81818747755978" lon="10.077623046231432"><ele>194.0</ele><time>2026-04-12T12:58:12.001Z</time></trkpt><trkpt lat="45.81815858463704" lon="10.077518518652202"><ele>194.0</ele><time>2026-04-12T12:58:13.001Z</time></trkpt><trkpt lat="45.81812066936661" lon="10.07742032444115"><ele>194.0</ele><time>2026-04-12T12:58:14.001Z</time></trkpt><trkpt lat="45.81806436556496" lon="10.077317453273844"><ele>194.00000000000003</ele><time>2026-04-12T12:58:15.001Z</time></trkpt><trkpt lat="45.81801917774154" lon="10.077219468778791"><ele>194.0</ele><time>2026-04-12T12:58:16.001Z</time></trkpt><trkpt lat="45.81796466850499" lon="10.077117854645541"><ele>194.50000000000003</ele><time>2026-04-12T12:58:17.001Z</time></trkpt><trkpt lat="45.81790622824376" lon="10.077025853392406"><ele>195.0</ele><time>2026-04-12T12:58:18.001Z</time></trkpt><trkpt lat="45.817840545497155" lon="10.076934118257366"><ele>195.5</ele><time>2026-04-12T12:58:19.001Z</time></trkpt><trkpt lat="45.8177848595839" lon="10.076838358035781"><ele>196.0</ele><time>2026-04-12T12:58:20.001Z</time></trkpt><trkpt lat="45.81772369129614" lon="10.076746275897678"><ele>196.50000000000003</ele><time>2026-04-12T12:58:21.001Z</time></trkpt><trkpt lat="45.81766439315116" lon="10.076655340480729"><ele>197.0</ele><time>2026-04-12T12:58:22.001Z</time></trkpt><trkpt lat="45.817599641709926" lon="10.076572278137599"><ele>197.00000000000003</ele><time>2026-04-12T12:58:23.001Z</time></trkpt><trkpt lat="45.81753324864515" lon="10.076488899284875"><ele>197.0</ele><time>2026-04-12T12:58:24.001Z</time></trkpt><trkpt lat="45.81747436252613" lon="10.07640484081158"><ele>197.0</ele><time>2026-04-12T12:58:25.001Z</time></trkpt><trkpt lat="45.817417467597075" lon="10.076336064667952"><ele>197.0</ele><time>2026-04-12T12:58:26.001Z</time></trkpt><trkpt lat="45.81735798230854" lon="10.076281965399872"><ele>197.00000000000003</ele><time>2026-04-12T12:58:27.001Z</time></trkpt><trkpt lat="45.81730584639043" lon="10.076217858759222"><ele>197.0</ele><time>2026-04-12T12:58:28.001Z</time></trkpt><trkpt lat="45.81725757872446" lon="10.076154069302515"><ele>197.00000000000003</ele><time>2026-04-12T12:58:29.001Z</time></trkpt><trkpt lat="45.817201483309844" lon="10.076100479597395"><ele>197.0</ele><time>2026-04-12T12:58:30.001Z</time></trkpt><trkpt lat="45.81714647919271" lon="10.076041426884412"><ele>197.0</ele><time>2026-04-12T12:58:31.001Z</time></trkpt><trkpt lat="45.817080459222026" lon="10.075913203991439"><ele>197.0</ele><time>2026-04-12T12:58:33.001Z</time></trkpt><trkpt lat="45.81702462645619" lon="10.075784537880391"><ele>197.00000000000003</ele><time>2026-04-12T12:58:35.001Z</time></trkpt><trkpt lat="45.81696607650817" lon="10.07567849819367"><ele>197.0</ele><time>2026-04-12T12:58:37.001Z</time></trkpt><trkpt lat="45.81693265575947" lon="10.075600860961053"><ele>197.16666666666669</ele><time>2026-04-12T12:58:39.001Z</time></trkpt><trkpt lat="45.81686520866881" lon="10.075528241604335"><ele>197.33333333333334</ele><time>2026-04-12T12:59:13Z</time></trkpt><trkpt lat="45.816802129757804" lon="10.075412598914818"><ele>197.5</ele><time>2026-04-12T12:59:15Z</time></trkpt><trkpt lat="45.81673470569349" lon="10.07527976861561"><ele>197.66666666666669</ele><time>2026-04-12T12:59:17Z</time></trkpt><trkpt lat="45.81669520518805" lon="10.075201179252078"><ele>197.83333333333334</ele><time>2026-04-12T12:59:18Z</time></trkpt><trkpt lat="45.81665490394077" lon="10.075126499090231"><ele>198.0</ele><time>2026-04-12T12:59:19Z</time></trkpt><trkpt lat="45.81660252064405" lon="10.075061874779884"><ele>198.0</ele><time>2026-04-12T12:59:20Z</time></trkpt><trkpt lat="45.816548667270624" lon="10.07499451023255"><ele>198.0</ele><time>2026-04-12T12:59:21Z</time></trkpt><trkpt lat="45.81645786511698" lon="10.074910060673057"><ele>212.0</ele><time>2026-04-12T12:59:23Z</time></trkpt><trkpt lat="45.81639738042946" lon="10.07487020847685"><ele>212.0</ele><time>2026-04-12T12:59:25Z</time></trkpt><trkpt lat="45.81630958749313" lon="10.074815012437474"><ele>212.0</ele><time>2026-04-12T12:59:34.001Z</time></trkpt><trkpt lat="45.81627800921184" lon="10.074736209629412"><ele>212.0</ele><time>2026-04-12T13:00:09.001Z</time></trkpt></trkseg><trkseg><trkpt lat="45.81626450524852" lon="10.074720506807607"><ele>212.00000000000003</ele><time>2026-04-12T13:50:19Z</time></trkpt><trkpt lat="45.81618347879969" lon="10.074679158563345"><ele>212.0</ele><time>2026-04-12T13:50:21Z</time></trkpt><trkpt lat="45.81611230929041" lon="10.074635697985775"><ele>212.0</ele><time>2026-04-12T13:50:36Z</time></trkpt><trkpt lat="45.816038399095476" lon="10.074619085913126"><ele>212.0</ele><time>2026-04-12T13:51:15.999Z</time></trkpt><trkpt lat="45.81598143630648" lon="10.07455471697333"><ele>212.00000000000003</ele><time>2026-04-12T13:51:16.999Z</time></trkpt><trkpt lat="45.81592148443128" lon="10.074485560935674"><ele>212.0</ele><time>2026-04-12T13:51:17.999Z</time></trkpt><trkpt lat="45.81585856920171" lon="10.074421095139014"><ele>210.83333333333334</ele><time>2026-04-12T13:51:18.999Z</time></trkpt><trkpt lat="45.8157990078764" lon="10.074351077911277"><ele>209.66666666666669</ele><time>2026-04-12T13:51:19.999Z</time></trkpt><trkpt lat="45.81575492721161" lon="10.07426233764464"><ele>208.5</ele><time>2026-04-12T13:51:20.999Z</time></trkpt><trkpt lat="45.81569170187391" lon="10.074192294673207"><ele>207.33333333333331</ele><time>2026-04-12T13:51:21.999Z</time></trkpt><trkpt lat="45.81562956091546" lon="10.074123453051088"><ele>206.16666666666666</ele><time>2026-04-12T13:51:22.999Z</time></trkpt><trkpt lat="45.81557006191206" lon="10.074057510158932"><ele>205.0</ele><time>2026-04-12T13:51:23.999Z</time></trkpt><trkpt lat="45.815507737537494" lon="10.07398801119648"><ele>205.0</ele><time>2026-04-12T13:51:24.999Z</time></trkpt><trkpt lat="45.81545270086489" lon="10.07392663893487"><ele>205.0</ele><time>2026-04-12T13:51:25.999Z</time></trkpt><trkpt lat="45.81536558673133" lon="10.073832792212437"><ele>205.0</ele><time>2026-04-12T13:51:27.999Z</time></trkpt><trkpt lat="45.815251045140805" lon="10.073728662893817"><ele>205.0</ele><time>2026-04-12T13:51:29.999Z</time></trkpt><trkpt lat="45.81517753894821" lon="10.073680415197162"><ele>205.0</ele><time>2026-04-12T13:51:30.999Z</time></trkpt><trkpt lat="45.815090360013635" lon="10.073625840530775"><ele>203.4</ele><time>2026-04-12T13:51:31.999Z</time></trkpt><trkpt lat="45.8150011997225" lon="10.073582318380245"><ele>201.8</ele><time>2026-04-12T13:51:32.999Z</time></trkpt><trkpt lat="45.8149044945077" lon="10.073549475883711"><ele>200.2</ele><time>2026-04-12T13:51:33.999Z</time></trkpt><trkpt lat="45.81481918526864" lon="10.073488700666804"><ele>198.6</ele><time>2026-04-12T13:51:34.999Z</time></trkpt><trkpt lat="45.81475590588945" lon="10.073386492520125"><ele>197.0</ele><time>2026-04-12T13:51:35.999Z</time></trkpt><trkpt lat="45.81470047605983" lon="10.073265804727503"><ele>197.0</ele><time>2026-04-12T13:51:36.999Z</time></trkpt><trkpt lat="45.81463678167606" lon="10.073136981665636"><ele>197.0</ele><time>2026-04-12T13:51:37.999Z</time></trkpt><trkpt lat="45.81458213795804" lon="10.073001126095319"><ele>197.0</ele><time>2026-04-12T13:51:38.999Z</time></trkpt><trkpt lat="45.81452316382193" lon="10.072879919349852"><ele>197.0</ele><time>2026-04-12T13:51:39.999Z</time></trkpt><trkpt lat="45.81445417232365" lon="10.072756900765736"><ele>197.0</ele><time>2026-04-12T13:51:40.999Z</time></trkpt><trkpt lat="45.81438414731109" lon="10.072627277313309"><ele>196.5</ele><time>2026-04-12T13:51:41.999Z</time></trkpt><trkpt lat="45.81428955608346" lon="10.0725275870351"><ele>196.0</ele><time>2026-04-12T13:51:42.999Z</time></trkpt><trkpt lat="45.814192438100925" lon="10.072445337206753"><ele>195.5</ele><time>2026-04-12T13:51:43.999Z</time></trkpt><trkpt lat="45.81409382362729" lon="10.07236162086643"><ele>195.0</ele><time>2026-04-12T13:51:44.999Z</time></trkpt><trkpt lat="45.81398331906532" lon="10.072295474441121"><ele>196.0</ele><time>2026-04-12T13:51:45.999Z</time></trkpt><trkpt lat="45.813864360241574" lon="10.072249085246053"><ele>197.0</ele><time>2026-04-12T13:51:46.999Z</time></trkpt><trkpt lat="45.813753847730005" lon="10.072184450896467"><ele>198.0</ele><time>2026-04-12T13:51:47.999Z</time></trkpt><trkpt lat="45.81364045292083" lon="10.072122886497022"><ele>199.0</ele><time>2026-04-12T13:51:48.999Z</time></trkpt><trkpt lat="45.813529326345034" lon="10.072057820005881"><ele>197.25</ele><time>2026-04-12T13:51:49.999Z</time></trkpt><trkpt lat="45.81341695229491" lon="10.07198274895261"><ele>195.5</ele><time>2026-04-12T13:51:50.999Z</time></trkpt><trkpt lat="45.813304747881794" lon="10.071919173110125"><ele>193.75</ele><time>2026-04-12T13:51:51.999Z</time></trkpt><trkpt lat="45.813189548945175" lon="10.07185706003911"><ele>192.0</ele><time>2026-04-12T13:51:52.999Z</time></trkpt><trkpt lat="45.81307737113416" lon="10.07177315646722"><ele>192.0</ele><time>2026-04-12T13:51:53.999Z</time></trkpt><trkpt lat="45.812959553557285" lon="10.0717126912299"><ele>192.0</ele><time>2026-04-12T13:51:54.999Z</time></trkpt><trkpt lat="45.81284603445825" lon="10.071644860959568"><ele>192.0</ele><time>2026-04-12T13:51:55.999Z</time></trkpt><trkpt lat="45.812735659505485" lon="10.071576542619411"><ele>192.0</ele><time>2026-04-12T13:51:56.999Z</time></trkpt><trkpt lat="45.812635086074216" lon="10.071511928389448"><ele>193.0</ele><time>2026-04-12T13:51:57.999Z</time></trkpt><trkpt lat="45.812538324160826" lon="10.071452626452874"><ele>194.0</ele><time>2026-04-12T13:51:58.999Z</time></trkpt><trkpt lat="45.81243815868967" lon="10.071396875826636"><ele>195.0</ele><time>2026-04-12T13:51:59.999Z</time></trkpt><trkpt lat="45.81236100708047" lon="10.07133737637826"><ele>196.0</ele><time>2026-04-12T13:52:00.999Z</time></trkpt><trkpt lat="45.81228570260556" lon="10.07128148425087"><ele>197.0</ele><time>2026-04-12T13:52:01.999Z</time></trkpt><trkpt lat="45.81222558981967" lon="10.071236455771167"><ele>197.0</ele><time>2026-04-12T13:52:02.999Z</time></trkpt><trkpt lat="45.81215611421839" lon="10.07116014072132"><ele>197.0</ele><time>2026-04-12T13:52:04.999Z</time></trkpt><trkpt lat="45.812096351463886" lon="10.071081053590701"><ele>197.0</ele><time>2026-04-12T13:52:07.999Z</time></trkpt><trkpt lat="45.81201589707035" lon="10.070989541871974"><ele>197.0</ele><time>2026-04-12T13:52:09.999Z</time></trkpt><trkpt lat="45.81189872237406" lon="10.071046290118266"><ele>197.0</ele><time>2026-04-12T13:52:10.999Z</time></trkpt><trkpt lat="45.81181266675929" lon="10.071007427222975"><ele>197.25</ele><time>2026-04-12T13:52:11.999Z</time></trkpt><trkpt lat="45.81171966129455" lon="10.070955640100648"><ele>197.5</ele><time>2026-04-12T13:52:12.999Z</time></trkpt><trkpt lat="45.81161391078469" lon="10.070899360440809"><ele>197.75</ele><time>2026-04-12T13:52:13.999Z</time></trkpt><trkpt lat="45.811505982938485" lon="10.070827850778828"><ele>198.0</ele><time>2026-04-12T13:52:14.999Z</time></trkpt><trkpt lat="45.8113902244286" lon="10.07075947649692"><ele>198.0</ele><time>2026-04-12T13:52:15.999Z</time></trkpt><trkpt lat="45.8112754988448" lon="10.0707054858327"><ele>198.0</ele><time>2026-04-12T13:52:16.999Z</time></trkpt><trkpt lat="45.811168011030254" lon="10.070637365329892"><ele>198.0</ele><time>2026-04-12T13:52:17.999Z</time></trkpt><trkpt lat="45.81105446332524" lon="10.070574753623758"><ele>198.0</ele><time>2026-04-12T13:52:18.999Z</time></trkpt><trkpt lat="45.81093656819292" lon="10.070530330397766"><ele>197.0</ele><time>2026-04-12T13:52:19.999Z</time></trkpt><trkpt lat="45.81082118406708" lon="10.070468540539656"><ele>196.0</ele><time>2026-04-12T13:52:20.999Z</time></trkpt><trkpt lat="45.8107006599155" lon="10.070413082525787"><ele>195.0</ele><time>2026-04-12T13:52:21.999Z</time></trkpt><trkpt lat="45.810590396212035" lon="10.070344162671791"><ele>194.0</ele><time>2026-04-12T13:52:22.999Z</time></trkpt><trkpt lat="45.81049785005404" lon="10.07025742881107"><ele>194.0</ele><time>2026-04-12T13:52:23.999Z</time></trkpt><trkpt lat="45.81044077638531" lon="10.070108782068905"><ele>194.0</ele><time>2026-04-12T13:52:24.999Z</time></trkpt><trkpt lat="45.81040843324162" lon="10.069955091981653"><ele>194.0</ele><time>2026-04-12T13:52:25.999Z</time></trkpt><trkpt lat="45.81040639870656" lon="10.069775487417106"><ele>194.0</ele><time>2026-04-12T13:52:26.999Z</time></trkpt><trkpt lat="45.81039317859233" lon="10.069619730069883"><ele>195.75</ele><time>2026-04-12T13:52:27.999Z</time></trkpt><trkpt lat="45.8103578983172" lon="10.069460708762326"><ele>197.5</ele><time>2026-04-12T13:52:28.999Z</time></trkpt><trkpt lat="45.810301100643" lon="10.069305108959469"><ele>199.25</ele><time>2026-04-12T13:52:29.999Z</time></trkpt><trkpt lat="45.810229231962744" lon="10.069169215937428"><ele>201.0</ele><time>2026-04-12T13:52:30.999Z</time></trkpt><trkpt lat="45.810160587396965" lon="10.069018698941942"><ele>203.25</ele><time>2026-04-12T13:52:31.999Z</time></trkpt><trkpt lat="45.81008648099803" lon="10.068872858264278"><ele>205.5</ele><time>2026-04-12T13:52:32.999Z</time></trkpt><trkpt lat="45.810029277199625" lon="10.068732339859844"><ele>207.75</ele><time>2026-04-12T13:52:33.999Z</time></trkpt><trkpt lat="45.80994976622665" lon="10.068621936554246"><ele>210.0</ele><time>2026-04-12T13:52:34.999Z</time></trkpt><trkpt lat="45.80985531149381" lon="10.06853415770696"><ele>210.0</ele><time>2026-04-12T13:52:35.999Z</time></trkpt><trkpt lat="45.809756217177274" lon="10.06847323650267"><ele>210.0</ele><time>2026-04-12T13:52:36.999Z</time></trkpt><trkpt lat="45.80964936856633" lon="10.068444019210062"><ele>210.0</ele><time>2026-04-12T13:52:37.999Z</time></trkpt><trkpt lat="45.809544095922824" lon="10.068414891469391"><ele>210.0</ele><time>2026-04-12T13:52:38.999Z</time></trkpt><trkpt lat="45.80943397988422" lon="10.068384471355133"><ele>210.0</ele><time>2026-04-12T13:52:39.999Z</time></trkpt><trkpt lat="45.80933694933231" lon="10.068353128762617"><ele>208.0</ele><time>2026-04-12T13:52:40.999Z</time></trkpt><trkpt lat="45.809230014787175" lon="10.068343216237125"><ele>206.0</ele><time>2026-04-12T13:52:41.999Z</time></trkpt><trkpt lat="45.809132550875496" lon="10.068292971111745"><ele>204.0</ele><time>2026-04-12T13:52:42.999Z</time></trkpt><trkpt lat="45.809051346391975" lon="10.068244868190815"><ele>202.0</ele><time>2026-04-12T13:52:43.999Z</time></trkpt><trkpt lat="45.808979190989156" lon="10.068211622387604"><ele>200.0</ele><time>2026-04-12T13:52:45.999Z</time></trkpt><trkpt lat="45.80886821380017" lon="10.068169526640027"><ele>202.4</ele><time>2026-04-12T13:52:53.999Z</time></trkpt><trkpt lat="45.8087914442994" lon="10.068142634245483"><ele>204.8</ele><time>2026-04-12T13:52:54.999Z</time></trkpt><trkpt lat="45.80870813698371" lon="10.06812084543233"><ele>207.2</ele><time>2026-04-12T13:52:55.999Z</time></trkpt><trkpt lat="45.808613170257495" lon="10.068096936263016"><ele>209.6</ele><time>2026-04-12T13:52:56.999Z</time></trkpt><trkpt lat="45.80850896941577" lon="10.06806743418968"><ele>212.0</ele><time>2026-04-12T13:52:57.999Z</time></trkpt><trkpt lat="45.808397043835726" lon="10.068037633261056"><ele>212.0</ele><time>2026-04-12T13:52:58.999Z</time></trkpt><trkpt lat="45.808282891476885" lon="10.06801033681791"><ele>212.0</ele><time>2026-04-12T13:52:59.999Z</time></trkpt><trkpt lat="45.80816950992324" lon="10.06798233421933"><ele>212.0</ele><time>2026-04-12T13:53:00.999Z</time></trkpt><trkpt lat="45.80805193585639" lon="10.067952389429717"><ele>212.0</ele><time>2026-04-12T13:53:01.999Z</time></trkpt><trkpt lat="45.807926604688554" lon="10.067909468313946"><ele>212.0</ele><time>2026-04-12T13:53:02.999Z</time></trkpt><trkpt lat="45.80780053234814" lon="10.067875706821953"><ele>212.0</ele><time>2026-04-12T13:53:03.999Z</time></trkpt><trkpt lat="45.80767572495094" lon="10.067832521653013"><ele>212.0</ele><time>2026-04-12T13:53:04.999Z</time></trkpt><trkpt lat="45.80754904345371" lon="10.067791305083002"><ele>212.0</ele><time>2026-04-12T13:53:05.999Z</time></trkpt><trkpt lat="45.807417742197934" lon="10.067757256709577"><ele>209.75</ele><time>2026-04-12T13:53:06.999Z</time></trkpt><trkpt lat="45.80728225574463" lon="10.067719148270834"><ele>207.5</ele><time>2026-04-12T13:53:07.999Z</time></trkpt><trkpt lat="45.807142623261385" lon="10.067697675571443"><ele>205.25</ele><time>2026-04-12T13:53:08.999Z</time></trkpt><trkpt lat="45.80700351202304" lon="10.06766083904939"><ele>203.0</ele><time>2026-04-12T13:53:09.999Z</time></trkpt><trkpt lat="45.806866687966064" lon="10.067619697595982"><ele>201.5</ele><time>2026-04-12T13:53:10.999Z</time></trkpt><trkpt lat="45.806730143271224" lon="10.06756620636913"><ele>200.0</ele><time>2026-04-12T13:53:11.999Z</time></trkpt><trkpt lat="45.80659111791785" lon="10.06752668834921"><ele>198.5</ele><time>2026-04-12T13:53:12.999Z</time></trkpt><trkpt lat="45.80645443363452" lon="10.067487835781526"><ele>197.0</ele><time>2026-04-12T13:53:13.999Z</time></trkpt><trkpt lat="45.80631435454376" lon="10.06744918808485"><ele>197.5</ele><time>2026-04-12T13:53:14.999Z</time></trkpt><trkpt lat="45.80617662771268" lon="10.067412134739888"><ele>198.0</ele><time>2026-04-12T13:53:15.999Z</time></trkpt><trkpt lat="45.806040069673834" lon="10.06737357762059"><ele>198.5</ele><time>2026-04-12T13:53:16.999Z</time></trkpt><trkpt lat="45.80590307080943" lon="10.067334896036549"><ele>199.0</ele><time>2026-04-12T13:53:17.999Z</time></trkpt><trkpt lat="45.80576659961236" lon="10.067309356271"><ele>199.0</ele><time>2026-04-12T13:53:18.999Z</time></trkpt><trkpt lat="45.80562986456985" lon="10.067275279015284"><ele>199.0</ele><time>2026-04-12T13:53:19.999Z</time></trkpt><trkpt lat="45.80549688213845" lon="10.067232734830364"><ele>199.0</ele><time>2026-04-12T13:53:20.999Z</time></trkpt><trkpt lat="45.80536311386393" lon="10.067207959808117"><ele>199.0</ele><time>2026-04-12T13:53:21.999Z</time></trkpt><trkpt lat="45.805229607270256" lon="10.067198702309241"><ele>198.25</ele><time>2026-04-12T13:53:22.999Z</time></trkpt><trkpt lat="45.80510024705217" lon="10.067213119787779"><ele>197.5</ele><time>2026-04-12T13:53:23.999Z</time></trkpt><trkpt lat="45.8049666846524" lon="10.06724712518534"><ele>196.75</ele><time>2026-04-12T13:53:24.999Z</time></trkpt><trkpt lat="45.80483623118273" lon="10.067284719066501"><ele>196.0</ele><time>2026-04-12T13:53:25.999Z</time></trkpt><trkpt lat="45.80470257285954" lon="10.067264940615937"><ele>196.0</ele><time>2026-04-12T13:53:26.999Z</time></trkpt><trkpt lat="45.804428857217914" lon="10.067286514687648"><ele>196.0</ele><time>2026-04-12T13:53:28.999Z</time></trkpt><trkpt lat="45.80428931817877" lon="10.067302086160518"><ele>196.0</ele><time>2026-04-12T13:53:29.999Z</time></trkpt><trkpt lat="45.80414873328823" lon="10.06731968879328"><ele>195.75</ele><time>2026-04-12T13:53:30.999Z</time></trkpt><trkpt lat="45.80400779992862" lon="10.06733620147952"><ele>195.5</ele><time>2026-04-12T13:53:31.999Z</time></trkpt><trkpt lat="45.80386771852049" lon="10.067352740122052"><ele>195.25</ele><time>2026-04-12T13:53:32.999Z</time></trkpt><trkpt lat="45.80372837138314" lon="10.06737840362156"><ele>195.0</ele><time>2026-04-12T13:53:33.999Z</time></trkpt><trkpt lat="45.8035918786651" lon="10.067415462221867"><ele>194.0</ele><time>2026-04-12T13:53:34.999Z</time></trkpt><trkpt lat="45.803456519298045" lon="10.06746244727051"><ele>193.0</ele><time>2026-04-12T13:53:35.999Z</time></trkpt><trkpt lat="45.80332107095665" lon="10.067507446315393"><ele>192.0</ele><time>2026-04-12T13:53:36.999Z</time></trkpt><trkpt lat="45.80318488586636" lon="10.067550444174305"><ele>191.0</ele><time>2026-04-12T13:53:37.999Z</time></trkpt><trkpt lat="45.80304978066497" lon="10.067588904031334"><ele>191.0</ele><time>2026-04-12T13:53:38.999Z</time></trkpt><trkpt lat="45.802921391748455" lon="10.06763287726593"><ele>191.0</ele><time>2026-04-12T13:53:39.999Z</time></trkpt><trkpt lat="45.80280411827323" lon="10.06767655014287"><ele>191.0</ele><time>2026-04-12T13:53:40.998Z</time></trkpt><trkpt lat="45.80270239459179" lon="10.067711247722894"><ele>191.0</ele><time>2026-04-12T13:53:41.998Z</time></trkpt><trkpt lat="45.80252514413543" lon="10.067763072246178"><ele>191.0</ele><time>2026-04-12T13:53:43.998Z</time></trkpt><trkpt lat="45.802457525813644" lon="10.067768337493114"><ele>191.0</ele><time>2026-04-12T13:53:44.998Z</time></trkpt><trkpt lat="45.80238792821054" lon="10.067736437586452"><ele>191.0</ele><time>2026-04-12T13:53:45.998Z</time></trkpt><trkpt lat="45.80230241299997" lon="10.067634163127936"><ele>191.0</ele><time>2026-04-12T13:53:47.998Z</time></trkpt><trkpt lat="45.80230927842178" lon="10.067505901701745"><ele>191.0</ele><time>2026-04-12T13:53:48.998Z</time></trkpt><trkpt lat="45.80230279294818" lon="10.067405316552218"><ele>191.0</ele><time>2026-04-12T13:53:49.998Z</time></trkpt><trkpt lat="45.80230006271751" lon="10.06729350602708"><ele>191.0</ele><time>2026-04-12T13:53:50.998Z</time></trkpt><trkpt lat="45.8022869873527" lon="10.067169238637936"><ele>191.0</ele><time>2026-04-12T13:53:51.998Z</time></trkpt><trkpt lat="45.802291630096036" lon="10.067033007994667"><ele>191.0</ele><time>2026-04-12T13:53:52.998Z</time></trkpt><trkpt lat="45.80231397280925" lon="10.066899542494426"><ele>191.0</ele><time>2026-04-12T13:53:53.998Z</time></trkpt><trkpt lat="45.80234493677101" lon="10.0667636809119"><ele>191.0</ele><time>2026-04-12T13:53:54.998Z</time></trkpt><trkpt lat="45.80236731727964" lon="10.066620076262453"><ele>191.4</ele><time>2026-04-12T13:53:55.998Z</time></trkpt><trkpt lat="45.80239817864786" lon="10.066483558142329"><ele>191.8</ele><time>2026-04-12T13:53:56.998Z</time></trkpt><trkpt lat="45.802413147168274" lon="10.066338026580937"><ele>192.20000000000002</ele><time>2026-04-12T13:53:57.998Z</time></trkpt><trkpt lat="45.80242348630634" lon="10.06620022696475"><ele>192.60000000000002</ele><time>2026-04-12T13:53:58.998Z</time></trkpt><trkpt lat="45.80243189532157" lon="10.066046784981648"><ele>193.0</ele><time>2026-04-12T13:53:59.998Z</time></trkpt><trkpt lat="45.80243529530819" lon="10.065901711438977"><ele>193.4</ele><time>2026-04-12T13:54:00.998Z</time></trkpt><trkpt lat="45.802430588191136" lon="10.065749774579002"><ele>193.8</ele><time>2026-04-12T13:54:01.999Z</time></trkpt><trkpt lat="45.80241466554904" lon="10.065599990929373"><ele>194.2</ele><time>2026-04-12T13:54:02.999Z</time></trkpt><trkpt lat="45.80238091102079" lon="10.065455159338413"><ele>194.6</ele><time>2026-04-12T13:54:03.999Z</time></trkpt><trkpt lat="45.80233268436376" lon="10.065305335518373"><ele>195.0</ele><time>2026-04-12T13:54:04.999Z</time></trkpt><trkpt lat="45.802280499011644" lon="10.065153265232016"><ele>195.0</ele><time>2026-04-12T13:54:05.999Z</time></trkpt><trkpt lat="45.80222001347951" lon="10.06499567258371"><ele>195.0</ele><time>2026-04-12T13:54:06.999Z</time></trkpt><trkpt lat="45.802170838443814" lon="10.064834474127998"><ele>195.0</ele><time>2026-04-12T13:54:07.999Z</time></trkpt><trkpt lat="45.80213812831291" lon="10.064659634894495"><ele>195.0</ele><time>2026-04-12T13:54:08.999Z</time></trkpt><trkpt lat="45.802126050395515" lon="10.06448424067979"><ele>195.5</ele><time>2026-04-12T13:54:09.999Z</time></trkpt><trkpt lat="45.802118102913845" lon="10.06431005189191"><ele>196.0</ele><time>2026-04-12T13:54:10.999Z</time></trkpt><trkpt lat="45.80211369765574" lon="10.064136424086769"><ele>196.5</ele><time>2026-04-12T13:54:11.999Z</time></trkpt><trkpt lat="45.802115473659846" lon="10.063963219877074"><ele>197.0</ele><time>2026-04-12T13:54:12.999Z</time></trkpt><trkpt lat="45.802117571064976" lon="10.063792936299349"><ele>197.2</ele><time>2026-04-12T13:54:13.999Z</time></trkpt><trkpt lat="45.802117659250925" lon="10.063631546054069"><ele>197.39999999999998</ele><time>2026-04-12T13:54:14.999Z</time></trkpt><trkpt lat="45.80210500686713" lon="10.063474666629768"><ele>197.60000000000002</ele><time>2026-04-12T13:54:15.999Z</time></trkpt><trkpt lat="45.80208766541678" lon="10.063318435116015"><ele>197.8</ele><time>2026-04-12T13:54:16.999Z</time></trkpt><trkpt lat="45.80205480099979" lon="10.063167543915492"><ele>198.0</ele><time>2026-04-12T13:54:17.999Z</time></trkpt><trkpt lat="45.802026020428414" lon="10.063025543968537"><ele>198.4</ele><time>2026-04-12T13:54:18.999Z</time></trkpt><trkpt lat="45.80198517812244" lon="10.062877393614155"><ele>198.8</ele><time>2026-04-12T13:54:19.999Z</time></trkpt><trkpt lat="45.80194523338487" lon="10.06274022513916"><ele>199.2</ele><time>2026-04-12T13:54:20.999Z</time></trkpt><trkpt lat="45.801901178252166" lon="10.06260844483626"><ele>199.6</ele><time>2026-04-12T13:54:21.999Z</time></trkpt><trkpt lat="45.80185232403174" lon="10.062476058080364"><ele>200.0</ele><time>2026-04-12T13:54:22.999Z</time></trkpt><trkpt lat="45.80180611510142" lon="10.06234205924397"><ele>200.0</ele><time>2026-04-12T13:54:23.999Z</time></trkpt><trkpt lat="45.80177473270818" lon="10.062202660839715"><ele>200.0</ele><time>2026-04-12T13:54:24.999Z</time></trkpt><trkpt lat="45.801747125578075" lon="10.062063104241403"><ele>200.0</ele><time>2026-04-12T13:54:25.999Z</time></trkpt><trkpt lat="45.801733653772565" lon="10.06191800241744"><ele>200.0</ele><time>2026-04-12T13:54:26.999Z</time></trkpt><trkpt lat="45.80173351350437" lon="10.061771082134557"><ele>200.0</ele><time>2026-04-12T13:54:27.999Z</time></trkpt><trkpt lat="45.801755824939605" lon="10.061629890651789"><ele>199.8</ele><time>2026-04-12T13:54:28.999Z</time></trkpt><trkpt lat="45.801769992496254" lon="10.0614862180992"><ele>199.6</ele><time>2026-04-12T13:54:29.999Z</time></trkpt><trkpt lat="45.80181039153841" lon="10.061349397814956"><ele>199.39999999999998</ele><time>2026-04-12T13:54:30.999Z</time></trkpt><trkpt lat="45.80184847586889" lon="10.061210218243366"><ele>199.2</ele><time>2026-04-12T13:54:31.999Z</time></trkpt><trkpt lat="45.80189489723232" lon="10.06108057339114"><ele>199.0</ele><time>2026-04-12T13:54:32.999Z</time></trkpt><trkpt lat="45.801948125529485" lon="10.06096171985122"><ele>204.0</ele><time>2026-04-12T13:54:33.999Z</time></trkpt><trkpt lat="45.801998822725885" lon="10.06084088648386"><ele>209.0</ele><time>2026-04-12T13:54:34.999Z</time></trkpt><trkpt lat="45.80202173934551" lon="10.060702744693776"><ele>213.99999999999997</ele><time>2026-04-12T13:54:35.999Z</time></trkpt><trkpt lat="45.80201347871555" lon="10.06055847792822"><ele>219.0</ele><time>2026-04-12T13:54:36.999Z</time></trkpt><trkpt lat="45.80199647212476" lon="10.060417200152585"><ele>224.0</ele><time>2026-04-12T13:54:37.999Z</time></trkpt><trkpt lat="45.801974375858556" lon="10.06027423948734"><ele>226.2</ele><time>2026-04-12T13:54:38.999Z</time></trkpt><trkpt lat="45.80196108691345" lon="10.060133100687379"><ele>228.39999999999998</ele><time>2026-04-12T13:54:39.999Z</time></trkpt><trkpt lat="45.801963611724936" lon="10.059982496863698"><ele>230.6</ele><time>2026-04-12T13:54:40.999Z</time></trkpt><trkpt lat="45.801974778507116" lon="10.059831629501634"><ele>232.8</ele><time>2026-04-12T13:54:41.999Z</time></trkpt><trkpt lat="45.802000802756716" lon="10.059675587452704"><ele>235.0</ele><time>2026-04-12T13:54:42.999Z</time></trkpt><trkpt lat="45.80202124259647" lon="10.059510339525186"><ele>242.25</ele><time>2026-04-12T13:54:43.999Z</time></trkpt><trkpt lat="45.8020466933097" lon="10.059359267264457"><ele>249.5</ele><time>2026-04-12T13:54:44.999Z</time></trkpt><trkpt lat="45.80206032397484" lon="10.05919344887872"><ele>256.75</ele><time>2026-04-12T13:54:45.999Z</time></trkpt><trkpt lat="45.80208279599688" lon="10.05902753897659"><ele>264.0</ele><time>2026-04-12T13:54:46.999Z</time></trkpt><trkpt lat="45.80208952261724" lon="10.05885239237286"><ele>272.25</ele><time>2026-04-12T13:54:48.015Z</time></trkpt><trkpt lat="45.802087429386475" lon="10.05867708353365"><ele>280.5</ele><time>2026-04-12T13:54:49.015Z</time></trkpt><trkpt lat="45.802077041402946" lon="10.058498817538744"><ele>288.75</ele><time>2026-04-12T13:54:50.015Z</time></trkpt><trkpt lat="45.80205386905212" lon="10.058320575313703"><ele>297.0</ele><time>2026-04-12T13:54:51.017Z</time></trkpt><trkpt lat="45.80201826386875" lon="10.058143755367295"><ele>374.0</ele><time>2026-04-12T13:54:52.018Z</time></trkpt><trkpt lat="45.801319205244816" lon="10.057041272530386"><ele>374.0</ele><time>2026-04-12T13:55:00.999Z</time></trkpt><trkpt lat="45.8012380029993" lon="10.056913179078968"><ele>374.0</ele><time>2026-04-12T13:55:01.999Z</time></trkpt><trkpt lat="45.801170427756915" lon="10.056754457522999"><ele>374.0</ele><time>2026-04-12T13:55:02.999Z</time></trkpt><trkpt lat="45.80102912668419" lon="10.056744600901155"><ele>374.0</ele><time>2026-04-12T13:55:03.999Z</time></trkpt><trkpt lat="45.80092668722186" lon="10.056705206420471"><ele>374.0</ele><time>2026-04-12T13:55:04.999Z</time></trkpt><trkpt lat="45.80080733462579" lon="10.056643378609088"><ele>374.0</ele><time>2026-04-12T13:55:05.999Z</time></trkpt><trkpt lat="45.800695188392794" lon="10.05660239852185"><ele>374.0</ele><time>2026-04-12T13:55:06.999Z</time></trkpt><trkpt lat="45.8005754893288" lon="10.05659925465229"><ele>374.0</ele><time>2026-04-12T13:55:07.999Z</time></trkpt><trkpt lat="45.80046227923913" lon="10.056601602544283"><ele>379.75</ele><time>2026-04-12T13:55:08.999Z</time></trkpt><trkpt lat="45.800351674136074" lon="10.056595286515075"><ele>385.5</ele><time>2026-04-12T13:55:09.999Z</time></trkpt><trkpt lat="45.800234761904505" lon="10.056609847898926"><ele>391.25</ele><time>2026-04-12T13:55:10.999Z</time></trkpt><trkpt lat="45.800126583584714" lon="10.056575015418836"><ele>397.0</ele><time>2026-04-12T13:55:11.999Z</time></trkpt><trkpt lat="45.8000161872827" lon="10.056587623060517"><ele>396.25</ele><time>2026-04-12T13:55:12.999Z</time></trkpt><trkpt lat="45.79990235844734" lon="10.056637726951363"><ele>395.5</ele><time>2026-04-12T13:55:13.999Z</time></trkpt><trkpt lat="45.79978975940483" lon="10.056710120888425"><ele>394.75</ele><time>2026-04-12T13:55:14.999Z</time></trkpt><trkpt lat="45.79968833509565" lon="10.056787493567445"><ele>394.0</ele><time>2026-04-12T13:55:15.999Z</time></trkpt><trkpt lat="45.79958545184021" lon="10.056872292489883"><ele>394.0</ele><time>2026-04-12T13:55:16.999Z</time></trkpt><trkpt lat="45.79947835180544" lon="10.056958635886975"><ele>394.0</ele><time>2026-04-12T13:55:17.999Z</time></trkpt><trkpt lat="45.799377185448655" lon="10.05704302354407"><ele>394.0</ele><time>2026-04-12T13:55:18.999Z</time></trkpt><trkpt lat="45.799275796245844" lon="10.057148849986666"><ele>394.0</ele><time>2026-04-12T13:55:19.999Z</time></trkpt><trkpt lat="45.799161052155796" lon="10.057233766099012"><ele>402.25</ele><time>2026-04-12T13:55:20.999Z</time></trkpt><trkpt lat="45.799040374847266" lon="10.057279183342613"><ele>410.5</ele><time>2026-04-12T13:55:21.999Z</time></trkpt><trkpt lat="45.79892165803295" lon="10.057383426603232"><ele>418.75</ele><time>2026-04-12T13:55:22.999Z</time></trkpt><trkpt lat="45.79881642984955" lon="10.057465168373406"><ele>427.0</ele><time>2026-04-12T13:55:23.999Z</time></trkpt><trkpt lat="45.798706896042866" lon="10.057553058985564"><ele>414.8</ele><time>2026-04-12T13:55:24.999Z</time></trkpt><trkpt lat="45.79861708565491" lon="10.057637995149818"><ele>402.6</ele><time>2026-04-12T13:55:25.999Z</time></trkpt><trkpt lat="45.798529881476625" lon="10.057710147138721"><ele>390.40000000000003</ele><time>2026-04-12T13:55:26.999Z</time></trkpt><trkpt lat="45.79843941210286" lon="10.057761530529547"><ele>378.20000000000005</ele><time>2026-04-12T13:55:27.999Z</time></trkpt><trkpt lat="45.79834751966014" lon="10.057782476160577"><ele>366.0</ele><time>2026-04-12T13:55:28.999Z</time></trkpt><trkpt lat="45.79826870431807" lon="10.057810708275774"><ele>366.0</ele><time>2026-04-12T13:55:29.999Z</time></trkpt><trkpt lat="45.79819365001327" lon="10.05785076169822"><ele>366.0</ele><time>2026-04-12T13:55:30.999Z</time></trkpt><trkpt lat="45.798126577416795" lon="10.057861776678207"><ele>366.0</ele><time>2026-04-12T13:55:31.999Z</time></trkpt><trkpt lat="45.79801354570593" lon="10.057903467941092"><ele>366.0</ele><time>2026-04-12T13:55:33.999Z</time></trkpt><trkpt lat="45.7979163061515" lon="10.05792097548201"><ele>366.0</ele><time>2026-04-12T13:55:35.999Z</time></trkpt><trkpt lat="45.79783728494457" lon="10.057963648105542"><ele>366.0</ele><time>2026-04-12T13:55:37.999Z</time></trkpt><trkpt lat="45.79775844985606" lon="10.058077786423747"><ele>366.0</ele><time>2026-04-12T13:55:39.999Z</time></trkpt><trkpt lat="45.797680072484034" lon="10.058231747360383"><ele>366.0</ele><time>2026-04-12T13:55:41.999Z</time></trkpt><trkpt lat="45.797607227466656" lon="10.058314633280196"><ele>366.0</ele><time>2026-04-12T13:55:42.999Z</time></trkpt><trkpt lat="45.79752992863785" lon="10.058403471644468"><ele>366.0</ele><time>2026-04-12T13:55:43.999Z</time></trkpt><trkpt lat="45.797453005442335" lon="10.058456393002405"><ele>366.0</ele><time>2026-04-12T13:55:44.999Z</time></trkpt><trkpt lat="45.79738408189921" lon="10.058505136026646"><ele>350.40000000000003</ele><time>2026-04-12T13:55:45.999Z</time></trkpt><trkpt lat="45.79733122491738" lon="10.058554611710937"><ele>334.8</ele><time>2026-04-12T13:55:46.999Z</time></trkpt><trkpt lat="45.79724412564923" lon="10.058644244394248"><ele>319.20000000000005</ele><time>2026-04-12T13:55:48.999Z</time></trkpt><trkpt lat="45.79718366410854" lon="10.05874711824025"><ele>303.6</ele><time>2026-04-12T13:55:50.999Z</time></trkpt><trkpt lat="45.797117996288634" lon="10.058851148672671"><ele>288.0</ele><time>2026-04-12T13:55:52.999Z</time></trkpt><trkpt lat="45.797023324769505" lon="10.058863593777255"><ele>288.0</ele><time>2026-04-12T13:55:54.999Z</time></trkpt><trkpt lat="45.79691179418607" lon="10.058815087871023"><ele>288.0</ele><time>2026-04-12T13:55:56.999Z</time></trkpt><trkpt lat="45.79683205710664" lon="10.058808298378755"><ele>288.0</ele><time>2026-04-12T13:55:57.999Z</time></trkpt><trkpt lat="45.796751642428994" lon="10.058758046210317"><ele>288.0</ele><time>2026-04-12T13:55:58.999Z</time></trkpt><trkpt lat="45.79666506820186" lon="10.058735041375948"><ele>288.0</ele><time>2026-04-12T13:55:59.999Z</time></trkpt><trkpt lat="45.7965799258714" lon="10.058706807964466"><ele>282.8333333333333</ele><time>2026-04-12T13:56:00.999Z</time></trkpt><trkpt lat="45.79649966194648" lon="10.058682930254287"><ele>277.6666666666667</ele><time>2026-04-12T13:56:01.999Z</time></trkpt><trkpt lat="45.796413675543924" lon="10.058677198019456"><ele>272.5</ele><time>2026-04-12T13:56:02.999Z</time></trkpt><trkpt lat="45.796342806312346" lon="10.058662835173303"><ele>267.33333333333337</ele><time>2026-04-12T13:56:03.999Z</time></trkpt><trkpt lat="45.79626813919296" lon="10.05865015952309"><ele>262.1666666666667</ele><time>2026-04-12T13:56:04.999Z</time></trkpt><trkpt lat="45.79619576227799" lon="10.058600273717822"><ele>257.0</ele><time>2026-04-12T13:56:05.999Z</time></trkpt><trkpt lat="45.79612383956625" lon="10.058581581992911"><ele>257.0</ele><time>2026-04-12T13:56:06.999Z</time></trkpt><trkpt lat="45.796052003572996" lon="10.058585474495073"><ele>257.0</ele><time>2026-04-12T13:56:07.999Z</time></trkpt><trkpt lat="45.79598203498324" lon="10.058581694581353"><ele>257.0</ele><time>2026-04-12T13:56:08.999Z</time></trkpt><trkpt lat="45.795908119504" lon="10.058577202775997"><ele>257.0</ele><time>2026-04-12T13:56:09.999Z</time></trkpt><trkpt lat="45.79583059746258" lon="10.058561548327187"><ele>257.0</ele><time>2026-04-12T13:56:10.999Z</time></trkpt><trkpt lat="45.79575315331531" lon="10.058529587625832"><ele>257.0</ele><time>2026-04-12T13:56:11.999Z</time></trkpt><trkpt lat="45.795681563069785" lon="10.05848745032848"><ele>251.8</ele><time>2026-04-12T13:56:12.999Z</time></trkpt><trkpt lat="45.79562553434506" lon="10.05844295940041"><ele>246.6</ele><time>2026-04-12T13:56:13.999Z</time></trkpt><trkpt lat="45.795529541692815" lon="10.058325943170177"><ele>241.40000000000003</ele><time>2026-04-12T13:56:16Z</time></trkpt><trkpt lat="45.79540508079896" lon="10.058289400402732"><ele>236.20000000000002</ele><time>2026-04-12T13:56:18Z</time></trkpt><trkpt lat="45.79533192217209" lon="10.058289062759401"><ele>231.0</ele><time>2026-04-12T13:56:19Z</time></trkpt><trkpt lat="45.795256647928674" lon="10.058311918377578"><ele>231.0</ele><time>2026-04-12T13:56:20Z</time></trkpt><trkpt lat="45.79517898761933" lon="10.058315992716159"><ele>231.0</ele><time>2026-04-12T13:56:21Z</time></trkpt><trkpt lat="45.79510501284898" lon="10.058380779370902"><ele>231.0</ele><time>2026-04-12T13:56:22Z</time></trkpt><trkpt lat="45.7950300235572" lon="10.058421672286288"><ele>231.0</ele><time>2026-04-12T13:56:23Z</time></trkpt><trkpt lat="45.7949647151968" lon="10.05846206387567"><ele>231.0</ele><time>2026-04-12T13:56:24Z</time></trkpt><trkpt lat="45.794883697326654" lon="10.058495366179432"><ele>231.0</ele><time>2026-04-12T13:56:25Z</time></trkpt><trkpt lat="45.794802822952846" lon="10.05851266395487"><ele>228.66666666666666</ele><time>2026-04-12T13:56:26Z</time></trkpt><trkpt lat="45.79471651213015" lon="10.058546358244481"><ele>226.33333333333331</ele><time>2026-04-12T13:56:27Z</time></trkpt><trkpt lat="45.79463333577646" lon="10.058568304985652"><ele>224.0</ele><time>2026-04-12T13:56:28Z</time></trkpt><trkpt lat="45.79454645970562" lon="10.058566597081294"><ele>221.66666666666666</ele><time>2026-04-12T13:56:29Z</time></trkpt><trkpt lat="45.794471976433734" lon="10.058545244087197"><ele>219.33333333333331</ele><time>2026-04-12T13:56:30Z</time></trkpt><trkpt lat="45.79440835437156" lon="10.058495346837809"><ele>217.0</ele><time>2026-04-12T13:56:31Z</time></trkpt><trkpt lat="45.794353035976094" lon="10.058424101981057"><ele>217.0</ele><time>2026-04-12T13:56:32Z</time></trkpt><trkpt lat="45.79430818123631" lon="10.058322549792514"><ele>217.0</ele><time>2026-04-12T13:56:33Z</time></trkpt><trkpt lat="45.794223477762706" lon="10.058215355430091"><ele>217.0</ele><time>2026-04-12T13:56:34Z</time></trkpt><trkpt lat="45.79415453500349" lon="10.058056580757441"><ele>217.0</ele><time>2026-04-12T13:56:35Z</time></trkpt><trkpt lat="45.79405657448498" lon="10.057888253292353"><ele>217.0</ele><time>2026-04-12T13:56:36Z</time></trkpt><trkpt lat="45.7939656374798" lon="10.057698508153871"><ele>217.0</ele><time>2026-04-12T13:56:37Z</time></trkpt><trkpt lat="45.79388215733787" lon="10.057507190165083"><ele>217.0</ele><time>2026-04-12T13:56:38Z</time></trkpt><trkpt lat="45.79378771865143" lon="10.057304322777242"><ele>224.33333333333331</ele><time>2026-04-12T13:56:39Z</time></trkpt><trkpt lat="45.79369036836745" lon="10.057119358774402"><ele>231.66666666666669</ele><time>2026-04-12T13:56:40Z</time></trkpt><trkpt lat="45.79359223044328" lon="10.056931541942937"><ele>239.0</ele><time>2026-04-12T13:56:41Z</time></trkpt><trkpt lat="45.793476389375606" lon="10.05675242876236"><ele>231.33333333333334</ele><time>2026-04-12T13:56:42Z</time></trkpt><trkpt lat="45.79336266180939" lon="10.056565232540418"><ele>223.66666666666669</ele><time>2026-04-12T13:56:43Z</time></trkpt><trkpt lat="45.79324606171064" lon="10.056412219026079"><ele>216.0</ele><time>2026-04-12T13:56:44Z</time></trkpt><trkpt lat="45.7931408378131" lon="10.056254806015057"><ele>216.0</ele><time>2026-04-12T13:56:45Z</time></trkpt><trkpt lat="45.79302474762617" lon="10.056109321077784"><ele>216.0</ele><time>2026-04-12T13:56:46Z</time></trkpt><trkpt lat="45.79291539071265" lon="10.055965376895559"><ele>216.0</ele><time>2026-04-12T13:56:47Z</time></trkpt><trkpt lat="45.792829496145536" lon="10.055821819420235"><ele>216.0</ele><time>2026-04-12T13:56:48Z</time></trkpt><trkpt lat="45.792714836798936" lon="10.055711957093191"><ele>218.5</ele><time>2026-04-12T13:56:49Z</time></trkpt><trkpt lat="45.79259934685295" lon="10.055664278137357"><ele>221.0</ele><time>2026-04-12T13:56:50Z</time></trkpt><trkpt lat="45.79246607954372" lon="10.055621199071355"><ele>223.5</ele><time>2026-04-12T13:56:51Z</time></trkpt><trkpt lat="45.7923277976256" lon="10.055608982446696"><ele>226.0</ele><time>2026-04-12T13:56:52Z</time></trkpt><trkpt lat="45.79218363488424" lon="10.055609278979311"><ele>226.0</ele><time>2026-04-12T13:56:53Z</time></trkpt><trkpt lat="45.79204211942702" lon="10.05561209311405"><ele>226.0</ele><time>2026-04-12T13:56:54Z</time></trkpt><trkpt lat="45.79189149129115" lon="10.055608230323557"><ele>226.0</ele><time>2026-04-12T13:56:55Z</time></trkpt><trkpt lat="45.79172943603142" lon="10.055614674686991"><ele>221.66666666666666</ele><time>2026-04-12T13:56:56Z</time></trkpt><trkpt lat="45.791578838714734" lon="10.055617789885984"><ele>217.33333333333331</ele><time>2026-04-12T13:56:57Z</time></trkpt><trkpt lat="45.79142739791508" lon="10.055632699988125"><ele>213.0</ele><time>2026-04-12T13:56:58Z</time></trkpt><trkpt lat="45.79127707068326" lon="10.05559893015123"><ele>213.0</ele><time>2026-04-12T13:56:59Z</time></trkpt><trkpt lat="45.7911298430452" lon="10.05553705970157"><ele>213.0</ele><time>2026-04-12T13:57:00Z</time></trkpt><trkpt lat="45.7909813415444" lon="10.055456749746615"><ele>213.0</ele><time>2026-04-12T13:57:01Z</time></trkpt><trkpt lat="45.79083609872662" lon="10.055377929936688"><ele>209.66666666666669</ele><time>2026-04-12T13:57:02Z</time></trkpt><trkpt lat="45.79070097291489" lon="10.055268814680554"><ele>206.33333333333334</ele><time>2026-04-12T13:57:03Z</time></trkpt><trkpt lat="45.79055222582657" lon="10.055187239917478"><ele>203.0</ele><time>2026-04-12T13:57:04Z</time></trkpt><trkpt lat="45.79041127081303" lon="10.055117708027353"><ele>203.0</ele><time>2026-04-12T13:57:05Z</time></trkpt><trkpt lat="45.790262905471906" lon="10.05506961688914"><ele>203.0</ele><time>2026-04-12T13:57:06Z</time></trkpt><trkpt lat="45.79013927270147" lon="10.054988566213442"><ele>203.0</ele><time>2026-04-12T13:57:07Z</time></trkpt><trkpt lat="45.79001927036226" lon="10.054877911687695"><ele>203.0</ele><time>2026-04-12T13:57:08Z</time></trkpt><trkpt lat="45.7899189549996" lon="10.054733369598514"><ele>210.75</ele><time>2026-04-12T13:57:09Z</time></trkpt><trkpt lat="45.78980730291225" lon="10.054600010854578"><ele>218.5</ele><time>2026-04-12T13:57:10Z</time></trkpt><trkpt lat="45.78968652498227" lon="10.054489566518319"><ele>226.25</ele><time>2026-04-12T13:57:11Z</time></trkpt><trkpt lat="45.78955717368842" lon="10.054385829199486"><ele>234.0</ele><time>2026-04-12T13:57:12Z</time></trkpt><trkpt lat="45.78941226626142" lon="10.054322009514731"><ele>240.75</ele><time>2026-04-12T13:57:13Z</time></trkpt><trkpt lat="45.78927288627561" lon="10.05426678348862"><ele>247.5</ele><time>2026-04-12T13:57:14Z</time></trkpt><trkpt lat="45.78913620924451" lon="10.054209278399913"><ele>254.25</ele><time>2026-04-12T13:57:15Z</time></trkpt><trkpt lat="45.78900695678853" lon="10.054150889083411"><ele>261.0</ele><time>2026-04-12T13:57:16Z</time></trkpt><trkpt lat="45.78887196136646" lon="10.05408595840356"><ele>261.0</ele><time>2026-04-12T13:57:17Z</time></trkpt><trkpt lat="45.788742337281676" lon="10.054011217030205"><ele>261.0</ele><time>2026-04-12T13:57:18Z</time></trkpt><trkpt lat="45.78860707726453" lon="10.053921158083444"><ele>261.0</ele><time>2026-04-12T13:57:19Z</time></trkpt><trkpt lat="45.78847539438481" lon="10.053832213475946"><ele>261.0</ele><time>2026-04-12T13:57:20Z</time></trkpt><trkpt lat="45.78834340373975" lon="10.053738057880008"><ele>252.5</ele><time>2026-04-12T13:57:21Z</time></trkpt><trkpt lat="45.788212320937966" lon="10.053640997658587"><ele>244.0</ele><time>2026-04-12T13:57:22Z</time></trkpt><trkpt lat="45.78809228567706" lon="10.053539935104965"><ele>235.5</ele><time>2026-04-12T13:57:23Z</time></trkpt><trkpt lat="45.7879680737053" lon="10.053446127639917"><ele>227.0</ele><time>2026-04-12T13:57:24Z</time></trkpt><trkpt lat="45.787859645317795" lon="10.053328271056504"><ele>234.25</ele><time>2026-04-12T13:57:25Z</time></trkpt><trkpt lat="45.78772807998663" lon="10.05326672917855"><ele>241.5</ele><time>2026-04-12T13:57:26Z</time></trkpt><trkpt lat="45.78758614860967" lon="10.05326914747082"><ele>248.75</ele><time>2026-04-12T13:57:27Z</time></trkpt><trkpt lat="45.78744712440584" lon="10.053238765132662"><ele>256.0</ele><time>2026-04-12T13:57:28Z</time></trkpt><trkpt lat="45.78731370672332" lon="10.053232875958019"><ele>256.0</ele><time>2026-04-12T13:57:29Z</time></trkpt><trkpt lat="45.78720837914417" lon="10.053195311759689"><ele>256.0</ele><time>2026-04-12T13:57:30Z</time></trkpt><trkpt lat="45.78710832157275" lon="10.053173616377336"><ele>256.0</ele><time>2026-04-12T13:57:31Z</time></trkpt><trkpt lat="45.78699998175713" lon="10.053207782461072"><ele>256.0</ele><time>2026-04-12T13:57:32Z</time></trkpt><trkpt lat="45.786889257084404" lon="10.053211931520318"><ele>256.0</ele><time>2026-04-12T13:57:33Z</time></trkpt><trkpt lat="45.78676944338426" lon="10.053187470630112"><ele>251.25</ele><time>2026-04-12T13:57:34Z</time></trkpt><trkpt lat="45.78664748945596" lon="10.053154141989317"><ele>246.5</ele><time>2026-04-12T13:57:35Z</time></trkpt><trkpt lat="45.78653288028538" lon="10.053074905650009"><ele>241.75</ele><time>2026-04-12T13:57:36Z</time></trkpt><trkpt lat="45.7864135243374" lon="10.053019373376854"><ele>237.0</ele><time>2026-04-12T13:57:37Z</time></trkpt><trkpt lat="45.78629325453733" lon="10.05295093574939"><ele>237.0</ele><time>2026-04-12T13:57:38Z</time></trkpt><trkpt lat="45.78617303157766" lon="10.052858934200483"><ele>237.0</ele><time>2026-04-12T13:57:39Z</time></trkpt><trkpt lat="45.786044961562254" lon="10.052810250260174"><ele>237.0</ele><time>2026-04-12T13:57:40Z</time></trkpt><trkpt lat="45.78591778904175" lon="10.052792358215026"><ele>237.0</ele><time>2026-04-12T13:57:41Z</time></trkpt><trkpt lat="45.78579679548096" lon="10.052785243081189"><ele>236.75</ele><time>2026-04-12T13:57:42Z</time></trkpt><trkpt lat="45.78567625784328" lon="10.052820777873862"><ele>236.5</ele><time>2026-04-12T13:57:43Z</time></trkpt><trkpt lat="45.78558806867311" lon="10.052924507570646"><ele>236.25</ele><time>2026-04-12T13:57:44Z</time></trkpt><trkpt lat="45.78547857866476" lon="10.05300058102013"><ele>236.0</ele><time>2026-04-12T13:57:45Z</time></trkpt><trkpt lat="45.78537056189293" lon="10.053071619676018"><ele>236.0</ele><time>2026-04-12T13:57:46Z</time></trkpt><trkpt lat="45.785262696053735" lon="10.053126002257489"><ele>236.0</ele><time>2026-04-12T13:57:47Z</time></trkpt><trkpt lat="45.78514694799138" lon="10.053179796762524"><ele>236.0</ele><time>2026-04-12T13:57:48Z</time></trkpt><trkpt lat="45.7850310626618" lon="10.053235517691695"><ele>236.0</ele><time>2026-04-12T13:57:49Z</time></trkpt><trkpt lat="45.784920968906015" lon="10.053285318135371"><ele>238.50000000000003</ele><time>2026-04-12T13:57:50Z</time></trkpt><trkpt lat="45.78482962768257" lon="10.053324028161523"><ele>241.0</ele><time>2026-04-12T13:57:51Z</time></trkpt><trkpt lat="45.784743366233954" lon="10.053364162686611"><ele>243.5</ele><time>2026-04-12T13:57:52Z</time></trkpt><trkpt lat="45.78467805830855" lon="10.053295269004028"><ele>246.0</ele><time>2026-04-12T13:57:53Z</time></trkpt><trkpt lat="45.784603935477804" lon="10.05326208701135"><ele>248.50000000000003</ele><time>2026-04-12T13:57:54Z</time></trkpt><trkpt lat="45.78451971592101" lon="10.053257808815236"><ele>251.0</ele><time>2026-04-12T13:57:55Z</time></trkpt><trkpt lat="45.78444191503734" lon="10.053359611043634"><ele>250.4</ele><time>2026-04-12T13:57:56Z</time></trkpt><trkpt lat="45.78437353250834" lon="10.05345080703234"><ele>249.8</ele><time>2026-04-12T13:57:57Z</time></trkpt><trkpt lat="45.78430262324782" lon="10.053553725100153"><ele>249.20000000000002</ele><time>2026-04-12T13:57:58Z</time></trkpt><trkpt lat="45.784232078490206" lon="10.053662454232155"><ele>248.60000000000002</ele><time>2026-04-12T13:57:59Z</time></trkpt><trkpt lat="45.78415817820873" lon="10.053772374002268"><ele>248.0</ele><time>2026-04-12T13:58:00Z</time></trkpt><trkpt lat="45.784082732332" lon="10.053893561335236"><ele>248.0</ele><time>2026-04-12T13:58:01Z</time></trkpt><trkpt lat="45.784006794743114" lon="10.05405265128352"><ele>248.0</ele><time>2026-04-12T13:58:02Z</time></trkpt><trkpt lat="45.783925404029944" lon="10.054195324737465"><ele>248.0</ele><time>2026-04-12T13:58:03Z</time></trkpt><trkpt lat="45.78384596557135" lon="10.054327595779665"><ele>248.0</ele><time>2026-04-12T13:58:04Z</time></trkpt><trkpt lat="45.78376961342465" lon="10.054453965940857"><ele>241.8</ele><time>2026-04-12T13:58:05Z</time></trkpt><trkpt lat="45.78370698189958" lon="10.054577680726428"><ele>235.60000000000002</ele><time>2026-04-12T13:58:06Z</time></trkpt><trkpt lat="45.78364914466734" lon="10.054688798179047"><ele>229.39999999999998</ele><time>2026-04-12T13:58:07Z</time></trkpt><trkpt lat="45.78359016778956" lon="10.054791011984703"><ele>223.2</ele><time>2026-04-12T13:58:08Z</time></trkpt><trkpt lat="45.783519536942876" lon="10.054885943138283"><ele>217.0</ele><time>2026-04-12T13:58:09Z</time></trkpt><trkpt lat="45.78342769263576" lon="10.054957633133458"><ele>217.0</ele><time>2026-04-12T13:58:10Z</time></trkpt><trkpt lat="45.78333243523481" lon="10.055012160462743"><ele>217.0</ele><time>2026-04-12T13:58:11Z</time></trkpt><trkpt lat="45.78323713074032" lon="10.055038415848784"><ele>217.0</ele><time>2026-04-12T13:58:12Z</time></trkpt><trkpt lat="45.78314737368142" lon="10.055047126378016"><ele>217.0</ele><time>2026-04-12T13:58:13Z</time></trkpt><trkpt lat="45.783054782434625" lon="10.054988194950775"><ele>217.0</ele><time>2026-04-12T13:58:14Z</time></trkpt><trkpt lat="45.782972255171224" lon="10.054923043310515"><ele>216.99999999999997</ele><time>2026-04-12T13:58:15Z</time></trkpt><trkpt lat="45.78290363633294" lon="10.05484484917266"><ele>217.0</ele><time>2026-04-12T13:58:16Z</time></trkpt><trkpt lat="45.782870293405935" lon="10.054751446420916"><ele>217.0</ele><time>2026-04-12T13:58:17Z</time></trkpt><trkpt lat="45.78286602219481" lon="10.054615175415394"><ele>217.0</ele><time>2026-04-12T13:58:18Z</time></trkpt><trkpt lat="45.78285539334251" lon="10.054478871143987"><ele>216.99999999999997</ele><time>2026-04-12T13:58:19Z</time></trkpt><trkpt lat="45.78284170228121" lon="10.054345345607533"><ele>217.0</ele><time>2026-04-12T13:58:20Z</time></trkpt><trkpt lat="45.782879513701296" lon="10.054230981103183"><ele>221.49999999999997</ele><time>2026-04-12T13:58:21Z</time></trkpt><trkpt lat="45.78292470593625" lon="10.054121449827612"><ele>226.0</ele><time>2026-04-12T13:58:22Z</time></trkpt><trkpt lat="45.782949961402736" lon="10.054008925856907"><ele>230.5</ele><time>2026-04-12T13:58:23Z</time></trkpt><trkpt lat="45.78297544032008" lon="10.053899236931615"><ele>235.0</ele><time>2026-04-12T13:58:24Z</time></trkpt><trkpt lat="45.78295195815439" lon="10.053753677762728"><ele>239.49999999999997</ele><time>2026-04-12T13:58:25Z</time></trkpt><trkpt lat="45.78290124469651" lon="10.053641096713672"><ele>244.0</ele><time>2026-04-12T13:58:26Z</time></trkpt><trkpt lat="45.782805485949744" lon="10.053544741120994"><ele>243.99999999999997</ele><time>2026-04-12T13:58:27Z</time></trkpt><trkpt lat="45.782720014653066" lon="10.053454352522884"><ele>244.0</ele><time>2026-04-12T13:58:28Z</time></trkpt><trkpt lat="45.78264429604494" lon="10.053371559636584"><ele>244.0</ele><time>2026-04-12T13:58:29Z</time></trkpt><trkpt lat="45.782577449041526" lon="10.05329494464402"><ele>244.0</ele><time>2026-04-12T13:58:30Z</time></trkpt><trkpt lat="45.78252862192735" lon="10.053203641056859"><ele>243.99999999999997</ele><time>2026-04-12T13:58:31Z</time></trkpt><trkpt lat="45.78250899844063" lon="10.053090250521587"><ele>244.0</ele><time>2026-04-12T13:58:32Z</time></trkpt><trkpt lat="45.78246173826391" lon="10.05296303820885"><ele>231.6</ele><time>2026-04-12T13:58:33Z</time></trkpt><trkpt lat="45.78240583792247" lon="10.05284558156304"><ele>219.2</ele><time>2026-04-12T13:58:34Z</time></trkpt><trkpt lat="45.78233874797484" lon="10.0527245792846"><ele>206.79999999999998</ele><time>2026-04-12T13:58:35Z</time></trkpt><trkpt lat="45.782295238815955" lon="10.052580139412791"><ele>194.39999999999998</ele><time>2026-04-12T13:58:36Z</time></trkpt><trkpt lat="45.78225403017392" lon="10.052447925089202"><ele>182.0</ele><time>2026-04-12T13:58:37Z</time></trkpt><trkpt lat="45.78221990480356" lon="10.052313011769145"><ele>182.0</ele><time>2026-04-12T13:58:38Z</time></trkpt><trkpt lat="45.7822080985262" lon="10.052145827217407"><ele>182.0</ele><time>2026-04-12T13:58:39Z</time></trkpt><trkpt lat="45.7821797588213" lon="10.051999216470367"><ele>182.0</ele><time>2026-04-12T13:58:40Z</time></trkpt><trkpt lat="45.78218058804368" lon="10.051882517713349"><ele>182.0</ele><time>2026-04-12T13:58:41Z</time></trkpt><trkpt lat="45.782191568413445" lon="10.051792404691346"><ele>182.0</ele><time>2026-04-12T13:58:42Z</time></trkpt><trkpt lat="45.78223196699831" lon="10.051703005509392"><ele>182.0</ele><time>2026-04-12T13:58:43Z</time></trkpt><trkpt lat="45.78228824524154" lon="10.051610761346717"><ele>182.0</ele><time>2026-04-12T13:58:44Z</time></trkpt><trkpt lat="45.782351054723875" lon="10.05152937192731"><ele>182.0</ele><time>2026-04-12T13:58:45Z</time></trkpt><trkpt lat="45.78240919028847" lon="10.05145899676184"><ele>182.0</ele><time>2026-04-12T13:58:46Z</time></trkpt><trkpt lat="45.78244505403898" lon="10.051380665014907"><ele>182.0</ele><time>2026-04-12T13:58:47Z</time></trkpt><trkpt lat="45.78246936573588" lon="10.051197552254015"><ele>182.0</ele><time>2026-04-12T13:58:49Z</time></trkpt><trkpt lat="45.78244532825689" lon="10.051112336955013"><ele>182.0</ele><time>2026-04-12T13:58:50Z</time></trkpt><trkpt lat="45.782404488992704" lon="10.051028224448604"><ele>184.71428571428572</ele><time>2026-04-12T13:58:51Z</time></trkpt><trkpt lat="45.78237248148961" lon="10.050935684492234"><ele>187.42857142857144</ele><time>2026-04-12T13:58:52Z</time></trkpt><trkpt lat="45.78234636172287" lon="10.050835400559691"><ele>190.14285714285714</ele><time>2026-04-12T13:58:53Z</time></trkpt><trkpt lat="45.78235869126252" lon="10.05072640089542"><ele>192.85714285714286</ele><time>2026-04-12T13:58:54Z</time></trkpt><trkpt lat="45.782387561346965" lon="10.050640999501665"><ele>195.57142857142858</ele><time>2026-04-12T13:58:55Z</time></trkpt><trkpt lat="45.78242878091159" lon="10.050563941376785"><ele>198.28571428571428</ele><time>2026-04-12T13:58:56Z</time></trkpt><trkpt lat="45.78247682286618" lon="10.050468998780921"><ele>201.0</ele><time>2026-04-12T13:58:57Z</time></trkpt><trkpt lat="45.78251189829733" lon="10.050344025894994"><ele>201.0</ele><time>2026-04-12T13:58:58Z</time></trkpt><trkpt lat="45.78254751212328" lon="10.050213362157136"><ele>201.0</ele><time>2026-04-12T13:58:59Z</time></trkpt><trkpt lat="45.78258800438602" lon="10.050082920056397"><ele>201.0</ele><time>2026-04-12T13:59:00Z</time></trkpt><trkpt lat="45.78262363684874" lon="10.049950137134797"><ele>201.0</ele><time>2026-04-12T13:59:01Z</time></trkpt><trkpt lat="45.78267072050415" lon="10.049823098666202"><ele>201.0</ele><time>2026-04-12T13:59:02Z</time></trkpt><trkpt lat="45.78271127823581" lon="10.049702560600752"><ele>201.0</ele><time>2026-04-12T13:59:03Z</time></trkpt><trkpt lat="45.7827603067447" lon="10.049591149634779"><ele>201.0</ele><time>2026-04-12T13:59:04Z</time></trkpt><trkpt lat="45.78280945263696" lon="10.049487571094662"><ele>201.0</ele><time>2026-04-12T13:59:05Z</time></trkpt><trkpt lat="45.782853264452775" lon="10.049386618700222"><ele>201.0</ele><time>2026-04-12T13:59:06Z</time></trkpt><trkpt lat="45.78291000939256" lon="10.049293351807334"><ele>201.0</ele><time>2026-04-12T13:59:07Z</time></trkpt><trkpt lat="45.78295525242386" lon="10.049196834816327"><ele>201.0</ele><time>2026-04-12T13:59:08Z</time></trkpt><trkpt lat="45.78299085283607" lon="10.049098447322573"><ele>201.0</ele><time>2026-04-12T13:59:09Z</time></trkpt><trkpt lat="45.78300809294541" lon="10.04899233906479"><ele>201.0</ele><time>2026-04-12T13:59:10Z</time></trkpt><trkpt lat="45.78299859562243" lon="10.048887190798474"><ele>201.0</ele><time>2026-04-12T13:59:11Z</time></trkpt><trkpt lat="45.78294492120765" lon="10.048762325416302"><ele>201.0</ele><time>2026-04-12T13:59:12Z</time></trkpt><trkpt lat="45.78290864005154" lon="10.048668316221889"><ele>201.0</ele><time>2026-04-12T13:59:13Z</time></trkpt><trkpt lat="45.78288198565392" lon="10.048578686356445"><ele>201.0</ele><time>2026-04-12T13:59:14Z</time></trkpt><trkpt lat="45.782824162727664" lon="10.048491178768053"><ele>209.0</ele><time>2026-04-12T13:59:15Z</time></trkpt><trkpt lat="45.78274303047265" lon="10.048435897895352"><ele>217.0</ele><time>2026-04-12T13:59:16Z</time></trkpt><trkpt lat="45.782659624442864" lon="10.048359160511948"><ele>225.00000000000003</ele><time>2026-04-12T13:59:17.018Z</time></trkpt><trkpt lat="45.78256310813561" lon="10.048306711025948"><ele>233.0</ele><time>2026-04-12T13:59:18.019Z</time></trkpt><trkpt lat="45.78246056638465" lon="10.048258271672347"><ele>241.0</ele><time>2026-04-12T13:59:19.021Z</time></trkpt><trkpt lat="45.782345784365624" lon="10.048208695357628"><ele>267.5</ele><time>2026-04-12T13:59:20.016Z</time></trkpt><trkpt lat="45.78223007195486" lon="10.048166507178045"><ele>294.0</ele><time>2026-04-12T13:59:21.02Z</time></trkpt><trkpt lat="45.78094240721823" lon="10.04820204027914"><ele>294.0</ele><time>2026-04-12T13:59:25.793Z</time></trkpt><trkpt lat="45.780672450782696" lon="10.04821875104414"><ele>294.0</ele><time>2026-04-12T13:59:26.792Z</time></trkpt><trkpt lat="45.780405847785836" lon="10.048284462873166"><ele>270.5</ele><time>2026-04-12T13:59:27.792Z</time></trkpt><trkpt lat="45.78013576055551" lon="10.048303464341659"><ele>247.0</ele><time>2026-04-12T13:59:28.792Z</time></trkpt><trkpt lat="45.7798691637704" lon="10.048370045363754"><ele>247.0</ele><time>2026-04-12T13:59:29.793Z</time></trkpt><trkpt lat="45.779600077271326" lon="10.048398728593606"><ele>247.0</ele><time>2026-04-12T13:59:30.793Z</time></trkpt><trkpt lat="45.77933215458763" lon="10.048364207572916"><ele>234.5</ele><time>2026-04-12T13:59:31.793Z</time></trkpt><trkpt lat="45.77907864877019" lon="10.048235581168258"><ele>222.0</ele><time>2026-04-12T13:59:32.792Z</time></trkpt><trkpt lat="45.7787659345621" lon="10.04799594172281"><ele>222.0</ele><time>2026-04-12T13:59:44.001Z</time></trkpt><trkpt lat="45.778650661597055" lon="10.047899927293406"><ele>222.0</ele><time>2026-04-12T13:59:45.001Z</time></trkpt><trkpt lat="45.77858471499796" lon="10.047772635232072"><ele>222.0</ele><time>2026-04-12T13:59:46.001Z</time></trkpt><trkpt lat="45.77852376306388" lon="10.04764221829645"><ele>222.0</ele><time>2026-04-12T13:59:47.001Z</time></trkpt><trkpt lat="45.77847103375026" lon="10.047512971305178"><ele>217.75</ele><time>2026-04-12T13:59:48.001Z</time></trkpt><trkpt lat="45.77840545639856" lon="10.047365506981272"><ele>213.5</ele><time>2026-04-12T13:59:49.001Z</time></trkpt><trkpt lat="45.77832528602186" lon="10.047209049509895"><ele>209.25</ele><time>2026-04-12T13:59:50.001Z</time></trkpt><trkpt lat="45.77825427213746" lon="10.04705241464037"><ele>205.0</ele><time>2026-04-12T13:59:51.001Z</time></trkpt><trkpt lat="45.778170249843114" lon="10.0469076643972"><ele>205.0</ele><time>2026-04-12T13:59:52.001Z</time></trkpt><trkpt lat="45.77808898104746" lon="10.04677519249336"><ele>205.0</ele><time>2026-04-12T13:59:53.001Z</time></trkpt><trkpt lat="45.7780059547866" lon="10.046631256475763"><ele>205.0</ele><time>2026-04-12T13:59:54.001Z</time></trkpt><trkpt lat="45.77793134680763" lon="10.046498821554467"><ele>205.0</ele><time>2026-04-12T13:59:55.001Z</time></trkpt><trkpt lat="45.777851644531246" lon="10.04636568779411"><ele>203.0</ele><time>2026-04-12T13:59:56.001Z</time></trkpt><trkpt lat="45.777766718528994" lon="10.046237347401135"><ele>201.0</ele><time>2026-04-12T13:59:57.001Z</time></trkpt><trkpt lat="45.77768272554268" lon="10.046115571989612"><ele>199.0</ele><time>2026-04-12T13:59:58.001Z</time></trkpt><trkpt lat="45.77760241462657" lon="10.045991626583854"><ele>197.0</ele><time>2026-04-12T13:59:59Z</time></trkpt><trkpt lat="45.777502975220585" lon="10.045905690450558"><ele>197.00000000000003</ele><time>2026-04-12T14:00:00Z</time></trkpt><trkpt lat="45.77742742925943" lon="10.045819870774908"><ele>197.0</ele><time>2026-04-12T14:00:01Z</time></trkpt><trkpt lat="45.77735018501863" lon="10.045744952597826"><ele>197.0</ele><time>2026-04-12T14:00:02Z</time></trkpt><trkpt lat="45.777275178231676" lon="10.04568417449826"><ele>197.0</ele><time>2026-04-12T14:00:03Z</time></trkpt><trkpt lat="45.77720256601231" lon="10.045628984697139"><ele>197.00000000000003</ele><time>2026-04-12T14:00:04Z</time></trkpt><trkpt lat="45.77713114455477" lon="10.045570849135473"><ele>197.0</ele><time>2026-04-12T14:00:05Z</time></trkpt><trkpt lat="45.77705940632284" lon="10.045513786060516"><ele>197.16666666666669</ele><time>2026-04-12T14:00:06Z</time></trkpt><trkpt lat="45.77698445592891" lon="10.045454574064328"><ele>197.33333333333334</ele><time>2026-04-12T14:00:07Z</time></trkpt><trkpt lat="45.776919492510686" lon="10.045378915750803"><ele>197.5</ele><time>2026-04-12T14:00:08Z</time></trkpt><trkpt lat="45.776843945363964" lon="10.045314728829998"><ele>197.66666666666669</ele><time>2026-04-12T14:00:09Z</time></trkpt><trkpt lat="45.77676455477604" lon="10.045252347758705"><ele>197.83333333333334</ele><time>2026-04-12T14:00:10Z</time></trkpt><trkpt lat="45.77668611913824" lon="10.045183750341966"><ele>198.0</ele><time>2026-04-12T14:00:11Z</time></trkpt><trkpt lat="45.77660773766561" lon="10.045106316019599"><ele>198.0</ele><time>2026-04-12T14:00:12Z</time></trkpt><trkpt lat="45.77653065709045" lon="10.045019582190099"><ele>198.0</ele><time>2026-04-12T14:00:13Z</time></trkpt><trkpt lat="45.77645489873025" lon="10.04492074213217"><ele>198.0</ele><time>2026-04-12T14:00:14Z</time></trkpt><trkpt lat="45.776373120524944" lon="10.044821618247662"><ele>198.0</ele><time>2026-04-12T14:00:15Z</time></trkpt><trkpt lat="45.77628927860501" lon="10.044723848896822"><ele>198.0</ele><time>2026-04-12T14:00:16Z</time></trkpt><trkpt lat="45.77621168015671" lon="10.04461274985014"><ele>198.75</ele><time>2026-04-12T14:00:17Z</time></trkpt><trkpt lat="45.776133470998495" lon="10.04449759804197"><ele>199.5</ele><time>2026-04-12T14:00:18Z</time></trkpt><trkpt lat="45.77605436910331" lon="10.044372783562372"><ele>200.25</ele><time>2026-04-12T14:00:19Z</time></trkpt><trkpt lat="45.77598102224337" lon="10.04423699536753"><ele>201.0</ele><time>2026-04-12T14:00:20Z</time></trkpt><trkpt lat="45.775910931116265" lon="10.044086961739337"><ele>205.0</ele><time>2026-04-12T14:00:21Z</time></trkpt><trkpt lat="45.77585039739337" lon="10.043919792983118"><ele>209.0</ele><time>2026-04-12T14:00:22Z</time></trkpt><trkpt lat="45.77578542443146" lon="10.043757147381836"><ele>213.0</ele><time>2026-04-12T14:00:23Z</time></trkpt><trkpt lat="45.775690243881876" lon="10.043579799771367"><ele>217.0</ele><time>2026-04-12T14:00:24Z</time></trkpt><trkpt lat="45.77560869800254" lon="10.043412774414822"><ele>221.33333333333331</ele><time>2026-04-12T14:00:25Z</time></trkpt><trkpt lat="45.77550752978343" lon="10.043257093084986"><ele>225.66666666666669</ele><time>2026-04-12T14:00:26Z</time></trkpt><trkpt lat="45.775402758517345" lon="10.043097101027204"><ele>230.0</ele><time>2026-04-12T14:00:27Z</time></trkpt><trkpt lat="45.775300512056745" lon="10.04293782706319"><ele>230.0</ele><time>2026-04-12T14:00:28Z</time></trkpt><trkpt lat="45.7751959071839" lon="10.042779576306161"><ele>230.0</ele><time>2026-04-12T14:00:29Z</time></trkpt><trkpt lat="45.77509574498103" lon="10.042620176381275"><ele>230.0</ele><time>2026-04-12T14:00:30Z</time></trkpt><trkpt lat="45.775023895358615" lon="10.042446058460444"><ele>230.0</ele><time>2026-04-12T14:00:31Z</time></trkpt><trkpt lat="45.77496900104274" lon="10.042268550382778"><ele>225.0</ele><time>2026-04-12T14:00:32Z</time></trkpt><trkpt lat="45.774928034446646" lon="10.042082228027164"><ele>220.0</ele><time>2026-04-12T14:00:33Z</time></trkpt><trkpt lat="45.774903830148276" lon="10.041886156750495"><ele>215.0</ele><time>2026-04-12T14:00:34.02Z</time></trkpt><trkpt lat="45.77489000661475" lon="10.041690210343875"><ele>210.0</ele><time>2026-04-12T14:00:35.019Z</time></trkpt><trkpt lat="45.77487390134231" lon="10.041495696800709"><ele>208.33333333333331</ele><time>2026-04-12T14:00:36.022Z</time></trkpt><trkpt lat="45.774862030468626" lon="10.041305157789978"><ele>206.66666666666666</ele><time>2026-04-12T14:00:37Z</time></trkpt><trkpt lat="45.77480827170365" lon="10.041026418282241"><ele>205.0</ele><time>2026-04-12T14:00:38Z</time></trkpt><trkpt lat="45.77484057573373" lon="10.040810996619038"><ele>204.75</ele><time>2026-04-12T14:00:39Z</time></trkpt><trkpt lat="45.77485775273822" lon="10.04058484983966"><ele>204.5</ele><time>2026-04-12T14:00:40Z</time></trkpt><trkpt lat="45.77486442882479" lon="10.040363946974459"><ele>204.25</ele><time>2026-04-12T14:00:41Z</time></trkpt><trkpt lat="45.77491514582868" lon="10.040200079671022"><ele>204.0</ele><time>2026-04-12T14:00:42Z</time></trkpt><trkpt lat="45.774889482849936" lon="10.039992840160915"><ele>206.25</ele><time>2026-04-12T14:00:43Z</time></trkpt><trkpt lat="45.77486079166006" lon="10.039801950196038"><ele>208.5</ele><time>2026-04-12T14:00:44Z</time></trkpt><trkpt lat="45.774799157964985" lon="10.039612927498533"><ele>210.75</ele><time>2026-04-12T14:00:45Z</time></trkpt><trkpt lat="45.77471767378272" lon="10.039445078224013"><ele>213.0</ele><time>2026-04-12T14:00:46Z</time></trkpt><trkpt lat="45.774618842316016" lon="10.039280106991718"><ele>210.33333333333331</ele><time>2026-04-12T14:00:47Z</time></trkpt><trkpt lat="45.77451023200012" lon="10.039125518414698"><ele>207.66666666666666</ele><time>2026-04-12T14:00:48Z</time></trkpt><trkpt lat="45.774407719842834" lon="10.03897000330218"><ele>205.0</ele><time>2026-04-12T14:00:49Z</time></trkpt><trkpt lat="45.77429094883357" lon="10.038801050070052"><ele>205.0</ele><time>2026-04-12T14:00:50Z</time></trkpt><trkpt lat="45.77417664129253" lon="10.03863181315083"><ele>205.0</ele><time>2026-04-12T14:00:51Z</time></trkpt><trkpt lat="45.774062277318336" lon="10.038454768916605"><ele>205.0</ele><time>2026-04-12T14:00:52Z</time></trkpt><trkpt lat="45.77393756788513" lon="10.038279914902605"><ele>209.66666666666666</ele><time>2026-04-12T14:00:53Z</time></trkpt><trkpt lat="45.77381576764244" lon="10.038103747711611"><ele>214.33333333333331</ele><time>2026-04-12T14:00:54Z</time></trkpt><trkpt lat="45.773689657078016" lon="10.037933590560444"><ele>219.0</ele><time>2026-04-12T14:00:55Z</time></trkpt><trkpt lat="45.773577439214115" lon="10.03775615367561"><ele>216.0</ele><time>2026-04-12T14:00:56Z</time></trkpt><trkpt lat="45.77346489674932" lon="10.037581031387901"><ele>213.0</ele><time>2026-04-12T14:00:57Z</time></trkpt><trkpt lat="45.77336488105954" lon="10.037384195798726"><ele>210.0</ele><time>2026-04-12T14:00:58Z</time></trkpt><trkpt lat="45.773250284133596" lon="10.037210714814973"><ele>210.0</ele><time>2026-04-12T14:00:59Z</time></trkpt><trkpt lat="45.773124654665516" lon="10.037051503529588"><ele>210.0</ele><time>2026-04-12T14:01:00.001Z</time></trkpt><trkpt lat="45.773016926488175" lon="10.03688199786839"><ele>210.0</ele><time>2026-04-12T14:01:01.001Z</time></trkpt><trkpt lat="45.77291275418725" lon="10.036723752878316"><ele>211.25</ele><time>2026-04-12T14:01:02.001Z</time></trkpt><trkpt lat="45.772810300571" lon="10.036570392630601"><ele>212.5</ele><time>2026-04-12T14:01:03.001Z</time></trkpt><trkpt lat="45.77270809704184" lon="10.036437769945133"><ele>213.75</ele><time>2026-04-12T14:01:04.001Z</time></trkpt><trkpt lat="45.77259113573948" lon="10.03631840999458"><ele>215.0</ele><time>2026-04-12T14:01:05.001Z</time></trkpt><trkpt lat="45.77246729636988" lon="10.03620197921612"><ele>210.0</ele><time>2026-04-12T14:01:06.001Z</time></trkpt><trkpt lat="45.77232784026022" lon="10.036110808287251"><ele>205.0</ele><time>2026-04-12T14:01:07.001Z</time></trkpt><trkpt lat="45.77218545642432" lon="10.036035230566547"><ele>200.0</ele><time>2026-04-12T14:01:08.001Z</time></trkpt><trkpt lat="45.77203396147563" lon="10.035960114042371"><ele>200.0</ele><time>2026-04-12T14:01:09.001Z</time></trkpt><trkpt lat="45.77188535615351" lon="10.035890736135233"><ele>200.0</ele><time>2026-04-12T14:01:10.001Z</time></trkpt><trkpt lat="45.77172727559165" lon="10.035816270706718"><ele>200.0</ele><time>2026-04-12T14:01:11.001Z</time></trkpt><trkpt lat="45.77157150534643" lon="10.035746078846095"><ele>202.33333333333334</ele><time>2026-04-12T14:01:12.001Z</time></trkpt><trkpt lat="45.77140909585014" lon="10.035697080817881"><ele>204.66666666666669</ele><time>2026-04-12T14:01:13.001Z</time></trkpt><trkpt lat="45.77125325458262" lon="10.035618061515807"><ele>207.0</ele><time>2026-04-12T14:01:14.001Z</time></trkpt><trkpt lat="45.77109503126972" lon="10.035548767634955"><ele>209.33333333333331</ele><time>2026-04-12T14:01:15.001Z</time></trkpt><trkpt lat="45.770932729314865" lon="10.035489724751834"><ele>211.66666666666666</ele><time>2026-04-12T14:01:16.001Z</time></trkpt><trkpt lat="45.77076573263494" lon="10.03542727347412"><ele>214.0</ele><time>2026-04-12T14:01:17.001Z</time></trkpt><trkpt lat="45.77059828027133" lon="10.035403592430509"><ele>214.0</ele><time>2026-04-12T14:01:18.001Z</time></trkpt><trkpt lat="45.770433480263925" lon="10.035384795267715"><ele>214.0</ele><time>2026-04-12T14:01:19.001Z</time></trkpt><trkpt lat="45.77026572845181" lon="10.035371931540244"><ele>214.0</ele><time>2026-04-12T14:01:20.001Z</time></trkpt><trkpt lat="45.77010181687696" lon="10.035360286787059"><ele>211.33333333333331</ele><time>2026-04-12T14:01:21.001Z</time></trkpt><trkpt lat="45.769934309241314" lon="10.035320305026673"><ele>208.66666666666669</ele><time>2026-04-12T14:01:22.001Z</time></trkpt><trkpt lat="45.76978695693265" lon="10.03525468020318"><ele>206.0</ele><time>2026-04-12T14:01:23.001Z</time></trkpt><trkpt lat="45.76964556169607" lon="10.035154457418297"><ele>206.0</ele><time>2026-04-12T14:01:24.001Z</time></trkpt><trkpt lat="45.769498107141004" lon="10.03505485969785"><ele>206.0</ele><time>2026-04-12T14:01:25.001Z</time></trkpt><trkpt lat="45.769348601347936" lon="10.034965108991765"><ele>206.0</ele><time>2026-04-12T14:01:26.001Z</time></trkpt><trkpt lat="45.76919027334059" lon="10.034931832536763"><ele>215.0</ele><time>2026-04-12T14:01:27.001Z</time></trkpt><trkpt lat="45.76903428378047" lon="10.034918072876003"><ele>224.0</ele><time>2026-04-12T14:01:28.001Z</time></trkpt><trkpt lat="45.76887614031001" lon="10.03490651225605"><ele>233.0</ele><time>2026-04-12T14:01:29.001Z</time></trkpt><trkpt lat="45.76871808582911" lon="10.034897569673998"><ele>233.0</ele><time>2026-04-12T14:01:30.001Z</time></trkpt><trkpt lat="45.768559092644374" lon="10.034910720594251"><ele>233.0</ele><time>2026-04-12T14:01:31.001Z</time></trkpt><trkpt lat="45.768408491466694" lon="10.034963218028109"><ele>233.0</ele><time>2026-04-12T14:01:32.001Z</time></trkpt><trkpt lat="45.768262886875604" lon="10.035044611917957"><ele>225.75</ele><time>2026-04-12T14:01:33.001Z</time></trkpt><trkpt lat="45.768128945723404" lon="10.035147982326233"><ele>218.5</ele><time>2026-04-12T14:01:34.001Z</time></trkpt><trkpt lat="45.76799092066382" lon="10.035237524827592"><ele>211.25</ele><time>2026-04-12T14:01:35.001Z</time></trkpt><trkpt lat="45.76786836177328" lon="10.035334629601723"><ele>204.0</ele><time>2026-04-12T14:01:36.001Z</time></trkpt><trkpt lat="45.76775160222314" lon="10.03543149845854"><ele>208.25</ele><time>2026-04-12T14:01:37.001Z</time></trkpt><trkpt lat="45.76764306877989" lon="10.035520711905892"><ele>212.5</ele><time>2026-04-12T14:01:38.001Z</time></trkpt><trkpt lat="45.767539617001496" lon="10.035601022616673"><ele>216.75</ele><time>2026-04-12T14:01:39.001Z</time></trkpt><trkpt lat="45.767434863694106" lon="10.035692034127196"><ele>221.0</ele><time>2026-04-12T14:01:40.001Z</time></trkpt><trkpt lat="45.767313341541694" lon="10.035733486502068"><ele>221.0</ele><time>2026-04-12T14:01:41.001Z</time></trkpt><trkpt lat="45.76719972338603" lon="10.035705407277707"><ele>221.0</ele><time>2026-04-12T14:01:42.001Z</time></trkpt><trkpt lat="45.76708582584693" lon="10.035666610074376"><ele>221.0</ele><time>2026-04-12T14:01:43.001Z</time></trkpt><trkpt lat="45.76696544109737" lon="10.035640873991557"><ele>221.0</ele><time>2026-04-12T14:01:44.001Z</time></trkpt><trkpt lat="45.76685145432996" lon="10.035612118028638"><ele>223.25</ele><time>2026-04-12T14:01:45.001Z</time></trkpt><trkpt lat="45.76673592789485" lon="10.035582339226877"><ele>225.5</ele><time>2026-04-12T14:01:46.001Z</time></trkpt><trkpt lat="45.76661537858444" lon="10.035552809794037"><ele>227.75</ele><time>2026-04-12T14:01:47.001Z</time></trkpt><trkpt lat="45.76649273174325" lon="10.035530842192482"><ele>230.0</ele><time>2026-04-12T14:01:48.001Z</time></trkpt><trkpt lat="45.766360736791874" lon="10.035536057708718"><ele>230.0</ele><time>2026-04-12T14:01:49.001Z</time></trkpt><trkpt lat="45.76622259908558" lon="10.03554539475091"><ele>230.0</ele><time>2026-04-12T14:01:50.001Z</time></trkpt><trkpt lat="45.76608867326672" lon="10.035580722580852"><ele>230.0</ele><time>2026-04-12T14:01:51.001Z</time></trkpt><trkpt lat="45.76595825959932" lon="10.03562841764757"><ele>230.0</ele><time>2026-04-12T14:01:52.001Z</time></trkpt><trkpt lat="45.76583209048022" lon="10.035692656146985"><ele>231.25</ele><time>2026-04-12T14:01:53.001Z</time></trkpt><trkpt lat="45.76570182775253" lon="10.03572783932449"><ele>232.5</ele><time>2026-04-12T14:01:54.001Z</time></trkpt><trkpt lat="45.76556941254229" lon="10.035716603894194"><ele>233.75</ele><time>2026-04-12T14:01:55.001Z</time></trkpt><trkpt lat="45.765440461851455" lon="10.03569905765182"><ele>235.0</ele><time>2026-04-12T14:01:56.001Z</time></trkpt><trkpt lat="45.76531666838163" lon="10.035667582104942"><ele>236.75</ele><time>2026-04-12T14:01:57.001Z</time></trkpt><trkpt lat="45.76518592740835" lon="10.035678416624089"><ele>238.5</ele><time>2026-04-12T14:01:58.001Z</time></trkpt><trkpt lat="45.76506052294391" lon="10.035686443346645"><ele>240.25</ele><time>2026-04-12T14:01:59.001Z</time></trkpt><trkpt lat="45.764940430649595" lon="10.035748291255484"><ele>242.0</ele><time>2026-04-12T14:02:00.001Z</time></trkpt><trkpt lat="45.764838202604146" lon="10.035851548989136"><ele>233.0</ele><time>2026-04-12T14:02:01.001Z</time></trkpt><trkpt lat="45.76473899598304" lon="10.035936151432612"><ele>224.0</ele><time>2026-04-12T14:02:02.001Z</time></trkpt><trkpt lat="45.764633353800356" lon="10.036031768618692"><ele>215.0</ele><time>2026-04-12T14:02:03.001Z</time></trkpt><trkpt lat="45.76450806446012" lon="10.036127875617606"><ele>206.0</ele><time>2026-04-12T14:02:04.001Z</time></trkpt><trkpt lat="45.76436659196948" lon="10.036229828546295"><ele>215.66666666666669</ele><time>2026-04-12T14:02:05.001Z</time></trkpt><trkpt lat="45.76421032696736" lon="10.036341834163078"><ele>225.33333333333331</ele><time>2026-04-12T14:02:06.001Z</time></trkpt><trkpt lat="45.764058169187756" lon="10.036454814783164"><ele>235.0</ele><time>2026-04-12T14:02:07.001Z</time></trkpt><trkpt lat="45.76392171650047" lon="10.036556617822368"><ele>233.75</ele><time>2026-04-12T14:02:08.001Z</time></trkpt><trkpt lat="45.76379546671419" lon="10.036650142956644"><ele>232.5</ele><time>2026-04-12T14:02:09.001Z</time></trkpt><trkpt lat="45.76366856177832" lon="10.03674222963987"><ele>231.25</ele><time>2026-04-12T14:02:10.001Z</time></trkpt><trkpt lat="45.763545250646665" lon="10.03682403221408"><ele>230.0</ele><time>2026-04-12T14:02:11.001Z</time></trkpt><trkpt lat="45.76341662844514" lon="10.036904147928317"><ele>230.0</ele><time>2026-04-12T14:02:12.001Z</time></trkpt><trkpt lat="45.76329445469211" lon="10.036962655204533"><ele>230.0</ele><time>2026-04-12T14:02:13.001Z</time></trkpt><trkpt lat="45.76316641398053" lon="10.037004207217656"><ele>230.0</ele><time>2026-04-12T14:02:14Z</time></trkpt><trkpt lat="45.763021205724236" lon="10.037020919586986"><ele>230.0</ele><time>2026-04-12T14:02:15Z</time></trkpt><trkpt lat="45.76285738898228" lon="10.037020582991996"><ele>234.66666666666669</ele><time>2026-04-12T14:02:16Z</time></trkpt><trkpt lat="45.762685698829976" lon="10.037019541135656"><ele>239.33333333333331</ele><time>2026-04-12T14:02:17Z</time></trkpt><trkpt lat="45.76250841889367" lon="10.037063050704102"><ele>244.0</ele><time>2026-04-12T14:02:18Z</time></trkpt><trkpt lat="45.76232003534662" lon="10.037057896711067"><ele>244.0</ele><time>2026-04-12T14:02:19Z</time></trkpt><trkpt lat="45.76213328878712" lon="10.037037098031975"><ele>244.0</ele><time>2026-04-12T14:02:20Z</time></trkpt><trkpt lat="45.761956211679866" lon="10.037025402190933"><ele>244.0</ele><time>2026-04-12T14:02:21Z</time></trkpt><trkpt lat="45.7617898769127" lon="10.036984027948728"><ele>242.33333333333331</ele><time>2026-04-12T14:02:22Z</time></trkpt><trkpt lat="45.761630660392306" lon="10.036969614991705"><ele>240.66666666666669</ele><time>2026-04-12T14:02:23Z</time></trkpt><trkpt lat="45.76148238483861" lon="10.036944678931185"><ele>239.0</ele><time>2026-04-12T14:02:24Z</time></trkpt><trkpt lat="45.76134536383582" lon="10.036892670794769"><ele>239.0</ele><time>2026-04-12T14:02:25Z</time></trkpt><trkpt lat="45.761218065308036" lon="10.036826099621267"><ele>239.0</ele><time>2026-04-12T14:02:26Z</time></trkpt><trkpt lat="45.761097706815484" lon="10.036752640477733"><ele>239.0</ele><time>2026-04-12T14:02:27Z</time></trkpt><trkpt lat="45.76096988265115" lon="10.036708771682582"><ele>239.0</ele><time>2026-04-12T14:02:28Z</time></trkpt><trkpt lat="45.760850769295715" lon="10.036722487550922"><ele>235.0</ele><time>2026-04-12T14:02:29Z</time></trkpt><trkpt lat="45.76073156558275" lon="10.036720503626176"><ele>231.0</ele><time>2026-04-12T14:02:30Z</time></trkpt><trkpt lat="45.76061913433277" lon="10.036805661663312"><ele>227.0</ele><time>2026-04-12T14:02:31Z</time></trkpt><trkpt lat="45.760539436738966" lon="10.03693399739809"><ele>223.0</ele><time>2026-04-12T14:02:32Z</time></trkpt><trkpt lat="45.76046048058512" lon="10.037058747421991"><ele>223.0</ele><time>2026-04-12T14:02:33Z</time></trkpt><trkpt lat="45.760368767389885" lon="10.03715377894762"><ele>223.0</ele><time>2026-04-12T14:02:34Z</time></trkpt><trkpt lat="45.76026193846043" lon="10.037231884559425"><ele>223.0</ele><time>2026-04-12T14:02:35Z</time></trkpt><trkpt lat="45.76013120692483" lon="10.037260475295076"><ele>223.0</ele><time>2026-04-12T14:02:36Z</time></trkpt><trkpt lat="45.7599521638138" lon="10.0372605546705"><ele>234.33333333333331</ele><time>2026-04-12T14:02:37Z</time></trkpt><trkpt lat="45.75978580345821" lon="10.037264521227806"><ele>245.66666666666669</ele><time>2026-04-12T14:02:38Z</time></trkpt><trkpt lat="45.759612385923084" lon="10.037264521227243"><ele>257.0</ele><time>2026-04-12T14:02:39Z</time></trkpt><trkpt lat="45.75942980918368" lon="10.03726608923159"><ele>261.0</ele><time>2026-04-12T14:02:40Z</time></trkpt><trkpt lat="45.759245181229666" lon="10.037271069083191"><ele>265.0</ele><time>2026-04-12T14:02:41Z</time></trkpt><trkpt lat="45.759054142987075" lon="10.037272757398345"><ele>269.0</ele><time>2026-04-12T14:02:42Z</time></trkpt><trkpt lat="45.75886972598663" lon="10.037262920520089"><ele>269.0</ele><time>2026-04-12T14:02:43Z</time></trkpt><trkpt lat="45.75867608436477" lon="10.037246932917322"><ele>269.0</ele><time>2026-04-12T14:02:44Z</time></trkpt><trkpt lat="45.75848081775339" lon="10.037240421219222"><ele>269.0</ele><time>2026-04-12T14:02:45Z</time></trkpt><trkpt lat="45.75828402766783" lon="10.03724427177205"><ele>269.6666666666667</ele><time>2026-04-12T14:02:46Z</time></trkpt><trkpt lat="45.758086226160714" lon="10.037274450337968"><ele>270.3333333333333</ele><time>2026-04-12T14:02:47Z</time></trkpt><trkpt lat="45.75788837394582" lon="10.037361621290332"><ele>271.0</ele><time>2026-04-12T14:02:48Z</time></trkpt><trkpt lat="45.757703606838525" lon="10.037471246156878"><ele>254.66666666666666</ele><time>2026-04-12T14:02:49Z</time></trkpt><trkpt lat="45.75751985775365" lon="10.037597294252913"><ele>238.33333333333331</ele><time>2026-04-12T14:02:50Z</time></trkpt><trkpt lat="45.7573455459917" lon="10.037720561078439"><ele>222.0</ele><time>2026-04-12T14:02:51Z</time></trkpt><trkpt lat="45.7571799961627" lon="10.037824745987136"><ele>222.0</ele><time>2026-04-12T14:02:52Z</time></trkpt><trkpt lat="45.75700996273858" lon="10.03788827565672"><ele>222.0</ele><time>2026-04-12T14:02:53Z</time></trkpt><trkpt lat="45.75682079697872" lon="10.037940152210773"><ele>222.0</ele><time>2026-04-12T14:02:54Z</time></trkpt><trkpt lat="45.75662918860148" lon="10.037979757639592"><ele>229.0</ele><time>2026-04-12T14:02:55Z</time></trkpt><trkpt lat="45.75642598257673" lon="10.038016362022182"><ele>236.0</ele><time>2026-04-12T14:02:56Z</time></trkpt><trkpt lat="45.75621750515083" lon="10.038051619555679"><ele>243.0</ele><time>2026-04-12T14:02:57Z</time></trkpt><trkpt lat="45.75600192772446" lon="10.0380862734814"><ele>244.0</ele><time>2026-04-12T14:02:58Z</time></trkpt><trkpt lat="45.75579123266678" lon="10.038122328814257"><ele>245.0</ele><time>2026-04-12T14:02:59Z</time></trkpt><trkpt lat="45.75559024596893" lon="10.038161038100498"><ele>246.0</ele><time>2026-04-12T14:03:00Z</time></trkpt><trkpt lat="45.75538688763024" lon="10.038205422908826"><ele>245.0</ele><time>2026-04-12T14:03:01Z</time></trkpt><trkpt lat="45.75517998697243" lon="10.038272497040133"><ele>244.0</ele><time>2026-04-12T14:03:02Z</time></trkpt><trkpt lat="45.75497253131113" lon="10.038380172327921"><ele>243.0</ele><time>2026-04-12T14:03:03Z</time></trkpt><trkpt lat="45.754763365530735" lon="10.038506944463945"><ele>228.5</ele><time>2026-04-12T14:03:04Z</time></trkpt><trkpt lat="45.754549008498095" lon="10.038630518201417"><ele>214.0</ele><time>2026-04-12T14:03:05Z</time></trkpt><trkpt lat="45.754333435612494" lon="10.038759011714118"><ele>214.0</ele><time>2026-04-12T14:03:06Z</time></trkpt><trkpt lat="45.754126888638766" lon="10.038894787129195"><ele>214.0</ele><time>2026-04-12T14:03:07Z</time></trkpt><trkpt lat="45.75392621525008" lon="10.039044148913014"><ele>215.66666666666666</ele><time>2026-04-12T14:03:08Z</time></trkpt><trkpt lat="45.75373951803767" lon="10.039215732371384"><ele>217.33333333333331</ele><time>2026-04-12T14:03:09Z</time></trkpt><trkpt lat="45.75355246013967" lon="10.039361999923685"><ele>219.0</ele><time>2026-04-12T14:03:10Z</time></trkpt><trkpt lat="45.7533532303335" lon="10.039453426552154"><ele>219.0</ele><time>2026-04-12T14:03:11Z</time></trkpt><trkpt lat="45.753147235575035" lon="10.039549558533382"><ele>219.0</ele><time>2026-04-12T14:03:12Z</time></trkpt><trkpt lat="45.75294539881791" lon="10.039624974987069"><ele>219.0</ele><time>2026-04-12T14:03:13.001Z</time></trkpt><trkpt lat="45.75274738009451" lon="10.039685253627747"><ele>231.0</ele><time>2026-04-12T14:03:14.001Z</time></trkpt><trkpt lat="45.752559281187416" lon="10.039734263211246"><ele>243.0</ele><time>2026-04-12T14:03:15.001Z</time></trkpt><trkpt lat="45.75238086391163" lon="10.039770273498954"><ele>255.0</ele><time>2026-04-12T14:03:16.001Z</time></trkpt><trkpt lat="45.75220849096942" lon="10.03979949783434"><ele>255.0</ele><time>2026-04-12T14:03:17.001Z</time></trkpt><trkpt lat="45.75203648485427" lon="10.039830006724591"><ele>255.0</ele><time>2026-04-12T14:03:18.001Z</time></trkpt><trkpt lat="45.751869651233214" lon="10.039879381740947"><ele>255.0</ele><time>2026-04-12T14:03:19.001Z</time></trkpt><trkpt lat="45.75171528929965" lon="10.039968721947584"><ele>238.0</ele><time>2026-04-12T14:03:20.001Z</time></trkpt><trkpt lat="45.751550725588615" lon="10.04004906085333"><ele>221.0</ele><time>2026-04-12T14:03:21.001Z</time></trkpt><trkpt lat="45.75139993717534" lon="10.040129331072107"><ele>204.0</ele><time>2026-04-12T14:03:22.001Z</time></trkpt><trkpt lat="45.75125082685121" lon="10.040231098002215"><ele>204.0</ele><time>2026-04-12T14:03:23.001Z</time></trkpt><trkpt lat="45.751111504144866" lon="10.040360630237593"><ele>204.0</ele><time>2026-04-12T14:03:24.001Z</time></trkpt><trkpt lat="45.750972107282706" lon="10.040482371510796"><ele>204.0</ele><time>2026-04-12T14:03:25.001Z</time></trkpt><trkpt lat="45.7508420057578" lon="10.040618843251805"><ele>201.25</ele><time>2026-04-12T14:03:26.001Z</time></trkpt><trkpt lat="45.750718115647174" lon="10.040750541222119"><ele>198.5</ele><time>2026-04-12T14:03:27.001Z</time></trkpt><trkpt lat="45.75060010893146" lon="10.040870383980746"><ele>195.75</ele><time>2026-04-12T14:03:28.001Z</time></trkpt><trkpt lat="45.75048441774037" lon="10.040984954042747"><ele>193.0</ele><time>2026-04-12T14:03:29.001Z</time></trkpt><trkpt lat="45.75037038871706" lon="10.04110821295883"><ele>193.0</ele><time>2026-04-12T14:03:30.001Z</time></trkpt><trkpt lat="45.75023500586623" lon="10.041191871426802"><ele>193.0</ele><time>2026-04-12T14:03:31.001Z</time></trkpt><trkpt lat="45.75008800876011" lon="10.0412481326172"><ele>193.0</ele><time>2026-04-12T14:03:32.001Z</time></trkpt><trkpt lat="45.74993413427384" lon="10.041305433570026"><ele>192.0</ele><time>2026-04-12T14:03:33.001Z</time></trkpt><trkpt lat="45.749799048647404" lon="10.041375330958127"><ele>191.0</ele><time>2026-04-12T14:03:34.001Z</time></trkpt><trkpt lat="45.74967402033043" lon="10.041469434159724"><ele>190.0</ele><time>2026-04-12T14:03:35.001Z</time></trkpt><trkpt lat="45.74955824722588" lon="10.041612030300696"><ele>189.0</ele><time>2026-04-12T14:03:36.001Z</time></trkpt><trkpt lat="45.749461569250656" lon="10.041779398638578"><ele>196.75</ele><time>2026-04-12T14:03:37.001Z</time></trkpt><trkpt lat="45.74935177931909" lon="10.041924304958929"><ele>204.5</ele><time>2026-04-12T14:03:38.001Z</time></trkpt><trkpt lat="45.74926183355019" lon="10.042086076095954"><ele>212.25</ele><time>2026-04-12T14:03:39.001Z</time></trkpt><trkpt lat="45.749184750730684" lon="10.042243735673821"><ele>220.0</ele><time>2026-04-12T14:03:40.001Z</time></trkpt><trkpt lat="45.74907147110584" lon="10.042368838247569"><ele>212.0</ele><time>2026-04-12T14:03:41.001Z</time></trkpt><trkpt lat="45.7489536052897" lon="10.042496691456071"><ele>204.0</ele><time>2026-04-12T14:03:42.001Z</time></trkpt><trkpt lat="45.748821885889676" lon="10.042591525207358"><ele>196.0</ele><time>2026-04-12T14:03:43.001Z</time></trkpt><trkpt lat="45.748665695127606" lon="10.042678303996487"><ele>201.75</ele><time>2026-04-12T14:03:44.001Z</time></trkpt><trkpt lat="45.74851284606451" lon="10.04272332470319"><ele>207.5</ele><time>2026-04-12T14:03:45.001Z</time></trkpt><trkpt lat="45.74838077754655" lon="10.042794189517553"><ele>213.25</ele><time>2026-04-12T14:03:46.001Z</time></trkpt><trkpt lat="45.7482490000211" lon="10.042903150271862"><ele>219.0</ele><time>2026-04-12T14:03:47.001Z</time></trkpt><trkpt lat="45.74812692495464" lon="10.043038869548107"><ele>219.0</ele><time>2026-04-12T14:03:48.001Z</time></trkpt><trkpt lat="45.74800988014947" lon="10.043239410694621"><ele>219.0</ele><time>2026-04-12T14:03:49.001Z</time></trkpt><trkpt lat="45.7478910052362" lon="10.0434578409377"><ele>219.0</ele><time>2026-04-12T14:03:50.001Z</time></trkpt><trkpt lat="45.74775211982694" lon="10.04366917857861"><ele>217.0</ele><time>2026-04-12T14:03:51.001Z</time></trkpt><trkpt lat="45.74760592644094" lon="10.043866625543384"><ele>215.0</ele><time>2026-04-12T14:03:52.001Z</time></trkpt><trkpt lat="45.747467201720596" lon="10.04408947270223"><ele>213.0</ele><time>2026-04-12T14:03:53.001Z</time></trkpt><trkpt lat="45.74733612262598" lon="10.044293403087893"><ele>207.0</ele><time>2026-04-12T14:03:54.001Z</time></trkpt><trkpt lat="45.747233582744975" lon="10.04450533468922"><ele>201.0</ele><time>2026-04-12T14:03:55.001Z</time></trkpt><trkpt lat="45.747159868848264" lon="10.044744042407633"><ele>195.0</ele><time>2026-04-12T14:03:56.001Z</time></trkpt><trkpt lat="45.747102526229334" lon="10.044997760731494"><ele>192.0</ele><time>2026-04-12T14:03:57.001Z</time></trkpt><trkpt lat="45.747048184199784" lon="10.045234204052516"><ele>189.0</ele><time>2026-04-12T14:03:58.001Z</time></trkpt><trkpt lat="45.74699614872929" lon="10.045465540441288"><ele>186.0</ele><time>2026-04-12T14:03:59.001Z</time></trkpt><trkpt lat="45.74694355934519" lon="10.04567873884301"><ele>185.0</ele><time>2026-04-12T14:04:00.001Z</time></trkpt><trkpt lat="45.746888054122365" lon="10.045881474644137"><ele>184.0</ele><time>2026-04-12T14:04:01.001Z</time></trkpt><trkpt lat="45.74680792457878" lon="10.046070688100992"><ele>183.0</ele><time>2026-04-12T14:04:02.001Z</time></trkpt><trkpt lat="45.74671087339184" lon="10.046245701925926"><ele>185.66666666666666</ele><time>2026-04-12T14:04:03.001Z</time></trkpt><trkpt lat="45.74658971020561" lon="10.04641252722833"><ele>188.33333333333331</ele><time>2026-04-12T14:04:04.001Z</time></trkpt><trkpt lat="45.74646969287122" lon="10.046584436682688"><ele>191.0</ele><time>2026-04-12T14:04:05.001Z</time></trkpt><trkpt lat="45.74635580902564" lon="10.046757887698671"><ele>191.0</ele><time>2026-04-12T14:04:06.001Z</time></trkpt><trkpt lat="45.746235242577114" lon="10.046915277150948"><ele>191.0</ele><time>2026-04-12T14:04:07.001Z</time></trkpt><trkpt lat="45.74610615564068" lon="10.04705774806102"><ele>191.0</ele><time>2026-04-12T14:04:08.001Z</time></trkpt><trkpt lat="45.74596072970909" lon="10.047180446543424"><ele>204.33333333333331</ele><time>2026-04-12T14:04:09.001Z</time></trkpt><trkpt lat="45.74579736569244" lon="10.047274525859253"><ele>217.66666666666666</ele><time>2026-04-12T14:04:10.001Z</time></trkpt><trkpt lat="45.74561820426011" lon="10.047355471919582"><ele>231.0</ele><time>2026-04-12T14:04:11Z</time></trkpt><trkpt lat="45.74542413825518" lon="10.047426792482085"><ele>223.33333333333331</ele><time>2026-04-12T14:04:12Z</time></trkpt><trkpt lat="45.74522892500797" lon="10.047499365450635"><ele>215.66666666666666</ele><time>2026-04-12T14:04:13Z</time></trkpt><trkpt lat="45.74502959394232" lon="10.047568714345836"><ele>208.0</ele><time>2026-04-12T14:04:14Z</time></trkpt><trkpt lat="45.74483865245992" lon="10.047675498967966"><ele>208.0</ele><time>2026-04-12T14:04:15Z</time></trkpt><trkpt lat="45.74465360117166" lon="10.047829280237583"><ele>208.0</ele><time>2026-04-12T14:04:16Z</time></trkpt><trkpt lat="45.744479065746646" lon="10.048010023594035"><ele>208.0</ele><time>2026-04-12T14:04:17Z</time></trkpt><trkpt lat="45.74428897348339" lon="10.048174631374508"><ele>204.0</ele><time>2026-04-12T14:04:18Z</time></trkpt><trkpt lat="45.74409576577425" lon="10.048339876766418"><ele>200.0</ele><time>2026-04-12T14:04:19Z</time></trkpt><trkpt lat="45.74387983763984" lon="10.048473614493625"><ele>200.0</ele><time>2026-04-12T14:04:20Z</time></trkpt><trkpt lat="45.743680250934126" lon="10.048623894601048"><ele>200.0</ele><time>2026-04-12T14:04:21Z</time></trkpt><trkpt lat="45.74348782786805" lon="10.048815439448799"><ele>199.0</ele><time>2026-04-12T14:04:22Z</time></trkpt><trkpt lat="45.74333001293363" lon="10.049014052342436"><ele>198.0</ele><time>2026-04-12T14:04:23Z</time></trkpt><trkpt lat="45.74316603212388" lon="10.049171503978616"><ele>197.0</ele><time>2026-04-12T14:04:24Z</time></trkpt><trkpt lat="45.743010550489856" lon="10.049296693205028"><ele>197.0</ele><time>2026-04-12T14:04:25Z</time></trkpt><trkpt lat="45.742859563602764" lon="10.04941780958067"><ele>197.0</ele><time>2026-04-12T14:04:26Z</time></trkpt><trkpt lat="45.74270059837798" lon="10.049495462915628"><ele>197.0</ele><time>2026-04-12T14:04:27Z</time></trkpt><trkpt lat="45.74253047308279" lon="10.049535083343997"><ele>206.33333333333334</ele><time>2026-04-12T14:04:28Z</time></trkpt><trkpt lat="45.742359334288516" lon="10.049572420108737"><ele>215.66666666666669</ele><time>2026-04-12T14:04:29Z</time></trkpt><trkpt lat="45.7421772484673" lon="10.049600420190792"><ele>225.0</ele><time>2026-04-12T14:04:30.018Z</time></trkpt><trkpt lat="45.741994988968116" lon="10.049643178812293"><ele>234.66666666666669</ele><time>2026-04-12T14:04:31.019Z</time></trkpt><trkpt lat="45.741806206805606" lon="10.049670817538642"><ele>244.33333333333334</ele><time>2026-04-12T14:04:32.017Z</time></trkpt><trkpt lat="45.741614783909306" lon="10.049700484843004"><ele>254.0</ele><time>2026-04-12T14:04:33.015Z</time></trkpt><trkpt lat="45.741421251835924" lon="10.049731029014817"><ele>303.0</ele><time>2026-04-12T14:04:34.017Z</time></trkpt><trkpt lat="45.740516601593676" lon="10.049903689016967"><ele>303.0</ele><time>2026-04-12T14:04:38.794Z</time></trkpt><trkpt lat="45.740324366064854" lon="10.049921303550004"><ele>303.0</ele><time>2026-04-12T14:04:39.794Z</time></trkpt><trkpt lat="45.74013093826315" lon="10.049915207847858"><ele>303.0</ele><time>2026-04-12T14:04:40.793Z</time></trkpt><trkpt lat="45.73993954449302" lon="10.049958936423458"><ele>299.6666666666667</ele><time>2026-04-12T14:04:41.794Z</time></trkpt><trkpt lat="45.73974608131392" lon="10.049961538956333"><ele>296.33333333333337</ele><time>2026-04-12T14:04:42.794Z</time></trkpt><trkpt lat="45.73955409097033" lon="10.04999463378773"><ele>293.0</ele><time>2026-04-12T14:04:43.794Z</time></trkpt><trkpt lat="45.73936305348967" lon="10.050037479813586"><ele>304.6666666666667</ele><time>2026-04-12T14:04:44.793Z</time></trkpt><trkpt lat="45.73917620140273" lon="10.050110304471088"><ele>316.3333333333333</ele><time>2026-04-12T14:04:45.794Z</time></trkpt><trkpt lat="45.73898696425691" lon="10.050162982620348"><ele>328.0</ele><time>2026-04-12T14:04:46.794Z</time></trkpt><trkpt lat="45.73879839779761" lon="10.05021959958945"><ele>328.0</ele><time>2026-04-12T14:04:47.793Z</time></trkpt><trkpt lat="45.738609909154505" lon="10.05027883516578"><ele>328.0</ele><time>2026-04-12T14:04:48.795Z</time></trkpt><trkpt lat="45.738418326505034" lon="10.050316257145022"><ele>328.0</ele><time>2026-04-12T14:04:49.794Z</time></trkpt><trkpt lat="45.738233907507635" lon="10.050400606835423"><ele>366.66666666666663</ele><time>2026-04-12T14:04:50.794Z</time></trkpt><trkpt lat="45.73804607435329" lon="10.050461687741473"><ele>405.3333333333333</ele><time>2026-04-12T14:04:51.794Z</time></trkpt><trkpt lat="45.73785434096212" lon="10.050499657933797"><ele>444.0</ele><time>2026-04-12T14:04:52.794Z</time></trkpt><trkpt lat="45.73767003925451" lon="10.050583969479332"><ele>444.0</ele><time>2026-04-12T14:04:53.794Z</time></trkpt><trkpt lat="45.73748222518592" lon="10.050646710512567"><ele>444.0</ele><time>2026-04-12T14:04:54.794Z</time></trkpt><trkpt lat="45.737295252245865" lon="10.050712726917569"><ele>444.0</ele><time>2026-04-12T14:04:55.793Z</time></trkpt><trkpt lat="45.73710436747865" lon="10.050762463589518"><ele>366.3333333333333</ele><time>2026-04-12T14:04:56.795Z</time></trkpt><trkpt lat="45.73692504523148" lon="10.050867041212319"><ele>288.66666666666663</ele><time>2026-04-12T14:04:57.794Z</time></trkpt><trkpt lat="45.7368595" lon="10.0508995"><ele>211.0</ele><time>2026-04-12T14:04:58.795Z</time></trkpt><trkpt lat="45.732399048326286" lon="10.052501214677516"><ele>214.5</ele><time>2026-04-12T14:05:30Z</time></trkpt><trkpt lat="45.73225788527553" lon="10.052445431667547"><ele>218.0</ele><time>2026-04-12T14:05:31Z</time></trkpt><trkpt lat="45.73213164940438" lon="10.05236372358944"><ele>221.5</ele><time>2026-04-12T14:05:32Z</time></trkpt><trkpt lat="45.73200764887431" lon="10.052279991499367"><ele>225.0</ele><time>2026-04-12T14:05:33Z</time></trkpt><trkpt lat="45.73187471078083" lon="10.052186293465388"><ele>225.0</ele><time>2026-04-12T14:05:34Z</time></trkpt><trkpt lat="45.73173284648693" lon="10.052113236567298"><ele>225.0</ele><time>2026-04-12T14:05:35Z</time></trkpt><trkpt lat="45.73159262767842" lon="10.052023045539844"><ele>225.0</ele><time>2026-04-12T14:05:36Z</time></trkpt><trkpt lat="45.731464242642176" lon="10.051919211628388"><ele>225.0</ele><time>2026-04-12T14:05:37Z</time></trkpt><trkpt lat="45.731344126407045" lon="10.051808328292548"><ele>225.0</ele><time>2026-04-12T14:05:38Z</time></trkpt><trkpt lat="45.73124318735016" lon="10.051713708888975"><ele>225.0</ele><time>2026-04-12T14:05:39Z</time></trkpt><trkpt lat="45.73113619239893" lon="10.051621759657438"><ele>225.0</ele><time>2026-04-12T14:05:40Z</time></trkpt><trkpt lat="45.7310415592559" lon="10.051566482334323"><ele>224.75</ele><time>2026-04-12T14:05:41Z</time></trkpt><trkpt lat="45.730942968527565" lon="10.051481368557095"><ele>224.5</ele><time>2026-04-12T14:05:42Z</time></trkpt><trkpt lat="45.730830632683194" lon="10.051410423600377"><ele>224.25</ele><time>2026-04-12T14:05:43Z</time></trkpt><trkpt lat="45.73072283466485" lon="10.05131081779017"><ele>224.0</ele><time>2026-04-12T14:05:44Z</time></trkpt><trkpt lat="45.730626911074786" lon="10.051198869771024"><ele>224.0</ele><time>2026-04-12T14:05:45Z</time></trkpt><trkpt lat="45.73053933780392" lon="10.05108159751925"><ele>224.0</ele><time>2026-04-12T14:05:46Z</time></trkpt><trkpt lat="45.73044557478807" lon="10.050961930302487"><ele>224.0</ele><time>2026-04-12T14:05:47Z</time></trkpt><trkpt lat="45.730351230352795" lon="10.050848623476428"><ele>224.0</ele><time>2026-04-12T14:05:48Z</time></trkpt><trkpt lat="45.730257186747366" lon="10.050730434296462"><ele>227.0</ele><time>2026-04-12T14:05:49Z</time></trkpt><trkpt lat="45.73012616732465" lon="10.05064008073694"><ele>230.0</ele><time>2026-04-12T14:05:50Z</time></trkpt><trkpt lat="45.72997951341214" lon="10.050630271830636"><ele>233.0</ele><time>2026-04-12T14:05:51Z</time></trkpt><trkpt lat="45.729849428294536" lon="10.050595841360542"><ele>236.0</ele><time>2026-04-12T14:05:52Z</time></trkpt><trkpt lat="45.72971179586482" lon="10.050583379691584"><ele>236.0</ele><time>2026-04-12T14:05:53.001Z</time></trkpt><trkpt lat="45.729565494034496" lon="10.050574034364113"><ele>236.0</ele><time>2026-04-12T14:05:54.001Z</time></trkpt><trkpt lat="45.72943128554639" lon="10.050506109174131"><ele>236.0</ele><time>2026-04-12T14:05:55.001Z</time></trkpt><trkpt lat="45.729296756456534" lon="10.050449130979677"><ele>236.0</ele><time>2026-04-12T14:05:56.001Z</time></trkpt><trkpt lat="45.72916080274603" lon="10.050373652529972"><ele>230.33333333333334</ele><time>2026-04-12T14:05:57.001Z</time></trkpt><trkpt lat="45.729008600888896" lon="10.05029661726761"><ele>224.66666666666669</ele><time>2026-04-12T14:05:58.001Z</time></trkpt><trkpt lat="45.728871066768804" lon="10.050227005925107"><ele>219.0</ele><time>2026-04-12T14:05:59.001Z</time></trkpt><trkpt lat="45.728729728005476" lon="10.050155200180452"><ele>219.0</ele><time>2026-04-12T14:06:00.001Z</time></trkpt><trkpt lat="45.72858409231358" lon="10.050081193282047"><ele>219.0</ele><time>2026-04-12T14:06:01.001Z</time></trkpt><trkpt lat="45.728431649738376" lon="10.050004674231335"><ele>219.0</ele><time>2026-04-12T14:06:02.001Z</time></trkpt><trkpt lat="45.72827888935302" lon="10.049928208774018"><ele>226.66666666666669</ele><time>2026-04-12T14:06:03.001Z</time></trkpt><trkpt lat="45.72811786055376" lon="10.049847604322244"><ele>234.33333333333334</ele><time>2026-04-12T14:06:04.001Z</time></trkpt><trkpt lat="45.72795149328092" lon="10.049767793200841"><ele>242.0</ele><time>2026-04-12T14:06:05.001Z</time></trkpt><trkpt lat="45.727785577317626" lon="10.049688404647668"><ele>234.0</ele><time>2026-04-12T14:06:06.001Z</time></trkpt><trkpt lat="45.72762190054557" lon="10.049610211711588"><ele>226.0</ele><time>2026-04-12T14:06:07.001Z</time></trkpt><trkpt lat="45.727451417966975" lon="10.049534713511974"><ele>218.0</ele><time>2026-04-12T14:06:08.001Z</time></trkpt><trkpt lat="45.72727123317402" lon="10.049482665942884"><ele>218.0</ele><time>2026-04-12T14:06:09.001Z</time></trkpt><trkpt lat="45.72707890245253" lon="10.049454957078508"><ele>218.0</ele><time>2026-04-12T14:06:10.001Z</time></trkpt><trkpt lat="45.72689461484832" lon="10.049454317607111"><ele>218.0</ele><time>2026-04-12T14:06:11.001Z</time></trkpt><trkpt lat="45.726719335989394" lon="10.049458985085792"><ele>215.66666666666669</ele><time>2026-04-12T14:06:12.001Z</time></trkpt><trkpt lat="45.726546515901106" lon="10.049462033868101"><ele>213.33333333333331</ele><time>2026-04-12T14:06:13.001Z</time></trkpt><trkpt lat="45.726374883028654" lon="10.04945551077108"><ele>211.0</ele><time>2026-04-12T14:06:14.001Z</time></trkpt><trkpt lat="45.72620404904867" lon="10.049443679092137"><ele>211.0</ele><time>2026-04-12T14:06:15.001Z</time></trkpt><trkpt lat="45.72603181608737" lon="10.049430253992217"><ele>211.0</ele><time>2026-04-12T14:06:16.001Z</time></trkpt><trkpt lat="45.725864473639724" lon="10.049417529882906"><ele>211.0</ele><time>2026-04-12T14:06:17Z</time></trkpt><trkpt lat="45.7257023314737" lon="10.049408566973684"><ele>211.0</ele><time>2026-04-12T14:06:18Z</time></trkpt><trkpt lat="45.725542230493254" lon="10.049407294710049"><ele>211.0</ele><time>2026-04-12T14:06:19Z</time></trkpt><trkpt lat="45.72539236687806" lon="10.04941301272918"><ele>211.0</ele><time>2026-04-12T14:06:20Z</time></trkpt><trkpt lat="45.725247596561935" lon="10.04942037241924"><ele>210.75</ele><time>2026-04-12T14:06:21Z</time></trkpt><trkpt lat="45.725102793300266" lon="10.049424435959422"><ele>210.5</ele><time>2026-04-12T14:06:22Z</time></trkpt><trkpt lat="45.72495134740058" lon="10.049420779784336"><ele>210.25</ele><time>2026-04-12T14:06:23Z</time></trkpt><trkpt lat="45.72480168373246" lon="10.049400113393956"><ele>210.0</ele><time>2026-04-12T14:06:24Z</time></trkpt><trkpt lat="45.72465344991704" lon="10.049358335771554"><ele>210.0</ele><time>2026-04-12T14:06:25Z</time></trkpt><trkpt lat="45.72450428956499" lon="10.049304156113395"><ele>210.0</ele><time>2026-04-12T14:06:26Z</time></trkpt><trkpt lat="45.72434891503217" lon="10.049250611037161"><ele>210.0</ele><time>2026-04-12T14:06:27Z</time></trkpt><trkpt lat="45.72418784840274" lon="10.049206413202464"><ele>206.66666666666669</ele><time>2026-04-12T14:06:28Z</time></trkpt><trkpt lat="45.72402816654231" lon="10.049176797714157"><ele>203.33333333333334</ele><time>2026-04-12T14:06:29Z</time></trkpt><trkpt lat="45.723861700717414" lon="10.049149374286738"><ele>200.0</ele><time>2026-04-12T14:06:30Z</time></trkpt><trkpt lat="45.72369155764859" lon="10.04912514140048"><ele>214.66666666666669</ele><time>2026-04-12T14:06:31Z</time></trkpt><trkpt lat="45.72352703042975" lon="10.049104352969678"><ele>229.33333333333331</ele><time>2026-04-12T14:06:32Z</time></trkpt><trkpt lat="45.723359661156266" lon="10.049084444345642"><ele>244.0</ele><time>2026-04-12T14:06:33Z</time></trkpt><trkpt lat="45.72319046643206" lon="10.04906538681637"><ele>244.0</ele><time>2026-04-12T14:06:34Z</time></trkpt><trkpt lat="45.72301999201681" lon="10.049047064440623"><ele>244.0</ele><time>2026-04-12T14:06:35Z</time></trkpt><trkpt lat="45.722849214499284" lon="10.049031945193528"><ele>244.0</ele><time>2026-04-12T14:06:36Z</time></trkpt><trkpt lat="45.72267802199783" lon="10.049016977391602"><ele>242.66666666666666</ele><time>2026-04-12T14:06:37Z</time></trkpt><trkpt lat="45.72250988660253" lon="10.049002611694661"><ele>241.33333333333331</ele><time>2026-04-12T14:06:38Z</time></trkpt><trkpt lat="45.722351591471984" lon="10.04898908675854"><ele>240.0</ele><time>2026-04-12T14:06:39Z</time></trkpt><trkpt lat="45.72220131375797" lon="10.048976136580642"><ele>240.0</ele><time>2026-04-12T14:06:40Z</time></trkpt><trkpt lat="45.722056157239315" lon="10.048959770896055"><ele>240.0</ele><time>2026-04-12T14:06:41Z</time></trkpt><trkpt lat="45.72191939891601" lon="10.048944349991102"><ele>240.0</ele><time>2026-04-12T14:06:42Z</time></trkpt><trkpt lat="45.72178639465903" lon="10.048928840523649"><ele>240.0</ele><time>2026-04-12T14:06:43Z</time></trkpt><trkpt lat="45.721655949645246" lon="10.048913629482959"><ele>238.0</ele><time>2026-04-12T14:06:44Z</time></trkpt><trkpt lat="45.721525114787546" lon="10.048917879829208"><ele>236.0</ele><time>2026-04-12T14:06:45Z</time></trkpt><trkpt lat="45.721399295567416" lon="10.04889158103388"><ele>234.0</ele><time>2026-04-12T14:06:46Z</time></trkpt><trkpt lat="45.72128386633969" lon="10.048849500205556"><ele>232.0</ele><time>2026-04-12T14:06:47Z</time></trkpt><trkpt lat="45.72117320842881" lon="10.048819505088332"><ele>226.66666666666666</ele><time>2026-04-12T14:06:48Z</time></trkpt><trkpt lat="45.7209584777315" lon="10.048734986211"><ele>221.33333333333331</ele><time>2026-04-12T14:06:50Z</time></trkpt><trkpt lat="45.72084546210734" lon="10.048667452793024"><ele>216.0</ele><time>2026-04-12T14:06:51Z</time></trkpt><trkpt lat="45.7207327978779" lon="10.04860323113439"><ele>216.0</ele><time>2026-04-12T14:06:52Z</time></trkpt><trkpt lat="45.720614567190395" lon="10.048540888244686"><ele>216.0</ele><time>2026-04-12T14:06:53Z</time></trkpt><trkpt lat="45.720502567630476" lon="10.048460870678417"><ele>216.0</ele><time>2026-04-12T14:06:54Z</time></trkpt><trkpt lat="45.7203733837627" lon="10.048415389890838"><ele>216.0</ele><time>2026-04-12T14:06:55Z</time></trkpt><trkpt lat="45.72023969583786" lon="10.048377435616127"><ele>213.0</ele><time>2026-04-12T14:06:56Z</time></trkpt><trkpt lat="45.720094949262204" lon="10.048370300897462"><ele>210.0</ele><time>2026-04-12T14:06:57Z</time></trkpt><trkpt lat="45.71995855502003" lon="10.048353364552328"><ele>207.0</ele><time>2026-04-12T14:06:58Z</time></trkpt><trkpt lat="45.719814249895606" lon="10.048318273233823"><ele>204.0</ele><time>2026-04-12T14:06:59Z</time></trkpt><trkpt lat="45.71967771616857" lon="10.048299924530525"><ele>205.79999999999998</ele><time>2026-04-12T14:07:00Z</time></trkpt><trkpt lat="45.71956365650251" lon="10.048285772321599"><ele>207.6</ele><time>2026-04-12T14:07:01Z</time></trkpt><trkpt lat="45.71946552883421" lon="10.048274264949004"><ele>209.4</ele><time>2026-04-12T14:07:02Z</time></trkpt><trkpt lat="45.71938662156169" lon="10.048278885874778"><ele>211.2</ele><time>2026-04-12T14:07:03Z</time></trkpt><trkpt lat="45.7193342225052" lon="10.048223856439149"><ele>213.0</ele><time>2026-04-12T14:07:04Z</time></trkpt><trkpt lat="45.7192421107444" lon="10.048122341719683"><ele>213.0</ele><time>2026-04-12T14:07:06Z</time></trkpt><trkpt lat="45.71922616546228" lon="10.047949592325637"><ele>213.0</ele><time>2026-04-12T14:07:07Z</time></trkpt><trkpt lat="45.719229693531865" lon="10.047817367053657"><ele>213.0</ele><time>2026-04-12T14:07:08Z</time></trkpt><trkpt lat="45.71919616018663" lon="10.047680446223493"><ele>213.0</ele><time>2026-04-12T14:07:09Z</time></trkpt><trkpt lat="45.71911403871491" lon="10.04756282962801"><ele>213.0</ele><time>2026-04-12T14:07:10Z</time></trkpt><trkpt lat="45.719008231103345" lon="10.047527528769194"><ele>213.0</ele><time>2026-04-12T14:07:11Z</time></trkpt><trkpt lat="45.71891130450001" lon="10.047463646642969"><ele>213.0</ele><time>2026-04-12T14:07:12Z</time></trkpt><trkpt lat="45.71879079004574" lon="10.047418536827024"><ele>213.0</ele><time>2026-04-12T14:07:13Z</time></trkpt><trkpt lat="45.7186640832091" lon="10.047398150235475"><ele>213.0</ele><time>2026-04-12T14:07:14Z</time></trkpt><trkpt lat="45.718546328232364" lon="10.047347027907348"><ele>215.2</ele><time>2026-04-12T14:07:15Z</time></trkpt><trkpt lat="45.718429262440836" lon="10.04730016035166"><ele>217.4</ele><time>2026-04-12T14:07:16Z</time></trkpt><trkpt lat="45.718331339125854" lon="10.047273519427936"><ele>219.59999999999997</ele><time>2026-04-12T14:07:17Z</time></trkpt><trkpt lat="45.718245939263355" lon="10.047271510913042"><ele>221.79999999999998</ele><time>2026-04-12T14:07:18Z</time></trkpt><trkpt lat="45.71817644145049" lon="10.047256302583007"><ele>224.0</ele><time>2026-04-12T14:07:19Z</time></trkpt><trkpt lat="45.71809090672028" lon="10.047144476233468"><ele>224.0</ele><time>2026-04-12T14:07:21Z</time></trkpt><trkpt lat="45.71814280888833" lon="10.046989131027404"><ele>223.99999999999997</ele><time>2026-04-12T14:07:23Z</time></trkpt><trkpt lat="45.71826044008595" lon="10.046981727139235"><ele>223.99999999999997</ele><time>2026-04-12T14:07:25Z</time></trkpt><trkpt lat="45.718333998657315" lon="10.047042020470514"><ele>224.0</ele><time>2026-04-12T14:07:26Z</time></trkpt><trkpt lat="45.71842716360208" lon="10.047092408954878"><ele>224.0</ele><time>2026-04-12T14:07:27Z</time></trkpt><trkpt lat="45.718540060653375" lon="10.047112384170175"><ele>230.0</ele><time>2026-04-12T14:07:28Z</time></trkpt><trkpt lat="45.718665630456236" lon="10.047127771672601"><ele>236.0</ele><time>2026-04-12T14:07:29Z</time></trkpt><trkpt lat="45.71880710251154" lon="10.047148324148752"><ele>242.0</ele><time>2026-04-12T14:07:30Z</time></trkpt><trkpt lat="45.71894290683427" lon="10.047203623696634"><ele>248.0</ele><time>2026-04-12T14:07:31Z</time></trkpt><trkpt lat="45.71907554534865" lon="10.047281890097883"><ele>248.0</ele><time>2026-04-12T14:07:32Z</time></trkpt><trkpt lat="45.719209388743714" lon="10.047366501623872"><ele>248.0</ele><time>2026-04-12T14:07:33Z</time></trkpt><trkpt lat="45.71933693490527" lon="10.047462781152232"><ele>248.0</ele><time>2026-04-12T14:07:34Z</time></trkpt><trkpt lat="45.71943784285652" lon="10.047552727601776"><ele>248.0</ele><time>2026-04-12T14:07:35Z</time></trkpt><trkpt lat="45.719523961563574" lon="10.04764264672278"><ele>248.66666666666669</ele><time>2026-04-12T14:07:36Z</time></trkpt><trkpt lat="45.71959007648866" lon="10.047735376927967"><ele>249.33333333333334</ele><time>2026-04-12T14:07:37Z</time></trkpt><trkpt lat="45.71965553468036" lon="10.047787455281794"><ele>250.0</ele><time>2026-04-12T14:07:38Z</time></trkpt><trkpt lat="45.71972400184352" lon="10.047785525840293"><ele>250.66666666666669</ele><time>2026-04-12T14:07:39Z</time></trkpt><trkpt lat="45.71978593027362" lon="10.047724372218182"><ele>251.33333333333334</ele><time>2026-04-12T14:07:40Z</time></trkpt><trkpt lat="45.71982812770924" lon="10.047640743756524"><ele>252.0</ele><time>2026-04-12T14:07:41Z</time></trkpt><trkpt lat="45.71980432431877" lon="10.047460176730297"><ele>251.2</ele><time>2026-04-12T14:07:43Z</time></trkpt><trkpt lat="45.7197572639331" lon="10.047389170489367"><ele>250.39999999999998</ele><time>2026-04-12T14:07:44Z</time></trkpt><trkpt lat="45.7196571739597" lon="10.047358394976461"><ele>249.60000000000002</ele><time>2026-04-12T14:07:45Z</time></trkpt><trkpt lat="45.719569707160645" lon="10.047273301555855"><ele>248.8</ele><time>2026-04-12T14:07:46Z</time></trkpt><trkpt lat="45.71947812366275" lon="10.047194717839458"><ele>248.0</ele><time>2026-04-12T14:07:47Z</time></trkpt><trkpt lat="45.71938581178045" lon="10.047105917907002"><ele>248.0</ele><time>2026-04-12T14:07:48Z</time></trkpt><trkpt lat="45.71930074667059" lon="10.047015219177593"><ele>248.0</ele><time>2026-04-12T14:07:49Z</time></trkpt><trkpt lat="45.71920686410133" lon="10.046915749375962"><ele>248.0</ele><time>2026-04-12T14:07:50Z</time></trkpt><trkpt lat="45.71911011974122" lon="10.046819909225208"><ele>248.0</ele><time>2026-04-12T14:07:51Z</time></trkpt><trkpt lat="45.719002638286646" lon="10.046749583883484"><ele>248.0</ele><time>2026-04-12T14:07:52Z</time></trkpt><trkpt lat="45.718882178897495" lon="10.046706080318096"><ele>248.0</ele><time>2026-04-12T14:07:53Z</time></trkpt><trkpt lat="45.71875970093976" lon="10.046700062488686"><ele>248.0</ele><time>2026-04-12T14:07:54Z</time></trkpt><trkpt lat="45.718640424566665" lon="10.046695074681912"><ele>248.0</ele><time>2026-04-12T14:07:55Z</time></trkpt><trkpt lat="45.71852218701701" lon="10.04666066533492"><ele>254.5</ele><time>2026-04-12T14:07:56Z</time></trkpt><trkpt lat="45.71840542599016" lon="10.046600151425217"><ele>261.0</ele><time>2026-04-12T14:07:57Z</time></trkpt><trkpt lat="45.718283528425914" lon="10.046537360875801"><ele>267.5</ele><time>2026-04-12T14:07:58Z</time></trkpt><trkpt lat="45.71816463083205" lon="10.046466272263663"><ele>274.0</ele><time>2026-04-12T14:07:59Z</time></trkpt><trkpt lat="45.71804708898575" lon="10.046389732805439"><ele>274.0</ele><time>2026-04-12T14:08:00Z</time></trkpt><trkpt lat="45.71792689401534" lon="10.04630411898955"><ele>274.0</ele><time>2026-04-12T14:08:01Z</time></trkpt><trkpt lat="45.71781004630888" lon="10.046212693532976"><ele>274.0</ele><time>2026-04-12T14:08:02Z</time></trkpt><trkpt lat="45.717697099179965" lon="10.046132235267608"><ele>274.0</ele><time>2026-04-12T14:08:03Z</time></trkpt><trkpt lat="45.717593290814825" lon="10.046043888203481"><ele>277.5</ele><time>2026-04-12T14:08:04Z</time></trkpt><trkpt lat="45.71751565325338" lon="10.045904734191845"><ele>281.0</ele><time>2026-04-12T14:08:05Z</time></trkpt><trkpt lat="45.71742353506146" lon="10.045782421468822"><ele>284.5</ele><time>2026-04-12T14:08:06Z</time></trkpt><trkpt lat="45.717351328811546" lon="10.045639484242162"><ele>288.0</ele><time>2026-04-12T14:08:07Z</time></trkpt><trkpt lat="45.717284323203536" lon="10.045486352152977"><ele>288.0</ele><time>2026-04-12T14:08:08Z</time></trkpt><trkpt lat="45.717212674564955" lon="10.045342953122377"><ele>288.0</ele><time>2026-04-12T14:08:09Z</time></trkpt><trkpt lat="45.7171482206183" lon="10.045192424717175"><ele>288.0</ele><time>2026-04-12T14:08:10Z</time></trkpt><trkpt lat="45.71704564009992" lon="10.045083552239335"><ele>288.0</ele><time>2026-04-12T14:08:11Z</time></trkpt><trkpt lat="45.71691826514806" lon="10.045024223771778"><ele>283.0</ele><time>2026-04-12T14:08:12Z</time></trkpt><trkpt lat="45.71679889801212" lon="10.04502505235336"><ele>278.0</ele><time>2026-04-12T14:08:13Z</time></trkpt><trkpt lat="45.716698824850354" lon="10.045055796676692"><ele>273.0</ele><time>2026-04-12T14:08:14Z</time></trkpt><trkpt lat="45.71661114919508" lon="10.045092051116061"><ele>268.0</ele><time>2026-04-12T14:08:15Z</time></trkpt><trkpt lat="45.716536383720154" lon="10.045124152049947"><ele>263.0</ele><time>2026-04-12T14:08:16Z</time></trkpt><trkpt lat="45.71644090593368" lon="10.04509597529583"><ele>271.2</ele><time>2026-04-12T14:08:18Z</time></trkpt><trkpt lat="45.71645548860344" lon="10.044916883776592"><ele>279.4</ele><time>2026-04-12T14:08:20Z</time></trkpt><trkpt lat="45.716515835449314" lon="10.044865061481211"><ele>287.59999999999997</ele><time>2026-04-12T14:08:21Z</time></trkpt><trkpt lat="45.71660031262345" lon="10.044834607452492"><ele>295.8</ele><time>2026-04-12T14:08:22Z</time></trkpt><trkpt lat="45.71670389861278" lon="10.044840755517404"><ele>304.0</ele><time>2026-04-12T14:08:23Z</time></trkpt><trkpt lat="45.7168194692912" lon="10.044832908965436"><ele>300.0</ele><time>2026-04-12T14:08:24Z</time></trkpt><trkpt lat="45.71694457531668" lon="10.044912992373154"><ele>296.0</ele><time>2026-04-12T14:08:25Z</time></trkpt><trkpt lat="45.717061233546126" lon="10.044997409795092"><ele>292.0</ele><time>2026-04-12T14:08:26Z</time></trkpt><trkpt lat="45.717180888358094" lon="10.045093520437812"><ele>288.0</ele><time>2026-04-12T14:08:27Z</time></trkpt><trkpt lat="45.717296989255146" lon="10.045194243958688"><ele>288.0</ele><time>2026-04-12T14:08:28Z</time></trkpt><trkpt lat="45.717403953340686" lon="10.045317101808065"><ele>288.0</ele><time>2026-04-12T14:08:29Z</time></trkpt><trkpt lat="45.71750138420657" lon="10.045447663645804"><ele>288.0</ele><time>2026-04-12T14:08:30Z</time></trkpt><trkpt lat="45.71760743902831" lon="10.045563440697538"><ele>288.0</ele><time>2026-04-12T14:08:31Z</time></trkpt><trkpt lat="45.717730035869245" lon="10.045649351084505"><ele>284.5</ele><time>2026-04-12T14:08:32Z</time></trkpt><trkpt lat="45.71786153066109" lon="10.04571299124859"><ele>281.0</ele><time>2026-04-12T14:08:33Z</time></trkpt><trkpt lat="45.71799879937907" lon="10.045763496471665"><ele>277.5</ele><time>2026-04-12T14:08:34Z</time></trkpt><trkpt lat="45.7181489399943" lon="10.045816507508352"><ele>274.0</ele><time>2026-04-12T14:08:35Z</time></trkpt><trkpt lat="45.7182992020685" lon="10.045868803129759"><ele>274.0</ele><time>2026-04-12T14:08:36Z</time></trkpt><trkpt lat="45.7184585334533" lon="10.045901729060828"><ele>274.0</ele><time>2026-04-12T14:08:37Z</time></trkpt><trkpt lat="45.71862289165139" lon="10.045913989892723"><ele>274.0</ele><time>2026-04-12T14:08:38Z</time></trkpt><trkpt lat="45.7187808757203" lon="10.045918806367522"><ele>284.66666666666663</ele><time>2026-04-12T14:08:39Z</time></trkpt><trkpt lat="45.71894088153331" lon="10.045935669646044"><ele>295.3333333333333</ele><time>2026-04-12T14:08:40Z</time></trkpt><trkpt lat="45.71909597487427" lon="10.04599430351405"><ele>306.0</ele><time>2026-04-12T14:08:41Z</time></trkpt><trkpt lat="45.719251617543264" lon="10.046074635991507"><ele>314.3333333333333</ele><time>2026-04-12T14:08:42Z</time></trkpt><trkpt lat="45.7194039724926" lon="10.046155489138467"><ele>322.66666666666663</ele><time>2026-04-12T14:08:43Z</time></trkpt><trkpt lat="45.719558715217346" lon="10.046222820151467"><ele>331.0</ele><time>2026-04-12T14:08:44Z</time></trkpt><trkpt lat="45.71972308451713" lon="10.046267112238391"><ele>331.0</ele><time>2026-04-12T14:08:45Z</time></trkpt><trkpt lat="45.719885475042524" lon="10.046302417496861"><ele>331.0</ele><time>2026-04-12T14:08:46Z</time></trkpt><trkpt lat="45.72003602375294" lon="10.046331229961945"><ele>331.0</ele><time>2026-04-12T14:08:47Z</time></trkpt><trkpt lat="45.72018483139471" lon="10.046358150898257"><ele>329.75</ele><time>2026-04-12T14:08:48Z</time></trkpt><trkpt lat="45.72031504368379" lon="10.04641752803059"><ele>328.5</ele><time>2026-04-12T14:08:49Z</time></trkpt><trkpt lat="45.720432710028554" lon="10.046489429644279"><ele>327.25</ele><time>2026-04-12T14:08:50Z</time></trkpt><trkpt lat="45.72051075271965" lon="10.046579511640092"><ele>326.0</ele><time>2026-04-12T14:08:51Z</time></trkpt><trkpt lat="45.72053739989709" lon="10.046706995932688"><ele>326.0</ele><time>2026-04-12T14:08:52Z</time></trkpt><trkpt lat="45.720548158677204" lon="10.046820671456388"><ele>326.0</ele><time>2026-04-12T14:08:53Z</time></trkpt><trkpt lat="45.72057072132726" lon="10.046926229724011"><ele>326.0</ele><time>2026-04-12T14:08:54Z</time></trkpt><trkpt lat="45.72060445740183" lon="10.047016854114379"><ele>326.0</ele><time>2026-04-12T14:08:55Z</time></trkpt><trkpt lat="45.72066804974249" lon="10.04707121111007"><ele>326.0</ele><time>2026-04-12T14:08:56Z</time></trkpt><trkpt lat="45.72074224787919" lon="10.047076015073749"><ele>326.0</ele><time>2026-04-12T14:08:57Z</time></trkpt><trkpt lat="45.72080858216755" lon="10.047050350562209"><ele>326.0</ele><time>2026-04-12T14:08:58Z</time></trkpt><trkpt lat="45.72088974106956" lon="10.046977181775793"><ele>326.0</ele><time>2026-04-12T14:09:00Z</time></trkpt><trkpt lat="45.72098651481743" lon="10.04696423118117"><ele>326.0</ele><time>2026-04-12T14:09:22Z</time></trkpt><trkpt lat="45.72105891547569" lon="10.046950088780443"><ele>326.0</ele><time>2026-04-12T14:09:23Z</time></trkpt><trkpt lat="45.72113681691974" lon="10.046958055563676"><ele>326.0</ele><time>2026-04-12T14:09:24Z</time></trkpt><trkpt lat="45.721222641701964" lon="10.047004895440486"><ele>326.0</ele><time>2026-04-12T14:09:25Z</time></trkpt><trkpt lat="45.72129735381104" lon="10.047086791091084"><ele>326.0</ele><time>2026-04-12T14:09:26Z</time></trkpt><trkpt lat="45.72138157840182" lon="10.047163806114094"><ele>330.0</ele><time>2026-04-12T14:09:27Z</time></trkpt><trkpt lat="45.721475053427795" lon="10.047250337520182"><ele>334.0</ele><time>2026-04-12T14:09:28Z</time></trkpt><trkpt lat="45.721566663657235" lon="10.047332068171917"><ele>338.0</ele><time>2026-04-12T14:09:29Z</time></trkpt><trkpt lat="45.721674158442376" lon="10.047344586266284"><ele>342.0</ele><time>2026-04-12T14:09:30Z</time></trkpt><trkpt lat="45.72178683577688" lon="10.047328814005324"><ele>346.0</ele><time>2026-04-12T14:09:31Z</time></trkpt><trkpt lat="45.72189950049617" lon="10.047316894394472"><ele>350.25</ele><time>2026-04-12T14:09:32Z</time></trkpt><trkpt lat="45.72201980677756" lon="10.047271700194877"><ele>354.5</ele><time>2026-04-12T14:09:33Z</time></trkpt><trkpt lat="45.72215678199132" lon="10.047255453125718"><ele>358.75</ele><time>2026-04-12T14:09:34Z</time></trkpt><trkpt lat="45.7222880135465" lon="10.047219987169237"><ele>363.0</ele><time>2026-04-12T14:09:35Z</time></trkpt><trkpt lat="45.72242564231954" lon="10.047168628470128"><ele>363.0</ele><time>2026-04-12T14:09:36Z</time></trkpt><trkpt lat="45.722558527030884" lon="10.047146459272435"><ele>363.0</ele><time>2026-04-12T14:09:37Z</time></trkpt><trkpt lat="45.722700772884785" lon="10.047128888681591"><ele>363.0</ele><time>2026-04-12T14:09:38Z</time></trkpt><trkpt lat="45.72283958683051" lon="10.047113278311327"><ele>363.0</ele><time>2026-04-12T14:09:39Z</time></trkpt><trkpt lat="45.722970890760784" lon="10.047084858822215"><ele>364.0</ele><time>2026-04-12T14:09:40Z</time></trkpt><trkpt lat="45.72309099146663" lon="10.047035260394141"><ele>365.0</ele><time>2026-04-12T14:09:41Z</time></trkpt><trkpt lat="45.72320967095921" lon="10.046991380439145"><ele>366.0</ele><time>2026-04-12T14:09:42Z</time></trkpt><trkpt lat="45.72333631078517" lon="10.046978676180437"><ele>367.0</ele><time>2026-04-12T14:09:43Z</time></trkpt><trkpt lat="45.72346038260901" lon="10.046991193108765"><ele>367.5</ele><time>2026-04-12T14:09:44Z</time></trkpt><trkpt lat="45.723582054602396" lon="10.046978787972485"><ele>368.0</ele><time>2026-04-12T14:09:45Z</time></trkpt><trkpt lat="45.7237153432617" lon="10.046968880999003"><ele>368.5</ele><time>2026-04-12T14:09:46Z</time></trkpt><trkpt lat="45.72384246663512" lon="10.046958296413708"><ele>369.0</ele><time>2026-04-12T14:09:47Z</time></trkpt><trkpt lat="45.7239540170674" lon="10.046914551277801"><ele>369.0</ele><time>2026-04-12T14:09:48Z</time></trkpt><trkpt lat="45.72406207550165" lon="10.046873222152868"><ele>369.0</ele><time>2026-04-12T14:09:49Z</time></trkpt><trkpt lat="45.724171320733944" lon="10.046904969058616"><ele>369.0</ele><time>2026-04-12T14:09:50Z</time></trkpt><trkpt lat="45.72427799559898" lon="10.04694867272843"><ele>369.0</ele><time>2026-04-12T14:09:51Z</time></trkpt><trkpt lat="45.724390698231495" lon="10.046972808191324"><ele>369.0</ele><time>2026-04-12T14:09:52Z</time></trkpt><trkpt lat="45.724511515307135" lon="10.046983721940514"><ele>369.0</ele><time>2026-04-12T14:09:53Z</time></trkpt><trkpt lat="45.72464076905229" lon="10.0469617104833"><ele>369.0</ele><time>2026-04-12T14:09:54Z</time></trkpt><trkpt lat="45.72477247575229" lon="10.046947439731005"><ele>369.0</ele><time>2026-04-12T14:09:55Z</time></trkpt><trkpt lat="45.72490632302053" lon="10.046914616836444"><ele>369.0</ele><time>2026-04-12T14:09:56Z</time></trkpt><trkpt lat="45.725035475501" lon="10.046875661475834"><ele>369.0</ele><time>2026-04-12T14:09:57Z</time></trkpt><trkpt lat="45.725177245183446" lon="10.0468455468034"><ele>369.0</ele><time>2026-04-12T14:09:58Z</time></trkpt><trkpt lat="45.725320437092805" lon="10.04679280574832"><ele>369.0</ele><time>2026-04-12T14:09:59Z</time></trkpt><trkpt lat="45.72546140789456" lon="10.0467167021318"><ele>369.0</ele><time>2026-04-12T14:10:00Z</time></trkpt><trkpt lat="45.72560417522583" lon="10.046632468954677"><ele>376.5</ele><time>2026-04-12T14:10:01Z</time></trkpt><trkpt lat="45.725741928390754" lon="10.046538192013967"><ele>384.0</ele><time>2026-04-12T14:10:02Z</time></trkpt><trkpt lat="45.725874030752834" lon="10.046474992615357"><ele>391.5</ele><time>2026-04-12T14:10:03Z</time></trkpt><trkpt lat="45.72600577365482" lon="10.046413025333326"><ele>399.0</ele><time>2026-04-12T14:10:04Z</time></trkpt><trkpt lat="45.72612044511097" lon="10.046334798123263"><ele>399.0</ele><time>2026-04-12T14:10:05Z</time></trkpt><trkpt lat="45.72621821446476" lon="10.046246054777516"><ele>399.0</ele><time>2026-04-12T14:10:06Z</time></trkpt><trkpt lat="45.72630392583197" lon="10.046162882012997"><ele>399.0</ele><time>2026-04-12T14:10:07Z</time></trkpt><trkpt lat="45.72638477502934" lon="10.046116578821493"><ele>399.0</ele><time>2026-04-12T14:10:08Z</time></trkpt><trkpt lat="45.726474533077514" lon="10.04611311193381"><ele>399.0</ele><time>2026-04-12T14:10:09Z</time></trkpt><trkpt lat="45.726563445182755" lon="10.04615917152712"><ele>399.0</ele><time>2026-04-12T14:10:10Z</time></trkpt><trkpt lat="45.72664632473103" lon="10.046217331803108"><ele>399.0</ele><time>2026-04-12T14:10:11Z</time></trkpt><trkpt lat="45.72674237135595" lon="10.04624982746243"><ele>399.0</ele><time>2026-04-12T14:10:12Z</time></trkpt><trkpt lat="45.726847918973135" lon="10.046248517231648"><ele>399.0</ele><time>2026-04-12T14:10:13Z</time></trkpt><trkpt lat="45.72696567138038" lon="10.046247248958569"><ele>399.0</ele><time>2026-04-12T14:10:14Z</time></trkpt><trkpt lat="45.72709025897694" lon="10.046230518990539"><ele>402.0</ele><time>2026-04-12T14:10:15Z</time></trkpt><trkpt lat="45.72721100407505" lon="10.04621811991752"><ele>405.0</ele><time>2026-04-12T14:10:16Z</time></trkpt><trkpt lat="45.72733523257057" lon="10.046171168965603"><ele>408.0</ele><time>2026-04-12T14:10:17Z</time></trkpt><trkpt lat="45.7274561820743" lon="10.046152620790785"><ele>411.0</ele><time>2026-04-12T14:10:18Z</time></trkpt><trkpt lat="45.727560735619114" lon="10.046147658671131"><ele>411.0</ele><time>2026-04-12T14:10:19Z</time></trkpt><trkpt lat="45.727688458218466" lon="10.046178889193566"><ele>411.0</ele><time>2026-04-12T14:10:20Z</time></trkpt><trkpt lat="45.727817295093985" lon="10.046205558237887"><ele>411.0</ele><time>2026-04-12T14:10:21Z</time></trkpt><trkpt lat="45.72794818605739" lon="10.046232483556068"><ele>411.0</ele><time>2026-04-12T14:10:22Z</time></trkpt><trkpt lat="45.728077414735964" lon="10.046255707734314"><ele>412.0</ele><time>2026-04-12T14:10:23Z</time></trkpt><trkpt lat="45.72820148403201" lon="10.046282223509667"><ele>413.0</ele><time>2026-04-12T14:10:24Z</time></trkpt><trkpt lat="45.728332278615035" lon="10.04630870840138"><ele>414.0</ele><time>2026-04-12T14:10:25Z</time></trkpt><trkpt lat="45.72845665003429" lon="10.04632399356979"><ele>415.0</ele><time>2026-04-12T14:10:26Z</time></trkpt><trkpt lat="45.72858558579439" lon="10.046311621904772"><ele>415.0</ele><time>2026-04-12T14:10:27Z</time></trkpt><trkpt lat="45.728710414253335" lon="10.046260874999989"><ele>415.0</ele><time>2026-04-12T14:10:28Z</time></trkpt><trkpt lat="45.72884973615359" lon="10.046231416519513"><ele>415.0</ele><time>2026-04-12T14:10:29Z</time></trkpt><trkpt lat="45.72899196405961" lon="10.04620796769942"><ele>415.0</ele><time>2026-04-12T14:10:30Z</time></trkpt><trkpt lat="45.72913294121279" lon="10.046184252653752"><ele>415.0</ele><time>2026-04-12T14:10:31Z</time></trkpt><trkpt lat="45.72926975464729" lon="10.04617664094856"><ele>415.0</ele><time>2026-04-12T14:10:32Z</time></trkpt><trkpt lat="45.729398072025134" lon="10.046168335620647"><ele>415.0</ele><time>2026-04-12T14:10:33Z</time></trkpt><trkpt lat="45.729500489811805" lon="10.046131501940158"><ele>415.0</ele><time>2026-04-12T14:10:34Z</time></trkpt><trkpt lat="45.72959317022905" lon="10.046090375612797"><ele>413.2</ele><time>2026-04-12T14:10:35Z</time></trkpt><trkpt lat="45.729664040029704" lon="10.046012157192397"><ele>411.4</ele><time>2026-04-12T14:10:36Z</time></trkpt><trkpt lat="45.72968322046862" lon="10.045856666453256"><ele>409.6</ele><time>2026-04-12T14:10:37Z</time></trkpt><trkpt lat="45.72971094454806" lon="10.045707556652378"><ele>407.8</ele><time>2026-04-12T14:10:38Z</time></trkpt><trkpt lat="45.72975345567785" lon="10.045545656265295"><ele>406.0</ele><time>2026-04-12T14:10:39Z</time></trkpt><trkpt lat="45.72980641407835" lon="10.04536632106082"><ele>406.0</ele><time>2026-04-12T14:10:40Z</time></trkpt><trkpt lat="45.72987152186121" lon="10.04516922228193"><ele>406.0</ele><time>2026-04-12T14:10:41Z</time></trkpt><trkpt lat="45.729939085645256" lon="10.044953114617693"><ele>406.0</ele><time>2026-04-12T14:10:42Z</time></trkpt><trkpt lat="45.730049126816255" lon="10.044756801663784"><ele>407.33333333333337</ele><time>2026-04-12T14:10:43Z</time></trkpt><trkpt lat="45.730112831645535" lon="10.044507427719022"><ele>408.66666666666663</ele><time>2026-04-12T14:10:44Z</time></trkpt><trkpt lat="45.73019926574437" lon="10.04425520494459"><ele>410.0</ele><time>2026-04-12T14:10:45Z</time></trkpt><trkpt lat="45.73027605735004" lon="10.043987615273645"><ele>410.0</ele><time>2026-04-12T14:10:46Z</time></trkpt><trkpt lat="45.73035723716935" lon="10.043715996754521"><ele>410.0</ele><time>2026-04-12T14:10:47Z</time></trkpt><trkpt lat="45.730439628707586" lon="10.043455289952927"><ele>410.0</ele><time>2026-04-12T14:10:48Z</time></trkpt><trkpt lat="45.73050264413155" lon="10.04319744768153"><ele>415.0</ele><time>2026-04-12T14:10:49Z</time></trkpt><trkpt lat="45.73055061310035" lon="10.042958592151582"><ele>420.0</ele><time>2026-04-12T14:10:50Z</time></trkpt><trkpt lat="45.730581206275346" lon="10.042727948664186"><ele>425.0</ele><time>2026-04-12T14:10:51Z</time></trkpt><trkpt lat="45.73061803366482" lon="10.042526056677103"><ele>429.8</ele><time>2026-04-12T14:10:52Z</time></trkpt><trkpt lat="45.73065761263818" lon="10.042346851005325"><ele>434.6</ele><time>2026-04-12T14:10:53Z</time></trkpt><trkpt lat="45.73065489158925" lon="10.042177271015964"><ele>439.4</ele><time>2026-04-12T14:10:54Z</time></trkpt><trkpt lat="45.730671738767896" lon="10.042033784242438"><ele>444.2</ele><time>2026-04-12T14:10:55Z</time></trkpt><trkpt lat="45.73071268484576" lon="10.041920816795027"><ele>449.0</ele><time>2026-04-12T14:10:56Z</time></trkpt><trkpt lat="45.7307711621027" lon="10.041853703807954"><ele>448.99999999999994</ele><time>2026-04-12T14:10:57Z</time></trkpt><trkpt lat="45.73083534945713" lon="10.041811180409468"><ele>449.0</ele><time>2026-04-12T14:10:58Z</time></trkpt><trkpt lat="45.73091368425835" lon="10.04176158660744"><ele>449.0</ele><time>2026-04-12T14:10:59Z</time></trkpt><trkpt lat="45.730986287139615" lon="10.04173229370229"><ele>449.0</ele><time>2026-04-12T14:11:00Z</time></trkpt><trkpt lat="45.731064521189396" lon="10.041721520347084"><ele>448.99999999999994</ele><time>2026-04-12T14:11:01Z</time></trkpt><trkpt lat="45.73116360768258" lon="10.041833661748354"><ele>449.0</ele><time>2026-04-12T14:11:03Z</time></trkpt><trkpt lat="45.73121096642719" lon="10.041961031177571"><ele>448.75</ele><time>2026-04-12T14:11:04Z</time></trkpt><trkpt lat="45.73125823644395" lon="10.042112934518196"><ele>448.5</ele><time>2026-04-12T14:11:05Z</time></trkpt><trkpt lat="45.731310563639" lon="10.042285450466483"><ele>448.25</ele><time>2026-04-12T14:11:06Z</time></trkpt><trkpt lat="45.73135118529947" lon="10.04246193995911"><ele>448.0</ele><time>2026-04-12T14:11:07Z</time></trkpt><trkpt lat="45.73140307316756" lon="10.042645566499369"><ele>448.0</ele><time>2026-04-12T14:11:08Z</time></trkpt><trkpt lat="45.73141137726145" lon="10.042857301506409"><ele>448.0</ele><time>2026-04-12T14:11:09Z</time></trkpt><trkpt lat="45.73142665964002" lon="10.043092985241096"><ele>448.0</ele><time>2026-04-12T14:11:10Z</time></trkpt><trkpt lat="45.73147125450533" lon="10.043336665234422"><ele>446.6666666666667</ele><time>2026-04-12T14:11:11Z</time></trkpt><trkpt lat="45.73150192084086" lon="10.04359866374217"><ele>445.33333333333337</ele><time>2026-04-12T14:11:12Z</time></trkpt><trkpt lat="45.73153684511453" lon="10.043853560405262"><ele>444.0</ele><time>2026-04-12T14:11:13Z</time></trkpt><trkpt lat="45.731583782640286" lon="10.044110403488547"><ele>437.66666666666663</ele><time>2026-04-12T14:11:14Z</time></trkpt><trkpt lat="45.731633717778436" lon="10.044372246029074"><ele>431.3333333333333</ele><time>2026-04-12T14:11:15Z</time></trkpt><trkpt lat="45.73168759585903" lon="10.044627834716698"><ele>425.0</ele><time>2026-04-12T14:11:16Z</time></trkpt><trkpt lat="45.731744413377925" lon="10.044875031453849"><ele>423.0</ele><time>2026-04-12T14:11:17Z</time></trkpt><trkpt lat="45.731786825418574" lon="10.04511768486597"><ele>421.0</ele><time>2026-04-12T14:11:18Z</time></trkpt><trkpt lat="45.731814991973124" lon="10.045358582731883"><ele>419.0</ele><time>2026-04-12T14:11:19Z</time></trkpt><trkpt lat="45.73185809685518" lon="10.045585658934924"><ele>437.0</ele><time>2026-04-12T14:11:20Z</time></trkpt><trkpt lat="45.73192253821048" lon="10.04579650997825"><ele>455.0</ele><time>2026-04-12T14:11:21Z</time></trkpt><trkpt lat="45.73198276409123" lon="10.046010420493056"><ele>473.0</ele><time>2026-04-12T14:11:22Z</time></trkpt><trkpt lat="45.73204388509263" lon="10.046213862129438"><ele>473.0</ele><time>2026-04-12T14:11:23Z</time></trkpt><trkpt lat="45.73211189907058" lon="10.046410299760858"><ele>473.0</ele><time>2026-04-12T14:11:24Z</time></trkpt><trkpt lat="45.73221573376063" lon="10.046565527744976"><ele>473.0</ele><time>2026-04-12T14:11:25Z</time></trkpt><trkpt lat="45.73231385496278" lon="10.046723734173533"><ele>468.66666666666663</ele><time>2026-04-12T14:11:26Z</time></trkpt><trkpt lat="45.73242967080233" lon="10.04686840559506"><ele>464.33333333333337</ele><time>2026-04-12T14:11:27Z</time></trkpt><trkpt lat="45.73254467149515" lon="10.047020208377518"><ele>460.0</ele><time>2026-04-12T14:11:28Z</time></trkpt><trkpt lat="45.732665188467564" lon="10.047165020925927"><ele>463.33333333333337</ele><time>2026-04-12T14:11:29Z</time></trkpt><trkpt lat="45.7327896881497" lon="10.047318264191212"><ele>466.66666666666663</ele><time>2026-04-12T14:11:30Z</time></trkpt><trkpt lat="45.73292065610184" lon="10.047468502722747"><ele>470.0</ele><time>2026-04-12T14:11:31Z</time></trkpt><trkpt lat="45.73306346710825" lon="10.047614260570686"><ele>470.0</ele><time>2026-04-12T14:11:32Z</time></trkpt><trkpt lat="45.7332148844577" lon="10.04775951446371"><ele>470.0</ele><time>2026-04-12T14:11:33Z</time></trkpt><trkpt lat="45.73336247423476" lon="10.047900461629167"><ele>470.0</ele><time>2026-04-12T14:11:34Z</time></trkpt><trkpt lat="45.73350401005265" lon="10.048039797989059"><ele>475.66666666666663</ele><time>2026-04-12T14:11:35Z</time></trkpt><trkpt lat="45.733650008365274" lon="10.048169584537968"><ele>481.33333333333337</ele><time>2026-04-12T14:11:36Z</time></trkpt><trkpt lat="45.73377123175351" lon="10.048280114521567"><ele>487.0</ele><time>2026-04-12T14:11:37Z</time></trkpt><trkpt lat="45.73388474850026" lon="10.04838894765745"><ele>487.0</ele><time>2026-04-12T14:11:38Z</time></trkpt><trkpt lat="45.7339770343056" lon="10.048507346690325"><ele>487.0</ele><time>2026-04-12T14:11:39Z</time></trkpt><trkpt lat="45.73404849319009" lon="10.048640943979176"><ele>487.0</ele><time>2026-04-12T14:11:40Z</time></trkpt><trkpt lat="45.73410211764291" lon="10.048775802169235"><ele>487.0</ele><time>2026-04-12T14:11:41Z</time></trkpt><trkpt lat="45.734130411565936" lon="10.048921737184683"><ele>487.00000000000006</ele><time>2026-04-12T14:11:42Z</time></trkpt><trkpt lat="45.734162482952556" lon="10.049039028840003"><ele>487.0</ele><time>2026-04-12T14:11:43Z</time></trkpt><trkpt lat="45.73421069639346" lon="10.049108348937752"><ele>487.0</ele><time>2026-04-12T14:11:44Z</time></trkpt><trkpt lat="45.734330871241795" lon="10.049091518136873"><ele>487.0</ele><time>2026-04-12T14:11:46Z</time></trkpt><trkpt lat="45.734368425694406" lon="10.049014804532932"><ele>487.00000000000006</ele><time>2026-04-12T14:11:47Z</time></trkpt><trkpt lat="45.73437168087501" lon="10.048918626024976"><ele>487.0</ele><time>2026-04-12T14:11:48Z</time></trkpt><trkpt lat="45.734332334379786" lon="10.048820083815855"><ele>487.0</ele><time>2026-04-12T14:11:49Z</time></trkpt><trkpt lat="45.734278269802786" lon="10.048729377486259"><ele>487.00000000000006</ele><time>2026-04-12T14:11:50Z</time></trkpt><trkpt lat="45.734220674752954" lon="10.048610488591864"><ele>487.00000000000006</ele><time>2026-04-12T14:11:51Z</time></trkpt><trkpt lat="45.734165529222835" lon="10.048465738615063"><ele>487.0</ele><time>2026-04-12T14:11:52Z</time></trkpt><trkpt lat="45.73410175647885" lon="10.048318438200123"><ele>487.0</ele><time>2026-04-12T14:11:53Z</time></trkpt><trkpt lat="45.7340181347866" lon="10.048180273137588"><ele>493.25</ele><time>2026-04-12T14:11:54Z</time></trkpt><trkpt lat="45.733924441289695" lon="10.048053591673062"><ele>499.5</ele><time>2026-04-12T14:11:55Z</time></trkpt><trkpt lat="45.733851962787924" lon="10.047921418055948"><ele>505.75</ele><time>2026-04-12T14:11:56Z</time></trkpt><trkpt lat="45.733822885009666" lon="10.047785189791927"><ele>512.0</ele><time>2026-04-12T14:11:57Z</time></trkpt><trkpt lat="45.733803594447565" lon="10.047626609524"><ele>512.0</ele><time>2026-04-12T14:11:58Z</time></trkpt><trkpt lat="45.73378008534663" lon="10.047463893494973"><ele>512.0</ele><time>2026-04-12T14:11:59Z</time></trkpt><trkpt lat="45.73374773747558" lon="10.047289484245205"><ele>512.0</ele><time>2026-04-12T14:12:00Z</time></trkpt><trkpt lat="45.73368565726714" lon="10.047129694693218"><ele>512.0</ele><time>2026-04-12T14:12:01Z</time></trkpt><trkpt lat="45.733603650632176" lon="10.046975267487571"><ele>511.0</ele><time>2026-04-12T14:12:02Z</time></trkpt><trkpt lat="45.733506360193644" lon="10.046823752511633"><ele>510.0</ele><time>2026-04-12T14:12:03Z</time></trkpt><trkpt lat="45.73340308833596" lon="10.046684276010069"><ele>509.0</ele><time>2026-04-12T14:12:04Z</time></trkpt><trkpt lat="45.73329851844792" lon="10.046546402307136"><ele>508.0</ele><time>2026-04-12T14:12:05Z</time></trkpt><trkpt lat="45.733216992593505" lon="10.046411361743814"><ele>508.0</ele><time>2026-04-12T14:12:06Z</time></trkpt><trkpt lat="45.73314465610029" lon="10.046266352999965"><ele>508.0</ele><time>2026-04-12T14:12:07Z</time></trkpt><trkpt lat="45.73310550283733" lon="10.046093603684586"><ele>508.0</ele><time>2026-04-12T14:12:08Z</time></trkpt><trkpt lat="45.733060289519344" lon="10.0459128861072"><ele>508.0</ele><time>2026-04-12T14:12:09Z</time></trkpt><trkpt lat="45.73302963624967" lon="10.045725133711905"><ele>511.25</ele><time>2026-04-12T14:12:10Z</time></trkpt><trkpt lat="45.73297819225497" lon="10.045542254593155"><ele>514.5</ele><time>2026-04-12T14:12:11Z</time></trkpt><trkpt lat="45.73291847744217" lon="10.045356910012146"><ele>517.75</ele><time>2026-04-12T14:12:12Z</time></trkpt><trkpt lat="45.73286788624537" lon="10.045166533872832"><ele>521.0</ele><time>2026-04-12T14:12:13Z</time></trkpt><trkpt lat="45.73285483158567" lon="10.044999148223939"><ele>521.0</ele><time>2026-04-12T14:12:14Z</time></trkpt><trkpt lat="45.732833338572654" lon="10.044898521198327"><ele>521.0</ele><time>2026-04-12T14:12:15Z</time></trkpt><trkpt lat="45.73287683658873" lon="10.044772824805086"><ele>521.0</ele><time>2026-04-12T14:12:17Z</time></trkpt><trkpt lat="45.73296397168164" lon="10.044875055703823"><ele>521.0</ele><time>2026-04-12T14:12:19Z</time></trkpt><trkpt lat="45.73300327560951" lon="10.044992308552775"><ele>521.0</ele><time>2026-04-12T14:12:20Z</time></trkpt><trkpt lat="45.73307018347029" lon="10.045118086166687"><ele>521.0</ele><time>2026-04-12T14:12:21Z</time></trkpt><trkpt lat="45.73315561047062" lon="10.04526386728946"><ele>521.0</ele><time>2026-04-12T14:12:22Z</time></trkpt><trkpt lat="45.73323646583334" lon="10.045427442617699"><ele>521.0</ele><time>2026-04-12T14:12:23Z</time></trkpt><trkpt lat="45.73329423339441" lon="10.045601291103889"><ele>521.0</ele><time>2026-04-12T14:12:24Z</time></trkpt><trkpt lat="45.73334465597669" lon="10.045783039546581"><ele>517.75</ele><time>2026-04-12T14:12:25Z</time></trkpt><trkpt lat="45.73341643802984" lon="10.045925535916096"><ele>514.5</ele><time>2026-04-12T14:12:26Z</time></trkpt><trkpt lat="45.73349547113447" lon="10.046059970287134"><ele>511.25</ele><time>2026-04-12T14:12:27Z</time></trkpt><trkpt lat="45.73359248719855" lon="10.046203360063322"><ele>508.0</ele><time>2026-04-12T14:12:28Z</time></trkpt><trkpt lat="45.7336936759965" lon="10.046344404591476"><ele>513.5</ele><time>2026-04-12T14:12:29Z</time></trkpt><trkpt lat="45.73379108442508" lon="10.046482934181874"><ele>519.0</ele><time>2026-04-12T14:12:30Z</time></trkpt><trkpt lat="45.73389897305008" lon="10.046636165089001"><ele>524.5</ele><time>2026-04-12T14:12:31Z</time></trkpt><trkpt lat="45.73401734680567" lon="10.04678269142628"><ele>530.0</ele><time>2026-04-12T14:12:32Z</time></trkpt><trkpt lat="45.734137128580215" lon="10.046903778392421"><ele>530.0</ele><time>2026-04-12T14:12:33Z</time></trkpt><trkpt lat="45.734236273466244" lon="10.047018542223997"><ele>530.0</ele><time>2026-04-12T14:12:34Z</time></trkpt><trkpt lat="45.73431662031011" lon="10.04711306700861"><ele>530.0</ele><time>2026-04-12T14:12:35Z</time></trkpt><trkpt lat="45.73435406639549" lon="10.047230578310364"><ele>530.0</ele><time>2026-04-12T14:12:36Z</time></trkpt><trkpt lat="45.73440285856191" lon="10.04728774516239"><ele>530.0</ele><time>2026-04-12T14:12:37Z</time></trkpt><trkpt lat="45.734466259962275" lon="10.047295978646845"><ele>530.0</ele><time>2026-04-12T14:12:38Z</time></trkpt><trkpt lat="45.7345264691986" lon="10.047159435726357"><ele>530.0</ele><time>2026-04-12T14:12:40Z</time></trkpt><trkpt lat="45.734485846019325" lon="10.047078665007911"><ele>530.0</ele><time>2026-04-12T14:12:41Z</time></trkpt><trkpt lat="45.734439739093006" lon="10.047009276557594"><ele>530.0</ele><time>2026-04-12T14:12:42Z</time></trkpt><trkpt lat="45.73439600708064" lon="10.046912129667911"><ele>530.0</ele><time>2026-04-12T14:12:43Z</time></trkpt><trkpt lat="45.73431578027184" lon="10.046790677548042"><ele>530.0</ele><time>2026-04-12T14:12:44Z</time></trkpt><trkpt lat="45.7342560539786" lon="10.046649293128954"><ele>530.0</ele><time>2026-04-12T14:12:45Z</time></trkpt><trkpt lat="45.73419457150058" lon="10.046488400260015"><ele>533.5</ele><time>2026-04-12T14:12:46Z</time></trkpt><trkpt lat="45.73414233675554" lon="10.04633784423519"><ele>537.0</ele><time>2026-04-12T14:12:47Z</time></trkpt><trkpt lat="45.73409637853525" lon="10.04618620743778"><ele>540.5</ele><time>2026-04-12T14:12:48Z</time></trkpt><trkpt lat="45.73405832191873" lon="10.046024384443724"><ele>544.0</ele><time>2026-04-12T14:12:49Z</time></trkpt><trkpt lat="45.73405344737255" lon="10.045850849659868"><ele>545.25</ele><time>2026-04-12T14:12:50Z</time></trkpt><trkpt lat="45.73406749394854" lon="10.04566970394209"><ele>546.5</ele><time>2026-04-12T14:12:51Z</time></trkpt><trkpt lat="45.73407613118353" lon="10.045481516731693"><ele>547.75</ele><time>2026-04-12T14:12:52Z</time></trkpt><trkpt lat="45.73407962430062" lon="10.045284574247457"><ele>549.0</ele><time>2026-04-12T14:12:53Z</time></trkpt><trkpt lat="45.73408567129425" lon="10.045088133290465"><ele>549.75</ele><time>2026-04-12T14:12:54Z</time></trkpt><trkpt lat="45.734091878906625" lon="10.044889236812212"><ele>550.5</ele><time>2026-04-12T14:12:55Z</time></trkpt><trkpt lat="45.73407357380946" lon="10.044686935827968"><ele>551.25</ele><time>2026-04-12T14:12:56Z</time></trkpt><trkpt lat="45.73403382388203" lon="10.044490979456924"><ele>552.0</ele><time>2026-04-12T14:12:57Z</time></trkpt><trkpt lat="45.733986710479556" lon="10.044293979556452"><ele>552.6</ele><time>2026-04-12T14:12:58Z</time></trkpt><trkpt lat="45.73394387084873" lon="10.044118063710775"><ele>553.2</ele><time>2026-04-12T14:12:59Z</time></trkpt><trkpt lat="45.73390643176022" lon="10.043959118401146"><ele>553.8</ele><time>2026-04-12T14:13:00Z</time></trkpt><trkpt lat="45.73389149170375" lon="10.043829139458344"><ele>554.4</ele><time>2026-04-12T14:13:01Z</time></trkpt><trkpt lat="45.733903595644826" lon="10.043722048107774"><ele>555.0</ele><time>2026-04-12T14:13:02Z</time></trkpt><trkpt lat="45.73399487101987" lon="10.043665982525614"><ele>555.0</ele><time>2026-04-12T14:13:04Z</time></trkpt><trkpt lat="45.73404067504147" lon="10.043800157336069"><ele>555.0</ele><time>2026-04-12T14:13:06Z</time></trkpt><trkpt lat="45.73410305903818" lon="10.043975100452013"><ele>555.0</ele><time>2026-04-12T14:13:08Z</time></trkpt><trkpt lat="45.73415742710687" lon="10.044093818189952"><ele>555.0</ele><time>2026-04-12T14:13:09Z</time></trkpt><trkpt lat="45.73419753088369" lon="10.044236155978197"><ele>555.0</ele><time>2026-04-12T14:13:10Z</time></trkpt><trkpt lat="45.7342493454487" lon="10.04437914369732"><ele>554.4</ele><time>2026-04-12T14:13:11Z</time></trkpt><trkpt lat="45.73429026597506" lon="10.044523918591013"><ele>553.8</ele><time>2026-04-12T14:13:12Z</time></trkpt><trkpt lat="45.73429978699283" lon="10.044676002304199"><ele>553.2</ele><time>2026-04-12T14:13:13Z</time></trkpt><trkpt lat="45.734283815184476" lon="10.044824803873963"><ele>552.6</ele><time>2026-04-12T14:13:14Z</time></trkpt><trkpt lat="45.734265634468045" lon="10.044972907085286"><ele>552.0</ele><time>2026-04-12T14:13:15Z</time></trkpt><trkpt lat="45.734261403365615" lon="10.045124536257113"><ele>551.4</ele><time>2026-04-12T14:13:16Z</time></trkpt><trkpt lat="45.734266365457245" lon="10.045273934123593"><ele>550.8000000000001</ele><time>2026-04-12T14:13:17Z</time></trkpt><trkpt lat="45.734279871327104" lon="10.04540839779506"><ele>550.2</ele><time>2026-04-12T14:13:18Z</time></trkpt><trkpt lat="45.73429268276844" lon="10.045519296680443"><ele>549.6</ele><time>2026-04-12T14:13:19Z</time></trkpt><trkpt lat="45.7343154893879" lon="10.045610787836871"><ele>549.0</ele><time>2026-04-12T14:13:20Z</time></trkpt><trkpt lat="45.73441033111081" lon="10.045677129932814"><ele>555.4</ele><time>2026-04-12T14:13:22Z</time></trkpt><trkpt lat="45.73447653768548" lon="10.04555185746113"><ele>561.8</ele><time>2026-04-12T14:13:24Z</time></trkpt><trkpt lat="45.734468276408435" lon="10.045453280574431"><ele>568.2</ele><time>2026-04-12T14:13:25Z</time></trkpt><trkpt lat="45.73444100721785" lon="10.04533436343039"><ele>574.6</ele><time>2026-04-12T14:13:26Z</time></trkpt><trkpt lat="45.73443238706657" lon="10.045197855381009"><ele>581.0</ele><time>2026-04-12T14:13:27Z</time></trkpt><trkpt lat="45.73445224595719" lon="10.045050864332554"><ele>581.4</ele><time>2026-04-12T14:13:28Z</time></trkpt><trkpt lat="45.7344826825043" lon="10.04491220073027"><ele>581.8</ele><time>2026-04-12T14:13:29Z</time></trkpt><trkpt lat="45.734507221998406" lon="10.044796890011932"><ele>582.1999999999999</ele><time>2026-04-12T14:13:30Z</time></trkpt><trkpt lat="45.73452640237" lon="10.044705587137136"><ele>582.6</ele><time>2026-04-12T14:13:31Z</time></trkpt><trkpt lat="45.73460656087418" lon="10.044563969426923"><ele>583.0</ele><time>2026-04-12T14:13:33Z</time></trkpt><trkpt lat="45.73468455693265" lon="10.044564941141347"><ele>583.0</ele><time>2026-04-12T14:13:35Z</time></trkpt><trkpt lat="45.73468545552999" lon="10.044736998538188"><ele>583.0</ele><time>2026-04-12T14:13:36Z</time></trkpt><trkpt lat="45.73465926846859" lon="10.044844111054301"><ele>583.0</ele><time>2026-04-12T14:13:37Z</time></trkpt><trkpt lat="45.73463929601378" lon="10.044968735480724"><ele>583.0</ele><time>2026-04-12T14:13:38Z</time></trkpt><trkpt lat="45.73463203985666" lon="10.045118808874916"><ele>583.0</ele><time>2026-04-12T14:13:39Z</time></trkpt><trkpt lat="45.73464667680253" lon="10.045283672085977"><ele>582.5</ele><time>2026-04-12T14:13:40Z</time></trkpt><trkpt lat="45.734681381652905" lon="10.045457569812427"><ele>582.0</ele><time>2026-04-12T14:13:41Z</time></trkpt><trkpt lat="45.734732801067835" lon="10.045644115053767"><ele>581.5</ele><time>2026-04-12T14:13:42Z</time></trkpt><trkpt lat="45.7347878202517" lon="10.045826735833186"><ele>581.0</ele><time>2026-04-12T14:13:43Z</time></trkpt><trkpt lat="45.73483267679924" lon="10.046029525551184"><ele>578.6666666666666</ele><time>2026-04-12T14:13:44Z</time></trkpt><trkpt lat="45.734903054193715" lon="10.04622859315715"><ele>576.3333333333334</ele><time>2026-04-12T14:13:45Z</time></trkpt><trkpt lat="45.734996825723144" lon="10.046424239739943"><ele>574.0</ele><time>2026-04-12T14:13:46Z</time></trkpt><trkpt lat="45.73506630358925" lon="10.046651481857559"><ele>572.3333333333334</ele><time>2026-04-12T14:13:47Z</time></trkpt><trkpt lat="45.73514802982209" lon="10.046872566664977"><ele>570.6666666666666</ele><time>2026-04-12T14:13:48Z</time></trkpt><trkpt lat="45.73524123877476" lon="10.047074465848292"><ele>569.0</ele><time>2026-04-12T14:13:49Z</time></trkpt><trkpt lat="45.73532092314865" lon="10.047274635764055"><ele>574.5</ele><time>2026-04-12T14:13:50Z</time></trkpt><trkpt lat="45.735405861338705" lon="10.047452213542288"><ele>580.0</ele><time>2026-04-12T14:13:51Z</time></trkpt><trkpt lat="45.735485223998836" lon="10.047583813899802"><ele>585.5</ele><time>2026-04-12T14:13:52Z</time></trkpt><trkpt lat="45.73553711173894" lon="10.047702784500391"><ele>591.0</ele><time>2026-04-12T14:13:53Z</time></trkpt><trkpt lat="45.7356068878447" lon="10.04777381456989"><ele>591.0</ele><time>2026-04-12T14:13:54Z</time></trkpt><trkpt lat="45.73565850142448" lon="10.047825603570086"><ele>591.0</ele><time>2026-04-12T14:13:55Z</time></trkpt><trkpt lat="45.73574545681358" lon="10.04779593049168"><ele>591.0</ele><time>2026-04-12T14:13:57Z</time></trkpt><trkpt lat="45.73575410694198" lon="10.047607799237754"><ele>591.0</ele><time>2026-04-12T14:13:59Z</time></trkpt><trkpt lat="45.7357150957866" lon="10.047496001094059"><ele>591.0</ele><time>2026-04-12T14:14:00Z</time></trkpt><trkpt lat="45.73568642979284" lon="10.047370105300628"><ele>594.0</ele><time>2026-04-12T14:14:01Z</time></trkpt><trkpt lat="45.735660539507755" lon="10.047228980052633"><ele>597.0</ele><time>2026-04-12T14:14:02Z</time></trkpt><trkpt lat="45.735646639894156" lon="10.04706641729816"><ele>600.0</ele><time>2026-04-12T14:14:03Z</time></trkpt><trkpt lat="45.73563561645346" lon="10.046888457216868"><ele>603.0</ele><time>2026-04-12T14:14:04Z</time></trkpt><trkpt lat="45.7356394674011" lon="10.046686030112173"><ele>603.5</ele><time>2026-04-12T14:14:05Z</time></trkpt><trkpt lat="45.73564756427575" lon="10.046490929259518"><ele>604.0</ele><time>2026-04-12T14:14:06Z</time></trkpt><trkpt lat="45.735661453994304" lon="10.046273968455468"><ele>604.5</ele><time>2026-04-12T14:14:07Z</time></trkpt><trkpt lat="45.73566600029269" lon="10.046048929599346"><ele>605.0</ele><time>2026-04-12T14:14:08Z</time></trkpt><trkpt lat="45.73566348461592" lon="10.04583418401563"><ele>608.3333333333333</ele><time>2026-04-12T14:14:09Z</time></trkpt><trkpt lat="45.735646247028804" lon="10.045601459867893"><ele>611.6666666666666</ele><time>2026-04-12T14:14:10Z</time></trkpt><trkpt lat="45.73563268952969" lon="10.045377812155891"><ele>615.0</ele><time>2026-04-12T14:14:11Z</time></trkpt><trkpt lat="45.735615982342956" lon="10.045157111190525"><ele>615.75</ele><time>2026-04-12T14:14:12Z</time></trkpt><trkpt lat="45.735608310936826" lon="10.04494204777717"><ele>616.5</ele><time>2026-04-12T14:14:13Z</time></trkpt><trkpt lat="45.73560209387315" lon="10.044730195099458"><ele>617.25</ele><time>2026-04-12T14:14:14Z</time></trkpt><trkpt lat="45.73560405970772" lon="10.044528284399949"><ele>618.0</ele><time>2026-04-12T14:14:15Z</time></trkpt><trkpt lat="45.73561453889441" lon="10.044318647641237"><ele>619.0</ele><time>2026-04-12T14:14:16Z</time></trkpt><trkpt lat="45.735646486963574" lon="10.044122870477892"><ele>620.0</ele><time>2026-04-12T14:14:17Z</time></trkpt><trkpt lat="45.735650366898405" lon="10.043926513495398"><ele>621.0</ele><time>2026-04-12T14:14:18Z</time></trkpt><trkpt lat="45.73562401851391" lon="10.043741519015326"><ele>622.0</ele><time>2026-04-12T14:14:19Z</time></trkpt><trkpt lat="45.73559894313085" lon="10.043588681285888"><ele>622.0</ele><time>2026-04-12T14:14:20Z</time></trkpt><trkpt lat="45.73558046402024" lon="10.043455926557941"><ele>622.0</ele><time>2026-04-12T14:14:21Z</time></trkpt><trkpt lat="45.73557745258963" lon="10.043339326937227"><ele>622.0</ele><time>2026-04-12T14:14:22Z</time></trkpt><trkpt lat="45.73559229974399" lon="10.043223637526157"><ele>622.0</ele><time>2026-04-12T14:14:23Z</time></trkpt><trkpt lat="45.735623256808445" lon="10.04309375796135"><ele>622.0</ele><time>2026-04-12T14:14:24Z</time></trkpt><trkpt lat="45.735664720176715" lon="10.042975984454744"><ele>622.0</ele><time>2026-04-12T14:14:25Z</time></trkpt><trkpt lat="45.73570333879894" lon="10.042868604589271"><ele>621.4</ele><time>2026-04-12T14:14:26Z</time></trkpt><trkpt lat="45.73573977450802" lon="10.042794656083103"><ele>620.8000000000001</ele><time>2026-04-12T14:14:27Z</time></trkpt><trkpt lat="45.73582593598573" lon="10.042728981557433"><ele>620.2</ele><time>2026-04-12T14:14:29Z</time></trkpt><trkpt lat="45.73584590723876" lon="10.042929934127603"><ele>619.6</ele><time>2026-04-12T14:14:31Z</time></trkpt><trkpt lat="45.73586660196958" lon="10.043057656938547"><ele>619.0</ele><time>2026-04-12T14:14:32Z</time></trkpt><trkpt lat="45.73589317461218" lon="10.043205513367477"><ele>619.75</ele><time>2026-04-12T14:14:33Z</time></trkpt><trkpt lat="45.73592585309962" lon="10.043373317179404"><ele>620.5</ele><time>2026-04-12T14:14:34Z</time></trkpt><trkpt lat="45.735964197270135" lon="10.043559413851087"><ele>621.25</ele><time>2026-04-12T14:14:35Z</time></trkpt><trkpt lat="45.73600084335977" lon="10.043759954142496"><ele>622.0</ele><time>2026-04-12T14:14:36Z</time></trkpt><trkpt lat="45.73604724163497" lon="10.043957157211924"><ele>633.0</ele><time>2026-04-12T14:14:37Z</time></trkpt><trkpt lat="45.736108006539446" lon="10.044159936118506"><ele>644.0</ele><time>2026-04-12T14:14:38Z</time></trkpt><trkpt lat="45.73618220383169" lon="10.044354746641087"><ele>655.0</ele><time>2026-04-12T14:14:39Z</time></trkpt><trkpt lat="45.736266398590274" lon="10.04454522683379"><ele>655.0</ele><time>2026-04-12T14:14:40Z</time></trkpt><trkpt lat="45.73635886163376" lon="10.044733153301594"><ele>655.0</ele><time>2026-04-12T14:14:41Z</time></trkpt><trkpt lat="45.73645489094404" lon="10.044919195334463"><ele>655.0</ele><time>2026-04-12T14:14:42Z</time></trkpt><trkpt lat="45.73654471701822" lon="10.04510849807123"><ele>650.6666666666667</ele><time>2026-04-12T14:14:43Z</time></trkpt><trkpt lat="45.736626596008065" lon="10.045307042492773"><ele>646.3333333333334</ele><time>2026-04-12T14:14:44Z</time></trkpt><trkpt lat="45.736706743450995" lon="10.045491070664665"><ele>642.0</ele><time>2026-04-12T14:14:45Z</time></trkpt><trkpt lat="45.73678774016147" lon="10.04565653648089"><ele>639.6</ele><time>2026-04-12T14:14:46Z</time></trkpt><trkpt lat="45.73686019367538" lon="10.04582190384445"><ele>637.2</ele><time>2026-04-12T14:14:47Z</time></trkpt><trkpt lat="45.73691539629496" lon="10.04596636247836"><ele>634.8</ele><time>2026-04-12T14:14:48Z</time></trkpt><trkpt lat="45.73697037833681" lon="10.0460768309923"><ele>632.4</ele><time>2026-04-12T14:14:49Z</time></trkpt><trkpt lat="45.737023929850686" lon="10.046138351778865"><ele>630.0</ele><time>2026-04-12T14:14:50Z</time></trkpt><trkpt lat="45.737119510216054" lon="10.046113463317436"><ele>636.6</ele><time>2026-04-12T14:14:52Z</time></trkpt><trkpt lat="45.737180939504555" lon="10.04594646053285"><ele>643.2</ele><time>2026-04-12T14:14:54Z</time></trkpt><trkpt lat="45.737156229925894" lon="10.04583046918385"><ele>649.8</ele><time>2026-04-12T14:14:55Z</time></trkpt><trkpt lat="45.73712393116263" lon="10.045707230403208"><ele>656.4</ele><time>2026-04-12T14:14:56Z</time></trkpt><trkpt lat="45.73710090151085" lon="10.045566797871416"><ele>663.0</ele><time>2026-04-12T14:14:57Z</time></trkpt><trkpt lat="45.73707622185695" lon="10.045411511171512"><ele>668.0</ele><time>2026-04-12T14:14:58Z</time></trkpt><trkpt lat="45.737041770421726" lon="10.045243032131005"><ele>673.0</ele><time>2026-04-12T14:14:59Z</time></trkpt><trkpt lat="45.73700424351353" lon="10.045058762928083"><ele>678.0</ele><time>2026-04-12T14:15:00Z</time></trkpt><trkpt lat="45.7369712584352" lon="10.044866886560175"><ele>683.0</ele><time>2026-04-12T14:15:01Z</time></trkpt><trkpt lat="45.73692867431317" lon="10.044668361039594"><ele>686.75</ele><time>2026-04-12T14:15:02Z</time></trkpt><trkpt lat="45.736888387130804" lon="10.044478033135881"><ele>690.5</ele><time>2026-04-12T14:15:03Z</time></trkpt><trkpt lat="45.736847324670265" lon="10.044300032187692"><ele>694.25</ele><time>2026-04-12T14:15:04Z</time></trkpt><trkpt lat="45.73682761608826" lon="10.04413134431366"><ele>698.0</ele><time>2026-04-12T14:15:05Z</time></trkpt><trkpt lat="45.73680079461455" lon="10.043972446144455"><ele>689.25</ele><time>2026-04-12T14:15:06Z</time></trkpt><trkpt lat="45.736788316412714" lon="10.043815380347398"><ele>680.5</ele><time>2026-04-12T14:15:07Z</time></trkpt><trkpt lat="45.736785501304766" lon="10.043652927946681"><ele>671.75</ele><time>2026-04-12T14:15:08Z</time></trkpt><trkpt lat="45.7367833480954" lon="10.043475572353092"><ele>663.0</ele><time>2026-04-12T14:15:09Z</time></trkpt><trkpt lat="45.73678292506703" lon="10.043291848229643"><ele>661.75</ele><time>2026-04-12T14:15:10Z</time></trkpt><trkpt lat="45.73679959175283" lon="10.043109389133669"><ele>660.5</ele><time>2026-04-12T14:15:11Z</time></trkpt><trkpt lat="45.73684898952216" lon="10.042931117097066"><ele>659.25</ele><time>2026-04-12T14:15:12Z</time></trkpt><trkpt lat="45.736904075677735" lon="10.042752219211721"><ele>658.0</ele><time>2026-04-12T14:15:13Z</time></trkpt><trkpt lat="45.73696206339565" lon="10.04258182305698"><ele>670.25</ele><time>2026-04-12T14:15:14Z</time></trkpt><trkpt lat="45.73702215532637" lon="10.042404660237114"><ele>682.5</ele><time>2026-04-12T14:15:15Z</time></trkpt><trkpt lat="45.73707729726832" lon="10.042230373161006"><ele>694.75</ele><time>2026-04-12T14:15:16Z</time></trkpt><trkpt lat="45.737134103121676" lon="10.042060047528244"><ele>707.0</ele><time>2026-04-12T14:15:17Z</time></trkpt><trkpt lat="45.737182661920926" lon="10.041888667421052"><ele>707.0</ele><time>2026-04-12T14:15:18Z</time></trkpt><trkpt lat="45.737202382116806" lon="10.041706305040496"><ele>707.0</ele><time>2026-04-12T14:15:19Z</time></trkpt><trkpt lat="45.73719611744189" lon="10.041512750962083"><ele>707.0</ele><time>2026-04-12T14:15:20Z</time></trkpt><trkpt lat="45.737172162256854" lon="10.04132375857159"><ele>707.0</ele><time>2026-04-12T14:15:21Z</time></trkpt><trkpt lat="45.73714323547387" lon="10.04113431001138"><ele>709.0</ele><time>2026-04-12T14:15:22Z</time></trkpt><trkpt lat="45.73711494491056" lon="10.040949666975461"><ele>711.0</ele><time>2026-04-12T14:15:23Z</time></trkpt><trkpt lat="45.73709340902641" lon="10.040769285656145"><ele>713.0</ele><time>2026-04-12T14:15:24Z</time></trkpt><trkpt lat="45.737089884457475" lon="10.040594513868095"><ele>715.0</ele><time>2026-04-12T14:15:25Z</time></trkpt><trkpt lat="45.737088912684435" lon="10.040424774612298"><ele>716.1666666666667</ele><time>2026-04-12T14:15:26Z</time></trkpt><trkpt lat="45.73708371141424" lon="10.040283893728866"><ele>717.3333333333334</ele><time>2026-04-12T14:15:27Z</time></trkpt><trkpt lat="45.737069659797264" lon="10.040161268481214"><ele>718.5</ele><time>2026-04-12T14:15:28Z</time></trkpt><trkpt lat="45.7370496006472" lon="10.040062319949687"><ele>719.6666666666666</ele><time>2026-04-12T14:15:29Z</time></trkpt><trkpt lat="45.737021434147586" lon="10.039971718164544"><ele>720.8333333333333</ele><time>2026-04-12T14:15:30Z</time></trkpt><trkpt lat="45.73703014917812" lon="10.039879663896881"><ele>722.0</ele><time>2026-04-12T14:15:31Z</time></trkpt><trkpt lat="45.73706013336889" lon="10.039789001639832"><ele>722.0</ele><time>2026-04-12T14:15:33Z</time></trkpt><trkpt lat="45.73714478362147" lon="10.039870498716938"><ele>722.0</ele><time>2026-04-12T14:15:35Z</time></trkpt><trkpt lat="45.73715379029165" lon="10.03997708269861"><ele>722.0</ele><time>2026-04-12T14:15:36Z</time></trkpt><trkpt lat="45.73719112463747" lon="10.04009288714401"><ele>722.0</ele><time>2026-04-12T14:15:37Z</time></trkpt><trkpt lat="45.73719656560102" lon="10.04024072917445"><ele>722.0</ele><time>2026-04-12T14:15:38Z</time></trkpt><trkpt lat="45.737233993236764" lon="10.040407669536012"><ele>722.5</ele><time>2026-04-12T14:15:39Z</time></trkpt><trkpt lat="45.73728573674627" lon="10.040596643754197"><ele>723.0</ele><time>2026-04-12T14:15:40Z</time></trkpt><trkpt lat="45.73734577545785" lon="10.040788567978277"><ele>723.5</ele><time>2026-04-12T14:15:41Z</time></trkpt><trkpt lat="45.73740960117347" lon="10.040971088644664"><ele>724.0</ele><time>2026-04-12T14:15:42Z</time></trkpt><trkpt lat="45.7374831460734" lon="10.041166697325071"><ele>721.0</ele><time>2026-04-12T14:15:43Z</time></trkpt><trkpt lat="45.737538817620944" lon="10.041374131364721"><ele>718.0</ele><time>2026-04-12T14:15:44Z</time></trkpt><trkpt lat="45.737613683637065" lon="10.041564996658536"><ele>715.0</ele><time>2026-04-12T14:15:45Z</time></trkpt><trkpt lat="45.73766701271443" lon="10.041778834246182"><ele>713.0</ele><time>2026-04-12T14:15:46Z</time></trkpt><trkpt lat="45.73767090573539" lon="10.041993333674272"><ele>711.0</ele><time>2026-04-12T14:15:47Z</time></trkpt><trkpt lat="45.737675467668176" lon="10.042198090789586"><ele>709.0</ele><time>2026-04-12T14:15:48Z</time></trkpt><trkpt lat="45.73767034271429" lon="10.042406105623447"><ele>707.0</ele><time>2026-04-12T14:15:49Z</time></trkpt><trkpt lat="45.73766728447911" lon="10.042614603100017"><ele>706.6666666666666</ele><time>2026-04-12T14:15:50Z</time></trkpt><trkpt lat="45.73767051106678" lon="10.042829752573825"><ele>706.3333333333334</ele><time>2026-04-12T14:15:51Z</time></trkpt><trkpt lat="45.73767347300588" lon="10.043045856617052"><ele>706.0</ele><time>2026-04-12T14:15:52Z</time></trkpt><trkpt lat="45.737676174520445" lon="10.043263685709288"><ele>706.25</ele><time>2026-04-12T14:15:53Z</time></trkpt><trkpt lat="45.73768497401904" lon="10.043470638317393"><ele>706.5</ele><time>2026-04-12T14:15:54Z</time></trkpt><trkpt lat="45.737702568462495" lon="10.043670209090314"><ele>706.75</ele><time>2026-04-12T14:15:55Z</time></trkpt><trkpt lat="45.73772386215832" lon="10.043846293696289"><ele>707.0</ele><time>2026-04-12T14:15:56Z</time></trkpt><trkpt lat="45.73774273164353" lon="10.043991374039948"><ele>714.8</ele><time>2026-04-12T14:15:57Z</time></trkpt><trkpt lat="45.73775735894124" lon="10.044111540503788"><ele>722.6</ele><time>2026-04-12T14:15:58Z</time></trkpt><trkpt lat="45.73776756583818" lon="10.04420161429431"><ele>730.4</ele><time>2026-04-12T14:15:59Z</time></trkpt><trkpt lat="45.7378401063099" lon="10.044304240619198"><ele>738.1999999999999</ele><time>2026-04-12T14:16:01Z</time></trkpt><trkpt lat="45.737933688439064" lon="10.044250887585795"><ele>746.0</ele><time>2026-04-12T14:16:03Z</time></trkpt><trkpt lat="45.73792145789486" lon="10.044072420106142"><ele>748.1999999999999</ele><time>2026-04-12T14:16:05Z</time></trkpt><trkpt lat="45.737895547426106" lon="10.04396600374914"><ele>750.4</ele><time>2026-04-12T14:16:06Z</time></trkpt><trkpt lat="45.73787370292237" lon="10.043840965024744"><ele>752.6</ele><time>2026-04-12T14:16:07Z</time></trkpt><trkpt lat="45.73786330103588" lon="10.0437027117454"><ele>754.8</ele><time>2026-04-12T14:16:08Z</time></trkpt><trkpt lat="45.7378570935915" lon="10.04355073720712"><ele>757.0</ele><time>2026-04-12T14:16:09Z</time></trkpt><trkpt lat="45.73785557979431" lon="10.04338716784045"><ele>756.25</ele><time>2026-04-12T14:16:10Z</time></trkpt><trkpt lat="45.737882999074856" lon="10.043219012013859"><ele>755.5</ele><time>2026-04-12T14:16:11Z</time></trkpt><trkpt lat="45.73792128765583" lon="10.043051543039457"><ele>754.75</ele><time>2026-04-12T14:16:12Z</time></trkpt><trkpt lat="45.73796375591646" lon="10.04288872776196"><ele>754.0</ele><time>2026-04-12T14:16:13Z</time></trkpt><trkpt lat="45.738010831993044" lon="10.042721429159151"><ele>754.0</ele><time>2026-04-12T14:16:14Z</time></trkpt><trkpt lat="45.73805727353023" lon="10.042544628112122"><ele>754.0</ele><time>2026-04-12T14:16:15Z</time></trkpt><trkpt lat="45.7381101349805" lon="10.042361972523274"><ele>754.0</ele><time>2026-04-12T14:16:16Z</time></trkpt><trkpt lat="45.73815730274755" lon="10.042187997623587"><ele>754.0</ele><time>2026-04-12T14:16:17Z</time></trkpt><trkpt lat="45.738199693462526" lon="10.042021941293067"><ele>754.0</ele><time>2026-04-12T14:16:18Z</time></trkpt><trkpt lat="45.738245025140124" lon="10.041868492770652"><ele>754.0</ele><time>2026-04-12T14:16:19Z</time></trkpt><trkpt lat="45.738257660516126" lon="10.041707201886627"><ele>754.0</ele><time>2026-04-12T14:16:20Z</time></trkpt><trkpt lat="45.73824899867403" lon="10.041550906165407"><ele>754.0</ele><time>2026-04-12T14:16:21Z</time></trkpt><trkpt lat="45.738220136611666" lon="10.041388087735346"><ele>755.25</ele><time>2026-04-12T14:16:22Z</time></trkpt><trkpt lat="45.73818623606756" lon="10.04121641784691"><ele>756.5</ele><time>2026-04-12T14:16:23Z</time></trkpt><trkpt lat="45.73812200384521" lon="10.041048770331097"><ele>757.75</ele><time>2026-04-12T14:16:24Z</time></trkpt><trkpt lat="45.738057854630554" lon="10.040893059273078"><ele>759.0</ele><time>2026-04-12T14:16:25Z</time></trkpt><trkpt lat="45.73799794725832" lon="10.040745443861303"><ele>759.75</ele><time>2026-04-12T14:16:26Z</time></trkpt><trkpt lat="45.73793647479418" lon="10.040594294637453"><ele>760.5</ele><time>2026-04-12T14:16:27Z</time></trkpt><trkpt lat="45.73791845925887" lon="10.040428122675307"><ele>761.25</ele><time>2026-04-12T14:16:28Z</time></trkpt><trkpt lat="45.73793469758709" lon="10.040257125387203"><ele>762.0</ele><time>2026-04-12T14:16:29Z</time></trkpt><trkpt lat="45.73796928450517" lon="10.040103037666183"><ele>759.5</ele><time>2026-04-12T14:16:30Z</time></trkpt><trkpt lat="45.73800724326524" lon="10.039937630123978"><ele>757.0</ele><time>2026-04-12T14:16:31Z</time></trkpt><trkpt lat="45.738053762935884" lon="10.039767030119325"><ele>754.5</ele><time>2026-04-12T14:16:32Z</time></trkpt><trkpt lat="45.73810634839887" lon="10.039600139774498"><ele>752.0</ele><time>2026-04-12T14:16:33Z</time></trkpt><trkpt lat="45.738162941319935" lon="10.039444862817348"><ele>752.0</ele><time>2026-04-12T14:16:34Z</time></trkpt><trkpt lat="45.73821640693592" lon="10.039295393277426"><ele>752.0</ele><time>2026-04-12T14:16:35Z</time></trkpt><trkpt lat="45.73830220037267" lon="10.03918409846354"><ele>752.0</ele><time>2026-04-12T14:16:36Z</time></trkpt><trkpt lat="45.73838935195676" lon="10.039120305823241"><ele>752.0</ele><time>2026-04-12T14:16:37Z</time></trkpt><trkpt lat="45.73848673614764" lon="10.039126310359158"><ele>752.0</ele><time>2026-04-12T14:16:38Z</time></trkpt><trkpt lat="45.73859367467591" lon="10.039102206218995"><ele>755.8</ele><time>2026-04-12T14:16:39Z</time></trkpt><trkpt lat="45.7387068810402" lon="10.039128340096314"><ele>759.6</ele><time>2026-04-12T14:16:40Z</time></trkpt><trkpt lat="45.738810494939294" lon="10.039111721508712"><ele>763.4</ele><time>2026-04-12T14:16:41Z</time></trkpt><trkpt lat="45.738903177497015" lon="10.039104343105238"><ele>767.1999999999999</ele><time>2026-04-12T14:16:42Z</time></trkpt><trkpt lat="45.73897847570003" lon="10.039093652264727"><ele>771.0</ele><time>2026-04-12T14:16:43Z</time></trkpt><trkpt lat="45.73904932090139" lon="10.039073740629263"><ele>771.0</ele><time>2026-04-12T14:16:44Z</time></trkpt><trkpt lat="45.739119978349" lon="10.03902769853296"><ele>771.0</ele><time>2026-04-12T14:16:45Z</time></trkpt><trkpt lat="45.739194640425026" lon="10.038977216031052"><ele>771.0</ele><time>2026-04-12T14:16:46Z</time></trkpt><trkpt lat="45.73925291476869" lon="10.03887239448103"><ele>771.0</ele><time>2026-04-12T14:16:47Z</time></trkpt><trkpt lat="45.73929580675876" lon="10.038749659376771"><ele>771.0</ele><time>2026-04-12T14:16:47.999Z</time></trkpt><trkpt lat="45.73931309130718" lon="10.038612509824956"><ele>771.0</ele><time>2026-04-12T14:16:49Z</time></trkpt><trkpt lat="45.73930349504727" lon="10.038472520450497"><ele>771.0</ele><time>2026-04-12T14:16:50Z</time></trkpt><trkpt lat="45.73926181090934" lon="10.038329318845976"><ele>771.0</ele><time>2026-04-12T14:16:51Z</time></trkpt><trkpt lat="45.73919139198189" lon="10.038213865500248"><ele>771.0</ele><time>2026-04-12T14:16:52Z</time></trkpt><trkpt lat="45.73909662152049" lon="10.038120114570164"><ele>771.0</ele><time>2026-04-12T14:16:53Z</time></trkpt><trkpt lat="45.73901006955588" lon="10.038038378501595"><ele>771.0</ele><time>2026-04-12T14:16:54Z</time></trkpt><trkpt lat="45.738937503927296" lon="10.037950567391034"><ele>774.4</ele><time>2026-04-12T14:16:55Z</time></trkpt><trkpt lat="45.738876042865655" lon="10.037854428100923"><ele>777.8</ele><time>2026-04-12T14:16:56Z</time></trkpt><trkpt lat="45.738825374541065" lon="10.037749844341239"><ele>781.1999999999999</ele><time>2026-04-12T14:16:57Z</time></trkpt><trkpt lat="45.73877445242928" lon="10.037631379493082"><ele>784.5999999999999</ele><time>2026-04-12T14:16:58Z</time></trkpt><trkpt lat="45.738726410048116" lon="10.037517249859153"><ele>788.0</ele><time>2026-04-12T14:16:59Z</time></trkpt><trkpt lat="45.73867197630903" lon="10.037423770439542"><ele>790.6666666666667</ele><time>2026-04-12T14:17:00Z</time></trkpt><trkpt lat="45.738633675778914" lon="10.037333954414468"><ele>793.3333333333334</ele><time>2026-04-12T14:17:01Z</time></trkpt><trkpt lat="45.73860544741287" lon="10.03723722273816"><ele>796.0</ele><time>2026-04-12T14:17:02Z</time></trkpt><trkpt lat="45.738554830305496" lon="10.037152728618203"><ele>798.6666666666667</ele><time>2026-04-12T14:17:03Z</time></trkpt><trkpt lat="45.73850147228755" lon="10.037064829735032"><ele>801.3333333333334</ele><time>2026-04-12T14:17:04Z</time></trkpt><trkpt lat="45.73844401388382" lon="10.036974563194917"><ele>804.0</ele><time>2026-04-12T14:17:05Z</time></trkpt><trkpt lat="45.738385206686885" lon="10.036885962518046"><ele>798.3333333333334</ele><time>2026-04-12T14:17:06Z</time></trkpt><trkpt lat="45.73833467198618" lon="10.036809825454302"><ele>792.6666666666667</ele><time>2026-04-12T14:17:07Z</time></trkpt><trkpt lat="45.73826283148974" lon="10.036709105107201"><ele>787.0</ele><time>2026-04-12T14:17:08Z</time></trkpt><trkpt lat="45.73820000401304" lon="10.036623137096951"><ele>781.3333333333334</ele><time>2026-04-12T14:17:09Z</time></trkpt><trkpt lat="45.738129012062195" lon="10.036539425760195"><ele>775.6666666666667</ele><time>2026-04-12T14:17:10Z</time></trkpt><trkpt lat="45.738071123334144" lon="10.03643848266635"><ele>770.0</ele><time>2026-04-12T14:17:11Z</time></trkpt><trkpt lat="45.738016653372036" lon="10.036344220939354"><ele>770.0000000000001</ele><time>2026-04-12T14:17:12Z</time></trkpt><trkpt lat="45.73798009875234" lon="10.03624406252506"><ele>770.0</ele><time>2026-04-12T14:17:13Z</time></trkpt><trkpt lat="45.73795879795383" lon="10.036156745096928"><ele>770.0</ele><time>2026-04-12T14:17:14Z</time></trkpt><trkpt lat="45.73794255093151" lon="10.036006715878862"><ele>770.0</ele><time>2026-04-12T14:17:16Z</time></trkpt><trkpt lat="45.73793212609757" lon="10.035913280076779"><ele>770.0000000000001</ele><time>2026-04-12T14:17:17Z</time></trkpt><trkpt lat="45.737925066867064" lon="10.035773222009217"><ele>770.0</ele><time>2026-04-12T14:17:19Z</time></trkpt><trkpt lat="45.73792786629314" lon="10.035636274309454"><ele>769.0000000000001</ele><time>2026-04-12T14:17:21Z</time></trkpt><trkpt lat="45.73793102969473" lon="10.035522437419266"><ele>768.0</ele><time>2026-04-12T14:17:23Z</time></trkpt><trkpt lat="45.73795933139487" lon="10.035372497367597"><ele>767.0</ele><time>2026-04-12T14:17:25Z</time></trkpt><trkpt lat="45.73799219233659" lon="10.035250618199887"><ele>766.0</ele><time>2026-04-12T14:17:27Z</time></trkpt><trkpt lat="45.738021095062365" lon="10.03514897085647"><ele>765.0</ele><time>2026-04-12T14:17:29Z</time></trkpt><trkpt lat="45.73805542361358" lon="10.035040002976498"><ele>764.0</ele><time>2026-04-12T14:17:32Z</time></trkpt><trkpt lat="45.73809011974731" lon="10.034947760133255"><ele>763.0</ele><time>2026-04-12T14:17:56Z</time></trkpt><trkpt lat="45.73813645076992" lon="10.034785748744959"><ele>762.0</ele><time>2026-04-12T14:17:58Z</time></trkpt><trkpt lat="45.738155554411684" lon="10.034674330884627"><ele>761.0</ele><time>2026-04-12T14:17:59Z</time></trkpt><trkpt lat="45.738183882483106" lon="10.034588251866415"><ele>760.0</ele><time>2026-04-12T14:18:00Z</time></trkpt><trkpt lat="45.73819753369743" lon="10.034403949308812"><ele>759.0</ele><time>2026-04-12T14:18:02Z</time></trkpt><trkpt lat="45.738219482464295" lon="10.034245519831963"><ele>758.0</ele><time>2026-04-12T14:18:04Z</time></trkpt><trkpt lat="45.738245235464056" lon="10.034072961969512"><ele>757.0</ele><time>2026-04-12T14:18:06Z</time></trkpt><trkpt lat="45.738275968990514" lon="10.033981949973052"><ele>756.0</ele><time>2026-04-12T14:18:07Z</time></trkpt><trkpt lat="45.73834929258041" lon="10.033850088055837"><ele>755.0</ele><time>2026-04-12T14:18:09Z</time></trkpt><trkpt lat="45.73845006447029" lon="10.033736944709073"><ele>754.0</ele><time>2026-04-12T14:18:11Z</time></trkpt><trkpt lat="45.73851579113652" lon="10.033684463815101"><ele>754.1666666666667</ele><time>2026-04-12T14:18:12Z</time></trkpt><trkpt lat="45.73858269820593" lon="10.033626924715897"><ele>754.3333333333334</ele><time>2026-04-12T14:18:13Z</time></trkpt><trkpt lat="45.73865059134931" lon="10.033569231323478"><ele>754.5</ele><time>2026-04-12T14:18:14Z</time></trkpt><trkpt lat="45.73871741634338" lon="10.033497670942419"><ele>754.6666666666666</ele><time>2026-04-12T14:18:15Z</time></trkpt><trkpt lat="45.73878651744423" lon="10.03342345252524"><ele>754.8333333333333</ele><time>2026-04-12T14:18:16Z</time></trkpt><trkpt lat="45.73884474870642" lon="10.03336210566035"><ele>755.0</ele><time>2026-04-12T14:18:17Z</time></trkpt><trkpt lat="45.738901756059384" lon="10.033308195169493"><ele>753.5</ele><time>2026-04-12T14:18:18Z</time></trkpt><trkpt lat="45.73896528640973" lon="10.03325292875827"><ele>752.0</ele><time>2026-04-12T14:18:20Z</time></trkpt><trkpt lat="45.73903875016674" lon="10.033210320944214"><ele>750.5</ele><time>2026-04-12T14:18:23Z</time></trkpt><trkpt lat="45.73915613372681" lon="10.03316224457271"><ele>749.0</ele><time>2026-04-12T14:18:25Z</time></trkpt><trkpt lat="45.73923319875857" lon="10.03317543671654"><ele>747.5</ele><time>2026-04-12T14:18:26Z</time></trkpt><trkpt lat="45.73930126099117" lon="10.033200259714109"><ele>746.0</ele><time>2026-04-12T14:18:27Z</time></trkpt><trkpt lat="45.73937335923199" lon="10.033243544448919"><ele>749.0</ele><time>2026-04-12T14:18:28Z</time></trkpt><trkpt lat="45.739440399376186" lon="10.033286255165415"><ele>752.0</ele><time>2026-04-12T14:18:29Z</time></trkpt><trkpt lat="45.7395078874291" lon="10.033332331972867"><ele>755.0</ele><time>2026-04-12T14:18:30Z</time></trkpt><trkpt lat="45.73957198392668" lon="10.033385945990355"><ele>758.0</ele><time>2026-04-12T14:18:31Z</time></trkpt><trkpt lat="45.73963632195409" lon="10.033431812550578"><ele>761.0</ele><time>2026-04-12T14:18:32Z</time></trkpt><trkpt lat="45.739707248505226" lon="10.033479691599624"><ele>764.0</ele><time>2026-04-12T14:18:34Z</time></trkpt><trkpt lat="45.739641322970776" lon="10.033652326965457"><ele>764.3333333333333</ele><time>2026-04-12T14:18:36Z</time></trkpt><trkpt lat="45.73957751305631" lon="10.033622863917058"><ele>764.6666666666666</ele><time>2026-04-12T14:18:37Z</time></trkpt><trkpt lat="45.73949797250348" lon="10.033624234528741"><ele>765.0</ele><time>2026-04-12T14:18:38Z</time></trkpt><trkpt lat="45.73941107277477" lon="10.03361831157074"><ele>765.3333333333334</ele><time>2026-04-12T14:18:39Z</time></trkpt><trkpt lat="45.739326518123676" lon="10.033630158074265"><ele>765.6666666666667</ele><time>2026-04-12T14:18:40Z</time></trkpt><trkpt lat="45.73924516503641" lon="10.033681412766525"><ele>766.0</ele><time>2026-04-12T14:18:41Z</time></trkpt><trkpt lat="45.73916218368412" lon="10.033730869517866"><ele>767.4</ele><time>2026-04-12T14:18:42Z</time></trkpt><trkpt lat="45.739084486319534" lon="10.033793130137084"><ele>768.8</ele><time>2026-04-12T14:18:43Z</time></trkpt><trkpt lat="45.73901415030671" lon="10.033875471704313"><ele>770.1999999999999</ele><time>2026-04-12T14:18:44Z</time></trkpt><trkpt lat="45.73895415675103" lon="10.033986373251759"><ele>771.5999999999999</ele><time>2026-04-12T14:18:45Z</time></trkpt><trkpt lat="45.73891410897081" lon="10.03411380141877"><ele>773.0</ele><time>2026-04-12T14:18:46Z</time></trkpt><trkpt lat="45.73887931393773" lon="10.034259866182156"><ele>773.0</ele><time>2026-04-12T14:18:47Z</time></trkpt><trkpt lat="45.738842535885425" lon="10.034416726467837"><ele>773.0</ele><time>2026-04-12T14:18:48Z</time></trkpt><trkpt lat="45.73880645276486" lon="10.0345628581667"><ele>773.0</ele><time>2026-04-12T14:18:49Z</time></trkpt><trkpt lat="45.73876687375301" lon="10.034716837383908"><ele>773.0</ele><time>2026-04-12T14:18:50Z</time></trkpt><trkpt lat="45.73872496044821" lon="10.034864352528093"><ele>773.0</ele><time>2026-04-12T14:18:51Z</time></trkpt><trkpt lat="45.73867394279489" lon="10.03501261612486"><ele>771.2</ele><time>2026-04-12T14:18:52Z</time></trkpt><trkpt lat="45.73861907645338" lon="10.035138279595632"><ele>769.4</ele><time>2026-04-12T14:18:53Z</time></trkpt><trkpt lat="45.73855688254717" lon="10.035247325959075"><ele>767.6</ele><time>2026-04-12T14:18:54Z</time></trkpt><trkpt lat="45.73849560716899" lon="10.035358206061177"><ele>765.8000000000001</ele><time>2026-04-12T14:18:55Z</time></trkpt><trkpt lat="45.73845364080059" lon="10.035479107821464"><ele>764.0</ele><time>2026-04-12T14:18:56Z</time></trkpt><trkpt lat="45.73843425616999" lon="10.03560352311296"><ele>764.0</ele><time>2026-04-12T14:18:57Z</time></trkpt><trkpt lat="45.73843701242524" lon="10.035744683668263"><ele>764.0</ele><time>2026-04-12T14:18:58Z</time></trkpt><trkpt lat="45.73847029107523" lon="10.035878403148699"><ele>764.0</ele><time>2026-04-12T14:18:59Z</time></trkpt><trkpt lat="45.73852203102113" lon="10.036007978544777"><ele>764.0</ele><time>2026-04-12T14:19:00Z</time></trkpt><trkpt lat="45.73857973876692" lon="10.036148737749553"><ele>764.0</ele><time>2026-04-12T14:19:01Z</time></trkpt><trkpt lat="45.73863497099723" lon="10.036288831249108"><ele>774.0</ele><time>2026-04-12T14:19:02Z</time></trkpt><trkpt lat="45.73869258587504" lon="10.036439983421975"><ele>784.0</ele><time>2026-04-12T14:19:03Z</time></trkpt><trkpt lat="45.73875375821577" lon="10.036597209753195"><ele>794.0</ele><time>2026-04-12T14:19:04Z</time></trkpt><trkpt lat="45.738819286642624" lon="10.036754101384194"><ele>804.0</ele><time>2026-04-12T14:19:05Z</time></trkpt><trkpt lat="45.73890069117836" lon="10.036895906594854"><ele>804.0</ele><time>2026-04-12T14:19:06Z</time></trkpt><trkpt lat="45.73896074431643" lon="10.037057448286673"><ele>804.0</ele><time>2026-04-12T14:19:07Z</time></trkpt><trkpt lat="45.73905146508476" lon="10.037190212743878"><ele>804.0</ele><time>2026-04-12T14:19:08Z</time></trkpt><trkpt lat="45.739120595824545" lon="10.037348174249964"><ele>804.0</ele><time>2026-04-12T14:19:09Z</time></trkpt><trkpt lat="45.739211063931116" lon="10.037489552915634"><ele>798.6666666666667</ele><time>2026-04-12T14:19:10Z</time></trkpt><trkpt lat="45.73930473444617" lon="10.037626342879882"><ele>793.3333333333334</ele><time>2026-04-12T14:19:11Z</time></trkpt><trkpt lat="45.739488439387486" lon="10.037895168633284"><ele>788.0</ele><time>2026-04-12T14:19:13Z</time></trkpt><trkpt lat="45.73956839648645" lon="10.038016089742664"><ele>791.2</ele><time>2026-04-12T14:19:14Z</time></trkpt><trkpt lat="45.73963469602658" lon="10.038115673301856"><ele>794.4</ele><time>2026-04-12T14:19:15Z</time></trkpt><trkpt lat="45.739690231001184" lon="10.038210175567361"><ele>797.6</ele><time>2026-04-12T14:19:16Z</time></trkpt><trkpt lat="45.739763693949705" lon="10.038330085901839"><ele>800.8000000000001</ele><time>2026-04-12T14:19:18Z</time></trkpt><trkpt lat="45.73976822649323" lon="10.038427348436075"><ele>804.0</ele><time>2026-04-12T14:19:19Z</time></trkpt><trkpt lat="45.739760837084056" lon="10.038564356357236"><ele>804.0</ele><time>2026-04-12T14:19:21Z</time></trkpt><trkpt lat="45.73975333589987" lon="10.038676005603834"><ele>804.0</ele><time>2026-04-12T14:19:23Z</time></trkpt><trkpt lat="45.739741402246075" lon="10.03877657968804"><ele>804.0</ele><time>2026-04-12T14:19:26Z</time></trkpt></trkseg><trkseg><trkpt lat="45.73966515091377" lon="10.038921482129599"><ele>804.0</ele><time>2026-04-12T14:36:12Z</time></trkpt><trkpt lat="45.73964264526162" lon="10.039032307755315"><ele>804.0</ele><time>2026-04-12T14:38:16Z</time></trkpt><trkpt lat="45.73960144254543" lon="10.039207674810365"><ele>804.0</ele><time>2026-04-12T14:38:18Z</time></trkpt><trkpt lat="45.73956122860794" lon="10.039363497484354"><ele>804.0</ele><time>2026-04-12T14:38:20Z</time></trkpt><trkpt lat="45.73952812501958" lon="10.03951927346836"><ele>804.0</ele><time>2026-04-12T14:38:22Z</time></trkpt><trkpt lat="45.7395084177585" lon="10.039606074620504"><ele>804.0</ele><time>2026-04-12T14:38:23Z</time></trkpt><trkpt lat="45.73948523632241" lon="10.03970219402029"><ele>804.0</ele><time>2026-04-12T14:38:24Z</time></trkpt><trkpt lat="45.73945838643035" lon="10.039801827956902"><ele>804.0</ele><time>2026-04-12T14:38:25Z</time></trkpt><trkpt lat="45.73942427621337" lon="10.039902155534147"><ele>804.0</ele><time>2026-04-12T14:38:26Z</time></trkpt><trkpt lat="45.73938667855011" lon="10.03999068656608"><ele>804.0</ele><time>2026-04-12T14:38:27Z</time></trkpt><trkpt lat="45.73934069482516" lon="10.040085889232428"><ele>804.0</ele><time>2026-04-12T14:38:28Z</time></trkpt><trkpt lat="45.73929284521406" lon="10.040179793491397"><ele>800.1666666666666</ele><time>2026-04-12T14:38:29Z</time></trkpt><trkpt lat="45.739245332559115" lon="10.040276645329504"><ele>796.3333333333333</ele><time>2026-04-12T14:38:30Z</time></trkpt><trkpt lat="45.73919781142624" lon="10.040384013652636"><ele>792.5</ele><time>2026-04-12T14:38:31Z</time></trkpt><trkpt lat="45.73914708102815" lon="10.040486524535378"><ele>788.6666666666666</ele><time>2026-04-12T14:38:32Z</time></trkpt><trkpt lat="45.7390937777254" lon="10.040589509254811"><ele>784.8333333333333</ele><time>2026-04-12T14:38:33Z</time></trkpt><trkpt lat="45.73904369931773" lon="10.04067880071987"><ele>781.0</ele><time>2026-04-12T14:38:34Z</time></trkpt><trkpt lat="45.73899637963847" lon="10.040755409528554"><ele>780.9999999999999</ele><time>2026-04-12T14:38:35.001Z</time></trkpt><trkpt lat="45.73893529749976" lon="10.040800627372974"><ele>781.0</ele><time>2026-04-12T14:38:36.001Z</time></trkpt><trkpt lat="45.73882250545382" lon="10.040836914098433"><ele>781.0</ele><time>2026-04-12T14:38:38.001Z</time></trkpt><trkpt lat="45.73876195375079" lon="10.040797110106505"><ele>781.0</ele><time>2026-04-12T14:38:39.001Z</time></trkpt><trkpt lat="45.7387011832642" lon="10.04074051189614"><ele>780.9999999999999</ele><time>2026-04-12T14:38:40.001Z</time></trkpt><trkpt lat="45.73868321786517" lon="10.040623372483715"><ele>781.0</ele><time>2026-04-12T14:38:41.001Z</time></trkpt><trkpt lat="45.7386807876877" lon="10.040526224255805"><ele>781.0</ele><time>2026-04-12T14:38:42.001Z</time></trkpt><trkpt lat="45.73869413123383" lon="10.040418962589865"><ele>781.0</ele><time>2026-04-12T14:38:43.001Z</time></trkpt><trkpt lat="45.73872633391" lon="10.04028784400686"><ele>781.0</ele><time>2026-04-12T14:38:44.001Z</time></trkpt><trkpt lat="45.73876301373265" lon="10.040164692273622"><ele>781.0</ele><time>2026-04-12T14:38:45.001Z</time></trkpt><trkpt lat="45.73879881774245" lon="10.040035127063103"><ele>781.0</ele><time>2026-04-12T14:38:46.001Z</time></trkpt><trkpt lat="45.73883278106923" lon="10.039904767862062"><ele>779.1999999999999</ele><time>2026-04-12T14:38:47.001Z</time></trkpt><trkpt lat="45.738856536256634" lon="10.0397817661747"><ele>777.4</ele><time>2026-04-12T14:38:48.001Z</time></trkpt><trkpt lat="45.738889460833235" lon="10.039668624162118"><ele>775.6</ele><time>2026-04-12T14:38:49.001Z</time></trkpt><trkpt lat="45.73894369499704" lon="10.039466187685017"><ele>773.8</ele><time>2026-04-12T14:38:51.001Z</time></trkpt><trkpt lat="45.73896941480839" lon="10.039382100960092"><ele>772.0</ele><time>2026-04-12T14:38:52.001Z</time></trkpt><trkpt lat="45.73899988866468" lon="10.039246017196431"><ele>771.9999999999999</ele><time>2026-04-12T14:38:54.001Z</time></trkpt><trkpt lat="45.73900090469574" lon="10.039152554708458"><ele>772.0</ele><time>2026-04-12T14:38:56.001Z</time></trkpt><trkpt lat="45.73891535728488" lon="10.03905102379044"><ele>772.0</ele><time>2026-04-12T14:38:59.001Z</time></trkpt><trkpt lat="45.73884424232467" lon="10.039060719663118"><ele>772.0</ele><time>2026-04-12T14:39:00.001Z</time></trkpt><trkpt lat="45.73876983295859" lon="10.03903886034533"><ele>771.9999999999999</ele><time>2026-04-12T14:39:01.001Z</time></trkpt><trkpt lat="45.738684048222275" lon="10.039034968640683"><ele>772.0</ele><time>2026-04-12T14:39:02.001Z</time></trkpt><trkpt lat="45.738575311928706" lon="10.039032132178464"><ele>768.0</ele><time>2026-04-12T14:39:03.001Z</time></trkpt><trkpt lat="45.73847208075549" lon="10.039037444044137"><ele>764.0</ele><time>2026-04-12T14:39:04.001Z</time></trkpt><trkpt lat="45.7383746283955" lon="10.039062043805396"><ele>760.0</ele><time>2026-04-12T14:39:05.001Z</time></trkpt><trkpt lat="45.738284228096525" lon="10.039135091163311"><ele>756.0</ele><time>2026-04-12T14:39:06.001Z</time></trkpt><trkpt lat="45.738215313800254" lon="10.03925439375728"><ele>752.0</ele><time>2026-04-12T14:39:07.001Z</time></trkpt><trkpt lat="45.73815175846783" lon="10.03936453968624"><ele>752.0</ele><time>2026-04-12T14:39:08.001Z</time></trkpt><trkpt lat="45.73810134715252" lon="10.039505971882217"><ele>752.0</ele><time>2026-04-12T14:39:09.001Z</time></trkpt><trkpt lat="45.73805841228217" lon="10.039658277288794"><ele>752.0</ele><time>2026-04-12T14:39:10.001Z</time></trkpt><trkpt lat="45.738011996095906" lon="10.039813486824862"><ele>752.0</ele><time>2026-04-12T14:39:11.001Z</time></trkpt><trkpt lat="45.73796465279083" lon="10.039973255944039"><ele>754.5</ele><time>2026-04-12T14:39:12.001Z</time></trkpt><trkpt lat="45.73792936176547" lon="10.040134138329366"><ele>757.0</ele><time>2026-04-12T14:39:13.001Z</time></trkpt><trkpt lat="45.73790292028789" lon="10.040297259805952"><ele>759.5</ele><time>2026-04-12T14:39:14.001Z</time></trkpt><trkpt lat="45.73790173637537" lon="10.040455104282081"><ele>762.0</ele><time>2026-04-12T14:39:15.001Z</time></trkpt><trkpt lat="45.73792715627946" lon="10.04060710208526"><ele>762.0</ele><time>2026-04-12T14:39:16.001Z</time></trkpt><trkpt lat="45.73796563517291" lon="10.040749529455653"><ele>762.0</ele><time>2026-04-12T14:39:17.001Z</time></trkpt><trkpt lat="45.73802239239362" lon="10.040880709496001"><ele>762.0</ele><time>2026-04-12T14:39:18.001Z</time></trkpt><trkpt lat="45.7380775277984" lon="10.041016139727173"><ele>762.0</ele><time>2026-04-12T14:39:19.001Z</time></trkpt><trkpt lat="45.73812527108586" lon="10.041153997268122"><ele>762.0</ele><time>2026-04-12T14:39:20.001Z</time></trkpt><trkpt lat="45.73817365356396" lon="10.041289410568009"><ele>761.4000000000001</ele><time>2026-04-12T14:39:21.001Z</time></trkpt><trkpt lat="45.73821085002018" lon="10.041428331475492"><ele>760.8000000000001</ele><time>2026-04-12T14:39:22.001Z</time></trkpt><trkpt lat="45.738226710164426" lon="10.041575607583884"><ele>760.2</ele><time>2026-04-12T14:39:23.001Z</time></trkpt><trkpt lat="45.73823084136167" lon="10.041704669851962"><ele>759.6</ele><time>2026-04-12T14:39:24.001Z</time></trkpt><trkpt lat="45.73820992730939" lon="10.041828532405162"><ele>759.0</ele><time>2026-04-12T14:39:25.001Z</time></trkpt><trkpt lat="45.73818839996494" lon="10.041942870390695"><ele>758.1666666666666</ele><time>2026-04-12T14:39:26.001Z</time></trkpt><trkpt lat="45.73817597432816" lon="10.042066050226477"><ele>757.3333333333334</ele><time>2026-04-12T14:39:27.001Z</time></trkpt><trkpt lat="45.73813867506643" lon="10.042170550405043"><ele>756.5</ele><time>2026-04-12T14:39:28.001Z</time></trkpt><trkpt lat="45.7381095002234" lon="10.042275463051885"><ele>755.6666666666667</ele><time>2026-04-12T14:39:29.001Z</time></trkpt><trkpt lat="45.738079984549614" lon="10.042378137974493"><ele>754.8333333333334</ele><time>2026-04-12T14:39:30.001Z</time></trkpt><trkpt lat="45.7380521301222" lon="10.04248524245057"><ele>754.0</ele><time>2026-04-12T14:39:31.001Z</time></trkpt><trkpt lat="45.73801176929876" lon="10.042583174233405"><ele>753.9999999999999</ele><time>2026-04-12T14:39:32.001Z</time></trkpt><trkpt lat="45.73798796271233" lon="10.042668050639282"><ele>754.0</ele><time>2026-04-12T14:39:33.001Z</time></trkpt><trkpt lat="45.737965232814176" lon="10.042752842091879"><ele>754.0</ele><time>2026-04-12T14:39:34.001Z</time></trkpt><trkpt lat="45.73791912540062" lon="10.04291558089576"><ele>754.0</ele><time>2026-04-12T14:39:36.001Z</time></trkpt><trkpt lat="45.73789472721715" lon="10.0430029762019"><ele>754.0</ele><time>2026-04-12T14:39:37.001Z</time></trkpt><trkpt lat="45.73787858943487" lon="10.043091480113384"><ele>753.9999999999999</ele><time>2026-04-12T14:39:38.001Z</time></trkpt><trkpt lat="45.7378626553892" lon="10.043188295649445"><ele>754.0</ele><time>2026-04-12T14:39:39.001Z</time></trkpt><trkpt lat="45.73784388873774" lon="10.043283156345433"><ele>754.6</ele><time>2026-04-12T14:39:40.001Z</time></trkpt><trkpt lat="45.73783333194926" lon="10.043380176801378"><ele>755.2</ele><time>2026-04-12T14:39:41.001Z</time></trkpt><trkpt lat="45.73782098915603" lon="10.043485137239331"><ele>755.8000000000001</ele><time>2026-04-12T14:39:42.001Z</time></trkpt><trkpt lat="45.73782840429708" lon="10.043676981407836"><ele>756.4000000000001</ele><time>2026-04-12T14:39:44.001Z</time></trkpt><trkpt lat="45.737854870209965" lon="10.043838900120237"><ele>757.0</ele><time>2026-04-12T14:39:46.001Z</time></trkpt><trkpt lat="45.73786813824493" lon="10.044008674405351"><ele>757.0</ele><time>2026-04-12T14:39:48.001Z</time></trkpt><trkpt lat="45.73790208058458" lon="10.044141818658812"><ele>757.0</ele><time>2026-04-12T14:39:50.001Z</time></trkpt><trkpt lat="45.73786072480009" lon="10.044239946956877"><ele>757.0</ele><time>2026-04-12T14:39:52.001Z</time></trkpt><trkpt lat="45.73779051121178" lon="10.044162716852394"><ele>757.0</ele><time>2026-04-12T14:39:53.999Z</time></trkpt><trkpt lat="45.73776803052138" lon="10.04398104171367"><ele>757.0</ele><time>2026-04-12T14:39:55.999Z</time></trkpt><trkpt lat="45.7377503129944" lon="10.043848050853187"><ele>757.0</ele><time>2026-04-12T14:39:56.999Z</time></trkpt><trkpt lat="45.73773032249904" lon="10.043674859772693"><ele>757.0</ele><time>2026-04-12T14:39:57.999Z</time></trkpt><trkpt lat="45.73771302947302" lon="10.043488863749904"><ele>757.0</ele><time>2026-04-12T14:39:58.999Z</time></trkpt><trkpt lat="45.73769048860333" lon="10.04329706299674"><ele>757.0</ele><time>2026-04-12T14:39:59.999Z</time></trkpt><trkpt lat="45.73768501462531" lon="10.043106650540965"><ele>744.5</ele><time>2026-04-12T14:40:00.999Z</time></trkpt><trkpt lat="45.73768316935811" lon="10.042919867673401"><ele>732.0</ele><time>2026-04-12T14:40:01.999Z</time></trkpt><trkpt lat="45.737682893352876" lon="10.0427399531931"><ele>719.5</ele><time>2026-04-12T14:40:02.999Z</time></trkpt><trkpt lat="45.737695196634704" lon="10.0425724298586"><ele>707.0</ele><time>2026-04-12T14:40:03.999Z</time></trkpt><trkpt lat="45.73769527417969" lon="10.042406743670858"><ele>707.0</ele><time>2026-04-12T14:40:04.999Z</time></trkpt><trkpt lat="45.73769385857136" lon="10.042241886056512"><ele>707.0</ele><time>2026-04-12T14:40:05.999Z</time></trkpt><trkpt lat="45.73770601402743" lon="10.042079019489458"><ele>707.0</ele><time>2026-04-12T14:40:06.999Z</time></trkpt><trkpt lat="45.73769601459236" lon="10.041937281142038"><ele>707.0</ele><time>2026-04-12T14:40:07.999Z</time></trkpt><trkpt lat="45.737676905189105" lon="10.041787346866352"><ele>707.0</ele><time>2026-04-12T14:40:08.999Z</time></trkpt><trkpt lat="45.73764537884466" lon="10.04162964566444"><ele>709.0</ele><time>2026-04-12T14:40:09.999Z</time></trkpt><trkpt lat="45.737601376056794" lon="10.04146891027045"><ele>711.0</ele><time>2026-04-12T14:40:10.999Z</time></trkpt><trkpt lat="45.737545318316734" lon="10.04130750583595"><ele>713.0</ele><time>2026-04-12T14:40:11.999Z</time></trkpt><trkpt lat="45.737502036081054" lon="10.041137681717519"><ele>715.0</ele><time>2026-04-12T14:40:12.999Z</time></trkpt><trkpt lat="45.73743646446104" lon="10.040983822186314"><ele>715.0</ele><time>2026-04-12T14:40:13.999Z</time></trkpt><trkpt lat="45.73738127411379" lon="10.040819910083735"><ele>715.0</ele><time>2026-04-12T14:40:15Z</time></trkpt><trkpt lat="45.7373353688758" lon="10.040659938687877"><ele>715.0</ele><time>2026-04-12T14:40:16Z</time></trkpt><trkpt lat="45.737308918516796" lon="10.040494246262305"><ele>715.0</ele><time>2026-04-12T14:40:17Z</time></trkpt><trkpt lat="45.73727751343503" lon="10.040334964652297"><ele>716.4</ele><time>2026-04-12T14:40:18Z</time></trkpt><trkpt lat="45.73725058615792" lon="10.040186542297477"><ele>717.8</ele><time>2026-04-12T14:40:19Z</time></trkpt><trkpt lat="45.73723032916349" lon="10.040057795121362"><ele>719.2</ele><time>2026-04-12T14:40:20Z</time></trkpt><trkpt lat="45.737209436609746" lon="10.039945053387456"><ele>720.6</ele><time>2026-04-12T14:40:21Z</time></trkpt><trkpt lat="45.737187348604124" lon="10.039854308312378"><ele>722.0</ele><time>2026-04-12T14:40:22Z</time></trkpt><trkpt lat="45.737109581642265" lon="10.039744063207571"><ele>722.0</ele><time>2026-04-12T14:40:24Z</time></trkpt><trkpt lat="45.73702342492127" lon="10.039771488990294"><ele>722.0</ele><time>2026-04-12T14:40:26Z</time></trkpt><trkpt lat="45.73699652220561" lon="10.039905785424423"><ele>722.0</ele><time>2026-04-12T14:40:27Z</time></trkpt><trkpt lat="45.73700815663872" lon="10.04004347811469"><ele>722.0</ele><time>2026-04-12T14:40:28Z</time></trkpt><trkpt lat="45.7370238582845" lon="10.040211262686368"><ele>722.0</ele><time>2026-04-12T14:40:29Z</time></trkpt><trkpt lat="45.73703655376747" lon="10.040395470523146"><ele>722.5</ele><time>2026-04-12T14:40:30Z</time></trkpt><trkpt lat="45.7370400331667" lon="10.040595032909476"><ele>723.0</ele><time>2026-04-12T14:40:31Z</time></trkpt><trkpt lat="45.737044977763176" lon="10.04079961920916"><ele>723.5</ele><time>2026-04-12T14:40:32Z</time></trkpt><trkpt lat="45.73708066212671" lon="10.040995390562205"><ele>724.0</ele><time>2026-04-12T14:40:33Z</time></trkpt><trkpt lat="45.73708163973729" lon="10.041190520567168"><ele>721.75</ele><time>2026-04-12T14:40:34Z</time></trkpt><trkpt lat="45.73710505336575" lon="10.041342579983057"><ele>719.5</ele><time>2026-04-12T14:40:35Z</time></trkpt><trkpt lat="45.73712602099221" lon="10.041509401333046"><ele>717.25</ele><time>2026-04-12T14:40:36Z</time></trkpt><trkpt lat="45.73714201750604" lon="10.041691333070618"><ele>715.0</ele><time>2026-04-12T14:40:37Z</time></trkpt><trkpt lat="45.737118117963476" lon="10.041894444078427"><ele>713.0</ele><time>2026-04-12T14:40:38Z</time></trkpt><trkpt lat="45.73707255365672" lon="10.042065230696986"><ele>711.0</ele><time>2026-04-12T14:40:39Z</time></trkpt><trkpt lat="45.73702540036324" lon="10.042222144606695"><ele>709.0</ele><time>2026-04-12T14:40:40Z</time></trkpt><trkpt lat="45.736973672381374" lon="10.042394176420723"><ele>707.0</ele><time>2026-04-12T14:40:41Z</time></trkpt><trkpt lat="45.73692421767282" lon="10.042548266465104"><ele>694.75</ele><time>2026-04-12T14:40:42Z</time></trkpt><trkpt lat="45.73687527632955" lon="10.042700757100796"><ele>682.5</ele><time>2026-04-12T14:40:43Z</time></trkpt><trkpt lat="45.73681241618252" lon="10.042849694260642"><ele>670.25</ele><time>2026-04-12T14:40:44Z</time></trkpt><trkpt lat="45.73677364204033" lon="10.043004166054045"><ele>658.0</ele><time>2026-04-12T14:40:45Z</time></trkpt><trkpt lat="45.73674705617991" lon="10.043166854003722"><ele>659.25</ele><time>2026-04-12T14:40:46Z</time></trkpt><trkpt lat="45.73673543629179" lon="10.04334366185023"><ele>660.5</ele><time>2026-04-12T14:40:47Z</time></trkpt><trkpt lat="45.736736211704695" lon="10.043514796148381"><ele>661.75</ele><time>2026-04-12T14:40:48Z</time></trkpt><trkpt lat="45.736735027994285" lon="10.043681920014954"><ele>663.0</ele><time>2026-04-12T14:40:49Z</time></trkpt><trkpt lat="45.7367352524773" lon="10.043848068142523"><ele>663.0</ele><time>2026-04-12T14:40:50Z</time></trkpt><trkpt lat="45.73674992135434" lon="10.044016918374126"><ele>663.0</ele><time>2026-04-12T14:40:51Z</time></trkpt><trkpt lat="45.73678129736794" lon="10.044180235615805"><ele>663.0</ele><time>2026-04-12T14:40:52Z</time></trkpt><trkpt lat="45.73681300192822" lon="10.04434862829124"><ele>663.0</ele><time>2026-04-12T14:40:53Z</time></trkpt><trkpt lat="45.73684558633884" lon="10.044538577393844"><ele>661.0</ele><time>2026-04-12T14:40:54Z</time></trkpt><trkpt lat="45.7368837863541" lon="10.044719827002519"><ele>659.0</ele><time>2026-04-12T14:40:55Z</time></trkpt><trkpt lat="45.73692176701165" lon="10.044909263044547"><ele>657.0</ele><time>2026-04-12T14:40:56Z</time></trkpt><trkpt lat="45.7369608496995" lon="10.045097704915394"><ele>655.0</ele><time>2026-04-12T14:40:57Z</time></trkpt><trkpt lat="45.73700159122662" lon="10.045280184481772"><ele>657.0</ele><time>2026-04-12T14:40:58Z</time></trkpt><trkpt lat="45.73703915064735" lon="10.045459745499178"><ele>659.0</ele><time>2026-04-12T14:40:59Z</time></trkpt><trkpt lat="45.73707407491478" lon="10.04563351944817"><ele>661.0</ele><time>2026-04-12T14:41:00Z</time></trkpt><trkpt lat="45.73710346188831" lon="10.04578531083435"><ele>663.0</ele><time>2026-04-12T14:41:01Z</time></trkpt><trkpt lat="45.73712429501797" lon="10.045904572389384"><ele>663.0</ele><time>2026-04-12T14:41:02Z</time></trkpt><trkpt lat="45.73711968017181" lon="10.04605441628151"><ele>663.0</ele><time>2026-04-12T14:41:04Z</time></trkpt><trkpt lat="45.737032946813905" lon="10.046078324954596"><ele>663.0</ele><time>2026-04-12T14:41:06Z</time></trkpt><trkpt lat="45.73699050988677" lon="10.04598699090722"><ele>663.0</ele><time>2026-04-12T14:41:07Z</time></trkpt><trkpt lat="45.736943501358176" lon="10.045891753028824"><ele>663.0</ele><time>2026-04-12T14:41:08Z</time></trkpt><trkpt lat="45.736881709537116" lon="10.045774583763789"><ele>657.75</ele><time>2026-04-12T14:41:09Z</time></trkpt><trkpt lat="45.73681158640722" lon="10.04563321588247"><ele>652.5</ele><time>2026-04-12T14:41:10Z</time></trkpt><trkpt lat="45.73672792020221" lon="10.045496732642885"><ele>647.25</ele><time>2026-04-12T14:41:11Z</time></trkpt><trkpt lat="45.736650760712976" lon="10.045326382252732"><ele>642.0</ele><time>2026-04-12T14:41:12Z</time></trkpt><trkpt lat="45.73656564549178" lon="10.045142137607241"><ele>646.3333333333334</ele><time>2026-04-12T14:41:13.001Z</time></trkpt><trkpt lat="45.73648173977887" lon="10.044959843815993"><ele>650.6666666666667</ele><time>2026-04-12T14:41:14.001Z</time></trkpt><trkpt lat="45.736413411933505" lon="10.044771453592457"><ele>655.0</ele><time>2026-04-12T14:41:15.001Z</time></trkpt><trkpt lat="45.7363318814596" lon="10.044576308572521"><ele>655.0</ele><time>2026-04-12T14:41:16.001Z</time></trkpt><trkpt lat="45.73625377538057" lon="10.044376348252635"><ele>655.0</ele><time>2026-04-12T14:41:17.001Z</time></trkpt><trkpt lat="45.73618363240776" lon="10.044176209342506"><ele>655.0</ele><time>2026-04-12T14:41:18.001Z</time></trkpt><trkpt lat="45.73611512730954" lon="10.043978161480116"><ele>657.0</ele><time>2026-04-12T14:41:19.001Z</time></trkpt><trkpt lat="45.73605468504454" lon="10.043771891995762"><ele>659.0</ele><time>2026-04-12T14:41:20.001Z</time></trkpt><trkpt lat="45.73601055375717" lon="10.043570479671043"><ele>661.0</ele><time>2026-04-12T14:41:21.001Z</time></trkpt><trkpt lat="45.735976466936094" lon="10.043386408558282"><ele>663.0</ele><time>2026-04-12T14:41:22.001Z</time></trkpt><trkpt lat="45.73594872230568" lon="10.04322694814401"><ele>654.1999999999999</ele><time>2026-04-12T14:41:23.001Z</time></trkpt><trkpt lat="45.73592151676083" lon="10.043088602693745"><ele>645.4</ele><time>2026-04-12T14:41:24.001Z</time></trkpt><trkpt lat="45.73589999301199" lon="10.042966970208528"><ele>636.5999999999999</ele><time>2026-04-12T14:41:25.001Z</time></trkpt><trkpt lat="45.73588987539831" lon="10.042872874344978"><ele>627.8</ele><time>2026-04-12T14:41:26.001Z</time></trkpt><trkpt lat="45.7358564666755" lon="10.042726732938451"><ele>619.0</ele><time>2026-04-12T14:41:28.001Z</time></trkpt><trkpt lat="45.7357450483519" lon="10.042692631073814"><ele>619.0</ele><time>2026-04-12T14:41:30.001Z</time></trkpt><trkpt lat="45.735679887765166" lon="10.04279018533313"><ele>619.0</ele><time>2026-04-12T14:41:31.001Z</time></trkpt><trkpt lat="45.73563240970435" lon="10.04291859489355"><ele>619.0</ele><time>2026-04-12T14:41:32.001Z</time></trkpt><trkpt lat="45.735585234340384" lon="10.043052512716413"><ele>619.0</ele><time>2026-04-12T14:41:33.001Z</time></trkpt><trkpt lat="45.73555672403702" lon="10.043205632492667"><ele>619.0</ele><time>2026-04-12T14:41:34.001Z</time></trkpt><trkpt lat="45.735536735714255" lon="10.043349131496356"><ele>619.75</ele><time>2026-04-12T14:41:35.001Z</time></trkpt><trkpt lat="45.73555595702171" lon="10.043503265447363"><ele>620.5</ele><time>2026-04-12T14:41:36.001Z</time></trkpt><trkpt lat="45.73559021762611" lon="10.043665824957241"><ele>621.25</ele><time>2026-04-12T14:41:37.001Z</time></trkpt><trkpt lat="45.73561659414361" lon="10.043828994258106"><ele>622.0</ele><time>2026-04-12T14:41:38.001Z</time></trkpt><trkpt lat="45.735629382569165" lon="10.044005240772599"><ele>621.0</ele><time>2026-04-12T14:41:39.001Z</time></trkpt><trkpt lat="45.7356122942298" lon="10.044185328406964"><ele>620.0</ele><time>2026-04-12T14:41:40.001Z</time></trkpt><trkpt lat="45.735581345046" lon="10.044365945530188"><ele>619.0</ele><time>2026-04-12T14:41:41.001Z</time></trkpt><trkpt lat="45.73555709311449" lon="10.044548377842412"><ele>618.0</ele><time>2026-04-12T14:41:42.001Z</time></trkpt><trkpt lat="45.735552963547796" lon="10.044748796552515"><ele>617.0</ele><time>2026-04-12T14:41:43.001Z</time></trkpt><trkpt lat="45.735571723786165" lon="10.044965002751935"><ele>616.0</ele><time>2026-04-12T14:41:44.001Z</time></trkpt><trkpt lat="45.735575029620954" lon="10.045181950081979"><ele>615.0</ele><time>2026-04-12T14:41:45.001Z</time></trkpt><trkpt lat="45.7355884598274" lon="10.045398904168387"><ele>615.0</ele><time>2026-04-12T14:41:46.001Z</time></trkpt><trkpt lat="45.73561208534107" lon="10.045620100578281"><ele>615.0</ele><time>2026-04-12T14:41:47.001Z</time></trkpt><trkpt lat="45.735615759046276" lon="10.045825141738218"><ele>615.0</ele><time>2026-04-12T14:41:48.001Z</time></trkpt><trkpt lat="45.73562186706049" lon="10.046027651700314"><ele>615.0</ele><time>2026-04-12T14:41:49.001Z</time></trkpt><trkpt lat="45.735616484998985" lon="10.046229138394661"><ele>612.5</ele><time>2026-04-12T14:41:50.001Z</time></trkpt><trkpt lat="45.73561041128717" lon="10.046430512154519"><ele>610.0</ele><time>2026-04-12T14:41:51.001Z</time></trkpt><trkpt lat="45.735607107485755" lon="10.046622542877413"><ele>607.5</ele><time>2026-04-12T14:41:52.001Z</time></trkpt><trkpt lat="45.7356059309671" lon="10.046810531337824"><ele>605.0</ele><time>2026-04-12T14:41:53.001Z</time></trkpt><trkpt lat="45.73559866312339" lon="10.046996991062764"><ele>604.6</ele><time>2026-04-12T14:41:54.001Z</time></trkpt><trkpt lat="45.7356131744894" lon="10.047182967962414"><ele>604.2</ele><time>2026-04-12T14:41:55.001Z</time></trkpt><trkpt lat="45.735638279640284" lon="10.047344021280173"><ele>603.8</ele><time>2026-04-12T14:41:56.001Z</time></trkpt><trkpt lat="45.735665285009745" lon="10.047483078942067"><ele>603.4</ele><time>2026-04-12T14:41:57.001Z</time></trkpt><trkpt lat="45.735691839571615" lon="10.047613671278523"><ele>603.0</ele><time>2026-04-12T14:41:58.001Z</time></trkpt><trkpt lat="45.73570773080317" lon="10.047704331564393"><ele>603.0</ele><time>2026-04-12T14:41:58.999Z</time></trkpt><trkpt lat="45.735664450502746" lon="10.047792932643917"><ele>603.0</ele><time>2026-04-12T14:42:00.999Z</time></trkpt><trkpt lat="45.735599416001236" lon="10.047762965064544"><ele>603.0</ele><time>2026-04-12T14:42:01.999Z</time></trkpt><trkpt lat="45.735551940102766" lon="10.047658576423727"><ele>603.0</ele><time>2026-04-12T14:42:02.999Z</time></trkpt><trkpt lat="45.73549561910694" lon="10.047551187768837"><ele>603.0</ele><time>2026-04-12T14:42:03.999Z</time></trkpt><trkpt lat="45.73542118232441" lon="10.047420900336734"><ele>603.0</ele><time>2026-04-12T14:42:04.999Z</time></trkpt><trkpt lat="45.73535048023712" lon="10.047276066257284"><ele>603.0</ele><time>2026-04-12T14:42:05.999Z</time></trkpt><trkpt lat="45.73527667401156" lon="10.047105353817402"><ele>603.0</ele><time>2026-04-12T14:42:06.999Z</time></trkpt><trkpt lat="45.73519824790001" lon="10.046921460371872"><ele>603.0</ele><time>2026-04-12T14:42:07.999Z</time></trkpt><trkpt lat="45.7351229561952" lon="10.046714905689928"><ele>593.3333333333334</ele><time>2026-04-12T14:42:08.999Z</time></trkpt><trkpt lat="45.735049579578764" lon="10.046514071874887"><ele>583.6666666666667</ele><time>2026-04-12T14:42:09.999Z</time></trkpt><trkpt lat="45.73498244666351" lon="10.046324836843903"><ele>574.0</ele><time>2026-04-12T14:42:10.999Z</time></trkpt><trkpt lat="45.734909350912766" lon="10.046137512616113"><ele>574.0</ele><time>2026-04-12T14:42:11.999Z</time></trkpt><trkpt lat="45.73485338125837" lon="10.045951693546872"><ele>574.0</ele><time>2026-04-12T14:42:12.999Z</time></trkpt><trkpt lat="45.734794740396254" lon="10.045767229486586"><ele>574.0</ele><time>2026-04-12T14:42:13.999Z</time></trkpt><trkpt lat="45.73475010386923" lon="10.04558052105662"><ele>574.0</ele><time>2026-04-12T14:42:14.999Z</time></trkpt><trkpt lat="45.73470444276581" lon="10.04540395329072"><ele>575.75</ele><time>2026-04-12T14:42:15.999Z</time></trkpt><trkpt lat="45.73466823135793" lon="10.045234030505421"><ele>577.5</ele><time>2026-04-12T14:42:16.999Z</time></trkpt><trkpt lat="45.73465526900309" lon="10.045071616451612"><ele>579.25</ele><time>2026-04-12T14:42:18Z</time></trkpt><trkpt lat="45.7346771932966" lon="10.044909910562758"><ele>581.0</ele><time>2026-04-12T14:42:19Z</time></trkpt><trkpt lat="45.73472817230502" lon="10.044760618543318"><ele>581.4</ele><time>2026-04-12T14:42:20Z</time></trkpt><trkpt lat="45.73474326629622" lon="10.04465430231738"><ele>581.8</ele><time>2026-04-12T14:42:21Z</time></trkpt><trkpt lat="45.734683951084946" lon="10.044534495233727"><ele>582.1999999999999</ele><time>2026-04-12T14:42:23Z</time></trkpt><trkpt lat="45.73456119767345" lon="10.044518933662186"><ele>582.6</ele><time>2026-04-12T14:42:25Z</time></trkpt><trkpt lat="45.7345013803933" lon="10.044702076748612"><ele>583.0</ele><time>2026-04-12T14:42:26Z</time></trkpt><trkpt lat="45.7344590282233" lon="10.04484023509468"><ele>582.6</ele><time>2026-04-12T14:42:27Z</time></trkpt><trkpt lat="45.734430284057446" lon="10.044991364537047"><ele>582.1999999999999</ele><time>2026-04-12T14:42:28Z</time></trkpt><trkpt lat="45.73439257882646" lon="10.045124733882922"><ele>581.8</ele><time>2026-04-12T14:42:29Z</time></trkpt><trkpt lat="45.73440172996937" lon="10.04523681042312"><ele>581.4</ele><time>2026-04-12T14:42:30Z</time></trkpt><trkpt lat="45.73442085209015" lon="10.045340188984962"><ele>581.0</ele><time>2026-04-12T14:42:31Z</time></trkpt><trkpt lat="45.73442188880576" lon="10.045483879408375"><ele>574.6</ele><time>2026-04-12T14:42:33Z</time></trkpt><trkpt lat="45.7343777439861" lon="10.045606752586966"><ele>568.2</ele><time>2026-04-12T14:42:35Z</time></trkpt><trkpt lat="45.73430636687015" lon="10.045501367264716"><ele>561.8</ele><time>2026-04-12T14:42:36Z</time></trkpt><trkpt lat="45.73431403367097" lon="10.045364101720152"><ele>555.4</ele><time>2026-04-12T14:42:38Z</time></trkpt><trkpt lat="45.7343054021884" lon="10.045259930539709"><ele>549.0</ele><time>2026-04-12T14:42:39Z</time></trkpt><trkpt lat="45.73428526528753" lon="10.045146685426007"><ele>549.0</ele><time>2026-04-12T14:42:40Z</time></trkpt><trkpt lat="45.73428671119937" lon="10.045016540109483"><ele>549.0</ele><time>2026-04-12T14:42:41Z</time></trkpt><trkpt lat="45.73429581175234" lon="10.04487673430254"><ele>549.0</ele><time>2026-04-12T14:42:42Z</time></trkpt><trkpt lat="45.73431161941331" lon="10.044744738469433"><ele>549.0</ele><time>2026-04-12T14:42:43Z</time></trkpt><trkpt lat="45.73432043171457" lon="10.04460108998051"><ele>549.0</ele><time>2026-04-12T14:42:44Z</time></trkpt><trkpt lat="45.734300329467615" lon="10.044467543093974"><ele>549.6</ele><time>2026-04-12T14:42:45Z</time></trkpt><trkpt lat="45.734255984588785" lon="10.044331269637674"><ele>550.2</ele><time>2026-04-12T14:42:46Z</time></trkpt><trkpt lat="45.73420769588962" lon="10.04419595280898"><ele>550.8000000000001</ele><time>2026-04-12T14:42:47Z</time></trkpt><trkpt lat="45.73416032577572" lon="10.044063272181445"><ele>551.4</ele><time>2026-04-12T14:42:48Z</time></trkpt><trkpt lat="45.73411942767437" lon="10.043939660509974"><ele>552.0</ele><time>2026-04-12T14:42:49Z</time></trkpt><trkpt lat="45.734087556270985" lon="10.043822793938213"><ele>552.6</ele><time>2026-04-12T14:42:50Z</time></trkpt><trkpt lat="45.734060361320964" lon="10.043726051075708"><ele>553.2</ele><time>2026-04-12T14:42:51Z</time></trkpt><trkpt lat="45.73402274960758" lon="10.04365093550588"><ele>553.8</ele><time>2026-04-12T14:42:52Z</time></trkpt><trkpt lat="45.733948687505205" lon="10.043580416339877"><ele>554.4</ele><time>2026-04-12T14:42:54Z</time></trkpt><trkpt lat="45.73385654018241" lon="10.043766902860167"><ele>555.0</ele><time>2026-04-12T14:42:56Z</time></trkpt><trkpt lat="45.733852009950404" lon="10.043861802184558"><ele>555.0</ele><time>2026-04-12T14:42:57Z</time></trkpt><trkpt lat="45.733876226817515" lon="10.04397141593062"><ele>555.0</ele><time>2026-04-12T14:42:58Z</time></trkpt><trkpt lat="45.73391544646272" lon="10.04409811230767"><ele>555.0</ele><time>2026-04-12T14:42:59Z</time></trkpt><trkpt lat="45.73395475963538" lon="10.044253132551372"><ele>555.0</ele><time>2026-04-12T14:43:00Z</time></trkpt><trkpt lat="45.73399314876273" lon="10.044411572633315"><ele>555.0</ele><time>2026-04-12T14:43:01Z</time></trkpt><trkpt lat="45.73401160615519" lon="10.044586547153193"><ele>554.25</ele><time>2026-04-12T14:43:02Z</time></trkpt><trkpt lat="45.73405599412359" lon="10.044763973120077"><ele>553.5</ele><time>2026-04-12T14:43:03Z</time></trkpt><trkpt lat="45.73407165431756" lon="10.04495480703991"><ele>552.75</ele><time>2026-04-12T14:43:04Z</time></trkpt><trkpt lat="45.734045664750205" lon="10.045141617399068"><ele>552.0</ele><time>2026-04-12T14:43:05Z</time></trkpt><trkpt lat="45.73403389859791" lon="10.045330973975378"><ele>551.25</ele><time>2026-04-12T14:43:06Z</time></trkpt><trkpt lat="45.73403666930651" lon="10.045519085715652"><ele>550.5</ele><time>2026-04-12T14:43:07Z</time></trkpt><trkpt lat="45.73402545260921" lon="10.045686224993238"><ele>549.75</ele><time>2026-04-12T14:43:08Z</time></trkpt><trkpt lat="45.73401454123046" lon="10.04584977143305"><ele>549.0</ele><time>2026-04-12T14:43:09Z</time></trkpt><trkpt lat="45.734019229324915" lon="10.046010866468407"><ele>547.75</ele><time>2026-04-12T14:43:10.001Z</time></trkpt><trkpt lat="45.73404469561299" lon="10.046174193972552"><ele>546.5</ele><time>2026-04-12T14:43:11.001Z</time></trkpt><trkpt lat="45.73409055536764" lon="10.046343598717193"><ele>545.25</ele><time>2026-04-12T14:43:12.001Z</time></trkpt><trkpt lat="45.73415250662694" lon="10.046502052018385"><ele>544.0</ele><time>2026-04-12T14:43:13.001Z</time></trkpt><trkpt lat="45.7342096572523" lon="10.046661057489054"><ele>541.2</ele><time>2026-04-12T14:43:14.001Z</time></trkpt><trkpt lat="45.734263014858875" lon="10.046817406394913"><ele>538.4</ele><time>2026-04-12T14:43:15.001Z</time></trkpt><trkpt lat="45.73432686071685" lon="10.046929656367254"><ele>535.6</ele><time>2026-04-12T14:43:16.001Z</time></trkpt><trkpt lat="45.73438260390341" lon="10.047021872167724"><ele>532.8</ele><time>2026-04-12T14:43:17.001Z</time></trkpt><trkpt lat="45.73443149299016" lon="10.047088803423408"><ele>530.0</ele><time>2026-04-12T14:43:18.001Z</time></trkpt><trkpt lat="45.73446912779216" lon="10.047216897973763"><ele>530.0</ele><time>2026-04-12T14:43:20.001Z</time></trkpt><trkpt lat="45.734395920451156" lon="10.047285082609458"><ele>530.0</ele><time>2026-04-12T14:43:22.001Z</time></trkpt><trkpt lat="45.73433907401475" lon="10.04710605824156"><ele>530.0</ele><time>2026-04-12T14:43:24.001Z</time></trkpt><trkpt lat="45.73427512597582" lon="10.047003513752465"><ele>530.0</ele><time>2026-04-12T14:43:25.001Z</time></trkpt><trkpt lat="45.73418612211122" lon="10.046898142812703"><ele>530.0</ele><time>2026-04-12T14:43:26.001Z</time></trkpt><trkpt lat="45.73407469820493" lon="10.0468013365979"><ele>530.0</ele><time>2026-04-12T14:43:27.001Z</time></trkpt><trkpt lat="45.73397899264053" lon="10.046667822712434"><ele>530.0</ele><time>2026-04-12T14:43:28.001Z</time></trkpt><trkpt lat="45.73387340927051" lon="10.04652661178969"><ele>530.0</ele><time>2026-04-12T14:43:29.001Z</time></trkpt><trkpt lat="45.73376581188531" lon="10.046394299702145"><ele>530.0</ele><time>2026-04-12T14:43:30.001Z</time></trkpt><trkpt lat="45.73366419356586" lon="10.046259173466458"><ele>527.75</ele><time>2026-04-12T14:43:31.001Z</time></trkpt><trkpt lat="45.73356667226771" lon="10.046131313007221"><ele>525.5</ele><time>2026-04-12T14:43:32.001Z</time></trkpt><trkpt lat="45.733494636744666" lon="10.046010274598848"><ele>523.25</ele><time>2026-04-12T14:43:33.001Z</time></trkpt><trkpt lat="45.73342000141509" lon="10.045883421946806"><ele>521.0</ele><time>2026-04-12T14:43:34.001Z</time></trkpt><trkpt lat="45.733374746054025" lon="10.045743073424722"><ele>521.0</ele><time>2026-04-12T14:43:35.001Z</time></trkpt><trkpt lat="45.73333865155278" lon="10.045566320941486"><ele>521.0</ele><time>2026-04-12T14:43:36.001Z</time></trkpt><trkpt lat="45.73326886688617" lon="10.045398339720217"><ele>521.0</ele><time>2026-04-12T14:43:37.001Z</time></trkpt><trkpt lat="45.7331943153783" lon="10.04523517809071"><ele>521.0</ele><time>2026-04-12T14:43:38.001Z</time></trkpt><trkpt lat="45.73311488576457" lon="10.045097659012177"><ele>521.0</ele><time>2026-04-12T14:43:39.001Z</time></trkpt><trkpt lat="45.73304269169922" lon="10.044993148608658"><ele>521.0</ele><time>2026-04-12T14:43:40.001Z</time></trkpt><trkpt lat="45.73299538441913" lon="10.04489975614255"><ele>521.0</ele><time>2026-04-12T14:43:41.001Z</time></trkpt><trkpt lat="45.73295915201418" lon="10.04481641233232"><ele>521.0</ele><time>2026-04-12T14:43:42.001Z</time></trkpt><trkpt lat="45.73286346265065" lon="10.044744500110804"><ele>521.0</ele><time>2026-04-12T14:43:44.001Z</time></trkpt><trkpt lat="45.7327608779118" lon="10.044822970999855"><ele>521.0</ele><time>2026-04-12T14:43:46.001Z</time></trkpt><trkpt lat="45.73279692938704" lon="10.044963060924061"><ele>521.0</ele><time>2026-04-12T14:43:47.001Z</time></trkpt><trkpt lat="45.73282808676424" lon="10.045087445309676"><ele>521.0</ele><time>2026-04-12T14:43:48.001Z</time></trkpt><trkpt lat="45.73286588700208" lon="10.045228806719667"><ele>521.0</ele><time>2026-04-12T14:43:49.001Z</time></trkpt><trkpt lat="45.73291554077285" lon="10.045387831518319"><ele>521.0</ele><time>2026-04-12T14:43:50.001Z</time></trkpt><trkpt lat="45.73296581666489" lon="10.045556975580602"><ele>521.0</ele><time>2026-04-12T14:43:51.001Z</time></trkpt><trkpt lat="45.733003450926056" lon="10.045731856632303"><ele>521.0</ele><time>2026-04-12T14:43:52.001Z</time></trkpt><trkpt lat="45.73302903577953" lon="10.045908576078423"><ele>521.0</ele><time>2026-04-12T14:43:53.001Z</time></trkpt><trkpt lat="45.733071923812346" lon="10.046069763571095"><ele>521.0</ele><time>2026-04-12T14:43:54.001Z</time></trkpt><trkpt lat="45.73311133578797" lon="10.04623481006546"><ele>517.75</ele><time>2026-04-12T14:43:55.001Z</time></trkpt><trkpt lat="45.73317276995932" lon="10.046382736384054"><ele>514.5</ele><time>2026-04-12T14:43:56.001Z</time></trkpt><trkpt lat="45.73324981210168" lon="10.046512945369928"><ele>511.25</ele><time>2026-04-12T14:43:57.001Z</time></trkpt><trkpt lat="45.733335199098555" lon="10.046637094369583"><ele>508.0</ele><time>2026-04-12T14:43:58.001Z</time></trkpt><trkpt lat="45.73341605003349" lon="10.046752037543316"><ele>504.25</ele><time>2026-04-12T14:43:59.001Z</time></trkpt><trkpt lat="45.733494590075715" lon="10.046875562594673"><ele>500.5</ele><time>2026-04-12T14:44:00.001Z</time></trkpt><trkpt lat="45.73356753596827" lon="10.046995286142407"><ele>496.75</ele><time>2026-04-12T14:44:01.001Z</time></trkpt><trkpt lat="45.73363214989921" lon="10.047127346223489"><ele>493.0</ele><time>2026-04-12T14:44:02.001Z</time></trkpt><trkpt lat="45.73368629275192" lon="10.047270128482845"><ele>496.79999999999995</ele><time>2026-04-12T14:44:03.001Z</time></trkpt><trkpt lat="45.733734288991556" lon="10.047416315625085"><ele>500.59999999999997</ele><time>2026-04-12T14:44:04.001Z</time></trkpt><trkpt lat="45.73375970064579" lon="10.04757304751667"><ele>504.40000000000003</ele><time>2026-04-12T14:44:04.999Z</time></trkpt><trkpt lat="45.73378227941095" lon="10.047729931001774"><ele>508.20000000000005</ele><time>2026-04-12T14:44:05.999Z</time></trkpt><trkpt lat="45.73380827268148" lon="10.047878413721824"><ele>512.0</ele><time>2026-04-12T14:44:06.999Z</time></trkpt><trkpt lat="45.73386277145863" lon="10.048013286490502"><ele>512.0</ele><time>2026-04-12T14:44:07.999Z</time></trkpt><trkpt lat="45.73394240538918" lon="10.048134891934033"><ele>512.0</ele><time>2026-04-12T14:44:08.999Z</time></trkpt><trkpt lat="45.73402610693316" lon="10.048253613100044"><ele>512.0</ele><time>2026-04-12T14:44:10Z</time></trkpt><trkpt lat="45.73409700881734" lon="10.048376405442728"><ele>512.0</ele><time>2026-04-12T14:44:11Z</time></trkpt><trkpt lat="45.734143519696424" lon="10.048514233637281"><ele>507.0</ele><time>2026-04-12T14:44:12Z</time></trkpt><trkpt lat="45.73419184839121" lon="10.048641602553028"><ele>502.00000000000006</ele><time>2026-04-12T14:44:13Z</time></trkpt><trkpt lat="45.73424781572375" lon="10.048752029871636"><ele>497.00000000000006</ele><time>2026-04-12T14:44:14Z</time></trkpt><trkpt lat="45.734277999725116" lon="10.048850670700332"><ele>492.0</ele><time>2026-04-12T14:44:15Z</time></trkpt><trkpt lat="45.734322491216815" lon="10.048984986702528"><ele>487.0</ele><time>2026-04-12T14:44:17Z</time></trkpt><trkpt lat="45.734233244908665" lon="10.049052782252826"><ele>487.0</ele><time>2026-04-12T14:44:19Z</time></trkpt><trkpt lat="45.73416273516855" lon="10.04893617345403"><ele>487.00000000000006</ele><time>2026-04-12T14:44:21Z</time></trkpt><trkpt lat="45.73413752662159" lon="10.048838010701335"><ele>487.00000000000006</ele><time>2026-04-12T14:44:22Z</time></trkpt><trkpt lat="45.73409731725052" lon="10.048724528888009"><ele>487.0</ele><time>2026-04-12T14:44:23Z</time></trkpt><trkpt lat="45.73405206212904" lon="10.04858981343252"><ele>487.0</ele><time>2026-04-12T14:44:24Z</time></trkpt><trkpt lat="45.73398371180304" lon="10.048457975693239"><ele>487.0</ele><time>2026-04-12T14:44:25Z</time></trkpt><trkpt lat="45.733888476531234" lon="10.04834380239374"><ele>487.0</ele><time>2026-04-12T14:44:26Z</time></trkpt><trkpt lat="45.733775488896605" lon="10.048246446741357"><ele>487.0</ele><time>2026-04-12T14:44:27Z</time></trkpt><trkpt lat="45.73365598585173" lon="10.048138743890126"><ele>487.0</ele><time>2026-04-12T14:44:28Z</time></trkpt><trkpt lat="45.73352765421869" lon="10.048016895728232"><ele>481.33333333333337</ele><time>2026-04-12T14:44:29Z</time></trkpt><trkpt lat="45.73339694183352" lon="10.047882885525375"><ele>475.66666666666663</ele><time>2026-04-12T14:44:30Z</time></trkpt><trkpt lat="45.733261570681634" lon="10.047757621606188"><ele>470.0</ele><time>2026-04-12T14:44:31Z</time></trkpt><trkpt lat="45.733141212774854" lon="10.04762461149932"><ele>470.0</ele><time>2026-04-12T14:44:32Z</time></trkpt><trkpt lat="45.733008219823006" lon="10.047520412167815"><ele>470.0</ele><time>2026-04-12T14:44:33Z</time></trkpt><trkpt lat="45.732886656918595" lon="10.047399304613169"><ele>470.0</ele><time>2026-04-12T14:44:34Z</time></trkpt><trkpt lat="45.73277289916647" lon="10.04727420140675"><ele>470.0</ele><time>2026-04-12T14:44:35Z</time></trkpt><trkpt lat="45.73266314105235" lon="10.047142521995688"><ele>470.75</ele><time>2026-04-12T14:44:36Z</time></trkpt><trkpt lat="45.73255472154945" lon="10.047011233703198"><ele>471.5</ele><time>2026-04-12T14:44:37Z</time></trkpt><trkpt lat="45.73244811819882" lon="10.04687956692513"><ele>472.25</ele><time>2026-04-12T14:44:38Z</time></trkpt><trkpt lat="45.73234636152509" lon="10.046746165419973"><ele>473.0</ele><time>2026-04-12T14:44:39Z</time></trkpt><trkpt lat="45.732254996391575" lon="10.046603916322224"><ele>473.0</ele><time>2026-04-12T14:44:40Z</time></trkpt><trkpt lat="45.732178099522436" lon="10.046451448300877"><ele>473.0</ele><time>2026-04-12T14:44:41Z</time></trkpt><trkpt lat="45.73211474576755" lon="10.04626790659356"><ele>473.0</ele><time>2026-04-12T14:44:42Z</time></trkpt><trkpt lat="45.73205605081611" lon="10.046065485951878"><ele>473.0</ele><time>2026-04-12T14:44:43Z</time></trkpt><trkpt lat="45.73199720746241" lon="10.045851597679151"><ele>475.0</ele><time>2026-04-12T14:44:44Z</time></trkpt><trkpt lat="45.73192533911079" lon="10.045650134152565"><ele>477.0</ele><time>2026-04-12T14:44:45Z</time></trkpt><trkpt lat="45.73187194599024" lon="10.045444373212945"><ele>479.0</ele><time>2026-04-12T14:44:46Z</time></trkpt><trkpt lat="45.73184496078715" lon="10.045232314105496"><ele>461.0</ele><time>2026-04-12T14:44:47Z</time></trkpt><trkpt lat="45.73180041983509" lon="10.045010200042446"><ele>443.0</ele><time>2026-04-12T14:44:48Z</time></trkpt><trkpt lat="45.73177949826555" lon="10.044750785367524"><ele>425.0</ele><time>2026-04-12T14:44:49Z</time></trkpt><trkpt lat="45.73171869048323" lon="10.044515707198563"><ele>425.0</ele><time>2026-04-12T14:44:50Z</time></trkpt><trkpt lat="45.731666069109394" lon="10.044267762835528"><ele>425.0</ele><time>2026-04-12T14:44:51Z</time></trkpt><trkpt lat="45.731616232628596" lon="10.044010255166597"><ele>425.0</ele><time>2026-04-12T14:44:52Z</time></trkpt><trkpt lat="45.73155541562592" lon="10.043752969050045"><ele>431.3333333333333</ele><time>2026-04-12T14:44:53Z</time></trkpt><trkpt lat="45.73151333683874" lon="10.04350584197739"><ele>437.66666666666663</ele><time>2026-04-12T14:44:54Z</time></trkpt><trkpt lat="45.73148622736333" lon="10.043280043021237"><ele>444.0</ele><time>2026-04-12T14:44:55Z</time></trkpt><trkpt lat="45.73145717065059" lon="10.043066021654134"><ele>445.0</ele><time>2026-04-12T14:44:56Z</time></trkpt><trkpt lat="45.73144478152007" lon="10.042858865119962"><ele>446.0</ele><time>2026-04-12T14:44:57Z</time></trkpt><trkpt lat="45.7314364441617" lon="10.042676125363391"><ele>447.0</ele><time>2026-04-12T14:44:58.001Z</time></trkpt><trkpt lat="45.73140032936458" lon="10.042505586611192"><ele>448.0</ele><time>2026-04-12T14:44:59.001Z</time></trkpt><trkpt lat="45.73134982122343" lon="10.042332025926502"><ele>450.2</ele><time>2026-04-12T14:45:00.001Z</time></trkpt><trkpt lat="45.73130504307685" lon="10.042174146460612"><ele>452.4</ele><time>2026-04-12T14:45:01.001Z</time></trkpt><trkpt lat="45.731265505817056" lon="10.04202748986465"><ele>454.59999999999997</ele><time>2026-04-12T14:45:02.001Z</time></trkpt><trkpt lat="45.731230488422085" lon="10.041904349064097"><ele>456.79999999999995</ele><time>2026-04-12T14:45:03.001Z</time></trkpt><trkpt lat="45.73118815675175" lon="10.041801304352019"><ele>459.0</ele><time>2026-04-12T14:45:04.001Z</time></trkpt><trkpt lat="45.73113648539742" lon="10.041712279713916"><ele>459.0</ele><time>2026-04-12T14:45:05.001Z</time></trkpt><trkpt lat="45.7310713057405" lon="10.041658170896143"><ele>459.0</ele><time>2026-04-12T14:45:06.001Z</time></trkpt><trkpt lat="45.73099809711584" lon="10.041639649379979"><ele>459.0</ele><time>2026-04-12T14:45:07.001Z</time></trkpt><trkpt lat="45.730910720471904" lon="10.041673065925368"><ele>459.0</ele><time>2026-04-12T14:45:08.001Z</time></trkpt><trkpt lat="45.73083411597604" lon="10.041728555275867"><ele>459.0</ele><time>2026-04-12T14:45:09.001Z</time></trkpt><trkpt lat="45.73075618984373" lon="10.04178628417465"><ele>459.0</ele><time>2026-04-12T14:45:10.001Z</time></trkpt><trkpt lat="45.73069119509254" lon="10.041860391657657"><ele>457.0</ele><time>2026-04-12T14:45:11.001Z</time></trkpt><trkpt lat="45.730655187647585" lon="10.041984328926512"><ele>455.0</ele><time>2026-04-12T14:45:12.001Z</time></trkpt><trkpt lat="45.73064417460394" lon="10.04212599575658"><ele>453.0</ele><time>2026-04-12T14:45:13.001Z</time></trkpt><trkpt lat="45.73064212631229" lon="10.042296413353101"><ele>451.0</ele><time>2026-04-12T14:45:14.001Z</time></trkpt><trkpt lat="45.730616784621375" lon="10.042484771355578"><ele>449.0</ele><time>2026-04-12T14:45:15.001Z</time></trkpt><trkpt lat="45.73058042368793" lon="10.042686548641804"><ele>441.0</ele><time>2026-04-12T14:45:16.001Z</time></trkpt><trkpt lat="45.730536542215965" lon="10.042889776736013"><ele>433.0</ele><time>2026-04-12T14:45:17.001Z</time></trkpt><trkpt lat="45.73049044703904" lon="10.043113997545587"><ele>425.0</ele><time>2026-04-12T14:45:18.001Z</time></trkpt><trkpt lat="45.7304439224469" lon="10.043338727394879"><ele>420.0</ele><time>2026-04-12T14:45:19.001Z</time></trkpt><trkpt lat="45.73038451845137" lon="10.043565047501428"><ele>415.0</ele><time>2026-04-12T14:45:20.001Z</time></trkpt><trkpt lat="45.73029975037128" lon="10.043781795521793"><ele>410.0</ele><time>2026-04-12T14:45:21.001Z</time></trkpt><trkpt lat="45.730235141089324" lon="10.044015827904651"><ele>417.66666666666663</ele><time>2026-04-12T14:45:22.001Z</time></trkpt><trkpt lat="45.730156223488386" lon="10.0442384109268"><ele>425.33333333333337</ele><time>2026-04-12T14:45:23.001Z</time></trkpt><trkpt lat="45.73008498740656" lon="10.044471817207004"><ele>433.0</ele><time>2026-04-12T14:45:24.001Z</time></trkpt><trkpt lat="45.73000694109686" lon="10.044698145123824"><ele>433.0</ele><time>2026-04-12T14:45:25.001Z</time></trkpt><trkpt lat="45.729900724761734" lon="10.044900772463548"><ele>433.0</ele><time>2026-04-12T14:45:26.001Z</time></trkpt><trkpt lat="45.72983177789313" lon="10.045123483274054"><ele>433.0</ele><time>2026-04-12T14:45:27.001Z</time></trkpt><trkpt lat="45.72976193015759" lon="10.045333777772088"><ele>426.25</ele><time>2026-04-12T14:45:28.001Z</time></trkpt><trkpt lat="45.72970621121364" lon="10.045519132613181"><ele>419.5</ele><time>2026-04-12T14:45:29.001Z</time></trkpt><trkpt lat="45.72966748302488" lon="10.045671446665702"><ele>412.75</ele><time>2026-04-12T14:45:30.001Z</time></trkpt><trkpt lat="45.72964064544931" lon="10.045910493310677"><ele>406.0</ele><time>2026-04-12T14:45:31.001Z</time></trkpt><trkpt lat="45.72956763375433" lon="10.046038807330726"><ele>407.8</ele><time>2026-04-12T14:45:32.001Z</time></trkpt><trkpt lat="45.72947946004246" lon="10.046093895407422"><ele>409.6</ele><time>2026-04-12T14:45:33.001Z</time></trkpt><trkpt lat="45.72936275911316" lon="10.046099253245599"><ele>411.4</ele><time>2026-04-12T14:45:34.001Z</time></trkpt><trkpt lat="45.72928341764309" lon="10.046103868975756"><ele>413.2</ele><time>2026-04-12T14:45:35.001Z</time></trkpt><trkpt lat="45.729205242135826" lon="10.046103868970889"><ele>415.0</ele><time>2026-04-12T14:45:36.001Z</time></trkpt><trkpt lat="45.72909055519948" lon="10.046119944676382"><ele>415.0</ele><time>2026-04-12T14:45:37.001Z</time></trkpt><trkpt lat="45.72894747044733" lon="10.046143534740663"><ele>415.0</ele><time>2026-04-12T14:45:38.001Z</time></trkpt><trkpt lat="45.72881785385184" lon="10.046164442411929"><ele>415.0</ele><time>2026-04-12T14:45:39.001Z</time></trkpt><trkpt lat="45.72869030488245" lon="10.046211436067287"><ele>415.0</ele><time>2026-04-12T14:45:40.001Z</time></trkpt><trkpt lat="45.72855046942652" lon="10.046225769387775"><ele>416.0</ele><time>2026-04-12T14:45:41.001Z</time></trkpt><trkpt lat="45.72841558690599" lon="10.046246817230967"><ele>417.0</ele><time>2026-04-12T14:45:42.001Z</time></trkpt><trkpt lat="45.728270375480434" lon="10.046192666451537"><ele>418.0</ele><time>2026-04-12T14:45:43.001Z</time></trkpt><trkpt lat="45.72811572409301" lon="10.04616334975449"><ele>419.0</ele><time>2026-04-12T14:45:44.001Z</time></trkpt><trkpt lat="45.72795309859652" lon="10.046143367566623"><ele>419.0</ele><time>2026-04-12T14:45:45.001Z</time></trkpt><trkpt lat="45.72778957503658" lon="10.046139451956298"><ele>419.0</ele><time>2026-04-12T14:45:46.001Z</time></trkpt><trkpt lat="45.72763075537828" lon="10.046093780527194"><ele>419.0</ele><time>2026-04-12T14:45:47.001Z</time></trkpt><trkpt lat="45.72746106953529" lon="10.046078916064154"><ele>417.0</ele><time>2026-04-12T14:45:48.001Z</time></trkpt><trkpt lat="45.72731386628642" lon="10.04610589392231"><ele>415.0</ele><time>2026-04-12T14:45:49.001Z</time></trkpt><trkpt lat="45.727180419060595" lon="10.046145074067725"><ele>413.0</ele><time>2026-04-12T14:45:50.001Z</time></trkpt><trkpt lat="45.727033723750374" lon="10.046160733020473"><ele>411.0</ele><time>2026-04-12T14:45:51.001Z</time></trkpt><trkpt lat="45.72689722513032" lon="10.046176020640582"><ele>408.0</ele><time>2026-04-12T14:45:52.001Z</time></trkpt><trkpt lat="45.72677489821131" lon="10.046175047816456"><ele>405.0</ele><time>2026-04-12T14:45:53.001Z</time></trkpt><trkpt lat="45.726662805781054" lon="10.046140076297311"><ele>402.0</ele><time>2026-04-12T14:45:54.001Z</time></trkpt><trkpt lat="45.726550322985176" lon="10.046081449134688"><ele>399.0</ele><time>2026-04-12T14:45:55.001Z</time></trkpt><trkpt lat="45.72644305784158" lon="10.046054482122797"><ele>399.0</ele><time>2026-04-12T14:45:56.001Z</time></trkpt><trkpt lat="45.726330575192556" lon="10.046085454287596"><ele>399.0</ele><time>2026-04-12T14:45:57.002Z</time></trkpt><trkpt lat="45.726226162403954" lon="10.046169134945682"><ele>399.0</ele><time>2026-04-12T14:45:58.002Z</time></trkpt><trkpt lat="45.726118959557645" lon="10.04629569464734"><ele>399.0</ele><time>2026-04-12T14:45:59.002Z</time></trkpt><trkpt lat="45.725985833152954" lon="10.046365927451749"><ele>402.0</ele><time>2026-04-12T14:46:00.002Z</time></trkpt><trkpt lat="45.72585503389649" lon="10.046464823944154"><ele>405.0</ele><time>2026-04-12T14:46:01.002Z</time></trkpt><trkpt lat="45.7257064023901" lon="10.046525094979335"><ele>408.0</ele><time>2026-04-12T14:46:02.002Z</time></trkpt><trkpt lat="45.725558096127244" lon="10.046623683024066"><ele>395.0</ele><time>2026-04-12T14:46:03.002Z</time></trkpt><trkpt lat="45.72539251255667" lon="10.046724556094741"><ele>382.0</ele><time>2026-04-12T14:46:04.002Z</time></trkpt><trkpt lat="45.725211361234734" lon="10.046795437541409"><ele>369.0</ele><time>2026-04-12T14:46:05.002Z</time></trkpt><trkpt lat="45.72504578973848" lon="10.046849837282341"><ele>369.0</ele><time>2026-04-12T14:46:06.002Z</time></trkpt><trkpt lat="45.72490108917079" lon="10.046874702952538"><ele>369.0</ele><time>2026-04-12T14:46:07.002Z</time></trkpt><trkpt lat="45.72476196268204" lon="10.04688671173926"><ele>369.0</ele><time>2026-04-12T14:46:08.002Z</time></trkpt><trkpt lat="45.72462929048432" lon="10.046927844706662"><ele>369.0</ele><time>2026-04-12T14:46:09.002Z</time></trkpt><trkpt lat="45.72448980654182" lon="10.04695210884226"><ele>369.0</ele><time>2026-04-12T14:46:10.002Z</time></trkpt><trkpt lat="45.7243434903981" lon="10.046928018157145"><ele>369.0</ele><time>2026-04-12T14:46:11Z</time></trkpt><trkpt lat="45.72421170995899" lon="10.04687566966295"><ele>369.0</ele><time>2026-04-12T14:46:12Z</time></trkpt><trkpt lat="45.724085908552304" lon="10.046851178092908"><ele>369.0</ele><time>2026-04-12T14:46:13Z</time></trkpt><trkpt lat="45.72395243405663" lon="10.046881334055621"><ele>369.0</ele><time>2026-04-12T14:46:14Z</time></trkpt><trkpt lat="45.7238116484965" lon="10.046890102479006"><ele>369.0</ele><time>2026-04-12T14:46:15Z</time></trkpt><trkpt lat="45.7236623985854" lon="10.046901433059013"><ele>369.0</ele><time>2026-04-12T14:46:16Z</time></trkpt><trkpt lat="45.72351576609324" lon="10.046913953124907"><ele>369.0</ele><time>2026-04-12T14:46:17Z</time></trkpt><trkpt lat="45.723381537332614" lon="10.046925738351263"><ele>368.3333333333333</ele><time>2026-04-12T14:46:18Z</time></trkpt><trkpt lat="45.723237319454356" lon="10.04695210804291"><ele>367.66666666666663</ele><time>2026-04-12T14:46:19Z</time></trkpt><trkpt lat="45.72307763601648" lon="10.046969000785825"><ele>367.0</ele><time>2026-04-12T14:46:20Z</time></trkpt><trkpt lat="45.72290911427453" lon="10.04700333340833"><ele>367.0</ele><time>2026-04-12T14:46:21Z</time></trkpt><trkpt lat="45.72275640899017" lon="10.047062645635222"><ele>367.0</ele><time>2026-04-12T14:46:22Z</time></trkpt><trkpt lat="45.72259828149381" lon="10.047076126169623"><ele>367.0</ele><time>2026-04-12T14:46:23Z</time></trkpt><trkpt lat="45.722439621710635" lon="10.047118297612323"><ele>366.0</ele><time>2026-04-12T14:46:24Z</time></trkpt><trkpt lat="45.72228432082781" lon="10.047160813208418"><ele>365.0</ele><time>2026-04-12T14:46:25Z</time></trkpt><trkpt lat="45.722144062124045" lon="10.047202000927589"><ele>364.0</ele><time>2026-04-12T14:46:26Z</time></trkpt><trkpt lat="45.722022013327646" lon="10.047234148583806"><ele>363.0</ele><time>2026-04-12T14:46:27Z</time></trkpt><trkpt lat="45.7218979231662" lon="10.04725892665767"><ele>358.75</ele><time>2026-04-12T14:46:28Z</time></trkpt><trkpt lat="45.7217711565912" lon="10.047279182228959"><ele>354.5</ele><time>2026-04-12T14:46:29Z</time></trkpt><trkpt lat="45.72164631725523" lon="10.047270646392413"><ele>350.25</ele><time>2026-04-12T14:46:30Z</time></trkpt><trkpt lat="45.72153095556757" lon="10.047235968295157"><ele>346.0</ele><time>2026-04-12T14:46:31Z</time></trkpt><trkpt lat="45.72142897490248" lon="10.047134398836157"><ele>346.0</ele><time>2026-04-12T14:46:32Z</time></trkpt><trkpt lat="45.721337808362414" lon="10.047031006822777"><ele>346.0</ele><time>2026-04-12T14:46:33Z</time></trkpt><trkpt lat="45.721246242771244" lon="10.046927756883195"><ele>346.0</ele><time>2026-04-12T14:46:34Z</time></trkpt><trkpt lat="45.721143715036234" lon="10.046868599953605"><ele>346.0</ele><time>2026-04-12T14:46:35Z</time></trkpt><trkpt lat="45.721044725799935" lon="10.046845078977366"><ele>346.0</ele><time>2026-04-12T14:46:36Z</time></trkpt><trkpt lat="45.72096932834004" lon="10.046840711336884"><ele>342.66666666666663</ele><time>2026-04-12T14:46:37Z</time></trkpt><trkpt lat="45.720870485895674" lon="10.046904018305488"><ele>339.3333333333333</ele><time>2026-04-12T14:46:39Z</time></trkpt><trkpt lat="45.720793836027205" lon="10.046939008055196"><ele>336.0</ele><time>2026-04-12T14:46:40Z</time></trkpt><trkpt lat="45.72074042279987" lon="10.046994776859677"><ele>332.6666666666667</ele><time>2026-04-12T14:46:41Z</time></trkpt><trkpt lat="45.72063259716096" lon="10.046998265279907"><ele>329.33333333333337</ele><time>2026-04-12T14:46:43Z</time></trkpt><trkpt lat="45.72059967495758" lon="10.046903471161002"><ele>326.0</ele><time>2026-04-12T14:46:44Z</time></trkpt><trkpt lat="45.72057993787346" lon="10.04680652126696"><ele>326.0</ele><time>2026-04-12T14:46:45.001Z</time></trkpt><trkpt lat="45.72056056414073" lon="10.04669011903832"><ele>326.0</ele><time>2026-04-12T14:46:46.001Z</time></trkpt><trkpt lat="45.72053108065398" lon="10.046573769286244"><ele>326.0</ele><time>2026-04-12T14:46:47.001Z</time></trkpt><trkpt lat="45.72046987184397" lon="10.046458299243097"><ele>326.0</ele><time>2026-04-12T14:46:48.001Z</time></trkpt><trkpt lat="45.7203759507847" lon="10.046371642635158"><ele>326.0</ele><time>2026-04-12T14:46:49.001Z</time></trkpt><trkpt lat="45.72026171747968" lon="10.04632476979117"><ele>327.25</ele><time>2026-04-12T14:46:50.001Z</time></trkpt><trkpt lat="45.72014390654011" lon="10.046290208137727"><ele>328.5</ele><time>2026-04-12T14:46:51.001Z</time></trkpt><trkpt lat="45.720026227497314" lon="10.046258134052705"><ele>329.75</ele><time>2026-04-12T14:46:52.001Z</time></trkpt><trkpt lat="45.71989888371992" lon="10.046228603904916"><ele>331.0</ele><time>2026-04-12T14:46:53.001Z</time></trkpt><trkpt lat="45.719764814131324" lon="10.046223258178761"><ele>331.0</ele><time>2026-04-12T14:46:54.001Z</time></trkpt><trkpt lat="45.71963301551437" lon="10.046174201863014"><ele>331.0</ele><time>2026-04-12T14:46:55.001Z</time></trkpt><trkpt lat="45.719497002894116" lon="10.046121271668175"><ele>331.0</ele><time>2026-04-12T14:46:56.001Z</time></trkpt><trkpt lat="45.71936368859928" lon="10.046048720663356"><ele>331.0</ele><time>2026-04-12T14:46:57.001Z</time></trkpt><trkpt lat="45.719231985001976" lon="10.045969013130023"><ele>324.75</ele><time>2026-04-12T14:46:58.001Z</time></trkpt><trkpt lat="45.719095631543304" lon="10.045903978031594"><ele>318.5</ele><time>2026-04-12T14:46:59.001Z</time></trkpt><trkpt lat="45.71895738281248" lon="10.04586965569242"><ele>312.25</ele><time>2026-04-12T14:47:00.001Z</time></trkpt><trkpt lat="45.71882024554283" lon="10.045854539070692"><ele>306.0</ele><time>2026-04-12T14:47:01.001Z</time></trkpt><trkpt lat="45.71867970808635" lon="10.045860748025973"><ele>310.25</ele><time>2026-04-12T14:47:02.001Z</time></trkpt><trkpt lat="45.718539560299696" lon="10.045859011095615"><ele>314.5</ele><time>2026-04-12T14:47:03.001Z</time></trkpt><trkpt lat="45.71839595309508" lon="10.04584775782257"><ele>318.75</ele><time>2026-04-12T14:47:04.001Z</time></trkpt><trkpt lat="45.71825553320666" lon="10.04581020184106"><ele>323.0</ele><time>2026-04-12T14:47:05.001Z</time></trkpt><trkpt lat="45.71811789801348" lon="10.04577116271068"><ele>323.0</ele><time>2026-04-12T14:47:06.001Z</time></trkpt><trkpt lat="45.71798318906823" lon="10.04570622114748"><ele>323.0</ele><time>2026-04-12T14:47:07.001Z</time></trkpt><trkpt lat="45.717867102990525" lon="10.045632223821727"><ele>323.0</ele><time>2026-04-12T14:47:08.001Z</time></trkpt><trkpt lat="45.717750056982624" lon="10.045591835850152"><ele>323.0</ele><time>2026-04-12T14:47:09.001Z</time></trkpt><trkpt lat="45.717640307013795" lon="10.045522051980354"><ele>314.25</ele><time>2026-04-12T14:47:10.001Z</time></trkpt><trkpt lat="45.717544522024816" lon="10.045420778374382"><ele>305.5</ele><time>2026-04-12T14:47:11.001Z</time></trkpt><trkpt lat="45.717455814326605" lon="10.045298773528009"><ele>296.75</ele><time>2026-04-12T14:47:12.001Z</time></trkpt><trkpt lat="45.71736219506373" lon="10.045187193306866"><ele>288.0</ele><time>2026-04-12T14:47:13.001Z</time></trkpt><trkpt lat="45.717259972903655" lon="10.045088393904239"><ele>288.0</ele><time>2026-04-12T14:47:14.001Z</time></trkpt><trkpt lat="45.7171636622283" lon="10.044984103351906"><ele>288.0</ele><time>2026-04-12T14:47:15.001Z</time></trkpt><trkpt lat="45.717040665971226" lon="10.044889029825553"><ele>288.0</ele><time>2026-04-12T14:47:16.001Z</time></trkpt><trkpt lat="45.71692896164527" lon="10.04481186420125"><ele>288.0</ele><time>2026-04-12T14:47:17.001Z</time></trkpt><trkpt lat="45.71681459182171" lon="10.044755625762923"><ele>290.6666666666667</ele><time>2026-04-12T14:47:18.001Z</time></trkpt><trkpt lat="45.716692694547724" lon="10.044745659452971"><ele>293.3333333333333</ele><time>2026-04-12T14:47:19.001Z</time></trkpt><trkpt lat="45.71659495441691" lon="10.044764477817008"><ele>296.0</ele><time>2026-04-12T14:47:20.001Z</time></trkpt><trkpt lat="45.71651444951299" lon="10.044801594334231"><ele>298.66666666666663</ele><time>2026-04-12T14:47:21.001Z</time></trkpt><trkpt lat="45.716465940498765" lon="10.044862701322433"><ele>301.3333333333333</ele><time>2026-04-12T14:47:22.001Z</time></trkpt><trkpt lat="45.716422157579956" lon="10.044956290988283"><ele>304.0</ele><time>2026-04-12T14:47:23.001Z</time></trkpt><trkpt lat="45.71639169772043" lon="10.045047795986704"><ele>297.16666666666663</ele><time>2026-04-12T14:47:24.001Z</time></trkpt><trkpt lat="45.71642828120141" lon="10.045144387798468"><ele>290.3333333333333</ele><time>2026-04-12T14:47:25.001Z</time></trkpt><trkpt lat="45.71653951950332" lon="10.045223834060748"><ele>283.5</ele><time>2026-04-12T14:47:27.001Z</time></trkpt><trkpt lat="45.7166050724641" lon="10.045169092739785"><ele>276.6666666666667</ele><time>2026-04-12T14:47:28.001Z</time></trkpt><trkpt lat="45.71667903370715" lon="10.045150478564738"><ele>269.83333333333337</ele><time>2026-04-12T14:47:29.001Z</time></trkpt><trkpt lat="45.71675530787682" lon="10.045104152575892"><ele>263.0</ele><time>2026-04-12T14:47:30.001Z</time></trkpt><trkpt lat="45.716838394477804" lon="10.045099429460675"><ele>268.0</ele><time>2026-04-12T14:47:31.001Z</time></trkpt><trkpt lat="45.71691349424693" lon="10.045119041624769"><ele>273.0</ele><time>2026-04-12T14:47:32.001Z</time></trkpt><trkpt lat="45.717010392737436" lon="10.045144110601719"><ele>278.0</ele><time>2026-04-12T14:47:33.001Z</time></trkpt><trkpt lat="45.717098932106616" lon="10.045224097695828"><ele>283.0</ele><time>2026-04-12T14:47:34.001Z</time></trkpt><trkpt lat="45.71718919652458" lon="10.045350569181666"><ele>288.0</ele><time>2026-04-12T14:47:35.001Z</time></trkpt><trkpt lat="45.71724893972695" lon="10.045476127967715"><ele>288.0</ele><time>2026-04-12T14:47:36.001Z</time></trkpt><trkpt lat="45.71730574663693" lon="10.045610481036146"><ele>288.0</ele><time>2026-04-12T14:47:37.001Z</time></trkpt><trkpt lat="45.71736814889265" lon="10.045736162723712"><ele>288.0</ele><time>2026-04-12T14:47:38.001Z</time></trkpt><trkpt lat="45.7174272723804" lon="10.045853606727126"><ele>288.0</ele><time>2026-04-12T14:47:39.001Z</time></trkpt><trkpt lat="45.71749097675952" lon="10.04596947524648"><ele>288.0</ele><time>2026-04-12T14:47:40.001Z</time></trkpt><trkpt lat="45.71756585959155" lon="10.046078179189303"><ele>284.5</ele><time>2026-04-12T14:47:41.001Z</time></trkpt><trkpt lat="45.71766285764286" lon="10.046178663986748"><ele>281.0</ele><time>2026-04-12T14:47:42.001Z</time></trkpt><trkpt lat="45.71777411803155" lon="10.046271691133114"><ele>277.5</ele><time>2026-04-12T14:47:43.001Z</time></trkpt><trkpt lat="45.71788523010581" lon="10.046374678032576"><ele>274.0</ele><time>2026-04-12T14:47:44.001Z</time></trkpt><trkpt lat="45.71799857352219" lon="10.046452518415029"><ele>274.0</ele><time>2026-04-12T14:47:45.001Z</time></trkpt><trkpt lat="45.71811417087874" lon="10.046527695042888"><ele>274.0</ele><time>2026-04-12T14:47:46.001Z</time></trkpt><trkpt lat="45.71823507285033" lon="10.046578402368509"><ele>274.0</ele><time>2026-04-12T14:47:47.001Z</time></trkpt><trkpt lat="45.718349131450914" lon="10.046655818612184"><ele>274.0</ele><time>2026-04-12T14:47:48.001Z</time></trkpt><trkpt lat="45.71846884841378" lon="10.046710026177168"><ele>267.5</ele><time>2026-04-12T14:47:49.001Z</time></trkpt><trkpt lat="45.71859141417677" lon="10.046743955982459"><ele>261.0</ele><time>2026-04-12T14:47:50.002Z</time></trkpt><trkpt lat="45.71871437082178" lon="10.046763273267178"><ele>254.5</ele><time>2026-04-12T14:47:51.002Z</time></trkpt><trkpt lat="45.71883496570964" lon="10.046774441063429"><ele>248.0</ele><time>2026-04-12T14:47:52.002Z</time></trkpt><trkpt lat="45.7189538150704" lon="10.046814618237644"><ele>248.0</ele><time>2026-04-12T14:47:53.002Z</time></trkpt><trkpt lat="45.71907058941154" lon="10.046865581331781"><ele>248.0</ele><time>2026-04-12T14:47:54.002Z</time></trkpt><trkpt lat="45.719174265813784" lon="10.046970068192199"><ele>248.0</ele><time>2026-04-12T14:47:55.002Z</time></trkpt><trkpt lat="45.71927885320576" lon="10.04708088984771"><ele>248.0</ele><time>2026-04-12T14:47:56.002Z</time></trkpt><trkpt lat="45.71937442080581" lon="10.047193171575449"><ele>248.8</ele><time>2026-04-12T14:47:57.002Z</time></trkpt><trkpt lat="45.71946745889918" lon="10.04727942968989"><ele>249.60000000000002</ele><time>2026-04-12T14:47:58.002Z</time></trkpt><trkpt lat="45.719563440950076" lon="10.047346956831595"><ele>250.39999999999998</ele><time>2026-04-12T14:47:59.002Z</time></trkpt><trkpt lat="45.71966221094225" lon="10.047382331374688"><ele>251.2</ele><time>2026-04-12T14:48:00.002Z</time></trkpt><trkpt lat="45.71972051755734" lon="10.047458964412716"><ele>252.0</ele><time>2026-04-12T14:48:01.002Z</time></trkpt><trkpt lat="45.71977422144524" lon="10.047510051870372"><ele>252.0</ele><time>2026-04-12T14:48:02.002Z</time></trkpt><trkpt lat="45.71978360340425" lon="10.047603708745335"><ele>252.0</ele><time>2026-04-12T14:48:03.002Z</time></trkpt><trkpt lat="45.71975621196749" lon="10.04768793015917"><ele>252.0</ele><time>2026-04-12T14:48:04.002Z</time></trkpt><trkpt lat="45.71969932200472" lon="10.0477392917086"><ele>252.0</ele><time>2026-04-12T14:48:05.002Z</time></trkpt><trkpt lat="45.719618752439665" lon="10.047725421470835"><ele>252.0</ele><time>2026-04-12T14:48:06.002Z</time></trkpt><trkpt lat="45.71955306631476" lon="10.047652394774419"><ele>252.0</ele><time>2026-04-12T14:48:07.002Z</time></trkpt><trkpt lat="45.71948618975912" lon="10.047552286502228"><ele>252.0</ele><time>2026-04-12T14:48:08.002Z</time></trkpt><trkpt lat="45.7194052485729" lon="10.047470514146015"><ele>252.0</ele><time>2026-04-12T14:48:09.002Z</time></trkpt><trkpt lat="45.719296887815325" lon="10.047393501559414"><ele>252.0</ele><time>2026-04-12T14:48:10.002Z</time></trkpt><trkpt lat="45.71919056066016" lon="10.047320478610501"><ele>252.0</ele><time>2026-04-12T14:48:11.002Z</time></trkpt><trkpt lat="45.719083935330815" lon="10.04723181964725"><ele>251.0</ele><time>2026-04-12T14:48:12.002Z</time></trkpt><trkpt lat="45.71897247926946" lon="10.047162456232217"><ele>250.0</ele><time>2026-04-12T14:48:13.002Z</time></trkpt><trkpt lat="45.71886173377902" lon="10.04710667589035"><ele>249.0</ele><time>2026-04-12T14:48:14.002Z</time></trkpt><trkpt lat="45.7187516977176" lon="10.047078600772343"><ele>248.0</ele><time>2026-04-12T14:48:15.002Z</time></trkpt><trkpt lat="45.71864462957743" lon="10.047068888161585"><ele>243.2</ele><time>2026-04-12T14:48:16.002Z</time></trkpt><trkpt lat="45.71854269296382" lon="10.047071013450449"><ele>238.4</ele><time>2026-04-12T14:48:17.001Z</time></trkpt><trkpt lat="45.71843644206513" lon="10.04705229794336"><ele>233.59999999999997</ele><time>2026-04-12T14:48:18.001Z</time></trkpt><trkpt lat="45.71834584432319" lon="10.046996911562747"><ele>228.79999999999998</ele><time>2026-04-12T14:48:19.001Z</time></trkpt><trkpt lat="45.71827315297455" lon="10.046945629195879"><ele>224.0</ele><time>2026-04-12T14:48:20.001Z</time></trkpt><trkpt lat="45.718203178486945" lon="10.046919234010735"><ele>224.00000000000003</ele><time>2026-04-12T14:48:21.001Z</time></trkpt><trkpt lat="45.718139213219025" lon="10.0469266217836"><ele>224.0</ele><time>2026-04-12T14:48:22.001Z</time></trkpt><trkpt lat="45.71808677559657" lon="10.046982283359172"><ele>224.0</ele><time>2026-04-12T14:48:23.001Z</time></trkpt><trkpt lat="45.71806255386045" lon="10.047066584703407"><ele>224.0</ele><time>2026-04-12T14:48:24.001Z</time></trkpt><trkpt lat="45.7181012452204" lon="10.047237519543133"><ele>224.00000000000003</ele><time>2026-04-12T14:48:26.001Z</time></trkpt><trkpt lat="45.718148335606124" lon="10.047310455262222"><ele>224.0</ele><time>2026-04-12T14:48:27.001Z</time></trkpt><trkpt lat="45.71824868404168" lon="10.047340679320671"><ele>224.0</ele><time>2026-04-12T14:48:28.001Z</time></trkpt><trkpt lat="45.71835184523982" lon="10.047362487274887"><ele>224.0</ele><time>2026-04-12T14:48:29.001Z</time></trkpt><trkpt lat="45.71846661829933" lon="10.047360475510452"><ele>224.0</ele><time>2026-04-12T14:48:30.001Z</time></trkpt><trkpt lat="45.71858515671499" lon="10.047408012188386"><ele>224.0</ele><time>2026-04-12T14:48:31.001Z</time></trkpt><trkpt lat="45.71870960902455" lon="10.047453912652468"><ele>221.79999999999998</ele><time>2026-04-12T14:48:32.001Z</time></trkpt><trkpt lat="45.71882321791898" lon="10.047495345907267"><ele>219.59999999999997</ele><time>2026-04-12T14:48:33.001Z</time></trkpt><trkpt lat="45.71892601893757" lon="10.047536051530617"><ele>217.4</ele><time>2026-04-12T14:48:34.001Z</time></trkpt><trkpt lat="45.719016169224936" lon="10.047575660421181"><ele>215.2</ele><time>2026-04-12T14:48:35.001Z</time></trkpt><trkpt lat="45.719088946415084" lon="10.047638251423027"><ele>213.0</ele><time>2026-04-12T14:48:36.001Z</time></trkpt><trkpt lat="45.71914937461552" lon="10.047727912605797"><ele>213.0</ele><time>2026-04-12T14:48:37.001Z</time></trkpt><trkpt lat="45.7191874088713" lon="10.047837748020754"><ele>213.0</ele><time>2026-04-12T14:48:38.001Z</time></trkpt><trkpt lat="45.719185683226016" lon="10.047978298997263"><ele>213.0</ele><time>2026-04-12T14:48:39.001Z</time></trkpt><trkpt lat="45.71916703516206" lon="10.04808049908493"><ele>213.0</ele><time>2026-04-12T14:48:40.001Z</time></trkpt><trkpt lat="45.71914805625491" lon="10.048213424272568"><ele>213.0</ele><time>2026-04-12T14:48:42.001Z</time></trkpt><trkpt lat="45.719014593064095" lon="10.048157717659848"><ele>213.0</ele><time>2026-04-12T14:48:44.001Z</time></trkpt><trkpt lat="45.71894498786328" lon="10.048151619687543"><ele>213.0</ele><time>2026-04-12T14:49:09.001Z</time></trkpt><trkpt lat="45.71882090169287" lon="10.0481343950177"><ele>213.0</ele><time>2026-04-12T14:49:11.001Z</time></trkpt><trkpt lat="45.71874887330927" lon="10.048099047314631"><ele>213.0</ele><time>2026-04-12T14:49:12.001Z</time></trkpt><trkpt lat="45.71867832708854" lon="10.048068990185273"><ele>213.0</ele><time>2026-04-12T14:49:13.001Z</time></trkpt><trkpt lat="45.71857634399159" lon="10.048011368893203"><ele>210.33333333333334</ele><time>2026-04-12T14:49:15.001Z</time></trkpt><trkpt lat="45.71849019715706" lon="10.047996174351676"><ele>207.66666666666669</ele><time>2026-04-12T14:49:17.001Z</time></trkpt><trkpt lat="45.718419843421835" lon="10.047980690311578"><ele>205.0</ele><time>2026-04-12T14:49:19.001Z</time></trkpt><trkpt lat="45.718317278627225" lon="10.047949798142596"><ele>202.33333333333334</ele><time>2026-04-12T14:50:51.001Z</time></trkpt><trkpt lat="45.7182392453351" lon="10.047930378998222"><ele>199.66666666666669</ele><time>2026-04-12T14:50:52.001Z</time></trkpt><trkpt lat="45.71815179570073" lon="10.04791462207371"><ele>197.0</ele><time>2026-04-12T14:50:53.001Z</time></trkpt><trkpt lat="45.718046751466304" lon="10.047896209703632"><ele>197.0</ele><time>2026-04-12T14:50:54.001Z</time></trkpt><trkpt lat="45.71793527561976" lon="10.047839352245903"><ele>197.0</ele><time>2026-04-12T14:50:55.001Z</time></trkpt><trkpt lat="45.717812820995746" lon="10.047812319797702"><ele>197.0</ele><time>2026-04-12T14:50:56.001Z</time></trkpt><trkpt lat="45.717687833895404" lon="10.047798556476728"><ele>197.0</ele><time>2026-04-12T14:50:57.001Z</time></trkpt><trkpt lat="45.71757340014082" lon="10.047797537899884"><ele>197.2</ele><time>2026-04-12T14:50:58.001Z</time></trkpt><trkpt lat="45.71746241506566" lon="10.047804251794451"><ele>197.39999999999998</ele><time>2026-04-12T14:50:59.001Z</time></trkpt><trkpt lat="45.71734920048349" lon="10.04781123653003"><ele>197.60000000000002</ele><time>2026-04-12T14:51:00.001Z</time></trkpt><trkpt lat="45.71724142771211" lon="10.047816076922349"><ele>197.8</ele><time>2026-04-12T14:51:01.001Z</time></trkpt><trkpt lat="45.717144202151474" lon="10.047828352652758"><ele>198.0</ele><time>2026-04-12T14:51:02.001Z</time></trkpt><trkpt lat="45.71704395483128" lon="10.047861704976325"><ele>198.0</ele><time>2026-04-12T14:51:03.001Z</time></trkpt><trkpt lat="45.71694454298573" lon="10.0478485297048"><ele>198.0</ele><time>2026-04-12T14:51:04.001Z</time></trkpt><trkpt lat="45.716831832272774" lon="10.047836880380599"><ele>198.0</ele><time>2026-04-12T14:51:05.001Z</time></trkpt><trkpt lat="45.71671920616186" lon="10.047764271589278"><ele>198.0</ele><time>2026-04-12T14:51:06.001Z</time></trkpt><trkpt lat="45.71659978710417" lon="10.047706115889476"><ele>199.0</ele><time>2026-04-12T14:51:07.001Z</time></trkpt><trkpt lat="45.71648050528615" lon="10.0476454129613"><ele>200.0</ele><time>2026-04-12T14:51:08.001Z</time></trkpt><trkpt lat="45.716360661109285" lon="10.04760115874345"><ele>201.0</ele><time>2026-04-12T14:51:09.001Z</time></trkpt><trkpt lat="45.716231222569014" lon="10.047585994398585"><ele>202.0</ele><time>2026-04-12T14:51:10.001Z</time></trkpt><trkpt lat="45.716106573959564" lon="10.047542555038323"><ele>200.75</ele><time>2026-04-12T14:51:11.001Z</time></trkpt><trkpt lat="45.715981127156944" lon="10.047510923482463"><ele>199.5</ele><time>2026-04-12T14:51:12.001Z</time></trkpt><trkpt lat="45.71584864094187" lon="10.047491324232237"><ele>198.25</ele><time>2026-04-12T14:51:13.001Z</time></trkpt><trkpt lat="45.715720351615865" lon="10.04747224094488"><ele>197.0</ele><time>2026-04-12T14:51:14.001Z</time></trkpt><trkpt lat="45.71559796074394" lon="10.047461664627495"><ele>197.0</ele><time>2026-04-12T14:51:15.001Z</time></trkpt><trkpt lat="45.71548169499997" lon="10.047456101208718"><ele>197.0</ele><time>2026-04-12T14:51:16.001Z</time></trkpt><trkpt lat="45.715368962986304" lon="10.04746022574541"><ele>197.0</ele><time>2026-04-12T14:51:17.001Z</time></trkpt><trkpt lat="45.71525533263762" lon="10.047466650229081"><ele>197.0</ele><time>2026-04-12T14:51:18.001Z</time></trkpt><trkpt lat="45.71513931171212" lon="10.047476847180942"><ele>195.75</ele><time>2026-04-12T14:51:19.001Z</time></trkpt><trkpt lat="45.715018394530645" lon="10.047477359683649"><ele>194.5</ele><time>2026-04-12T14:51:20.001Z</time></trkpt><trkpt lat="45.71489878008194" lon="10.047441138479646"><ele>193.25</ele><time>2026-04-12T14:51:21.001Z</time></trkpt><trkpt lat="45.71477499179665" lon="10.047439568337413"><ele>192.0</ele><time>2026-04-12T14:51:22.001Z</time></trkpt><trkpt lat="45.71464192253749" lon="10.047401877507106"><ele>197.0</ele><time>2026-04-12T14:51:23.001Z</time></trkpt><trkpt lat="45.71450671485712" lon="10.047363329694539"><ele>202.0</ele><time>2026-04-12T14:51:24.001Z</time></trkpt><trkpt lat="45.71436955581649" lon="10.047325558744962"><ele>207.0</ele><time>2026-04-12T14:51:25.001Z</time></trkpt><trkpt lat="45.71423463368249" lon="10.047285096496058"><ele>212.0</ele><time>2026-04-12T14:51:26.001Z</time></trkpt><trkpt lat="45.71410364229505" lon="10.047250486486286"><ele>212.0</ele><time>2026-04-12T14:51:27.001Z</time></trkpt><trkpt lat="45.713977011747744" lon="10.047226735742013"><ele>212.0</ele><time>2026-04-12T14:51:28.001Z</time></trkpt><trkpt lat="45.71386050006359" lon="10.04719840793858"><ele>212.0</ele><time>2026-04-12T14:51:29.001Z</time></trkpt><trkpt lat="45.71374107393431" lon="10.047170808177821"><ele>212.0</ele><time>2026-04-12T14:51:30.001Z</time></trkpt><trkpt lat="45.71361767524746" lon="10.047142761297414"><ele>212.5</ele><time>2026-04-12T14:51:31.001Z</time></trkpt><trkpt lat="45.71349245171623" lon="10.047118269212003"><ele>213.0</ele><time>2026-04-12T14:51:32.001Z</time></trkpt><trkpt lat="45.71336734877112" lon="10.047092362262124"><ele>213.5</ele><time>2026-04-12T14:51:33.001Z</time></trkpt><trkpt lat="45.71324939168432" lon="10.047035759738156"><ele>214.0</ele><time>2026-04-12T14:51:34.001Z</time></trkpt><trkpt lat="45.713126742722636" lon="10.047006166926272"><ele>214.0</ele><time>2026-04-12T14:51:35.001Z</time></trkpt><trkpt lat="45.71300493402537" lon="10.046962139255742"><ele>214.0</ele><time>2026-04-12T14:51:36.001Z</time></trkpt><trkpt lat="45.71288362566151" lon="10.04690841482927"><ele>214.0</ele><time>2026-04-12T14:51:37.001Z</time></trkpt><trkpt lat="45.71276438692892" lon="10.046833322076933"><ele>214.0</ele><time>2026-04-12T14:51:38.001Z</time></trkpt><trkpt lat="45.71264187208799" lon="10.046754965970635"><ele>211.25</ele><time>2026-04-12T14:51:39.001Z</time></trkpt><trkpt lat="45.71252331263993" lon="10.046701375772189"><ele>208.5</ele><time>2026-04-12T14:51:40.001Z</time></trkpt><trkpt lat="45.71239861861625" lon="10.046638738001624"><ele>205.75</ele><time>2026-04-12T14:51:41.001Z</time></trkpt><trkpt lat="45.71229009706135" lon="10.04657563775674"><ele>203.0</ele><time>2026-04-12T14:51:42.001Z</time></trkpt><trkpt lat="45.71218238261589" lon="10.04653267778122"><ele>201.2</ele><time>2026-04-12T14:51:43.001Z</time></trkpt><trkpt lat="45.712073608400225" lon="10.046515917076647"><ele>199.4</ele><time>2026-04-12T14:51:44.001Z</time></trkpt><trkpt lat="45.71196739241097" lon="10.046541816377191"><ele>197.6</ele><time>2026-04-12T14:51:45.001Z</time></trkpt><trkpt lat="45.71187119329306" lon="10.046616275254653"><ele>195.79999999999998</ele><time>2026-04-12T14:51:46.001Z</time></trkpt><trkpt lat="45.71179793739957" lon="10.046738337111048"><ele>194.0</ele><time>2026-04-12T14:51:47.001Z</time></trkpt><trkpt lat="45.71173056428171" lon="10.046890496957205"><ele>194.0</ele><time>2026-04-12T14:51:48.001Z</time></trkpt><trkpt lat="45.711656808307076" lon="10.04703772334973"><ele>194.0</ele><time>2026-04-12T14:51:49.001Z</time></trkpt><trkpt lat="45.71156892378398" lon="10.047196453946821"><ele>194.0</ele><time>2026-04-12T14:51:50.001Z</time></trkpt><trkpt lat="45.71148721603783" lon="10.047358364886819"><ele>194.0</ele><time>2026-04-12T14:51:51.001Z</time></trkpt><trkpt lat="45.71140303418433" lon="10.047504556337666"><ele>194.0</ele><time>2026-04-12T14:51:52.001Z</time></trkpt><trkpt lat="45.711321623416836" lon="10.047643412552688"><ele>194.0</ele><time>2026-04-12T14:51:53.001Z</time></trkpt><trkpt lat="45.71123346599915" lon="10.047766196986592"><ele>194.0</ele><time>2026-04-12T14:51:54.001Z</time></trkpt><trkpt lat="45.7111238894142" lon="10.047870277060579"><ele>194.0</ele><time>2026-04-12T14:51:55.001Z</time></trkpt><trkpt lat="45.71100443729833" lon="10.0479437325507"><ele>194.0</ele><time>2026-04-12T14:51:56.001Z</time></trkpt><trkpt lat="45.710896163623794" lon="10.047979215432271"><ele>194.0</ele><time>2026-04-12T14:51:57.001Z</time></trkpt><trkpt lat="45.71078483382915" lon="10.048011014186958"><ele>194.0</ele><time>2026-04-12T14:51:58.001Z</time></trkpt><trkpt lat="45.71055009076612" lon="10.048035382575568"><ele>194.0</ele><time>2026-04-12T14:52:00.001Z</time></trkpt><trkpt lat="45.71041662637573" lon="10.048023251909342"><ele>194.0</ele><time>2026-04-12T14:52:01.001Z</time></trkpt><trkpt lat="45.710287304882364" lon="10.04799339507281"><ele>194.0</ele><time>2026-04-12T14:52:02.001Z</time></trkpt><trkpt lat="45.710161404163834" lon="10.04794248877921"><ele>194.0</ele><time>2026-04-12T14:52:03.001Z</time></trkpt><trkpt lat="45.71003481263183" lon="10.047898492255936"><ele>193.25</ele><time>2026-04-12T14:52:04.001Z</time></trkpt><trkpt lat="45.70991570620506" lon="10.04783509712885"><ele>192.5</ele><time>2026-04-12T14:52:05.002Z</time></trkpt><trkpt lat="45.70980799765832" lon="10.047741830011908"><ele>191.75</ele><time>2026-04-12T14:52:06.002Z</time></trkpt><trkpt lat="45.70973229665269" lon="10.047613865036144"><ele>191.0</ele><time>2026-04-12T14:52:07.002Z</time></trkpt><trkpt lat="45.70966320485342" lon="10.047463041952495"><ele>192.5</ele><time>2026-04-12T14:52:08.002Z</time></trkpt><trkpt lat="45.70959503735229" lon="10.047320662366438"><ele>194.0</ele><time>2026-04-12T14:52:09.002Z</time></trkpt><trkpt lat="45.7095045279791" lon="10.047180523384704"><ele>195.5</ele><time>2026-04-12T14:52:10.002Z</time></trkpt><trkpt lat="45.70939756604735" lon="10.04706988148111"><ele>197.0</ele><time>2026-04-12T14:52:11.002Z</time></trkpt><trkpt lat="45.70928333215674" lon="10.04697115313279"><ele>197.0</ele><time>2026-04-12T14:52:12.002Z</time></trkpt><trkpt lat="45.70916220501489" lon="10.046884268825924"><ele>197.0</ele><time>2026-04-12T14:52:13.002Z</time></trkpt><trkpt lat="45.70903815048983" lon="10.046808602328332"><ele>197.0</ele><time>2026-04-12T14:52:14.002Z</time></trkpt><trkpt lat="45.70890987799944" lon="10.046742320843776"><ele>197.0</ele><time>2026-04-12T14:52:15.002Z</time></trkpt><trkpt lat="45.70877714465291" lon="10.046696208555906"><ele>197.0</ele><time>2026-04-12T14:52:16.002Z</time></trkpt><trkpt lat="45.708648245048444" lon="10.04668199587158"><ele>197.0</ele><time>2026-04-12T14:52:17.002Z</time></trkpt><trkpt lat="45.70851336617998" lon="10.046688976420315"><ele>197.0</ele><time>2026-04-12T14:52:18.002Z</time></trkpt><trkpt lat="45.708376562769516" lon="10.04671908289146"><ele>197.0</ele><time>2026-04-12T14:52:19.002Z</time></trkpt><trkpt lat="45.708240445556356" lon="10.046758413863772"><ele>197.25</ele><time>2026-04-12T14:52:20.002Z</time></trkpt><trkpt lat="45.70810974503337" lon="10.046804257963718"><ele>197.5</ele><time>2026-04-12T14:52:21.002Z</time></trkpt><trkpt lat="45.707978976344855" lon="10.046854716697075"><ele>197.75</ele><time>2026-04-12T14:52:22.002Z</time></trkpt><trkpt lat="45.70785026800658" lon="10.046913522815524"><ele>198.0</ele><time>2026-04-12T14:52:23.002Z</time></trkpt><trkpt lat="45.70772330445549" lon="10.046980106673137"><ele>198.0</ele><time>2026-04-12T14:52:24.002Z</time></trkpt><trkpt lat="45.707592695073274" lon="10.047056133270818"><ele>198.0</ele><time>2026-04-12T14:52:25.002Z</time></trkpt><trkpt lat="45.70746909106366" lon="10.047129066111298"><ele>198.0</ele><time>2026-04-12T14:52:26.002Z</time></trkpt><trkpt lat="45.7073410739482" lon="10.047201946438538"><ele>198.0</ele><time>2026-04-12T14:52:27.002Z</time></trkpt><trkpt lat="45.70721870127079" lon="10.047283569987572"><ele>198.0</ele><time>2026-04-12T14:52:28.002Z</time></trkpt><trkpt lat="45.70708544465912" lon="10.047322085718797"><ele>198.0</ele><time>2026-04-12T14:52:29.001Z</time></trkpt><trkpt lat="45.70695200354176" lon="10.047370761623934"><ele>198.0</ele><time>2026-04-12T14:52:30.001Z</time></trkpt><trkpt lat="45.70681376663276" lon="10.047443262651043"><ele>198.0</ele><time>2026-04-12T14:52:31.001Z</time></trkpt><trkpt lat="45.70666327367073" lon="10.047494032004733"><ele>195.0</ele><time>2026-04-12T14:52:32.001Z</time></trkpt><trkpt lat="45.706511364415874" lon="10.047551207053198"><ele>192.0</ele><time>2026-04-12T14:52:33.001Z</time></trkpt><trkpt lat="45.70635438686308" lon="10.047619392124355"><ele>189.0</ele><time>2026-04-12T14:52:34.001Z</time></trkpt><trkpt lat="45.70619142948163" lon="10.047662709272457"><ele>195.33333333333331</ele><time>2026-04-12T14:52:35.001Z</time></trkpt><trkpt lat="45.706030755153584" lon="10.047739233448535"><ele>201.66666666666666</ele><time>2026-04-12T14:52:36.001Z</time></trkpt><trkpt lat="45.70587297059407" lon="10.047828008082702"><ele>208.0</ele><time>2026-04-12T14:52:37.001Z</time></trkpt><trkpt lat="45.70572365969842" lon="10.04791773738257"><ele>208.0</ele><time>2026-04-12T14:52:38.001Z</time></trkpt><trkpt lat="45.705575673348434" lon="10.048002346543528"><ele>208.0</ele><time>2026-04-12T14:52:39.001Z</time></trkpt><trkpt lat="45.7054305871771" lon="10.04808529741312"><ele>208.0</ele><time>2026-04-12T14:52:40.001Z</time></trkpt><trkpt lat="45.70528623246354" lon="10.048167830080253"><ele>205.0</ele><time>2026-04-12T14:52:41.001Z</time></trkpt><trkpt lat="45.70514288579401" lon="10.048249564888334"><ele>202.0</ele><time>2026-04-12T14:52:42.001Z</time></trkpt><trkpt lat="45.70499771213664" lon="10.048331704497834"><ele>199.0</ele><time>2026-04-12T14:52:43.001Z</time></trkpt><trkpt lat="45.70485249440151" lon="10.048413868977256"><ele>199.0</ele><time>2026-04-12T14:52:44.001Z</time></trkpt><trkpt lat="45.70470549621051" lon="10.048497041122316"><ele>199.0</ele><time>2026-04-12T14:52:45.001Z</time></trkpt><trkpt lat="45.70456683257516" lon="10.048596178226665"><ele>199.0</ele><time>2026-04-12T14:52:46.001Z</time></trkpt><trkpt lat="45.70441741693131" lon="10.04868298440646"><ele>207.0</ele><time>2026-04-12T14:52:47.001Z</time></trkpt><trkpt lat="45.70426233974292" lon="10.048747780015605"><ele>215.0</ele><time>2026-04-12T14:52:48.001Z</time></trkpt><trkpt lat="45.70411473765067" lon="10.048831293670109"><ele>223.0</ele><time>2026-04-12T14:52:49.001Z</time></trkpt><trkpt lat="45.70396557654643" lon="10.048919703823449"><ele>223.0</ele><time>2026-04-12T14:52:50.001Z</time></trkpt><trkpt lat="45.70381806473821" lon="10.049022521129661"><ele>223.0</ele><time>2026-04-12T14:52:51.001Z</time></trkpt><trkpt lat="45.703673150701235" lon="10.049138141359284"><ele>223.0</ele><time>2026-04-12T14:52:52.001Z</time></trkpt><trkpt lat="45.70353462689681" lon="10.049278035580528"><ele>217.0</ele><time>2026-04-12T14:52:53.001Z</time></trkpt><trkpt lat="45.70340527093669" lon="10.049433658474301"><ele>211.0</ele><time>2026-04-12T14:52:54.001Z</time></trkpt><trkpt lat="45.70327864769018" lon="10.049603079822823"><ele>205.0</ele><time>2026-04-12T14:52:55.001Z</time></trkpt><trkpt lat="45.703156417337915" lon="10.0497691073971"><ele>205.0</ele><time>2026-04-12T14:52:56.001Z</time></trkpt><trkpt lat="45.70303352499988" lon="10.049940622041182"><ele>205.0</ele><time>2026-04-12T14:52:57.001Z</time></trkpt><trkpt lat="45.70291862750342" lon="10.050127633184058"><ele>205.0</ele><time>2026-04-12T14:52:58.001Z</time></trkpt><trkpt lat="45.702792265781106" lon="10.050296221681464"><ele>204.33333333333331</ele><time>2026-04-12T14:52:59.001Z</time></trkpt><trkpt lat="45.70266480861462" lon="10.050451634747338"><ele>203.66666666666669</ele><time>2026-04-12T14:53:00.001Z</time></trkpt><trkpt lat="45.70253923337976" lon="10.050613140545144"><ele>203.0</ele><time>2026-04-12T14:53:01.001Z</time></trkpt><trkpt lat="45.70240996169879" lon="10.050766786164944"><ele>197.33333333333334</ele><time>2026-04-12T14:53:02.001Z</time></trkpt><trkpt lat="45.70227799488583" lon="10.050898882567218"><ele>191.66666666666669</ele><time>2026-04-12T14:53:03.001Z</time></trkpt><trkpt lat="45.70213667092465" lon="10.051027551097569"><ele>186.0</ele><time>2026-04-12T14:53:04.001Z</time></trkpt><trkpt lat="45.70200125173735" lon="10.05114654211442"><ele>190.25</ele><time>2026-04-12T14:53:05.001Z</time></trkpt><trkpt lat="45.70186750040515" lon="10.051273722533617"><ele>194.5</ele><time>2026-04-12T14:53:06.001Z</time></trkpt><trkpt lat="45.70176909924104" lon="10.051383931872445"><ele>198.75</ele><time>2026-04-12T14:53:07.001Z</time></trkpt><trkpt lat="45.70168442978814" lon="10.051484264989691"><ele>203.0</ele><time>2026-04-12T14:53:08.001Z</time></trkpt><trkpt lat="45.70162055183938" lon="10.0515484955016"><ele>199.60000000000002</ele><time>2026-04-12T14:53:09.001Z</time></trkpt><trkpt lat="45.701539741481696" lon="10.05162549571145"><ele>196.20000000000002</ele><time>2026-04-12T14:53:11.001Z</time></trkpt><trkpt lat="45.70144611730128" lon="10.0516805466939"><ele>192.8</ele><time>2026-04-12T14:53:20.001Z</time></trkpt><trkpt lat="45.7013761494387" lon="10.05170715012367"><ele>189.4</ele><time>2026-04-12T14:53:21.001Z</time></trkpt><trkpt lat="45.70129648605448" lon="10.05173089060407"><ele>186.0</ele><time>2026-04-12T14:53:22.001Z</time></trkpt><trkpt lat="45.70119407918648" lon="10.051750030060477"><ele>187.5</ele><time>2026-04-12T14:53:23.001Z</time></trkpt><trkpt lat="45.70107572231018" lon="10.051751438112547"><ele>189.0</ele><time>2026-04-12T14:53:24.001Z</time></trkpt><trkpt lat="45.700955863295974" lon="10.05177871383078"><ele>190.5</ele><time>2026-04-12T14:53:25.001Z</time></trkpt><trkpt lat="45.70082041713709" lon="10.051803629233643"><ele>192.0</ele><time>2026-04-12T14:53:26.001Z</time></trkpt><trkpt lat="45.700676242940595" lon="10.05182495919833"><ele>192.0</ele><time>2026-04-12T14:53:27.001Z</time></trkpt><trkpt lat="45.700526749679526" lon="10.051856183395833"><ele>192.0</ele><time>2026-04-12T14:53:28.001Z</time></trkpt><trkpt lat="45.70037053670331" lon="10.051899432480454"><ele>192.0</ele><time>2026-04-12T14:53:29.001Z</time></trkpt><trkpt lat="45.70021396433307" lon="10.051960002910851"><ele>194.66666666666669</ele><time>2026-04-12T14:53:30.001Z</time></trkpt><trkpt lat="45.70004854671585" lon="10.05200707978261"><ele>197.33333333333334</ele><time>2026-04-12T14:53:31.001Z</time></trkpt><trkpt lat="45.69988525796352" lon="10.05209379042583"><ele>200.0</ele><time>2026-04-12T14:53:32.001Z</time></trkpt><trkpt lat="45.69972466175983" lon="10.052187171991674"><ele>200.0</ele><time>2026-04-12T14:53:33.001Z</time></trkpt><trkpt lat="45.69956183467247" lon="10.052279369973546"><ele>200.0</ele><time>2026-04-12T14:53:34.001Z</time></trkpt><trkpt lat="45.699397297968765" lon="10.052362295406267"><ele>200.0</ele><time>2026-04-12T14:53:35.001Z</time></trkpt><trkpt lat="45.69923901275003" lon="10.052431104263329"><ele>196.0</ele><time>2026-04-12T14:53:36.001Z</time></trkpt><trkpt lat="45.6990671997509" lon="10.052485186724576"><ele>192.0</ele><time>2026-04-12T14:53:37.001Z</time></trkpt><trkpt lat="45.69889538741936" lon="10.052512157544617"><ele>188.0</ele><time>2026-04-12T14:53:38.001Z</time></trkpt><trkpt lat="45.69872767797692" lon="10.052501346992848"><ele>190.0</ele><time>2026-04-12T14:53:39.001Z</time></trkpt><trkpt lat="45.69853966772742" lon="10.052524888716068"><ele>192.0</ele><time>2026-04-12T14:53:40.001Z</time></trkpt><trkpt lat="45.69835837423069" lon="10.052584868508031"><ele>194.0</ele><time>2026-04-12T14:53:41.001Z</time></trkpt><trkpt lat="45.69817036362747" lon="10.052687650449473"><ele>194.0</ele><time>2026-04-12T14:53:42.001Z</time></trkpt><trkpt lat="45.69799912020979" lon="10.052809241314888"><ele>194.0</ele><time>2026-04-12T14:53:43.001Z</time></trkpt><trkpt lat="45.69783205306381" lon="10.052927866593818"><ele>194.0</ele><time>2026-04-12T14:53:44.001Z</time></trkpt><trkpt lat="45.697661114588136" lon="10.053043623898645"><ele>192.0</ele><time>2026-04-12T14:53:45.001Z</time></trkpt><trkpt lat="45.69750903317182" lon="10.053213935981738"><ele>190.0</ele><time>2026-04-12T14:53:46.001Z</time></trkpt><trkpt lat="45.6973439944376" lon="10.053329992247562"><ele>188.0</ele><time>2026-04-12T14:53:47.001Z</time></trkpt><trkpt lat="45.697180303764966" lon="10.053438686317548"><ele>188.0</ele><time>2026-04-12T14:53:48.001Z</time></trkpt><trkpt lat="45.69702182012205" lon="10.053549604941775"><ele>188.0</ele><time>2026-04-12T14:53:49.001Z</time></trkpt><trkpt lat="45.69687111956816" lon="10.053658624984173"><ele>188.0</ele><time>2026-04-12T14:53:50.001Z</time></trkpt><trkpt lat="45.69673463334075" lon="10.05376716047529"><ele>187.75</ele><time>2026-04-12T14:53:51.001Z</time></trkpt><trkpt lat="45.696605050634915" lon="10.053884375700553"><ele>187.5</ele><time>2026-04-12T14:53:52.001Z</time></trkpt><trkpt lat="45.69648343710778" lon="10.054004469546337"><ele>187.25</ele><time>2026-04-12T14:53:53.001Z</time></trkpt><trkpt lat="45.69635673615443" lon="10.054102000337426"><ele>187.0</ele><time>2026-04-12T14:53:54.001Z</time></trkpt><trkpt lat="45.69624962298889" lon="10.054211320829962"><ele>187.0</ele><time>2026-04-12T14:53:55.001Z</time></trkpt><trkpt lat="45.696141342310305" lon="10.054318635033098"><ele>187.0</ele><time>2026-04-12T14:53:56.001Z</time></trkpt><trkpt lat="45.6960363988292" lon="10.054422163637037"><ele>187.0</ele><time>2026-04-12T14:53:57.001Z</time></trkpt><trkpt lat="45.695938184323545" lon="10.05452812584323"><ele>187.0</ele><time>2026-04-12T14:53:58.001Z</time></trkpt><trkpt lat="45.695834866733506" lon="10.054615318686368"><ele>189.0</ele><time>2026-04-12T14:53:59.001Z</time></trkpt><trkpt lat="45.695719874809875" lon="10.054684819807724"><ele>191.0</ele><time>2026-04-12T14:54:00.001Z</time></trkpt><trkpt lat="45.69560198253916" lon="10.054731542427241"><ele>193.0</ele><time>2026-04-12T14:54:01.001Z</time></trkpt><trkpt lat="45.69547347420251" lon="10.054704358190765"><ele>195.0</ele><time>2026-04-12T14:54:02.001Z</time></trkpt><trkpt lat="45.69534461559608" lon="10.054650759528531"><ele>195.0</ele><time>2026-04-12T14:54:03.001Z</time></trkpt><trkpt lat="45.695196515228105" lon="10.054578376418839"><ele>195.0</ele><time>2026-04-12T14:54:04.001Z</time></trkpt><trkpt lat="45.69502639026329" lon="10.05452774530355"><ele>195.0</ele><time>2026-04-12T14:54:05.001Z</time></trkpt><trkpt lat="45.694833887516054" lon="10.054472381082347"><ele>195.0</ele><time>2026-04-12T14:54:06.001Z</time></trkpt><trkpt lat="45.69463789944038" lon="10.054458975627625"><ele>195.0</ele><time>2026-04-12T14:54:07.001Z</time></trkpt><trkpt lat="45.6944521152822" lon="10.05442155109357"><ele>195.0</ele><time>2026-04-12T14:54:08.001Z</time></trkpt><trkpt lat="45.694261754425426" lon="10.05443789593746"><ele>198.0</ele><time>2026-04-12T14:54:09.001Z</time></trkpt><trkpt lat="45.69407798838843" lon="10.054501782880784"><ele>201.0</ele><time>2026-04-12T14:54:10.001Z</time></trkpt><trkpt lat="45.69390404200926" lon="10.054617666415622"><ele>204.0</ele><time>2026-04-12T14:54:11.001Z</time></trkpt><trkpt lat="45.693733263500214" lon="10.05472232544486"><ele>199.66666666666666</ele><time>2026-04-12T14:54:12.001Z</time></trkpt><trkpt lat="45.69355851510979" lon="10.054819782103086"><ele>195.33333333333331</ele><time>2026-04-12T14:54:13.001Z</time></trkpt><trkpt lat="45.69338243452264" lon="10.05493488637046"><ele>191.0</ele><time>2026-04-12T14:54:14.001Z</time></trkpt><trkpt lat="45.69320870618415" lon="10.055046364385548"><ele>191.0</ele><time>2026-04-12T14:54:15.001Z</time></trkpt><trkpt lat="45.69304462146957" lon="10.055153419234335"><ele>191.0</ele><time>2026-04-12T14:54:16.001Z</time></trkpt><trkpt lat="45.69287153850165" lon="10.055228338871963"><ele>191.0</ele><time>2026-04-12T14:54:17.001Z</time></trkpt><trkpt lat="45.69269907707426" lon="10.055263141118104"><ele>195.33333333333331</ele><time>2026-04-12T14:54:18.001Z</time></trkpt><trkpt lat="45.69251322095681" lon="10.055260658719284"><ele>199.66666666666666</ele><time>2026-04-12T14:54:19.001Z</time></trkpt><trkpt lat="45.69235359376434" lon="10.055193571176757"><ele>204.0</ele><time>2026-04-12T14:54:20.001Z</time></trkpt><trkpt lat="45.69219225159338" lon="10.055055434601398"><ele>204.0</ele><time>2026-04-12T14:54:21.001Z</time></trkpt><trkpt lat="45.69201346008971" lon="10.054981784155144"><ele>204.0</ele><time>2026-04-12T14:54:22.001Z</time></trkpt><trkpt lat="45.69184986363747" lon="10.054911927385435"><ele>204.0</ele><time>2026-04-12T14:54:23.001Z</time></trkpt><trkpt lat="45.6916917105555" lon="10.05489705742411"><ele>204.66666666666669</ele><time>2026-04-12T14:54:24.001Z</time></trkpt><trkpt lat="45.69152965277121" lon="10.054910729876507"><ele>205.33333333333334</ele><time>2026-04-12T14:54:25.001Z</time></trkpt><trkpt lat="45.69133753167709" lon="10.054975271092209"><ele>206.0</ele><time>2026-04-12T14:54:26.001Z</time></trkpt><trkpt lat="45.691167524535906" lon="10.05508815407565"><ele>211.33333333333334</ele><time>2026-04-12T14:54:27.001Z</time></trkpt><trkpt lat="45.69100951120915" lon="10.05521097651091"><ele>216.66666666666669</ele><time>2026-04-12T14:54:28.001Z</time></trkpt><trkpt lat="45.69085565479634" lon="10.055367836507818"><ele>222.0</ele><time>2026-04-12T14:54:29.001Z</time></trkpt><trkpt lat="45.69070517169312" lon="10.055489682466366"><ele>222.0</ele><time>2026-04-12T14:54:30.001Z</time></trkpt><trkpt lat="45.6905379760253" lon="10.055566543872374"><ele>222.0</ele><time>2026-04-12T14:54:31.001Z</time></trkpt><trkpt lat="45.690359349741875" lon="10.055608143577306"><ele>222.0</ele><time>2026-04-12T14:54:32.001Z</time></trkpt><trkpt lat="45.69017730958551" lon="10.0556609682529"><ele>218.0</ele><time>2026-04-12T14:54:33.001Z</time></trkpt><trkpt lat="45.68999075839145" lon="10.055719995862498"><ele>214.0</ele><time>2026-04-12T14:54:34.001Z</time></trkpt><trkpt lat="45.689811290789905" lon="10.055773465593733"><ele>210.0</ele><time>2026-04-12T14:54:35Z</time></trkpt><trkpt lat="45.689628071988004" lon="10.055799306422236"><ele>210.0</ele><time>2026-04-12T14:54:36Z</time></trkpt><trkpt lat="45.68944511873246" lon="10.055815214211707"><ele>210.0</ele><time>2026-04-12T14:54:37.018Z</time></trkpt><trkpt lat="45.6892773155611" lon="10.055813630660865"><ele>210.0</ele><time>2026-04-12T14:54:38.018Z</time></trkpt><trkpt lat="45.68911688610991" lon="10.055807845404471"><ele>213.33333333333331</ele><time>2026-04-12T14:54:39.017Z</time></trkpt><trkpt lat="45.68896343516378" lon="10.05578957274861"><ele>216.66666666666666</ele><time>2026-04-12T14:54:40.019Z</time></trkpt><trkpt lat="45.688814373648654" lon="10.05573198379072"><ele>220.0</ele><time>2026-04-12T14:54:41.018Z</time></trkpt><trkpt lat="45.68814266825586" lon="10.05531010968795"><ele>224.33333333333331</ele><time>2026-04-12T14:54:45.821Z</time></trkpt><trkpt lat="45.688004677894384" lon="10.055205362970188"><ele>228.66666666666669</ele><time>2026-04-12T14:54:46.82Z</time></trkpt><trkpt lat="45.68787714489918" lon="10.055076835429114"><ele>233.0</ele><time>2026-04-12T14:54:47.821Z</time></trkpt><trkpt lat="45.6877598718058" lon="10.054928378913624"><ele>233.0</ele><time>2026-04-12T14:54:48.821Z</time></trkpt><trkpt lat="45.68763200690436" lon="10.05480116756319"><ele>233.0</ele><time>2026-04-12T14:54:49.82Z</time></trkpt><trkpt lat="45.68749464691416" lon="10.054693240170108"><ele>233.0</ele><time>2026-04-12T14:54:50.82Z</time></trkpt><trkpt lat="45.68737626453776" lon="10.054546288968478"><ele>233.0</ele><time>2026-04-12T14:54:51.821Z</time></trkpt><trkpt lat="45.68725051105595" lon="10.054415798852586"><ele>233.0</ele><time>2026-04-12T14:54:52.82Z</time></trkpt><trkpt lat="45.68711783838628" lon="10.054298165486015"><ele>233.0</ele><time>2026-04-12T14:54:53.82Z</time></trkpt><trkpt lat="45.68701213963944" lon="10.054134472595207"><ele>216.0</ele><time>2026-04-12T14:54:54.821Z</time></trkpt><trkpt lat="45.686908768239704" lon="10.053971776543003"><ele>199.0</ele><time>2026-04-12T14:54:55.82Z</time></trkpt><trkpt lat="45.68680865261243" lon="10.053800616050387"><ele>182.0</ele><time>2026-04-12T14:54:56.82Z</time></trkpt><trkpt lat="45.68671225403559" lon="10.053628354324744"><ele>182.0</ele><time>2026-04-12T14:54:57.823Z</time></trkpt><trkpt lat="45.68663268473222" lon="10.053441196058898"><ele>182.0</ele><time>2026-04-12T14:54:58.821Z</time></trkpt><trkpt lat="45.68659317021387" lon="10.053225603960394"><ele>182.0</ele><time>2026-04-12T14:54:59.82Z</time></trkpt><trkpt lat="45.68652612020431" lon="10.05302309663745"><ele>182.0</ele><time>2026-04-12T14:55:00.821Z</time></trkpt><trkpt lat="45.68649056058264" lon="10.052805187027674"><ele>182.0</ele><time>2026-04-12T14:55:01.821Z</time></trkpt><trkpt lat="45.68644330430066" lon="10.052594488922761"><ele>182.0</ele><time>2026-04-12T14:55:02.82Z</time></trkpt><trkpt lat="45.6863804399953" lon="10.05238900917972"><ele>182.0</ele><time>2026-04-12T14:55:03.821Z</time></trkpt><trkpt lat="45.686346123378314" lon="10.052170472870309"><ele>182.0</ele><time>2026-04-12T14:55:04.82Z</time></trkpt><trkpt lat="45.686275158952185" lon="10.051970588076196"><ele>182.0</ele><time>2026-04-12T14:55:05.82Z</time></trkpt><trkpt lat="45.68621563999384" lon="10.051764826981744"><ele>182.0</ele><time>2026-04-12T14:55:06.821Z</time></trkpt><trkpt lat="45.68615572122584" lon="10.051559436643585"><ele>182.0</ele><time>2026-04-12T14:55:07.821Z</time></trkpt><trkpt lat="45.686107376941465" lon="10.051346748117924"><ele>182.0</ele><time>2026-04-12T14:55:08.82Z</time></trkpt><trkpt lat="45.68604125070767" lon="10.051144725448449"><ele>182.0</ele><time>2026-04-12T14:55:09.821Z</time></trkpt><trkpt lat="45.68596768331776" lon="10.05094674205165"><ele>182.0</ele><time>2026-04-12T14:55:10.82Z</time></trkpt><trkpt lat="45.68588617879896" lon="10.050755453929545"><ele>182.0</ele><time>2026-04-12T14:55:11.82Z</time></trkpt><trkpt lat="45.685793805739536" lon="10.05057463240906"><ele>182.0</ele><time>2026-04-12T14:55:12.82Z</time></trkpt><trkpt lat="45.68568066599641" lon="10.05041732554704"><ele>182.0</ele><time>2026-04-12T14:55:13.821Z</time></trkpt><trkpt lat="45.68559275729999" lon="10.050232327107151"><ele>182.0</ele><time>2026-04-12T14:55:14.82Z</time></trkpt><trkpt lat="45.685481542331175" lon="10.050075265049673"><ele>182.0</ele><time>2026-04-12T14:55:15.82Z</time></trkpt><trkpt lat="45.68540099765564" lon="10.049883355479375"><ele>182.0</ele><time>2026-04-12T14:55:16.821Z</time></trkpt><trkpt lat="45.68530815372831" lon="10.049705096690799"><ele>182.0</ele><time>2026-04-12T14:55:17.82Z</time></trkpt><trkpt lat="45.685216139463044" lon="10.049525077666006"><ele>182.0</ele><time>2026-04-12T14:55:18.822Z</time></trkpt><trkpt lat="45.68512422582169" lon="10.04934525540521"><ele>182.0</ele><time>2026-04-12T14:55:19.822Z</time></trkpt><trkpt lat="45.685032486962385" lon="10.049165775242104"><ele>182.0</ele><time>2026-04-12T14:55:20.821Z</time></trkpt><trkpt lat="45.6843548175373" lon="10.047459332281768"><ele>182.0</ele><time>2026-04-12T14:55:25Z</time></trkpt><trkpt lat="45.68426466457019" lon="10.047238641353891"><ele>182.0</ele><time>2026-04-12T14:55:26Z</time></trkpt><trkpt lat="45.684134553380105" lon="10.047054130251949"><ele>182.0</ele><time>2026-04-12T14:55:27Z</time></trkpt><trkpt lat="45.684093173086374" lon="10.04682993737109"><ele>182.0</ele><time>2026-04-12T14:55:28Z</time></trkpt><trkpt lat="45.68408461434513" lon="10.04656361630326"><ele>182.0</ele><time>2026-04-12T14:55:29Z</time></trkpt><trkpt lat="45.684026803961935" lon="10.046335759394227"><ele>182.0</ele><time>2026-04-12T14:55:30Z</time></trkpt><trkpt lat="45.683969977817334" lon="10.046100913772111"><ele>182.0</ele><time>2026-04-12T14:55:31Z</time></trkpt><trkpt lat="45.683922558908996" lon="10.045875667652233"><ele>182.0</ele><time>2026-04-12T14:55:32Z</time></trkpt><trkpt lat="45.683893745832556" lon="10.04562077576722"><ele>182.0</ele><time>2026-04-12T14:55:33Z</time></trkpt><trkpt lat="45.683865673838774" lon="10.045363984364945"><ele>182.0</ele><time>2026-04-12T14:55:34Z</time></trkpt><trkpt lat="45.683863126885385" lon="10.045117266609767"><ele>182.0</ele><time>2026-04-12T14:55:35Z</time></trkpt><trkpt lat="45.68385023582823" lon="10.044855125465173"><ele>182.0</ele><time>2026-04-12T14:55:36.001Z</time></trkpt><trkpt lat="45.68378185329861" lon="10.044607682377814"><ele>182.0</ele><time>2026-04-12T14:55:37.001Z</time></trkpt><trkpt lat="45.68370069884086" lon="10.044391364108476"><ele>182.0</ele><time>2026-04-12T14:55:38.001Z</time></trkpt><trkpt lat="45.683616468534204" lon="10.044171884145218"><ele>182.0</ele><time>2026-04-12T14:55:39.001Z</time></trkpt><trkpt lat="45.683552571981835" lon="10.043948129618197"><ele>182.0</ele><time>2026-04-12T14:55:40.001Z</time></trkpt><trkpt lat="45.68352330869675" lon="10.043715848741952"><ele>182.0</ele><time>2026-04-12T14:55:41.001Z</time></trkpt><trkpt lat="45.68353102953306" lon="10.043468435663154"><ele>182.0</ele><time>2026-04-12T14:55:42.001Z</time></trkpt><trkpt lat="45.683544245296666" lon="10.04323094642443"><ele>182.0</ele><time>2026-04-12T14:55:43.001Z</time></trkpt><trkpt lat="45.683526924570735" lon="10.0429931222239"><ele>182.0</ele><time>2026-04-12T14:55:44.001Z</time></trkpt><trkpt lat="45.68348092443908" lon="10.042747734195595"><ele>182.0</ele><time>2026-04-12T14:55:45.001Z</time></trkpt><trkpt lat="45.683437043278246" lon="10.042498308124985"><ele>182.0</ele><time>2026-04-12T14:55:46.001Z</time></trkpt><trkpt lat="45.68340919319478" lon="10.04225622600988"><ele>182.0</ele><time>2026-04-12T14:55:47.001Z</time></trkpt><trkpt lat="45.683386450349246" lon="10.042008616582365"><ele>182.0</ele><time>2026-04-12T14:55:48.001Z</time></trkpt><trkpt lat="45.68335559075349" lon="10.041766393515072"><ele>189.0</ele><time>2026-04-12T14:55:49.001Z</time></trkpt><trkpt lat="45.683316133045594" lon="10.041523533357486"><ele>196.0</ele><time>2026-04-12T14:55:50.001Z</time></trkpt><trkpt lat="45.68323917841319" lon="10.041296744707314"><ele>203.0</ele><time>2026-04-12T14:55:51.001Z</time></trkpt><trkpt lat="45.68319974689864" lon="10.041051434423697"><ele>203.0</ele><time>2026-04-12T14:55:52.001Z</time></trkpt><trkpt lat="45.68315434823069" lon="10.040817613459117"><ele>203.0</ele><time>2026-04-12T14:55:53.001Z</time></trkpt><trkpt lat="45.68315985569318" lon="10.040566036171871"><ele>203.0</ele><time>2026-04-12T14:55:54.001Z</time></trkpt><trkpt lat="45.683142457468" lon="10.040302678872944"><ele>202.66666666666669</ele><time>2026-04-12T14:55:55.001Z</time></trkpt><trkpt lat="45.683094085728904" lon="10.040047609434382"><ele>202.33333333333331</ele><time>2026-04-12T14:55:56.001Z</time></trkpt><trkpt lat="45.683046035936975" lon="10.039793488119209"><ele>202.0</ele><time>2026-04-12T14:55:57.001Z</time></trkpt><trkpt lat="45.6829950297993" lon="10.039551666536452"><ele>202.0</ele><time>2026-04-12T14:55:58.001Z</time></trkpt><trkpt lat="45.682946264224746" lon="10.03930870896134"><ele>202.0</ele><time>2026-04-12T14:55:59.001Z</time></trkpt><trkpt lat="45.68291149383143" lon="10.039075336066222"><ele>202.0</ele><time>2026-04-12T14:56:00.001Z</time></trkpt><trkpt lat="45.68290004348507" lon="10.038844553119626"><ele>202.0</ele><time>2026-04-12T14:56:01.001Z</time></trkpt><trkpt lat="45.6829112835824" lon="10.038606916190266"><ele>202.0</ele><time>2026-04-12T14:56:02.001Z</time></trkpt><trkpt lat="45.68293946156276" lon="10.038376685823238"><ele>202.0</ele><time>2026-04-12T14:56:03.001Z</time></trkpt><trkpt lat="45.6829701464365" lon="10.038115289413057"><ele>202.0</ele><time>2026-04-12T14:56:04.001Z</time></trkpt><trkpt lat="45.68298332934173" lon="10.037849932387285"><ele>202.0</ele><time>2026-04-12T14:56:05.001Z</time></trkpt><trkpt lat="45.682977253398825" lon="10.03758544944832"><ele>202.0</ele><time>2026-04-12T14:56:06.001Z</time></trkpt><trkpt lat="45.68296659534314" lon="10.03731532491489"><ele>201.0</ele><time>2026-04-12T14:56:07.001Z</time></trkpt><trkpt lat="45.68295501199398" lon="10.037040389348538"><ele>200.0</ele><time>2026-04-12T14:56:08.001Z</time></trkpt><trkpt lat="45.68294710900494" lon="10.036765741465222"><ele>199.0</ele><time>2026-04-12T14:56:09.001Z</time></trkpt><trkpt lat="45.6829443254796" lon="10.03648316004668"><ele>199.0</ele><time>2026-04-12T14:56:10.001Z</time></trkpt><trkpt lat="45.68293035433777" lon="10.036199182414153"><ele>199.0</ele><time>2026-04-12T14:56:11.001Z</time></trkpt><trkpt lat="45.68290122897007" lon="10.035939534200434"><ele>199.0</ele><time>2026-04-12T14:56:12.001Z</time></trkpt><trkpt lat="45.68282914024099" lon="10.035695598334334"><ele>196.0</ele><time>2026-04-12T14:56:13.001Z</time></trkpt><trkpt lat="45.68276907306535" lon="10.035487486139974"><ele>193.0</ele><time>2026-04-12T14:56:14.001Z</time></trkpt><trkpt lat="45.68269409028358" lon="10.03529094217122"><ele>190.0</ele><time>2026-04-12T14:56:15.001Z</time></trkpt><trkpt lat="45.68265270968542" lon="10.035086271717828"><ele>188.33333333333334</ele><time>2026-04-12T14:56:16.001Z</time></trkpt><trkpt lat="45.68265104551997" lon="10.034863405968366"><ele>186.66666666666666</ele><time>2026-04-12T14:56:17.001Z</time></trkpt><trkpt lat="45.68266590404571" lon="10.03463670317554"><ele>185.0</ele><time>2026-04-12T14:56:18.001Z</time></trkpt><trkpt lat="45.6826998312881" lon="10.034401974790836"><ele>185.0</ele><time>2026-04-12T14:56:19.001Z</time></trkpt><trkpt lat="45.682740425838254" lon="10.034154038922743"><ele>185.0</ele><time>2026-04-12T14:56:20.001Z</time></trkpt><trkpt lat="45.68274632902859" lon="10.033887750458714"><ele>185.0</ele><time>2026-04-12T14:56:21.001Z</time></trkpt><trkpt lat="45.682722193667324" lon="10.033615207833666"><ele>187.0</ele><time>2026-04-12T14:56:22.001Z</time></trkpt><trkpt lat="45.682657720539204" lon="10.033359124358217"><ele>189.0</ele><time>2026-04-12T14:56:23.001Z</time></trkpt><trkpt lat="45.68258485586461" lon="10.033110651771642"><ele>191.0</ele><time>2026-04-12T14:56:24.001Z</time></trkpt><trkpt lat="45.68251732356413" lon="10.032883173667466"><ele>191.33333333333331</ele><time>2026-04-12T14:56:25.001Z</time></trkpt><trkpt lat="45.68247077937318" lon="10.032645617583452"><ele>191.66666666666666</ele><time>2026-04-12T14:56:26.001Z</time></trkpt><trkpt lat="45.68244932941638" lon="10.032401707556557"><ele>192.0</ele><time>2026-04-12T14:56:27.001Z</time></trkpt><trkpt lat="45.68244953403794" lon="10.032146255202672"><ele>193.0</ele><time>2026-04-12T14:56:28.001Z</time></trkpt><trkpt lat="45.68246753923362" lon="10.031885850398421"><ele>194.0</ele><time>2026-04-12T14:56:29.001Z</time></trkpt><trkpt lat="45.68248382506807" lon="10.03160799477005"><ele>195.0</ele><time>2026-04-12T14:56:30.001Z</time></trkpt><trkpt lat="45.68248670862738" lon="10.031311989967834"><ele>195.0</ele><time>2026-04-12T14:56:31.001Z</time></trkpt><trkpt lat="45.682467550485065" lon="10.03100489489423"><ele>195.0</ele><time>2026-04-12T14:56:32.001Z</time></trkpt><trkpt lat="45.68242974875245" lon="10.030694478147925"><ele>195.0</ele><time>2026-04-12T14:56:33.001Z</time></trkpt><trkpt lat="45.68238320993364" lon="10.030376979780172"><ele>197.0</ele><time>2026-04-12T14:56:34.001Z</time></trkpt><trkpt lat="45.68232448855274" lon="10.030033097644878"><ele>199.0</ele><time>2026-04-12T14:56:35.001Z</time></trkpt><trkpt lat="45.68226860560383" lon="10.02971103390943"><ele>200.0</ele><time>2026-04-12T14:56:36.001Z</time></trkpt><trkpt lat="45.68221593054888" lon="10.029413140114913"><ele>201.0</ele><time>2026-04-12T14:56:37.001Z</time></trkpt><trkpt lat="45.682190856064274" lon="10.029114496914413"><ele>202.0</ele><time>2026-04-12T14:56:38.001Z</time></trkpt><trkpt lat="45.682131688871884" lon="10.028841270812846"><ele>202.0</ele><time>2026-04-12T14:56:39.001Z</time></trkpt><trkpt lat="45.68207480756657" lon="10.028578600556395"><ele>202.0</ele><time>2026-04-12T14:56:40.001Z</time></trkpt><trkpt lat="45.68202332342965" lon="10.028335135535569"><ele>202.0</ele><time>2026-04-12T14:56:41Z</time></trkpt><trkpt lat="45.68198056931442" lon="10.028107932241703"><ele>202.0</ele><time>2026-04-12T14:56:42Z</time></trkpt><trkpt lat="45.68195205900474" lon="10.027897875612144"><ele>202.0</ele><time>2026-04-12T14:56:43Z</time></trkpt><trkpt lat="45.681940110480376" lon="10.02770498307818"><ele>202.0</ele><time>2026-04-12T14:56:44Z</time></trkpt><trkpt lat="45.681938819699276" lon="10.027508305619119"><ele>202.0</ele><time>2026-04-12T14:56:45Z</time></trkpt><trkpt lat="45.68193956632932" lon="10.027299005399966"><ele>201.75</ele><time>2026-04-12T14:56:46Z</time></trkpt><trkpt lat="45.68196604076298" lon="10.027088930019731"><ele>201.5</ele><time>2026-04-12T14:56:47Z</time></trkpt><trkpt lat="45.681995550800124" lon="10.02687597697231"><ele>201.25</ele><time>2026-04-12T14:56:48Z</time></trkpt><trkpt lat="45.682021221818125" lon="10.026678331964717"><ele>201.0</ele><time>2026-04-12T14:56:49Z</time></trkpt><trkpt lat="45.68203741032206" lon="10.026475133992975"><ele>200.5</ele><time>2026-04-12T14:56:50Z</time></trkpt><trkpt lat="45.68203568955661" lon="10.02627096949141"><ele>200.0</ele><time>2026-04-12T14:56:51Z</time></trkpt><trkpt lat="45.68202697847684" lon="10.02606896892046"><ele>199.5</ele><time>2026-04-12T14:56:52Z</time></trkpt><trkpt lat="45.68201440451462" lon="10.025875208934954"><ele>199.0</ele><time>2026-04-12T14:56:53Z</time></trkpt><trkpt lat="45.68200514958512" lon="10.025682758101306"><ele>199.0</ele><time>2026-04-12T14:56:54Z</time></trkpt><trkpt lat="45.681999412933905" lon="10.025486794522893"><ele>199.0</ele><time>2026-04-12T14:56:55Z</time></trkpt><trkpt lat="45.68199755311955" lon="10.025295037066845"><ele>199.0</ele><time>2026-04-12T14:56:56Z</time></trkpt><trkpt lat="45.68198171801355" lon="10.025106744762452"><ele>199.0</ele><time>2026-04-12T14:56:57Z</time></trkpt><trkpt lat="45.68195742290025" lon="10.024921348568535"><ele>196.75</ele><time>2026-04-12T14:56:58Z</time></trkpt><trkpt lat="45.681915280731005" lon="10.024746909729265"><ele>194.5</ele><time>2026-04-12T14:56:59Z</time></trkpt><trkpt lat="45.68186754189427" lon="10.02458170176308"><ele>192.25</ele><time>2026-04-12T14:57:00Z</time></trkpt><trkpt lat="45.68181490596865" lon="10.024411004946996"><ele>190.0</ele><time>2026-04-12T14:57:01Z</time></trkpt><trkpt lat="45.68176126766754" lon="10.024236312265735"><ele>190.75</ele><time>2026-04-12T14:57:02Z</time></trkpt><trkpt lat="45.68170470955468" lon="10.024062466061297"><ele>191.5</ele><time>2026-04-12T14:57:03Z</time></trkpt><trkpt lat="45.68164441918276" lon="10.023885420201232"><ele>192.25</ele><time>2026-04-12T14:57:04Z</time></trkpt><trkpt lat="45.68158592347841" lon="10.023718682174637"><ele>193.0</ele><time>2026-04-12T14:57:05Z</time></trkpt><trkpt lat="45.681554341783965" lon="10.02352609485496"><ele>193.0</ele><time>2026-04-12T14:57:06Z</time></trkpt><trkpt lat="45.6814990694603" lon="10.023343437891565"><ele>193.0</ele><time>2026-04-12T14:57:07Z</time></trkpt><trkpt lat="45.68144367446071" lon="10.023161542520453"><ele>193.0</ele><time>2026-04-12T14:57:08Z</time></trkpt><trkpt lat="45.68138964818124" lon="10.022977010201345"><ele>193.0</ele><time>2026-04-12T14:57:09Z</time></trkpt><trkpt lat="45.681337952117815" lon="10.02279516322838"><ele>194.0</ele><time>2026-04-12T14:57:10Z</time></trkpt><trkpt lat="45.68127612506894" lon="10.022608976755562"><ele>195.0</ele><time>2026-04-12T14:57:11Z</time></trkpt><trkpt lat="45.68121996778693" lon="10.022428217083275"><ele>196.0</ele><time>2026-04-12T14:57:12Z</time></trkpt><trkpt lat="45.681169549253596" lon="10.022253891991772"><ele>197.0</ele><time>2026-04-12T14:57:13Z</time></trkpt><trkpt lat="45.68112093046363" lon="10.022075631991715"><ele>196.25</ele><time>2026-04-12T14:57:14Z</time></trkpt><trkpt lat="45.68107580082647" lon="10.0219027637301"><ele>195.5</ele><time>2026-04-12T14:57:15Z</time></trkpt><trkpt lat="45.68101816973816" lon="10.021717297406287"><ele>194.75</ele><time>2026-04-12T14:57:16Z</time></trkpt><trkpt lat="45.680965963768955" lon="10.02154127760384"><ele>194.0</ele><time>2026-04-12T14:57:17Z</time></trkpt><trkpt lat="45.68091541050752" lon="10.021373185264544"><ele>194.0</ele><time>2026-04-12T14:57:18Z</time></trkpt><trkpt lat="45.680863418909745" lon="10.02120123186121"><ele>194.0</ele><time>2026-04-12T14:57:19Z</time></trkpt><trkpt lat="45.68081682507334" lon="10.021032858874408"><ele>194.0</ele><time>2026-04-12T14:57:20Z</time></trkpt><trkpt lat="45.680773817434904" lon="10.020863397695756"><ele>194.0</ele><time>2026-04-12T14:57:21Z</time></trkpt><trkpt lat="45.68073301166684" lon="10.020696075969347"><ele>194.2</ele><time>2026-04-12T14:57:22Z</time></trkpt><trkpt lat="45.68069869977335" lon="10.0205465492526"><ele>194.39999999999998</ele><time>2026-04-12T14:57:23Z</time></trkpt><trkpt lat="45.68067332373957" lon="10.020396402346671"><ele>194.6</ele><time>2026-04-12T14:57:24Z</time></trkpt><trkpt lat="45.68064788199531" lon="10.020257765117458"><ele>194.8</ele><time>2026-04-12T14:57:25Z</time></trkpt><trkpt lat="45.680627820570734" lon="10.020120808419687"><ele>195.0</ele><time>2026-04-12T14:57:26Z</time></trkpt><trkpt lat="45.68060747469353" lon="10.019981950723823"><ele>195.0</ele><time>2026-04-12T14:57:27Z</time></trkpt><trkpt lat="45.68058494841373" lon="10.019837954328628"><ele>195.0</ele><time>2026-04-12T14:57:28Z</time></trkpt><trkpt lat="45.68056227552583" lon="10.019691383826197"><ele>195.0</ele><time>2026-04-12T14:57:29Z</time></trkpt><trkpt lat="45.68054156924736" lon="10.019543551425475"><ele>195.0</ele><time>2026-04-12T14:57:30Z</time></trkpt><trkpt lat="45.68052165034596" lon="10.019386979589221"><ele>195.0</ele><time>2026-04-12T14:57:31Z</time></trkpt><trkpt lat="45.68051149292677" lon="10.019222998728123"><ele>195.25</ele><time>2026-04-12T14:57:32Z</time></trkpt><trkpt lat="45.6804972200511" lon="10.01905805066943"><ele>195.5</ele><time>2026-04-12T14:57:33Z</time></trkpt><trkpt lat="45.680483375338845" lon="10.018895165182075"><ele>195.75</ele><time>2026-04-12T14:57:34Z</time></trkpt><trkpt lat="45.68048179418298" lon="10.018723716481695"><ele>196.0</ele><time>2026-04-12T14:57:35Z</time></trkpt><trkpt lat="45.68048673810259" lon="10.018539065674238"><ele>196.0</ele><time>2026-04-12T14:57:36Z</time></trkpt><trkpt lat="45.68049322264305" lon="10.018345053260258"><ele>196.0</ele><time>2026-04-12T14:57:37Z</time></trkpt><trkpt lat="45.68049890007637" lon="10.018138684959741"><ele>196.0</ele><time>2026-04-12T14:57:38Z</time></trkpt><trkpt lat="45.68051942585746" lon="10.017919769910558"><ele>196.0</ele><time>2026-04-12T14:57:39Z</time></trkpt><trkpt lat="45.680536995535086" lon="10.017704369656588"><ele>196.0</ele><time>2026-04-12T14:57:40Z</time></trkpt><trkpt lat="45.680554361020185" lon="10.017485858358395"><ele>196.0</ele><time>2026-04-12T14:57:41Z</time></trkpt><trkpt lat="45.680567857763116" lon="10.017272102757827"><ele>196.0</ele><time>2026-04-12T14:57:42Z</time></trkpt><trkpt lat="45.68058427811716" lon="10.0170535527102"><ele>195.25</ele><time>2026-04-12T14:57:43Z</time></trkpt><trkpt lat="45.68059508302351" lon="10.016839218879493"><ele>194.5</ele><time>2026-04-12T14:57:44Z</time></trkpt><trkpt lat="45.68060204345614" lon="10.016626649771267"><ele>193.75</ele><time>2026-04-12T14:57:45Z</time></trkpt><trkpt lat="45.680605405874346" lon="10.016418123850098"><ele>193.0</ele><time>2026-04-12T14:57:46Z</time></trkpt><trkpt lat="45.68060725474034" lon="10.01620789192794"><ele>192.75</ele><time>2026-04-12T14:57:47Z</time></trkpt><trkpt lat="45.68061138188872" lon="10.015997239999047"><ele>192.5</ele><time>2026-04-12T14:57:48Z</time></trkpt><trkpt lat="45.68061373183107" lon="10.015791378062659"><ele>192.25</ele><time>2026-04-12T14:57:49Z</time></trkpt><trkpt lat="45.680615623521554" lon="10.015594186321694"><ele>192.0</ele><time>2026-04-12T14:57:50Z</time></trkpt><trkpt lat="45.68061520238213" lon="10.015392101606087"><ele>191.75</ele><time>2026-04-12T14:57:51Z</time></trkpt><trkpt lat="45.68062072685744" lon="10.015198164126241"><ele>191.5</ele><time>2026-04-12T14:57:52Z</time></trkpt><trkpt lat="45.680625249742036" lon="10.014996261988516"><ele>191.25</ele><time>2026-04-12T14:57:53Z</time></trkpt><trkpt lat="45.6806304214771" lon="10.014798838401784"><ele>191.0</ele><time>2026-04-12T14:57:54Z</time></trkpt><trkpt lat="45.68063502140963" lon="10.014610635440343"><ele>191.5</ele><time>2026-04-12T14:57:55Z</time></trkpt><trkpt lat="45.68064246108183" lon="10.01442983805287"><ele>192.0</ele><time>2026-04-12T14:57:56Z</time></trkpt><trkpt lat="45.68064630655959" lon="10.014259827067312"><ele>192.5</ele><time>2026-04-12T14:57:57Z</time></trkpt><trkpt lat="45.68064715868616" lon="10.014090935660782"><ele>193.0</ele><time>2026-04-12T14:57:58Z</time></trkpt><trkpt lat="45.68064563060368" lon="10.013938544098956"><ele>193.25</ele><time>2026-04-12T14:57:59Z</time></trkpt><trkpt lat="45.680646690057465" lon="10.013777569011879"><ele>193.5</ele><time>2026-04-12T14:58:00Z</time></trkpt><trkpt lat="45.68064108146287" lon="10.013609576716375"><ele>193.75</ele><time>2026-04-12T14:58:01Z</time></trkpt><trkpt lat="45.68063856087305" lon="10.013432513927384"><ele>194.0</ele><time>2026-04-12T14:58:02Z</time></trkpt><trkpt lat="45.68063076459745" lon="10.013257244488731"><ele>194.0</ele><time>2026-04-12T14:58:03Z</time></trkpt><trkpt lat="45.68062200664861" lon="10.013074549793066"><ele>194.0</ele><time>2026-04-12T14:58:04.001Z</time></trkpt><trkpt lat="45.68060864374824" lon="10.012890172449605"><ele>194.0</ele><time>2026-04-12T14:58:05.001Z</time></trkpt><trkpt lat="45.68059233859722" lon="10.012709140840863"><ele>194.0</ele><time>2026-04-12T14:58:06.001Z</time></trkpt><trkpt lat="45.680577966463396" lon="10.012522041404413"><ele>195.0</ele><time>2026-04-12T14:58:07.001Z</time></trkpt><trkpt lat="45.68054897131387" lon="10.012331833773828"><ele>196.0</ele><time>2026-04-12T14:58:08.001Z</time></trkpt><trkpt lat="45.68050649351744" lon="10.012144709283497"><ele>197.0</ele><time>2026-04-12T14:58:09.001Z</time></trkpt><trkpt lat="45.68044867101299" lon="10.011962484521277"><ele>198.0</ele><time>2026-04-12T14:58:10.001Z</time></trkpt><trkpt lat="45.680379564987135" lon="10.011787013011041"><ele>199.5</ele><time>2026-04-12T14:58:11.001Z</time></trkpt><trkpt lat="45.68031549029576" lon="10.011610523361393"><ele>201.0</ele><time>2026-04-12T14:58:12.001Z</time></trkpt><trkpt lat="45.680268689775374" lon="10.011417624507477"><ele>202.5</ele><time>2026-04-12T14:58:13.001Z</time></trkpt><trkpt lat="45.680229996300646" lon="10.011220002810656"><ele>204.0</ele><time>2026-04-12T14:58:14.001Z</time></trkpt><trkpt lat="45.68019461689182" lon="10.011019267635712"><ele>200.5</ele><time>2026-04-12T14:58:15.001Z</time></trkpt><trkpt lat="45.68015963286112" lon="10.010816102783492"><ele>197.0</ele><time>2026-04-12T14:58:16.001Z</time></trkpt><trkpt lat="45.680135920577825" lon="10.010607275618089"><ele>193.5</ele><time>2026-04-12T14:58:17.001Z</time></trkpt><trkpt lat="45.68012364337364" lon="10.01040521573156"><ele>190.0</ele><time>2026-04-12T14:58:18.001Z</time></trkpt><trkpt lat="45.680116556903975" lon="10.010201218712666"><ele>190.0</ele><time>2026-04-12T14:58:19.001Z</time></trkpt><trkpt lat="45.68010638699645" lon="10.009995446227565"><ele>190.0</ele><time>2026-04-12T14:58:20.001Z</time></trkpt><trkpt lat="45.68009310593974" lon="10.009789423369302"><ele>190.0</ele><time>2026-04-12T14:58:21.001Z</time></trkpt><trkpt lat="45.680080697151176" lon="10.00958493734765"><ele>190.0</ele><time>2026-04-12T14:58:22.001Z</time></trkpt><trkpt lat="45.68006622626147" lon="10.009386322663534"><ele>189.25</ele><time>2026-04-12T14:58:23.001Z</time></trkpt><trkpt lat="45.68005404408307" lon="10.009186302181575"><ele>188.5</ele><time>2026-04-12T14:58:24.001Z</time></trkpt><trkpt lat="45.68004216765552" lon="10.008987062928531"><ele>187.75</ele><time>2026-04-12T14:58:25.001Z</time></trkpt><trkpt lat="45.68002677939274" lon="10.008790671597955"><ele>187.0</ele><time>2026-04-12T14:58:26.001Z</time></trkpt><trkpt lat="45.68000856992462" lon="10.008591638046488"><ele>186.75</ele><time>2026-04-12T14:58:27.001Z</time></trkpt><trkpt lat="45.67999059446982" lon="10.008385690576581"><ele>186.5</ele><time>2026-04-12T14:58:28.001Z</time></trkpt><trkpt lat="45.67996470204924" lon="10.008184526893526"><ele>186.25</ele><time>2026-04-12T14:58:29.001Z</time></trkpt><trkpt lat="45.67993706197811" lon="10.007978807846177"><ele>186.0</ele><time>2026-04-12T14:58:30.001Z</time></trkpt><trkpt lat="45.67989704344673" lon="10.0077722131108"><ele>187.25</ele><time>2026-04-12T14:58:31.001Z</time></trkpt><trkpt lat="45.67985266984691" lon="10.00756813103142"><ele>188.5</ele><time>2026-04-12T14:58:32.001Z</time></trkpt><trkpt lat="45.679806307727944" lon="10.007361561078163"><ele>189.75</ele><time>2026-04-12T14:58:33.001Z</time></trkpt><trkpt lat="45.67975840175068" lon="10.007162099234627"><ele>191.0</ele><time>2026-04-12T14:58:34.001Z</time></trkpt><trkpt lat="45.67970727216942" lon="10.006969354750746"><ele>191.5</ele><time>2026-04-12T14:58:35.001Z</time></trkpt><trkpt lat="45.679668466609876" lon="10.006774180723845"><ele>192.0</ele><time>2026-04-12T14:58:36.001Z</time></trkpt><trkpt lat="45.67962815467208" lon="10.00658481491092"><ele>192.5</ele><time>2026-04-12T14:58:37.001Z</time></trkpt><trkpt lat="45.67958978489068" lon="10.006395023498241"><ele>193.0</ele><time>2026-04-12T14:58:38.001Z</time></trkpt><trkpt lat="45.6795513228722" lon="10.006206295859533"><ele>193.0</ele><time>2026-04-12T14:58:39.001Z</time></trkpt><trkpt lat="45.6795126062075" lon="10.006013828741146"><ele>193.0</ele><time>2026-04-12T14:58:40.001Z</time></trkpt><trkpt lat="45.6794765627198" lon="10.005818640748355"><ele>193.0</ele><time>2026-04-12T14:58:41.001Z</time></trkpt><trkpt lat="45.67943695243645" lon="10.005621493188976"><ele>193.0</ele><time>2026-04-12T14:58:42.001Z</time></trkpt><trkpt lat="45.6794029491782" lon="10.005427063221116"><ele>191.25</ele><time>2026-04-12T14:58:43.001Z</time></trkpt><trkpt lat="45.67936037238966" lon="10.005232832761086"><ele>189.5</ele><time>2026-04-12T14:58:44.001Z</time></trkpt><trkpt lat="45.679323664897126" lon="10.005035540322194"><ele>187.75</ele><time>2026-04-12T14:58:45.001Z</time></trkpt><trkpt lat="45.679290549451316" lon="10.004840657654913"><ele>186.0</ele><time>2026-04-12T14:58:46.001Z</time></trkpt><trkpt lat="45.67926282777216" lon="10.004667100277867"><ele>186.0</ele><time>2026-04-12T14:58:47Z</time></trkpt><trkpt lat="45.67923720982265" lon="10.004506600198438"><ele>186.0</ele><time>2026-04-12T14:58:48Z</time></trkpt><trkpt lat="45.67921506021809" lon="10.004348713187651"><ele>186.0</ele><time>2026-04-12T14:58:49Z</time></trkpt><trkpt lat="45.679196630117204" lon="10.004200445939338"><ele>186.0</ele><time>2026-04-12T14:58:50Z</time></trkpt><trkpt lat="45.679179607966134" lon="10.004047750522652"><ele>186.0</ele><time>2026-04-12T14:58:51Z</time></trkpt><trkpt lat="45.67917024325545" lon="10.003886192905291"><ele>186.0</ele><time>2026-04-12T14:58:52Z</time></trkpt><trkpt lat="45.679162186842106" lon="10.003720078120775"><ele>186.0</ele><time>2026-04-12T14:58:53Z</time></trkpt><trkpt lat="45.6791546397919" lon="10.00354779623735"><ele>186.0</ele><time>2026-04-12T14:58:54Z</time></trkpt><trkpt lat="45.679150396778795" lon="10.003372281283085"><ele>186.0</ele><time>2026-04-12T14:58:55Z</time></trkpt><trkpt lat="45.67914695361833" lon="10.003184376008072"><ele>186.25</ele><time>2026-04-12T14:58:56Z</time></trkpt><trkpt lat="45.67914528539231" lon="10.002987754733411"><ele>186.5</ele><time>2026-04-12T14:58:57Z</time></trkpt><trkpt lat="45.67913591328067" lon="10.002796822310966"><ele>186.75</ele><time>2026-04-12T14:58:58Z</time></trkpt><trkpt lat="45.679139580945694" lon="10.00259298961862"><ele>187.0</ele><time>2026-04-12T14:58:59Z</time></trkpt><trkpt lat="45.67914277524004" lon="10.0023857186157"><ele>187.75</ele><time>2026-04-12T14:59:00Z</time></trkpt><trkpt lat="45.67914307347787" lon="10.002171412236043"><ele>188.5</ele><time>2026-04-12T14:59:01Z</time></trkpt><trkpt lat="45.67914463742463" lon="10.00195448575904"><ele>189.25</ele><time>2026-04-12T14:59:02Z</time></trkpt><trkpt lat="45.67914443554632" lon="10.001745969161938"><ele>190.0</ele><time>2026-04-12T14:59:03Z</time></trkpt><trkpt lat="45.67914314452462" lon="10.001535101662842"><ele>190.25</ele><time>2026-04-12T14:59:04Z</time></trkpt><trkpt lat="45.67913646092834" lon="10.001334015421712"><ele>190.5</ele><time>2026-04-12T14:59:05Z</time></trkpt><trkpt lat="45.67912487224261" lon="10.001136300100828"><ele>190.75</ele><time>2026-04-12T14:59:06Z</time></trkpt><trkpt lat="45.67910551090832" lon="10.000966137901303"><ele>191.0</ele><time>2026-04-12T14:59:07Z</time></trkpt><trkpt lat="45.67908170399303" lon="10.000797476860422"><ele>192.0</ele><time>2026-04-12T14:59:08Z</time></trkpt><trkpt lat="45.679051857635805" lon="10.000638917603228"><ele>193.0</ele><time>2026-04-12T14:59:09Z</time></trkpt><trkpt lat="45.67902143780473" lon="10.000474779105225"><ele>194.0</ele><time>2026-04-12T14:59:10Z</time></trkpt><trkpt lat="45.67898873035671" lon="10.000319377655734"><ele>195.0</ele><time>2026-04-12T14:59:11Z</time></trkpt><trkpt lat="45.67894665582231" lon="10.000161384645834"><ele>195.0</ele><time>2026-04-12T14:59:12Z</time></trkpt><trkpt lat="45.678907532745825" lon="10.000002166571624"><ele>195.0</ele><time>2026-04-12T14:59:13Z</time></trkpt><trkpt lat="45.678868031381576" lon="9.999840322037002"><ele>195.0</ele><time>2026-04-12T14:59:14Z</time></trkpt><trkpt lat="45.678826979635375" lon="9.999675832298871"><ele>195.0</ele><time>2026-04-12T14:59:15Z</time></trkpt><trkpt lat="45.678776419462515" lon="9.99950416750731"><ele>195.0</ele><time>2026-04-12T14:59:16Z</time></trkpt><trkpt lat="45.67872267131023" lon="9.999327344581703"><ele>195.0</ele><time>2026-04-12T14:59:17Z</time></trkpt><trkpt lat="45.6786700855698" lon="9.999138918438721"><ele>195.0</ele><time>2026-04-12T14:59:18Z</time></trkpt><trkpt lat="45.678619106936054" lon="9.99894494642984"><ele>195.0</ele><time>2026-04-12T14:59:19Z</time></trkpt><trkpt lat="45.67856925100973" lon="9.99874897368339"><ele>193.33333333333334</ele><time>2026-04-12T14:59:20Z</time></trkpt><trkpt lat="45.678517442431705" lon="9.998551637780542"><ele>191.66666666666669</ele><time>2026-04-12T14:59:21Z</time></trkpt><trkpt lat="45.67846127246148" lon="9.998347084544852"><ele>190.0</ele><time>2026-04-12T14:59:22Z</time></trkpt><trkpt lat="45.67840840409707" lon="9.998143909191317"><ele>190.0</ele><time>2026-04-12T14:59:23Z</time></trkpt><trkpt lat="45.67835694231267" lon="9.997946968801873"><ele>190.0</ele><time>2026-04-12T14:59:24Z</time></trkpt><trkpt lat="45.67830994030414" lon="9.997759233063507"><ele>190.0</ele><time>2026-04-12T14:59:25Z</time></trkpt><trkpt lat="45.67826303605413" lon="9.997579003689848"><ele>190.0</ele><time>2026-04-12T14:59:26Z</time></trkpt><trkpt lat="45.67821620939115" lon="9.997407893224583"><ele>190.25</ele><time>2026-04-12T14:59:27Z</time></trkpt><trkpt lat="45.678168769071625" lon="9.997241134930244"><ele>190.5</ele><time>2026-04-12T14:59:28Z</time></trkpt><trkpt lat="45.67812419158073" lon="9.99707453919006"><ele>190.75</ele><time>2026-04-12T14:59:29Z</time></trkpt><trkpt lat="45.678085043476855" lon="9.99690057615222"><ele>191.0</ele><time>2026-04-12T14:59:30Z</time></trkpt><trkpt lat="45.67804559194962" lon="9.99672535094479"><ele>192.75</ele><time>2026-04-12T14:59:31Z</time></trkpt><trkpt lat="45.678009616832114" lon="9.996549501621077"><ele>194.5</ele><time>2026-04-12T14:59:32Z</time></trkpt><trkpt lat="45.677972358171154" lon="9.996371579445173"><ele>196.25</ele><time>2026-04-12T14:59:33Z</time></trkpt><trkpt lat="45.6779339945686" lon="9.996188911125577"><ele>198.0</ele><time>2026-04-12T14:59:34Z</time></trkpt><trkpt lat="45.67788844472717" lon="9.996011029216596"><ele>198.0</ele><time>2026-04-12T14:59:35Z</time></trkpt><trkpt lat="45.67783850767546" lon="9.99583735348935"><ele>198.0</ele><time>2026-04-12T14:59:36Z</time></trkpt><trkpt lat="45.67779407514981" lon="9.995643099465243"><ele>198.0</ele><time>2026-04-12T14:59:37Z</time></trkpt><trkpt lat="45.677767861433814" lon="9.995448819035792"><ele>198.0</ele><time>2026-04-12T14:59:38Z</time></trkpt><trkpt lat="45.67772946906448" lon="9.995253702280937"><ele>194.0</ele><time>2026-04-12T14:59:39Z</time></trkpt><trkpt lat="45.677679792381035" lon="9.995050475387648"><ele>190.0</ele><time>2026-04-12T14:59:40Z</time></trkpt><trkpt lat="45.67762585683083" lon="9.994828389247212"><ele>186.0</ele><time>2026-04-12T14:59:41Z</time></trkpt><trkpt lat="45.67757564715768" lon="9.994603286296433"><ele>186.0</ele><time>2026-04-12T14:59:42Z</time></trkpt><trkpt lat="45.67751890500129" lon="9.994370479786056"><ele>186.0</ele><time>2026-04-12T14:59:43Z</time></trkpt><trkpt lat="45.677469838687664" lon="9.994127320346232"><ele>186.0</ele><time>2026-04-12T14:59:44Z</time></trkpt><trkpt lat="45.67742433355919" lon="9.993880573366953"><ele>188.0</ele><time>2026-04-12T14:59:45Z</time></trkpt><trkpt lat="45.67737442705385" lon="9.993644810249455"><ele>190.0</ele><time>2026-04-12T14:59:46Z</time></trkpt><trkpt lat="45.67732722287042" lon="9.99341439616257"><ele>192.0</ele><time>2026-04-12T14:59:47Z</time></trkpt><trkpt lat="45.67726579216932" lon="9.993171857616229"><ele>194.0</ele><time>2026-04-12T14:59:48Z</time></trkpt><trkpt lat="45.6772246152279" lon="9.992940755238374"><ele>196.0</ele><time>2026-04-12T14:59:49Z</time></trkpt><trkpt lat="45.67716483089205" lon="9.992729664380931"><ele>198.0</ele><time>2026-04-12T14:59:50Z</time></trkpt><trkpt lat="45.67711374465912" lon="9.9925019957642"><ele>198.75</ele><time>2026-04-12T14:59:51Z</time></trkpt><trkpt lat="45.67706017572276" lon="9.9922986153244"><ele>199.5</ele><time>2026-04-12T14:59:52Z</time></trkpt><trkpt lat="45.67698817354835" lon="9.992129488234387"><ele>200.25</ele><time>2026-04-12T14:59:53Z</time></trkpt><trkpt lat="45.676940662162416" lon="9.991945643603318"><ele>201.0</ele><time>2026-04-12T14:59:54Z</time></trkpt><trkpt lat="45.6768843578349" lon="9.991771276211367"><ele>197.75</ele><time>2026-04-12T14:59:55Z</time></trkpt><trkpt lat="45.676823983366845" lon="9.991593246726163"><ele>194.5</ele><time>2026-04-12T14:59:56Z</time></trkpt><trkpt lat="45.676781325082814" lon="9.991409749287548"><ele>191.25</ele><time>2026-04-12T14:59:57Z</time></trkpt><trkpt lat="45.67674234974563" lon="9.991225746519286"><ele>188.0</ele><time>2026-04-12T14:59:58Z</time></trkpt><trkpt lat="45.676732396566194" lon="9.991036348888349"><ele>188.0</ele><time>2026-04-12T14:59:59Z</time></trkpt><trkpt lat="45.67675475895442" lon="9.990840368799638"><ele>188.0</ele><time>2026-04-12T15:00:00Z</time></trkpt><trkpt lat="45.676798226241345" lon="9.990647597915633"><ele>188.0</ele><time>2026-04-12T15:00:01Z</time></trkpt><trkpt lat="45.67685706235349" lon="9.990458181892482"><ele>188.0</ele><time>2026-04-12T15:00:02Z</time></trkpt><trkpt lat="45.67690321184162" lon="9.990244741489283"><ele>193.33333333333331</ele><time>2026-04-12T15:00:03.001Z</time></trkpt><trkpt lat="45.67695352325753" lon="9.990034287065894"><ele>198.66666666666666</ele><time>2026-04-12T15:00:04.001Z</time></trkpt><trkpt lat="45.67700512628625" lon="9.989831735880289"><ele>204.0</ele><time>2026-04-12T15:00:05.001Z</time></trkpt><trkpt lat="45.677054358644924" lon="9.989631496910755"><ele>204.0</ele><time>2026-04-12T15:00:06.001Z</time></trkpt><trkpt lat="45.67709652238346" lon="9.989428963902478"><ele>204.0</ele><time>2026-04-12T15:00:07.001Z</time></trkpt><trkpt lat="45.67714466219363" lon="9.989236727819112"><ele>204.0</ele><time>2026-04-12T15:00:08.001Z</time></trkpt><trkpt lat="45.677204208850135" lon="9.989049509358257"><ele>204.0</ele><time>2026-04-12T15:00:09.001Z</time></trkpt><trkpt lat="45.67724825397833" lon="9.988868295749715"><ele>204.0</ele><time>2026-04-12T15:00:10.001Z</time></trkpt><trkpt lat="45.67727208515944" lon="9.988679302986885"><ele>204.0</ele><time>2026-04-12T15:00:11.001Z</time></trkpt><trkpt lat="45.6772897720486" lon="9.988492534161812"><ele>204.0</ele><time>2026-04-12T15:00:12.001Z</time></trkpt><trkpt lat="45.6773019539128" lon="9.988312476526557"><ele>204.0</ele><time>2026-04-12T15:00:13.001Z</time></trkpt><trkpt lat="45.6773103651186" lon="9.988139152957128"><ele>204.25</ele><time>2026-04-12T15:00:14.001Z</time></trkpt><trkpt lat="45.67729759046502" lon="9.987962417591799"><ele>204.5</ele><time>2026-04-12T15:00:15.001Z</time></trkpt><trkpt lat="45.677277009106916" lon="9.987787784701357"><ele>204.75</ele><time>2026-04-12T15:00:16.001Z</time></trkpt><trkpt lat="45.67725768785735" lon="9.987619710178855"><ele>205.0</ele><time>2026-04-12T15:00:17.001Z</time></trkpt><trkpt lat="45.67722484054538" lon="9.987450291410344"><ele>206.0</ele><time>2026-04-12T15:00:18.001Z</time></trkpt><trkpt lat="45.67719354906784" lon="9.987288377318906"><ele>207.0</ele><time>2026-04-12T15:00:19.001Z</time></trkpt><trkpt lat="45.67715607281835" lon="9.987129781745352"><ele>208.0</ele><time>2026-04-12T15:00:20.001Z</time></trkpt><trkpt lat="45.677116836165666" lon="9.986971969790977"><ele>209.0</ele><time>2026-04-12T15:00:21.001Z</time></trkpt><trkpt lat="45.677071853634885" lon="9.98681073082942"><ele>209.0</ele><time>2026-04-12T15:00:22.001Z</time></trkpt><trkpt lat="45.67703072329839" lon="9.986647337965366"><ele>209.0</ele><time>2026-04-12T15:00:23.001Z</time></trkpt><trkpt lat="45.67698948419366" lon="9.986487436028247"><ele>209.0</ele><time>2026-04-12T15:00:24.001Z</time></trkpt><trkpt lat="45.6769457693828" lon="9.986325360562313"><ele>209.0</ele><time>2026-04-12T15:00:25.001Z</time></trkpt><trkpt lat="45.676905625397374" lon="9.986164897369958"><ele>205.5</ele><time>2026-04-12T15:00:26.001Z</time></trkpt><trkpt lat="45.67686271749571" lon="9.985986947604756"><ele>202.0</ele><time>2026-04-12T15:00:27.001Z</time></trkpt><trkpt lat="45.676818818695466" lon="9.985810621261779"><ele>198.5</ele><time>2026-04-12T15:00:28.001Z</time></trkpt><trkpt lat="45.67677271492824" lon="9.985630455281127"><ele>195.0</ele><time>2026-04-12T15:00:29.001Z</time></trkpt><trkpt lat="45.67672301669287" lon="9.985452256088736"><ele>195.0</ele><time>2026-04-12T15:00:30.001Z</time></trkpt><trkpt lat="45.67667436464485" lon="9.98527253301025"><ele>195.0</ele><time>2026-04-12T15:00:31.001Z</time></trkpt><trkpt lat="45.67662978598559" lon="9.985093458292681"><ele>195.0</ele><time>2026-04-12T15:00:32.001Z</time></trkpt><trkpt lat="45.67658310842843" lon="9.98491662710768"><ele>195.0</ele><time>2026-04-12T15:00:33.001Z</time></trkpt><trkpt lat="45.67654388649605" lon="9.9847480772708"><ele>194.5</ele><time>2026-04-12T15:00:34.001Z</time></trkpt><trkpt lat="45.67650334873743" lon="9.984579935482715"><ele>194.0</ele><time>2026-04-12T15:00:35.001Z</time></trkpt><trkpt lat="45.67646258310293" lon="9.984401064784425"><ele>193.5</ele><time>2026-04-12T15:00:36.001Z</time></trkpt><trkpt lat="45.67642131712667" lon="9.984222203759977"><ele>193.0</ele><time>2026-04-12T15:00:37.001Z</time></trkpt><trkpt lat="45.67636991804076" lon="9.984031251178873"><ele>192.66666666666666</ele><time>2026-04-12T15:00:38.001Z</time></trkpt><trkpt lat="45.67631388900968" lon="9.983834120633553"><ele>192.33333333333331</ele><time>2026-04-12T15:00:39.001Z</time></trkpt><trkpt lat="45.676252563592" lon="9.983622851151745"><ele>192.0</ele><time>2026-04-12T15:00:40.001Z</time></trkpt><trkpt lat="45.676205635320954" lon="9.983402150528377"><ele>194.0</ele><time>2026-04-12T15:00:41.001Z</time></trkpt><trkpt lat="45.676168549040916" lon="9.983169604070588"><ele>196.0</ele><time>2026-04-12T15:00:42.001Z</time></trkpt><trkpt lat="45.67614546392945" lon="9.982931246323307"><ele>198.0</ele><time>2026-04-12T15:00:43.001Z</time></trkpt><trkpt lat="45.67613908277872" lon="9.982683056088398"><ele>197.66666666666669</ele><time>2026-04-12T15:00:44.001Z</time></trkpt><trkpt lat="45.676147810575706" lon="9.982435577720866"><ele>197.33333333333334</ele><time>2026-04-12T15:00:45.001Z</time></trkpt><trkpt lat="45.676161555254176" lon="9.982182851277468"><ele>197.0</ele><time>2026-04-12T15:00:46.001Z</time></trkpt><trkpt lat="45.67618087359261" lon="9.98192293329865"><ele>195.33333333333334</ele><time>2026-04-12T15:00:47.001Z</time></trkpt><trkpt lat="45.67619934888284" lon="9.98166817105282"><ele>193.66666666666669</ele><time>2026-04-12T15:00:48.001Z</time></trkpt><trkpt lat="45.676212405762236" lon="9.981407841164236"><ele>192.0</ele><time>2026-04-12T15:00:49.001Z</time></trkpt><trkpt lat="45.676216918607444" lon="9.981162070504318"><ele>192.0</ele><time>2026-04-12T15:00:50.001Z</time></trkpt><trkpt lat="45.67621398848141" lon="9.980916015030715"><ele>192.0</ele><time>2026-04-12T15:00:51.001Z</time></trkpt><trkpt lat="45.676200995835785" lon="9.980676368262918"><ele>192.0</ele><time>2026-04-12T15:00:52.001Z</time></trkpt><trkpt lat="45.676170149697114" lon="9.980452216749972"><ele>191.75</ele><time>2026-04-12T15:00:53Z</time></trkpt><trkpt lat="45.676122949206345" lon="9.980252344540961"><ele>191.5</ele><time>2026-04-12T15:00:54Z</time></trkpt><trkpt lat="45.67606805920793" lon="9.980051702143665"><ele>191.25</ele><time>2026-04-12T15:00:55Z</time></trkpt><trkpt lat="45.67600183733095" lon="9.979861678569472"><ele>191.0</ele><time>2026-04-12T15:00:56Z</time></trkpt><trkpt lat="45.67593547346481" lon="9.979665103112525"><ele>190.33333333333331</ele><time>2026-04-12T15:00:57Z</time></trkpt><trkpt lat="45.6758721868213" lon="9.97946311255892"><ele>189.66666666666666</ele><time>2026-04-12T15:00:58Z</time></trkpt><trkpt lat="45.675813403259" lon="9.979256370233813"><ele>189.0</ele><time>2026-04-12T15:00:59Z</time></trkpt><trkpt lat="45.675752347909764" lon="9.979044107756636"><ele>189.0</ele><time>2026-04-12T15:01:00Z</time></trkpt><trkpt lat="45.675682839570506" lon="9.97883149678215"><ele>189.0</ele><time>2026-04-12T15:01:01Z</time></trkpt><trkpt lat="45.67562010480529" lon="9.97861676342668"><ele>189.0</ele><time>2026-04-12T15:01:02Z</time></trkpt><trkpt lat="45.675557031524654" lon="9.97839703147672"><ele>190.33333333333331</ele><time>2026-04-12T15:01:03Z</time></trkpt><trkpt lat="45.67548670433079" lon="9.978179217771293"><ele>191.66666666666666</ele><time>2026-04-12T15:01:04Z</time></trkpt><trkpt lat="45.67541225545464" lon="9.977966693187998"><ele>193.0</ele><time>2026-04-12T15:01:05Z</time></trkpt><trkpt lat="45.67533083942169" lon="9.977759267559481"><ele>191.0</ele><time>2026-04-12T15:01:06Z</time></trkpt><trkpt lat="45.67523659648477" lon="9.977559057599812"><ele>189.0</ele><time>2026-04-12T15:01:07Z</time></trkpt><trkpt lat="45.67513271827053" lon="9.977383328136257"><ele>187.0</ele><time>2026-04-12T15:01:08Z</time></trkpt><trkpt lat="45.67503080135261" lon="9.977214796205532"><ele>187.0</ele><time>2026-04-12T15:01:09Z</time></trkpt><trkpt lat="45.6749166506788" lon="9.977053233360959"><ele>187.0</ele><time>2026-04-12T15:01:10Z</time></trkpt><trkpt lat="45.67479773082213" lon="9.97689280018659"><ele>187.0</ele><time>2026-04-12T15:01:11Z</time></trkpt><trkpt lat="45.674682593562075" lon="9.976729555841025"><ele>186.66666666666669</ele><time>2026-04-12T15:01:12Z</time></trkpt><trkpt lat="45.67456618737282" lon="9.976564375039592"><ele>186.33333333333334</ele><time>2026-04-12T15:01:13Z</time></trkpt><trkpt lat="45.6744521113776" lon="9.976398954574574"><ele>186.0</ele><time>2026-04-12T15:01:14Z</time></trkpt><trkpt lat="45.67433776135396" lon="9.976233546850358"><ele>186.0</ele><time>2026-04-12T15:01:15Z</time></trkpt><trkpt lat="45.67422376551273" lon="9.976075171632258"><ele>186.0</ele><time>2026-04-12T15:01:16Z</time></trkpt><trkpt lat="45.674112970100055" lon="9.975915146237293"><ele>186.0</ele><time>2026-04-12T15:01:17Z</time></trkpt><trkpt lat="45.6740056578825" lon="9.975748169514178"><ele>187.66666666666666</ele><time>2026-04-12T15:01:18Z</time></trkpt><trkpt lat="45.6739024048478" lon="9.975568712275795"><ele>189.33333333333331</ele><time>2026-04-12T15:01:19Z</time></trkpt><trkpt lat="45.67381123175859" lon="9.975378338786186"><ele>191.0</ele><time>2026-04-12T15:01:20Z</time></trkpt><trkpt lat="45.673728595341856" lon="9.975178030596432"><ele>190.0</ele><time>2026-04-12T15:01:21Z</time></trkpt><trkpt lat="45.67364915008989" lon="9.974964962007885"><ele>189.0</ele><time>2026-04-12T15:01:22Z</time></trkpt><trkpt lat="45.67357034036758" lon="9.974746707028409"><ele>188.0</ele><time>2026-04-12T15:01:23Z</time></trkpt><trkpt lat="45.673485678036684" lon="9.974526454987776"><ele>188.0</ele><time>2026-04-12T15:01:24Z</time></trkpt><trkpt lat="45.67340481327555" lon="9.974318962263586"><ele>188.0</ele><time>2026-04-12T15:01:25Z</time></trkpt><trkpt lat="45.67333471161652" lon="9.974108351920776"><ele>188.0</ele><time>2026-04-12T15:01:26Z</time></trkpt><trkpt lat="45.67328108992888" lon="9.973900468815216"><ele>188.75</ele><time>2026-04-12T15:01:27Z</time></trkpt><trkpt lat="45.67322493457271" lon="9.973706581392744"><ele>189.5</ele><time>2026-04-12T15:01:28Z</time></trkpt><trkpt lat="45.6731734086916" lon="9.973513710751341"><ele>190.25</ele><time>2026-04-12T15:01:29Z</time></trkpt><trkpt lat="45.67312432587544" lon="9.973316889591922"><ele>191.0</ele><time>2026-04-12T15:01:30Z</time></trkpt><trkpt lat="45.67310382849019" lon="9.973102529163889"><ele>191.33333333333331</ele><time>2026-04-12T15:01:31Z</time></trkpt><trkpt lat="45.67309686570838" lon="9.972879613524512"><ele>191.66666666666666</ele><time>2026-04-12T15:01:32Z</time></trkpt><trkpt lat="45.67308181681394" lon="9.972664407918383"><ele>192.0</ele><time>2026-04-12T15:01:33Z</time></trkpt><trkpt lat="45.67305708424606" lon="9.97243644470439"><ele>193.33333333333331</ele><time>2026-04-12T15:01:34Z</time></trkpt><trkpt lat="45.67301748866789" lon="9.972209804760096"><ele>194.66666666666666</ele><time>2026-04-12T15:01:35Z</time></trkpt><trkpt lat="45.67297064914605" lon="9.971977097937788"><ele>196.0</ele><time>2026-04-12T15:01:36Z</time></trkpt><trkpt lat="45.672905860662205" lon="9.971736075989194"><ele>196.66666666666666</ele><time>2026-04-12T15:01:37Z</time></trkpt><trkpt lat="45.672840175925394" lon="9.971489531737243"><ele>197.33333333333331</ele><time>2026-04-12T15:01:38Z</time></trkpt><trkpt lat="45.67277361056348" lon="9.971227194279612"><ele>198.0</ele><time>2026-04-12T15:01:39Z</time></trkpt><trkpt lat="45.67269421451999" lon="9.970968358180068"><ele>195.33333333333334</ele><time>2026-04-12T15:01:40Z</time></trkpt><trkpt lat="45.67261252609259" lon="9.970719687543257"><ele>192.66666666666669</ele><time>2026-04-12T15:01:41Z</time></trkpt><trkpt lat="45.6725321275181" lon="9.970479873517414"><ele>190.0</ele><time>2026-04-12T15:01:42Z</time></trkpt><trkpt lat="45.67245310081572" lon="9.970244832535776"><ele>190.0</ele><time>2026-04-12T15:01:43Z</time></trkpt><trkpt lat="45.6723628340742" lon="9.970029144243107"><ele>190.0</ele><time>2026-04-12T15:01:44Z</time></trkpt><trkpt lat="45.67228485403691" lon="9.969813450691316"><ele>190.0</ele><time>2026-04-12T15:01:45Z</time></trkpt><trkpt lat="45.67220733671892" lon="9.96960837519731"><ele>193.0</ele><time>2026-04-12T15:01:46Z</time></trkpt><trkpt lat="45.672137647155274" lon="9.969411570257785"><ele>196.0</ele><time>2026-04-12T15:01:47Z</time></trkpt><trkpt lat="45.672061871830216" lon="9.969219623273952"><ele>199.0</ele><time>2026-04-12T15:01:48Z</time></trkpt><trkpt lat="45.67199761457085" lon="9.96902057785266"><ele>198.0</ele><time>2026-04-12T15:01:49Z</time></trkpt><trkpt lat="45.671933507953455" lon="9.968823136230126"><ele>197.0</ele><time>2026-04-12T15:01:50Z</time></trkpt><trkpt lat="45.671885018406" lon="9.968619578635458"><ele>196.0</ele><time>2026-04-12T15:01:51Z</time></trkpt><trkpt lat="45.67184129393567" lon="9.968411067339526"><ele>197.0</ele><time>2026-04-12T15:01:52Z</time></trkpt><trkpt lat="45.67180208793728" lon="9.968195514664728"><ele>198.0</ele><time>2026-04-12T15:01:53Z</time></trkpt><trkpt lat="45.67176471937281" lon="9.967976604452838"><ele>199.0</ele><time>2026-04-12T15:01:54Z</time></trkpt><trkpt lat="45.67172459346506" lon="9.96775111061878"><ele>200.0</ele><time>2026-04-12T15:01:55Z</time></trkpt><trkpt lat="45.67168775963399" lon="9.967523238009084"><ele>201.0</ele><time>2026-04-12T15:01:56Z</time></trkpt><trkpt lat="45.67164557584013" lon="9.967293337105408"><ele>202.0</ele><time>2026-04-12T15:01:57Z</time></trkpt><trkpt lat="45.671605264980535" lon="9.967064144573284"><ele>202.0</ele><time>2026-04-12T15:01:58Z</time></trkpt><trkpt lat="45.67155911873932" lon="9.966826261117072"><ele>202.0</ele><time>2026-04-12T15:01:59Z</time></trkpt><trkpt lat="45.67151688615657" lon="9.966574200025443"><ele>202.0</ele><time>2026-04-12T15:02:00Z</time></trkpt><trkpt lat="45.6714715111589" lon="9.966310977038937"><ele>204.0</ele><time>2026-04-12T15:02:01Z</time></trkpt><trkpt lat="45.671419503888366" lon="9.966035466815251"><ele>206.0</ele><time>2026-04-12T15:02:02Z</time></trkpt><trkpt lat="45.67137497829701" lon="9.96577756447026"><ele>208.0</ele><time>2026-04-12T15:02:03Z</time></trkpt><trkpt lat="45.6712974554757" lon="9.965290434027981"><ele>209.33333333333331</ele><time>2026-04-12T15:02:05Z</time></trkpt><trkpt lat="45.67125598203544" lon="9.965059346319732"><ele>210.66666666666669</ele><time>2026-04-12T15:02:06Z</time></trkpt><trkpt lat="45.67121344355754" lon="9.964843314517912"><ele>212.0</ele><time>2026-04-12T15:02:07Z</time></trkpt><trkpt lat="45.67117651062257" lon="9.964630814790366"><ele>212.5</ele><time>2026-04-12T15:02:08Z</time></trkpt><trkpt lat="45.671140074616325" lon="9.964431081644484"><ele>213.0</ele><time>2026-04-12T15:02:09Z</time></trkpt><trkpt lat="45.671106477140384" lon="9.964233596739577"><ele>213.5</ele><time>2026-04-12T15:02:10Z</time></trkpt><trkpt lat="45.671072911370004" lon="9.964046135842835"><ele>214.0</ele><time>2026-04-12T15:02:11Z</time></trkpt><trkpt lat="45.67104568130198" lon="9.963875998221798"><ele>211.79999999999998</ele><time>2026-04-12T15:02:12Z</time></trkpt><trkpt lat="45.671018725562575" lon="9.963716760989222"><ele>209.59999999999997</ele><time>2026-04-12T15:02:13Z</time></trkpt><trkpt lat="45.6709936720918" lon="9.963571810891496"><ele>207.4</ele><time>2026-04-12T15:02:14Z</time></trkpt><trkpt lat="45.67098210287661" lon="9.96344980033088"><ele>205.2</ele><time>2026-04-12T15:02:15Z</time></trkpt><trkpt lat="45.67097017964054" lon="9.963342415397152"><ele>203.0</ele><time>2026-04-12T15:02:16Z</time></trkpt><trkpt lat="45.67096113793589" lon="9.963194386470006"><ele>203.00000000000003</ele><time>2026-04-12T15:02:18Z</time></trkpt><trkpt lat="45.670949942174495" lon="9.963093744307745"><ele>203.0</ele><time>2026-04-12T15:02:20Z</time></trkpt><trkpt lat="45.67095074052771" lon="9.963000911795195"><ele>203.0</ele><time>2026-04-12T15:02:22Z</time></trkpt><trkpt lat="45.67092782490912" lon="9.962877539973023"><ele>203.0</ele><time>2026-04-12T15:02:24Z</time></trkpt><trkpt lat="45.670904991232156" lon="9.962772923759623"><ele>203.00000000000003</ele><time>2026-04-12T15:02:26Z</time></trkpt><trkpt lat="45.67088641849565" lon="9.962648526919242"><ele>203.0</ele><time>2026-04-12T15:02:28Z</time></trkpt><trkpt lat="45.67083758025544" lon="9.96250024781146"><ele>203.00000000000003</ele><time>2026-04-12T15:02:30Z</time></trkpt><trkpt lat="45.67078265149829" lon="9.962445564082987"><ele>203.0</ele><time>2026-04-12T15:02:31Z</time></trkpt><trkpt lat="45.67067857395312" lon="9.962507904955507"><ele>203.0</ele><time>2026-04-12T15:02:33Z</time></trkpt><trkpt lat="45.67065413454901" lon="9.962599551700432"><ele>203.0</ele><time>2026-04-12T15:02:34Z</time></trkpt><trkpt lat="45.67063574202649" lon="9.962706830595293"><ele>203.00000000000003</ele><time>2026-04-12T15:02:35Z</time></trkpt><trkpt lat="45.67055816372952" lon="9.962791742851262"><ele>203.0</ele><time>2026-04-12T15:02:36Z</time></trkpt><trkpt lat="45.67049167424775" lon="9.962887799646234"><ele>203.0</ele><time>2026-04-12T15:02:37Z</time></trkpt><trkpt lat="45.670399928811065" lon="9.962962950919998"><ele>203.0</ele><time>2026-04-12T15:02:38Z</time></trkpt><trkpt lat="45.670314500986585" lon="9.96305692142025"><ele>203.0</ele><time>2026-04-12T15:02:39Z</time></trkpt><trkpt lat="45.67022541248675" lon="9.963166654621268"><ele>203.0</ele><time>2026-04-12T15:02:40Z</time></trkpt><trkpt lat="45.670130240925644" lon="9.96327050836741"><ele>201.8</ele><time>2026-04-12T15:02:41.001Z</time></trkpt><trkpt lat="45.670039734382854" lon="9.963372526813759"><ele>200.60000000000002</ele><time>2026-04-12T15:02:42.001Z</time></trkpt><trkpt lat="45.669953079582484" lon="9.963464881863912"><ele>199.39999999999998</ele><time>2026-04-12T15:02:43.001Z</time></trkpt><trkpt lat="45.66987184186685" lon="9.963542032991025"><ele>198.2</ele><time>2026-04-12T15:02:44.001Z</time></trkpt><trkpt lat="45.66980017986002" lon="9.963613321709838"><ele>197.0</ele><time>2026-04-12T15:02:45.001Z</time></trkpt><trkpt lat="45.66972264098491" lon="9.963651738672754"><ele>197.0</ele><time>2026-04-12T15:02:46.001Z</time></trkpt><trkpt lat="45.66966185991245" lon="9.963699736982097"><ele>197.0</ele><time>2026-04-12T15:02:47.001Z</time></trkpt><trkpt lat="45.669570166635125" lon="9.963796558701777"><ele>197.0</ele><time>2026-04-12T15:02:49.001Z</time></trkpt><trkpt lat="45.6694896164017" lon="9.963877903888394"><ele>197.0</ele><time>2026-04-12T15:02:51.001Z</time></trkpt><trkpt lat="45.66940623566762" lon="9.963951417454465"><ele>197.0</ele><time>2026-04-12T15:02:53.001Z</time></trkpt><trkpt lat="45.66929543320246" lon="9.963998290541628"><ele>196.16666666666669</ele><time>2026-04-12T15:02:55.001Z</time></trkpt><trkpt lat="45.66917278628552" lon="9.963947314833058"><ele>195.33333333333334</ele><time>2026-04-12T15:02:57.001Z</time></trkpt><trkpt lat="45.66910815232614" lon="9.963887839442371"><ele>194.5</ele><time>2026-04-12T15:02:58.001Z</time></trkpt><trkpt lat="45.669060042972866" lon="9.963827749068344"><ele>193.66666666666669</ele><time>2026-04-12T15:02:58.999Z</time></trkpt><trkpt lat="45.66902363702756" lon="9.963731168506483"><ele>192.83333333333334</ele><time>2026-04-12T15:03:00.999Z</time></trkpt><trkpt lat="45.668993419919346" lon="9.963642400296077"><ele>192.0</ele><time>2026-04-12T15:03:04.999Z</time></trkpt><trkpt lat="45.668943399595214" lon="9.963497949672265"><ele>192.0</ele><time>2026-04-12T15:03:07.999Z</time></trkpt><trkpt lat="45.668915372534975" lon="9.963415742524623"><ele>192.0</ele><time>2026-04-12T15:03:08.999Z</time></trkpt><trkpt lat="45.668862476697235" lon="9.963244248941082"><ele>192.0</ele><time>2026-04-12T15:03:10.999Z</time></trkpt><trkpt lat="45.66883170719818" lon="9.963148841425006"><ele>192.0</ele><time>2026-04-12T15:03:11.999Z</time></trkpt><trkpt lat="45.668792036870286" lon="9.963049679937011"><ele>192.0</ele><time>2026-04-12T15:03:13Z</time></trkpt><trkpt lat="45.668754867267566" lon="9.962948648397042"><ele>192.0</ele><time>2026-04-12T15:03:14Z</time></trkpt><trkpt lat="45.66872522785034" lon="9.962858840151247"><ele>192.0</ele><time>2026-04-12T15:03:15Z</time></trkpt><trkpt lat="45.66868612776271" lon="9.962693949527528"><ele>192.0</ele><time>2026-04-12T15:03:17Z</time></trkpt><trkpt lat="45.66863820496358" lon="9.962535097040334"><ele>192.0</ele><time>2026-04-12T15:03:19Z</time></trkpt><trkpt lat="45.66858616024528" lon="9.962385025281627"><ele>192.0</ele><time>2026-04-12T15:03:21Z</time></trkpt><trkpt lat="45.66854102451959" lon="9.962244222521003"><ele>192.2</ele><time>2026-04-12T15:03:23Z</time></trkpt><trkpt lat="45.668504487505075" lon="9.962122166022038"><ele>192.39999999999998</ele><time>2026-04-12T15:03:25Z</time></trkpt><trkpt lat="45.66846858111868" lon="9.962012705095843"><ele>192.60000000000002</ele><time>2026-04-12T15:03:27Z</time></trkpt><trkpt lat="45.66843013836206" lon="9.961874446481778"><ele>192.8</ele><time>2026-04-12T15:03:29Z</time></trkpt><trkpt lat="45.668388985473875" lon="9.96172784601986"><ele>193.0</ele><time>2026-04-12T15:03:31Z</time></trkpt><trkpt lat="45.66836072065848" lon="9.961593780320626"><ele>193.2</ele><time>2026-04-12T15:03:33Z</time></trkpt><trkpt lat="45.66831992247177" lon="9.961478775105759"><ele>193.4</ele><time>2026-04-12T15:03:35Z</time></trkpt><trkpt lat="45.66827477073047" lon="9.961379186665905"><ele>193.6</ele><time>2026-04-12T15:03:37Z</time></trkpt><trkpt lat="45.66825397733746" lon="9.96127063921501"><ele>193.79999999999998</ele><time>2026-04-12T15:03:39Z</time></trkpt><trkpt lat="45.668201052773505" lon="9.96114154594958"><ele>194.0</ele><time>2026-04-12T15:03:41Z</time></trkpt><trkpt lat="45.6681628468411" lon="9.960978299386941"><ele>194.00000000000003</ele><time>2026-04-12T15:03:43Z</time></trkpt><trkpt lat="45.6681339456218" lon="9.960886980062595"><ele>194.0</ele><time>2026-04-12T15:03:44Z</time></trkpt><trkpt lat="45.66810196875199" lon="9.960795642418752"><ele>194.0</ele><time>2026-04-12T15:03:45Z</time></trkpt><trkpt lat="45.66807491181888" lon="9.960707911717803"><ele>194.0</ele><time>2026-04-12T15:03:46Z</time></trkpt><trkpt lat="45.668054327511435" lon="9.960619428782966"><ele>194.00000000000003</ele><time>2026-04-12T15:03:47Z</time></trkpt><trkpt lat="45.66801056192214" lon="9.960457926505807"><ele>194.0</ele><time>2026-04-12T15:03:49Z</time></trkpt><trkpt lat="45.667964530994745" lon="9.960315874252906"><ele>194.0</ele><time>2026-04-12T15:03:51Z</time></trkpt><trkpt lat="45.66791600243077" lon="9.960174419733749"><ele>194.0</ele><time>2026-04-12T15:03:53Z</time></trkpt><trkpt lat="45.66787060689367" lon="9.959971569614106"><ele>194.0</ele><time>2026-04-12T15:03:56Z</time></trkpt><trkpt lat="45.66783197759575" lon="9.959840155044304"><ele>194.0</ele><time>2026-04-12T15:03:58Z</time></trkpt><trkpt lat="45.667787593696815" lon="9.959692236528328"><ele>193.79999999999998</ele><time>2026-04-12T15:04:00Z</time></trkpt><trkpt lat="45.66774655842213" lon="9.959565137825367"><ele>193.6</ele><time>2026-04-12T15:04:02Z</time></trkpt><trkpt lat="45.667693285857624" lon="9.95942340230289"><ele>193.4</ele><time>2026-04-12T15:04:04Z</time></trkpt><trkpt lat="45.667696100452446" lon="9.95932470375217"><ele>193.2</ele><time>2026-04-12T15:04:05Z</time></trkpt><trkpt lat="45.66765121010343" lon="9.959186797773237"><ele>193.0</ele><time>2026-04-12T15:04:07Z</time></trkpt><trkpt lat="45.66762386812857" lon="9.95910086362914"><ele>193.33333333333331</ele><time>2026-04-12T15:04:09Z</time></trkpt><trkpt lat="45.66759065458114" lon="9.958989985008225"><ele>193.66666666666666</ele><time>2026-04-12T15:04:14Z</time></trkpt><trkpt lat="45.66755958113131" lon="9.958878225136026"><ele>194.0</ele><time>2026-04-12T15:04:17Z</time></trkpt><trkpt lat="45.667577620455084" lon="9.958781938123352"><ele>194.33333333333331</ele><time>2026-04-12T15:04:21Z</time></trkpt><trkpt lat="45.66760081861261" lon="9.958687197610601"><ele>194.66666666666666</ele><time>2026-04-12T15:04:23Z</time></trkpt><trkpt lat="45.667601831073114" lon="9.958542365695378"><ele>195.0</ele><time>2026-04-12T15:04:25Z</time></trkpt><trkpt lat="45.66764587670919" lon="9.958394686722068"><ele>195.25</ele><time>2026-04-12T15:04:27Z</time></trkpt><trkpt lat="45.667717190255914" lon="9.958259389582533"><ele>195.5</ele><time>2026-04-12T15:04:29Z</time></trkpt><trkpt lat="45.6677774312976" lon="9.958123913877754"><ele>195.75</ele><time>2026-04-12T15:04:31Z</time></trkpt><trkpt lat="45.66783353962143" lon="9.957978396860158"><ele>196.0</ele><time>2026-04-12T15:04:33Z</time></trkpt><trkpt lat="45.66787727756865" lon="9.957824480634502"><ele>196.0</ele><time>2026-04-12T15:04:35Z</time></trkpt><trkpt lat="45.6679207612515" lon="9.95767896971778"><ele>196.0</ele><time>2026-04-12T15:04:37Z</time></trkpt><trkpt lat="45.66793623532937" lon="9.957585753951756"><ele>196.0</ele><time>2026-04-12T15:04:38Z</time></trkpt><trkpt lat="45.667972290136454" lon="9.95742144032435"><ele>196.0</ele><time>2026-04-12T15:04:40Z</time></trkpt><trkpt lat="45.66801227132039" lon="9.957275717435383"><ele>196.0</ele><time>2026-04-12T15:04:42Z</time></trkpt><trkpt lat="45.66806041924108" lon="9.957182571114455"><ele>196.5</ele><time>2026-04-12T15:04:44Z</time></trkpt><trkpt lat="45.667922328451525" lon="9.957038063276768"><ele>197.0</ele><time>2026-04-12T15:04:45Z</time></trkpt><trkpt lat="45.66790451348837" lon="9.956891031140934"><ele>197.5</ele><time>2026-04-12T15:04:47Z</time></trkpt><trkpt lat="45.667905219046325" lon="9.956737482693791"><ele>198.0</ele><time>2026-04-12T15:04:49.001Z</time></trkpt><trkpt lat="45.66789046103408" lon="9.95656269350985"><ele>198.2</ele><time>2026-04-12T15:04:51.001Z</time></trkpt><trkpt lat="45.667850091106345" lon="9.956396886434376"><ele>198.4</ele><time>2026-04-12T15:04:53.001Z</time></trkpt><trkpt lat="45.667810096618034" lon="9.956228632916382"><ele>198.6</ele><time>2026-04-12T15:04:55.001Z</time></trkpt><trkpt lat="45.66774352868281" lon="9.956091824719454"><ele>198.79999999999998</ele><time>2026-04-12T15:04:57.001Z</time></trkpt><trkpt lat="45.66770322094838" lon="9.956018619626095"><ele>199.0</ele><time>2026-04-12T15:04:58.001Z</time></trkpt><trkpt lat="45.667633260102164" lon="9.955993552367598"><ele>198.99999999999997</ele><time>2026-04-12T15:04:59.001Z</time></trkpt><trkpt lat="45.667527509207495" lon="9.955940158139176"><ele>199.0</ele><time>2026-04-12T15:05:01.001Z</time></trkpt><trkpt lat="45.667450395523446" lon="9.955927300707252"><ele>199.0</ele><time>2026-04-12T15:05:03.001Z</time></trkpt><trkpt lat="45.66738093420316" lon="9.955968809843785"><ele>199.0</ele><time>2026-04-12T15:05:05.999Z</time></trkpt><trkpt lat="45.66730886765904" lon="9.956016142947087"><ele>198.99999999999997</ele><time>2026-04-12T15:05:08.999Z</time></trkpt><trkpt lat="45.667221279472905" lon="9.956014657767849"><ele>199.0</ele><time>2026-04-12T15:05:10.999Z</time></trkpt><trkpt lat="45.66713659209926" lon="9.955982665677508"><ele>199.0</ele><time>2026-04-12T15:05:12.999Z</time></trkpt><trkpt lat="45.66705859200858" lon="9.955941556916219"><ele>199.0</ele><time>2026-04-12T15:05:14.999Z</time></trkpt><trkpt lat="45.66697382292769" lon="9.955913732036768"><ele>199.0</ele><time>2026-04-12T15:05:16.999Z</time></trkpt><trkpt lat="45.666903650190065" lon="9.955884479467365"><ele>199.0</ele><time>2026-04-12T15:05:18.999Z</time></trkpt><trkpt lat="45.66683690980139" lon="9.955849847562012"><ele>199.0</ele><time>2026-04-12T15:05:22Z</time></trkpt><trkpt lat="45.66674085027855" lon="9.9559875931254"><ele>197.83333333333331</ele><time>2026-04-12T15:05:24Z</time></trkpt><trkpt lat="45.666673338908105" lon="9.956127680481446"><ele>196.66666666666666</ele><time>2026-04-12T15:05:26Z</time></trkpt><trkpt lat="45.66665884082372" lon="9.956219746278288"><ele>195.5</ele><time>2026-04-12T15:05:30Z</time></trkpt><trkpt lat="45.666604226019565" lon="9.956362343383287"><ele>194.33333333333331</ele><time>2026-04-12T15:05:41Z</time></trkpt><trkpt lat="45.666549332971144" lon="9.956410167210073"><ele>193.16666666666666</ele><time>2026-04-12T15:05:43Z</time></trkpt><trkpt lat="45.66650016242266" lon="9.956476936872106"><ele>192.0</ele><time>2026-04-12T15:05:58Z</time></trkpt><trkpt lat="45.666458039940466" lon="9.9565809663026"><ele>192.0</ele><time>2026-04-12T15:06:01Z</time></trkpt><trkpt lat="45.66640025023652" lon="9.956629501205816"><ele>192.0</ele><time>2026-04-12T15:06:04Z</time></trkpt></trkseg></trk></gpx>